Tue Mar 2 21:17:44 2021 PST

STN DATE TIME WDIR WSPD GUST TEMP DEWPT RH SLP RR YRRN DT QT INDRTEMP

A`s OFFICE NORTH: 03-02-2021 211724 305.0 8.1 8.1 54.1 -44.7 1.0 29.81 8.1 0.000 0 1 66.9
A`s OFFICE SOUTH: 03-02-2021 211727 311.0 4.0 4.0 54.3 36.1 50.0 29.83 8.0 0.000 0 1 68.0
Z`s OFFICE NORTH: 03-02-2021 211724 305.0 8.1 8.1 54.1 -44.7 1.0 29.81 8.1 0.000 3 1 66.9
Z`s OFFICE SOUTH: 03-02-2021 211727 311.0 4.0 4.0 54.3 36.1 50.0 29.83 8.0 0.000 0 1 68.0

SLEEPTIME: 20 SECONDS
   NEXT HOME GAME 04/01/2021; FIRST PITCH: 7:07 PM PDT; GAMEPK: 634640


GOOD SENSOR STATUS FOR LAST 9.924 DAYS SINCE Sat Feb 20 23:06:30 2021

BASEBALL: 1 FOOTBALL: 0 GOLF: 1 BEACH VOLLEYBALL: 0 CRICKET: 1 STATCAST: 0
USED: 40% KBYTES: 11634888

LAST A`s OFFICE NORTH SENSOR TRANSMISSION FAILURE 9.926 DAYS AGO AT Sat Feb 20 23:04:06 2021
LAST RESUMPTION AFTER ≳ 60 SECOND LONG FAILURE WAS 2676 SECONDS AGO AT Tue Mar 2 20:32:48 2021 DURATION OF FAILURE: 9.895 DAYS
LAST A`s OFFICE NORTH METBRDGNORTH FAILURE 63.125 DAYS AGO at Tue Dec 29 18:17:19 2020
LAST A`s OFFICE NORTH METBRDGNORTH RESUMPTION AFTER ≳ 300 SECOND LONG FAILURE WAS 63.103 DAYS AGO AT Tue Dec 29 18:49:05 2020 DURATION OF FAILURE: 1906 SECONDS

LAST A`s OFFICE SOUTH SENSOR TRANSMISSION FAILURE 3.509 DAYS AGO AT Sat Feb 27 09:04:28 2021
LAST RESUMPTION AFTER ≳ 60 SECOND LONG FAILURE WAS 2676 SECONDS AGO AT Tue Mar 2 20:32:48 2021 DURATION OF FAILURE: 3.478 DAYS
LAST A`s OFFICE SOUTH METBRDGSOUTH FAILURE 63.125 DAYS AGO at Tue Dec 29 18:17:19 2020
LAST A`s OFFICE SOUTH METBRDGSOUTH RESUMPTION AFTER ≳ 300 SECOND LONG FAILURE WAS 63.103 DAYS AGO AT Tue Dec 29 18:49:05 2020 DURATION OF FAILURE: 1906 SECONDS

LAST Z`s OFFICE NORTH SENSOR TRANSMISSION FAILURE 9.926 DAYS AGO AT Sat Feb 20 23:04:06 2021
LAST RESUMPTION AFTER ≳ 60 SECOND LONG FAILURE WAS 2676 SECONDS AGO AT Tue Mar 2 20:32:48 2021 DURATION OF FAILURE: 9.895 DAYS
LAST Z`s OFFICE NORTH METBRDGZHONORTH FAILURE 63.125 DAYS AGO at Tue Dec 29 18:17:19 2020
LAST Z`s OFFICE NORTH METBRDGZHONORTH RESUMPTION AFTER ≳ 300 SECOND LONG FAILURE WAS 63.103 DAYS AGO AT Tue Dec 29 18:49:05 2020 DURATION OF FAILURE: 1906 SECONDS

LAST Z`s OFFICE SOUTH SENSOR TRANSMISSION FAILURE 9.926 DAYS AGO AT Sat Feb 20 23:04:30 2021
LAST RESUMPTION AFTER ≳ 60 SECOND LONG FAILURE WAS 2676 SECONDS AGO AT Tue Mar 2 20:32:48 2021 DURATION OF FAILURE: 9.895 DAYS
LAST Z`s OFFICE SOUTH METBRDGZHOSOUTH FAILURE 63.125 DAYS AGO at Tue Dec 29 18:17:19 2020
LAST Z`s OFFICE SOUTH METBRDGZHOSOUTH RESUMPTION AFTER ≳ 300 SECOND LONG FAILURE WAS 63.103 DAYS AGO AT Tue Dec 29 18:49:05 2020 DURATION OF FAILURE: 1906 SECONDS

G1234 (1/0 = UP/DN): 1111 ALL SENSORS REPORTING FOR DUTY, MA'AM!


NUMBER OF NEW PACKETS: 20 RATE: 0.833 ELAPSED TIME: 24
% OF METBRDGNORTH PACKETS/LAST 20: 50.0%
% OF METBRDGSOUTH PACKETS/LAST 20: 50.0%
% OF METBRDGZHONORTH PACKETS/LAST 20: 0.0%
% OF METBRDGZHOSOUTH PACKETS/LAST 20: 0.0%
% OF PACKETS/LAST 20: 100.0%

TEAM1 #EMAILS: 16
SYSTEM #EMAILS: 42

RING CENTRAL COLISEUM MAXFF: 17.90,264.5,125941,03-02-2021
KOAK MAXFF: 11.3,281.2,134009,03/02/2021
KOAK: 03-02-2021 211005 316.6 4.2 6.6 54 44.3 69.2 29.84 0.0000 0.0000
RING CENTRAL COLISEUM TAB2: 03-02-2021 211724 307 8.1 8.1 54 44.3 69.2 29.837 -1 -3 -5 -8 -10 5 4 3 1 -1 2 0 -3 -7 -9 5 4 3 2 0 211005 0 0 3 0 8.1 0.000
MLBC: RING CENTRAL COLISEUM,03-02-2021,211727,-1,-3,-5,-8,-10,-5,-4,-3,-1,1
MLBCK: KOAK,11-20-2019,041225,,,,,,0,0,0,0,0
MLBW: RING CENTRAL COLISEUM,03-02-2021,211727,-10,-9,-5,-2,-1,2,5,7,6,7
MLBWK: KOAK,11-20-2019,041225,,,,,,0,0,0,0,0
RING CENTRAL COLISEUM ORIENTATION: 235° NUMBER OF GOOD SENSORS: 2/2
XMLB0: 0.000
YMLB0: 0.000

HIGH FLY BALL DIST    XMLB YMLB        DDV    XDVL/R
TRAJECT 1:  370.913 
 -265.199  259.163          2             5
TRAJECT 2:  374.536 
 -170.527  333.343          0             4
TRAJECT 3:  373.397     
 -3.481  373.273          3             3
TRAJECT 4:   367.596  
 162.352  329.684          7             2
TRAJECT 5:   359.296  
 254.708  253.266          9             0



FORECAST DATA

DATE         TIME   DD   FF   GST   TF   DP   RH   PR   RR   EPOCH   DATETIMESTAMP

03-02-2021 210000 145.7 6.4 6.4 48 43.2 79.9 29.84 0.0000 1614736800 20210302210000
03-02-2021 220000 324.2 6.5 6.5 46 41.4 76.3 29.82 0.0000 1614740400 20210302220000
03-02-2021 230000 25.7 5.5 5.5 45 41.3 78.0 29.82 0.0000 1614744000 20210302230000
03-03-2021 000000 154.6 3.9 3.9 44 40.7 76.2 29.83 0.0000 1614747600 20210303000000
03-03-2021 010000 144.6 3.0 3.0 43 40.8 80.6 29.82 0.0000 1614751200 20210303010000
03-03-2021 020000 109.4 3.1 3.1 42 40.2 80.4 29.80 0.0000 1614754800 20210303020000
03-03-2021 030000 108.8 4.3 4.3 42 39.6 78.0 29.78 0.0000 1614758400 20210303030000
03-03-2021 040000 104.8 4.7 4.7 42 39.0 77.3 29.76 0.0000 1614762000 20210303040000
03-03-2021 050000 100.4 5.9 5.9 41 39.2 80.9 29.77 0.0000 1614765600 20210303050000
03-03-2021 060000 92.4 4.6 4.6 41 39.0 78.8 29.76 0.0000 1614769200 20210303060000
03-03-2021 070000 80.5 4.3 4.3 42 39.1 78.2 29.77 0.0000 1614772800 20210303070000
03-03-2021 080000 46.0 3.9 3.9 46 41.0 79.3 29.77 0.0000 1614776400 20210303080000
03-03-2021 090000 151.1 4.9 4.9 50 43.0 78.9 29.79 0.0000 1614780000 20210303090000
03-03-2021 100000 191.7 8.4 8.4 53 43.8 74.3 29.80 0.0000 1614783600 20210303100000
03-03-2021 110000 234.6 7.4 7.4 56 43.6 67.2 29.79 0.0000 1614787200 20210303110000
03-03-2021 120000 248.6 8.8 8.8 57 44.2 66.5 29.80 0.0000 1614790800 20210303120000
03-03-2021 130000 254.4 12.8 12.8 56 44.7 71.3 29.81 0.0000 1614794400 20210303130000
03-03-2021 140000 252.7 15.6 15.6 54 45.0 76.2 29.81 0.0000 1614798000 20210303140000
03-03-2021 150000 250.7 15.1 15.1 52 44.7 79.5 29.82 0.0000 1614801600 20210303150000
03-03-2021 160000 242.3 17.3 17.3 53 46.2 77.6 29.86 0.0000 1614805200 20210303160000
03-03-2021 170000 245.2 16.9 16.9 52 46.4 82.5 29.88 0.0000 1614808800 20210303170000
03-03-2021 180000 242.9 16.2 16.2 49 46.7 91.0 29.91 0.0000 1614812400 20210303180000
03-03-2021 190000 239.1 15.9 15.9 48 46.8 94.0 29.94 0.0000 1614816000 20210303190000
03-03-2021 200000 234.9 14.1 14.1 48 46.6 94.2 29.96 0.0000 1614819600 20210303200000
03-03-2021 210000 225.5 12.7 12.7 48 46.2 93.4 29.99 0.0000 1614823200 20210303210000
03-03-2021 220000 217.5 12.2 12.2 48 46.1 94.0 30.02 0.0000 1614826800 20210303220000
03-03-2021 230000 219.7 11.6 11.6 48 46.0 94.0 30.04 0.0000 1614830400 20210303230000
03-04-2021 000000 221.3 11.6 11.6 48 45.8 93.5 30.06 0.0000 1614834000 20210304000000
03-04-2021 010000 222.1 11.7 11.7 48 45.7 93.1 30.08 0.0000 1614837600 20210304010000
03-04-2021 020000 219.9 12.4 12.4 47 45.6 93.1 30.11 0.0000 1614841200 20210304020000
03-04-2021 030000 210.6 11.3 11.3 47 45.6 93.5 30.13 0.0000 1614844800 20210304030000
03-04-2021 040000 185.4 10.5 10.5 47 45.3 94.4 30.13 0.0000 1614848400 20210304040000
03-04-2021 050000 171.3 8.2 8.2 46 44.3 93.4 30.16 0.0000 1614852000 20210304050000
03-04-2021 060000 155.5 7.7 7.7 45 43.1 92.4 30.18 0.0000 1614855600 20210304060000
03-04-2021 070000 137.1 9.8 9.8 45 42.7 91.3 30.19 0.0000 1614859200 20210304070000
03-04-2021 080000 146.0 9.2 9.2 48 43.8 85.1 30.22 0.0000 1614862800 20210304080000
03-04-2021 090000 155.2 8.2 8.2 50 43.4 77.2 30.23 0.0000 1614866400 20210304090000
03-04-2021 100000 158.5 7.7 7.7 52 42.0 67.5 30.24 0.0000 1614870000 20210304100000
03-04-2021 110000 166.6 7.4 7.4 55 39.6 56.2 30.24 0.0000 1614873600 20210304110000
03-04-2021 120000 191.4 5.1 5.1 56 38.1 50.1 30.25 0.0000 1614877200 20210304120000
03-04-2021 130000 272.1 5.9 5.9 58 40.4 52.0 30.24 0.0000 1614880800 20210304130000
03-04-2021 140000 280.2 13.3 13.3 58 41.5 53.5 30.24 0.0000 1614884400 20210304140000
03-04-2021 150000 275.6 13.1 13.1 58 41.3 54.3 30.25 0.0000 1614888000 20210304150000
03-04-2021 160000 279.4 11.5 11.5 56 41.6 57.2 30.25 0.0000 1614891600 20210304160000
03-04-2021 170000 286.0 10.7 10.7 55 42.5 63.3 30.24 0.0000 1614895200 20210304170000
03-04-2021 180000 291.4 9.4 9.4 52 44.2 75.3 30.24 0.0000 1614898800 20210304180000
03-04-2021 190000 277.9 9.3 9.3 50 44.7 81.5 30.25 0.0000 1614902400 20210304190000
03-04-2021 200000 254.8 8.1 8.1 49 44.2 83.2 30.26 0.0000 1614906000 20210304200000
03-04-2021 210000 232.0 8.1 8.1 50 43.4 77.3 30.26 0.0000 1614909600 20210304210000
03-04-2021 220000 165.3 6.8 6.8 49 43.1 78.9 30.26 0.0000 1614913200 20210304220000
03-04-2021 230000 139.0 7.2 7.2 46 42.0 84.6 30.26 0.0000 1614916800 20210304230000
03-05-2021 000000 124.6 7.0 7.0 46 41.0 81.6 30.25 0.0000 1614920400 20210305000000
03-05-2021 010000 116.6 6.8 6.8 45 39.5 79.5 30.25 0.0000 1614924000 20210305010000
03-05-2021 020000 117.3 6.6 6.6 44 38.6 80.9 30.24 0.0000 1614927600 20210305020000
03-05-2021 030000 136.7 5.7 5.7 46 38.0 72.4 30.23 0.0000 1614931200 20210305030000
03-05-2021 040000 182.9 5.7 5.7 47 38.1 70.0 30.22 0.0000 1614934800 20210305040000
03-05-2021 050000 167.2 6.1 6.1 47 39.1 72.7 30.22 0.0000 1614938400 20210305050000
03-05-2021 060000 141.9 7.0 7.0 44 38.7 81.2 30.22 0.0000 1614942000 20210305060000
03-05-2021 070000 138.3 7.2 7.2 45 39.4 80.9 30.22 0.0000 1614945600 20210305070000
03-05-2021 080000 134.1 7.0 7.0 49 40.2 71.4 30.22 0.0000 1614949200 20210305080000
03-05-2021 090000 151.3 6.9 6.9 52 39.6 61.9 30.22 0.0000 1614952800 20210305090000
03-05-2021 100000 161.8 7.6 7.6 55 38.9 54.8 30.21 0.0000 1614956400 20210305100000
03-05-2021 110000 169.2 6.6 6.6 57 39.3 51.3 30.19 0.0000 1614960000 20210305110000
03-05-2021 120000 199.5 4.0 4.0 59 40.9 51.9 30.17 0.0000 1614963600 20210305120000
03-05-2021 130000 274.2 6.5 6.5 60 42.3 52.4 30.14 0.0000 1614967200 20210305130000
03-05-2021 140000 276.7 9.2 9.2 60 43.5 55.0 30.11 0.0000 1614970800 20210305140000
03-05-2021 150000 262.9 9.5 9.5 60 43.9 56.0 30.08 0.0000 1614974400 20210305150000
03-05-2021 160000 243.2 12.5 12.5 59 44.2 58.2 30.07 0.0000 1614978000 20210305160000
03-05-2021 170000 235.0 13.6 13.6 57 45.2 64.0 30.05 0.0000 1614981600 20210305170000
03-05-2021 180000 228.9 16.1 16.1 54 47.4 78.5 30.03 0.0000 1614985200 20210305180000
03-05-2021 190000 199.0 18.5 18.5 52 48.4 86.2 30.02 0.0000 1614988800 20210305190000
03-05-2021 200000 180.0 20.7 20.7 51 48.6 90.4 30.00 0.0012 1614992400 20210305200000
03-05-2021 210000 205.8 24.0 24.0 49 46.6 90.4 30.01 0.0045 1614996000 20210305210000
03-05-2021 220000 197.6 20.2 20.2 49 46.0 90.1 30.01 0.0192 1614999600 20210305220000
03-05-2021 230000 258.4 22.3 22.3 47 45.1 92.8 30.04 0.0861 1615003200 20210305230000
03-06-2021 000000 269.1 16.7 16.7 46 42.7 89.1 30.06 0.0778 1615006800 20210306000000
03-06-2021 010000 264.5 18.0 18.0 46 42.2 87.3 30.07 0.0423 1615010400 20210306010000
03-06-2021 020000 279.8 16.4 16.4 46 41.5 85.2 30.09 0.0305 1615014000 20210306020000
03-06-2021 030000 293.8 13.0 13.0 45 40.1 83.8 30.10 0.0272 1615017600 20210306030000
03-06-2021 040000 294.7 10.7 10.7 45 39.2 81.3 30.12 0.0250 1615021200 20210306040000
03-06-2021 050000 299.1 9.3 9.3 44 38.7 77.9 30.14 0.0000 1615024800 20210306050000
03-06-2021 060000 298.0 8.6 8.6 44 38.7 78.8 30.15 0.0000 1615028400 20210306060000
03-06-2021 070000 284.2 9.0 9.0 44 38.7 79.1 30.15 0.0000 1615032000 20210306070000
03-06-2021 080000 297.0 6.9 6.9 44 38.6 75.6 30.18 0.0000 1615035600 20210306080000
03-06-2021 090000 304.7 4.5 4.5 45 38.0 70.7 30.20 0.0000 1615039200 20210306090000
03-06-2021 100000 309.8 5.4 5.4 46 37.1 65.4 30.20 0.0000 1615042800 20210306100000
03-06-2021 110000 124.8 5.2 5.2 47 38.3 64.8 30.20 0.0000 1615046400 20210306110000
03-06-2021 120000 320.7 5.4 5.4 48 37.9 62.3 30.17 0.0000 1615050000 20210306120000
03-06-2021 130000 299.7 7.1 7.1 49 37.8 60.1 30.15 0.0000 1615053600 20210306130000
03-06-2021 140000 279.4 9.0 9.0 50 38.6 59.7 30.13 0.0000 1615057200 20210306140000
03-06-2021 150000 273.4 10.8 10.8 50 38.8 60.6 30.12 0.0000 1615060800 20210306150000
03-06-2021 160000 276.1 13.1 13.1 50 39.3 62.2 30.11 0.0000 1615064400 20210306160000
03-06-2021 170000 284.8 16.1 16.1 49 39.7 65.5 30.10 0.0000 1615068000 20210306170000
03-06-2021 180000 290.4 17.4 17.4 48 40.0 70.8 30.09 0.0000 1615071600 20210306180000
03-06-2021 190000 292.9 17.7 17.7 47 39.7 72.6 30.10 0.0000 1615075200 20210306190000
03-06-2021 200000 299.9 16.6 16.6 47 39.5 72.7 30.11 0.0000 1615078800 20210306200000
03-06-2021 210000 299.8 15.4 15.4 47 39.0 72.6 30.12 0.0000 1615082400 20210306210000


00:17:48 up 18:17, 2 users, load average: 0.83, 1.13, 1.44
00:17:24 up 18:17, 2 users, load average: 0.93, 1.17, 1.46
00:17:00 up 18:16, 2 users, load average: 0.98, 1.21, 1.48
00:16:36 up 18:16, 2 users, load average: 0.96, 1.22, 1.50
00:16:12 up 18:15, 2 users, load average: 1.04, 1.26, 1.51
00:15:48 up 18:15, 2 users, load average: 1.17, 1.30, 1.53
00:15:24 up 18:15, 2 users, load average: 1.31, 1.34, 1.55
00:14:59 up 18:14, 2 users, load average: 1.38, 1.37, 1.57
00:14:33 up 18:14, 2 users, load average: 1.18, 1.34, 1.57
00:14:08 up 18:13, 2 users, load average: 0.96, 1.34, 1.57
00:13:44 up 18:13, 2 users, load average: 1.03, 1.38, 1.60
00:13:20 up 18:13, 2 users, load average: 1.22, 1.45, 1.62
00:12:56 up 18:12, 2 users, load average: 1.42, 1.51, 1.65
00:12:32 up 18:12, 2 users, load average: 1.62, 1.55, 1.66
00:12:07 up 18:11, 2 users, load average: 1.18, 1.48, 1.64
00:11:42 up 18:11, 2 users, load average: 1.45, 1.55, 1.67
00:11:18 up 18:11, 2 users, load average: 1.39, 1.54, 1.67
00:10:53 up 18:10, 2 users, load average: 1.10, 1.52, 1.67
00:10:29 up 18:10, 2 users, load average: 1.23, 1.58, 1.69
00:10:05 up 18:09, 2 users, load average: 1.51, 1.66, 1.72
00:09:40 up 18:09, 2 users, load average: 1.84, 1.74, 1.75
00:09:16 up 18:09, 2 users, load average: 2.11, 1.79, 1.77
00:08:52 up 18:08, 2 users, load average: 2.09, 1.75, 1.76
00:08:27 up 18:08, 2 users, load average: 1.84, 1.68, 1.73
00:08:03 up 18:07, 2 users, load average: 1.57, 1.62, 1.71
00:07:38 up 18:07, 2 users, load average: 1.87, 1.67, 1.73
00:07:13 up 18:06, 2 users, load average: 1.85, 1.66, 1.73
00:06:47 up 18:06, 2 users, load average: 1.46, 1.59, 1.71
00:06:22 up 18:06, 2 users, load average: 1.11, 1.55, 1.70
00:05:57 up 18:05, 2 users, load average: 0.84, 1.54, 1.70
00:05:32 up 18:05, 2 users, load average: 0.85, 1.60, 1.72
00:05:08 up 18:04, 2 users, load average: 0.87, 1.67, 1.75
00:04:43 up 18:04, 2 users, load average: 0.90, 1.75, 1.78
00:04:19 up 18:04, 2 users, load average: 0.95, 1.83, 1.80
00:03:55 up 18:03, 2 users, load average: 1.14, 1.94, 1.84
00:03:30 up 18:03, 2 users, load average: 1.49, 2.07, 1.88
00:03:05 up 18:02, 2 users, load average: 1.90, 2.20, 1.91
00:02:39 up 18:02, 2 users, load average: 2.06, 2.27, 1.93
00:02:14 up 18:01, 2 users, load average: 2.53, 2.38, 1.95
00:01:50 up 18:01, 2 users, load average: 3.28, 2.50, 1.98
00:01:25 up 18:01, 2 users, load average: 4.40, 2.62, 2.01
00:01:01 up 18:00, 2 users, load average: 2.22, 2.01, 1.79
00:00:37 up 18:00, 2 users, load average: 2.81, 2.10, 1.82
00:00:13 up 17:59, 2 users, load average: 3.94, 2.23, 1.85
23:59:49 up 17:59, 2 users, load average: 1.12, 1.60, 1.65
23:59:24 up 17:59, 2 users, load average: 1.24, 1.67, 1.67
23:59:00 up 17:58, 2 users, load average: 1.32, 1.72, 1.69
23:58:36 up 17:58, 2 users, load average: 1.42, 1.79, 1.71
23:58:12 up 17:57, 2 users, load average: 1.20, 1.77, 1.70
23:57:48 up 17:57, 2 users, load average: 1.40, 1.86, 1.72
23:57:24 up 17:57, 2 users, load average: 1.34, 1.88, 1.73
23:57:00 up 17:56, 2 users, load average: 1.62, 1.98, 1.76
23:56:36 up 17:56, 2 users, load average: 2.04, 2.08, 1.78
23:56:12 up 17:55, 2 users, load average: 2.85, 2.23, 1.82
23:55:47 up 17:55, 2 users, load average: 1.29, 1.92, 1.72
23:55:23 up 17:55, 2 users, load average: 1.17, 1.96, 1.72
23:54:58 up 17:54, 2 users, load average: 1.17, 2.04, 1.74
23:54:33 up 17:54, 2 users, load average: 1.19, 2.13, 1.76
23:54:08 up 17:53, 2 users, load average: 1.23, 2.23, 1.79
23:53:44 up 17:53, 2 users, load average: 1.25, 2.32, 1.80
23:53:20 up 17:53, 2 users, load average: 1.55, 2.47, 1.83
23:52:56 up 17:52, 2 users, load average: 2.13, 2.65, 1.87
23:52:32 up 17:52, 2 users, load average: 2.79, 2.80, 1.91
23:52:08 up 17:51, 2 users, load average: 3.82, 2.98, 1.94
23:51:43 up 17:51, 2 users, load average: 1.99, 2.63, 1.80
23:51:19 up 17:51, 2 users, load average: 2.34, 2.76, 1.82
23:50:54 up 17:50, 2 users, load average: 2.97, 2.91, 1.84
23:50:30 up 17:50, 2 users, load average: 3.84, 3.06, 1.86
23:50:07 up 17:49, 2 users, load average: 4.97, 3.20, 1.88
23:49:43 up 17:49, 2 users, load average: 3.19, 2.79, 1.72
23:49:19 up 17:49, 2 users, load average: 4.30, 2.95, 1.74
23:48:55 up 17:48, 2 users, load average: 3.38, 2.64, 1.61
23:48:30 up 17:48, 2 users, load average: 4.81, 2.81, 1.64
23:48:05 up 17:47, 2 users, load average: 6.84, 2.99, 1.66
23:47:40 up 17:47, 2 users, load average: 3.38, 2.21, 1.39
23:47:16 up 17:47, 2 users, load average: 4.44, 2.28, 1.39
23:46:52 up 17:46, 2 users, load average: 2.88, 1.83, 1.23
23:46:28 up 17:46, 2 users, load average: 3.52, 1.85, 1.22
23:46:03 up 17:45, 2 users, load average: 4.21, 1.82, 1.19
23:45:38 up 17:45, 2 users, load average: 2.07, 1.33, 1.02
23:45:13 up 17:44, 2 users, load average: 1.80, 1.22, 0.98
23:44:46 up 17:44, 2 users, load average: 1.42, 1.12, 0.94
23:44:21 up 17:44, 2 users, load average: 1.46, 1.11, 0.93
23:43:56 up 17:43, 2 users, load average: 1.12, 1.03, 0.90
23:43:31 up 17:43, 2 users, load average: 0.93, 1.00, 0.89
23:43:06 up 17:42, 2 users, load average: 1.08, 1.03, 0.90
23:42:41 up 17:42, 2 users, load average: 1.12, 1.03, 0.89
23:42:16 up 17:42, 2 users, load average: 1.15, 1.03, 0.89
23:41:52 up 17:41, 2 users, load average: 1.20, 1.04, 0.88
23:41:28 up 17:41, 2 users, load average: 1.17, 1.02, 0.87
23:41:03 up 17:40, 2 users, load average: 0.90, 0.97, 0.85
23:40:38 up 17:40, 2 users, load average: 0.95, 0.98, 0.85
23:40:13 up 17:39, 2 users, load average: 1.22, 1.03, 0.87
23:39:48 up 17:39, 2 users, load average: 1.28, 1.04, 0.86
23:39:24 up 17:39, 2 users, load average: 1.13, 1.00, 0.85
23:39:00 up 17:38, 2 users, load average: 1.25, 1.02, 0.85
23:38:35 up 17:38, 2 users, load average: 1.17, 0.98, 0.84
23:38:11 up 17:37, 2 users, load average: 1.24, 0.98, 0.83
23:37:47 up 17:37, 2 users, load average: 1.46, 1.00, 0.83
23:37:23 up 17:37, 2 users, load average: 1.31, 0.93, 0.81



Subject: INIT2_TEAM1 at Wed Mar 3 04:32:02 UTC 2021

Subject: INIT1_TEAM1 at Wed Mar 3 04:32:02 UTC 2021

Subject: TEAM1 TOO MUCH TIME ELAPSED SINCE LAST A`s OFFICE NORTH UPDATE: 2374 SECONDS AT OAK1CA MANG at Tue Mar 2 20:32:22 2021 for OAK1
TIME ELAPSED SINCE LAST A`s OFFICE NORTH WX[1] UPDATE: 2374 SECONDS at Tue Mar 2 20:32:22 2021 for OAK1
Tue Mar 2 23:32:22 EST 2021

Subject: TEAM1 TOO MUCH TIME ELAPSED SINCE LAST A`s OFFICE SOUTH UPDATE: 2374 SECONDS AT OAK2CA MANG at Tue Mar 2 20:32:22 2021 for OAK2
TIME ELAPSED SINCE LAST A`s OFFICE SOUTH WX[2] UPDATE: 2374 SECONDS at Tue Mar 2 20:32:22 2021 for OAK2
Tue Mar 2 23:32:22 EST 2021

Subject: TEAM1 TOO MUCH TIME ELAPSED SINCE LAST Z`s OFFICE NORTH UPDATE: 2374 SECONDS AT OAK3CA MANG at Tue Mar 2 20:32:22 2021 for OAK3
TIME ELAPSED SINCE LAST Z`s OFFICE NORTH WX[3] UPDATE: 2374 SECONDS at Tue Mar 2 20:32:22 2021 for OAK3
Tue Mar 2 23:32:22 EST 2021

Subject: TEAM1 TOO MUCH TIME ELAPSED SINCE LAST Z`s OFFICE SOUTH UPDATE: 2374 SECONDS AT OAK4CA MANG at Tue Mar 2 20:32:22 2021 for OAK4
TIME ELAPSED SINCE LAST Z`s OFFICE SOUTH WX[4] UPDATE: 2374 SECONDS at Tue Mar 2 20:32:22 2021 for OAK4
Tue Mar 2 23:32:23 EST 2021

Subject: TEAM1 TOO MUCH TIME ELAPSED SINCE LAST OAKTAB UPDATE: 2354 SECONDS AT OAKCA MANG at Tue Mar 2 20:32:22 2021 for OAK
TIME ELAPSED SINCE LAST OAKTAB UPDATE: 2354 SECONDS at Tue Mar 2 20:32:22 2021 for OAK
Tue Mar 2 23:32:23 EST 2021

Subject: TEAM1 CONDITION CLEAR: OAK1CA WXA[1] ELAPSED TIME RESOLVED since time since last update: 25 <= 600 at Tue Mar 2 20:32:47 2021 and ORIGINAL CONDITION: Tue Mar 2 23:32:22 EST 2021
CONDITION CLEAR: OAK1CA ELAPSED TIME WXA[1] RESOLVED since time since last update: 25 <= 600 at Tue Mar 2 20:32:47 2021 and ORIGINAL CONDITION: Tue Mar 2 23:32:22 EST 2021
Tue Mar 2 23:32:47 EST 2021

Subject: TEAM1 CONDITION CLEAR: OAK2CA WXA[2] ELAPSED TIME RESOLVED since time since last update: 25 <= 600 at Tue Mar 2 20:32:47 2021 and ORIGINAL CONDITION: Tue Mar 2 23:32:22 EST 2021
CONDITION CLEAR: OAK2CA ELAPSED TIME WXA[2] RESOLVED since time since last update: 25 <= 600 at Tue Mar 2 20:32:47 2021 and ORIGINAL CONDITION: Tue Mar 2 23:32:22 EST 2021
Tue Mar 2 23:32:47 EST 2021

Subject: TEAM1 CONDITION CLEAR: OAK3CA WXA[3] ELAPSED TIME RESOLVED since time since last update: 25 <= 600 at Tue Mar 2 20:32:47 2021 and ORIGINAL CONDITION: Tue Mar 2 23:32:22 EST 2021
CONDITION CLEAR: OAK3CA ELAPSED TIME WXA[3] RESOLVED since time since last update: 25 <= 600 at Tue Mar 2 20:32:47 2021 and ORIGINAL CONDITION: Tue Mar 2 23:32:22 EST 2021
Tue Mar 2 23:32:48 EST 2021

Subject: TEAM1 CONDITION CLEAR: OAK4CA WXA[4] ELAPSED TIME RESOLVED since time since last update: 25 <= 600 at Tue Mar 2 20:32:47 2021 and ORIGINAL CONDITION: Tue Mar 2 23:32:22 EST 2021
CONDITION CLEAR: OAK4CA ELAPSED TIME WXA[4] RESOLVED since time since last update: 25 <= 600 at Tue Mar 2 20:32:47 2021 and ORIGINAL CONDITION: Tue Mar 2 23:32:22 EST 2021
Tue Mar 2 23:32:48 EST 2021

Subject: TEAM1 CONDITION CLEAR: OAKCA ELAPSED TIME RESOLVED since time since last update: 20 <= 600 at Tue Mar 2 20:32:47 2021 and ORIGINAL CONDITION: Tue Mar 2 23:32:22 EST 2021
CONDITION CLEAR: OAKCA ELAPSED TIME RESOLVED since time since last update: 20 <= 600 at Tue Mar 2 20:32:47 2021 and ORIGINAL CONDITION: Tue Mar 2 23:32:22 EST 2021
Tue Mar 2 23:32:48 EST 2021

Subject: TEAM1 RESTART OF A`s OFFICE NORTH SENSOR FOR OAK at Tue Mar 2 20:32:48 2021
Tue Mar 2 20:32:48 2021 RESTART OF A`s OFFICE NORTH SENSOR BECAUSE AGE OF /home/sinton/1/weather1.txta DECREASED TO: 5 FROM 2354 AND AGEAOLD[1]: 2354 > 300 AND age of /home/sinton/1/weather1.txta: 5 < 300 and SIZE: 72
Tue Mar 2 23:32:48 EST 2021

Subject: TEAM1 RESTART OF A`s OFFICE SOUTH SENSOR FOR OAK2 at Tue Mar 2 20:32:48 2021
Tue Mar 2 20:32:48 2021 RESTART OF A`s OFFICE SOUTH SENSOR BECAUSE AGE OF /home/sinton/1/weather2.txta DECREASED TO: 5 FROM 2354 AND AGEAOLD[2]: 2354 > 300 AND age of /home/sinton/1/weather2.txta: 5 < 300 and SIZE: 71
Tue Mar 2 23:32:48 EST 2021

Subject: TEAM1 RESTART OF Z`s OFFICE NORTH SENSOR FOR OAK3 at Tue Mar 2 20:32:48 2021
Tue Mar 2 20:32:48 2021 RESTART OF Z`s OFFICE NORTH SENSOR BECAUSE AGE OF /home/sinton/1/weather3.txta DECREASED TO: 5 FROM 2354 AND AGEAOLD[3]: 2354 > 300 AND age of /home/sinton/1/weather3.txta: 5 < 300 and SIZE: 72
Tue Mar 2 23:32:48 EST 2021

Subject: TEAM1 RESTART OF Z`s OFFICE SOUTH SENSOR FOR OAK4 at Tue Mar 2 20:32:48 2021
Tue Mar 2 20:32:48 2021 RESTART OF Z`s OFFICE SOUTH SENSOR BECAUSE AGE OF /home/sinton/1/weather4.txta DECREASED TO: 5 FROM 2354 AND AGEAOLD[4]: 2354 > 300 AND age of /home/sinton/1/weather4.txta: 5 < 300 and SIZE: 71
Tue Mar 2 23:32:48 EST 2021

From sinton@wam-2.localdomain Tue Mar 2 21:35:29 2021 Return-Path: X-Original-To: sinton Delivered-To: sinton@wam-2.localdomain Received: by wam-2.localdomain (Postfix, from userid 1001) id 65AAE2138B; Tue, 2 Mar 2021 21:35:29 -0500 (EST) From: root@wam-2.localdomain (Cron Daemon) To: sinton@wam-2.localdomain Subject: Cron bash -c "sleep $[RANDOM%28]m" ; ~/symlinks/TEAM1G/fcst/startfcstgolf.pl 1g > /dev/null MIME-Version: 1.0 Content-Type: text/plain; charset=UTF-8 Content-Transfer-Encoding: 8bit X-Cron-Env: X-Cron-Env: X-Cron-Env: X-Cron-Env: Message-Id: <20210303023529.65AAE2138B@wam-2.localdomain> Date: Tue, 2 Mar 2021 21:35:29 -0500 (EST) % Total % Received % Xferd Average Speed Time Time Time Current Dload Upload Total Spent Left Speed 0 0 0 0 0 0 0 0 --:--:-- --:--:-- --:--:-- 0 100 41677 100 41677 0 0 120k 0 --:--:-- --:--:-- --:--:-- 120k % Total % Received % Xferd Average Speed Time Time Time Current Dload Upload Total Spent Left Speed 0 0 0 0 0 0 0 0 --:--:-- --:--:-- --:--:-- 0 100 41677 100 41677 0 0 271k 0 --:--:-- --:--:-- --:--:-- 271k % Total % Received % Xferd Average Speed Time Time Time Current Dload Upload Total Spent Left Speed 0 0 0 0 0 0 0 0 --:--:-- --:--:-- --:--:-- 0 19 41677 19 7969 0 0 19436 0 0:00:02 --:--:-- 0:00:02 19389 100 41677 100 41677 0 0 98k 0 --:--:-- --:--:-- --:--:-- 98k % Total % Received % Xferd Average Speed Time Time Time Current Dload Upload Total Spent Left Speed 0 0 0 0 0 0 0 0 --:--:-- --:--:-- --:--:-- 0 100 41580 100 41580 0 0 556k 0 --:--:-- --:--:-- --:--:-- 556k From sinton@wam-2.localdomain Tue Mar 2 21:38:34 2021 Return-Path: X-Original-To: sinton Delivered-To: sinton@wam-2.localdomain Received: by wam-2.localdomain (Postfix, from userid 1001) id D4E51220CF; Tue, 2 Mar 2021 21:38:34 -0500 (EST) From: root@wam-2.localdomain (Cron Daemon) To: sinton@wam-2.localdomain Subject: Cron bash -c "sleep $[RANDOM%14]m" ; ~/symlinks/TEAM1N/fcst/startfcst.pl 1n > /dev/null MIME-Version: 1.0 Content-Type: text/plain; charset=UTF-8 Content-Transfer-Encoding: 8bit X-Cron-Env: X-Cron-Env: X-Cron-Env: X-Cron-Env: Message-Id: <20210303023834.D4E51220CF@wam-2.localdomain> Date: Tue, 2 Mar 2021 21:38:34 -0500 (EST) # CSV_XS ERROR: 2034 - EIF - Loose unescaped quote @ rec 0 pos 29 field 1 From sinton@wam-2.localdomain Tue Mar 2 21:41:38 2021 Return-Path: X-Original-To: sinton Delivered-To: sinton@wam-2.localdomain Received: by wam-2.localdomain (Postfix, from userid 1001) id 77974222EA; Tue, 2 Mar 2021 21:41:38 -0500 (EST) From: root@wam-2.localdomain (Cron Daemon) To: sinton@wam-2.localdomain Subject: Cron bash -c "sleep $[RANDOM%14]m" ; ~/symlinks/TEAM1F/fcst/startfcst.pl 1f > /dev/null MIME-Version: 1.0 Content-Type: text/plain; charset=UTF-8 Content-Transfer-Encoding: 8bit X-Cron-Env: X-Cron-Env: X-Cron-Env: X-Cron-Env: Message-Id: <20210303024138.77974222EA@wam-2.localdomain> Date: Tue, 2 Mar 2021 21:41:38 -0500 (EST) # CSV_XS ERROR: 2034 - EIF - Loose unescaped quote @ rec 0 pos 29 field 1 From sinton@wam-2.localdomain Tue Mar 2 21:42:14 2021 Return-Path: X-Original-To: sinton Delivered-To: sinton@wam-2.localdomain Received: by wam-2.localdomain (Postfix, from userid 1001) id 5DE4E2258C; Tue, 2 Mar 2021 21:42:14 -0500 (EST) From: root@wam-2.localdomain (Cron Daemon) To: sinton@wam-2.localdomain Subject: Cron bash -c "sleep $[RANDOM%14]m" ; ~/symlinks/TEAM7/fcst/startfcst.pl 7 > /dev/null MIME-Version: 1.0 Content-Type: text/plain; charset=UTF-8 Content-Transfer-Encoding: 8bit X-Cron-Env: X-Cron-Env: X-Cron-Env: X-Cron-Env: Message-Id: <20210303024214.5DE4E2258C@wam-2.localdomain> Date: Tue, 2 Mar 2021 21:42:14 -0500 (EST) # CSV_XS ERROR: 2034 - EIF - Loose unescaped quote @ rec 0 pos 29 field 1 From sinton@wam-2.localdomain Tue Mar 2 21:47:13 2021 Return-Path: X-Original-To: sinton Delivered-To: sinton@wam-2.localdomain Received: by wam-2.localdomain (Postfix, from userid 1001) id ECAD923D06; Tue, 2 Mar 2021 21:47:13 -0500 (EST) From: root@wam-2.localdomain (Cron Daemon) To: sinton@wam-2.localdomain Subject: Cron bash -c "sleep $[RANDOM%14]m" ; ~/symlinks/TEAM2/fcst/startfcst.pl 2 > /dev/null MIME-Version: 1.0 Content-Type: text/plain; charset=UTF-8 Content-Transfer-Encoding: 8bit X-Cron-Env: X-Cron-Env: X-Cron-Env: X-Cron-Env: Message-Id: <20210303024713.ECAD923D06@wam-2.localdomain> Date: Tue, 2 Mar 2021 21:47:13 -0500 (EST) # CSV_XS ERROR: 2034 - EIF - Loose unescaped quote @ rec 0 pos 29 field 1 From sinton@wam-2.localdomain Tue Mar 2 21:48:13 2021 Return-Path: X-Original-To: sinton Delivered-To: sinton@wam-2.localdomain Received: by wam-2.localdomain (Postfix, from userid 1001) id 8DEC321B02; Tue, 2 Mar 2021 21:48:13 -0500 (EST) From: root@wam-2.localdomain (Cron Daemon) To: sinton@wam-2.localdomain Subject: Cron bash -c "sleep $[RANDOM%14]m" ; ~/symlinks/TEAM1/fcst/startfcst.pl 1 > /dev/null MIME-Version: 1.0 Content-Type: text/plain; charset=UTF-8 Content-Transfer-Encoding: 8bit X-Cron-Env: X-Cron-Env: X-Cron-Env: X-Cron-Env: Message-Id: <20210303024813.8DEC321B02@wam-2.localdomain> Date: Tue, 2 Mar 2021 21:48:13 -0500 (EST) # CSV_XS ERROR: 2034 - EIF - Loose unescaped quote @ rec 0 pos 29 field 1 From sinton@wam-2.localdomain Tue Mar 2 22:04:30 2021 Return-Path: X-Original-To: sinton Delivered-To: sinton@wam-2.localdomain Received: by wam-2.localdomain (Postfix, from userid 1001) id BC71A209AE; Tue, 2 Mar 2021 22:04:30 -0500 (EST) From: root@wam-2.localdomain (Cron Daemon) To: sinton@wam-2.localdomain Subject: Cron bash -c "sleep $[RANDOM%30]m" ; ~/symlinks/TEAM1N/fcst/startfcstclim.sh 1n > /dev/null MIME-Version: 1.0 Content-Type: text/plain; charset=UTF-8 Content-Transfer-Encoding: 8bit X-Cron-Env: X-Cron-Env: X-Cron-Env: X-Cron-Env: Message-Id: <20210303030430.BC71A209AE@wam-2.localdomain> Date: Tue, 2 Mar 2021 22:04:30 -0500 (EST) % Total % Received % Xferd Average Speed Time Time Time Current Dload Upload Total Spent Left Speed 0 0 0 0 0 0 0 0 --:--:-- --:--:-- --:--:-- 0 100 41760 100 41760 0 0 126k 0 --:--:-- --:--:-- --:--:-- 126k From sinton@wam-2.localdomain Tue Mar 2 22:08:57 2021 Return-Path: X-Original-To: sinton Delivered-To: sinton@wam-2.localdomain Received: by wam-2.localdomain (Postfix, from userid 1001) id 1C75F2138B; Tue, 2 Mar 2021 22:08:57 -0500 (EST) From: root@wam-2.localdomain (Cron Daemon) To: sinton@wam-2.localdomain Subject: Cron bash -c "sleep $[RANDOM%30]m" ; ~/symlinks/TEAM2/fcst/startfcstclim.sh 2 > /dev/null MIME-Version: 1.0 Content-Type: text/plain; charset=UTF-8 Content-Transfer-Encoding: 8bit X-Cron-Env: X-Cron-Env: X-Cron-Env: X-Cron-Env: Message-Id: <20210303030857.1C75F2138B@wam-2.localdomain> Date: Tue, 2 Mar 2021 22:08:57 -0500 (EST) % Total % Received % Xferd Average Speed Time Time Time Current Dload Upload Total Spent Left Speed 0 0 0 0 0 0 0 0 --:--:-- --:--:-- --:--:-- 0 100 41918 100 41918 0 0 209k 0 --:--:-- --:--:-- --:--:-- 209k From sinton@wam-2.localdomain Tue Mar 2 22:13:36 2021 Return-Path: X-Original-To: sinton Delivered-To: sinton@wam-2.localdomain Received: by wam-2.localdomain (Postfix, from userid 1001) id CEA9335AE2; Tue, 2 Mar 2021 22:13:36 -0500 (EST) From: root@wam-2.localdomain (Cron Daemon) To: sinton@wam-2.localdomain Subject: Cron bash -c "sleep $[RANDOM%30]m" ; ~/symlinks/TEAM1F/fcst/startfcstclim.sh 1f > /dev/null MIME-Version: 1.0 Content-Type: text/plain; charset=UTF-8 Content-Transfer-Encoding: 8bit X-Cron-Env: X-Cron-Env: X-Cron-Env: X-Cron-Env: Message-Id: <20210303031336.CEA9335AE2@wam-2.localdomain> Date: Tue, 2 Mar 2021 22:13:36 -0500 (EST) % Total % Received % Xferd Average Speed Time Time Time Current Dload Upload Total Spent Left Speed 0 0 0 0 0 0 0 0 --:--:-- --:--:-- --:--:-- 0 100 41666 100 41666 0 0 162k 0 --:--:-- --:--:-- --:--:-- 163k From sinton@wam-2.localdomain Tue Mar 2 22:16:22 2021 Return-Path: X-Original-To: sinton Delivered-To: sinton@wam-2.localdomain Received: by wam-2.localdomain (Postfix, from userid 1001) id C7AF435AF8; Tue, 2 Mar 2021 22:16:22 -0500 (EST) From: root@wam-2.localdomain (Cron Daemon) To: sinton@wam-2.localdomain Subject: Cron bash -c "sleep $[RANDOM%30]m" ; ~/symlinks/TEAM8/fcst/startfcstclim.sh 8 > /dev/null MIME-Version: 1.0 Content-Type: text/plain; charset=UTF-8 Content-Transfer-Encoding: 8bit X-Cron-Env: X-Cron-Env: X-Cron-Env: X-Cron-Env: Message-Id: <20210303031622.C7AF435AF8@wam-2.localdomain> Date: Tue, 2 Mar 2021 22:16:22 -0500 (EST) % Total % Received % Xferd Average Speed Time Time Time Current Dload Upload Total Spent Left Speed 0 0 0 0 0 0 0 0 --:--:-- --:--:-- --:--:-- 0 100 41673 100 41673 0 0 303k 0 --:--:-- --:--:-- --:--:-- 303k From sinton@wam-2.localdomain Tue Mar 2 22:27:13 2021 Return-Path: X-Original-To: sinton Delivered-To: sinton@wam-2.localdomain Received: by wam-2.localdomain (Postfix, from userid 1001) id B44A9353B4; Tue, 2 Mar 2021 22:27:13 -0500 (EST) From: root@wam-2.localdomain (Cron Daemon) To: sinton@wam-2.localdomain Subject: Cron bash -c "sleep $[RANDOM%30]m" ; ~/symlinks/TEAM1/fcst/startfcstclim.sh 1 > /dev/null MIME-Version: 1.0 Content-Type: text/plain; charset=UTF-8 Content-Transfer-Encoding: 8bit X-Cron-Env: X-Cron-Env: X-Cron-Env: X-Cron-Env: Message-Id: <20210303032713.B44A9353B4@wam-2.localdomain> Date: Tue, 2 Mar 2021 22:27:13 -0500 (EST) % Total % Received % Xferd Average Speed Time Time Time Current Dload Upload Total Spent Left Speed 0 0 0 0 0 0 0 0 --:--:-- --:--:-- --:--:-- 0 100 41851 100 41851 0 0 165k 0 --:--:-- --:--:-- --:--:-- 165k From sinton@wam-2.localdomain Tue Mar 2 22:30:13 2021 Return-Path: X-Original-To: sinton Delivered-To: sinton@wam-2.localdomain Received: by wam-2.localdomain (Postfix, from userid 1001) id DD06E34777; Tue, 2 Mar 2021 22:30:13 -0500 (EST) From: root@wam-2.localdomain (Cron Daemon) To: sinton@wam-2.localdomain Subject: Cron bash -c "sleep $[RANDOM%30]m" ; ~/symlinks/TEAM7/fcst/startfcstclim.sh 7 > /dev/null MIME-Version: 1.0 Content-Type: text/plain; charset=UTF-8 Content-Transfer-Encoding: 8bit X-Cron-Env: X-Cron-Env: X-Cron-Env: X-Cron-Env: Message-Id: <20210303033013.DD06E34777@wam-2.localdomain> Date: Tue, 2 Mar 2021 22:30:13 -0500 (EST) % Total % Received % Xferd Average Speed Time Time Time Current Dload Upload Total Spent Left Speed 0 0 0 0 0 0 0 0 --:--:-- --:--:-- --:--:-- 0 100 41494 100 41494 0 0 309k 0 --:--:-- --:--:-- --:--:-- 309k From sinton@wam-2.localdomain Tue Mar 2 22:38:34 2021 Return-Path: X-Original-To: sinton Delivered-To: sinton@wam-2.localdomain Received: by wam-2.localdomain (Postfix, from userid 1001) id 4D02D3497B; Tue, 2 Mar 2021 22:38:34 -0500 (EST) From: root@wam-2.localdomain (Cron Daemon) To: sinton@wam-2.localdomain Subject: Cron bash -c "sleep $[RANDOM%28]m" ; ~/symlinks/TEAM1G/fcst/startfcstgolf.pl 1g > /dev/null MIME-Version: 1.0 Content-Type: text/plain; charset=UTF-8 Content-Transfer-Encoding: 8bit X-Cron-Env: X-Cron-Env: X-Cron-Env: X-Cron-Env: Message-Id: <20210303033834.4D02D3497B@wam-2.localdomain> Date: Tue, 2 Mar 2021 22:38:34 -0500 (EST) % Total % Received % Xferd Average Speed Time Time Time Current Dload Upload Total Spent Left Speed 0 0 0 0 0 0 0 0 --:--:-- --:--:-- --:--:-- 0 100 41671 100 41671 0 0 175k 0 --:--:-- --:--:-- --:--:-- 175k % Total % Received % Xferd Average Speed Time Time Time Current Dload Upload Total Spent Left Speed 0 0 0 0 0 0 0 0 --:--:-- --:--:-- --:--:-- 0 100 41671 100 41671 0 0 239k 0 --:--:-- --:--:-- --:--:-- 239k % Total % Received % Xferd Average Speed Time Time Time Current Dload Upload Total Spent Left Speed 0 0 0 0 0 0 0 0 --:--:-- --:--:-- --:--:-- 0 100 41671 100 41671 0 0 344k 0 --:--:-- --:--:-- --:--:-- 344k % Total % Received % Xferd Average Speed Time Time Time Current Dload Upload Total Spent Left Speed 0 0 0 0 0 0 0 0 --:--:-- --:--:-- --:--:-- 0 100 41574 100 41574 0 0 182k 0 --:--:-- --:--:-- --:--:-- 182k From sinton@wam-2.localdomain Tue Mar 2 22:38:40 2021 Return-Path: X-Original-To: sinton Delivered-To: sinton@wam-2.localdomain Received: by wam-2.localdomain (Postfix, from userid 1001) id EE2F1353B4; Tue, 2 Mar 2021 22:38:40 -0500 (EST) From: root@wam-2.localdomain (Cron Daemon) To: sinton@wam-2.localdomain Subject: Cron bash -c "sleep $[RANDOM%14]m" ; ~/symlinks/TEAM1F/fcst/startfcst.pl 1f > /dev/null MIME-Version: 1.0 Content-Type: text/plain; charset=UTF-8 Content-Transfer-Encoding: 8bit X-Cron-Env: X-Cron-Env: X-Cron-Env: X-Cron-Env: Message-Id: <20210303033840.EE2F1353B4@wam-2.localdomain> Date: Tue, 2 Mar 2021 22:38:40 -0500 (EST) # CSV_XS ERROR: 2034 - EIF - Loose unescaped quote @ rec 0 pos 29 field 1 From sinton@wam-2.localdomain Tue Mar 2 22:43:14 2021 Return-Path: X-Original-To: sinton Delivered-To: sinton@wam-2.localdomain Received: by wam-2.localdomain (Postfix, from userid 1001) id A3A5033E5D; Tue, 2 Mar 2021 22:43:14 -0500 (EST) From: root@wam-2.localdomain (Cron Daemon) To: sinton@wam-2.localdomain Subject: Cron bash -c "sleep $[RANDOM%14]m" ; ~/symlinks/TEAM7/fcst/startfcst.pl 7 > /dev/null MIME-Version: 1.0 Content-Type: text/plain; charset=UTF-8 Content-Transfer-Encoding: 8bit X-Cron-Env: X-Cron-Env: X-Cron-Env: X-Cron-Env: Message-Id: <20210303034314.A3A5033E5D@wam-2.localdomain> Date: Tue, 2 Mar 2021 22:43:14 -0500 (EST) # CSV_XS ERROR: 2034 - EIF - Loose unescaped quote @ rec 0 pos 29 field 1 From sinton@wam-2.localdomain Tue Mar 2 22:46:19 2021 Return-Path: X-Original-To: sinton Delivered-To: sinton@wam-2.localdomain Received: by wam-2.localdomain (Postfix, from userid 1001) id 56B9635B27; Tue, 2 Mar 2021 22:46:19 -0500 (EST) From: root@wam-2.localdomain (Cron Daemon) To: sinton@wam-2.localdomain Subject: Cron bash -c "sleep $[RANDOM%14]m" ; ~/symlinks/TEAM1/fcst/startfcst.pl 1 > /dev/null MIME-Version: 1.0 Content-Type: text/plain; charset=UTF-8 Content-Transfer-Encoding: 8bit X-Cron-Env: X-Cron-Env: X-Cron-Env: X-Cron-Env: Message-Id: <20210303034619.56B9635B27@wam-2.localdomain> Date: Tue, 2 Mar 2021 22:46:19 -0500 (EST) # CSV_XS ERROR: 2034 - EIF - Loose unescaped quote @ rec 0 pos 29 field 1 From sinton@wam-2.localdomain Tue Mar 2 22:46:24 2021 Return-Path: X-Original-To: sinton Delivered-To: sinton@wam-2.localdomain Received: by wam-2.localdomain (Postfix, from userid 1001) id 69F3935B27; Tue, 2 Mar 2021 22:46:24 -0500 (EST) From: root@wam-2.localdomain (Cron Daemon) To: sinton@wam-2.localdomain Subject: Cron bash -c "sleep $[RANDOM%14]m" ; ~/symlinks/TEAM2/fcst/startfcst.pl 2 > /dev/null MIME-Version: 1.0 Content-Type: text/plain; charset=UTF-8 Content-Transfer-Encoding: 8bit X-Cron-Env: X-Cron-Env: X-Cron-Env: X-Cron-Env: Message-Id: <20210303034624.69F3935B27@wam-2.localdomain> Date: Tue, 2 Mar 2021 22:46:24 -0500 (EST) # CSV_XS ERROR: 2034 - EIF - Loose unescaped quote @ rec 0 pos 29 field 1 From sinton@wam-2.localdomain Tue Mar 2 22:47:37 2021 Return-Path: X-Original-To: sinton Delivered-To: sinton@wam-2.localdomain Received: by wam-2.localdomain (Postfix, from userid 1001) id 8B3BF22319; Tue, 2 Mar 2021 22:47:37 -0500 (EST) From: root@wam-2.localdomain (Cron Daemon) To: sinton@wam-2.localdomain Subject: Cron bash -c "sleep $[RANDOM%14]m" ; ~/symlinks/TEAM1N/fcst/startfcst.pl 1n > /dev/null MIME-Version: 1.0 Content-Type: text/plain; charset=UTF-8 Content-Transfer-Encoding: 8bit X-Cron-Env: X-Cron-Env: X-Cron-Env: X-Cron-Env: Message-Id: <20210303034737.8B3BF22319@wam-2.localdomain> Date: Tue, 2 Mar 2021 22:47:37 -0500 (EST) # CSV_XS ERROR: 2034 - EIF - Loose unescaped quote @ rec 0 pos 29 field 1 From sinton@wam-2.localdomain Tue Mar 2 22:53:01 2021 Return-Path: X-Original-To: sinton Delivered-To: sinton@wam-2.localdomain Received: by wam-2.localdomain (Postfix, from userid 1001) id A7F86351DB; Tue, 2 Mar 2021 22:53:01 -0500 (EST) From: root@wam-2.localdomain (Cron Daemon) To: sinton@wam-2.localdomain Subject: Cron ~/symlinks/TEAM1G/ogoakinitchkglfa.sh 1g > /dev/null MIME-Version: 1.0 Content-Type: text/plain; charset=UTF-8 Content-Transfer-Encoding: 8bit X-Cron-Env: X-Cron-Env: X-Cron-Env: X-Cron-Env: Message-Id: <20210303035301.A7F86351DB@wam-2.localdomain> Date: Tue, 2 Mar 2021 22:53:01 -0500 (EST) % Total % Received % Xferd Average Speed Time Time Time Current Dload Upload Total Spent Left Speed 0 0 0 0 0 0 0 0 --:--:-- --:--:-- --:--:-- 0 100 430 100 430 0 0 2087 0 --:--:-- --:--:-- --:--:-- 2087 % Total % Received % Xferd Average Speed Time Time Time Current Dload Upload Total Spent Left Speed 0 0 0 0 0 0 0 0 --:--:-- --:--:-- --:--:-- 0 100 430 100 430 0 0 2810 0 --:--:-- --:--:-- --:--:-- 2792 100 430 100 430 0 0 2810 0 --:--:-- --:--:-- --:--:-- 2792 % Total % Received % Xferd Average Speed Time Time Time Current Dload Upload Total Spent Left Speed 0 0 0 0 0 0 0 0 --:--:-- --:--:-- --:--:-- 0 100 427 100 427 0 0 2320 0 --:--:-- --:--:-- --:--:-- 2320 % Total % Received % Xferd Average Speed Time Time Time Current Dload Upload Total Spent Left Speed 0 0 0 0 0 0 0 0 --:--:-- --:--:-- --:--:-- 0 100 430 100 430 0 0 4886 0 --:--:-- --:--:-- --:--:-- 4886 % Total % Received % Xferd Average Speed Time Time Time Current Dload Upload Total Spent Left Speed 0 0 0 0 0 0 0 0 --:--:-- --:--:-- --:--:-- 0 100 431 100 431 0 0 5746 0 --:--:-- --:--:-- --:--:-- 5746 % Total % Received % Xferd Average Speed Time Time Time Current Dload Upload Total Spent Left Speed 0 0 0 0 0 0 0 0 --:--:-- --:--:-- --:--:-- 0 100 431 100 431 0 0 4684 0 --:--:-- --:--:-- --:--:-- 4684 % Total % Received % Xferd Average Speed Time Time Time Current Dload Upload Total Spent Left Speed 0 0 0 0 0 0 0 0 --:--:-- --:--:-- --:--:-- 0 100 430 100 430 0 0 3028 0 --:--:-- --:--:-- --:--:-- 3028 % Total % Received % Xferd Average Speed Time Time Time Current Dload Upload Total Spent Left Speed 0 0 0 0 0 0 0 0 --:--:-- --:--:-- --:--:-- 0 100 431 100 431 0 0 3652 0 --:--:-- --:--:-- --:--:-- 3652 % Total % Received % Xferd Average Speed Time Time Time Current Dload Upload Total Spent Left Speed 0 0 0 0 0 0 0 0 --:--:-- --:--:-- --:--:-- 0 100 430 100 430 0 0 11621 0 --:--:-- --:--:-- --:--:-- 11621 % Total % Received % Xferd Average Speed Time Time Time Current Dload Upload Total Spent Left Speed 0 0 0 0 0 0 0 0 --:--:-- --:--:-- --:--:-- 0 100 430 100 430 0 0 10000 0 --:--:-- --:--:-- --:--:-- 10000 % Total % Received % Xferd Average Speed Time Time Time Current Dload Upload Total Spent Left Speed 0 0 0 0 0 0 0 0 --:--:-- --:--:-- --:--:-- 0 100 428 100 428 0 0 4919 0 --:--:-- --:--:-- --:--:-- 4919 % Total % Received % Xferd Average Speed Time Time Time Current Dload Upload Total Spent Left Speed 0 0 0 0 0 0 0 0 --:--:-- --:--:-- --:--:-- 0 100 431 100 431 0 0 11342 0 --:--:-- --:--:-- --:--:-- 11342 % Total % Received % Xferd Average Speed Time Time Time Current Dload Upload Total Spent Left Speed 0 0 0 0 0 0 0 0 --:--:-- --:--:-- --:--:-- 0 100 430 100 430 0 0 5443 0 --:--:-- --:--:-- --:--:-- 5443 % Total % Received % Xferd Average Speed Time Time Time Current Dload Upload Total Spent Left Speed 0 0 0 0 0 0 0 0 --:--:-- --:--:-- --:--:-- 0 100 430 100 430 0 0 7678 0 --:--:-- --:--:-- --:--:-- 7818 % Total % Received % Xferd Average Speed Time Time Time Current Dload Upload Total Spent Left Speed 0 0 0 0 0 0 0 0 --:--:-- --:--:-- --:--:-- 0 100 428 100 428 0 0 3370 0 --:--:-- --:--:-- --:--:-- 3370 % Total % Received % Xferd Average Speed Time Time Time Current Dload Upload Total Spent Left Speed 0 0 0 0 0 0 0 0 --:--:-- --:--:-- --:--:-- 0 100 431 100 431 0 0 2329 0 --:--:-- --:--:-- --:--:-- 2329 % Total % Received % Xferd Average Speed Time Time Time Current Dload Upload Total Spent Left Speed 0 0 0 0 0 0 0 0 --:--:-- --:--:-- --:--:-- 0 100 429 100 429 0 0 7396 0 --:--:-- --:--:-- --:--:-- 7396 % Total % Received % Xferd Average Speed Time Time Time Current Dload Upload Total Spent Left Speed 0 0 0 0 0 0 0 0 --:--:-- --:--:-- --:--:-- 0 100 430 100 430 0 0 3028 0 --:--:-- --:--:-- --:--:-- 3006 100 430 100 430 0 0 3028 0 --:--:-- --:--:-- --:--:-- 3006 % Total % Received % Xferd Average Speed Time Time Time Current Dload Upload Total Spent Left Speed 0 0 0 0 0 0 0 0 --:--:-- --:--:-- --:--:-- 0 100 431 100 431 0 0 7696 0 --:--:-- --:--:-- --:--:-- 7696 % Total % Received % Xferd Average Speed Time Time Time Current Dload Upload Total Spent Left Speed 0 0 0 0 0 0 0 0 --:--:-- --:--:-- --:--:-- 0 100 431 100 431 0 0 4954 0 --:--:-- --:--:-- --:--:-- 4954 % Total % Received % Xferd Average Speed Time Time Time Current Dload Upload Total Spent Left Speed 0 0 0 0 0 0 0 0 --:--:-- --:--:-- --:--:-- 0 100 429 100 429 0 0 1849 0 --:--:-- --:--:-- --:--:-- 1849 % Total % Received % Xferd Average Speed Time Time Time Current Dload Upload Total Spent Left Speed 0 0 0 0 0 0 0 0 --:--:-- --:--:-- --:--:-- 0 100 428 100 428 0 0 3101 0 --:--:-- --:--:-- --:--:-- 3101 % Total % Received % Xferd Average Speed Time Time Time Current Dload Upload Total Spent Left Speed 0 0 0 0 0 0 0 0 --:--:-- --:--:-- --:--:-- 0 100 431 100 431 0 0 4267 0 --:--:-- --:--:-- --:--:-- 4267 % Total % Received % Xferd Average Speed Time Time Time Current Dload Upload Total Spent Left Speed 0 0 0 0 0 0 0 0 --:--:-- --:--:-- --:--:-- 0 100 429 100 429 0 0 1898 0 --:--:-- --:--:-- --:--:-- 1889 100 429 100 429 0 0 1898 0 --:--:-- --:--:-- --:--:-- 1889 % Total % Received % Xferd Average Speed Time Time Time Current Dload Upload Total Spent Left Speed 0 0 0 0 0 0 0 0 --:--:-- --:--:-- --:--:-- 0 100 429 100 429 0 0 4422 0 --:--:-- --:--:-- --:--:-- 4422 % Total % Received % Xferd Average Speed Time Time Time Current Dload Upload Total Spent Left Speed 0 0 0 0 0 0 0 0 --:--:-- --:--:-- --:--:-- 0 100 429 100 429 0 0 1923 0 --:--:-- --:--:-- --:--:-- 1923 % Total % Received % Xferd Average Speed Time Time Time Current Dload Upload Total Spent Left Speed 0 0 0 0 0 0 0 0 --:--:-- --:--:-- --:--:-- 0 0 0 0 0 0 0 0 0 --:--:-- --:--:-- --:--:-- 0 100 430 100 430 0 0 1405 0 --:--:-- --:--:-- --:--:-- 1405 % Total % Received % Xferd Average Speed Time Time Time Current Dload Upload Total Spent Left Speed 0 0 0 0 0 0 0 0 --:--:-- --:--:-- --:--:-- 0 100 430 100 430 0 0 5584 0 --:--:-- --:--:-- --:--:-- 5657 % Total % Received % Xferd Average Speed Time Time Time Current Dload Upload Total Spent Left Speed 0 0 0 0 0 0 0 0 --:--:-- --:--:-- --:--:-- 0 100 431 100 431 0 0 1890 0 --:--:-- --:--:-- --:--:-- 1890 % Total % Received % Xferd Average Speed Time Time Time Current Dload Upload Total Spent Left Speed 0 0 0 0 0 0 0 0 --:--:-- --:--:-- --:--:-- 0 100 431 100 431 0 0 3265 0 --:--:-- --:--:-- --:--:-- 3265 % Total % Received % Xferd Average Speed Time Time Time Current Dload Upload Total Spent Left Speed 0 0 0 0 0 0 0 0 --:--:-- --:--:-- --:--:-- 0 100 430 100 430 0 0 2559 0 --:--:-- --:--:-- --:--:-- 2544 100 430 100 430 0 0 2544 0 --:--:-- --:--:-- --:--:-- 2544 % Total % Received % Xferd Average Speed Time Time Time Current Dload Upload Total Spent Left Speed 0 0 0 0 0 0 0 0 --:--:-- --:--:-- --:--:-- 0 100 430 100 430 0 0 4343 0 --:--:-- --:--:-- --:--:-- 4343 % Total % Received % Xferd Average Speed Time Time Time Current Dload Upload Total Spent Left Speed 0 0 0 0 0 0 0 0 --:--:-- --:--:-- --:--:-- 0 100 430 100 430 0 0 2574 0 --:--:-- --:--:-- --:--:-- 2574 % Total % Received % Xferd Average Speed Time Time Time Current Dload Upload Total Spent Left Speed 0 0 0 0 0 0 0 0 --:--:-- --:--:-- --:--:-- 0 100 428 100 428 0 0 3821 0 --:--:-- --:--:-- --:--:-- 3821 % Total % Received % Xferd Average Speed Time Time Time Current Dload Upload Total Spent Left Speed 0 0 0 0 0 0 0 0 --:--:-- --:--:-- --:--:-- 0 0 0 0 0 0 0 0 0 --:--:-- --:--:-- --:--:-- 0 100 429 100 429 0 0 1625 0 --:--:-- --:--:-- --:--:-- 1618 % Total % Received % Xferd Average Speed Time Time Time Current Dload Upload Total Spent Left Speed 0 0 0 0 0 0 0 0 --:--:-- --:--:-- --:--:-- 0 100 429 100 429 0 0 4422 0 --:--:-- --:--:-- --:--:-- 4422 % Total % Received % Xferd Average Speed Time Time Time Current Dload Upload Total Spent Left Speed 0 0 0 0 0 0 0 0 --:--:-- --:--:-- --:--:-- 0 100 430 100 430 0 0 6056 0 --:--:-- --:--:-- --:--:-- 5972 100 430 100 430 0 0 6056 0 --:--:-- --:--:-- --:--:-- 5972 % Total % Received % Xferd Average Speed Time Time Time Current Dload Upload Total Spent Left Speed 0 0 0 0 0 0 0 0 --:--:-- --:--:-- --:--:-- 0 100 429 100 429 0 0 3250 0 --:--:-- --:--:-- --:--:-- 3250 % Total % Received % Xferd Average Speed Time Time Time Current Dload Upload Total Spent Left Speed 0 0 0 0 0 0 0 0 --:--:-- --:--:-- --:--:-- 0 100 431 100 431 0 0 6530 0 --:--:-- --:--:-- --:--:-- 6530 % Total % Received % Xferd Average Speed Time Time Time Current Dload Upload Total Spent Left Speed 0 0 0 0 0 0 0 0 --:--:-- --:--:-- --:--:-- 0 100 430 100 430 0 0 4018 0 --:--:-- --:--:-- --:--:-- 4018 % Total % Received % Xferd Average Speed Time Time Time Current Dload Upload Total Spent Left Speed 0 0 0 0 0 0 0 0 --:--:-- --:--:-- --:--:-- 0 100 427 100 427 0 0 1252 0 --:--:-- --:--:-- --:--:-- 1252 % Total % Received % Xferd Average Speed Time Time Time Current Dload Upload Total Spent Left Speed 0 0 0 0 0 0 0 0 --:--:-- --:--:-- --:--:-- 0 100 429 100 429 0 0 1682 0 --:--:-- --:--:-- --:--:-- 1682 % Total % Received % Xferd Average Speed Time Time Time Current Dload Upload Total Spent Left Speed 0 0 0 0 0 0 0 0 --:--:-- --:--:-- --:--:-- 0 100 431 100 431 0 0 5597 0 --:--:-- --:--:-- --:--:-- 5597 % Total % Received % Xferd Average Speed Time Time Time Current Dload Upload Total Spent Left Speed 0 0 0 0 0 0 0 0 --:--:-- --:--:-- --:--:-- 0 100 428 100 428 0 0 3424 0 --:--:-- --:--:-- --:--:-- 3396 100 428 100 428 0 0 3424 0 --:--:-- --:--:-- --:--:-- 3396 % Total % Received % Xferd Average Speed Time Time Time Current Dload Upload Total Spent Left Speed 0 0 0 0 0 0 0 0 --:--:-- --:--:-- --:--:-- 0 100 430 100 430 0 0 2704 0 --:--:-- --:--:-- --:--:-- 2704 % Total % Received % Xferd Average Speed Time Time Time Current Dload Upload Total Spent Left Speed 0 0 0 0 0 0 0 0 --:--:-- --:--:-- --:--:-- 0 100 429 100 429 0 0 6128 0 --:--:-- --:--:-- --:--:-- 6128 % Total % Received % Xferd Average Speed Time Time Time Current Dload Upload Total Spent Left Speed 0 0 0 0 0 0 0 0 --:--:-- --:--:-- --:--:-- 0 100 431 100 431 0 0 6432 0 --:--:-- --:--:-- --:--:-- 6432 % Total % Received % Xferd Average Speed Time Time Time Current Dload Upload Total Spent Left Speed 0 0 0 0 0 0 0 0 --:--:-- --:--:-- --:--:-- 0 100 431 100 431 0 0 5746 0 --:--:-- --:--:-- --:--:-- 5746 % Total % Received % Xferd Average Speed Time Time Time Current Dload Upload Total Spent Left Speed 0 0 0 0 0 0 0 0 --:--:-- --:--:-- --:--:-- 0 100 430 100 430 0 0 2415 0 --:--:-- --:--:-- --:--:-- 2415 % Total % Received % Xferd Average Speed Time Time Time Current Dload Upload Total Spent Left Speed 0 0 0 0 0 0 0 0 --:--:-- --:--:-- --:--:-- 0 100 429 100 429 0 0 1577 0 --:--:-- --:--:-- --:--:-- 1577 % Total % Received % Xferd Average Speed Time Time Time Current Dload Upload Total Spent Left Speed 0 0 0 0 0 0 0 0 --:--:-- --:--:-- --:--:-- 0 100 431 100 431 0 0 2342 0 --:--:-- --:--:-- --:--:-- 2342 100 431 100 431 0 0 2342 0 --:--:-- --:--:-- --:--:-- 2329 % Total % Received % Xferd Average Speed Time Time Time Current Dload Upload Total Spent Left Speed 0 0 0 0 0 0 0 0 --:--:-- --:--:-- --:--:-- 0 100 430 100 430 0 0 3739 0 --:--:-- --:--:-- --:--:-- 3739 % Total % Received % Xferd Average Speed Time Time Time Current Dload Upload Total Spent Left Speed 0 0 0 0 0 0 0 0 --:--:-- --:--:-- --:--:-- 0 0 0 0 0 0 0 0 0 --:--:-- --:--:-- --:--:-- 0 100 430 100 430 0 0 1622 0 --:--:-- --:--:-- --:--:-- 1616 % Total % Received % Xferd Average Speed Time Time Time Current Dload Upload Total Spent Left Speed 0 0 0 0 0 0 0 0 --:--:-- --:--:-- --:--:-- 0 100 429 100 429 0 0 3605 0 --:--:-- --:--:-- --:--:-- 3605 % Total % Received % Xferd Average Speed Time Time Time Current Dload Upload Total Spent Left Speed 0 0 0 0 0 0 0 0 --:--:-- --:--:-- --:--:-- 0 100 431 100 431 0 0 3504 0 --:--:-- --:--:-- --:--:-- 3504 % Total % Received % Xferd Average Speed Time Time Time Current Dload Upload Total Spent Left Speed 0 0 0 0 0 0 0 0 --:--:-- --:--:-- --:--:-- 0 100 430 100 430 0 0 7962 0 --:--:-- --:--:-- --:--:-- 7962 % Total % Received % Xferd Average Speed Time Time Time Current Dload Upload Total Spent Left Speed 0 0 0 0 0 0 0 0 --:--:-- --:--:-- --:--:-- 0 100 431 100 431 0 0 2407 0 --:--:-- --:--:-- --:--:-- 2421 % Total % Received % Xferd Average Speed Time Time Time Current Dload Upload Total Spent Left Speed 0 0 0 0 0 0 0 0 --:--:-- --:--:-- --:--:-- 0 100 430 100 430 0 0 4018 0 --:--:-- --:--:-- --:--:-- 4018 % Total % Received % Xferd Average Speed Time Time Time Current Dload Upload Total Spent Left Speed 0 0 0 0 0 0 0 0 --:--:-- --:--:-- --:--:-- 0 100 429 100 429 0 0 5644 0 --:--:-- --:--:-- --:--:-- 5644 % Total % Received % Xferd Average Speed Time Time Time Current Dload Upload Total Spent Left Speed 0 0 0 0 0 0 0 0 --:--:-- --:--:-- --:--:-- 0 100 431 100 431 0 0 4536 0 --:--:-- --:--:-- --:--:-- 4536 % Total % Received % Xferd Average Speed Time Time Time Current Dload Upload Total Spent Left Speed 0 0 0 0 0 0 0 0 --:--:-- --:--:-- --:--:-- 0 100 431 100 431 0 0 6530 0 --:--:-- --:--:-- --:--:-- 6530 % Total % Received % Xferd Average Speed Time Time Time Current Dload Upload Total Spent Left Speed 0 0 0 0 0 0 0 0 --:--:-- --:--:-- --:--:-- 0 100 430 100 430 0 0 3307 0 --:--:-- --:--:-- --:--:-- 3307 % Total % Received % Xferd Average Speed Time Time Time Current Dload Upload Total Spent Left Speed 0 0 0 0 0 0 0 0 --:--:-- --:--:-- --:--:-- 0 100 430 100 430 0 0 1885 0 --:--:-- --:--:-- --:--:-- 1885 % Total % Received % Xferd Average Speed Time Time Time Current Dload Upload Total Spent Left Speed 0 0 0 0 0 0 0 0 --:--:-- --:--:-- --:--:-- 0 100 431 100 431 0 0 2693 0 --:--:-- --:--:-- --:--:-- 2693 % Total % Received % Xferd Average Speed Time Time Time Current Dload Upload Total Spent Left Speed 0 0 0 0 0 0 0 0 --:--:-- --:--:-- --:--:-- 0 100 430 100 430 0 0 1972 0 --:--:-- --:--:-- --:--:-- 1972 % Total % Received % Xferd Average Speed Time Time Time Current Dload Upload Total Spent Left Speed 0 0 0 0 0 0 0 0 --:--:-- --:--:-- --:--:-- 0 100 429 100 429 0 0 8755 0 --:--:-- --:--:-- --:--:-- 8755 % Total % Received % Xferd Average Speed Time Time Time Current Dload Upload Total Spent Left Speed 0 0 0 0 0 0 0 0 --:--:-- --:--:-- --:--:-- 0 100 429 100 429 0 0 7526 0 --:--:-- --:--:-- --:--:-- 7660 % Total % Received % Xferd Average Speed Time Time Time Current Dload Upload Total Spent Left Speed 0 0 0 0 0 0 0 0 --:--:-- --:--:-- --:--:-- 0 100 431 100 431 0 0 9369 0 --:--:-- --:--:-- --:--:-- 9369 % Total % Received % Xferd Average Speed Time Time Time Current Dload Upload Total Spent Left Speed 0 0 0 0 0 0 0 0 --:--:-- --:--:-- --:--:-- 0 100 431 100 431 0 0 5070 0 --:--:-- --:--:-- --:--:-- 5070 % Total % Received % Xferd Average Speed Time Time Time Current Dload Upload Total Spent Left Speed 0 0 0 0 0 0 0 0 --:--:-- --:--:-- --:--:-- 0 100 430 100 430 0 0 3524 0 --:--:-- --:--:-- --:--:-- 3524 % Total % Received % Xferd Average Speed Time Time Time Current Dload Upload Total Spent Left Speed 0 0 0 0 0 0 0 0 --:--:-- --:--:-- --:--:-- 0 100 430 100 430 0 0 7818 0 --:--:-- --:--:-- --:--:-- 7818 % Total % Received % Xferd Average Speed Time Time Time Current Dload Upload Total Spent Left Speed 0 0 0 0 0 0 0 0 --:--:-- --:--:-- --:--:-- 0 0 0 0 0 0 0 0 0 --:--:-- --:--:-- --:--:-- 0 100 431 100 431 0 0 2004 0 --:--:-- --:--:-- --:--:-- 1995 % Total % Received % Xferd Average Speed Time Time Time Current Dload Upload Total Spent Left Speed 0 0 0 0 0 0 0 0 --:--:-- --:--:-- --:--:-- 0 100 431 100 431 0 0 2727 0 --:--:-- --:--:-- --:--:-- 2727 % Total % Received % Xferd Average Speed Time Time Time Current Dload Upload Total Spent Left Speed 0 0 0 0 0 0 0 0 --:--:-- --:--:-- --:--:-- 0 100 429 100 429 0 0 4165 0 --:--:-- --:--:-- --:--:-- 4165 % Total % Received % Xferd Average Speed Time Time Time Current Dload Upload Total Spent Left Speed 0 0 0 0 0 0 0 0 --:--:-- --:--:-- --:--:-- 0 100 430 100 430 0 0 2216 0 --:--:-- --:--:-- --:--:-- 2216 % Total % Received % Xferd Average Speed Time Time Time Current Dload Upload Total Spent Left Speed 0 0 0 0 0 0 0 0 --:--:-- --:--:-- --:--:-- 0 100 431 100 431 0 0 1372 0 --:--:-- --:--:-- --:--:-- 1372 % Total % Received % Xferd Average Speed Time Time Time Current Dload Upload Total Spent Left Speed 0 0 0 0 0 0 0 0 --:--:-- --:--:-- --:--:-- 0 100 431 100 431 0 0 6630 0 --:--:-- --:--:-- --:--:-- 6630 % Total % Received % Xferd Average Speed Time Time Time Current Dload Upload Total Spent Left Speed 0 0 0 0 0 0 0 0 --:--:-- --:--:-- --:--:-- 0 100 430 100 430 0 0 3233 0 --:--:-- --:--:-- --:--:-- 3233 % Total % Received % Xferd Average Speed Time Time Time Current Dload Upload Total Spent Left Speed 0 0 0 0 0 0 0 0 --:--:-- --:--:-- --:--:-- 0 100 429 100 429 0 0 4612 0 --:--:-- --:--:-- --:--:-- 4612 % Total % Received % Xferd Average Speed Time Time Time Current Dload Upload Total Spent Left Speed 0 0 0 0 0 0 0 0 --:--:-- --:--:-- --:--:-- 0 100 428 100 428 0 0 11263 0 --:--:-- --:--:-- --:--:-- 11263 % Total % Received % Xferd Average Speed Time Time Time Current Dload Upload Total Spent Left Speed 0 0 0 0 0 0 0 0 --:--:-- --:--:-- --:--:-- 0 100 431 100 431 0 0 4267 0 --:--:-- --:--:-- --:--:-- 4267 % Total % Received % Xferd Average Speed Time Time Time Current Dload Upload Total Spent Left Speed 0 0 0 0 0 0 0 0 --:--:-- --:--:-- --:--:-- 0 100 428 100 428 0 0 5487 0 --:--:-- --:--:-- --:--:-- 5487 % Total % Received % Xferd Average Speed Time Time Time Current Dload Upload Total Spent Left Speed 0 0 0 0 0 0 0 0 --:--:-- --:--:-- --:--:-- 0 100 431 100 431 0 0 3013 0 --:--:-- --:--:-- --:--:-- 3013 % Total % Received % Xferd Average Speed Time Time Time Current Dload Upload Total Spent Left Speed 0 0 0 0 0 0 0 0 --:--:-- --:--:-- --:--:-- 0 100 428 100 428 0 0 4280 0 --:--:-- --:--:-- --:--:-- 4280 % Total % Received % Xferd Average Speed Time Time Time Current Dload Upload Total Spent Left Speed 0 0 0 0 0 0 0 0 --:--:-- --:--:-- --:--:-- 0 100 431 100 431 0 0 11342 0 --:--:-- --:--:-- --:--:-- 11342 % Total % Received % Xferd Average Speed Time Time Time Current Dload Upload Total Spent Left Speed 0 0 0 0 0 0 0 0 --:--:-- --:--:-- --:--:-- 0 100 430 100 430 0 0 2810 0 --:--:-- --:--:-- --:--:-- 2810 % Total % Received % Xferd Average Speed Time Time Time Current Dload Upload Total Spent Left Speed 0 0 0 0 0 0 0 0 --:--:-- --:--:-- --:--:-- 0 100 431 100 431 0 0 2198 0 --:--:-- --:--:-- --:--:-- 2187 100 431 100 431 0 0 2198 0 --:--:-- --:--:-- --:--:-- 2187 % Total % Received % Xferd Average Speed Time Time Time Current Dload Upload Total Spent Left Speed 0 0 0 0 0 0 0 0 --:--:-- --:--:-- --:--:-- 0 100 429 100 429 0 0 5876 0 --:--:-- --:--:-- --:--:-- 5876 % Total % Received % Xferd Average Speed Time Time Time Current Dload Upload Total Spent Left Speed 0 0 0 0 0 0 0 0 --:--:-- --:--:-- --:--:-- 0 100 431 100 431 0 0 5671 0 --:--:-- --:--:-- --:--:-- 5671 % Total % Received % Xferd Average Speed Time Time Time Current Dload Upload Total Spent Left Speed 0 0 0 0 0 0 0 0 --:--:-- --:--:-- --:--:-- 0 100 430 100 430 0 0 1784 0 --:--:-- --:--:-- --:--:-- 1791 % Total % Received % Xferd Average Speed Time Time Time Current Dload Upload Total Spent Left Speed 0 0 0 0 0 0 0 0 --:--:-- --:--:-- --:--:-- 0 100 431 100 431 0 0 3420 0 --:--:-- --:--:-- --:--:-- 3420 % Total % Received % Xferd Average Speed Time Time Time Current Dload Upload Total Spent Left Speed 0 0 0 0 0 0 0 0 --:--:-- --:--:-- --:--:-- 0 100 429 100 429 0 0 2732 0 --:--:-- --:--:-- --:--:-- 2732 % Total % Received % Xferd Average Speed Time Time Time Current Dload Upload Total Spent Left Speed 0 0 0 0 0 0 0 0 --:--:-- --:--:-- --:--:-- 0 100 431 100 431 0 0 3056 0 --:--:-- --:--:-- --:--:-- 3056 % Total % Received % Xferd Average Speed Time Time Time Current Dload Upload Total Spent Left Speed 0 0 0 0 0 0 0 0 --:--:-- --:--:-- --:--:-- 0 0 0 0 0 0 0 0 0 --:--:-- --:--:-- --:--:-- 0 100 431 100 431 0 0 1590 0 --:--:-- --:--:-- --:--:-- 1584 % Total % Received % Xferd Average Speed Time Time Time Current Dload Upload Total Spent Left Speed 0 0 0 0 0 0 0 0 --:--:-- --:--:-- --:--:-- 0 100 431 100 431 0 0 1306 0 --:--:-- --:--:-- --:--:-- 1306 % Total % Received % Xferd Average Speed Time Time Time Current Dload Upload Total Spent Left Speed 0 0 0 0 0 0 0 0 --:--:-- --:--:-- --:--:-- 0 100 429 100 429 0 0 1606 0 --:--:-- --:--:-- --:--:-- 1606 % Total % Received % Xferd Average Speed Time Time Time Current Dload Upload Total Spent Left Speed 0 0 0 0 0 0 0 0 --:--:-- --:--:-- --:--:-- 0 100 430 100 430 0 0 7678 0 --:--:-- --:--:-- --:--:-- 7678 % Total % Received % Xferd Average Speed Time Time Time Current Dload Upload Total Spent Left Speed 0 0 0 0 0 0 0 0 --:--:-- --:--:-- --:--:-- 0 100 431 100 431 0 0 10512 0 --:--:-- --:--:-- --:--:-- 10512 % Total % Received % Xferd Average Speed Time Time Time Current Dload Upload Total Spent Left Speed 0 0 0 0 0 0 0 0 --:--:-- --:--:-- --:--:-- 0 100 431 100 431 0 0 2176 0 --:--:-- --:--:-- --:--:-- 2176 % Total % Received % Xferd Average Speed Time Time Time Current Dload Upload Total Spent Left Speed 0 0 0 0 0 0 0 0 --:--:-- --:--:-- --:--:-- 0 100 429 100 429 0 0 1810 0 --:--:-- --:--:-- --:--:-- 1810 % Total % Received % Xferd Average Speed Time Time Time Current Dload Upload Total Spent Left Speed 0 0 0 0 0 0 0 0 --:--:-- --:--:-- --:--:-- 0 100 431 100 431 0 0 3341 0 --:--:-- --:--:-- --:--:-- 3341 % Total % Received % Xferd Average Speed Time Time Time Current Dload Upload Total Spent Left Speed 0 0 0 0 0 0 0 0 --:--:-- --:--:-- --:--:-- 0 100 430 100 430 0 0 4886 0 --:--:-- --:--:-- --:--:-- 4886 % Total % Received % Xferd Average Speed Time Time Time Current Dload Upload Total Spent Left Speed 0 0 0 0 0 0 0 0 --:--:-- --:--:-- --:--:-- 0 100 431 100 431 0 0 7561 0 --:--:-- --:--:-- --:--:-- 7561 % Total % Received % Xferd Average Speed Time Time Time Current Dload Upload Total Spent Left Speed 0 0 0 0 0 0 0 0 --:--:-- --:--:-- --:--:-- 0 100 429 100 429 0 0 5047 0 --:--:-- --:--:-- --:--:-- 5047 % Total % Received % Xferd Average Speed Time Time Time Current Dload Upload Total Spent Left Speed 0 0 0 0 0 0 0 0 --:--:-- --:--:-- --:--:-- 0 100 431 100 431 0 0 4536 0 --:--:-- --:--:-- --:--:-- 4489 100 431 100 431 0 0 4489 0 --:--:-- --:--:-- --:--:-- 4443 % Total % Received % Xferd Average Speed Time Time Time Current Dload Upload Total Spent Left Speed 0 0 0 0 0 0 0 0 --:--:-- --:--:-- --:--:-- 0 100 431 100 431 0 0 3990 0 --:--:-- --:--:-- --:--:-- 3990 % Total % Received % Xferd Average Speed Time Time Time Current Dload Upload Total Spent Left Speed 0 0 0 0 0 0 0 0 --:--:-- --:--:-- --:--:-- 0 100 430 100 430 0 0 4623 0 --:--:-- --:--:-- --:--:-- 4623 % Total % Received % Xferd Average Speed Time Time Time Current Dload Upload Total Spent Left Speed 0 0 0 0 0 0 0 0 --:--:-- --:--:-- --:--:-- 0 100 431 100 431 0 0 5387 0 --:--:-- --:--:-- --:--:-- 5387 % Total % Received % Xferd Average Speed Time Time Time Current Dload Upload Total Spent Left Speed 0 0 0 0 0 0 0 0 --:--:-- --:--:-- --:--:-- 0 100 431 100 431 0 0 2014 0 --:--:-- --:--:-- --:--:-- 2023 % Total % Received % Xferd Average Speed Time Time Time Current Dload Upload Total Spent Left Speed 0 0 0 0 0 0 0 0 --:--:-- --:--:-- --:--:-- 0 100 431 100 431 0 0 2745 0 --:--:-- --:--:-- --:--:-- 2762 % Total % Received % Xferd Average Speed Time Time Time Current Dload Upload Total Spent Left Speed 0 0 0 0 0 0 0 0 --:--:-- --:--:-- --:--:-- 0 100 430 100 430 0 0 1954 0 --:--:-- --:--:-- --:--:-- 1945 100 430 100 430 0 0 1954 0 --:--:-- --:--:-- --:--:-- 1945 % Total % Received % Xferd Average Speed Time Time Time Current Dload Upload Total Spent Left Speed 0 0 0 0 0 0 0 0 --:--:-- --:--:-- --:--:-- 0 100 431 100 431 0 0 2381 0 --:--:-- --:--:-- --:--:-- 2381 % Total % Received % Xferd Average Speed Time Time Time Current Dload Upload Total Spent Left Speed 0 0 0 0 0 0 0 0 --:--:-- --:--:-- --:--:-- 0 100 431 100 431 0 0 7305 0 --:--:-- --:--:-- --:--:-- 7305 % Total % Received % Xferd Average Speed Time Time Time Current Dload Upload Total Spent Left Speed 0 0 0 0 0 0 0 0 --:--:-- --:--:-- --:--:-- 0 100 431 100 431 0 0 3848 0 --:--:-- --:--:-- --:--:-- 3848 % Total % Received % Xferd Average Speed Time Time Time Current Dload Upload Total Spent Left Speed 0 0 0 0 0 0 0 0 --:--:-- --:--:-- --:--:-- 0 100 429 100 429 0 0 3698 0 --:--:-- --:--:-- --:--:-- 3698 % Total % Received % Xferd Average Speed Time Time Time Current Dload Upload Total Spent Left Speed 0 0 0 0 0 0 0 0 --:--:-- --:--:-- --:--:-- 0 100 427 100 427 0 0 9930 0 --:--:-- --:--:-- --:--:-- 9930 % Total % Received % Xferd Average Speed Time Time Time Current Dload Upload Total Spent Left Speed 0 0 0 0 0 0 0 0 --:--:-- --:--:-- --:--:-- 0 100 431 100 431 0 0 2221 0 --:--:-- --:--:-- --:--:-- 2221 % Total % Received % Xferd Average Speed Time Time Time Current Dload Upload Total Spent Left Speed 0 0 0 0 0 0 0 0 --:--:-- --:--:-- --:--:-- 0 100 430 100 430 0 0 1634 0 --:--:-- --:--:-- --:--:-- 1634 % Total % Received % Xferd Average Speed Time Time Time Current Dload Upload Total Spent Left Speed 0 0 0 0 0 0 0 0 --:--:-- --:--:-- --:--:-- 0 100 430 100 430 0 0 2828 0 --:--:-- --:--:-- --:--:-- 2828 % Total % Received % Xferd Average Speed Time Time Time Current Dload Upload Total Spent Left Speed 0 0 0 0 0 0 0 0 --:--:-- --:--:-- --:--:-- 0 100 429 100 429 0 0 3250 0 --:--:-- --:--:-- --:--:-- 3250 % Total % Received % Xferd Average Speed Time Time Time Current Dload Upload Total Spent Left Speed 0 0 0 0 0 0 0 0 --:--:-- --:--:-- --:--:-- 0 100 428 100 428 0 0 2911 0 --:--:-- --:--:-- --:--:-- 2911 % Total % Received % Xferd Average Speed Time Time Time Current Dload Upload Total Spent Left Speed 0 0 0 0 0 0 0 0 --:--:-- --:--:-- --:--:-- 0 100 431 100 431 0 0 7561 0 --:--:-- --:--:-- --:--:-- 7696 % Total % Received % Xferd Average Speed Time Time Time Current Dload Upload Total Spent Left Speed 0 0 0 0 0 0 0 0 --:--:-- --:--:-- --:--:-- 0 100 429 100 429 0 0 2318 0 --:--:-- --:--:-- --:--:-- 2318 % Total % Received % Xferd Average Speed Time Time Time Current Dload Upload Total Spent Left Speed 0 0 0 0 0 0 0 0 --:--:-- --:--:-- --:--:-- 0 100 431 100 431 0 0 5986 0 --:--:-- --:--:-- --:--:-- 5904 100 431 100 431 0 0 5986 0 --:--:-- --:--:-- --:--:-- 5904 % Total % Received % Xferd Average Speed Time Time Time Current Dload Upload Total Spent Left Speed 0 0 0 0 0 0 0 0 --:--:-- --:--:-- --:--:-- 0 100 430 100 430 0 0 3524 0 --:--:-- --:--:-- --:--:-- 3524 % Total % Received % Xferd Average Speed Time Time Time Current Dload Upload Total Spent Left Speed 0 0 0 0 0 0 0 0 --:--:-- --:--:-- --:--:-- 0 100 430 100 430 0 0 4574 0 --:--:-- --:--:-- --:--:-- 4574 % Total % Received % Xferd Average Speed Time Time Time Current Dload Upload Total Spent Left Speed 0 0 0 0 0 0 0 0 --:--:-- --:--:-- --:--:-- 0 100 430 100 430 0 0 4831 0 --:--:-- --:--:-- --:--:-- 4831 % Total % Received % Xferd Average Speed Time Time Time Current Dload Upload Total Spent Left Speed 0 0 0 0 0 0 0 0 --:--:-- --:--:-- --:--:-- 0 100 429 100 429 0 0 7944 0 --:--:-- --:--:-- --:--:-- 7944 % Total % Received % Xferd Average Speed Time Time Time Current Dload Upload Total Spent Left Speed 0 0 0 0 0 0 0 0 --:--:-- --:--:-- --:--:-- 0 100 429 100 429 0 0 1995 0 --:--:-- --:--:-- --:--:-- 1995 % Total % Received % Xferd Average Speed Time Time Time Current Dload Upload Total Spent Left Speed 0 0 0 0 0 0 0 0 --:--:-- --:--:-- --:--:-- 0 100 427 100 427 0 0 5083 0 --:--:-- --:--:-- --:--:-- 5144 % Total % Received % Xferd Average Speed Time Time Time Current Dload Upload Total Spent Left Speed 0 0 0 0 0 0 0 0 --:--:-- --:--:-- --:--:-- 0 100 430 100 430 0 0 9148 0 --:--:-- --:--:-- --:--:-- 9148 % Total % Received % Xferd Average Speed Time Time Time Current Dload Upload Total Spent Left Speed 0 0 0 0 0 0 0 0 --:--:-- --:--:-- --:--:-- 0 100 430 100 430 0 0 3282 0 --:--:-- --:--:-- --:--:-- 3282 100 430 100 430 0 0 3282 0 --:--:-- --:--:-- --:--:-- 3257 % Total % Received % Xferd Average Speed Time Time Time Current Dload Upload Total Spent Left Speed 0 0 0 0 0 0 0 0 --:--:-- --:--:-- --:--:-- 0 100 429 100 429 0 0 2113 0 --:--:-- --:--:-- --:--:-- 2113 % Total % Received % Xferd Average Speed Time Time Time Current Dload Upload Total Spent Left Speed 0 0 0 0 0 0 0 0 --:--:-- --:--:-- --:--:-- 0 100 427 100 427 0 0 4852 0 --:--:-- --:--:-- --:--:-- 4852 % Total % Received % Xferd Average Speed Time Time Time Current Dload Upload Total Spent Left Speed 0 0 0 0 0 0 0 0 --:--:-- --:--:-- --:--:-- 0 100 430 100 430 0 0 5119 0 --:--:-- --:--:-- --:--:-- 5119 % Total % Received % Xferd Average Speed Time Time Time Current Dload Upload Total Spent Left Speed 0 0 0 0 0 0 0 0 --:--:-- --:--:-- --:--:-- 0 100 427 100 427 0 0 2235 0 --:--:-- --:--:-- --:--:-- 2235 % Total % Received % Xferd Average Speed Time Time Time Current Dload Upload Total Spent Left Speed 0 0 0 0 0 0 0 0 --:--:-- --:--:-- --:--:-- 0 100 430 100 430 0 0 5058 0 --:--:-- --:--:-- --:--:-- 5058 % Total % Received % Xferd Average Speed Time Time Time Current Dload Upload Total Spent Left Speed 0 0 0 0 0 0 0 0 --:--:-- --:--:-- --:--:-- 0 100 428 100 428 0 0 1371 0 --:--:-- --:--:-- --:--:-- 1367 100 428 100 428 0 0 1371 0 --:--:-- --:--:-- --:--:-- 1367 % Total % Received % Xferd Average Speed Time Time Time Current Dload Upload Total Spent Left Speed 0 0 0 0 0 0 0 0 --:--:-- --:--:-- --:--:-- 0 100 431 100 431 0 0 10512 0 --:--:-- --:--:-- --:--:-- 10512 % Total % Received % Xferd Average Speed Time Time Time Current Dload Upload Total Spent Left Speed 0 0 0 0 0 0 0 0 --:--:-- --:--:-- --:--:-- 0 100 430 100 430 0 0 3467 0 --:--:-- --:--:-- --:--:-- 3467 % Total % Received % Xferd Average Speed Time Time Time Current Dload Upload Total Spent Left Speed 0 0 0 0 0 0 0 0 --:--:-- --:--:-- --:--:-- 0 100 430 100 430 0 0 2107 0 --:--:-- --:--:-- --:--:-- 2107 % Total % Received % Xferd Average Speed Time Time Time Current Dload Upload Total Spent Left Speed 0 0 0 0 0 0 0 0 --:--:-- --:--:-- --:--:-- 0 100 428 100 428 0 0 4505 0 --:--:-- --:--:-- --:--:-- 4505 % Total % Received % Xferd Average Speed Time Time Time Current Dload Upload Total Spent Left Speed 0 0 0 0 0 0 0 0 --:--:-- --:--:-- --:--:-- 0 100 431 100 431 0 0 7065 0 --:--:-- --:--:-- --:--:-- 7065 % Total % Received % Xferd Average Speed Time Time Time Current Dload Upload Total Spent Left Speed 0 0 0 0 0 0 0 0 --:--:-- --:--:-- --:--:-- 0 100 431 100 431 0 0 5320 0 --:--:-- --:--:-- --:--:-- 5320 % Total % Received % Xferd Average Speed Time Time Time Current Dload Upload Total Spent Left Speed 0 0 0 0 0 0 0 0 --:--:-- --:--:-- --:--:-- 0 0 0 0 0 0 0 0 0 --:--:-- --:--:-- --:--:-- 0 100 431 100 431 0 0 1752 0 --:--:-- --:--:-- --:--:-- 1744 % Total % Received % Xferd Average Speed Time Time Time Current Dload Upload Total Spent Left Speed 0 0 0 0 0 0 0 0 --:--:-- --:--:-- --:--:-- 0 100 428 100 428 0 0 5095 0 --:--:-- --:--:-- --:--:-- 5095 % Total % Received % Xferd Average Speed Time Time Time Current Dload Upload Total Spent Left Speed 0 0 0 0 0 0 0 0 --:--:-- --:--:-- --:--:-- 0 100 431 100 431 0 0 5387 0 --:--:-- --:--:-- --:--:-- 5387 % Total % Received % Xferd Average Speed Time Time Time Current Dload Upload Total Spent Left Speed 0 0 0 0 0 0 0 0 --:--:-- --:--:-- --:--:-- 0 100 431 100 431 0 0 10512 0 --:--:-- --:--:-- --:--:-- 10512 % Total % Received % Xferd Average Speed Time Time Time Current Dload Upload Total Spent Left Speed 0 0 0 0 0 0 0 0 --:--:-- --:--:-- --:--:-- 0 100 431 100 431 0 0 2244 0 --:--:-- --:--:-- --:--:-- 2244 % Total % Received % Xferd Average Speed Time Time Time Current Dload Upload Total Spent Left Speed 0 0 0 0 0 0 0 0 --:--:-- --:--:-- --:--:-- 0 100 425 100 425 0 0 2871 0 --:--:-- --:--:-- --:--:-- 2871 % Total % Received % Xferd Average Speed Time Time Time Current Dload Upload Total Spent Left Speed 0 0 0 0 0 0 0 0 --:--:-- --:--:-- --:--:-- 0 100 431 100 431 0 0 1907 0 --:--:-- --:--:-- --:--:-- 1907 % Total % Received % Xferd Average Speed Time Time Time Current Dload Upload Total Spent Left Speed 0 0 0 0 0 0 0 0 --:--:-- --:--:-- --:--:-- 0 100 431 100 431 0 0 2221 0 --:--:-- --:--:-- --:--:-- 2221 100 431 100 431 0 0 2221 0 --:--:-- --:--:-- --:--:-- 2210 % Total % Received % Xferd Average Speed Time Time Time Current Dload Upload Total Spent Left Speed 0 0 0 0 0 0 0 0 --:--:-- --:--:-- --:--:-- 0 100 432 100 432 0 0 3857 0 --:--:-- --:--:-- --:--:-- 3857 % Total % Received % Xferd Average Speed Time Time Time Current Dload Upload Total Spent Left Speed 0 0 0 0 0 0 0 0 --:--:-- --:--:-- --:--:-- 0 100 432 100 432 0 0 3600 0 --:--:-- --:--:-- --:--:-- 3600 % Total % Received % Xferd Average Speed Time Time Time Current Dload Upload Total Spent Left Speed 0 0 0 0 0 0 0 0 --:--:-- --:--:-- --:--:-- 0 100 431 100 431 0 0 4225 0 --:--:-- --:--:-- --:--:-- 4225 % Total % Received % Xferd Average Speed Time Time Time Current Dload Upload Total Spent Left Speed 0 0 0 0 0 0 0 0 --:--:-- --:--:-- --:--:-- 0 100 432 100 432 0 0 7854 0 --:--:-- --:--:-- --:--:-- 7714 100 432 100 432 0 0 7854 0 --:--:-- --:--:-- --:--:-- 7714 % Total % Received % Xferd Average Speed Time Time Time Current Dload Upload Total Spent Left Speed 0 0 0 0 0 0 0 0 --:--:-- --:--:-- --:--:-- 0 0 0 0 0 0 0 0 0 --:--:-- --:--:-- --:--:-- 0 100 432 100 432 0 0 4695 0 --:--:-- --:--:-- --:--:-- 4645 % Total % Received % Xferd Average Speed Time Time Time Current Dload Upload Total Spent Left Speed 0 0 0 0 0 0 0 0 --:--:-- --:--:-- --:--:-- 0 100 432 100 432 0 0 5142 0 --:--:-- --:--:-- --:--:-- 5142 % Total % Received % Xferd Average Speed Time Time Time Current Dload Upload Total Spent Left Speed 0 0 0 0 0 0 0 0 --:--:-- --:--:-- --:--:-- 0 100 431 100 431 0 0 3013 0 --:--:-- --:--:-- --:--:-- 3013 % Total % Received % Xferd Average Speed Time Time Time Current Dload Upload Total Spent Left Speed 0 0 0 0 0 0 0 0 --:--:-- --:--:-- --:--:-- 0 100 432 100 432 0 0 2297 0 --:--:-- --:--:-- --:--:-- 2297 % Total % Received % Xferd Average Speed Time Time Time Current Dload Upload Total Spent Left Speed 0 0 0 0 0 0 0 0 --:--:-- --:--:-- --:--:-- 0 100 432 100 432 0 0 1728 0 --:--:-- --:--:-- --:--:-- 1734 % Total % Received % Xferd Average Speed Time Time Time Current Dload Upload Total Spent Left Speed 0 0 0 0 0 0 0 0 --:--:-- --:--:-- --:--:-- 0 100 432 100 432 0 0 4114 0 --:--:-- --:--:-- --:--:-- 4075 100 432 100 432 0 0 4114 0 --:--:-- --:--:-- --:--:-- 4075 % Total % Received % Xferd Average Speed Time Time Time Current Dload Upload Total Spent Left Speed 0 0 0 0 0 0 0 0 --:--:-- --:--:-- --:--:-- 0 100 431 100 431 0 0 1744 0 --:--:-- --:--:-- --:--:-- 1744 % Total % Received % Xferd Average Speed Time Time Time Current Dload Upload Total Spent Left Speed 0 0 0 0 0 0 0 0 --:--:-- --:--:-- --:--:-- 0 100 432 100 432 0 0 2497 0 --:--:-- --:--:-- --:--:-- 2497 % Total % Received % Xferd Average Speed Time Time Time Current Dload Upload Total Spent Left Speed 0 0 0 0 0 0 0 0 --:--:-- --:--:-- --:--:-- 0 100 432 100 432 0 0 360 0 0:00:01 0:00:01 --:--:-- 360 100 432 100 432 0 0 360 0 0:00:01 0:00:01 --:--:-- 360 % Total % Received % Xferd Average Speed Time Time Time Current Dload Upload Total Spent Left Speed 0 0 0 0 0 0 0 0 --:--:-- --:--:-- --:--:-- 0 0 0 0 0 0 0 0 0 --:--:-- 0:00:01 --:--:-- 0 0 0 0 0 0 0 0 0 --:--:-- 0:00:02 --:--:-- 0 0 0 0 0 0 0 0 0 --:--:-- 0:00:03 --:--:-- 0 100 432 100 432 0 0 128 0 0:00:03 0:00:03 --:--:-- 128 100 432 100 432 0 0 128 0 0:00:03 0:00:03 --:--:-- 128 % Total % Received % Xferd Average Speed Time Time Time Current Dload Upload Total Spent Left Speed 0 0 0 0 0 0 0 0 --:--:-- --:--:-- --:--:-- 0 100 430 100 430 0 0 3644 0 --:--:-- --:--:-- --:--:-- 3644 % Total % Received % Xferd Average Speed Time Time Time Current Dload Upload Total Spent Left Speed 0 0 0 0 0 0 0 0 --:--:-- --:--:-- --:--:-- 0 100 432 100 432 0 0 1920 0 --:--:-- --:--:-- --:--:-- 1920 % Total % Received % Xferd Average Speed Time Time Time Current Dload Upload Total Spent Left Speed 0 0 0 0 0 0 0 0 --:--:-- --:--:-- --:--:-- 0 100 430 100 430 0 0 2559 0 --:--:-- --:--:-- --:--:-- 2559 % Total % Received % Xferd Average Speed Time Time Time Current Dload Upload Total Spent Left Speed 0 0 0 0 0 0 0 0 --:--:-- --:--:-- --:--:-- 0 100 432 100 432 0 0 7322 0 --:--:-- --:--:-- --:--:-- 7322 % Total % Received % Xferd Average Speed Time Time Time Current Dload Upload Total Spent Left Speed 0 0 0 0 0 0 0 0 --:--:-- --:--:-- --:--:-- 0 100 431 100 431 0 0 5986 0 --:--:-- --:--:-- --:--:-- 5904 100 431 100 431 0 0 5986 0 --:--:-- --:--:-- --:--:-- 5904 % Total % Received % Xferd Average Speed Time Time Time Current Dload Upload Total Spent Left Speed 0 0 0 0 0 0 0 0 --:--:-- --:--:-- --:--:-- 0 100 432 100 432 0 0 1454 0 --:--:-- --:--:-- --:--:-- 1459 % Total % Received % Xferd Average Speed Time Time Time Current Dload Upload Total Spent Left Speed 0 0 0 0 0 0 0 0 --:--:-- --:--:-- --:--:-- 0 100 431 100 431 0 0 10261 0 --:--:-- --:--:-- --:--:-- 10261 % Total % Received % Xferd Average Speed Time Time Time Current Dload Upload Total Spent Left Speed 0 0 0 0 0 0 0 0 --:--:-- --:--:-- --:--:-- 0 100 430 100 430 0 0 1508 0 --:--:-- --:--:-- --:--:-- 1508 % Total % Received % Xferd Average Speed Time Time Time Current Dload Upload Total Spent Left Speed 0 0 0 0 0 0 0 0 --:--:-- --:--:-- --:--:-- 0 100 429 100 429 0 0 2979 0 --:--:-- --:--:-- --:--:-- 2979 % Total % Received % Xferd Average Speed Time Time Time Current Dload Upload Total Spent Left Speed 0 0 0 0 0 0 0 0 --:--:-- --:--:-- --:--:-- 0 100 429 100 429 0 0 3605 0 --:--:-- --:--:-- --:--:-- 3635 % Total % Received % Xferd Average Speed Time Time Time Current Dload Upload Total Spent Left Speed 0 0 0 0 0 0 0 0 --:--:-- --:--:-- --:--:-- 0 100 432 100 432 0 0 8470 0 --:--:-- --:--:-- --:--:-- 8470 % Total % Received % Xferd Average Speed Time Time Time Current Dload Upload Total Spent Left Speed 0 0 0 0 0 0 0 0 --:--:-- --:--:-- --:--:-- 0 100 432 100 432 0 0 11368 0 --:--:-- --:--:-- --:--:-- 11368 % Total % Received % Xferd Average Speed Time Time Time Current Dload Upload Total Spent Left Speed 0 0 0 0 0 0 0 0 --:--:-- --:--:-- --:--:-- 0 100 428 100 428 0 0 9511 0 --:--:-- --:--:-- --:--:-- 9511 % Total % Received % Xferd Average Speed Time Time Time Current Dload Upload Total Spent Left Speed 0 0 0 0 0 0 0 0 --:--:-- --:--:-- --:--:-- 0 100 432 100 432 0 0 3323 0 --:--:-- --:--:-- --:--:-- 3323 % Total % Received % Xferd Average Speed Time Time Time Current Dload Upload Total Spent Left Speed 0 0 0 0 0 0 0 0 --:--:-- --:--:-- --:--:-- 0 100 427 100 427 0 0 1735 0 --:--:-- --:--:-- --:--:-- 1735 % Total % Received % Xferd Average Speed Time Time Time Current Dload Upload Total Spent Left Speed 0 0 0 0 0 0 0 0 --:--:-- --:--:-- --:--:-- 0 100 431 100 431 0 0 10261 0 --:--:-- --:--:-- --:--:-- 10261 % Total % Received % Xferd Average Speed Time Time Time Current Dload Upload Total Spent Left Speed 0 0 0 0 0 0 0 0 --:--:-- --:--:-- --:--:-- 0 100 431 100 431 0 0 6338 0 --:--:-- --:--:-- --:--:-- 6338 % Total % Received % Xferd Average Speed Time Time Time Current Dload Upload Total Spent Left Speed 0 0 0 0 0 0 0 0 --:--:-- --:--:-- --:--:-- 0 100 431 100 431 0 0 3918 0 --:--:-- --:--:-- --:--:-- 3918 % Total % Received % Xferd Average Speed Time Time Time Current Dload Upload Total Spent Left Speed 0 0 0 0 0 0 0 0 --:--:-- --:--:-- --:--:-- 0 100 432 100 432 0 0 3272 0 --:--:-- --:--:-- --:--:-- 3272 % Total % Received % Xferd Average Speed Time Time Time Current Dload Upload Total Spent Left Speed 0 0 0 0 0 0 0 0 --:--:-- --:--:-- --:--:-- 0 100 432 100 432 0 0 2842 0 --:--:-- --:--:-- --:--:-- 2842 % Total % Received % Xferd Average Speed Time Time Time Current Dload Upload Total Spent Left Speed 0 0 0 0 0 0 0 0 --:--:-- --:--:-- --:--:-- 0 100 430 100 430 0 0 3359 0 --:--:-- --:--:-- --:--:-- 3359 100 430 100 430 0 0 3359 0 --:--:-- --:--:-- --:--:-- 3333 % Total % Received % Xferd Average Speed Time Time Time Current Dload Upload Total Spent Left Speed 0 0 0 0 0 0 0 0 --:--:-- --:--:-- --:--:-- 0 100 429 100 429 0 0 2123 0 --:--:-- --:--:-- --:--:-- 2123 % Total % Received % Xferd Average Speed Time Time Time Current Dload Upload Total Spent Left Speed 0 0 0 0 0 0 0 0 --:--:-- --:--:-- --:--:-- 0 100 432 100 432 0 0 4153 0 --:--:-- --:--:-- --:--:-- 4153 % Total % Received % Xferd Average Speed Time Time Time Current Dload Upload Total Spent Left Speed 0 0 0 0 0 0 0 0 --:--:-- --:--:-- --:--:-- 0 100 432 100 432 0 0 5204 0 --:--:-- --:--:-- --:--:-- 5204 % Total % Received % Xferd Average Speed Time Time Time Current Dload Upload Total Spent Left Speed 0 0 0 0 0 0 0 0 --:--:-- --:--:-- --:--:-- 0 0 0 0 0 0 0 0 0 --:--:-- 0:00:01 --:--:-- 0 0 0 0 0 0 0 0 0 --:--:-- 0:00:02 --:--:-- 0 100 430 100 430 0 0 153 0 0:00:02 0:00:02 --:--:-- 153 100 430 100 430 0 0 153 0 0:00:02 0:00:02 --:--:-- 153 % Total % Received % Xferd Average Speed Time Time Time Current Dload Upload Total Spent Left Speed 0 0 0 0 0 0 0 0 --:--:-- --:--:-- --:--:-- 0 100 432 100 432 0 0 5142 0 --:--:-- --:--:-- --:--:-- 5142 % Total % Received % Xferd Average Speed Time Time Time Current Dload Upload Total Spent Left Speed 0 0 0 0 0 0 0 0 --:--:-- --:--:-- --:--:-- 0 100 432 100 432 0 0 10800 0 --:--:-- --:--:-- --:--:-- 10800 % Total % Received % Xferd Average Speed Time Time Time Current Dload Upload Total Spent Left Speed 0 0 0 0 0 0 0 0 --:--:-- --:--:-- --:--:-- 0 100 432 100 432 0 0 11076 0 --:--:-- --:--:-- --:--:-- 11076 % Total % Received % Xferd Average Speed Time Time Time Current Dload Upload Total Spent Left Speed 0 0 0 0 0 0 0 0 --:--:-- --:--:-- --:--:-- 0 100 431 100 431 0 0 7836 0 --:--:-- --:--:-- --:--:-- 7836 % Total % Received % Xferd Average Speed Time Time Time Current Dload Upload Total Spent Left Speed 0 0 0 0 0 0 0 0 --:--:-- --:--:-- --:--:-- 0 0 0 0 0 0 0 0 0 --:--:-- --:--:-- --:--:-- 0 100 429 100 429 0 0 1406 0 --:--:-- --:--:-- --:--:-- 1401 % Total % Received % Xferd Average Speed Time Time Time Current Dload Upload Total Spent Left Speed 0 0 0 0 0 0 0 0 --:--:-- --:--:-- --:--:-- 0 100 427 100 427 0 0 2482 0 --:--:-- --:--:-- --:--:-- 2482 % Total % Received % Xferd Average Speed Time Time Time Current Dload Upload Total Spent Left Speed 0 0 0 0 0 0 0 0 --:--:-- --:--:-- --:--:-- 0 100 431 100 431 0 0 3561 0 --:--:-- --:--:-- --:--:-- 3561 % Total % Received % Xferd Average Speed Time Time Time Current Dload Upload Total Spent Left Speed 0 0 0 0 0 0 0 0 --:--:-- --:--:-- --:--:-- 0 100 430 100 430 0 0 1168 0 --:--:-- --:--:-- --:--:-- 1165 100 430 100 430 0 0 1168 0 --:--:-- --:--:-- --:--:-- 1165 % Total % Received % Xferd Average Speed Time Time Time Current Dload Upload Total Spent Left Speed 0 0 0 0 0 0 0 0 --:--:-- --:--:-- --:--:-- 0 100 431 100 431 0 0 8979 0 --:--:-- --:--:-- --:--:-- 8979 % Total % Received % Xferd Average Speed Time Time Time Current Dload Upload Total Spent Left Speed 0 0 0 0 0 0 0 0 --:--:-- --:--:-- --:--:-- 0 100 431 100 431 0 0 3561 0 --:--:-- --:--:-- --:--:-- 3561 % Total % Received % Xferd Average Speed Time Time Time Current Dload Upload Total Spent Left Speed 0 0 0 0 0 0 0 0 --:--:-- --:--:-- --:--:-- 0 100 429 100 429 0 0 4612 0 --:--:-- --:--:-- --:--:-- 4612 % Total % Received % Xferd Average Speed Time Time Time Current Dload Upload Total Spent Left Speed 0 0 0 0 0 0 0 0 --:--:-- --:--:-- --:--:-- 0 100 432 100 432 0 0 3323 0 --:--:-- --:--:-- --:--:-- 3323 % Total % Received % Xferd Average Speed Time Time Time Current Dload Upload Total Spent Left Speed 0 0 0 0 0 0 0 0 --:--:-- --:--:-- --:--:-- 0 100 431 100 431 0 0 1950 0 --:--:-- --:--:-- --:--:-- 1950 % Total % Received % Xferd Average Speed Time Time Time Current Dload Upload Total Spent Left Speed 0 0 0 0 0 0 0 0 --:--:-- --:--:-- --:--:-- 0 100 430 100 430 0 0 5443 0 --:--:-- --:--:-- --:--:-- 5443 % Total % Received % Xferd Average Speed Time Time Time Current Dload Upload Total Spent Left Speed 0 0 0 0 0 0 0 0 --:--:-- --:--:-- --:--:-- 0 100 432 100 432 0 0 1734 0 --:--:-- --:--:-- --:--:-- 1741 % Total % Received % Xferd Average Speed Time Time Time Current Dload Upload Total Spent Left Speed 0 0 0 0 0 0 0 0 --:--:-- --:--:-- --:--:-- 0 100 432 100 432 0 0 1454 0 --:--:-- --:--:-- --:--:-- 1459 % Total % Received % Xferd Average Speed Time Time Time Current Dload Upload Total Spent Left Speed 0 0 0 0 0 0 0 0 --:--:-- --:--:-- --:--:-- 0 100 431 100 431 0 0 3420 0 --:--:-- --:--:-- --:--:-- 3393 100 431 100 431 0 0 3420 0 --:--:-- --:--:-- --:--:-- 3393 % Total % Received % Xferd Average Speed Time Time Time Current Dload Upload Total Spent Left Speed 0 0 0 0 0 0 0 0 --:--:-- --:--:-- --:--:-- 0 100 430 100 430 0 0 9555 0 --:--:-- --:--:-- --:--:-- 9555 % Total % Received % Xferd Average Speed Time Time Time Current Dload Upload Total Spent Left Speed 0 0 0 0 0 0 0 0 --:--:-- --:--:-- --:--:-- 0 100 431 100 431 0 0 1986 0 --:--:-- --:--:-- --:--:-- 1986 % Total % Received % Xferd Average Speed Time Time Time Current Dload Upload Total Spent Left Speed 0 0 0 0 0 0 0 0 --:--:-- --:--:-- --:--:-- 0 100 432 100 432 0 0 3130 0 --:--:-- --:--:-- --:--:-- 3130 % Total % Received % Xferd Average Speed Time Time Time Current Dload Upload Total Spent Left Speed 0 0 0 0 0 0 0 0 --:--:-- --:--:-- --:--:-- 0 100 431 100 431 0 0 5387 0 --:--:-- --:--:-- --:--:-- 5387 % Total % Received % Xferd Average Speed Time Time Time Current Dload Upload Total Spent Left Speed 0 0 0 0 0 0 0 0 --:--:-- --:--:-- --:--:-- 0 100 430 100 430 0 0 4095 0 --:--:-- --:--:-- --:--:-- 4095 % Total % Received % Xferd Average Speed Time Time Time Current Dload Upload Total Spent Left Speed 0 0 0 0 0 0 0 0 --:--:-- --:--:-- --:--:-- 0 100 432 100 432 0 0 4037 0 --:--:-- --:--:-- --:--:-- 4000 100 432 100 432 0 0 4037 0 --:--:-- --:--:-- --:--:-- 4000 % Total % Received % Xferd Average Speed Time Time Time Current Dload Upload Total Spent Left Speed 0 0 0 0 0 0 0 0 --:--:-- --:--:-- --:--:-- 0 100 432 100 432 0 0 3661 0 --:--:-- --:--:-- --:--:-- 3661 % Total % Received % Xferd Average Speed Time Time Time Current Dload Upload Total Spent Left Speed 0 0 0 0 0 0 0 0 --:--:-- --:--:-- --:--:-- 0 100 431 100 431 0 0 6841 0 --:--:-- --:--:-- --:--:-- 6841 % Total % Received % Xferd Average Speed Time Time Time Current Dload Upload Total Spent Left Speed 0 0 0 0 0 0 0 0 --:--:-- --:--:-- --:--:-- 0 100 431 100 431 0 0 3315 0 --:--:-- --:--:-- --:--:-- 3315 % Total % Received % Xferd Average Speed Time Time Time Current Dload Upload Total Spent Left Speed 0 0 0 0 0 0 0 0 --:--:-- --:--:-- --:--:-- 0 100 432 100 432 0 0 2634 0 --:--:-- --:--:-- --:--:-- 2634 % Total % Received % Xferd Average Speed Time Time Time Current Dload Upload Total Spent Left Speed 0 0 0 0 0 0 0 0 --:--:-- --:--:-- --:--:-- 0 100 432 100 432 0 0 1734 0 --:--:-- --:--:-- --:--:-- 1734 % Total % Received % Xferd Average Speed Time Time Time Current Dload Upload Total Spent Left Speed 0 0 0 0 0 0 0 0 --:--:-- --:--:-- --:--:-- 0 0 0 0 0 0 0 0 0 --:--:-- --:--:-- --:--:-- 0 100 431 100 431 0 0 1690 0 --:--:-- --:--:-- --:--:-- 1683 % Total % Received % Xferd Average Speed Time Time Time Current Dload Upload Total Spent Left Speed 0 0 0 0 0 0 0 0 --:--:-- --:--:-- --:--:-- 0 100 432 100 432 0 0 3630 0 --:--:-- --:--:-- --:--:-- 3630 % Total % Received % Xferd Average Speed Time Time Time Current Dload Upload Total Spent Left Speed 0 0 0 0 0 0 0 0 --:--:-- --:--:-- --:--:-- 0 100 428 100 428 0 0 4196 0 --:--:-- --:--:-- --:--:-- 4196 % Total % Received % Xferd Average Speed Time Time Time Current Dload Upload Total Spent Left Speed 0 0 0 0 0 0 0 0 --:--:-- --:--:-- --:--:-- 0 100 432 100 432 0 0 3401 0 --:--:-- --:--:-- --:--:-- 3401 % Total % Received % Xferd Average Speed Time Time Time Current Dload Upload Total Spent Left Speed 0 0 0 0 0 0 0 0 --:--:-- --:--:-- --:--:-- 0 100 432 100 432 0 0 5142 0 --:--:-- --:--:-- --:--:-- 5082 100 432 100 432 0 0 5142 0 --:--:-- --:--:-- --:--:-- 5082 % Total % Received % Xferd Average Speed Time Time Time Current Dload Upload Total Spent Left Speed 0 0 0 0 0 0 0 0 --:--:-- --:--:-- --:--:-- 0 100 431 100 431 0 0 5597 0 --:--:-- --:--:-- --:--:-- 5597 % Total % Received % Xferd Average Speed Time Time Time Current Dload Upload Total Spent Left Speed 0 0 0 0 0 0 0 0 --:--:-- --:--:-- --:--:-- 0 100 431 100 431 0 0 3780 0 --:--:-- --:--:-- --:--:-- 3780 % Total % Received % Xferd Average Speed Time Time Time Current Dload Upload Total Spent Left Speed 0 0 0 0 0 0 0 0 --:--:-- --:--:-- --:--:-- 0 100 431 100 431 0 0 6530 0 --:--:-- --:--:-- --:--:-- 6530 % Total % Received % Xferd Average Speed Time Time Time Current Dload Upload Total Spent Left Speed 0 0 0 0 0 0 0 0 --:--:-- --:--:-- --:--:-- 0 100 431 100 431 0 0 4144 0 --:--:-- --:--:-- --:--:-- 4144 % Total % Received % Xferd Average Speed Time Time Time Current Dload Upload Total Spent Left Speed 0 0 0 0 0 0 0 0 --:--:-- --:--:-- --:--:-- 0 100 431 100 431 0 0 4489 0 --:--:-- --:--:-- --:--:-- 4489 % Total % Received % Xferd Average Speed Time Time Time Current Dload Upload Total Spent Left Speed 0 0 0 0 0 0 0 0 --:--:-- --:--:-- --:--:-- 0 100 430 100 430 0 0 5890 0 --:--:-- --:--:-- --:--:-- 5890 % Total % Received % Xferd Average Speed Time Time Time Current Dload Upload Total Spent Left Speed 0 0 0 0 0 0 0 0 --:--:-- --:--:-- --:--:-- 0 100 430 100 430 0 0 3282 0 --:--:-- --:--:-- --:--:-- 3257 100 430 100 430 0 0 3282 0 --:--:-- --:--:-- --:--:-- 3257 % Total % Received % Xferd Average Speed Time Time Time Current Dload Upload Total Spent Left Speed 0 0 0 0 0 0 0 0 --:--:-- --:--:-- --:--:-- 0 100 427 100 427 0 0 10414 0 --:--:-- --:--:-- --:--:-- 10414 % Total % Received % Xferd Average Speed Time Time Time Current Dload Upload Total Spent Left Speed 0 0 0 0 0 0 0 0 --:--:-- --:--:-- --:--:-- 0 100 431 100 431 0 0 2072 0 --:--:-- --:--:-- --:--:-- 2072 % Total % Received % Xferd Average Speed Time Time Time Current Dload Upload Total Spent Left Speed 0 0 0 0 0 0 0 0 --:--:-- --:--:-- --:--:-- 0 100 431 100 431 0 0 3192 0 --:--:-- --:--:-- --:--:-- 3192 % Total % Received % Xferd Average Speed Time Time Time Current Dload Upload Total Spent Left Speed 0 0 0 0 0 0 0 0 --:--:-- --:--:-- --:--:-- 0 100 431 100 431 0 0 4954 0 --:--:-- --:--:-- --:--:-- 5011 % Total % Received % Xferd Average Speed Time Time Time Current Dload Upload Total Spent Left Speed 0 0 0 0 0 0 0 0 --:--:-- --:--:-- --:--:-- 0 100 431 100 431 0 0 8450 0 --:--:-- --:--:-- --:--:-- 8450 % Total % Received % Xferd Average Speed Time Time Time Current Dload Upload Total Spent Left Speed 0 0 0 0 0 0 0 0 --:--:-- --:--:-- --:--:-- 0 100 430 100 430 0 0 3524 0 --:--:-- --:--:-- --:--:-- 3524 % Total % Received % Xferd Average Speed Time Time Time Current Dload Upload Total Spent Left Speed 0 0 0 0 0 0 0 0 --:--:-- --:--:-- --:--:-- 0 100 431 100 431 0 0 3265 0 --:--:-- --:--:-- --:--:-- 3265 % Total % Received % Xferd Average Speed Time Time Time Current Dload Upload Total Spent Left Speed 0 0 0 0 0 0 0 0 --:--:-- --:--:-- --:--:-- 0 100 431 100 431 0 0 1260 0 --:--:-- --:--:-- --:--:-- 1256 100 431 100 431 0 0 1260 0 --:--:-- --:--:-- --:--:-- 1256 % Total % Received % Xferd Average Speed Time Time Time Current Dload Upload Total Spent Left Speed 0 0 0 0 0 0 0 0 --:--:-- --:--:-- --:--:-- 0 100 431 100 431 0 0 726 0 --:--:-- --:--:-- --:--:-- 726 % Total % Received % Xferd Average Speed Time Time Time Current Dload Upload Total Spent Left Speed 0 0 0 0 0 0 0 0 --:--:-- --:--:-- --:--:-- 0 100 431 100 431 0 0 1882 0 --:--:-- --:--:-- --:--:-- 1882 % Total % Received % Xferd Average Speed Time Time Time Current Dload Upload Total Spent Left Speed 0 0 0 0 0 0 0 0 --:--:-- --:--:-- --:--:-- 0 100 430 100 430 0 0 4300 0 --:--:-- --:--:-- --:--:-- 4300 % Total % Received % Xferd Average Speed Time Time Time Current Dload Upload Total Spent Left Speed 0 0 0 0 0 0 0 0 --:--:-- --:--:-- --:--:-- 0 100 431 100 431 0 0 7836 0 --:--:-- --:--:-- --:--:-- 7836 % Total % Received % Xferd Average Speed Time Time Time Current Dload Upload Total Spent Left Speed 0 0 0 0 0 0 0 0 --:--:-- --:--:-- --:--:-- 0 100 430 100 430 0 0 3257 0 --:--:-- --:--:-- --:--:-- 3257 % Total % Received % Xferd Average Speed Time Time Time Current Dload Upload Total Spent Left Speed 0 0 0 0 0 0 0 0 --:--:-- --:--:-- --:--:-- 0 100 431 100 431 0 0 3078 0 --:--:-- --:--:-- --:--:-- 3078 % Total % Received % Xferd Average Speed Time Time Time Current Dload Upload Total Spent Left Speed 0 0 0 0 0 0 0 0 --:--:-- --:--:-- --:--:-- 0 100 430 100 430 0 0 2388 0 --:--:-- --:--:-- --:--:-- 2375 100 430 100 430 0 0 2375 0 --:--:-- --:--:-- --:--:-- 2362 % Total % Received % Xferd Average Speed Time Time Time Current Dload Upload Total Spent Left Speed 0 0 0 0 0 0 0 0 --:--:-- --:--:-- --:--:-- 0 100 431 100 431 0 0 6630 0 --:--:-- --:--:-- --:--:-- 6630 % Total % Received % Xferd Average Speed Time Time Time Current Dload Upload Total Spent Left Speed 0 0 0 0 0 0 0 0 --:--:-- --:--:-- --:--:-- 0 100 430 100 430 0 0 2000 0 --:--:-- --:--:-- --:--:-- 2000 % Total % Received % Xferd Average Speed Time Time Time Current Dload Upload Total Spent Left Speed 0 0 0 0 0 0 0 0 --:--:-- --:--:-- --:--:-- 0 100 432 100 432 0 0 8150 0 --:--:-- --:--:-- --:--:-- 8150 % Total % Received % Xferd Average Speed Time Time Time Current Dload Upload Total Spent Left Speed 0 0 0 0 0 0 0 0 --:--:-- --:--:-- --:--:-- 0 100 429 100 429 0 0 1515 0 --:--:-- --:--:-- --:--:-- 1515 % Total % Received % Xferd Average Speed Time Time Time Current Dload Upload Total Spent Left Speed 0 0 0 0 0 0 0 0 --:--:-- --:--:-- --:--:-- 0 100 429 100 429 0 0 10463 0 --:--:-- --:--:-- --:--:-- 10725 % Total % Received % Xferd Average Speed Time Time Time Current Dload Upload Total Spent Left Speed 0 0 0 0 0 0 0 0 --:--:-- --:--:-- --:--:-- 0 100 432 100 432 0 0 2413 0 --:--:-- --:--:-- --:--:-- 2413 % Total % Received % Xferd Average Speed Time Time Time Current Dload Upload Total Spent Left Speed 0 0 0 0 0 0 0 0 --:--:-- --:--:-- --:--:-- 0 100 432 100 432 0 0 2769 0 --:--:-- --:--:-- --:--:-- 2769 % Total % Received % Xferd Average Speed Time Time Time Current Dload Upload Total Spent Left Speed 0 0 0 0 0 0 0 0 --:--:-- --:--:-- --:--:-- 0 100 432 100 432 0 0 8816 0 --:--:-- --:--:-- --:--:-- 8816 % Total % Received % Xferd Average Speed Time Time Time Current Dload Upload Total Spent Left Speed 0 0 0 0 0 0 0 0 --:--:-- --:--:-- --:--:-- 0 100 432 100 432 0 0 2586 0 --:--:-- --:--:-- --:--:-- 2586 % Total % Received % Xferd Average Speed Time Time Time Current Dload Upload Total Spent Left Speed 0 0 0 0 0 0 0 0 --:--:-- --:--:-- --:--:-- 0 100 432 100 432 0 0 4747 0 --:--:-- --:--:-- --:--:-- 4747 % Total % Received % Xferd Average Speed Time Time Time Current Dload Upload Total Spent Left Speed 0 0 0 0 0 0 0 0 --:--:-- --:--:-- --:--:-- 0 100 431 100 431 0 0 5525 0 --:--:-- --:--:-- --:--:-- 5525 % Total % Received % Xferd Average Speed Time Time Time Current Dload Upload Total Spent Left Speed 0 0 0 0 0 0 0 0 --:--:-- --:--:-- --:--:-- 0 100 431 100 431 0 0 9577 0 --:--:-- --:--:-- --:--:-- 9577 % Total % Received % Xferd Average Speed Time Time Time Current Dload Upload Total Spent Left Speed 0 0 0 0 0 0 0 0 --:--:-- --:--:-- --:--:-- 0 100 431 100 431 0 0 4897 0 --:--:-- --:--:-- --:--:-- 4954 % Total % Received % Xferd Average Speed Time Time Time Current Dload Upload Total Spent Left Speed 0 0 0 0 0 0 0 0 --:--:-- --:--:-- --:--:-- 0 100 432 100 432 0 0 10046 0 --:--:-- --:--:-- --:--:-- 10046 % Total % Received % Xferd Average Speed Time Time Time Current Dload Upload Total Spent Left Speed 0 0 0 0 0 0 0 0 --:--:-- --:--:-- --:--:-- 0 100 432 100 432 0 0 1815 0 --:--:-- --:--:-- --:--:-- 1815 % Total % Received % Xferd Average Speed Time Time Time Current Dload Upload Total Spent Left Speed 0 0 0 0 0 0 0 0 --:--:-- --:--:-- --:--:-- 0 100 432 100 432 0 0 3200 0 --:--:-- --:--:-- --:--:-- 3200 % Total % Received % Xferd Average Speed Time Time Time Current Dload Upload Total Spent Left Speed 0 0 0 0 0 0 0 0 --:--:-- --:--:-- --:--:-- 0 100 432 100 432 0 0 2347 0 --:--:-- --:--:-- --:--:-- 2347 % Total % Received % Xferd Average Speed Time Time Time Current Dload Upload Total Spent Left Speed 0 0 0 0 0 0 0 0 --:--:-- --:--:-- --:--:-- 0 100 431 100 431 0 0 6157 0 --:--:-- --:--:-- --:--:-- 6157 % Total % Received % Xferd Average Speed Time Time Time Current Dload Upload Total Spent Left Speed 0 0 0 0 0 0 0 0 --:--:-- --:--:-- --:--:-- 0 100 432 100 432 0 0 3661 0 --:--:-- --:--:-- --:--:-- 3661 % Total % Received % Xferd Average Speed Time Time Time Current Dload Upload Total Spent Left Speed 0 0 0 0 0 0 0 0 --:--:-- --:--:-- --:--:-- 0 100 432 100 432 0 0 7322 0 --:--:-- --:--:-- --:--:-- 7322 % Total % Received % Xferd Average Speed Time Time Time Current Dload Upload Total Spent Left Speed 0 0 0 0 0 0 0 0 --:--:-- --:--:-- --:--:-- 0 100 432 100 432 0 0 2261 0 --:--:-- --:--:-- --:--:-- 2261 % Total % Received % Xferd Average Speed Time Time Time Current Dload Upload Total Spent Left Speed 0 0 0 0 0 0 0 0 --:--:-- --:--:-- --:--:-- 0 0 0 0 0 0 0 0 0 --:--:-- --:--:-- --:--:-- 0 100 429 100 429 0 0 1123 0 --:--:-- --:--:-- --:--:-- 1120 % Total % Received % Xferd Average Speed Time Time Time Current Dload Upload Total Spent Left Speed 0 0 0 0 0 0 0 0 --:--:-- --:--:-- --:--:-- 0 0 0 0 0 0 0 0 0 --:--:-- --:--:-- --:--:-- 0 100 432 100 432 0 0 3297 0 --:--:-- --:--:-- --:--:-- 3272 % Total % Received % Xferd Average Speed Time Time Time Current Dload Upload Total Spent Left Speed 0 0 0 0 0 0 0 0 --:--:-- --:--:-- --:--:-- 0 100 432 100 432 0 0 6967 0 --:--:-- --:--:-- --:--:-- 6967 % Total % Received % Xferd Average Speed Time Time Time Current Dload Upload Total Spent Left Speed 0 0 0 0 0 0 0 0 --:--:-- --:--:-- --:--:-- 0 100 432 100 432 0 0 2787 0 --:--:-- --:--:-- --:--:-- 2787 % Total % Received % Xferd Average Speed Time Time Time Current Dload Upload Total Spent Left Speed 0 0 0 0 0 0 0 0 --:--:-- --:--:-- --:--:-- 0 100 432 100 432 0 0 4909 0 --:--:-- --:--:-- --:--:-- 4909 % Total % Received % Xferd Average Speed Time Time Time Current Dload Upload Total Spent Left Speed 0 0 0 0 0 0 0 0 --:--:-- --:--:-- --:--:-- 0 100 431 100 431 0 0 3652 0 --:--:-- --:--:-- --:--:-- 3652 % Total % Received % Xferd Average Speed Time Time Time Current Dload Upload Total Spent Left Speed 0 0 0 0 0 0 0 0 --:--:-- --:--:-- --:--:-- 0 100 431 100 431 0 0 2798 0 --:--:-- --:--:-- --:--:-- 2798 % Total % Received % Xferd Average Speed Time Time Time Current Dload Upload Total Spent Left Speed 0 0 0 0 0 0 0 0 --:--:-- --:--:-- --:--:-- 0 100 430 100 430 0 0 9148 0 --:--:-- --:--:-- --:--:-- 9148 % Total % Received % Xferd Average Speed Time Time Time Current Dload Upload Total Spent Left Speed 0 0 0 0 0 0 0 0 --:--:-- --:--:-- --:--:-- 0 100 431 100 431 0 0 3532 0 --:--:-- --:--:-- --:--:-- 3504 100 431 100 431 0 0 3532 0 --:--:-- --:--:-- --:--:-- 3504 % Total % Received % Xferd Average Speed Time Time Time Current Dload Upload Total Spent Left Speed 0 0 0 0 0 0 0 0 --:--:-- --:--:-- --:--:-- 0 100 432 100 432 0 0 2918 0 --:--:-- --:--:-- --:--:-- 2918 % Total % Received % Xferd Average Speed Time Time Time Current Dload Upload Total Spent Left Speed 0 0 0 0 0 0 0 0 --:--:-- --:--:-- --:--:-- 0 100 432 100 432 0 0 7714 0 --:--:-- --:--:-- --:--:-- 7714 % Total % Received % Xferd Average Speed Time Time Time Current Dload Upload Total Spent Left Speed 0 0 0 0 0 0 0 0 --:--:-- --:--:-- --:--:-- 0 100 431 100 431 0 0 5824 0 --:--:-- --:--:-- --:--:-- 5824 % Total % Received % Xferd Average Speed Time Time Time Current Dload Upload Total Spent Left Speed 0 0 0 0 0 0 0 0 --:--:-- --:--:-- --:--:-- 0 100 432 100 432 0 0 6750 0 --:--:-- --:--:-- --:--:-- 6750 % Total % Received % Xferd Average Speed Time Time Time Current Dload Upload Total Spent Left Speed 0 0 0 0 0 0 0 0 --:--:-- --:--:-- --:--:-- 0 100 432 100 432 0 0 3375 0 --:--:-- --:--:-- --:--:-- 3375 % Total % Received % Xferd Average Speed Time Time Time Current Dload Upload Total Spent Left Speed 0 0 0 0 0 0 0 0 --:--:-- --:--:-- --:--:-- 0 100 432 100 432 0 0 7854 0 --:--:-- --:--:-- --:--:-- 7854 % Total % Received % Xferd Average Speed Time Time Time Current Dload Upload Total Spent Left Speed 0 0 0 0 0 0 0 0 --:--:-- --:--:-- --:--:-- 0 100 431 100 431 0 0 8450 0 --:--:-- --:--:-- --:--:-- 8450 % Total % Received % Xferd Average Speed Time Time Time Current Dload Upload Total Spent Left Speed 0 0 0 0 0 0 0 0 --:--:-- --:--:-- --:--:-- 0 100 432 100 432 0 0 9391 0 --:--:-- --:--:-- --:--:-- 9391 % Total % Received % Xferd Average Speed Time Time Time Current Dload Upload Total Spent Left Speed 0 0 0 0 0 0 0 0 --:--:-- --:--:-- --:--:-- 0 100 432 100 432 0 0 1248 0 --:--:-- --:--:-- --:--:-- 1248 % Total % Received % Xferd Average Speed Time Time Time Current Dload Upload Total Spent Left Speed 0 0 0 0 0 0 0 0 --:--:-- --:--:-- --:--:-- 0 100 432 100 432 0 0 3789 0 --:--:-- --:--:-- --:--:-- 3789 % Total % Received % Xferd Average Speed Time Time Time Current Dload Upload Total Spent Left Speed 0 0 0 0 0 0 0 0 --:--:-- --:--:-- --:--:-- 0 100 431 100 431 0 0 2931 0 --:--:-- --:--:-- --:--:-- 2931 % Total % Received % Xferd Average Speed Time Time Time Current Dload Upload Total Spent Left Speed 0 0 0 0 0 0 0 0 --:--:-- --:--:-- --:--:-- 0 100 432 100 432 0 0 5610 0 --:--:-- --:--:-- --:--:-- 5610 % Total % Received % Xferd Average Speed Time Time Time Current Dload Upload Total Spent Left Speed 0 0 0 0 0 0 0 0 --:--:-- --:--:-- --:--:-- 0 100 432 100 432 0 0 2958 0 --:--:-- --:--:-- --:--:-- 2958 % Total % Received % Xferd Average Speed Time Time Time Current Dload Upload Total Spent Left Speed 0 0 0 0 0 0 0 0 --:--:-- --:--:-- --:--:-- 0 100 431 100 431 0 0 3780 0 --:--:-- --:--:-- --:--:-- 3780 % Total % Received % Xferd Average Speed Time Time Time Current Dload Upload Total Spent Left Speed 0 0 0 0 0 0 0 0 --:--:-- --:--:-- --:--:-- 0 100 431 100 431 0 0 9369 0 --:--:-- --:--:-- --:--:-- 9369 % Total % Received % Xferd Average Speed Time Time Time Current Dload Upload Total Spent Left Speed 0 0 0 0 0 0 0 0 --:--:-- --:--:-- --:--:-- 0 0 0 0 0 0 0 0 0 --:--:-- --:--:-- --:--:-- 0 100 432 100 432 0 0 1954 0 --:--:-- --:--:-- --:--:-- 1945 % Total % Received % Xferd Average Speed Time Time Time Current Dload Upload Total Spent Left Speed 0 0 0 0 0 0 0 0 --:--:-- --:--:-- --:--:-- 0 100 431 100 431 0 0 8979 0 --:--:-- --:--:-- --:--:-- 8979 % Total % Received % Xferd Average Speed Time Time Time Current Dload Upload Total Spent Left Speed 0 0 0 0 0 0 0 0 --:--:-- --:--:-- --:--:-- 0 100 432 100 432 0 0 7200 0 --:--:-- --:--:-- --:--:-- 7200 % Total % Received % Xferd Average Speed Time Time Time Current Dload Upload Total Spent Left Speed 0 0 0 0 0 0 0 0 --:--:-- --:--:-- --:--:-- 0 0 0 0 0 0 0 0 0 --:--:-- --:--:-- --:--:-- 0 100 431 100 431 0 0 2268 0 --:--:-- --:--:-- --:--:-- 2268 % Total % Received % Xferd Average Speed Time Time Time Current Dload Upload Total Spent Left Speed 0 0 0 0 0 0 0 0 --:--:-- --:--:-- --:--:-- 0 100 431 100 431 0 0 2280 0 --:--:-- --:--:-- --:--:-- 2280 % Total % Received % Xferd Average Speed Time Time Time Current Dload Upload Total Spent Left Speed 0 0 0 0 0 0 0 0 --:--:-- --:--:-- --:--:-- 0 100 431 100 431 0 0 6530 0 --:--:-- --:--:-- --:--:-- 6630 % Total % Received % Xferd Average Speed Time Time Time Current Dload Upload Total Spent Left Speed 0 0 0 0 0 0 0 0 --:--:-- --:--:-- --:--:-- 0 0 0 0 0 0 0 0 0 --:--:-- --:--:-- --:--:-- 0 100 431 100 431 0 0 1533 0 --:--:-- --:--:-- --:--:-- 1528 % Total % Received % Xferd Average Speed Time Time Time Current Dload Upload Total Spent Left Speed 0 0 0 0 0 0 0 0 --:--:-- --:--:-- --:--:-- 0 100 432 100 432 0 0 6646 0 --:--:-- --:--:-- --:--:-- 6646 % Total % Received % Xferd Average Speed Time Time Time Current Dload Upload Total Spent Left Speed 0 0 0 0 0 0 0 0 --:--:-- --:--:-- --:--:-- 0 100 431 100 431 0 0 3652 0 --:--:-- --:--:-- --:--:-- 3652 % Total % Received % Xferd Average Speed Time Time Time Current Dload Upload Total Spent Left Speed 0 0 0 0 0 0 0 0 --:--:-- --:--:-- --:--:-- 0 100 427 100 427 0 0 1967 0 --:--:-- --:--:-- --:--:-- 1958 100 427 100 427 0 0 1967 0 --:--:-- --:--:-- --:--:-- 1958 % Total % Received % Xferd Average Speed Time Time Time Current Dload Upload Total Spent Left Speed 0 0 0 0 0 0 0 0 --:--:-- --:--:-- --:--:-- 0 100 431 100 431 0 0 7305 0 --:--:-- --:--:-- --:--:-- 7305 % Total % Received % Xferd Average Speed Time Time Time Current Dload Upload Total Spent Left Speed 0 0 0 0 0 0 0 0 --:--:-- --:--:-- --:--:-- 0 100 432 100 432 0 0 3927 0 --:--:-- --:--:-- --:--:-- 3927 % Total % Received % Xferd Average Speed Time Time Time Current Dload Upload Total Spent Left Speed 0 0 0 0 0 0 0 0 --:--:-- --:--:-- --:--:-- 0 100 431 100 431 0 0 6157 0 --:--:-- --:--:-- --:--:-- 6157 % Total % Received % Xferd Average Speed Time Time Time Current Dload Upload Total Spent Left Speed 0 0 0 0 0 0 0 0 --:--:-- --:--:-- --:--:-- 0 100 431 100 431 0 0 3882 0 --:--:-- --:--:-- --:--:-- 3882 % Total % Received % Xferd Average Speed Time Time Time Current Dload Upload Total Spent Left Speed 0 0 0 0 0 0 0 0 --:--:-- --:--:-- --:--:-- 0 100 431 100 431 0 0 2952 0 --:--:-- --:--:-- --:--:-- 2952 % Total % Received % Xferd Average Speed Time Time Time Current Dload Upload Total Spent Left Speed 0 0 0 0 0 0 0 0 --:--:-- --:--:-- --:--:-- 0 100 432 100 432 0 0 3456 0 --:--:-- --:--:-- --:--:-- 3456 % Total % Received % Xferd Average Speed Time Time Time Current Dload Upload Total Spent Left Speed 0 0 0 0 0 0 0 0 --:--:-- --:--:-- --:--:-- 0 100 431 100 431 0 0 3420 0 --:--:-- --:--:-- --:--:-- 3420 % Total % Received % Xferd Average Speed Time Time Time Current Dload Upload Total Spent Left Speed 0 0 0 0 0 0 0 0 --:--:-- --:--:-- --:--:-- 0 100 431 100 431 0 0 6070 0 --:--:-- --:--:-- --:--:-- 6070 % Total % Received % Xferd Average Speed Time Time Time Current Dload Upload Total Spent Left Speed 0 0 0 0 0 0 0 0 --:--:-- --:--:-- --:--:-- 0 100 431 100 431 0 0 3652 0 --:--:-- --:--:-- --:--:-- 3652 % Total % Received % Xferd Average Speed Time Time Time Current Dload Upload Total Spent Left Speed 0 0 0 0 0 0 0 0 --:--:-- --:--:-- --:--:-- 0 100 431 100 431 0 0 5904 0 --:--:-- --:--:-- --:--:-- 5824 100 431 100 431 0 0 5904 0 --:--:-- --:--:-- --:--:-- 5824 % Total % Received % Xferd Average Speed Time Time Time Current Dload Upload Total Spent Left Speed 0 0 0 0 0 0 0 0 --:--:-- --:--:-- --:--:-- 0 100 431 100 431 0 0 1004 0 --:--:-- --:--:-- --:--:-- 1004 % Total % Received % Xferd Average Speed Time Time Time Current Dload Upload Total Spent Left Speed 0 0 0 0 0 0 0 0 --:--:-- --:--:-- --:--:-- 0 100 430 100 430 0 0 2925 0 --:--:-- --:--:-- --:--:-- 2925 % Total % Received % Xferd Average Speed Time Time Time Current Dload Upload Total Spent Left Speed 0 0 0 0 0 0 0 0 --:--:-- --:--:-- --:--:-- 0 100 431 100 431 0 0 2727 0 --:--:-- --:--:-- --:--:-- 2710 100 431 100 431 0 0 2710 0 --:--:-- --:--:-- --:--:-- 2693 % Total % Received % Xferd Average Speed Time Time Time Current Dload Upload Total Spent Left Speed 0 0 0 0 0 0 0 0 --:--:-- --:--:-- --:--:-- 0 100 431 100 431 0 0 4144 0 --:--:-- --:--:-- --:--:-- 4144 % Total % Received % Xferd Average Speed Time Time Time Current Dload Upload Total Spent Left Speed 0 0 0 0 0 0 0 0 --:--:-- --:--:-- --:--:-- 0 100 431 100 431 0 0 1759 0 --:--:-- --:--:-- --:--:-- 1759 % Total % Received % Xferd Average Speed Time Time Time Current Dload Upload Total Spent Left Speed 0 0 0 0 0 0 0 0 --:--:-- --:--:-- --:--:-- 0 100 429 100 429 0 0 7526 0 --:--:-- --:--:-- --:--:-- 7526 % Total % Received % Xferd Average Speed Time Time Time Current Dload Upload Total Spent Left Speed 0 0 0 0 0 0 0 0 --:--:-- --:--:-- --:--:-- 0 100 430 100 430 0 0 2810 0 --:--:-- --:--:-- --:--:-- 2810 % Total % Received % Xferd Average Speed Time Time Time Current Dload Upload Total Spent Left Speed 0 0 0 0 0 0 0 0 --:--:-- --:--:-- --:--:-- 0 100 430 100 430 0 0 2349 0 --:--:-- --:--:-- --:--:-- 2349 % Total % Received % Xferd Average Speed Time Time Time Current Dload Upload Total Spent Left Speed 0 0 0 0 0 0 0 0 --:--:-- --:--:-- --:--:-- 0 100 428 100 428 0 0 2547 0 --:--:-- --:--:-- --:--:-- 2532 100 428 100 428 0 0 2532 0 --:--:-- --:--:-- --:--:-- 2517 % Total % Received % Xferd Average Speed Time Time Time Current Dload Upload Total Spent Left Speed 0 0 0 0 0 0 0 0 --:--:-- --:--:-- --:--:-- 0 100 432 100 432 0 0 8000 0 --:--:-- --:--:-- --:--:-- 8000 % Total % Received % Xferd Average Speed Time Time Time Current Dload Upload Total Spent Left Speed 0 0 0 0 0 0 0 0 --:--:-- --:--:-- --:--:-- 0 100 430 100 430 0 0 6825 0 --:--:-- --:--:-- --:--:-- 6825 % Total % Received % Xferd Average Speed Time Time Time Current Dload Upload Total Spent Left Speed 0 0 0 0 0 0 0 0 --:--:-- --:--:-- --:--:-- 0 100 430 100 430 0 0 2362 0 --:--:-- --:--:-- --:--:-- 2362 % Total % Received % Xferd Average Speed Time Time Time Current Dload Upload Total Spent Left Speed 0 0 0 0 0 0 0 0 --:--:-- --:--:-- --:--:-- 0 100 429 100 429 0 0 2410 0 --:--:-- --:--:-- --:--:-- 2410 % Total % Received % Xferd Average Speed Time Time Time Current Dload Upload Total Spent Left Speed 0 0 0 0 0 0 0 0 --:--:-- --:--:-- --:--:-- 0 100 431 100 431 0 0 2660 0 --:--:-- --:--:-- --:--:-- 2660 % Total % Received % Xferd Average Speed Time Time Time Current Dload Upload Total Spent Left Speed 0 0 0 0 0 0 0 0 --:--:-- --:--:-- --:--:-- 0 100 432 100 432 0 0 2571 0 --:--:-- --:--:-- --:--:-- 2571 % Total % Received % Xferd Average Speed Time Time Time Current Dload Upload Total Spent Left Speed 0 0 0 0 0 0 0 0 --:--:-- --:--:-- --:--:-- 0 100 430 100 430 0 0 2324 0 --:--:-- --:--:-- --:--:-- 2324 % Total % Received % Xferd Average Speed Time Time Time Current Dload Upload Total Spent Left Speed 0 0 0 0 0 0 0 0 --:--:-- --:--:-- --:--:-- 0 0 0 0 0 0 0 0 0 --:--:-- --:--:-- --:--:-- 0 100 431 100 431 0 0 1810 0 --:--:-- --:--:-- --:--:-- 1803 % Total % Received % Xferd Average Speed Time Time Time Current Dload Upload Total Spent Left Speed 0 0 0 0 0 0 0 0 --:--:-- --:--:-- --:--:-- 0 100 432 100 432 0 0 8816 0 --:--:-- --:--:-- --:--:-- 8816 % Total % Received % Xferd Average Speed Time Time Time Current Dload Upload Total Spent Left Speed 0 0 0 0 0 0 0 0 --:--:-- --:--:-- --:--:-- 0 100 432 100 432 0 0 3130 0 --:--:-- --:--:-- --:--:-- 3153 % Total % Received % Xferd Average Speed Time Time Time Current Dload Upload Total Spent Left Speed 0 0 0 0 0 0 0 0 --:--:-- --:--:-- --:--:-- 0 100 431 100 431 0 0 10775 0 --:--:-- --:--:-- --:--:-- 10775 % Total % Received % Xferd Average Speed Time Time Time Current Dload Upload Total Spent Left Speed 0 0 0 0 0 0 0 0 --:--:-- --:--:-- --:--:-- 0 100 431 100 431 0 0 6157 0 --:--:-- --:--:-- --:--:-- 6246 % Total % Received % Xferd Average Speed Time Time Time Current Dload Upload Total Spent Left Speed 0 0 0 0 0 0 0 0 --:--:-- --:--:-- --:--:-- 0 100 432 100 432 0 0 2076 0 --:--:-- --:--:-- --:--:-- 2076 % Total % Received % Xferd Average Speed Time Time Time Current Dload Upload Total Spent Left Speed 0 0 0 0 0 0 0 0 --:--:-- --:--:-- --:--:-- 0 100 432 100 432 0 0 3756 0 --:--:-- --:--:-- --:--:-- 3756 % Total % Received % Xferd Average Speed Time Time Time Current Dload Upload Total Spent Left Speed 0 0 0 0 0 0 0 0 --:--:-- --:--:-- --:--:-- 0 100 431 100 431 0 0 4104 0 --:--:-- --:--:-- --:--:-- 4104 % Total % Received % Xferd Average Speed Time Time Time Current Dload Upload Total Spent Left Speed 0 0 0 0 0 0 0 0 --:--:-- --:--:-- --:--:-- 0 100 428 100 428 0 0 1398 0 --:--:-- --:--:-- --:--:-- 1403 % Total % Received % Xferd Average Speed Time Time Time Current Dload Upload Total Spent Left Speed 0 0 0 0 0 0 0 0 --:--:-- --:--:-- --:--:-- 0 100 431 100 431 0 0 2854 0 --:--:-- --:--:-- --:--:-- 2854 % Total % Received % Xferd Average Speed Time Time Time Current Dload Upload Total Spent Left Speed 0 0 0 0 0 0 0 0 --:--:-- --:--:-- --:--:-- 0 100 432 100 432 0 0 2899 0 --:--:-- --:--:-- --:--:-- 2880 100 432 100 432 0 0 2899 0 --:--:-- --:--:-- --:--:-- 2880 % Total % Received % Xferd Average Speed Time Time Time Current Dload Upload Total Spent Left Speed 0 0 0 0 0 0 0 0 --:--:-- --:--:-- --:--:-- 0 100 431 100 431 0 0 4225 0 --:--:-- --:--:-- --:--:-- 4225 % Total % Received % Xferd Average Speed Time Time Time Current Dload Upload Total Spent Left Speed 0 0 0 0 0 0 0 0 --:--:-- --:--:-- --:--:-- 0 100 430 100 430 0 0 9148 0 --:--:-- --:--:-- --:--:-- 9148 % Total % Received % Xferd Average Speed Time Time Time Current Dload Upload Total Spent Left Speed 0 0 0 0 0 0 0 0 --:--:-- --:--:-- --:--:-- 0 100 432 100 432 0 0 2823 0 --:--:-- --:--:-- --:--:-- 2823 % Total % Received % Xferd Average Speed Time Time Time Current Dload Upload Total Spent Left Speed 0 0 0 0 0 0 0 0 --:--:-- --:--:-- --:--:-- 0 100 431 100 431 0 0 2014 0 --:--:-- --:--:-- --:--:-- 2014 % Total % Received % Xferd Average Speed Time Time Time Current Dload Upload Total Spent Left Speed 0 0 0 0 0 0 0 0 --:--:-- --:--:-- --:--:-- 0 100 428 100 428 0 0 2018 0 --:--:-- --:--:-- --:--:-- 2018 % Total % Received % Xferd Average Speed Time Time Time Current Dload Upload Total Spent Left Speed 0 0 0 0 0 0 0 0 --:--:-- --:--:-- --:--:-- 0 100 430 100 430 0 0 3873 0 --:--:-- --:--:-- --:--:-- 3873 % Total % Received % Xferd Average Speed Time Time Time Current Dload Upload Total Spent Left Speed 0 0 0 0 0 0 0 0 --:--:-- --:--:-- --:--:-- 0 0 0 0 0 0 0 0 0 --:--:-- --:--:-- --:--:-- 0 100 430 100 430 0 0 2986 0 --:--:-- --:--:-- --:--:-- 2965 % Total % Received % Xferd Average Speed Time Time Time Current Dload Upload Total Spent Left Speed 0 0 0 0 0 0 0 0 --:--:-- --:--:-- --:--:-- 0 100 427 100 427 0 0 6469 0 --:--:-- --:--:-- --:--:-- 6469 % Total % Received % Xferd Average Speed Time Time Time Current Dload Upload Total Spent Left Speed 0 0 0 0 0 0 0 0 --:--:-- --:--:-- --:--:-- 0 100 425 100 425 0 0 3079 0 --:--:-- --:--:-- --:--:-- 3079 % Total % Received % Xferd Average Speed Time Time Time Current Dload Upload Total Spent Left Speed 0 0 0 0 0 0 0 0 --:--:-- --:--:-- --:--:-- 0 100 425 100 425 0 0 3695 0 --:--:-- --:--:-- --:--:-- 3695 % Total % Received % Xferd Average Speed Time Time Time Current Dload Upload Total Spent Left Speed 0 0 0 0 0 0 0 0 --:--:-- --:--:-- --:--:-- 0 100 431 100 431 0 0 3918 0 --:--:-- --:--:-- --:--:-- 3918 % Total % Received % Xferd Average Speed Time Time Time Current Dload Upload Total Spent Left Speed 0 0 0 0 0 0 0 0 --:--:-- --:--:-- --:--:-- 0 100 428 100 428 0 0 5558 0 --:--:-- --:--:-- --:--:-- 5558 % Total % Received % Xferd Average Speed Time Time Time Current Dload Upload Total Spent Left Speed 0 0 0 0 0 0 0 0 --:--:-- --:--:-- --:--:-- 0 100 427 100 427 0 0 2737 0 --:--:-- --:--:-- --:--:-- 2737 % Total % Received % Xferd Average Speed Time Time Time Current Dload Upload Total Spent Left Speed 0 0 0 0 0 0 0 0 --:--:-- --:--:-- --:--:-- 0 0 0 0 0 0 0 0 0 --:--:-- --:--:-- --:--:-- 0 100 427 100 427 0 0 1958 0 --:--:-- --:--:-- --:--:-- 1949 % Total % Received % Xferd Average Speed Time Time Time Current Dload Upload Total Spent Left Speed 0 0 0 0 0 0 0 0 --:--:-- --:--:-- --:--:-- 0 100 431 100 431 0 0 1334 0 --:--:-- --:--:-- --:--:-- 1334 % Total % Received % Xferd Average Speed Time Time Time Current Dload Upload Total Spent Left Speed 0 0 0 0 0 0 0 0 --:--:-- --:--:-- --:--:-- 0 100 428 100 428 0 0 3218 0 --:--:-- --:--:-- --:--:-- 3218 % Total % Received % Xferd Average Speed Time Time Time Current Dload Upload Total Spent Left Speed 0 0 0 0 0 0 0 0 --:--:-- --:--:-- --:--:-- 0 100 428 100 428 0 0 7642 0 --:--:-- --:--:-- --:--:-- 7508 100 428 100 428 0 0 7508 0 --:--:-- --:--:-- --:--:-- 7379 % Total % Received % Xferd Average Speed Time Time Time Current Dload Upload Total Spent Left Speed 0 0 0 0 0 0 0 0 --:--:-- --:--:-- --:--:-- 0 100 425 100 425 0 0 3320 0 --:--:-- --:--:-- --:--:-- 3320 % Total % Received % Xferd Average Speed Time Time Time Current Dload Upload Total Spent Left Speed 0 0 0 0 0 0 0 0 --:--:-- --:--:-- --:--:-- 0 100 431 100 431 0 0 6630 0 --:--:-- --:--:-- --:--:-- 6734 % Total % Received % Xferd Average Speed Time Time Time Current Dload Upload Total Spent Left Speed 0 0 0 0 0 0 0 0 --:--:-- --:--:-- --:--:-- 0 100 428 100 428 0 0 6388 0 --:--:-- --:--:-- --:--:-- 6388 % Total % Received % Xferd Average Speed Time Time Time Current Dload Upload Total Spent Left Speed 0 0 0 0 0 0 0 0 --:--:-- --:--:-- --:--:-- 0 100 428 100 428 0 0 4458 0 --:--:-- --:--:-- --:--:-- 4505 % Total % Received % Xferd Average Speed Time Time Time Current Dload Upload Total Spent Left Speed 0 0 0 0 0 0 0 0 --:--:-- --:--:-- --:--:-- 0 100 427 100 427 0 0 7237 0 --:--:-- --:--:-- --:--:-- 7237 % Total % Received % Xferd Average Speed Time Time Time Current Dload Upload Total Spent Left Speed 0 0 0 0 0 0 0 0 --:--:-- --:--:-- --:--:-- 0 100 431 100 431 0 0 9795 0 --:--:-- --:--:-- --:--:-- 10023 % Total % Received % Xferd Average Speed Time Time Time Current Dload Upload Total Spent Left Speed 0 0 0 0 0 0 0 0 --:--:-- --:--:-- --:--:-- 0 100 427 100 427 0 0 2737 0 --:--:-- --:--:-- --:--:-- 2737 % Total % Received % Xferd Average Speed Time Time Time Current Dload Upload Total Spent Left Speed 0 0 0 0 0 0 0 0 --:--:-- --:--:-- --:--:-- 0 100 427 100 427 0 0 3846 0 --:--:-- --:--:-- --:--:-- 3846 % Total % Received % Xferd Average Speed Time Time Time Current Dload Upload Total Spent Left Speed 0 0 0 0 0 0 0 0 --:--:-- --:--:-- --:--:-- 0 100 427 100 427 0 0 1708 0 --:--:-- --:--:-- --:--:-- 1714 % Total % Received % Xferd Average Speed Time Time Time Current Dload Upload Total Spent Left Speed 0 0 0 0 0 0 0 0 --:--:-- --:--:-- --:--:-- 0 100 431 100 431 0 0 2176 0 --:--:-- --:--:-- --:--:-- 2176 % Total % Received % Xferd Average Speed Time Time Time Current Dload Upload Total Spent Left Speed 0 0 0 0 0 0 0 0 --:--:-- --:--:-- --:--:-- 0 100 427 100 427 0 0 4744 0 --:--:-- --:--:-- --:--:-- 4744 % Total % Received % Xferd Average Speed Time Time Time Current Dload Upload Total Spent Left Speed 0 0 0 0 0 0 0 0 --:--:-- --:--:-- --:--:-- 0 100 427 100 427 0 0 2827 0 --:--:-- --:--:-- --:--:-- 2827 % Total % Received % Xferd Average Speed Time Time Time Current Dload Upload Total Spent Left Speed 0 0 0 0 0 0 0 0 --:--:-- --:--:-- --:--:-- 0 100 427 100 427 0 0 3588 0 --:--:-- --:--:-- --:--:-- 3588 % Total % Received % Xferd Average Speed Time Time Time Current Dload Upload Total Spent Left Speed 0 0 0 0 0 0 0 0 --:--:-- --:--:-- --:--:-- 0 100 431 100 431 0 0 1977 0 --:--:-- --:--:-- --:--:-- 1977 % Total % Received % Xferd Average Speed Time Time Time Current Dload Upload Total Spent Left Speed 0 0 0 0 0 0 0 0 --:--:-- --:--:-- --:--:-- 0 100 431 100 431 0 0 5192 0 --:--:-- --:--:-- --:--:-- 5192 % Total % Received % Xferd Average Speed Time Time Time Current Dload Upload Total Spent Left Speed 0 0 0 0 0 0 0 0 --:--:-- --:--:-- --:--:-- 0 100 430 100 430 0 0 5584 0 --:--:-- --:--:-- --:--:-- 5584 % Total % Received % Xferd Average Speed Time Time Time Current Dload Upload Total Spent Left Speed 0 0 0 0 0 0 0 0 --:--:-- --:--:-- --:--:-- 0 100 431 100 431 0 0 9795 0 --:--:-- --:--:-- --:--:-- 9795 % Total % Received % Xferd Average Speed Time Time Time Current Dload Upload Total Spent Left Speed 0 0 0 0 0 0 0 0 --:--:-- --:--:-- --:--:-- 0 0 0 0 0 0 0 0 0 --:--:-- --:--:-- --:--:-- 0 100 431 100 431 0 0 1190 0 --:--:-- --:--:-- --:--:-- 1190 % Total % Received % Xferd Average Speed Time Time Time Current Dload Upload Total Spent Left Speed 0 0 0 0 0 0 0 0 --:--:-- --:--:-- --:--:-- 0 100 431 100 431 0 0 1578 0 --:--:-- --:--:-- --:--:-- 1578 % Total % Received % Xferd Average Speed Time Time Time Current Dload Upload Total Spent Left Speed 0 0 0 0 0 0 0 0 --:--:-- --:--:-- --:--:-- 0 100 436 100 436 0 0 3488 0 --:--:-- --:--:-- --:--:-- 3488 % Total % Received % Xferd Average Speed Time Time Time Current Dload Upload Total Spent Left Speed 0 0 0 0 0 0 0 0 --:--:-- --:--:-- --:--:-- 0 100 436 100 436 0 0 3858 0 --:--:-- --:--:-- --:--:-- 3858 % Total % Received % Xferd Average Speed Time Time Time Current Dload Upload Total Spent Left Speed 0 0 0 0 0 0 0 0 --:--:-- --:--:-- --:--:-- 0 100 431 100 431 0 0 1657 0 --:--:-- --:--:-- --:--:-- 1657 % Total % Received % Xferd Average Speed Time Time Time Current Dload Upload Total Spent Left Speed 0 0 0 0 0 0 0 0 --:--:-- --:--:-- --:--:-- 0 100 433 100 433 0 0 4920 0 --:--:-- --:--:-- --:--:-- 4920 % Total % Received % Xferd Average Speed Time Time Time Current Dload Upload Total Spent Left Speed 0 0 0 0 0 0 0 0 --:--:-- --:--:-- --:--:-- 0 100 436 100 436 0 0 3114 0 --:--:-- --:--:-- --:--:-- 3114 % Total % Received % Xferd Average Speed Time Time Time Current Dload Upload Total Spent Left Speed 0 0 0 0 0 0 0 0 --:--:-- --:--:-- --:--:-- 0 100 436 100 436 0 0 3027 0 --:--:-- --:--:-- --:--:-- 3027 % Total % Received % Xferd Average Speed Time Time Time Current Dload Upload Total Spent Left Speed 0 0 0 0 0 0 0 0 --:--:-- --:--:-- --:--:-- 0 100 430 100 430 0 0 3028 0 --:--:-- --:--:-- --:--:-- 3028 % Total % Received % Xferd Average Speed Time Time Time Current Dload Upload Total Spent Left Speed 0 0 0 0 0 0 0 0 --:--:-- --:--:-- --:--:-- 0 100 430 100 430 0 0 2443 0 --:--:-- --:--:-- --:--:-- 2443 % Total % Received % Xferd Average Speed Time Time Time Current Dload Upload Total Spent Left Speed 0 0 0 0 0 0 0 0 --:--:-- --:--:-- --:--:-- 0 0 0 0 0 0 0 0 0 --:--:-- --:--:-- --:--:-- 0 100 430 100 430 0 0 1902 0 --:--:-- --:--:-- --:--:-- 1894 % Total % Received % Xferd Average Speed Time Time Time Current Dload Upload Total Spent Left Speed 0 0 0 0 0 0 0 0 --:--:-- --:--:-- --:--:-- 0 100 430 100 430 0 0 1699 0 --:--:-- --:--:-- --:--:-- 1699 % Total % Received % Xferd Average Speed Time Time Time Current Dload Upload Total Spent Left Speed 0 0 0 0 0 0 0 0 --:--:-- --:--:-- --:--:-- 0 100 428 100 428 0 0 3479 0 --:--:-- --:--:-- --:--:-- 3479 % Total % Received % Xferd Average Speed Time Time Time Current Dload Upload Total Spent Left Speed 0 0 0 0 0 0 0 0 --:--:-- --:--:-- --:--:-- 0 100 431 100 431 0 0 4684 0 --:--:-- --:--:-- --:--:-- 4684 % Total % Received % Xferd Average Speed Time Time Time Current Dload Upload Total Spent Left Speed 0 0 0 0 0 0 0 0 --:--:-- --:--:-- --:--:-- 0 100 429 100 429 0 0 5362 0 --:--:-- --:--:-- --:--:-- 5430 % Total % Received % Xferd Average Speed Time Time Time Current Dload Upload Total Spent Left Speed 0 0 0 0 0 0 0 0 --:--:-- --:--:-- --:--:-- 0 100 431 100 431 0 0 4310 0 --:--:-- --:--:-- --:--:-- 4310 % Total % Received % Xferd Average Speed Time Time Time Current Dload Upload Total Spent Left Speed 0 0 0 0 0 0 0 0 --:--:-- --:--:-- --:--:-- 0 100 431 100 431 0 0 1773 0 --:--:-- --:--:-- --:--:-- 1773 % Total % Received % Xferd Average Speed Time Time Time Current Dload Upload Total Spent Left Speed 0 0 0 0 0 0 0 0 --:--:-- --:--:-- --:--:-- 0 0 0 0 0 0 0 0 0 --:--:-- --:--:-- --:--:-- 0 100 431 100 431 0 0 1857 0 --:--:-- --:--:-- --:--:-- 1849 % Total % Received % Xferd Average Speed Time Time Time Current Dload Upload Total Spent Left Speed 0 0 0 0 0 0 0 0 --:--:-- --:--:-- --:--:-- 0 100 431 100 431 0 0 1780 0 --:--:-- --:--:-- --:--:-- 1780 % Total % Received % Xferd Average Speed Time Time Time Current Dload Upload Total Spent Left Speed 0 0 0 0 0 0 0 0 --:--:-- --:--:-- --:--:-- 0 100 431 100 431 0 0 3169 0 --:--:-- --:--:-- --:--:-- 3169 % Total % Received % Xferd Average Speed Time Time Time Current Dload Upload Total Spent Left Speed 0 0 0 0 0 0 0 0 --:--:-- --:--:-- --:--:-- 0 100 431 100 431 0 0 3504 0 --:--:-- --:--:-- --:--:-- 3504 % Total % Received % Xferd Average Speed Time Time Time Current Dload Upload Total Spent Left Speed 0 0 0 0 0 0 0 0 --:--:-- --:--:-- --:--:-- 0 100 428 100 428 0 0 3101 0 --:--:-- --:--:-- --:--:-- 3079 100 428 100 428 0 0 3079 0 --:--:-- --:--:-- --:--:-- 3057 % Total % Received % Xferd Average Speed Time Time Time Current Dload Upload Total Spent Left Speed 0 0 0 0 0 0 0 0 --:--:-- --:--:-- --:--:-- 0 100 432 100 432 0 0 3176 0 --:--:-- --:--:-- --:--:-- 3176 % Total % Received % Xferd Average Speed Time Time Time Current Dload Upload Total Spent Left Speed 0 0 0 0 0 0 0 0 --:--:-- --:--:-- --:--:-- 0 100 429 100 429 0 0 5231 0 --:--:-- --:--:-- --:--:-- 5231 % Total % Received % Xferd Average Speed Time Time Time Current Dload Upload Total Spent Left Speed 0 0 0 0 0 0 0 0 --:--:-- --:--:-- --:--:-- 0 100 430 100 430 0 0 1575 0 --:--:-- --:--:-- --:--:-- 1575 % Total % Received % Xferd Average Speed Time Time Time Current Dload Upload Total Spent Left Speed 0 0 0 0 0 0 0 0 --:--:-- --:--:-- --:--:-- 0 100 429 100 429 0 0 3274 0 --:--:-- --:--:-- --:--:-- 3250 100 429 100 429 0 0 3250 0 --:--:-- --:--:-- --:--:-- 3250 % Total % Received % Xferd Average Speed Time Time Time Current Dload Upload Total Spent Left Speed 0 0 0 0 0 0 0 0 --:--:-- --:--:-- --:--:-- 0 100 431 100 431 0 0 3265 0 --:--:-- --:--:-- --:--:-- 3265 % Total % Received % Xferd Average Speed Time Time Time Current Dload Upload Total Spent Left Speed 0 0 0 0 0 0 0 0 --:--:-- --:--:-- --:--:-- 0 100 428 100 428 0 0 4458 0 --:--:-- --:--:-- --:--:-- 4458 % Total % Received % Xferd Average Speed Time Time Time Current Dload Upload Total Spent Left Speed 0 0 0 0 0 0 0 0 --:--:-- --:--:-- --:--:-- 0 100 431 100 431 0 0 1359 0 --:--:-- --:--:-- --:--:-- 1359 % Total % Received % Xferd Average Speed Time Time Time Current Dload Upload Total Spent Left Speed 0 0 0 0 0 0 0 0 --:--:-- --:--:-- --:--:-- 0 100 428 100 428 0 0 7379 0 --:--:-- --:--:-- --:--:-- 7379 % Total % Received % Xferd Average Speed Time Time Time Current Dload Upload Total Spent Left Speed 0 0 0 0 0 0 0 0 --:--:-- --:--:-- --:--:-- 0 100 432 100 432 0 0 3130 0 --:--:-- --:--:-- --:--:-- 3130 % Total % Received % Xferd Average Speed Time Time Time Current Dload Upload Total Spent Left Speed 0 0 0 0 0 0 0 0 --:--:-- --:--:-- --:--:-- 0 100 432 100 432 0 0 2454 0 --:--:-- --:--:-- --:--:-- 2454 100 432 100 432 0 0 2454 0 --:--:-- --:--:-- --:--:-- 2440 % Total % Received % Xferd Average Speed Time Time Time Current Dload Upload Total Spent Left Speed 0 0 0 0 0 0 0 0 --:--:-- --:--:-- --:--:-- 0 100 436 100 436 0 0 6140 0 --:--:-- --:--:-- --:--:-- 6140 % Total % Received % Xferd Average Speed Time Time Time Current Dload Upload Total Spent Left Speed 0 0 0 0 0 0 0 0 --:--:-- --:--:-- --:--:-- 0 100 434 100 434 0 0 2552 0 --:--:-- --:--:-- --:--:-- 2538 100 434 100 434 0 0 2552 0 --:--:-- --:--:-- --:--:-- 2538 % Total % Received % Xferd Average Speed Time Time Time Current Dload Upload Total Spent Left Speed 0 0 0 0 0 0 0 0 --:--:-- --:--:-- --:--:-- 0 100 437 100 437 0 0 5905 0 --:--:-- --:--:-- --:--:-- 5905 % Total % Received % Xferd Average Speed Time Time Time Current Dload Upload Total Spent Left Speed 0 0 0 0 0 0 0 0 --:--:-- --:--:-- --:--:-- 0 100 436 100 436 0 0 2831 0 --:--:-- --:--:-- --:--:-- 2831 % Total % Received % Xferd Average Speed Time Time Time Current Dload Upload Total Spent Left Speed 0 0 0 0 0 0 0 0 --:--:-- --:--:-- --:--:-- 0 100 434 100 434 0 0 4133 0 --:--:-- --:--:-- --:--:-- 4133 % Total % Received % Xferd Average Speed Time Time Time Current Dload Upload Total Spent Left Speed 0 0 0 0 0 0 0 0 --:--:-- --:--:-- --:--:-- 0 100 433 100 433 0 0 1192 0 --:--:-- --:--:-- --:--:-- 1192 % Total % Received % Xferd Average Speed Time Time Time Current Dload Upload Total Spent Left Speed 0 0 0 0 0 0 0 0 --:--:-- --:--:-- --:--:-- 0 100 437 100 437 0 0 3672 0 --:--:-- --:--:-- --:--:-- 3672 % Total % Received % Xferd Average Speed Time Time Time Current Dload Upload Total Spent Left Speed 0 0 0 0 0 0 0 0 --:--:-- --:--:-- --:--:-- 0 100 434 100 434 0 0 3500 0 --:--:-- --:--:-- --:--:-- 3500 % Total % Received % Xferd Average Speed Time Time Time Current Dload Upload Total Spent Left Speed 0 0 0 0 0 0 0 0 --:--:-- --:--:-- --:--:-- 0 100 435 100 435 0 0 10609 0 --:--:-- --:--:-- --:--:-- 10875 % Total % Received % Xferd Average Speed Time Time Time Current Dload Upload Total Spent Left Speed 0 0 0 0 0 0 0 0 --:--:-- --:--:-- --:--:-- 0 100 435 100 435 0 0 3508 0 --:--:-- --:--:-- --:--:-- 3508 % Total % Received % Xferd Average Speed Time Time Time Current Dload Upload Total Spent Left Speed 0 0 0 0 0 0 0 0 --:--:-- --:--:-- --:--:-- 0 100 433 100 433 0 0 8326 0 --:--:-- --:--:-- --:--:-- 8326 % Total % Received % Xferd Average Speed Time Time Time Current Dload Upload Total Spent Left Speed 0 0 0 0 0 0 0 0 --:--:-- --:--:-- --:--:-- 0 100 432 100 432 0 0 3323 0 --:--:-- --:--:-- --:--:-- 3323 % Total % Received % Xferd Average Speed Time Time Time Current Dload Upload Total Spent Left Speed 0 0 0 0 0 0 0 0 --:--:-- --:--:-- --:--:-- 0 100 435 100 435 0 0 10875 0 --:--:-- --:--:-- --:--:-- 10875 % Total % Received % Xferd Average Speed Time Time Time Current Dload Upload Total Spent Left Speed 0 0 0 0 0 0 0 0 --:--:-- --:--:-- --:--:-- 0 100 434 100 434 0 0 3364 0 --:--:-- --:--:-- --:--:-- 3390 % Total % Received % Xferd Average Speed Time Time Time Current Dload Upload Total Spent Left Speed 0 0 0 0 0 0 0 0 --:--:-- --:--:-- --:--:-- 0 100 434 100 434 0 0 10093 0 --:--:-- --:--:-- --:--:-- 10093 100 434 100 434 0 0 10093 0 --:--:-- --:--:-- --:--:-- 9863 % Total % Received % Xferd Average Speed Time Time Time Current Dload Upload Total Spent Left Speed 0 0 0 0 0 0 0 0 --:--:-- --:--:-- --:--:-- 0 100 434 100 434 0 0 4988 0 --:--:-- --:--:-- --:--:-- 4988 % Total % Received % Xferd Average Speed Time Time Time Current Dload Upload Total Spent Left Speed 0 0 0 0 0 0 0 0 --:--:-- --:--:-- --:--:-- 0 100 435 100 435 0 0 1883 0 --:--:-- --:--:-- --:--:-- 1883 % Total % Received % Xferd Average Speed Time Time Time Current Dload Upload Total Spent Left Speed 0 0 0 0 0 0 0 0 --:--:-- --:--:-- --:--:-- 0 100 433 100 433 0 0 4163 0 --:--:-- --:--:-- --:--:-- 4123 100 433 100 433 0 0 4163 0 --:--:-- --:--:-- --:--:-- 4123 % Total % Received % Xferd Average Speed Time Time Time Current Dload Upload Total Spent Left Speed 0 0 0 0 0 0 0 0 --:--:-- --:--:-- --:--:-- 0 100 432 100 432 0 0 2347 0 --:--:-- --:--:-- --:--:-- 2347 % Total % Received % Xferd Average Speed Time Time Time Current Dload Upload Total Spent Left Speed 0 0 0 0 0 0 0 0 --:--:-- --:--:-- --:--:-- 0 100 435 100 435 0 0 3686 0 --:--:-- --:--:-- --:--:-- 3686 % Total % Received % Xferd Average Speed Time Time Time Current Dload Upload Total Spent Left Speed 0 0 0 0 0 0 0 0 --:--:-- --:--:-- --:--:-- 0 100 434 100 434 0 0 3167 0 --:--:-- --:--:-- --:--:-- 3144 100 434 100 434 0 0 3144 0 --:--:-- --:--:-- --:--:-- 3122 % Total % Received % Xferd Average Speed Time Time Time Current Dload Upload Total Spent Left Speed 0 0 0 0 0 0 0 0 --:--:-- --:--:-- --:--:-- 0 100 433 100 433 0 0 4330 0 --:--:-- --:--:-- --:--:-- 4330 % Total % Received % Xferd Average Speed Time Time Time Current Dload Upload Total Spent Left Speed 0 0 0 0 0 0 0 0 --:--:-- --:--:-- --:--:-- 0 100 434 100 434 0 0 9434 0 --:--:-- --:--:-- --:--:-- 9434 % Total % Received % Xferd Average Speed Time Time Time Current Dload Upload Total Spent Left Speed 0 0 0 0 0 0 0 0 --:--:-- --:--:-- --:--:-- 0 100 433 100 433 0 0 10309 0 --:--:-- --:--:-- --:--:-- 10309 % Total % Received % Xferd Average Speed Time Time Time Current Dload Upload Total Spent Left Speed 0 0 0 0 0 0 0 0 --:--:-- --:--:-- --:--:-- 0 100 434 100 434 0 0 8680 0 --:--:-- --:--:-- --:--:-- 8680 % Total % Received % Xferd Average Speed Time Time Time Current Dload Upload Total Spent Left Speed 0 0 0 0 0 0 0 0 --:--:-- --:--:-- --:--:-- 0 100 433 100 433 0 0 2209 0 --:--:-- --:--:-- --:--:-- 2197 100 433 100 433 0 0 2209 0 --:--:-- --:--:-- --:--:-- 2197 % Total % Received % Xferd Average Speed Time Time Time Current Dload Upload Total Spent Left Speed 0 0 0 0 0 0 0 0 --:--:-- --:--:-- --:--:-- 0 100 434 100 434 0 0 2568 0 --:--:-- --:--:-- --:--:-- 2568 % Total % Received % Xferd Average Speed Time Time Time Current Dload Upload Total Spent Left Speed 0 0 0 0 0 0 0 0 --:--:-- --:--:-- --:--:-- 0 100 431 100 431 0 0 6630 0 --:--:-- --:--:-- --:--:-- 6630 % Total % Received % Xferd Average Speed Time Time Time Current Dload Upload Total Spent Left Speed 0 0 0 0 0 0 0 0 --:--:-- --:--:-- --:--:-- 0 100 433 100 433 0 0 8169 0 --:--:-- --:--:-- --:--:-- 8169 % Total % Received % Xferd Average Speed Time Time Time Current Dload Upload Total Spent Left Speed 0 0 0 0 0 0 0 0 --:--:-- --:--:-- --:--:-- 0 100 434 100 434 0 0 3500 0 --:--:-- --:--:-- --:--:-- 3500 % Total % Received % Xferd Average Speed Time Time Time Current Dload Upload Total Spent Left Speed 0 0 0 0 0 0 0 0 --:--:-- --:--:-- --:--:-- 0 100 432 100 432 0 0 10046 0 --:--:-- --:--:-- --:--:-- 10046 % Total % Received % Xferd Average Speed Time Time Time Current Dload Upload Total Spent Left Speed 0 0 0 0 0 0 0 0 --:--:-- --:--:-- --:--:-- 0 100 432 100 432 0 0 5468 0 --:--:-- --:--:-- --:--:-- 5468 % Total % Received % Xferd Average Speed Time Time Time Current Dload Upload Total Spent Left Speed 0 0 0 0 0 0 0 0 --:--:-- --:--:-- --:--:-- 0 100 434 100 434 0 0 7355 0 --:--:-- --:--:-- --:--:-- 7355 % Total % Received % Xferd Average Speed Time Time Time Current Dload Upload Total Spent Left Speed 0 0 0 0 0 0 0 0 --:--:-- --:--:-- --:--:-- 0 100 434 100 434 0 0 10585 0 --:--:-- --:--:-- --:--:-- 10585 % Total % Received % Xferd Average Speed Time Time Time Current Dload Upload Total Spent Left Speed 0 0 0 0 0 0 0 0 --:--:-- --:--:-- --:--:-- 0 100 435 100 435 0 0 9886 0 --:--:-- --:--:-- --:--:-- 9886 % Total % Received % Xferd Average Speed Time Time Time Current Dload Upload Total Spent Left Speed 0 0 0 0 0 0 0 0 --:--:-- --:--:-- --:--:-- 0 100 435 100 435 0 0 7767 0 --:--:-- --:--:-- --:--:-- 7767 % Total % Received % Xferd Average Speed Time Time Time Current Dload Upload Total Spent Left Speed 0 0 0 0 0 0 0 0 --:--:-- --:--:-- --:--:-- 0 100 434 100 434 0 0 2800 0 --:--:-- --:--:-- --:--:-- 2800 % Total % Received % Xferd Average Speed Time Time Time Current Dload Upload Total Spent Left Speed 0 0 0 0 0 0 0 0 --:--:-- --:--:-- --:--:-- 0 100 434 100 434 0 0 4297 0 --:--:-- --:--:-- --:--:-- 4297 % Total % Received % Xferd Average Speed Time Time Time Current Dload Upload Total Spent Left Speed 0 0 0 0 0 0 0 0 --:--:-- --:--:-- --:--:-- 0 100 435 100 435 0 0 9666 0 --:--:-- --:--:-- --:--:-- 9886 % Total % Received % Xferd Average Speed Time Time Time Current Dload Upload Total Spent Left Speed 0 0 0 0 0 0 0 0 --:--:-- --:--:-- --:--:-- 0 100 435 100 435 0 0 2277 0 --:--:-- --:--:-- --:--:-- 2265 100 435 100 435 0 0 2277 0 --:--:-- --:--:-- --:--:-- 2265 % Total % Received % Xferd Average Speed Time Time Time Current Dload Upload Total Spent Left Speed 0 0 0 0 0 0 0 0 --:--:-- --:--:-- --:--:-- 0 100 431 100 431 0 0 2462 0 --:--:-- --:--:-- --:--:-- 2448 100 431 100 431 0 0 2462 0 --:--:-- --:--:-- --:--:-- 2448 % Total % Received % Xferd Average Speed Time Time Time Current Dload Upload Total Spent Left Speed 0 0 0 0 0 0 0 0 --:--:-- --:--:-- --:--:-- 0 100 436 100 436 0 0 4791 0 --:--:-- --:--:-- --:--:-- 4791 % Total % Received % Xferd Average Speed Time Time Time Current Dload Upload Total Spent Left Speed 0 0 0 0 0 0 0 0 --:--:-- --:--:-- --:--:-- 0 100 436 100 436 0 0 3694 0 --:--:-- --:--:-- --:--:-- 4404 % Total % Received % Xferd Average Speed Time Time Time Current Dload Upload Total Spent Left Speed 0 0 0 0 0 0 0 0 --:--:-- --:--:-- --:--:-- 0 100 435 100 435 0 0 7500 0 --:--:-- --:--:-- --:--:-- 7500 % Total % Received % Xferd Average Speed Time Time Time Current Dload Upload Total Spent Left Speed 0 0 0 0 0 0 0 0 --:--:-- --:--:-- --:--:-- 0 100 435 100 435 0 0 1827 0 --:--:-- --:--:-- --:--:-- 1827 % Total % Received % Xferd Average Speed Time Time Time Current Dload Upload Total Spent Left Speed 0 0 0 0 0 0 0 0 --:--:-- --:--:-- --:--:-- 0 100 432 100 432 0 0 4695 0 --:--:-- --:--:-- --:--:-- 4695 % Total % Received % Xferd Average Speed Time Time Time Current Dload Upload Total Spent Left Speed 0 0 0 0 0 0 0 0 --:--:-- --:--:-- --:--:-- 0 100 432 100 432 0 0 7200 0 --:--:-- --:--:-- --:--:-- 7200 % Total % Received % Xferd Average Speed Time Time Time Current Dload Upload Total Spent Left Speed 0 0 0 0 0 0 0 0 --:--:-- --:--:-- --:--:-- 0 100 436 100 436 0 0 7649 0 --:--:-- --:--:-- --:--:-- 7649 % Total % Received % Xferd Average Speed Time Time Time Current Dload Upload Total Spent Left Speed 0 0 0 0 0 0 0 0 --:--:-- --:--:-- --:--:-- 0 100 430 100 430 0 0 4300 0 --:--:-- --:--:-- --:--:-- 4300 % Total % Received % Xferd Average Speed Time Time Time Current Dload Upload Total Spent Left Speed 0 0 0 0 0 0 0 0 --:--:-- --:--:-- --:--:-- 0 100 431 100 431 0 0 3013 0 --:--:-- --:--:-- --:--:-- 3013 % Total % Received % Xferd Average Speed Time Time Time Current Dload Upload Total Spent Left Speed 0 0 0 0 0 0 0 0 --:--:-- --:--:-- --:--:-- 0 100 430 100 430 0 0 6142 0 --:--:-- --:--:-- --:--:-- 6142 % Total % Received % Xferd Average Speed Time Time Time Current Dload Upload Total Spent Left Speed 0 0 0 0 0 0 0 0 --:--:-- --:--:-- --:--:-- 0 100 430 100 430 0 0 3675 0 --:--:-- --:--:-- --:--:-- 3644 100 430 100 430 0 0 3675 0 --:--:-- --:--:-- --:--:-- 3644 % Total % Received % Xferd Average Speed Time Time Time Current Dload Upload Total Spent Left Speed 0 0 0 0 0 0 0 0 --:--:-- --:--:-- --:--:-- 0 100 429 100 429 0 0 2938 0 --:--:-- --:--:-- --:--:-- 2938 % Total % Received % Xferd Average Speed Time Time Time Current Dload Upload Total Spent Left Speed 0 0 0 0 0 0 0 0 --:--:-- --:--:-- --:--:-- 0 100 431 100 431 0 0 2407 0 --:--:-- --:--:-- --:--:-- 2407 % Total % Received % Xferd Average Speed Time Time Time Current Dload Upload Total Spent Left Speed 0 0 0 0 0 0 0 0 --:--:-- --:--:-- --:--:-- 0 100 431 100 431 0 0 5320 0 --:--:-- --:--:-- --:--:-- 5320 % Total % Received % Xferd Average Speed Time Time Time Current Dload Upload Total Spent Left Speed 0 0 0 0 0 0 0 0 --:--:-- --:--:-- --:--:-- 0 100 430 100 430 0 0 1936 0 --:--:-- --:--:-- --:--:-- 1936 % Total % Received % Xferd Average Speed Time Time Time Current Dload Upload Total Spent Left Speed 0 0 0 0 0 0 0 0 --:--:-- --:--:-- --:--:-- 0 100 430 100 430 0 0 3613 0 --:--:-- --:--:-- --:--:-- 3613 % Total % Received % Xferd Average Speed Time Time Time Current Dload Upload Total Spent Left Speed 0 0 0 0 0 0 0 0 --:--:-- --:--:-- --:--:-- 0 100 431 100 431 0 0 1539 0 --:--:-- --:--:-- --:--:-- 1539 % Total % Received % Xferd Average Speed Time Time Time Current Dload Upload Total Spent Left Speed 0 0 0 0 0 0 0 0 --:--:-- --:--:-- --:--:-- 0 100 428 100 428 0 0 3855 0 --:--:-- --:--:-- --:--:-- 3855 % Total % Received % Xferd Average Speed Time Time Time Current Dload Upload Total Spent Left Speed 0 0 0 0 0 0 0 0 --:--:-- --:--:-- --:--:-- 0 100 431 100 431 0 0 2421 0 --:--:-- --:--:-- --:--:-- 2421 % Total % Received % Xferd Average Speed Time Time Time Current Dload Upload Total Spent Left Speed 0 0 0 0 0 0 0 0 --:--:-- --:--:-- --:--:-- 0 100 431 100 431 0 0 6070 0 --:--:-- --:--:-- --:--:-- 6070 % Total % Received % Xferd Average Speed Time Time Time Current Dload Upload Total Spent Left Speed 0 0 0 0 0 0 0 0 --:--:-- --:--:-- --:--:-- 0 100 430 100 430 0 0 10238 0 --:--:-- --:--:-- --:--:-- 10238 % Total % Received % Xferd Average Speed Time Time Time Current Dload Upload Total Spent Left Speed 0 0 0 0 0 0 0 0 --:--:-- --:--:-- --:--:-- 0 100 431 100 431 0 0 4634 0 --:--:-- --:--:-- --:--:-- 4634 % Total % Received % Xferd Average Speed Time Time Time Current Dload Upload Total Spent Left Speed 0 0 0 0 0 0 0 0 --:--:-- --:--:-- --:--:-- 0 100 430 100 430 0 0 10750 0 --:--:-- --:--:-- --:--:-- 10487 100 430 100 430 0 0 10487 0 --:--:-- --:--:-- --:--:-- 10487 % Total % Received % Xferd Average Speed Time Time Time Current Dload Upload Total Spent Left Speed 0 0 0 0 0 0 0 0 --:--:-- --:--:-- --:--:-- 0 100 431 100 431 0 0 2292 0 --:--:-- --:--:-- --:--:-- 2292 % Total % Received % Xferd Average Speed Time Time Time Current Dload Upload Total Spent Left Speed 0 0 0 0 0 0 0 0 --:--:-- --:--:-- --:--:-- 0 100 431 100 431 0 0 2210 0 --:--:-- --:--:-- --:--:-- 2210 % Total % Received % Xferd Average Speed Time Time Time Current Dload Upload Total Spent Left Speed 0 0 0 0 0 0 0 0 --:--:-- --:--:-- --:--:-- 0 100 430 100 430 0 0 3115 0 --:--:-- --:--:-- --:--:-- 3138 % Total % Received % Xferd Average Speed Time Time Time Current Dload Upload Total Spent Left Speed 0 0 0 0 0 0 0 0 --:--:-- --:--:-- --:--:-- 0 100 430 100 430 0 0 7678 0 --:--:-- --:--:-- --:--:-- 7543 100 430 100 430 0 0 7543 0 --:--:-- --:--:-- --:--:-- 7413 % Total % Received % Xferd Average Speed Time Time Time Current Dload Upload Total Spent Left Speed 0 0 0 0 0 0 0 0 --:--:-- --:--:-- --:--:-- 0 100 429 100 429 0 0 7032 0 --:--:-- --:--:-- --:--:-- 7032 % Total % Received % Xferd Average Speed Time Time Time Current Dload Upload Total Spent Left Speed 0 0 0 0 0 0 0 0 --:--:-- --:--:-- --:--:-- 0 100 431 100 431 0 0 3882 0 --:--:-- --:--:-- --:--:-- 3882 % Total % Received % Xferd Average Speed Time Time Time Current Dload Upload Total Spent Left Speed 0 0 0 0 0 0 0 0 --:--:-- --:--:-- --:--:-- 0 100 431 100 431 0 0 10023 0 --:--:-- --:--:-- --:--:-- 9795 100 431 100 431 0 0 10023 0 --:--:-- --:--:-- --:--:-- 9795 % Total % Received % Xferd Average Speed Time Time Time Current Dload Upload Total Spent Left Speed 0 0 0 0 0 0 0 0 --:--:-- --:--:-- --:--:-- 0 100 431 100 431 0 0 3240 0 --:--:-- --:--:-- --:--:-- 3240 % Total % Received % Xferd Average Speed Time Time Time Current Dload Upload Total Spent Left Speed 0 0 0 0 0 0 0 0 --:--:-- --:--:-- --:--:-- 0 100 428 100 428 0 0 4553 0 --:--:-- --:--:-- --:--:-- 4553 % Total % Received % Xferd Average Speed Time Time Time Current Dload Upload Total Spent Left Speed 0 0 0 0 0 0 0 0 --:--:-- --:--:-- --:--:-- 0 100 431 100 431 0 0 4684 0 --:--:-- --:--:-- --:--:-- 4684 % Total % Received % Xferd Average Speed Time Time Time Current Dload Upload Total Spent Left Speed 0 0 0 0 0 0 0 0 --:--:-- --:--:-- --:--:-- 0 100 426 100 426 0 0 2802 0 --:--:-- --:--:-- --:--:-- 2784 100 426 100 426 0 0 2802 0 --:--:-- --:--:-- --:--:-- 2784 % Total % Received % Xferd Average Speed Time Time Time Current Dload Upload Total Spent Left Speed 0 0 0 0 0 0 0 0 --:--:-- --:--:-- --:--:-- 0 100 430 100 430 0 0 2311 0 --:--:-- --:--:-- --:--:-- 2311 % Total % Received % Xferd Average Speed Time Time Time Current Dload Upload Total Spent Left Speed 0 0 0 0 0 0 0 0 --:--:-- --:--:-- --:--:-- 0 100 430 100 430 0 0 5972 0 --:--:-- --:--:-- --:--:-- 5972 % Total % Received % Xferd Average Speed Time Time Time Current Dload Upload Total Spent Left Speed 0 0 0 0 0 0 0 0 --:--:-- --:--:-- --:--:-- 0 100 429 100 429 0 0 4820 0 --:--:-- --:--:-- --:--:-- 4820 % Total % Received % Xferd Average Speed Time Time Time Current Dload Upload Total Spent Left Speed 0 0 0 0 0 0 0 0 --:--:-- --:--:-- --:--:-- 0 0 0 0 0 0 0 0 0 --:--:-- --:--:-- --:--:-- 0 100 430 100 430 0 0 3233 0 --:--:-- --:--:-- --:--:-- 3208 % Total % Received % Xferd Average Speed Time Time Time Current Dload Upload Total Spent Left Speed 0 0 0 0 0 0 0 0 --:--:-- --:--:-- --:--:-- 0 100 430 100 430 0 0 3233 0 --:--:-- --:--:-- --:--:-- 3233 % Total % Received % Xferd Average Speed Time Time Time Current Dload Upload Total Spent Left Speed 0 0 0 0 0 0 0 0 --:--:-- --:--:-- --:--:-- 0 100 430 100 430 0 0 2866 0 --:--:-- --:--:-- --:--:-- 2866 % Total % Received % Xferd Average Speed Time Time Time Current Dload Upload Total Spent Left Speed 0 0 0 0 0 0 0 0 --:--:-- --:--:-- --:--:-- 0 0 0 0 0 0 0 0 0 --:--:-- --:--:-- --:--:-- 0 100 429 100 429 0 0 1577 0 --:--:-- --:--:-- --:--:-- 1571 % Total % Received % Xferd Average Speed Time Time Time Current Dload Upload Total Spent Left Speed 0 0 0 0 0 0 0 0 --:--:-- --:--:-- --:--:-- 0 100 434 100 434 0 0 7890 0 --:--:-- --:--:-- --:--:-- 7890 % Total % Received % Xferd Average Speed Time Time Time Current Dload Upload Total Spent Left Speed 0 0 0 0 0 0 0 0 --:--:-- --:--:-- --:--:-- 0 100 434 100 434 0 0 7482 0 --:--:-- --:--:-- --:--:-- 7482 % Total % Received % Xferd Average Speed Time Time Time Current Dload Upload Total Spent Left Speed 0 0 0 0 0 0 0 0 --:--:-- --:--:-- --:--:-- 0 100 429 100 429 0 0 3698 0 --:--:-- --:--:-- --:--:-- 3698 % Total % Received % Xferd Average Speed Time Time Time Current Dload Upload Total Spent Left Speed 0 0 0 0 0 0 0 0 --:--:-- --:--:-- --:--:-- 0 100 431 100 431 0 0 9170 0 --:--:-- --:--:-- --:--:-- 9170 % Total % Received % Xferd Average Speed Time Time Time Current Dload Upload Total Spent Left Speed 0 0 0 0 0 0 0 0 --:--:-- --:--:-- --:--:-- 0 100 431 100 431 0 0 1977 0 --:--:-- --:--:-- --:--:-- 1977 % Total % Received % Xferd Average Speed Time Time Time Current Dload Upload Total Spent Left Speed 0 0 0 0 0 0 0 0 --:--:-- --:--:-- --:--:-- 0 100 430 100 430 0 0 4257 0 --:--:-- --:--:-- --:--:-- 4300 % Total % Received % Xferd Average Speed Time Time Time Current Dload Upload Total Spent Left Speed 0 0 0 0 0 0 0 0 --:--:-- --:--:-- --:--:-- 0 100 431 100 431 0 0 3216 0 --:--:-- --:--:-- --:--:-- 3240 % Total % Received % Xferd Average Speed Time Time Time Current Dload Upload Total Spent Left Speed 0 0 0 0 0 0 0 0 --:--:-- --:--:-- --:--:-- 0 100 430 100 430 0 0 5512 0 --:--:-- --:--:-- --:--:-- 5512 % Total % Received % Xferd Average Speed Time Time Time Current Dload Upload Total Spent Left Speed 0 0 0 0 0 0 0 0 --:--:-- --:--:-- --:--:-- 0 100 429 100 429 0 0 2331 0 --:--:-- --:--:-- --:--:-- 2331 % Total % Received % Xferd Average Speed Time Time Time Current Dload Upload Total Spent Left Speed 0 0 0 0 0 0 0 0 --:--:-- --:--:-- --:--:-- 0 100 429 100 429 0 0 4515 0 --:--:-- --:--:-- --:--:-- 4515 % Total % Received % Xferd Average Speed Time Time Time Current Dload Upload Total Spent Left Speed 0 0 0 0 0 0 0 0 --:--:-- --:--:-- --:--:-- 0 100 430 100 430 0 0 2945 0 --:--:-- --:--:-- --:--:-- 2945 % Total % Received % Xferd Average Speed Time Time Time Current Dload Upload Total Spent Left Speed 0 0 0 0 0 0 0 0 --:--:-- --:--:-- --:--:-- 0 100 431 100 431 0 0 3216 0 --:--:-- --:--:-- --:--:-- 3216 % Total % Received % Xferd Average Speed Time Time Time Current Dload Upload Total Spent Left Speed 0 0 0 0 0 0 0 0 --:--:-- --:--:-- --:--:-- 0 100 427 100 427 0 0 7907 0 --:--:-- --:--:-- --:--:-- 7907 % Total % Received % Xferd Average Speed Time Time Time Current Dload Upload Total Spent Left Speed 0 0 0 0 0 0 0 0 --:--:-- --:--:-- --:--:-- 0 100 431 100 431 0 0 5525 0 --:--:-- --:--:-- --:--:-- 5597 % Total % Received % Xferd Average Speed Time Time Time Current Dload Upload Total Spent Left Speed 0 0 0 0 0 0 0 0 --:--:-- --:--:-- --:--:-- 0 100 431 100 431 0 0 833 0 --:--:-- --:--:-- --:--:-- 833 % Total % Received % Xferd Average Speed Time Time Time Current Dload Upload Total Spent Left Speed 0 0 0 0 0 0 0 0 --:--:-- --:--:-- --:--:-- 0 100 427 100 427 0 0 6188 0 --:--:-- --:--:-- --:--:-- 6188 % Total % Received % Xferd Average Speed Time Time Time Current Dload Upload Total Spent Left Speed 0 0 0 0 0 0 0 0 --:--:-- --:--:-- --:--:-- 0 0 0 0 0 0 0 0 0 --:--:-- --:--:-- --:--:-- 0 100 431 100 431 0 0 2033 0 --:--:-- --:--:-- --:--:-- 2023 % Total % Received % Xferd Average Speed Time Time Time Current Dload Upload Total Spent Left Speed 0 0 0 0 0 0 0 0 --:--:-- --:--:-- --:--:-- 0 100 431 100 431 0 0 3780 0 --:--:-- --:--:-- --:--:-- 3780 % Total % Received % Xferd Average Speed Time Time Time Current Dload Upload Total Spent Left Speed 0 0 0 0 0 0 0 0 --:--:-- --:--:-- --:--:-- 0 100 431 100 431 0 0 1522 0 --:--:-- --:--:-- --:--:-- 1522 % Total % Received % Xferd Average Speed Time Time Time Current Dload Upload Total Spent Left Speed 0 0 0 0 0 0 0 0 --:--:-- --:--:-- --:--:-- 0 100 431 100 431 0 0 4225 0 --:--:-- --:--:-- --:--:-- 4225 % Total % Received % Xferd Average Speed Time Time Time Current Dload Upload Total Spent Left Speed 0 0 0 0 0 0 0 0 --:--:-- --:--:-- --:--:-- 0 100 425 100 425 0 0 11184 0 --:--:-- --:--:-- --:--:-- 11184 % Total % Received % Xferd Average Speed Time Time Time Current Dload Upload Total Spent Left Speed 0 0 0 0 0 0 0 0 --:--:-- --:--:-- --:--:-- 0 100 430 100 430 0 0 3613 0 --:--:-- --:--:-- --:--:-- 3583 100 430 100 430 0 0 3613 0 --:--:-- --:--:-- --:--:-- 3583 % Total % Received % Xferd Average Speed Time Time Time Current Dload Upload Total Spent Left Speed 0 0 0 0 0 0 0 0 --:--:-- --:--:-- --:--:-- 0 100 431 100 431 0 0 3367 0 --:--:-- --:--:-- --:--:-- 3367 % Total % Received % Xferd Average Speed Time Time Time Current Dload Upload Total Spent Left Speed 0 0 0 0 0 0 0 0 --:--:-- --:--:-- --:--:-- 0 0 0 0 0 0 0 0 0 --:--:-- --:--:-- --:--:-- 0 100 431 100 431 0 0 951 0 --:--:-- --:--:-- --:--:-- 951 % Total % Received % Xferd Average Speed Time Time Time Current Dload Upload Total Spent Left Speed 0 0 0 0 0 0 0 0 --:--:-- --:--:-- --:--:-- 0 100 430 100 430 0 0 2574 0 --:--:-- --:--:-- --:--:-- 2574 % Total % Received % Xferd Average Speed Time Time Time Current Dload Upload Total Spent Left Speed 0 0 0 0 0 0 0 0 --:--:-- --:--:-- --:--:-- 0 100 431 100 431 0 0 8132 0 --:--:-- --:--:-- --:--:-- 8288 % Total % Received % Xferd Average Speed Time Time Time Current Dload Upload Total Spent Left Speed 0 0 0 0 0 0 0 0 --:--:-- --:--:-- --:--:-- 0 100 431 100 431 0 0 2421 0 --:--:-- --:--:-- --:--:-- 2421 % Total % Received % Xferd Average Speed Time Time Time Current Dload Upload Total Spent Left Speed 0 0 0 0 0 0 0 0 --:--:-- --:--:-- --:--:-- 0 100 430 100 430 0 0 4387 0 --:--:-- --:--:-- --:--:-- 4387 % Total % Received % Xferd Average Speed Time Time Time Current Dload Upload Total Spent Left Speed 0 0 0 0 0 0 0 0 --:--:-- --:--:-- --:--:-- 0 100 430 100 430 0 0 2885 0 --:--:-- --:--:-- --:--:-- 2885 % Total % Received % Xferd Average Speed Time Time Time Current Dload Upload Total Spent Left Speed 0 0 0 0 0 0 0 0 --:--:-- --:--:-- --:--:-- 0 100 430 100 430 0 0 10750 0 --:--:-- --:--:-- --:--:-- 10750 % Total % Received % Xferd Average Speed Time Time Time Current Dload Upload Total Spent Left Speed 0 0 0 0 0 0 0 0 --:--:-- --:--:-- --:--:-- 0 100 431 100 431 0 0 4585 0 --:--:-- --:--:-- --:--:-- 4585 % Total % Received % Xferd Average Speed Time Time Time Current Dload Upload Total Spent Left Speed 0 0 0 0 0 0 0 0 --:--:-- --:--:-- --:--:-- 0 100 430 100 430 0 0 2182 0 --:--:-- --:--:-- --:--:-- 2182 % Total % Received % Xferd Average Speed Time Time Time Current Dload Upload Total Spent Left Speed 0 0 0 0 0 0 0 0 --:--:-- --:--:-- --:--:-- 0 100 430 100 430 0 0 4479 0 --:--:-- --:--:-- --:--:-- 4432 100 430 100 430 0 0 4479 0 --:--:-- --:--:-- --:--:-- 4432 % Total % Received % Xferd Average Speed Time Time Time Current Dload Upload Total Spent Left Speed 0 0 0 0 0 0 0 0 --:--:-- --:--:-- --:--:-- 0 100 430 100 430 0 0 2275 0 --:--:-- --:--:-- --:--:-- 2275 % Total % Received % Xferd Average Speed Time Time Time Current Dload Upload Total Spent Left Speed 0 0 0 0 0 0 0 0 --:--:-- --:--:-- --:--:-- 0 100 431 100 431 0 0 4184 0 --:--:-- --:--:-- --:--:-- 4144 100 431 100 431 0 0 4184 0 --:--:-- --:--:-- --:--:-- 4144 % Total % Received % Xferd Average Speed Time Time Time Current Dload Upload Total Spent Left Speed 0 0 0 0 0 0 0 0 --:--:-- --:--:-- --:--:-- 0 100 431 100 431 0 0 3814 0 --:--:-- --:--:-- --:--:-- 3814 % Total % Received % Xferd Average Speed Time Time Time Current Dload Upload Total Spent Left Speed 0 0 0 0 0 0 0 0 --:--:-- --:--:-- --:--:-- 0 100 431 100 431 0 0 11051 0 --:--:-- --:--:-- --:--:-- 11051 % Total % Received % Xferd Average Speed Time Time Time Current Dload Upload Total Spent Left Speed 0 0 0 0 0 0 0 0 --:--:-- --:--:-- --:--:-- 0 100 429 100 429 0 0 1802 0 --:--:-- --:--:-- --:--:-- 1802 % Total % Received % Xferd Average Speed Time Time Time Current Dload Upload Total Spent Left Speed 0 0 0 0 0 0 0 0 --:--:-- --:--:-- --:--:-- 0 100 431 100 431 0 0 2462 0 --:--:-- --:--:-- --:--:-- 2462 % Total % Received % Xferd Average Speed Time Time Time Current Dload Upload Total Spent Left Speed 0 0 0 0 0 0 0 0 --:--:-- --:--:-- --:--:-- 0 100 430 100 430 0 0 3467 0 --:--:-- --:--:-- --:--:-- 3467 % Total % Received % Xferd Average Speed Time Time Time Current Dload Upload Total Spent Left Speed 0 0 0 0 0 0 0 0 --:--:-- --:--:-- --:--:-- 0 100 431 100 431 0 0 481 0 --:--:-- --:--:-- --:--:-- 481 100 431 100 431 0 0 481 0 --:--:-- --:--:-- --:--:-- 480 % Total % Received % Xferd Average Speed Time Time Time Current Dload Upload Total Spent Left Speed 0 0 0 0 0 0 0 0 --:--:-- --:--:-- --:--:-- 0 100 431 100 431 0 0 2072 0 --:--:-- --:--:-- --:--:-- 2072 % Total % Received % Xferd Average Speed Time Time Time Current Dload Upload Total Spent Left Speed 0 0 0 0 0 0 0 0 --:--:-- --:--:-- --:--:-- 0 100 431 100 431 0 0 4634 0 --:--:-- --:--:-- --:--:-- 4634 % Total % Received % Xferd Average Speed Time Time Time Current Dload Upload Total Spent Left Speed 0 0 0 0 0 0 0 0 --:--:-- --:--:-- --:--:-- 0 100 431 100 431 0 0 4536 0 --:--:-- --:--:-- --:--:-- 4536 % Total % Received % Xferd Average Speed Time Time Time Current Dload Upload Total Spent Left Speed 0 0 0 0 0 0 0 0 --:--:-- --:--:-- --:--:-- 0 100 432 100 432 0 0 4909 0 --:--:-- --:--:-- --:--:-- 4909 % Total % Received % Xferd Average Speed Time Time Time Current Dload Upload Total Spent Left Speed 0 0 0 0 0 0 0 0 --:--:-- --:--:-- --:--:-- 0 100 432 100 432 0 0 3857 0 --:--:-- --:--:-- --:--:-- 3857 % Total % Received % Xferd Average Speed Time Time Time Current Dload Upload Total Spent Left Speed 0 0 0 0 0 0 0 0 --:--:-- --:--:-- --:--:-- 0 100 431 100 431 0 0 3715 0 --:--:-- --:--:-- --:--:-- 3715 % Total % Received % Xferd Average Speed Time Time Time Current Dload Upload Total Spent Left Speed 0 0 0 0 0 0 0 0 --:--:-- --:--:-- --:--:-- 0 100 431 100 431 0 0 10023 0 --:--:-- --:--:-- --:--:-- 10261 % Total % Received % Xferd Average Speed Time Time Time Current Dload Upload Total Spent Left Speed 0 0 0 0 0 0 0 0 --:--:-- --:--:-- --:--:-- 0 100 430 100 430 0 0 4095 0 --:--:-- --:--:-- --:--:-- 4095 % Total % Received % Xferd Average Speed Time Time Time Current Dload Upload Total Spent Left Speed 0 0 0 0 0 0 0 0 --:--:-- --:--:-- --:--:-- 0 100 431 100 431 0 0 6630 0 --:--:-- --:--:-- --:--:-- 6630 % Total % Received % Xferd Average Speed Time Time Time Current Dload Upload Total Spent Left Speed 0 0 0 0 0 0 0 0 --:--:-- --:--:-- --:--:-- 0 100 432 100 432 0 0 2066 0 --:--:-- --:--:-- --:--:-- 2066 % Total % Received % Xferd Average Speed Time Time Time Current Dload Upload Total Spent Left Speed 0 0 0 0 0 0 0 0 --:--:-- --:--:-- --:--:-- 0 100 432 100 432 0 0 3020 0 --:--:-- --:--:-- --:--:-- 3020 % Total % Received % Xferd Average Speed Time Time Time Current Dload Upload Total Spent Left Speed 0 0 0 0 0 0 0 0 --:--:-- --:--:-- --:--:-- 0 100 432 100 432 0 0 3020 0 --:--:-- --:--:-- --:--:-- 3020 % Total % Received % Xferd Average Speed Time Time Time Current Dload Upload Total Spent Left Speed 0 0 0 0 0 0 0 0 --:--:-- --:--:-- --:--:-- 0 100 432 100 432 0 0 4747 0 --:--:-- --:--:-- --:--:-- 4747 % Total % Received % Xferd Average Speed Time Time Time Current Dload Upload Total Spent Left Speed 0 0 0 0 0 0 0 0 --:--:-- --:--:-- --:--:-- 0 100 431 100 431 0 0 2952 0 --:--:-- --:--:-- --:--:-- 2952 % Total % Received % Xferd Average Speed Time Time Time Current Dload Upload Total Spent Left Speed 0 0 0 0 0 0 0 0 --:--:-- --:--:-- --:--:-- 0 100 432 100 432 0 0 2238 0 --:--:-- --:--:-- --:--:-- 2238 % Total % Received % Xferd Average Speed Time Time Time Current Dload Upload Total Spent Left Speed 0 0 0 0 0 0 0 0 --:--:-- --:--:-- --:--:-- 0 100 432 100 432 0 0 2117 0 --:--:-- --:--:-- --:--:-- 2117 % Total % Received % Xferd Average Speed Time Time Time Current Dload Upload Total Spent Left Speed 0 0 0 0 0 0 0 0 --:--:-- --:--:-- --:--:-- 0 100 428 100 428 0 0 6484 0 --:--:-- --:--:-- --:--:-- 6484 % Total % Received % Xferd Average Speed Time Time Time Current Dload Upload Total Spent Left Speed 0 0 0 0 0 0 0 0 --:--:-- --:--:-- --:--:-- 0 100 432 100 432 0 0 5204 0 --:--:-- --:--:-- --:--:-- 5204 % Total % Received % Xferd Average Speed Time Time Time Current Dload Upload Total Spent Left Speed 0 0 0 0 0 0 0 0 --:--:-- --:--:-- --:--:-- 0 100 431 100 431 0 0 3715 0 --:--:-- --:--:-- --:--:-- 3715 % Total % Received % Xferd Average Speed Time Time Time Current Dload Upload Total Spent Left Speed 0 0 0 0 0 0 0 0 --:--:-- --:--:-- --:--:-- 0 100 431 100 431 0 0 3216 0 --:--:-- --:--:-- --:--:-- 3216 % Total % Received % Xferd Average Speed Time Time Time Current Dload Upload Total Spent Left Speed 0 0 0 0 0 0 0 0 --:--:-- --:--:-- --:--:-- 0 100 432 100 432 0 0 5538 0 --:--:-- --:--:-- --:--:-- 5538 % Total % Received % Xferd Average Speed Time Time Time Current Dload Upload Total Spent Left Speed 0 0 0 0 0 0 0 0 --:--:-- --:--:-- --:--:-- 0 100 431 100 431 0 0 3078 0 --:--:-- --:--:-- --:--:-- 3078 % Total % Received % Xferd Average Speed Time Time Time Current Dload Upload Total Spent Left Speed 0 0 0 0 0 0 0 0 --:--:-- --:--:-- --:--:-- 0 100 432 100 432 0 0 4320 0 --:--:-- --:--:-- --:--:-- 4320 % Total % Received % Xferd Average Speed Time Time Time Current Dload Upload Total Spent Left Speed 0 0 0 0 0 0 0 0 --:--:-- --:--:-- --:--:-- 0 0 0 0 0 0 0 0 0 --:--:-- --:--:-- --:--:-- 0 100 429 100 429 0 0 1100 0 --:--:-- --:--:-- --:--:-- 1097 % Total % Received % Xferd Average Speed Time Time Time Current Dload Upload Total Spent Left Speed 0 0 0 0 0 0 0 0 --:--:-- --:--:-- --:--:-- 0 100 431 100 431 0 0 3715 0 --:--:-- --:--:-- --:--:-- 3715 % Total % Received % Xferd Average Speed Time Time Time Current Dload Upload Total Spent Left Speed 0 0 0 0 0 0 0 0 --:--:-- --:--:-- --:--:-- 0 100 432 100 432 0 0 3223 0 --:--:-- --:--:-- --:--:-- 3223 % Total % Received % Xferd Average Speed Time Time Time Current Dload Upload Total Spent Left Speed 0 0 0 0 0 0 0 0 --:--:-- --:--:-- --:--:-- 0 100 432 100 432 0 0 5142 0 --:--:-- --:--:-- --:--:-- 5142 % Total % Received % Xferd Average Speed Time Time Time Current Dload Upload Total Spent Left Speed 0 0 0 0 0 0 0 0 --:--:-- --:--:-- --:--:-- 0 100 432 100 432 0 0 3756 0 --:--:-- --:--:-- --:--:-- 3789 % Total % Received % Xferd Average Speed Time Time Time Current Dload Upload Total Spent Left Speed 0 0 0 0 0 0 0 0 --:--:-- --:--:-- --:--:-- 0 100 432 100 432 0 0 2860 0 --:--:-- --:--:-- --:--:-- 2860 % Total % Received % Xferd Average Speed Time Time Time Current Dload Upload Total Spent Left Speed 0 0 0 0 0 0 0 0 --:--:-- --:--:-- --:--:-- 0 100 432 100 432 0 0 3428 0 --:--:-- --:--:-- --:--:-- 3428 % Total % Received % Xferd Average Speed Time Time Time Current Dload Upload Total Spent Left Speed 0 0 0 0 0 0 0 0 --:--:-- --:--:-- --:--:-- 0 100 432 100 432 0 0 3020 0 --:--:-- --:--:-- --:--:-- 3020 % Total % Received % Xferd Average Speed Time Time Time Current Dload Upload Total Spent Left Speed 0 0 0 0 0 0 0 0 --:--:-- --:--:-- --:--:-- 0 100 432 100 432 0 0 2076 0 --:--:-- --:--:-- --:--:-- 2076 % Total % Received % Xferd Average Speed Time Time Time Current Dload Upload Total Spent Left Speed 0 0 0 0 0 0 0 0 --:--:-- --:--:-- --:--:-- 0 100 432 100 432 0 0 1792 0 --:--:-- --:--:-- --:--:-- 1792 % Total % Received % Xferd Average Speed Time Time Time Current Dload Upload Total Spent Left Speed 0 0 0 0 0 0 0 0 --:--:-- --:--:-- --:--:-- 0 100 431 100 431 0 0 9795 0 --:--:-- --:--:-- --:--:-- 9795 % Total % Received % Xferd Average Speed Time Time Time Current Dload Upload Total Spent Left Speed 0 0 0 0 0 0 0 0 --:--:-- --:--:-- --:--:-- 0 100 432 100 432 0 0 7854 0 --:--:-- --:--:-- --:--:-- 7854 % Total % Received % Xferd Average Speed Time Time Time Current Dload Upload Total Spent Left Speed 0 0 0 0 0 0 0 0 --:--:-- --:--:-- --:--:-- 0 100 431 100 431 0 0 5597 0 --:--:-- --:--:-- --:--:-- 5597 % Total % Received % Xferd Average Speed Time Time Time Current Dload Upload Total Spent Left Speed 0 0 0 0 0 0 0 0 --:--:-- --:--:-- --:--:-- 0 100 431 100 431 0 0 2292 0 --:--:-- --:--:-- --:--:-- 2292 % Total % Received % Xferd Average Speed Time Time Time Current Dload Upload Total Spent Left Speed 0 0 0 0 0 0 0 0 --:--:-- --:--:-- --:--:-- 0 100 431 100 431 0 0 2342 0 --:--:-- --:--:-- --:--:-- 2329 100 431 100 431 0 0 2342 0 --:--:-- --:--:-- --:--:-- 2329 % Total % Received % Xferd Average Speed Time Time Time Current Dload Upload Total Spent Left Speed 0 0 0 0 0 0 0 0 --:--:-- --:--:-- --:--:-- 0 100 432 100 432 0 0 3248 0 --:--:-- --:--:-- --:--:-- 3248 % Total % Received % Xferd Average Speed Time Time Time Current Dload Upload Total Spent Left Speed 0 0 0 0 0 0 0 0 --:--:-- --:--:-- --:--:-- 0 100 432 100 432 0 0 1822 0 --:--:-- --:--:-- --:--:-- 1822 % Total % Received % Xferd Average Speed Time Time Time Current Dload Upload Total Spent Left Speed 0 0 0 0 0 0 0 0 --:--:-- --:--:-- --:--:-- 0 100 431 100 431 0 0 3315 0 --:--:-- --:--:-- --:--:-- 3315 % Total % Received % Xferd Average Speed Time Time Time Current Dload Upload Total Spent Left Speed 0 0 0 0 0 0 0 0 --:--:-- --:--:-- --:--:-- 0 100 431 100 431 0 0 2368 0 --:--:-- --:--:-- --:--:-- 2368 % Total % Received % Xferd Average Speed Time Time Time Current Dload Upload Total Spent Left Speed 0 0 0 0 0 0 0 0 --:--:-- --:--:-- --:--:-- 0 100 432 100 432 0 0 6171 0 --:--:-- --:--:-- --:--:-- 6171 % Total % Received % Xferd Average Speed Time Time Time Current Dload Upload Total Spent Left Speed 0 0 0 0 0 0 0 0 --:--:-- --:--:-- --:--:-- 0 0 0 0 0 0 0 0 0 --:--:-- --:--:-- --:--:-- 0 100 431 100 431 0 0 2014 0 --:--:-- --:--:-- --:--:-- 2004 % Total % Received % Xferd Average Speed Time Time Time Current Dload Upload Total Spent Left Speed 0 0 0 0 0 0 0 0 --:--:-- --:--:-- --:--:-- 0 100 430 100 430 0 0 3553 0 --:--:-- --:--:-- --:--:-- 3553 % Total % Received % Xferd Average Speed Time Time Time Current Dload Upload Total Spent Left Speed 0 0 0 0 0 0 0 0 --:--:-- --:--:-- --:--:-- 0 100 429 100 429 0 0 774 0 --:--:-- --:--:-- --:--:-- 772 100 429 100 429 0 0 774 0 --:--:-- --:--:-- --:--:-- 772 % Total % Received % Xferd Average Speed Time Time Time Current Dload Upload Total Spent Left Speed 0 0 0 0 0 0 0 0 --:--:-- --:--:-- --:--:-- 0 100 432 100 432 0 0 1694 0 --:--:-- --:--:-- --:--:-- 1694 % Total % Received % Xferd Average Speed Time Time Time Current Dload Upload Total Spent Left Speed 0 0 0 0 0 0 0 0 --:--:-- --:--:-- --:--:-- 0 100 431 100 431 0 0 2233 0 --:--:-- --:--:-- --:--:-- 2244 % Total % Received % Xferd Average Speed Time Time Time Current Dload Upload Total Spent Left Speed 0 0 0 0 0 0 0 0 --:--:-- --:--:-- --:--:-- 0 100 429 100 429 0 0 2860 0 --:--:-- --:--:-- --:--:-- 2860 % Total % Received % Xferd Average Speed Time Time Time Current Dload Upload Total Spent Left Speed 0 0 0 0 0 0 0 0 --:--:-- --:--:-- --:--:-- 0 100 430 100 430 0 0 3071 0 --:--:-- --:--:-- --:--:-- 3071 % Total % Received % Xferd Average Speed Time Time Time Current Dload Upload Total Spent Left Speed 0 0 0 0 0 0 0 0 --:--:-- --:--:-- --:--:-- 0 100 431 100 431 0 0 3290 0 --:--:-- --:--:-- --:--:-- 3290 % Total % Received % Xferd Average Speed Time Time Time Current Dload Upload Total Spent Left Speed 0 0 0 0 0 0 0 0 --:--:-- --:--:-- --:--:-- 0 100 429 100 429 0 0 8937 0 --:--:-- --:--:-- --:--:-- 8937 % Total % Received % Xferd Average Speed Time Time Time Current Dload Upload Total Spent Left Speed 0 0 0 0 0 0 0 0 --:--:-- --:--:-- --:--:-- 0 100 429 100 429 0 0 3225 0 --:--:-- --:--:-- --:--:-- 3250 % Total % Received % Xferd Average Speed Time Time Time Current Dload Upload Total Spent Left Speed 0 0 0 0 0 0 0 0 --:--:-- --:--:-- --:--:-- 0 100 431 100 431 0 0 2972 0 --:--:-- --:--:-- --:--:-- 2972 % Total % Received % Xferd Average Speed Time Time Time Current Dload Upload Total Spent Left Speed 0 0 0 0 0 0 0 0 --:--:-- --:--:-- --:--:-- 0 100 432 100 432 0 0 4853 0 --:--:-- --:--:-- --:--:-- 4853 % Total % Received % Xferd Average Speed Time Time Time Current Dload Upload Total Spent Left Speed 0 0 0 0 0 0 0 0 --:--:-- --:--:-- --:--:-- 0 100 432 100 432 0 0 2571 0 --:--:-- --:--:-- --:--:-- 2571 % Total % Received % Xferd Average Speed Time Time Time Current Dload Upload Total Spent Left Speed 0 0 0 0 0 0 0 0 --:--:-- --:--:-- --:--:-- 0 0 0 0 0 0 0 0 0 --:--:-- --:--:-- --:--:-- 0 100 431 100 431 0 0 2042 0 --:--:-- --:--:-- --:--:-- 2033 % Total % Received % Xferd Average Speed Time Time Time Current Dload Upload Total Spent Left Speed 0 0 0 0 0 0 0 0 --:--:-- --:--:-- --:--:-- 0 100 432 100 432 0 0 2787 0 --:--:-- --:--:-- --:--:-- 2787 % Total % Received % Xferd Average Speed Time Time Time Current Dload Upload Total Spent Left Speed 0 0 0 0 0 0 0 0 --:--:-- --:--:-- --:--:-- 0 100 432 100 432 0 0 4037 0 --:--:-- --:--:-- --:--:-- 4037 % Total % Received % Xferd Average Speed Time Time Time Current Dload Upload Total Spent Left Speed 0 0 0 0 0 0 0 0 --:--:-- --:--:-- --:--:-- 0 100 429 100 429 0 0 3900 0 --:--:-- --:--:-- --:--:-- 3900 % Total % Received % Xferd Average Speed Time Time Time Current Dload Upload Total Spent Left Speed 0 0 0 0 0 0 0 0 --:--:-- --:--:-- --:--:-- 0 100 429 100 429 0 0 9127 0 --:--:-- --:--:-- --:--:-- 9326 % Total % Received % Xferd Average Speed Time Time Time Current Dload Upload Total Spent Left Speed 0 0 0 0 0 0 0 0 --:--:-- --:--:-- --:--:-- 0 100 432 100 432 0 0 6545 0 --:--:-- --:--:-- --:--:-- 6545 % Total % Received % Xferd Average Speed Time Time Time Current Dload Upload Total Spent Left Speed 0 0 0 0 0 0 0 0 --:--:-- --:--:-- --:--:-- 0 100 431 100 431 0 0 1517 0 --:--:-- --:--:-- --:--:-- 1517 % Total % Received % Xferd Average Speed Time Time Time Current Dload Upload Total Spent Left Speed 0 0 0 0 0 0 0 0 --:--:-- --:--:-- --:--:-- 0 100 429 100 429 0 0 2370 0 --:--:-- --:--:-- --:--:-- 2370 % Total % Received % Xferd Average Speed Time Time Time Current Dload Upload Total Spent Left Speed 0 0 0 0 0 0 0 0 --:--:-- --:--:-- --:--:-- 0 100 432 100 432 0 0 3927 0 --:--:-- --:--:-- --:--:-- 3963 % Total % Received % Xferd Average Speed Time Time Time Current Dload Upload Total Spent Left Speed 0 0 0 0 0 0 0 0 --:--:-- --:--:-- --:--:-- 0 100 431 100 431 0 0 1977 0 --:--:-- --:--:-- --:--:-- 1977 % Total % Received % Xferd Average Speed Time Time Time Current Dload Upload Total Spent Left Speed 0 0 0 0 0 0 0 0 --:--:-- --:--:-- --:--:-- 0 100 432 100 432 0 0 2261 0 --:--:-- --:--:-- --:--:-- 2261 % Total % Received % Xferd Average Speed Time Time Time Current Dload Upload Total Spent Left Speed 0 0 0 0 0 0 0 0 --:--:-- --:--:-- --:--:-- 0 100 429 100 429 0 0 4247 0 --:--:-- --:--:-- --:--:-- 4247 % Total % Received % Xferd Average Speed Time Time Time Current Dload Upload Total Spent Left Speed 0 0 0 0 0 0 0 0 --:--:-- --:--:-- --:--:-- 0 100 432 100 432 0 0 10800 0 --:--:-- --:--:-- --:--:-- 10536 100 432 100 432 0 0 10536 0 --:--:-- --:--:-- --:--:-- 10536 % Total % Received % Xferd Average Speed Time Time Time Current Dload Upload Total Spent Left Speed 0 0 0 0 0 0 0 0 --:--:-- --:--:-- --:--:-- 0 0 0 0 0 0 0 0 0 --:--:-- 0:00:01 --:--:-- 0 0 0 0 0 0 0 0 0 --:--:-- 0:00:02 --:--:-- 0 100 432 100 432 0 0 181 0 0:00:02 0:00:02 --:--:-- 181 % Total % Received % Xferd Average Speed Time Time Time Current Dload Upload Total Spent Left Speed 0 0 0 0 0 0 0 0 --:--:-- --:--:-- --:--:-- 0 100 432 100 432 0 0 2454 0 --:--:-- --:--:-- --:--:-- 2454 % Total % Received % Xferd Average Speed Time Time Time Current Dload Upload Total Spent Left Speed 0 0 0 0 0 0 0 0 --:--:-- --:--:-- --:--:-- 0 100 429 100 429 0 0 2750 0 --:--:-- --:--:-- --:--:-- 2750 % Total % Received % Xferd Average Speed Time Time Time Current Dload Upload Total Spent Left Speed 0 0 0 0 0 0 0 0 --:--:-- --:--:-- --:--:-- 0 100 431 100 431 0 0 3056 0 --:--:-- --:--:-- --:--:-- 3078 % Total % Received % Xferd Average Speed Time Time Time Current Dload Upload Total Spent Left Speed 0 0 0 0 0 0 0 0 --:--:-- --:--:-- --:--:-- 0 100 432 100 432 0 0 4075 0 --:--:-- --:--:-- --:--:-- 4075 % Total % Received % Xferd Average Speed Time Time Time Current Dload Upload Total Spent Left Speed 0 0 0 0 0 0 0 0 --:--:-- --:--:-- --:--:-- 0 100 432 100 432 0 0 3428 0 --:--:-- --:--:-- --:--:-- 3456 % Total % Received % Xferd Average Speed Time Time Time Current Dload Upload Total Spent Left Speed 0 0 0 0 0 0 0 0 --:--:-- --:--:-- --:--:-- 0 100 428 100 428 0 0 6903 0 --:--:-- --:--:-- --:--:-- 6903 % Total % Received % Xferd Average Speed Time Time Time Current Dload Upload Total Spent Left Speed 0 0 0 0 0 0 0 0 --:--:-- --:--:-- --:--:-- 0 100 432 100 432 0 0 2138 0 --:--:-- --:--:-- --:--:-- 2149 % Total % Received % Xferd Average Speed Time Time Time Current Dload Upload Total Spent Left Speed 0 0 0 0 0 0 0 0 --:--:-- --:--:-- --:--:-- 0 100 430 100 430 0 0 2388 0 --:--:-- --:--:-- --:--:-- 2388 % Total % Received % Xferd Average Speed Time Time Time Current Dload Upload Total Spent Left Speed 0 0 0 0 0 0 0 0 --:--:-- --:--:-- --:--:-- 0 100 430 100 430 0 0 3553 0 --:--:-- --:--:-- --:--:-- 3553 % Total % Received % Xferd Average Speed Time Time Time Current Dload Upload Total Spent Left Speed 0 0 0 0 0 0 0 0 --:--:-- --:--:-- --:--:-- 0 100 431 100 431 0 0 4897 0 --:--:-- --:--:-- --:--:-- 4954 % Total % Received % Xferd Average Speed Time Time Time Current Dload Upload Total Spent Left Speed 0 0 0 0 0 0 0 0 --:--:-- --:--:-- --:--:-- 0 100 430 100 430 0 0 10000 0 --:--:-- --:--:-- --:--:-- 10000 % Total % Received % Xferd Average Speed Time Time Time Current Dload Upload Total Spent Left Speed 0 0 0 0 0 0 0 0 --:--:-- --:--:-- --:--:-- 0 100 431 100 431 0 0 3882 0 --:--:-- --:--:-- --:--:-- 3882 % Total % Received % Xferd Average Speed Time Time Time Current Dload Upload Total Spent Left Speed 0 0 0 0 0 0 0 0 --:--:-- --:--:-- --:--:-- 0 100 431 100 431 0 0 4353 0 --:--:-- --:--:-- --:--:-- 4353 % Total % Received % Xferd Average Speed Time Time Time Current Dload Upload Total Spent Left Speed 0 0 0 0 0 0 0 0 --:--:-- --:--:-- --:--:-- 0 100 430 100 430 0 0 9347 0 --:--:-- --:--:-- --:--:-- 9347 % Total % Received % Xferd Average Speed Time Time Time Current Dload Upload Total Spent Left Speed 0 0 0 0 0 0 0 0 --:--:-- --:--:-- --:--:-- 0 100 431 100 431 0 0 11342 0 --:--:-- --:--:-- --:--:-- 11342 % Total % Received % Xferd Average Speed Time Time Time Current Dload Upload Total Spent Left Speed 0 0 0 0 0 0 0 0 --:--:-- --:--:-- --:--:-- 0 100 431 100 431 0 0 1795 0 --:--:-- --:--:-- --:--:-- 1795 % Total % Received % Xferd Average Speed Time Time Time Current Dload Upload Total Spent Left Speed 0 0 0 0 0 0 0 0 --:--:-- --:--:-- --:--:-- 0 100 430 100 430 0 0 2721 0 --:--:-- --:--:-- --:--:-- 2721 % Total % Received % Xferd Average Speed Time Time Time Current Dload Upload Total Spent Left Speed 0 0 0 0 0 0 0 0 --:--:-- --:--:-- --:--:-- 0 100 430 100 430 0 0 10238 0 --:--:-- --:--:-- --:--:-- 10238 % Total % Received % Xferd Average Speed Time Time Time Current Dload Upload Total Spent Left Speed 0 0 0 0 0 0 0 0 --:--:-- --:--:-- --:--:-- 0 100 431 100 431 0 0 2780 0 --:--:-- --:--:-- --:--:-- 2780 % Total % Received % Xferd Average Speed Time Time Time Current Dload Upload Total Spent Left Speed 0 0 0 0 0 0 0 0 --:--:-- --:--:-- --:--:-- 0 100 431 100 431 0 0 7561 0 --:--:-- --:--:-- --:--:-- 7561 % Total % Received % Xferd Average Speed Time Time Time Current Dload Upload Total Spent Left Speed 0 0 0 0 0 0 0 0 --:--:-- --:--:-- --:--:-- 0 100 431 100 431 0 0 6630 0 --:--:-- --:--:-- --:--:-- 6630 % Total % Received % Xferd Average Speed Time Time Time Current Dload Upload Total Spent Left Speed 0 0 0 0 0 0 0 0 --:--:-- --:--:-- --:--:-- 0 100 429 100 429 0 0 2281 0 --:--:-- --:--:-- --:--:-- 2294 % Total % Received % Xferd Average Speed Time Time Time Current Dload Upload Total Spent Left Speed 0 0 0 0 0 0 0 0 --:--:-- --:--:-- --:--:-- 0 100 431 100 431 0 0 8979 0 --:--:-- --:--:-- --:--:-- 8979 % Total % Received % Xferd Average Speed Time Time Time Current Dload Upload Total Spent Left Speed 0 0 0 0 0 0 0 0 --:--:-- --:--:-- --:--:-- 0 100 430 100 430 0 0 2107 0 --:--:-- --:--:-- --:--:-- 2107 % Total % Received % Xferd Average Speed Time Time Time Current Dload Upload Total Spent Left Speed 0 0 0 0 0 0 0 0 --:--:-- --:--:-- --:--:-- 0 100 430 100 430 0 0 2810 0 --:--:-- --:--:-- --:--:-- 2828 % Total % Received % Xferd Average Speed Time Time Time Current Dload Upload Total Spent Left Speed 0 0 0 0 0 0 0 0 --:--:-- --:--:-- --:--:-- 0 100 429 100 429 0 0 3900 0 --:--:-- --:--:-- --:--:-- 3900 % Total % Received % Xferd Average Speed Time Time Time Current Dload Upload Total Spent Left Speed 0 0 0 0 0 0 0 0 --:--:-- --:--:-- --:--:-- 0 0 0 0 0 0 0 0 0 --:--:-- --:--:-- --:--:-- 0 100 430 100 430 0 0 3333 0 --:--:-- --:--:-- --:--:-- 3307 % Total % Received % Xferd Average Speed Time Time Time Current Dload Upload Total Spent Left Speed 0 0 0 0 0 0 0 0 --:--:-- --:--:-- --:--:-- 0 100 430 100 430 0 0 8431 0 --:--:-- --:--:-- --:--:-- 8269 100 430 100 430 0 0 8431 0 --:--:-- --:--:-- --:--:-- 8269 % Total % Received % Xferd Average Speed Time Time Time Current Dload Upload Total Spent Left Speed 0 0 0 0 0 0 0 0 --:--:-- --:--:-- --:--:-- 0 100 431 100 431 0 0 2355 0 --:--:-- --:--:-- --:--:-- 2355 % Total % Received % Xferd Average Speed Time Time Time Current Dload Upload Total Spent Left Speed 0 0 0 0 0 0 0 0 --:--:-- --:--:-- --:--:-- 0 100 431 100 431 0 0 9170 0 --:--:-- --:--:-- --:--:-- 9170 % Total % Received % Xferd Average Speed Time Time Time Current Dload Upload Total Spent Left Speed 0 0 0 0 0 0 0 0 --:--:-- --:--:-- --:--:-- 0 100 431 100 431 0 0 4684 0 --:--:-- --:--:-- --:--:-- 4684 % Total % Received % Xferd Average Speed Time Time Time Current Dload Upload Total Spent Left Speed 0 0 0 0 0 0 0 0 --:--:-- --:--:-- --:--:-- 0 100 431 100 431 0 0 2304 0 --:--:-- --:--:-- --:--:-- 2292 100 431 100 431 0 0 2304 0 --:--:-- --:--:-- --:--:-- 2292 % Total % Received % Xferd Average Speed Time Time Time Current Dload Upload Total Spent Left Speed 0 0 0 0 0 0 0 0 --:--:-- --:--:-- --:--:-- 0 100 431 100 431 0 0 2292 0 --:--:-- --:--:-- --:--:-- 2292 % Total % Received % Xferd Average Speed Time Time Time Current Dload Upload Total Spent Left Speed 0 0 0 0 0 0 0 0 --:--:-- --:--:-- --:--:-- 0 100 431 100 431 0 0 6630 0 --:--:-- --:--:-- --:--:-- 6630 % Total % Received % Xferd Average Speed Time Time Time Current Dload Upload Total Spent Left Speed 0 0 0 0 0 0 0 0 --:--:-- --:--:-- --:--:-- 0 100 431 100 431 0 0 3145 0 --:--:-- --:--:-- --:--:-- 3145 % Total % Received % Xferd Average Speed Time Time Time Current Dload Upload Total Spent Left Speed 0 0 0 0 0 0 0 0 --:--:-- --:--:-- --:--:-- 0 100 428 100 428 0 0 6484 0 --:--:-- --:--:-- --:--:-- 6584 % Total % Received % Xferd Average Speed Time Time Time Current Dload Upload Total Spent Left Speed 0 0 0 0 0 0 0 0 --:--:-- --:--:-- --:--:-- 0 100 432 100 432 0 0 8150 0 --:--:-- --:--:-- --:--:-- 8150 % Total % Received % Xferd Average Speed Time Time Time Current Dload Upload Total Spent Left Speed 0 0 0 0 0 0 0 0 --:--:-- --:--:-- --:--:-- 0 100 428 100 428 0 0 3962 0 --:--:-- --:--:-- --:--:-- 3962 % Total % Received % Xferd Average Speed Time Time Time Current Dload Upload Total Spent Left Speed 0 0 0 0 0 0 0 0 --:--:-- --:--:-- --:--:-- 0 100 428 100 428 0 0 6294 0 --:--:-- --:--:-- --:--:-- 6294 % Total % Received % Xferd Average Speed Time Time Time Current Dload Upload Total Spent Left Speed 0 0 0 0 0 0 0 0 --:--:-- --:--:-- --:--:-- 0 100 428 100 428 0 0 2098 0 --:--:-- --:--:-- --:--:-- 2098 % Total % Received % Xferd Average Speed Time Time Time Current Dload Upload Total Spent Left Speed 0 0 0 0 0 0 0 0 --:--:-- --:--:-- --:--:-- 0 100 432 100 432 0 0 2000 0 --:--:-- --:--:-- --:--:-- 2000 % Total % Received % Xferd Average Speed Time Time Time Current Dload Upload Total Spent Left Speed 0 0 0 0 0 0 0 0 --:--:-- --:--:-- --:--:-- 0 100 428 100 428 0 0 6028 0 --:--:-- --:--:-- --:--:-- 6028 % Total % Received % Xferd Average Speed Time Time Time Current Dload Upload Total Spent Left Speed 0 0 0 0 0 0 0 0 --:--:-- --:--:-- --:--:-- 0 100 428 100 428 0 0 6388 0 --:--:-- --:--:-- --:--:-- 6388 % Total % Received % Xferd Average Speed Time Time Time Current Dload Upload Total Spent Left Speed 0 0 0 0 0 0 0 0 --:--:-- --:--:-- --:--:-- 0 100 429 100 429 0 0 2918 0 --:--:-- --:--:-- --:--:-- 2898 100 429 100 429 0 0 2918 0 --:--:-- --:--:-- --:--:-- 2898 % Total % Received % Xferd Average Speed Time Time Time Current Dload Upload Total Spent Left Speed 0 0 0 0 0 0 0 0 --:--:-- --:--:-- --:--:-- 0 100 431 100 431 0 0 4353 0 --:--:-- --:--:-- --:--:-- 4353 % Total % Received % Xferd Average Speed Time Time Time Current Dload Upload Total Spent Left Speed 0 0 0 0 0 0 0 0 --:--:-- --:--:-- --:--:-- 0 100 429 100 429 0 0 8937 0 --:--:-- --:--:-- --:--:-- 8937 % Total % Received % Xferd Average Speed Time Time Time Current Dload Upload Total Spent Left Speed 0 0 0 0 0 0 0 0 --:--:-- --:--:-- --:--:-- 0 100 431 100 431 0 0 7305 0 --:--:-- --:--:-- --:--:-- 7305 % Total % Received % Xferd Average Speed Time Time Time Current Dload Upload Total Spent Left Speed 0 0 0 0 0 0 0 0 --:--:-- --:--:-- --:--:-- 0 100 429 100 429 0 0 2898 0 --:--:-- --:--:-- --:--:-- 2898 % Total % Received % Xferd Average Speed Time Time Time Current Dload Upload Total Spent Left Speed 0 0 0 0 0 0 0 0 --:--:-- --:--:-- --:--:-- 0 100 430 100 430 0 0 4479 0 --:--:-- --:--:-- --:--:-- 4479 % Total % Received % Xferd Average Speed Time Time Time Current Dload Upload Total Spent Left Speed 0 0 0 0 0 0 0 0 --:--:-- --:--:-- --:--:-- 0 100 429 100 429 0 0 5107 0 --:--:-- --:--:-- --:--:-- 5107 % Total % Received % Xferd Average Speed Time Time Time Current Dload Upload Total Spent Left Speed 0 0 0 0 0 0 0 0 --:--:-- --:--:-- --:--:-- 0 100 431 100 431 0 0 5070 0 --:--:-- --:--:-- --:--:-- 5070 % Total % Received % Xferd Average Speed Time Time Time Current Dload Upload Total Spent Left Speed 0 0 0 0 0 0 0 0 --:--:-- --:--:-- --:--:-- 0 100 429 100 429 0 0 4612 0 --:--:-- --:--:-- --:--:-- 4612 % Total % Received % Xferd Average Speed Time Time Time Current Dload Upload Total Spent Left Speed 0 0 0 0 0 0 0 0 --:--:-- --:--:-- --:--:-- 0 100 432 100 432 0 0 6857 0 --:--:-- --:--:-- --:--:-- 6857 % Total % Received % Xferd Average Speed Time Time Time Current Dload Upload Total Spent Left Speed 0 0 0 0 0 0 0 0 --:--:-- --:--:-- --:--:-- 0 100 429 100 429 0 0 4766 0 --:--:-- --:--:-- --:--:-- 4766 % Total % Received % Xferd Average Speed Time Time Time Current Dload Upload Total Spent Left Speed 0 0 0 0 0 0 0 0 --:--:-- --:--:-- --:--:-- 0 100 431 100 431 0 0 4684 0 --:--:-- --:--:-- --:--:-- 4684 % Total % Received % Xferd Average Speed Time Time Time Current Dload Upload Total Spent Left Speed 0 0 0 0 0 0 0 0 --:--:-- --:--:-- --:--:-- 0 100 431 100 431 0 0 1773 0 --:--:-- --:--:-- --:--:-- 1773 % Total % Received % Xferd Average Speed Time Time Time Current Dload Upload Total Spent Left Speed 0 0 0 0 0 0 0 0 --:--:-- --:--:-- --:--:-- 0 100 431 100 431 0 0 3747 0 --:--:-- --:--:-- --:--:-- 3747 % Total % Received % Xferd Average Speed Time Time Time Current Dload Upload Total Spent Left Speed 0 0 0 0 0 0 0 0 --:--:-- --:--:-- --:--:-- 0 100 431 100 431 0 0 1882 0 --:--:-- --:--:-- --:--:-- 1882 % Total % Received % Xferd Average Speed Time Time Time Current Dload Upload Total Spent Left Speed 0 0 0 0 0 0 0 0 --:--:-- --:--:-- --:--:-- 0 100 426 100 426 0 0 4484 0 --:--:-- --:--:-- --:--:-- 4484 % Total % Received % Xferd Average Speed Time Time Time Current Dload Upload Total Spent Left Speed 0 0 0 0 0 0 0 0 --:--:-- --:--:-- --:--:-- 0 100 430 100 430 0 0 1508 0 --:--:-- --:--:-- --:--:-- 1508 % Total % Received % Xferd Average Speed Time Time Time Current Dload Upload Total Spent Left Speed 0 0 0 0 0 0 0 0 --:--:-- --:--:-- --:--:-- 0 100 429 100 429 0 0 1150 0 --:--:-- --:--:-- --:--:-- 1147 100 429 100 429 0 0 1150 0 --:--:-- --:--:-- --:--:-- 1147 % Total % Received % Xferd Average Speed Time Time Time Current Dload Upload Total Spent Left Speed 0 0 0 0 0 0 0 0 --:--:-- --:--:-- --:--:-- 0 100 429 100 429 0 0 6308 0 --:--:-- --:--:-- --:--:-- 6308 % Total % Received % Xferd Average Speed Time Time Time Current Dload Upload Total Spent Left Speed 0 0 0 0 0 0 0 0 --:--:-- --:--:-- --:--:-- 0 100 429 100 429 0 0 425 0 0:00:01 0:00:01 --:--:-- 425 100 429 100 429 0 0 425 0 0:00:01 0:00:01 --:--:-- 425 % Total % Received % Xferd Average Speed Time Time Time Current Dload Upload Total Spent Left Speed 0 0 0 0 0 0 0 0 --:--:-- --:--:-- --:--:-- 0 100 429 100 429 0 0 2004 0 --:--:-- --:--:-- --:--:-- 2004 % Total % Received % Xferd Average Speed Time Time Time Current Dload Upload Total Spent Left Speed 0 0 0 0 0 0 0 0 --:--:-- --:--:-- --:--:-- 0 100 431 100 431 0 0 2082 0 --:--:-- --:--:-- --:--:-- 2082 % Total % Received % Xferd Average Speed Time Time Time Current Dload Upload Total Spent Left Speed 0 0 0 0 0 0 0 0 --:--:-- --:--:-- --:--:-- 0 100 429 100 429 0 0 4422 0 --:--:-- --:--:-- --:--:-- 4468 % Total % Received % Xferd Average Speed Time Time Time Current Dload Upload Total Spent Left Speed 0 0 0 0 0 0 0 0 --:--:-- --:--:-- --:--:-- 0 100 431 100 431 0 0 1539 0 --:--:-- --:--:-- --:--:-- 1539 % Total % Received % Xferd Average Speed Time Time Time Current Dload Upload Total Spent Left Speed 0 0 0 0 0 0 0 0 --:--:-- --:--:-- --:--:-- 0 100 431 100 431 0 0 3341 0 --:--:-- --:--:-- --:--:-- 3341 % Total % Received % Xferd Average Speed Time Time Time Current Dload Upload Total Spent Left Speed 0 0 0 0 0 0 0 0 --:--:-- --:--:-- --:--:-- 0 100 431 100 431 0 0 3990 0 --:--:-- --:--:-- --:--:-- 3990 % Total % Received % Xferd Average Speed Time Time Time Current Dload Upload Total Spent Left Speed 0 0 0 0 0 0 0 0 --:--:-- --:--:-- --:--:-- 0 100 430 100 430 0 0 7288 0 --:--:-- --:--:-- --:--:-- 7288 % Total % Received % Xferd Average Speed Time Time Time Current Dload Upload Total Spent Left Speed 0 0 0 0 0 0 0 0 --:--:-- --:--:-- --:--:-- 0 100 430 100 430 0 0 1928 0 --:--:-- --:--:-- --:--:-- 1928 % Total % Received % Xferd Average Speed Time Time Time Current Dload Upload Total Spent Left Speed 0 0 0 0 0 0 0 0 --:--:-- --:--:-- --:--:-- 0 100 431 100 431 0 0 8450 0 --:--:-- --:--:-- --:--:-- 8620 % Total % Received % Xferd Average Speed Time Time Time Current Dload Upload Total Spent Left Speed 0 0 0 0 0 0 0 0 --:--:-- --:--:-- --:--:-- 0 100 430 100 430 0 0 2965 0 --:--:-- --:--:-- --:--:-- 2986 % Total % Received % Xferd Average Speed Time Time Time Current Dload Upload Total Spent Left Speed 0 0 0 0 0 0 0 0 --:--:-- --:--:-- --:--:-- 0 100 429 100 429 0 0 3972 0 --:--:-- --:--:-- --:--:-- 3972 % Total % Received % Xferd Average Speed Time Time Time Current Dload Upload Total Spent Left Speed 0 0 0 0 0 0 0 0 --:--:-- --:--:-- --:--:-- 0 100 427 100 427 0 0 1413 0 --:--:-- --:--:-- --:--:-- 1413 % Total % Received % Xferd Average Speed Time Time Time Current Dload Upload Total Spent Left Speed 0 0 0 0 0 0 0 0 --:--:-- --:--:-- --:--:-- 0 100 431 100 431 0 0 7431 0 --:--:-- --:--:-- --:--:-- 7431 % Total % Received % Xferd Average Speed Time Time Time Current Dload Upload Total Spent Left Speed 0 0 0 0 0 0 0 0 --:--:-- --:--:-- --:--:-- 0 100 430 100 430 0 0 3805 0 --:--:-- --:--:-- --:--:-- 3805 % Total % Received % Xferd Average Speed Time Time Time Current Dload Upload Total Spent Left Speed 0 0 0 0 0 0 0 0 --:--:-- --:--:-- --:--:-- 0 100 430 100 430 0 0 4725 0 --:--:-- --:--:-- --:--:-- 4725 % Total % Received % Xferd Average Speed Time Time Time Current Dload Upload Total Spent Left Speed 0 0 0 0 0 0 0 0 --:--:-- --:--:-- --:--:-- 0 100 431 100 431 0 0 2873 0 --:--:-- --:--:-- --:--:-- 2854 100 431 100 431 0 0 2873 0 --:--:-- --:--:-- --:--:-- 2854 % Total % Received % Xferd Average Speed Time Time Time Current Dload Upload Total Spent Left Speed 0 0 0 0 0 0 0 0 --:--:-- --:--:-- --:--:-- 0 100 431 100 431 0 0 5320 0 --:--:-- --:--:-- --:--:-- 5320 % Total % Received % Xferd Average Speed Time Time Time Current Dload Upload Total Spent Left Speed 0 0 0 0 0 0 0 0 --:--:-- --:--:-- --:--:-- 0 100 430 100 430 0 0 2885 0 --:--:-- --:--:-- --:--:-- 2885 % Total % Received % Xferd Average Speed Time Time Time Current Dload Upload Total Spent Left Speed 0 0 0 0 0 0 0 0 --:--:-- --:--:-- --:--:-- 0 100 430 100 430 0 0 3257 0 --:--:-- --:--:-- --:--:-- 3257 % Total % Received % Xferd Average Speed Time Time Time Current Dload Upload Total Spent Left Speed 0 0 0 0 0 0 0 0 --:--:-- --:--:-- --:--:-- 0 100 431 100 431 0 0 8620 0 --:--:-- --:--:-- --:--:-- 8620 % Total % Received % Xferd Average Speed Time Time Time Current Dload Upload Total Spent Left Speed 0 0 0 0 0 0 0 0 --:--:-- --:--:-- --:--:-- 0 100 432 100 432 0 0 2842 0 --:--:-- --:--:-- --:--:-- 2842 % Total % Received % Xferd Average Speed Time Time Time Current Dload Upload Total Spent Left Speed 0 0 0 0 0 0 0 0 --:--:-- --:--:-- --:--:-- 0 100 431 100 431 0 0 9577 0 --:--:-- --:--:-- --:--:-- 9577 % Total % Received % Xferd Average Speed Time Time Time Current Dload Upload Total Spent Left Speed 0 0 0 0 0 0 0 0 --:--:-- --:--:-- --:--:-- 0 100 431 100 431 0 0 3367 0 --:--:-- --:--:-- --:--:-- 3367 % Total % Received % Xferd Average Speed Time Time Time Current Dload Upload Total Spent Left Speed 0 0 0 0 0 0 0 0 --:--:-- --:--:-- --:--:-- 0 100 431 100 431 0 0 4310 0 --:--:-- --:--:-- --:--:-- 4267 100 431 100 431 0 0 4267 0 --:--:-- --:--:-- --:--:-- 4225 % Total % Received % Xferd Average Speed Time Time Time Current Dload Upload Total Spent Left Speed 0 0 0 0 0 0 0 0 --:--:-- --:--:-- --:--:-- 0 100 431 100 431 0 0 3056 0 --:--:-- --:--:-- --:--:-- 3078 % Total % Received % Xferd Average Speed Time Time Time Current Dload Upload Total Spent Left Speed 0 0 0 0 0 0 0 0 --:--:-- --:--:-- --:--:-- 0 100 431 100 431 0 0 1752 0 --:--:-- --:--:-- --:--:-- 1752 % Total % Received % Xferd Average Speed Time Time Time Current Dload Upload Total Spent Left Speed 0 0 0 0 0 0 0 0 --:--:-- --:--:-- --:--:-- 0 100 431 100 431 0 0 4897 0 --:--:-- --:--:-- --:--:-- 4954 % Total % Received % Xferd Average Speed Time Time Time Current Dload Upload Total Spent Left Speed 0 0 0 0 0 0 0 0 --:--:-- --:--:-- --:--:-- 0 100 432 100 432 0 0 9191 0 --:--:-- --:--:-- --:--:-- 9000 100 432 100 432 0 0 9191 0 --:--:-- --:--:-- --:--:-- 9000 % Total % Received % Xferd Average Speed Time Time Time Current Dload Upload Total Spent Left Speed 0 0 0 0 0 0 0 0 --:--:-- --:--:-- --:--:-- 0 100 431 100 431 0 0 1608 0 --:--:-- --:--:-- --:--:-- 1608 % Total % Received % Xferd Average Speed Time Time Time Current Dload Upload Total Spent Left Speed 0 0 0 0 0 0 0 0 --:--:-- --:--:-- --:--:-- 0 100 431 100 431 0 0 6734 0 --:--:-- --:--:-- --:--:-- 6734 % Total % Received % Xferd Average Speed Time Time Time Current Dload Upload Total Spent Left Speed 0 0 0 0 0 0 0 0 --:--:-- --:--:-- --:--:-- 0 100 430 100 430 0 0 4343 0 --:--:-- --:--:-- --:--:-- 4343 % Total % Received % Xferd Average Speed Time Time Time Current Dload Upload Total Spent Left Speed 0 0 0 0 0 0 0 0 --:--:-- --:--:-- --:--:-- 0 100 432 100 432 0 0 5333 0 --:--:-- --:--:-- --:--:-- 5333 % Total % Received % Xferd Average Speed Time Time Time Current Dload Upload Total Spent Left Speed 0 0 0 0 0 0 0 0 --:--:-- --:--:-- --:--:-- 0 100 432 100 432 0 0 2683 0 --:--:-- --:--:-- --:--:-- 2700 % Total % Received % Xferd Average Speed Time Time Time Current Dload Upload Total Spent Left Speed 0 0 0 0 0 0 0 0 --:--:-- --:--:-- --:--:-- 0 100 431 100 431 0 0 3169 0 --:--:-- --:--:-- --:--:-- 3169 % Total % Received % Xferd Average Speed Time Time Time Current Dload Upload Total Spent Left Speed 0 0 0 0 0 0 0 0 --:--:-- --:--:-- --:--:-- 0 100 430 100 430 0 0 3412 0 --:--:-- --:--:-- --:--:-- 3412 % Total % Received % Xferd Average Speed Time Time Time Current Dload Upload Total Spent Left Speed 0 0 0 0 0 0 0 0 --:--:-- --:--:-- --:--:-- 0 100 432 100 432 0 0 9600 0 --:--:-- --:--:-- --:--:-- 9600 % Total % Received % Xferd Average Speed Time Time Time Current Dload Upload Total Spent Left Speed 0 0 0 0 0 0 0 0 --:--:-- --:--:-- --:--:-- 0 100 432 100 432 0 0 3020 0 --:--:-- --:--:-- --:--:-- 3020 % Total % Received % Xferd Average Speed Time Time Time Current Dload Upload Total Spent Left Speed 0 0 0 0 0 0 0 0 --:--:-- --:--:-- --:--:-- 0 100 428 100 428 0 0 2364 0 --:--:-- --:--:-- --:--:-- 2364 100 428 100 428 0 0 2364 0 --:--:-- --:--:-- --:--:-- 2351 % Total % Received % Xferd Average Speed Time Time Time Current Dload Upload Total Spent Left Speed 0 0 0 0 0 0 0 0 --:--:-- --:--:-- --:--:-- 0 100 431 100 431 0 0 3393 0 --:--:-- --:--:-- --:--:-- 3393 % Total % Received % Xferd Average Speed Time Time Time Current Dload Upload Total Spent Left Speed 0 0 0 0 0 0 0 0 --:--:-- --:--:-- --:--:-- 0 100 432 100 432 0 0 4277 0 --:--:-- --:--:-- --:--:-- 4277 % Total % Received % Xferd Average Speed Time Time Time Current Dload Upload Total Spent Left Speed 0 0 0 0 0 0 0 0 --:--:-- --:--:-- --:--:-- 0 100 430 100 430 0 0 4300 0 --:--:-- --:--:-- --:--:-- 4300 % Total % Received % Xferd Average Speed Time Time Time Current Dload Upload Total Spent Left Speed 0 0 0 0 0 0 0 0 --:--:-- --:--:-- --:--:-- 0 100 431 100 431 0 0 3882 0 --:--:-- --:--:-- --:--:-- 3882 % Total % Received % Xferd Average Speed Time Time Time Current Dload Upload Total Spent Left Speed 0 0 0 0 0 0 0 0 --:--:-- --:--:-- --:--:-- 0 100 430 100 430 0 0 3115 0 --:--:-- --:--:-- --:--:-- 3115 % Total % Received % Xferd Average Speed Time Time Time Current Dload Upload Total Spent Left Speed 0 0 0 0 0 0 0 0 --:--:-- --:--:-- --:--:-- 0 0 0 0 0 0 0 0 0 --:--:-- --:--:-- --:--:-- 0 100 431 100 431 0 0 3078 0 --:--:-- --:--:-- --:--:-- 3056 % Total % Received % Xferd Average Speed Time Time Time Current Dload Upload Total Spent Left Speed 0 0 0 0 0 0 0 0 --:--:-- --:--:-- --:--:-- 0 100 431 100 431 0 0 8450 0 --:--:-- --:--:-- --:--:-- 8450 % Total % Received % Xferd Average Speed Time Time Time Current Dload Upload Total Spent Left Speed 0 0 0 0 0 0 0 0 --:--:-- --:--:-- --:--:-- 0 100 429 100 429 0 0 10214 0 --:--:-- --:--:-- --:--:-- 10214 % Total % Received % Xferd Average Speed Time Time Time Current Dload Upload Total Spent Left Speed 0 0 0 0 0 0 0 0 --:--:-- --:--:-- --:--:-- 0 100 431 100 431 0 0 4585 0 --:--:-- --:--:-- --:--:-- 4585 % Total % Received % Xferd Average Speed Time Time Time Current Dload Upload Total Spent Left Speed 0 0 0 0 0 0 0 0 --:--:-- --:--:-- --:--:-- 0 100 431 100 431 0 0 4585 0 --:--:-- --:--:-- --:--:-- 4585 % Total % Received % Xferd Average Speed Time Time Time Current Dload Upload Total Spent Left Speed 0 0 0 0 0 0 0 0 --:--:-- --:--:-- --:--:-- 0 100 431 100 431 0 0 3035 0 --:--:-- --:--:-- --:--:-- 3035 % Total % Received % Xferd Average Speed Time Time Time Current Dload Upload Total Spent Left Speed 0 0 0 0 0 0 0 0 --:--:-- --:--:-- --:--:-- 0 100 429 100 429 0 0 2979 0 --:--:-- --:--:-- --:--:-- 2958 100 429 100 429 0 0 2979 0 --:--:-- --:--:-- --:--:-- 2958 % Total % Received % Xferd Average Speed Time Time Time Current Dload Upload Total Spent Left Speed 0 0 0 0 0 0 0 0 --:--:-- --:--:-- --:--:-- 0 100 431 100 431 0 0 1501 0 --:--:-- --:--:-- --:--:-- 1501 % Total % Received % Xferd Average Speed Time Time Time Current Dload Upload Total Spent Left Speed 0 0 0 0 0 0 0 0 --:--:-- --:--:-- --:--:-- 0 100 431 100 431 0 0 10775 0 --:--:-- --:--:-- --:--:-- 10775 % Total % Received % Xferd Average Speed Time Time Time Current Dload Upload Total Spent Left Speed 0 0 0 0 0 0 0 0 --:--:-- --:--:-- --:--:-- 0 100 429 100 429 0 0 3545 0 --:--:-- --:--:-- --:--:-- 3545 % Total % Received % Xferd Average Speed Time Time Time Current Dload Upload Total Spent Left Speed 0 0 0 0 0 0 0 0 --:--:-- --:--:-- --:--:-- 0 100 428 100 428 0 0 2264 0 --:--:-- --:--:-- --:--:-- 2264 % Total % Received % Xferd Average Speed Time Time Time Current Dload Upload Total Spent Left Speed 0 0 0 0 0 0 0 0 --:--:-- --:--:-- --:--:-- 0 100 429 100 429 0 0 7526 0 --:--:-- --:--:-- --:--:-- 7396 100 429 100 429 0 0 7526 0 --:--:-- --:--:-- --:--:-- 7396 % Total % Received % Xferd Average Speed Time Time Time Current Dload Upload Total Spent Left Speed 0 0 0 0 0 0 0 0 --:--:-- --:--:-- --:--:-- 0 100 431 100 431 0 0 2355 0 --:--:-- --:--:-- --:--:-- 2355 % Total % Received % Xferd Average Speed Time Time Time Current Dload Upload Total Spent Left Speed 0 0 0 0 0 0 0 0 --:--:-- --:--:-- --:--:-- 0 100 431 100 431 0 0 941 0 --:--:-- --:--:-- --:--:-- 938 100 431 100 431 0 0 941 0 --:--:-- --:--:-- --:--:-- 938 % Total % Received % Xferd Average Speed Time Time Time Current Dload Upload Total Spent Left Speed 0 0 0 0 0 0 0 0 --:--:-- --:--:-- --:--:-- 0 100 429 100 429 0 0 595 0 --:--:-- --:--:-- --:--:-- 595 % Total % Received % Xferd Average Speed Time Time Time Current Dload Upload Total Spent Left Speed 0 0 0 0 0 0 0 0 --:--:-- --:--:-- --:--:-- 0 100 431 100 431 0 0 3954 0 --:--:-- --:--:-- --:--:-- 3918 100 431 100 431 0 0 3954 0 --:--:-- --:--:-- --:--:-- 3918 % Total % Received % Xferd Average Speed Time Time Time Current Dload Upload Total Spent Left Speed 0 0 0 0 0 0 0 0 --:--:-- --:--:-- --:--:-- 0 100 431 100 431 0 0 1461 0 --:--:-- --:--:-- --:--:-- 1461 % Total % Received % Xferd Average Speed Time Time Time Current Dload Upload Total Spent Left Speed 0 0 0 0 0 0 0 0 --:--:-- --:--:-- --:--:-- 0 100 431 100 431 0 0 5130 0 --:--:-- --:--:-- --:--:-- 5070 100 431 100 431 0 0 5130 0 --:--:-- --:--:-- --:--:-- 5070 % Total % Received % Xferd Average Speed Time Time Time Current Dload Upload Total Spent Left Speed 0 0 0 0 0 0 0 0 --:--:-- --:--:-- --:--:-- 0 100 429 100 429 0 0 7396 0 --:--:-- --:--:-- --:--:-- 7396 % Total % Received % Xferd Average Speed Time Time Time Current Dload Upload Total Spent Left Speed 0 0 0 0 0 0 0 0 --:--:-- --:--:-- --:--:-- 0 100 431 100 431 0 0 10023 0 --:--:-- --:--:-- --:--:-- 10023 % Total % Received % Xferd Average Speed Time Time Time Current Dload Upload Total Spent Left Speed 0 0 0 0 0 0 0 0 --:--:-- --:--:-- --:--:-- 0 100 431 100 431 0 0 8979 0 --:--:-- --:--:-- --:--:-- 9170 % Total % Received % Xferd Average Speed Time Time Time Current Dload Upload Total Spent Left Speed 0 0 0 0 0 0 0 0 --:--:-- --:--:-- --:--:-- 0 100 430 100 430 0 0 7962 0 --:--:-- --:--:-- --:--:-- 7962 % Total % Received % Xferd Average Speed Time Time Time Current Dload Upload Total Spent Left Speed 0 0 0 0 0 0 0 0 --:--:-- --:--:-- --:--:-- 0 100 428 100 428 0 0 3721 0 --:--:-- --:--:-- --:--:-- 3721 % Total % Received % Xferd Average Speed Time Time Time Current Dload Upload Total Spent Left Speed 0 0 0 0 0 0 0 0 --:--:-- --:--:-- --:--:-- 0 100 430 100 430 0 0 8775 0 --:--:-- --:--:-- --:--:-- 8775 % Total % Received % Xferd Average Speed Time Time Time Current Dload Upload Total Spent Left Speed 0 0 0 0 0 0 0 0 --:--:-- --:--:-- --:--:-- 0 100 431 100 431 0 0 3504 0 --:--:-- --:--:-- --:--:-- 3504 % Total % Received % Xferd Average Speed Time Time Time Current Dload Upload Total Spent Left Speed 0 0 0 0 0 0 0 0 --:--:-- --:--:-- --:--:-- 0 100 432 100 432 0 0 1878 0 --:--:-- --:--:-- --:--:-- 1878 % Total % Received % Xferd Average Speed Time Time Time Current Dload Upload Total Spent Left Speed 0 0 0 0 0 0 0 0 --:--:-- --:--:-- --:--:-- 0 100 429 100 429 0 0 5047 0 --:--:-- --:--:-- --:--:-- 5047 % Total % Received % Xferd Average Speed Time Time Time Current Dload Upload Total Spent Left Speed 0 0 0 0 0 0 0 0 --:--:-- --:--:-- --:--:-- 0 100 428 100 428 0 0 5783 0 --:--:-- --:--:-- --:--:-- 5783 % Total % Received % Xferd Average Speed Time Time Time Current Dload Upload Total Spent Left Speed 0 0 0 0 0 0 0 0 --:--:-- --:--:-- --:--:-- 0 100 428 100 428 0 0 4602 0 --:--:-- --:--:-- --:--:-- 4602 % Total % Received % Xferd Average Speed Time Time Time Current Dload Upload Total Spent Left Speed 0 0 0 0 0 0 0 0 --:--:-- --:--:-- --:--:-- 0 100 431 100 431 0 0 2520 0 --:--:-- --:--:-- --:--:-- 2520 % Total % Received % Xferd Average Speed Time Time Time Current Dload Upload Total Spent Left Speed 0 0 0 0 0 0 0 0 --:--:-- --:--:-- --:--:-- 0 0 0 0 0 0 0 0 0 --:--:-- --:--:-- --:--:-- 0 100 427 100 427 0 0 2023 0 --:--:-- --:--:-- --:--:-- 2014 % Total % Received % Xferd Average Speed Time Time Time Current Dload Upload Total Spent Left Speed 0 0 0 0 0 0 0 0 --:--:-- --:--:-- --:--:-- 0 100 427 100 427 0 0 7491 0 --:--:-- --:--:-- --:--:-- 7491 % Total % Received % Xferd Average Speed Time Time Time Current Dload Upload Total Spent Left Speed 0 0 0 0 0 0 0 0 --:--:-- --:--:-- --:--:-- 0 100 427 100 427 0 0 1413 0 --:--:-- --:--:-- --:--:-- 1413 % Total % Received % Xferd Average Speed Time Time Time Current Dload Upload Total Spent Left Speed 0 0 0 0 0 0 0 0 --:--:-- --:--:-- --:--:-- 0 100 432 100 432 0 0 2938 0 --:--:-- --:--:-- --:--:-- 2938 % Total % Received % Xferd Average Speed Time Time Time Current Dload Upload Total Spent Left Speed 0 0 0 0 0 0 0 0 --:--:-- --:--:-- --:--:-- 0 100 434 100 434 0 0 10585 0 --:--:-- --:--:-- --:--:-- 10585 % Total % Received % Xferd Average Speed Time Time Time Current Dload Upload Total Spent Left Speed 0 0 0 0 0 0 0 0 --:--:-- --:--:-- --:--:-- 0 100 429 100 429 0 0 4563 0 --:--:-- --:--:-- --:--:-- 4563 % Total % Received % Xferd Average Speed Time Time Time Current Dload Upload Total Spent Left Speed 0 0 0 0 0 0 0 0 --:--:-- --:--:-- --:--:-- 0 100 429 100 429 0 0 6217 0 --:--:-- --:--:-- --:--:-- 6217 % Total % Received % Xferd Average Speed Time Time Time Current Dload Upload Total Spent Left Speed 0 0 0 0 0 0 0 0 --:--:-- --:--:-- --:--:-- 0 100 429 100 429 0 0 1841 0 --:--:-- --:--:-- --:--:-- 1841 % Total % Received % Xferd Average Speed Time Time Time Current Dload Upload Total Spent Left Speed 0 0 0 0 0 0 0 0 --:--:-- --:--:-- --:--:-- 0 100 434 100 434 0 0 6112 0 --:--:-- --:--:-- --:--:-- 6112 % Total % Received % Xferd Average Speed Time Time Time Current Dload Upload Total Spent Left Speed 0 0 0 0 0 0 0 0 --:--:-- --:--:-- --:--:-- 0 100 429 100 429 0 0 1643 0 --:--:-- --:--:-- --:--:-- 1643 % Total % Received % Xferd Average Speed Time Time Time Current Dload Upload Total Spent Left Speed 0 0 0 0 0 0 0 0 --:--:-- --:--:-- --:--:-- 0 100 429 100 429 0 0 5500 0 --:--:-- --:--:-- --:--:-- 5500 % Total % Received % Xferd Average Speed Time Time Time Current Dload Upload Total Spent Left Speed 0 0 0 0 0 0 0 0 --:--:-- --:--:-- --:--:-- 0 100 429 100 429 0 0 4290 0 --:--:-- --:--:-- --:--:-- 4290 % Total % Received % Xferd Average Speed Time Time Time Current Dload Upload Total Spent Left Speed 0 0 0 0 0 0 0 0 --:--:-- --:--:-- --:--:-- 0 100 428 100 428 0 0 9106 0 --:--:-- --:--:-- --:--:-- 9106 % Total % Received % Xferd Average Speed Time Time Time Current Dload Upload Total Spent Left Speed 0 0 0 0 0 0 0 0 --:--:-- --:--:-- --:--:-- 0 100 428 100 428 0 0 3267 0 --:--:-- --:--:-- --:--:-- 3267 % Total % Received % Xferd Average Speed Time Time Time Current Dload Upload Total Spent Left Speed 0 0 0 0 0 0 0 0 --:--:-- --:--:-- --:--:-- 0 100 428 100 428 0 0 3147 0 --:--:-- --:--:-- --:--:-- 3147 % Total % Received % Xferd Average Speed Time Time Time Current Dload Upload Total Spent Left Speed 0 0 0 0 0 0 0 0 --:--:-- --:--:-- --:--:-- 0 100 435 100 435 0 0 3918 0 --:--:-- --:--:-- --:--:-- 3954 % Total % Received % Xferd Average Speed Time Time Time Current Dload Upload Total Spent Left Speed 0 0 0 0 0 0 0 0 --:--:-- --:--:-- --:--:-- 0 100 436 100 436 0 0 9083 0 --:--:-- --:--:-- --:--:-- 9083 % Total % Received % Xferd Average Speed Time Time Time Current Dload Upload Total Spent Left Speed 0 0 0 0 0 0 0 0 --:--:-- --:--:-- --:--:-- 0 100 435 100 435 0 0 5000 0 --:--:-- --:--:-- --:--:-- 5000 % Total % Received % Xferd Average Speed Time Time Time Current Dload Upload Total Spent Left Speed 0 0 0 0 0 0 0 0 --:--:-- --:--:-- --:--:-- 0 100 436 100 436 0 0 10139 0 --:--:-- --:--:-- --:--:-- 10139 % Total % Received % Xferd Average Speed Time Time Time Current Dload Upload Total Spent Left Speed 0 0 0 0 0 0 0 0 --:--:-- --:--:-- --:--:-- 0 100 433 100 433 0 0 5697 0 --:--:-- --:--:-- --:--:-- 5697 % Total % Received % Xferd Average Speed Time Time Time Current Dload Upload Total Spent Left Speed 0 0 0 0 0 0 0 0 --:--:-- --:--:-- --:--:-- 0 100 436 100 436 0 0 6707 0 --:--:-- --:--:-- --:--:-- 6707 % Total % Received % Xferd Average Speed Time Time Time Current Dload Upload Total Spent Left Speed 0 0 0 0 0 0 0 0 --:--:-- --:--:-- --:--:-- 0 100 436 100 436 0 0 2369 0 --:--:-- --:--:-- --:--:-- 2356 100 436 100 436 0 0 2356 0 --:--:-- --:--:-- --:--:-- 2356 % Total % Received % Xferd Average Speed Time Time Time Current Dload Upload Total Spent Left Speed 0 0 0 0 0 0 0 0 --:--:-- --:--:-- --:--:-- 0 100 436 100 436 0 0 5129 0 --:--:-- --:--:-- --:--:-- 5129 % Total % Received % Xferd Average Speed Time Time Time Current Dload Upload Total Spent Left Speed 0 0 0 0 0 0 0 0 --:--:-- --:--:-- --:--:-- 0 100 436 100 436 0 0 9083 0 --:--:-- --:--:-- --:--:-- 9083 % Total % Received % Xferd Average Speed Time Time Time Current Dload Upload Total Spent Left Speed 0 0 0 0 0 0 0 0 --:--:-- --:--:-- --:--:-- 0 100 436 100 436 0 0 10380 0 --:--:-- --:--:-- --:--:-- 10380 % Total % Received % Xferd Average Speed Time Time Time Current Dload Upload Total Spent Left Speed 0 0 0 0 0 0 0 0 --:--:-- --:--:-- --:--:-- 0 100 436 100 436 0 0 3278 0 --:--:-- --:--:-- --:--:-- 3253 100 436 100 436 0 0 3253 0 --:--:-- --:--:-- --:--:-- 3229 % Total % Received % Xferd Average Speed Time Time Time Current Dload Upload Total Spent Left Speed 0 0 0 0 0 0 0 0 --:--:-- --:--:-- --:--:-- 0 100 436 100 436 0 0 3573 0 --:--:-- --:--:-- --:--:-- 3573 % Total % Received % Xferd Average Speed Time Time Time Current Dload Upload Total Spent Left Speed 0 0 0 0 0 0 0 0 --:--:-- --:--:-- --:--:-- 0 100 436 100 436 0 0 4688 0 --:--:-- --:--:-- --:--:-- 4688 % Total % Received % Xferd Average Speed Time Time Time Current Dload Upload Total Spent Left Speed 0 0 0 0 0 0 0 0 --:--:-- --:--:-- --:--:-- 0 100 436 100 436 0 0 5972 0 --:--:-- --:--:-- --:--:-- 5972 % Total % Received % Xferd Average Speed Time Time Time Current Dload Upload Total Spent Left Speed 0 0 0 0 0 0 0 0 --:--:-- --:--:-- --:--:-- 0 100 436 100 436 0 0 8720 0 --:--:-- --:--:-- --:--:-- 8720 % Total % Received % Xferd Average Speed Time Time Time Current Dload Upload Total Spent Left Speed 0 0 0 0 0 0 0 0 --:--:-- --:--:-- --:--:-- 0 100 436 100 436 0 0 6606 0 --:--:-- --:--:-- --:--:-- 6606 % Total % Received % Xferd Average Speed Time Time Time Current Dload Upload Total Spent Left Speed 0 0 0 0 0 0 0 0 --:--:-- --:--:-- --:--:-- 0 100 434 100 434 0 0 6200 0 --:--:-- --:--:-- --:--:-- 6200 % Total % Received % Xferd Average Speed Time Time Time Current Dload Upload Total Spent Left Speed 0 0 0 0 0 0 0 0 --:--:-- --:--:-- --:--:-- 0 100 436 100 436 0 0 3006 0 --:--:-- --:--:-- --:--:-- 3006 % Total % Received % Xferd Average Speed Time Time Time Current Dload Upload Total Spent Left Speed 0 0 0 0 0 0 0 0 --:--:-- --:--:-- --:--:-- 0 100 433 100 433 0 0 4123 0 --:--:-- --:--:-- --:--:-- 4123 % Total % Received % Xferd Average Speed Time Time Time Current Dload Upload Total Spent Left Speed 0 0 0 0 0 0 0 0 --:--:-- --:--:-- --:--:-- 0 100 435 100 435 0 0 8207 0 --:--:-- --:--:-- --:--:-- 8207 % Total % Received % Xferd Average Speed Time Time Time Current Dload Upload Total Spent Left Speed 0 0 0 0 0 0 0 0 --:--:-- --:--:-- --:--:-- 0 100 436 100 436 0 0 6140 0 --:--:-- --:--:-- --:--:-- 6140 % Total % Received % Xferd Average Speed Time Time Time Current Dload Upload Total Spent Left Speed 0 0 0 0 0 0 0 0 --:--:-- --:--:-- --:--:-- 0 100 436 100 436 0 0 4954 0 --:--:-- --:--:-- --:--:-- 4954 % Total % Received % Xferd Average Speed Time Time Time Current Dload Upload Total Spent Left Speed 0 0 0 0 0 0 0 0 --:--:-- --:--:-- --:--:-- 0 100 436 100 436 0 0 8549 0 --:--:-- --:--:-- --:--:-- 8549 % Total % Received % Xferd Average Speed Time Time Time Current Dload Upload Total Spent Left Speed 0 0 0 0 0 0 0 0 --:--:-- --:--:-- --:--:-- 0 100 433 100 433 0 0 6765 0 --:--:-- --:--:-- --:--:-- 6765 % Total % Received % Xferd Average Speed Time Time Time Current Dload Upload Total Spent Left Speed 0 0 0 0 0 0 0 0 --:--:-- --:--:-- --:--:-- 0 100 435 100 435 0 0 5000 0 --:--:-- --:--:-- --:--:-- 5058 % Total % Received % Xferd Average Speed Time Time Time Current Dload Upload Total Spent Left Speed 0 0 0 0 0 0 0 0 --:--:-- --:--:-- --:--:-- 0 100 435 100 435 0 0 3129 0 --:--:-- --:--:-- --:--:-- 3129 % Total % Received % Xferd Average Speed Time Time Time Current Dload Upload Total Spent Left Speed 0 0 0 0 0 0 0 0 --:--:-- --:--:-- --:--:-- 0 100 435 100 435 0 0 4223 0 --:--:-- --:--:-- --:--:-- 4223 % Total % Received % Xferd Average Speed Time Time Time Current Dload Upload Total Spent Left Speed 0 0 0 0 0 0 0 0 --:--:-- --:--:-- --:--:-- 0 100 433 100 433 0 0 9840 0 --:--:-- --:--:-- --:--:-- 9840 % Total % Received % Xferd Average Speed Time Time Time Current Dload Upload Total Spent Left Speed 0 0 0 0 0 0 0 0 --:--:-- --:--:-- --:--:-- 0 100 435 100 435 0 0 4027 0 --:--:-- --:--:-- --:--:-- 4027 % Total % Received % Xferd Average Speed Time Time Time Current Dload Upload Total Spent Left Speed 0 0 0 0 0 0 0 0 --:--:-- --:--:-- --:--:-- 0 100 433 100 433 0 0 8169 0 --:--:-- --:--:-- --:--:-- 8169 % Total % Received % Xferd Average Speed Time Time Time Current Dload Upload Total Spent Left Speed 0 0 0 0 0 0 0 0 --:--:-- --:--:-- --:--:-- 0 100 433 100 433 0 0 10560 0 --:--:-- --:--:-- --:--:-- 10560 % Total % Received % Xferd Average Speed Time Time Time Current Dload Upload Total Spent Left Speed 0 0 0 0 0 0 0 0 --:--:-- --:--:-- --:--:-- 0 100 436 100 436 0 0 2926 0 --:--:-- --:--:-- --:--:-- 2926 % Total % Received % Xferd Average Speed Time Time Time Current Dload Upload Total Spent Left Speed 0 0 0 0 0 0 0 0 --:--:-- --:--:-- --:--:-- 0 100 428 100 428 0 0 3317 0 --:--:-- --:--:-- --:--:-- 3317 % Total % Received % Xferd Average Speed Time Time Time Current Dload Upload Total Spent Left Speed 0 0 0 0 0 0 0 0 --:--:-- --:--:-- --:--:-- 0 100 436 100 436 0 0 3663 0 --:--:-- --:--:-- --:--:-- 3694 % Total % Received % Xferd Average Speed Time Time Time Current Dload Upload Total Spent Left Speed 0 0 0 0 0 0 0 0 --:--:-- --:--:-- --:--:-- 0 100 433 100 433 0 0 4009 0 --:--:-- --:--:-- --:--:-- 4009 % Total % Received % Xferd Average Speed Time Time Time Current Dload Upload Total Spent Left Speed 0 0 0 0 0 0 0 0 --:--:-- --:--:-- --:--:-- 0 100 436 100 436 0 0 2344 0 --:--:-- --:--:-- --:--:-- 2344 % Total % Received % Xferd Average Speed Time Time Time Current Dload Upload Total Spent Left Speed 0 0 0 0 0 0 0 0 --:--:-- --:--:-- --:--:-- 0 100 431 100 431 0 0 2580 0 --:--:-- --:--:-- --:--:-- 2580 % Total % Received % Xferd Average Speed Time Time Time Current Dload Upload Total Spent Left Speed 0 0 0 0 0 0 0 0 --:--:-- --:--:-- --:--:-- 0 100 436 100 436 0 0 9083 0 --:--:-- --:--:-- --:--:-- 9083 % Total % Received % Xferd Average Speed Time Time Time Current Dload Upload Total Spent Left Speed 0 0 0 0 0 0 0 0 --:--:-- --:--:-- --:--:-- 0 100 435 100 435 0 0 10357 0 --:--:-- --:--:-- --:--:-- 10357 % Total % Received % Xferd Average Speed Time Time Time Current Dload Upload Total Spent Left Speed 0 0 0 0 0 0 0 0 --:--:-- --:--:-- --:--:-- 0 100 436 100 436 0 0 5891 0 --:--:-- --:--:-- --:--:-- 5891 % Total % Received % Xferd Average Speed Time Time Time Current Dload Upload Total Spent Left Speed 0 0 0 0 0 0 0 0 --:--:-- --:--:-- --:--:-- 0 100 431 100 431 0 0 5455 0 --:--:-- --:--:-- --:--:-- 5455 % Total % Received % Xferd Average Speed Time Time Time Current Dload Upload Total Spent Left Speed 0 0 0 0 0 0 0 0 --:--:-- --:--:-- --:--:-- 0 100 431 100 431 0 0 4144 0 --:--:-- --:--:-- --:--:-- 4144 % Total % Received % Xferd Average Speed Time Time Time Current Dload Upload Total Spent Left Speed 0 0 0 0 0 0 0 0 --:--:-- --:--:-- --:--:-- 0 100 431 100 431 0 0 10261 0 --:--:-- --:--:-- --:--:-- 10261 % Total % Received % Xferd Average Speed Time Time Time Current Dload Upload Total Spent Left Speed 0 0 0 0 0 0 0 0 --:--:-- --:--:-- --:--:-- 0 100 431 100 431 0 0 7561 0 --:--:-- --:--:-- --:--:-- 7431 100 431 100 431 0 0 7561 0 --:--:-- --:--:-- --:--:-- 7431 % Total % Received % Xferd Average Speed Time Time Time Current Dload Upload Total Spent Left Speed 0 0 0 0 0 0 0 0 --:--:-- --:--:-- --:--:-- 0 100 436 100 436 0 0 3858 0 --:--:-- --:--:-- --:--:-- 3858 % Total % Received % Xferd Average Speed Time Time Time Current Dload Upload Total Spent Left Speed 0 0 0 0 0 0 0 0 --:--:-- --:--:-- --:--:-- 0 100 433 100 433 0 0 6661 0 --:--:-- --:--:-- --:--:-- 6661 % Total % Received % Xferd Average Speed Time Time Time Current Dload Upload Total Spent Left Speed 0 0 0 0 0 0 0 0 --:--:-- --:--:-- --:--:-- 0 100 436 100 436 0 0 6228 0 --:--:-- --:--:-- --:--:-- 6228 % Total % Received % Xferd Average Speed Time Time Time Current Dload Upload Total Spent Left Speed 0 0 0 0 0 0 0 0 --:--:-- --:--:-- --:--:-- 0 100 436 100 436 0 0 3353 0 --:--:-- --:--:-- --:--:-- 3353 % Total % Received % Xferd Average Speed Time Time Time Current Dload Upload Total Spent Left Speed 0 0 0 0 0 0 0 0 --:--:-- --:--:-- --:--:-- 0 100 436 100 436 0 0 2224 0 --:--:-- --:--:-- --:--:-- 2224 % Total % Received % Xferd Average Speed Time Time Time Current Dload Upload Total Spent Left Speed 0 0 0 0 0 0 0 0 --:--:-- --:--:-- --:--:-- 0 100 433 100 433 0 0 9622 0 --:--:-- --:--:-- --:--:-- 9840 % Total % Received % Xferd Average Speed Time Time Time Current Dload Upload Total Spent Left Speed 0 0 0 0 0 0 0 0 --:--:-- --:--:-- --:--:-- 0 100 433 100 433 0 0 3137 0 --:--:-- --:--:-- --:--:-- 3137 % Total % Received % Xferd Average Speed Time Time Time Current Dload Upload Total Spent Left Speed 0 0 0 0 0 0 0 0 --:--:-- --:--:-- --:--:-- 0 100 436 100 436 0 0 3379 0 --:--:-- --:--:-- --:--:-- 3379 % Total % Received % Xferd Average Speed Time Time Time Current Dload Upload Total Spent Left Speed 0 0 0 0 0 0 0 0 --:--:-- --:--:-- --:--:-- 0 100 436 100 436 0 0 7266 0 --:--:-- --:--:-- --:--:-- 7266 % Total % Received % Xferd Average Speed Time Time Time Current Dload Upload Total Spent Left Speed 0 0 0 0 0 0 0 0 --:--:-- --:--:-- --:--:-- 0 100 436 100 436 0 0 4233 0 --:--:-- --:--:-- --:--:-- 4233 % Total % Received % Xferd Average Speed Time Time Time Current Dload Upload Total Spent Left Speed 0 0 0 0 0 0 0 0 --:--:-- --:--:-- --:--:-- 0 100 435 100 435 0 0 9666 0 --:--:-- --:--:-- --:--:-- 9666 % Total % Received % Xferd Average Speed Time Time Time Current Dload Upload Total Spent Left Speed 0 0 0 0 0 0 0 0 --:--:-- --:--:-- --:--:-- 0 100 435 100 435 0 0 9886 0 --:--:-- --:--:-- --:--:-- 9886 % Total % Received % Xferd Average Speed Time Time Time Current Dload Upload Total Spent Left Speed 0 0 0 0 0 0 0 0 --:--:-- --:--:-- --:--:-- 0 100 436 100 436 0 0 2408 0 --:--:-- --:--:-- --:--:-- 2408 % Total % Received % Xferd Average Speed Time Time Time Current Dload Upload Total Spent Left Speed 0 0 0 0 0 0 0 0 --:--:-- --:--:-- --:--:-- 0 100 435 100 435 0 0 4677 0 --:--:-- --:--:-- --:--:-- 4677 % Total % Received % Xferd Average Speed Time Time Time Current Dload Upload Total Spent Left Speed 0 0 0 0 0 0 0 0 --:--:-- --:--:-- --:--:-- 0 100 436 100 436 0 0 4844 0 --:--:-- --:--:-- --:--:-- 4844 % Total % Received % Xferd Average Speed Time Time Time Current Dload Upload Total Spent Left Speed 0 0 0 0 0 0 0 0 --:--:-- --:--:-- --:--:-- 0 100 435 100 435 0 0 3041 0 --:--:-- --:--:-- --:--:-- 3020 100 435 100 435 0 0 3041 0 --:--:-- --:--:-- --:--:-- 3020 From sinton@wam-2.localdomain Tue Mar 2 22:53:03 2021 Return-Path: X-Original-To: sinton Delivered-To: sinton@wam-2.localdomain Received: by wam-2.localdomain (Postfix, from userid 1001) id 47F0C35C7B; Tue, 2 Mar 2021 22:53:03 -0500 (EST) From: root@wam-2.localdomain (Cron Daemon) To: sinton@wam-2.localdomain Subject: Cron ~/symlinks/TEAM1F/ogoakinitchka.sh 1f > /dev/null MIME-Version: 1.0 Content-Type: text/plain; charset=UTF-8 Content-Transfer-Encoding: 8bit X-Cron-Env: X-Cron-Env: X-Cron-Env: X-Cron-Env: Message-Id: <20210303035303.47F0C35C7B@wam-2.localdomain> Date: Tue, 2 Mar 2021 22:53:03 -0500 (EST) tail: cannot open '/home/sinton/sjsu1f/mlbcalmindexk.csv' for reading: No such file or directory tail: cannot open '/home/sinton/sjsu1f/mlbavgwindindexk.csv' for reading: No such file or directory tail: cannot open '/home/sinton/sjsu1f/mlbcalmindexk.csv' for reading: No such file or directory tail: cannot open '/home/sinton/sjsu1f/mlbavgwindindexk.csv' for reading: No such file or directory tail: cannot open '/home/sinton/sjsu1f/mlbcalmindexk.csv' for reading: No such file or directory tail: cannot open '/home/sinton/sjsu1f/mlbavgwindindexk.csv' for reading: No such file or directory tail: cannot open '/home/sinton/sjsu1f/mlbcalmindexk.csv' for reading: No such file or directory tail: cannot open '/home/sinton/sjsu1f/mlbavgwindindexk.csv' for reading: No such file or directory tail: cannot open '/home/sinton/sjsu1f/mlbcalmindexk.csv' for reading: No such file or directory tail: cannot open '/home/sinton/sjsu1f/mlbavgwindindexk.csv' for reading: No such file or directory tail: cannot open '/home/sinton/sjsu1f/mlbcalmindexk.csv' for reading: No such file or directory tail: cannot open '/home/sinton/sjsu1f/mlbavgwindindexk.csv' for reading: No such file or directory tail: cannot open '/home/sinton/sjsu1f/mlbcalmindexk.csv' for reading: No such file or directory tail: cannot open '/home/sinton/sjsu1f/mlbavgwindindexk.csv' for reading: No such file or directory tail: cannot open '/home/sinton/sjsu1f/mlbcalmindexk.csv' for reading: No such file or directory tail: cannot open '/home/sinton/sjsu1f/mlbavgwindindexk.csv' for reading: No such file or directory tail: cannot open '/home/sinton/sjsu1f/mlbcalmindexk.csv' for reading: No such file or directory tail: cannot open '/home/sinton/sjsu1f/mlbavgwindindexk.csv' for reading: No such file or directory tail: cannot open '/home/sinton/sjsu1f/mlbcalmindexk.csv' for reading: No such file or directory tail: cannot open '/home/sinton/sjsu1f/mlbavgwindindexk.csv' for reading: No such file or directory % Total % Received % Xferd Average Speed Time Time Time Current Dload Upload Total Spent Left Speed 0 0 0 0 0 0 0 0 --:--:-- --:--:-- --:--:-- 0 100 430 100 430 0 0 7678 0 --:--:-- --:--:-- --:--:-- 7678 % Total % Received % Xferd Average Speed Time Time Time Current Dload Upload Total Spent Left Speed 0 0 0 0 0 0 0 0 --:--:-- --:--:-- --:--:-- 0 100 432 100 432 0 0 5268 0 --:--:-- --:--:-- --:--:-- 5204 100 432 100 432 0 0 5268 0 --:--:-- --:--:-- --:--:-- 5204 % Total % Received % Xferd Average Speed Time Time Time Current Dload Upload Total Spent Left Speed 0 0 0 0 0 0 0 0 --:--:-- --:--:-- --:--:-- 0 100 427 100 427 0 0 7491 0 --:--:-- --:--:-- --:--:-- 7491 % Total % Received % Xferd Average Speed Time Time Time Current Dload Upload Total Spent Left Speed 0 0 0 0 0 0 0 0 --:--:-- --:--:-- --:--:-- 0 100 429 100 429 0 0 11000 0 --:--:-- --:--:-- --:--:-- 11000 % Total % Received % Xferd Average Speed Time Time Time Current Dload Upload Total Spent Left Speed 0 0 0 0 0 0 0 0 --:--:-- --:--:-- --:--:-- 0 100 428 100 428 0 0 3170 0 --:--:-- --:--:-- --:--:-- 3170 tail: cannot open '/home/sinton/sjsu1f/mlbcalmindexk.csv' for reading: No such file or directory tail: cannot open '/home/sinton/sjsu1f/mlbavgwindindexk.csv' for reading: No such file or directory tail: cannot open '/home/sinton/sjsu1f/mlbcalmindexk.csv' for reading: No such file or directory tail: cannot open '/home/sinton/sjsu1f/mlbavgwindindexk.csv' for reading: No such file or directory tail: cannot open '/home/sinton/sjsu1f/mlbcalmindexk.csv' for reading: No such file or directory tail: cannot open '/home/sinton/sjsu1f/mlbavgwindindexk.csv' for reading: No such file or directory tail: cannot open '/home/sinton/sjsu1f/mlbcalmindexk.csv' for reading: No such file or directory tail: cannot open '/home/sinton/sjsu1f/mlbavgwindindexk.csv' for reading: No such file or directory tail: cannot open '/home/sinton/sjsu1f/mlbcalmindexk.csv' for reading: No such file or directory tail: cannot open '/home/sinton/sjsu1f/mlbavgwindindexk.csv' for reading: No such file or directory tail: cannot open '/home/sinton/sjsu1f/mlbcalmindexk.csv' for reading: No such file or directory tail: cannot open '/home/sinton/sjsu1f/mlbavgwindindexk.csv' for reading: No such file or directory tail: cannot open '/home/sinton/sjsu1f/mlbcalmindexk.csv' for reading: No such file or directory tail: cannot open '/home/sinton/sjsu1f/mlbavgwindindexk.csv' for reading: No such file or directory tail: cannot open '/home/sinton/sjsu1f/mlbcalmindexk.csv' for reading: No such file or directory tail: cannot open '/home/sinton/sjsu1f/mlbavgwindindexk.csv' for reading: No such file or directory tail: cannot open '/home/sinton/sjsu1f/mlbcalmindexk.csv' for reading: No such file or directory tail: cannot open '/home/sinton/sjsu1f/mlbavgwindindexk.csv' for reading: No such file or directory tail: cannot open '/home/sinton/sjsu1f/mlbcalmindexk.csv' for reading: No such file or directory tail: cannot open '/home/sinton/sjsu1f/mlbavgwindindexk.csv' for reading: No such file or directory tail: cannot open '/home/sinton/sjsu1f/mlbcalmindexk.csv' for reading: No such file or directory tail: cannot open '/home/sinton/sjsu1f/mlbavgwindindexk.csv' for reading: No such file or directory tail: cannot open '/home/sinton/sjsu1f/mlbcalmindexk.csv' for reading: No such file or directory tail: cannot open '/home/sinton/sjsu1f/mlbavgwindindexk.csv' for reading: No such file or directory tail: cannot open '/home/sinton/sjsu1f/mlbcalmindexk.csv' for reading: No such file or directory tail: cannot open '/home/sinton/sjsu1f/mlbavgwindindexk.csv' for reading: No such file or directory tail: cannot open '/home/sinton/sjsu1f/mlbcalmindexk.csv' for reading: No such file or directory tail: cannot open '/home/sinton/sjsu1f/mlbavgwindindexk.csv' for reading: No such file or directory % Total % Received % Xferd Average Speed Time Time Time Current Dload Upload Total Spent Left Speed 0 0 0 0 0 0 0 0 --:--:-- --:--:-- --:--:-- 0 100 431 100 431 0 0 3145 0 --:--:-- --:--:-- --:--:-- 3145 % Total % Received % Xferd Average Speed Time Time Time Current Dload Upload Total Spent Left Speed 0 0 0 0 0 0 0 0 --:--:-- --:--:-- --:--:-- 0 100 432 100 432 0 0 11368 0 --:--:-- --:--:-- --:--:-- 11368 % Total % Received % Xferd Average Speed Time Time Time Current Dload Upload Total Spent Left Speed 0 0 0 0 0 0 0 0 --:--:-- --:--:-- --:--:-- 0 100 428 100 428 0 0 9304 0 --:--:-- --:--:-- --:--:-- 9304 % Total % Received % Xferd Average Speed Time Time Time Current Dload Upload Total Spent Left Speed 0 0 0 0 0 0 0 0 --:--:-- --:--:-- --:--:-- 0 100 429 100 429 0 0 9127 0 --:--:-- --:--:-- --:--:-- 9127 % Total % Received % Xferd Average Speed Time Time Time Current Dload Upload Total Spent Left Speed 0 0 0 0 0 0 0 0 --:--:-- --:--:-- --:--:-- 0 100 428 100 428 0 0 2183 0 --:--:-- --:--:-- --:--:-- 2183 tail: cannot open '/home/sinton/sjsu1f/mlbcalmindexk.csv' for reading: No such file or directory tail: cannot open '/home/sinton/sjsu1f/mlbavgwindindexk.csv' for reading: No such file or directory tail: cannot open '/home/sinton/sjsu1f/mlbcalmindexk.csv' for reading: No such file or directory tail: cannot open '/home/sinton/sjsu1f/mlbavgwindindexk.csv' for reading: No such file or directory tail: cannot open '/home/sinton/sjsu1f/mlbcalmindexk.csv' for reading: No such file or directory tail: cannot open '/home/sinton/sjsu1f/mlbavgwindindexk.csv' for reading: No such file or directory tail: cannot open '/home/sinton/sjsu1f/mlbcalmindexk.csv' for reading: No such file or directory tail: cannot open '/home/sinton/sjsu1f/mlbavgwindindexk.csv' for reading: No such file or directory tail: cannot open '/home/sinton/sjsu1f/mlbcalmindexk.csv' for reading: No such file or directory tail: cannot open '/home/sinton/sjsu1f/mlbavgwindindexk.csv' for reading: No such file or directory tail: cannot open '/home/sinton/sjsu1f/mlbcalmindexk.csv' for reading: No such file or directory tail: cannot open '/home/sinton/sjsu1f/mlbavgwindindexk.csv' for reading: No such file or directory tail: cannot open '/home/sinton/sjsu1f/mlbcalmindexk.csv' for reading: No such file or directory tail: cannot open '/home/sinton/sjsu1f/mlbavgwindindexk.csv' for reading: No such file or directory tail: cannot open '/home/sinton/sjsu1f/mlbcalmindexk.csv' for reading: No such file or directory tail: cannot open '/home/sinton/sjsu1f/mlbavgwindindexk.csv' for reading: No such file or directory tail: cannot open '/home/sinton/sjsu1f/mlbcalmindexk.csv' for reading: No such file or directory tail: cannot open '/home/sinton/sjsu1f/mlbavgwindindexk.csv' for reading: No such file or directory tail: cannot open '/home/sinton/sjsu1f/mlbcalmindexk.csv' for reading: No such file or directory tail: cannot open '/home/sinton/sjsu1f/mlbavgwindindexk.csv' for reading: No such file or directory tail: cannot open '/home/sinton/sjsu1f/mlbcalmindexk.csv' for reading: No such file or directory tail: cannot open '/home/sinton/sjsu1f/mlbavgwindindexk.csv' for reading: No such file or directory tail: cannot open '/home/sinton/sjsu1f/mlbcalmindexk.csv' for reading: No such file or directory tail: cannot open '/home/sinton/sjsu1f/mlbavgwindindexk.csv' for reading: No such file or directory tail: cannot open '/home/sinton/sjsu1f/mlbcalmindexk.csv' for reading: No such file or directory tail: cannot open '/home/sinton/sjsu1f/mlbavgwindindexk.csv' for reading: No such file or directory % Total % Received % Xferd Average Speed Time Time Time Current Dload Upload Total Spent Left Speed 0 0 0 0 0 0 0 0 --:--:-- --:--:-- --:--:-- 0 100 432 100 432 0 0 3428 0 --:--:-- --:--:-- --:--:-- 3428 % Total % Received % Xferd Average Speed Time Time Time Current Dload Upload Total Spent Left Speed 0 0 0 0 0 0 0 0 --:--:-- --:--:-- --:--:-- 0 0 0 0 0 0 0 0 0 --:--:-- --:--:-- --:--:-- 0 100 432 100 432 0 0 1963 0 --:--:-- --:--:-- --:--:-- 1954 % Total % Received % Xferd Average Speed Time Time Time Current Dload Upload Total Spent Left Speed 0 0 0 0 0 0 0 0 --:--:-- --:--:-- --:--:-- 0 100 429 100 429 0 0 4165 0 --:--:-- --:--:-- --:--:-- 4205 % Total % Received % Xferd Average Speed Time Time Time Current Dload Upload Total Spent Left Speed 0 0 0 0 0 0 0 0 --:--:-- --:--:-- --:--:-- 0 100 432 100 432 0 0 4595 0 --:--:-- --:--:-- --:--:-- 4595 % Total % Received % Xferd Average Speed Time Time Time Current Dload Upload Total Spent Left Speed 0 0 0 0 0 0 0 0 --:--:-- --:--:-- --:--:-- 0 100 431 100 431 0 0 2187 0 --:--:-- --:--:-- --:--:-- 2187 tail: cannot open '/home/sinton/sjsu1f/mlbcalmindexk.csv' for reading: No such file or directory tail: cannot open '/home/sinton/sjsu1f/mlbavgwindindexk.csv' for reading: No such file or directory tail: cannot open '/home/sinton/sjsu1f/mlbcalmindexk.csv' for reading: No such file or directory tail: cannot open '/home/sinton/sjsu1f/mlbavgwindindexk.csv' for reading: No such file or directory tail: cannot open '/home/sinton/sjsu1f/mlbcalmindexk.csv' for reading: No such file or directory tail: cannot open '/home/sinton/sjsu1f/mlbavgwindindexk.csv' for reading: No such file or directory tail: cannot open '/home/sinton/sjsu1f/mlbcalmindexk.csv' for reading: No such file or directory tail: cannot open '/home/sinton/sjsu1f/mlbavgwindindexk.csv' for reading: No such file or directory mv: cannot stat '/home/sinton/public_html/John1f/oakstuck': No such file or directory tail: cannot open '/home/sinton/sjsu1f/mlbcalmindexk.csv' for reading: No such file or directory tail: cannot open '/home/sinton/sjsu1f/mlbavgwindindexk.csv' for reading: No such file or directory tail: cannot open '/home/sinton/sjsu1f/mlbcalmindexk.csv' for reading: No such file or directory tail: cannot open '/home/sinton/sjsu1f/mlbavgwindindexk.csv' for reading: No such file or directory tail: cannot open '/home/sinton/sjsu1f/mlbcalmindexk.csv' for reading: No such file or directory tail: cannot open '/home/sinton/sjsu1f/mlbavgwindindexk.csv' for reading: No such file or directory tail: cannot open '/home/sinton/sjsu1f/mlbcalmindexk.csv' for reading: No such file or directory tail: cannot open '/home/sinton/sjsu1f/mlbavgwindindexk.csv' for reading: No such file or directory tail: cannot open '/home/sinton/sjsu1f/mlbcalmindexk.csv' for reading: No such file or directory tail: cannot open '/home/sinton/sjsu1f/mlbavgwindindexk.csv' for reading: No such file or directory tail: cannot open '/home/sinton/sjsu1f/mlbcalmindexk.csv' for reading: No such file or directory tail: cannot open '/home/sinton/sjsu1f/mlbavgwindindexk.csv' for reading: No such file or directory tail: cannot open '/home/sinton/sjsu1f/mlbcalmindexk.csv' for reading: No such file or directory tail: cannot open '/home/sinton/sjsu1f/mlbavgwindindexk.csv' for reading: No such file or directory tail: cannot open '/home/sinton/sjsu1f/mlbcalmindexk.csv' for reading: No such file or directory tail: cannot open '/home/sinton/sjsu1f/mlbavgwindindexk.csv' for reading: No such file or directory tail: cannot open '/home/sinton/sjsu1f/mlbcalmindexk.csv' for reading: No such file or directory tail: cannot open '/home/sinton/sjsu1f/mlbavgwindindexk.csv' for reading: No such file or directory % Total % Received % Xferd Average Speed Time Time Time Current Dload Upload Total Spent Left Speed 0 0 0 0 0 0 0 0 --:--:-- --:--:-- --:--:-- 0 100 432 100 432 0 0 2716 0 --:--:-- --:--:-- --:--:-- 2716 % Total % Received % Xferd Average Speed Time Time Time Current Dload Upload Total Spent Left Speed 0 0 0 0 0 0 0 0 --:--:-- --:--:-- --:--:-- 0 100 432 100 432 0 0 4153 0 --:--:-- --:--:-- --:--:-- 4153 % Total % Received % Xferd Average Speed Time Time Time Current Dload Upload Total Spent Left Speed 0 0 0 0 0 0 0 0 --:--:-- --:--:-- --:--:-- 0 100 429 100 429 0 0 2294 0 --:--:-- --:--:-- --:--:-- 2306 % Total % Received % Xferd Average Speed Time Time Time Current Dload Upload Total Spent Left Speed 0 0 0 0 0 0 0 0 --:--:-- --:--:-- --:--:-- 0 100 431 100 431 0 0 5525 0 --:--:-- --:--:-- --:--:-- 5597 % Total % Received % Xferd Average Speed Time Time Time Current Dload Upload Total Spent Left Speed 0 0 0 0 0 0 0 0 --:--:-- --:--:-- --:--:-- 0 100 430 100 430 0 0 2047 0 --:--:-- --:--:-- --:--:-- 2047 tail: cannot open '/home/sinton/sjsu1f/mlbcalmindexk.csv' for reading: No such file or directory tail: cannot open '/home/sinton/sjsu1f/mlbavgwindindexk.csv' for reading: No such file or directory tail: cannot open '/home/sinton/sjsu1f/mlbcalmindexk.csv' for reading: No such file or directory tail: cannot open '/home/sinton/sjsu1f/mlbavgwindindexk.csv' for reading: No such file or directory tail: cannot open '/home/sinton/sjsu1f/mlbcalmindexk.csv' for reading: No such file or directory tail: cannot open '/home/sinton/sjsu1f/mlbavgwindindexk.csv' for reading: No such file or directory tail: cannot open '/home/sinton/sjsu1f/mlbcalmindexk.csv' for reading: No such file or directory tail: cannot open '/home/sinton/sjsu1f/mlbavgwindindexk.csv' for reading: No such file or directory tail: cannot open '/home/sinton/sjsu1f/mlbcalmindexk.csv' for reading: No such file or directory tail: cannot open '/home/sinton/sjsu1f/mlbavgwindindexk.csv' for reading: No such file or directory tail: cannot open '/home/sinton/sjsu1f/mlbcalmindexk.csv' for reading: No such file or directory tail: cannot open '/home/sinton/sjsu1f/mlbavgwindindexk.csv' for reading: No such file or directory tail: cannot open '/home/sinton/sjsu1f/mlbcalmindexk.csv' for reading: No such file or directory tail: cannot open '/home/sinton/sjsu1f/mlbavgwindindexk.csv' for reading: No such file or directory tail: cannot open '/home/sinton/sjsu1f/mlbcalmindexk.csv' for reading: No such file or directory tail: cannot open '/home/sinton/sjsu1f/mlbavgwindindexk.csv' for reading: No such file or directory tail: cannot open '/home/sinton/sjsu1f/mlbcalmindexk.csv' for reading: No such file or directory tail: cannot open '/home/sinton/sjsu1f/mlbavgwindindexk.csv' for reading: No such file or directory tail: cannot open '/home/sinton/sjsu1f/mlbcalmindexk.csv' for reading: No such file or directory tail: cannot open '/home/sinton/sjsu1f/mlbavgwindindexk.csv' for reading: No such file or directory tail: cannot open '/home/sinton/sjsu1f/mlbcalmindexk.csv' for reading: No such file or directory tail: cannot open '/home/sinton/sjsu1f/mlbavgwindindexk.csv' for reading: No such file or directory % Total % Received % Xferd Average Speed Time Time Time Current Dload Upload Total Spent Left Speed 0 0 0 0 0 0 0 0 --:--:-- --:--:-- --:--:-- 0 100 432 100 432 0 0 1244 0 --:--:-- --:--:-- --:--:-- 1244 % Total % Received % Xferd Average Speed Time Time Time Current Dload Upload Total Spent Left Speed 0 0 0 0 0 0 0 0 --:--:-- --:--:-- --:--:-- 0 0 0 0 0 0 0 0 0 --:--:-- --:--:-- --:--:-- 0 100 432 100 432 0 0 7081 0 --:--:-- --:--:-- --:--:-- 6967 % Total % Received % Xferd Average Speed Time Time Time Current Dload Upload Total Spent Left Speed 0 0 0 0 0 0 0 0 --:--:-- --:--:-- --:--:-- 0 100 429 100 429 0 0 10463 0 --:--:-- --:--:-- --:--:-- 10463 % Total % Received % Xferd Average Speed Time Time Time Current Dload Upload Total Spent Left Speed 0 0 0 0 0 0 0 0 --:--:-- --:--:-- --:--:-- 0 100 431 100 431 0 0 4585 0 --:--:-- --:--:-- --:--:-- 4585 % Total % Received % Xferd Average Speed Time Time Time Current Dload Upload Total Spent Left Speed 0 0 0 0 0 0 0 0 --:--:-- --:--:-- --:--:-- 0 100 430 100 430 0 0 6935 0 --:--:-- --:--:-- --:--:-- 7049 tail: cannot open '/home/sinton/sjsu1f/mlbcalmindexk.csv' for reading: No such file or directory tail: cannot open '/home/sinton/sjsu1f/mlbavgwindindexk.csv' for reading: No such file or directory tail: cannot open '/home/sinton/sjsu1f/mlbcalmindexk.csv' for reading: No such file or directory tail: cannot open '/home/sinton/sjsu1f/mlbavgwindindexk.csv' for reading: No such file or directory tail: cannot open '/home/sinton/sjsu1f/mlbcalmindexk.csv' for reading: No such file or directory tail: cannot open '/home/sinton/sjsu1f/mlbavgwindindexk.csv' for reading: No such file or directory tail: cannot open '/home/sinton/sjsu1f/mlbcalmindexk.csv' for reading: No such file or directory tail: cannot open '/home/sinton/sjsu1f/mlbavgwindindexk.csv' for reading: No such file or directory tail: cannot open '/home/sinton/sjsu1f/mlbcalmindexk.csv' for reading: No such file or directory tail: cannot open '/home/sinton/sjsu1f/mlbavgwindindexk.csv' for reading: No such file or directory tail: cannot open '/home/sinton/sjsu1f/mlbcalmindexk.csv' for reading: No such file or directory tail: cannot open '/home/sinton/sjsu1f/mlbavgwindindexk.csv' for reading: No such file or directory tail: cannot open '/home/sinton/sjsu1f/mlbcalmindexk.csv' for reading: No such file or directory tail: cannot open '/home/sinton/sjsu1f/mlbavgwindindexk.csv' for reading: No such file or directory tail: cannot open '/home/sinton/sjsu1f/mlbcalmindexk.csv' for reading: No such file or directory tail: cannot open '/home/sinton/sjsu1f/mlbavgwindindexk.csv' for reading: No such file or directory tail: cannot open '/home/sinton/sjsu1f/mlbcalmindexk.csv' for reading: No such file or directory tail: cannot open '/home/sinton/sjsu1f/mlbavgwindindexk.csv' for reading: No such file or directory tail: cannot open '/home/sinton/sjsu1f/mlbcalmindexk.csv' for reading: No such file or directory tail: cannot open '/home/sinton/sjsu1f/mlbavgwindindexk.csv' for reading: No such file or directory tail: cannot open '/home/sinton/sjsu1f/mlbcalmindexk.csv' for reading: No such file or directory tail: cannot open '/home/sinton/sjsu1f/mlbavgwindindexk.csv' for reading: No such file or directory tail: cannot open '/home/sinton/sjsu1f/mlbcalmindexk.csv' for reading: No such file or directory tail: cannot open '/home/sinton/sjsu1f/mlbavgwindindexk.csv' for reading: No such file or directory tail: cannot open '/home/sinton/sjsu1f/mlbcalmindexk.csv' for reading: No such file or directory tail: cannot open '/home/sinton/sjsu1f/mlbavgwindindexk.csv' for reading: No such file or directory tail: cannot open '/home/sinton/sjsu1f/mlbcalmindexk.csv' for reading: No such file or directory tail: cannot open '/home/sinton/sjsu1f/mlbavgwindindexk.csv' for reading: No such file or directory tail: cannot open '/home/sinton/sjsu1f/mlbcalmindexk.csv' for reading: No such file or directory tail: cannot open '/home/sinton/sjsu1f/mlbavgwindindexk.csv' for reading: No such file or directory tail: cannot open '/home/sinton/sjsu1f/mlbcalmindexk.csv' for reading: No such file or directory tail: cannot open '/home/sinton/sjsu1f/mlbavgwindindexk.csv' for reading: No such file or directory tail: cannot open '/home/sinton/sjsu1f/mlbcalmindexk.csv' for reading: No such file or directory tail: cannot open '/home/sinton/sjsu1f/mlbavgwindindexk.csv' for reading: No such file or directory % Total % Received % Xferd Average Speed Time Time Time Current Dload Upload Total Spent Left Speed 0 0 0 0 0 0 0 0 --:--:-- --:--:-- --:--:-- 0 100 432 100 432 0 0 1313 0 --:--:-- --:--:-- --:--:-- 1313 % Total % Received % Xferd Average Speed Time Time Time Current Dload Upload Total Spent Left Speed 0 0 0 0 0 0 0 0 --:--:-- --:--:-- --:--:-- 0 0 0 0 0 0 0 0 0 --:--:-- --:--:-- --:--:-- 0 100 432 100 432 0 0 1325 0 --:--:-- --:--:-- --:--:-- 1325 % Total % Received % Xferd Average Speed Time Time Time Current Dload Upload Total Spent Left Speed 0 0 0 0 0 0 0 0 --:--:-- --:--:-- --:--:-- 0 100 429 100 429 0 0 8580 0 --:--:-- --:--:-- --:--:-- 8580 % Total % Received % Xferd Average Speed Time Time Time Current Dload Upload Total Spent Left Speed 0 0 0 0 0 0 0 0 --:--:-- --:--:-- --:--:-- 0 100 432 100 432 0 0 3724 0 --:--:-- --:--:-- --:--:-- 3724 % Total % Received % Xferd Average Speed Time Time Time Current Dload Upload Total Spent Left Speed 0 0 0 0 0 0 0 0 --:--:-- --:--:-- --:--:-- 0 100 431 100 431 0 0 5320 0 --:--:-- --:--:-- --:--:-- 5320 tail: cannot open '/home/sinton/sjsu1f/mlbcalmindexk.csv' for reading: No such file or directory tail: cannot open '/home/sinton/sjsu1f/mlbavgwindindexk.csv' for reading: No such file or directory tail: cannot open '/home/sinton/sjsu1f/mlbcalmindexk.csv' for reading: No such file or directory tail: cannot open '/home/sinton/sjsu1f/mlbavgwindindexk.csv' for reading: No such file or directory tail: cannot open '/home/sinton/sjsu1f/mlbcalmindexk.csv' for reading: No such file or directory tail: cannot open '/home/sinton/sjsu1f/mlbavgwindindexk.csv' for reading: No such file or directory tail: cannot open '/home/sinton/sjsu1f/mlbcalmindexk.csv' for reading: No such file or directory tail: cannot open '/home/sinton/sjsu1f/mlbavgwindindexk.csv' for reading: No such file or directory tail: cannot open '/home/sinton/sjsu1f/mlbcalmindexk.csv' for reading: No such file or directory tail: cannot open '/home/sinton/sjsu1f/mlbavgwindindexk.csv' for reading: No such file or directory tail: cannot open '/home/sinton/sjsu1f/mlbcalmindexk.csv' for reading: No such file or directory tail: cannot open '/home/sinton/sjsu1f/mlbavgwindindexk.csv' for reading: No such file or directory tail: cannot open '/home/sinton/sjsu1f/mlbcalmindexk.csv' for reading: No such file or directory tail: cannot open '/home/sinton/sjsu1f/mlbavgwindindexk.csv' for reading: No such file or directory tail: cannot open '/home/sinton/sjsu1f/mlbcalmindexk.csv' for reading: No such file or directory tail: cannot open '/home/sinton/sjsu1f/mlbavgwindindexk.csv' for reading: No such file or directory mv: cannot stat '/home/sinton/public_html/John1f/oakstuck': No such file or directory tail: cannot open '/home/sinton/sjsu1f/mlbcalmindexk.csv' for reading: No such file or directory tail: cannot open '/home/sinton/sjsu1f/mlbavgwindindexk.csv' for reading: No such file or directory tail: cannot open '/home/sinton/sjsu1f/mlbcalmindexk.csv' for reading: No such file or directory tail: cannot open '/home/sinton/sjsu1f/mlbavgwindindexk.csv' for reading: No such file or directory tail: cannot open '/home/sinton/sjsu1f/mlbcalmindexk.csv' for reading: No such file or directory tail: cannot open '/home/sinton/sjsu1f/mlbavgwindindexk.csv' for reading: No such file or directory tail: cannot open '/home/sinton/sjsu1f/mlbcalmindexk.csv' for reading: No such file or directory tail: cannot open '/home/sinton/sjsu1f/mlbavgwindindexk.csv' for reading: No such file or directory tail: cannot open '/home/sinton/sjsu1f/mlbcalmindexk.csv' for reading: No such file or directory tail: cannot open '/home/sinton/sjsu1f/mlbavgwindindexk.csv' for reading: No such file or directory % Total % Received % Xferd Average Speed Time Time Time Current Dload Upload Total Spent Left Speed 0 0 0 0 0 0 0 0 --:--:-- --:--:-- --:--:-- 0 100 427 100 427 0 0 2511 0 --:--:-- --:--:-- --:--:-- 2511 % Total % Received % Xferd Average Speed Time Time Time Current Dload Upload Total Spent Left Speed 0 0 0 0 0 0 0 0 --:--:-- --:--:-- --:--:-- 0 100 431 100 431 0 0 2520 0 --:--:-- --:--:-- --:--:-- 2520 % Total % Received % Xferd Average Speed Time Time Time Current Dload Upload Total Spent Left Speed 0 0 0 0 0 0 0 0 --:--:-- --:--:-- --:--:-- 0 100 429 100 429 0 0 8250 0 --:--:-- --:--:-- --:--:-- 8250 % Total % Received % Xferd Average Speed Time Time Time Current Dload Upload Total Spent Left Speed 0 0 0 0 0 0 0 0 --:--:-- --:--:-- --:--:-- 0 100 431 100 431 0 0 1882 0 --:--:-- --:--:-- --:--:-- 1882 % Total % Received % Xferd Average Speed Time Time Time Current Dload Upload Total Spent Left Speed 0 0 0 0 0 0 0 0 --:--:-- --:--:-- --:--:-- 0 100 430 100 430 0 0 4300 0 --:--:-- --:--:-- --:--:-- 4300 tail: cannot open '/home/sinton/sjsu1f/mlbcalmindexk.csv' for reading: No such file or directory tail: cannot open '/home/sinton/sjsu1f/mlbavgwindindexk.csv' for reading: No such file or directory tail: cannot open '/home/sinton/sjsu1f/mlbcalmindexk.csv' for reading: No such file or directory tail: cannot open '/home/sinton/sjsu1f/mlbavgwindindexk.csv' for reading: No such file or directory tail: cannot open '/home/sinton/sjsu1f/mlbcalmindexk.csv' for reading: No such file or directory tail: cannot open '/home/sinton/sjsu1f/mlbavgwindindexk.csv' for reading: No such file or directory tail: cannot open '/home/sinton/sjsu1f/mlbcalmindexk.csv' for reading: No such file or directory tail: cannot open '/home/sinton/sjsu1f/mlbavgwindindexk.csv' for reading: No such file or directory tail: cannot open '/home/sinton/sjsu1f/mlbcalmindexk.csv' for reading: No such file or directory tail: cannot open '/home/sinton/sjsu1f/mlbavgwindindexk.csv' for reading: No such file or directory tail: cannot open '/home/sinton/sjsu1f/mlbcalmindexk.csv' for reading: No such file or directory tail: cannot open '/home/sinton/sjsu1f/mlbavgwindindexk.csv' for reading: No such file or directory tail: cannot open '/home/sinton/sjsu1f/mlbcalmindexk.csv' for reading: No such file or directory tail: cannot open '/home/sinton/sjsu1f/mlbavgwindindexk.csv' for reading: No such file or directory tail: cannot open '/home/sinton/sjsu1f/mlbcalmindexk.csv' for reading: No such file or directory tail: cannot open '/home/sinton/sjsu1f/mlbavgwindindexk.csv' for reading: No such file or directory tail: cannot open '/home/sinton/sjsu1f/mlbcalmindexk.csv' for reading: No such file or directory tail: cannot open '/home/sinton/sjsu1f/mlbavgwindindexk.csv' for reading: No such file or directory tail: cannot open '/home/sinton/sjsu1f/mlbcalmindexk.csv' for reading: No such file or directory tail: cannot open '/home/sinton/sjsu1f/mlbavgwindindexk.csv' for reading: No such file or directory tail: cannot open '/home/sinton/sjsu1f/mlbcalmindexk.csv' for reading: No such file or directory tail: cannot open '/home/sinton/sjsu1f/mlbavgwindindexk.csv' for reading: No such file or directory tail: cannot open '/home/sinton/sjsu1f/mlbcalmindexk.csv' for reading: No such file or directory tail: cannot open '/home/sinton/sjsu1f/mlbavgwindindexk.csv' for reading: No such file or directory tail: cannot open '/home/sinton/sjsu1f/mlbcalmindexk.csv' for reading: No such file or directory tail: cannot open '/home/sinton/sjsu1f/mlbavgwindindexk.csv' for reading: No such file or directory % Total % Received % Xferd Average Speed Time Time Time Current Dload Upload Total Spent Left Speed 0 0 0 0 0 0 0 0 --:--:-- --:--:-- --:--:-- 0 100 431 100 431 0 0 4634 0 --:--:-- --:--:-- --:--:-- 4634 % Total % Received % Xferd Average Speed Time Time Time Current Dload Upload Total Spent Left Speed 0 0 0 0 0 0 0 0 --:--:-- --:--:-- --:--:-- 0 100 431 100 431 0 0 3918 0 --:--:-- --:--:-- --:--:-- 3918 % Total % Received % Xferd Average Speed Time Time Time Current Dload Upload Total Spent Left Speed 0 0 0 0 0 0 0 0 --:--:-- --:--:-- --:--:-- 0 100 431 100 431 0 0 2745 0 --:--:-- --:--:-- --:--:-- 2727 100 431 100 431 0 0 2745 0 --:--:-- --:--:-- --:--:-- 2727 % Total % Received % Xferd Average Speed Time Time Time Current Dload Upload Total Spent Left Speed 0 0 0 0 0 0 0 0 --:--:-- --:--:-- --:--:-- 0 100 431 100 431 0 0 2952 0 --:--:-- --:--:-- --:--:-- 2952 % Total % Received % Xferd Average Speed Time Time Time Current Dload Upload Total Spent Left Speed 0 0 0 0 0 0 0 0 --:--:-- --:--:-- --:--:-- 0 100 430 100 430 0 0 1414 0 --:--:-- --:--:-- --:--:-- 1419 tail: cannot open '/home/sinton/sjsu1f/mlbcalmindexk.csv' for reading: No such file or directory tail: cannot open '/home/sinton/sjsu1f/mlbavgwindindexk.csv' for reading: No such file or directory tail: cannot open '/home/sinton/sjsu1f/mlbcalmindexk.csv' for reading: No such file or directory tail: cannot open '/home/sinton/sjsu1f/mlbavgwindindexk.csv' for reading: No such file or directory tail: cannot open '/home/sinton/sjsu1f/mlbcalmindexk.csv' for reading: No such file or directory tail: cannot open '/home/sinton/sjsu1f/mlbavgwindindexk.csv' for reading: No such file or directory tail: cannot open '/home/sinton/sjsu1f/mlbcalmindexk.csv' for reading: No such file or directory tail: cannot open '/home/sinton/sjsu1f/mlbavgwindindexk.csv' for reading: No such file or directory tail: cannot open '/home/sinton/sjsu1f/mlbcalmindexk.csv' for reading: No such file or directory tail: cannot open '/home/sinton/sjsu1f/mlbavgwindindexk.csv' for reading: No such file or directory tail: cannot open '/home/sinton/sjsu1f/mlbcalmindexk.csv' for reading: No such file or directory tail: cannot open '/home/sinton/sjsu1f/mlbavgwindindexk.csv' for reading: No such file or directory tail: cannot open '/home/sinton/sjsu1f/mlbcalmindexk.csv' for reading: No such file or directory tail: cannot open '/home/sinton/sjsu1f/mlbavgwindindexk.csv' for reading: No such file or directory tail: cannot open '/home/sinton/sjsu1f/mlbcalmindexk.csv' for reading: No such file or directory tail: cannot open '/home/sinton/sjsu1f/mlbavgwindindexk.csv' for reading: No such file or directory tail: cannot open '/home/sinton/sjsu1f/mlbcalmindexk.csv' for reading: No such file or directory tail: cannot open '/home/sinton/sjsu1f/mlbavgwindindexk.csv' for reading: No such file or directory tail: cannot open '/home/sinton/sjsu1f/mlbcalmindexk.csv' for reading: No such file or directory tail: cannot open '/home/sinton/sjsu1f/mlbavgwindindexk.csv' for reading: No such file or directory tail: cannot open '/home/sinton/sjsu1f/mlbcalmindexk.csv' for reading: No such file or directory tail: cannot open '/home/sinton/sjsu1f/mlbavgwindindexk.csv' for reading: No such file or directory tail: cannot open '/home/sinton/sjsu1f/mlbcalmindexk.csv' for reading: No such file or directory tail: cannot open '/home/sinton/sjsu1f/mlbavgwindindexk.csv' for reading: No such file or directory tail: cannot open '/home/sinton/sjsu1f/mlbcalmindexk.csv' for reading: No such file or directory tail: cannot open '/home/sinton/sjsu1f/mlbavgwindindexk.csv' for reading: No such file or directory tail: cannot open '/home/sinton/sjsu1f/mlbcalmindexk.csv' for reading: No such file or directory tail: cannot open '/home/sinton/sjsu1f/mlbavgwindindexk.csv' for reading: No such file or directory % Total % Received % Xferd Average Speed Time Time Time Current Dload Upload Total Spent Left Speed 0 0 0 0 0 0 0 0 --:--:-- --:--:-- --:--:-- 0 100 431 100 431 0 0 1651 0 --:--:-- --:--:-- --:--:-- 1651 % Total % Received % Xferd Average Speed Time Time Time Current Dload Upload Total Spent Left Speed 0 0 0 0 0 0 0 0 --:--:-- --:--:-- --:--:-- 0 0 0 0 0 0 0 0 0 --:--:-- --:--:-- --:--:-- 0 100 428 100 428 0 0 1902 0 --:--:-- --:--:-- --:--:-- 1893 % Total % Received % Xferd Average Speed Time Time Time Current Dload Upload Total Spent Left Speed 0 0 0 0 0 0 0 0 --:--:-- --:--:-- --:--:-- 0 100 430 100 430 0 0 5119 0 --:--:-- --:--:-- --:--:-- 5180 % Total % Received % Xferd Average Speed Time Time Time Current Dload Upload Total Spent Left Speed 0 0 0 0 0 0 0 0 --:--:-- --:--:-- --:--:-- 0 100 431 100 431 0 0 6157 0 --:--:-- --:--:-- --:--:-- 6157 % Total % Received % Xferd Average Speed Time Time Time Current Dload Upload Total Spent Left Speed 0 0 0 0 0 0 0 0 --:--:-- --:--:-- --:--:-- 0 100 430 100 430 0 0 2239 0 --:--:-- --:--:-- --:--:-- 2251 cat: /home/sinton/1f/weather1.txt: No such file or directory cat: /home/sinton/1f/weather2.txt: No such file or directory cat: /home/sinton/1f/weather3.txt: No such file or directory cat: /home/sinton/1f/weather4.txt: No such file or directory tail: cannot open '/home/sinton/sjsu1f/mlbcalmindexk.csv' for reading: No such file or directory tail: cannot open '/home/sinton/sjsu1f/mlbavgwindindexk.csv' for reading: No such file or directory tail: cannot open '/home/sinton/sjsu1f/mlbcalmindexk.csv' for reading: No such file or directory tail: cannot open '/home/sinton/sjsu1f/mlbavgwindindexk.csv' for reading: No such file or directory tail: cannot open '/home/sinton/sjsu1f/mlbcalmindexk.csv' for reading: No such file or directory tail: cannot open '/home/sinton/sjsu1f/mlbavgwindindexk.csv' for reading: No such file or directory tail: cannot open '/home/sinton/sjsu1f/mlbcalmindexk.csv' for reading: No such file or directory tail: cannot open '/home/sinton/sjsu1f/mlbavgwindindexk.csv' for reading: No such file or directory tail: cannot open '/home/sinton/sjsu1f/mlbcalmindexk.csv' for reading: No such file or directory tail: cannot open '/home/sinton/sjsu1f/mlbavgwindindexk.csv' for reading: No such file or directory tail: cannot open '/home/sinton/sjsu1f/mlbcalmindexk.csv' for reading: No such file or directory tail: cannot open '/home/sinton/sjsu1f/mlbavgwindindexk.csv' for reading: No such file or directory tail: cannot open '/home/sinton/sjsu1f/mlbcalmindexk.csv' for reading: No such file or directory tail: cannot open '/home/sinton/sjsu1f/mlbavgwindindexk.csv' for reading: No such file or directory tail: cannot open '/home/sinton/sjsu1f/mlbcalmindexk.csv' for reading: No such file or directory tail: cannot open '/home/sinton/sjsu1f/mlbavgwindindexk.csv' for reading: No such file or directory tail: cannot open '/home/sinton/sjsu1f/mlbcalmindexk.csv' for reading: No such file or directory tail: cannot open '/home/sinton/sjsu1f/mlbavgwindindexk.csv' for reading: No such file or directory tail: cannot open '/home/sinton/sjsu1f/mlbcalmindexk.csv' for reading: No such file or directory tail: cannot open '/home/sinton/sjsu1f/mlbavgwindindexk.csv' for reading: No such file or directory tail: cannot open '/home/sinton/sjsu1f/mlbcalmindexk.csv' for reading: No such file or directory tail: cannot open '/home/sinton/sjsu1f/mlbavgwindindexk.csv' for reading: No such file or directory tail: cannot open '/home/sinton/sjsu1f/mlbcalmindexk.csv' for reading: No such file or directory tail: cannot open '/home/sinton/sjsu1f/mlbavgwindindexk.csv' for reading: No such file or directory tail: cannot open '/home/sinton/sjsu1f/mlbcalmindexk.csv' for reading: No such file or directory tail: cannot open '/home/sinton/sjsu1f/mlbavgwindindexk.csv' for reading: No such file or directory tail: cannot open '/home/sinton/sjsu1f/mlbcalmindexk.csv' for reading: No such file or directory tail: cannot open '/home/sinton/sjsu1f/mlbavgwindindexk.csv' for reading: No such file or directory % Total % Received % Xferd Average Speed Time Time Time Current Dload Upload Total Spent Left Speed 0 0 0 0 0 0 0 0 --:--:-- --:--:-- --:--:-- 0 100 432 100 432 0 0 6084 0 --:--:-- --:--:-- --:--:-- 6084 % Total % Received % Xferd Average Speed Time Time Time Current Dload Upload Total Spent Left Speed 0 0 0 0 0 0 0 0 --:--:-- --:--:-- --:--:-- 0 100 432 100 432 0 0 6260 0 --:--:-- --:--:-- --:--:-- 6260 % Total % Received % Xferd Average Speed Time Time Time Current Dload Upload Total Spent Left Speed 0 0 0 0 0 0 0 0 --:--:-- --:--:-- --:--:-- 0 100 432 100 432 0 0 9191 0 --:--:-- --:--:-- --:--:-- 9191 % Total % Received % Xferd Average Speed Time Time Time Current Dload Upload Total Spent Left Speed 0 0 0 0 0 0 0 0 --:--:-- --:--:-- --:--:-- 0 100 432 100 432 0 0 3200 0 --:--:-- --:--:-- --:--:-- 3200 % Total % Received % Xferd Average Speed Time Time Time Current Dload Upload Total Spent Left Speed 0 0 0 0 0 0 0 0 --:--:-- --:--:-- --:--:-- 0 100 431 100 431 0 0 1995 0 --:--:-- --:--:-- --:--:-- 1995 tail: cannot open '/home/sinton/sjsu1f/mlbcalmindexk.csv' for reading: No such file or directory tail: cannot open '/home/sinton/sjsu1f/mlbavgwindindexk.csv' for reading: No such file or directory tail: cannot open '/home/sinton/sjsu1f/mlbcalmindexk.csv' for reading: No such file or directory tail: cannot open '/home/sinton/sjsu1f/mlbavgwindindexk.csv' for reading: No such file or directory tail: cannot open '/home/sinton/sjsu1f/mlbcalmindexk.csv' for reading: No such file or directory tail: cannot open '/home/sinton/sjsu1f/mlbavgwindindexk.csv' for reading: No such file or directory tail: cannot open '/home/sinton/sjsu1f/mlbcalmindexk.csv' for reading: No such file or directory tail: cannot open '/home/sinton/sjsu1f/mlbavgwindindexk.csv' for reading: No such file or directory tail: cannot open '/home/sinton/sjsu1f/mlbcalmindexk.csv' for reading: No such file or directory tail: cannot open '/home/sinton/sjsu1f/mlbavgwindindexk.csv' for reading: No such file or directory tail: cannot open '/home/sinton/sjsu1f/mlbcalmindexk.csv' for reading: No such file or directory tail: cannot open '/home/sinton/sjsu1f/mlbavgwindindexk.csv' for reading: No such file or directory tail: cannot open '/home/sinton/sjsu1f/mlbcalmindexk.csv' for reading: No such file or directory tail: cannot open '/home/sinton/sjsu1f/mlbavgwindindexk.csv' for reading: No such file or directory tail: cannot open '/home/sinton/sjsu1f/mlbcalmindexk.csv' for reading: No such file or directory tail: cannot open '/home/sinton/sjsu1f/mlbavgwindindexk.csv' for reading: No such file or directory mv: cannot stat '/home/sinton/public_html/John1f/oakstuck': No such file or directory tail: cannot open '/home/sinton/sjsu1f/mlbcalmindexk.csv' for reading: No such file or directory tail: cannot open '/home/sinton/sjsu1f/mlbavgwindindexk.csv' for reading: No such file or directory tail: cannot open '/home/sinton/sjsu1f/mlbcalmindexk.csv' for reading: No such file or directory tail: cannot open '/home/sinton/sjsu1f/mlbavgwindindexk.csv' for reading: No such file or directory % Total % Received % Xferd Average Speed Time Time Time Current Dload Upload Total Spent Left Speed 0 0 0 0 0 0 0 0 --:--:-- --:--:-- --:--:-- 0 100 432 100 432 0 0 7578 0 --:--:-- --:--:-- --:--:-- 7578 % Total % Received % Xferd Average Speed Time Time Time Current Dload Upload Total Spent Left Speed 0 0 0 0 0 0 0 0 --:--:-- --:--:-- --:--:-- 0 100 432 100 432 0 0 11076 0 --:--:-- --:--:-- --:--:-- 11076 % Total % Received % Xferd Average Speed Time Time Time Current Dload Upload Total Spent Left Speed 0 0 0 0 0 0 0 0 --:--:-- --:--:-- --:--:-- 0 100 432 100 432 0 0 9391 0 --:--:-- --:--:-- --:--:-- 9391 % Total % Received % Xferd Average Speed Time Time Time Current Dload Upload Total Spent Left Speed 0 0 0 0 0 0 0 0 --:--:-- --:--:-- --:--:-- 0 100 432 100 432 0 0 6967 0 --:--:-- --:--:-- --:--:-- 6967 % Total % Received % Xferd Average Speed Time Time Time Current Dload Upload Total Spent Left Speed 0 0 0 0 0 0 0 0 --:--:-- --:--:-- --:--:-- 0 100 431 100 431 0 0 4585 0 --:--:-- --:--:-- --:--:-- 4585 tail: cannot open '/home/sinton/sjsu1f/mlbcalmindexk.csv' for reading: No such file or directory tail: cannot open '/home/sinton/sjsu1f/mlbavgwindindexk.csv' for reading: No such file or directory tail: cannot open '/home/sinton/sjsu1f/mlbcalmindexk.csv' for reading: No such file or directory tail: cannot open '/home/sinton/sjsu1f/mlbavgwindindexk.csv' for reading: No such file or directory tail: cannot open '/home/sinton/sjsu1f/mlbcalmindexk.csv' for reading: No such file or directory tail: cannot open '/home/sinton/sjsu1f/mlbavgwindindexk.csv' for reading: No such file or directory tail: cannot open '/home/sinton/sjsu1f/mlbcalmindexk.csv' for reading: No such file or directory tail: cannot open '/home/sinton/sjsu1f/mlbavgwindindexk.csv' for reading: No such file or directory tail: cannot open '/home/sinton/sjsu1f/mlbcalmindexk.csv' for reading: No such file or directory tail: cannot open '/home/sinton/sjsu1f/mlbavgwindindexk.csv' for reading: No such file or directory tail: cannot open '/home/sinton/sjsu1f/mlbcalmindexk.csv' for reading: No such file or directory tail: cannot open '/home/sinton/sjsu1f/mlbavgwindindexk.csv' for reading: No such file or directory tail: cannot open '/home/sinton/sjsu1f/mlbcalmindexk.csv' for reading: No such file or directory tail: cannot open '/home/sinton/sjsu1f/mlbavgwindindexk.csv' for reading: No such file or directory tail: cannot open '/home/sinton/sjsu1f/mlbcalmindexk.csv' for reading: No such file or directory tail: cannot open '/home/sinton/sjsu1f/mlbavgwindindexk.csv' for reading: No such file or directory tail: cannot open '/home/sinton/sjsu1f/mlbcalmindexk.csv' for reading: No such file or directory tail: cannot open '/home/sinton/sjsu1f/mlbavgwindindexk.csv' for reading: No such file or directory tail: cannot open '/home/sinton/sjsu1f/mlbcalmindexk.csv' for reading: No such file or directory tail: cannot open '/home/sinton/sjsu1f/mlbavgwindindexk.csv' for reading: No such file or directory tail: cannot open '/home/sinton/sjsu1f/mlbcalmindexk.csv' for reading: No such file or directory tail: cannot open '/home/sinton/sjsu1f/mlbavgwindindexk.csv' for reading: No such file or directory tail: cannot open '/home/sinton/sjsu1f/mlbcalmindexk.csv' for reading: No such file or directory tail: cannot open '/home/sinton/sjsu1f/mlbavgwindindexk.csv' for reading: No such file or directory tail: cannot open '/home/sinton/sjsu1f/mlbcalmindexk.csv' for reading: No such file or directory tail: cannot open '/home/sinton/sjsu1f/mlbavgwindindexk.csv' for reading: No such file or directory tail: cannot open '/home/sinton/sjsu1f/mlbcalmindexk.csv' for reading: No such file or directory tail: cannot open '/home/sinton/sjsu1f/mlbavgwindindexk.csv' for reading: No such file or directory tail: cannot open '/home/sinton/sjsu1f/mlbcalmindexk.csv' for reading: No such file or directory tail: cannot open '/home/sinton/sjsu1f/mlbavgwindindexk.csv' for reading: No such file or directory tail: cannot open '/home/sinton/sjsu1f/mlbcalmindexk.csv' for reading: No such file or directory tail: cannot open '/home/sinton/sjsu1f/mlbavgwindindexk.csv' for reading: No such file or directory % Total % Received % Xferd Average Speed Time Time Time Current Dload Upload Total Spent Left Speed 0 0 0 0 0 0 0 0 --:--:-- --:--:-- --:--:-- 0 100 432 100 432 0 0 1248 0 --:--:-- --:--:-- --:--:-- 1248 % Total % Received % Xferd Average Speed Time Time Time Current Dload Upload Total Spent Left Speed 0 0 0 0 0 0 0 0 --:--:-- --:--:-- --:--:-- 0 100 432 100 432 0 0 3692 0 --:--:-- --:--:-- --:--:-- 3661 100 432 100 432 0 0 3692 0 --:--:-- --:--:-- --:--:-- 3661 % Total % Received % Xferd Average Speed Time Time Time Current Dload Upload Total Spent Left Speed 0 0 0 0 0 0 0 0 --:--:-- --:--:-- --:--:-- 0 100 432 100 432 0 0 9000 0 --:--:-- --:--:-- --:--:-- 9000 % Total % Received % Xferd Average Speed Time Time Time Current Dload Upload Total Spent Left Speed 0 0 0 0 0 0 0 0 --:--:-- --:--:-- --:--:-- 0 100 432 100 432 0 0 5082 0 --:--:-- --:--:-- --:--:-- 5082 % Total % Received % Xferd Average Speed Time Time Time Current Dload Upload Total Spent Left Speed 0 0 0 0 0 0 0 0 --:--:-- --:--:-- --:--:-- 0 100 431 100 431 0 0 6338 0 --:--:-- --:--:-- --:--:-- 6338 tail: cannot open '/home/sinton/sjsu1f/mlbcalmindexk.csv' for reading: No such file or directory tail: cannot open '/home/sinton/sjsu1f/mlbavgwindindexk.csv' for reading: No such file or directory tail: cannot open '/home/sinton/sjsu1f/mlbcalmindexk.csv' for reading: No such file or directory tail: cannot open '/home/sinton/sjsu1f/mlbavgwindindexk.csv' for reading: No such file or directory tail: cannot open '/home/sinton/sjsu1f/mlbcalmindexk.csv' for reading: No such file or directory tail: cannot open '/home/sinton/sjsu1f/mlbavgwindindexk.csv' for reading: No such file or directory tail: cannot open '/home/sinton/sjsu1f/mlbcalmindexk.csv' for reading: No such file or directory tail: cannot open '/home/sinton/sjsu1f/mlbavgwindindexk.csv' for reading: No such file or directory tail: cannot open '/home/sinton/sjsu1f/mlbcalmindexk.csv' for reading: No such file or directory tail: cannot open '/home/sinton/sjsu1f/mlbavgwindindexk.csv' for reading: No such file or directory tail: cannot open '/home/sinton/sjsu1f/mlbcalmindexk.csv' for reading: No such file or directory tail: cannot open '/home/sinton/sjsu1f/mlbavgwindindexk.csv' for reading: No such file or directory tail: cannot open '/home/sinton/sjsu1f/mlbcalmindexk.csv' for reading: No such file or directory tail: cannot open '/home/sinton/sjsu1f/mlbavgwindindexk.csv' for reading: No such file or directory tail: cannot open '/home/sinton/sjsu1f/mlbcalmindexk.csv' for reading: No such file or directory tail: cannot open '/home/sinton/sjsu1f/mlbavgwindindexk.csv' for reading: No such file or directory tail: cannot open '/home/sinton/sjsu1f/mlbcalmindexk.csv' for reading: No such file or directory tail: cannot open '/home/sinton/sjsu1f/mlbavgwindindexk.csv' for reading: No such file or directory tail: cannot open '/home/sinton/sjsu1f/mlbcalmindexk.csv' for reading: No such file or directory tail: cannot open '/home/sinton/sjsu1f/mlbavgwindindexk.csv' for reading: No such file or directory tail: cannot open '/home/sinton/sjsu1f/mlbcalmindexk.csv' for reading: No such file or directory tail: cannot open '/home/sinton/sjsu1f/mlbavgwindindexk.csv' for reading: No such file or directory tail: cannot open '/home/sinton/sjsu1f/mlbcalmindexk.csv' for reading: No such file or directory tail: cannot open '/home/sinton/sjsu1f/mlbavgwindindexk.csv' for reading: No such file or directory tail: cannot open '/home/sinton/sjsu1f/mlbcalmindexk.csv' for reading: No such file or directory tail: cannot open '/home/sinton/sjsu1f/mlbavgwindindexk.csv' for reading: No such file or directory tail: cannot open '/home/sinton/sjsu1f/mlbcalmindexk.csv' for reading: No such file or directory tail: cannot open '/home/sinton/sjsu1f/mlbavgwindindexk.csv' for reading: No such file or directory % Total % Received % Xferd Average Speed Time Time Time Current Dload Upload Total Spent Left Speed 0 0 0 0 0 0 0 0 --:--:-- --:--:-- --:--:-- 0 100 431 100 431 0 0 1986 0 --:--:-- --:--:-- --:--:-- 1986 % Total % Received % Xferd Average Speed Time Time Time Current Dload Upload Total Spent Left Speed 0 0 0 0 0 0 0 0 --:--:-- --:--:-- --:--:-- 0 100 431 100 431 0 0 2133 0 --:--:-- --:--:-- --:--:-- 2133 % Total % Received % Xferd Average Speed Time Time Time Current Dload Upload Total Spent Left Speed 0 0 0 0 0 0 0 0 --:--:-- --:--:-- --:--:-- 0 100 430 100 430 0 0 5375 0 --:--:-- --:--:-- --:--:-- 5375 % Total % Received % Xferd Average Speed Time Time Time Current Dload Upload Total Spent Left Speed 0 0 0 0 0 0 0 0 --:--:-- --:--:-- --:--:-- 0 100 431 100 431 0 0 2421 0 --:--:-- --:--:-- --:--:-- 2421 % Total % Received % Xferd Average Speed Time Time Time Current Dload Upload Total Spent Left Speed 0 0 0 0 0 0 0 0 --:--:-- --:--:-- --:--:-- 0 0 0 0 0 0 0 0 0 --:--:-- --:--:-- --:--:-- 0 100 430 100 430 0 0 2704 0 --:--:-- --:--:-- --:--:-- 2687 cat: /home/sinton/1f/weather1.txt: No such file or directory cat: /home/sinton/1f/weather2.txt: No such file or directory cat: /home/sinton/1f/weather3.txt: No such file or directory cat: /home/sinton/1f/weather4.txt: No such file or directory tail: cannot open '/home/sinton/sjsu1f/mlbcalmindexk.csv' for reading: No such file or directory tail: cannot open '/home/sinton/sjsu1f/mlbavgwindindexk.csv' for reading: No such file or directory tail: cannot open '/home/sinton/sjsu1f/mlbcalmindexk.csv' for reading: No such file or directory tail: cannot open '/home/sinton/sjsu1f/mlbavgwindindexk.csv' for reading: No such file or directory tail: cannot open '/home/sinton/sjsu1f/mlbcalmindexk.csv' for reading: No such file or directory tail: cannot open '/home/sinton/sjsu1f/mlbavgwindindexk.csv' for reading: No such file or directory tail: cannot open '/home/sinton/sjsu1f/mlbcalmindexk.csv' for reading: No such file or directory tail: cannot open '/home/sinton/sjsu1f/mlbavgwindindexk.csv' for reading: No such file or directory tail: cannot open '/home/sinton/sjsu1f/mlbcalmindexk.csv' for reading: No such file or directory tail: cannot open '/home/sinton/sjsu1f/mlbavgwindindexk.csv' for reading: No such file or directory tail: cannot open '/home/sinton/sjsu1f/mlbcalmindexk.csv' for reading: No such file or directory tail: cannot open '/home/sinton/sjsu1f/mlbavgwindindexk.csv' for reading: No such file or directory tail: cannot open '/home/sinton/sjsu1f/mlbcalmindexk.csv' for reading: No such file or directory tail: cannot open '/home/sinton/sjsu1f/mlbavgwindindexk.csv' for reading: No such file or directory tail: cannot open '/home/sinton/sjsu1f/mlbcalmindexk.csv' for reading: No such file or directory tail: cannot open '/home/sinton/sjsu1f/mlbavgwindindexk.csv' for reading: No such file or directory tail: cannot open '/home/sinton/sjsu1f/mlbcalmindexk.csv' for reading: No such file or directory tail: cannot open '/home/sinton/sjsu1f/mlbavgwindindexk.csv' for reading: No such file or directory tail: cannot open '/home/sinton/sjsu1f/mlbcalmindexk.csv' for reading: No such file or directory tail: cannot open '/home/sinton/sjsu1f/mlbavgwindindexk.csv' for reading: No such file or directory tail: cannot open '/home/sinton/sjsu1f/mlbcalmindexk.csv' for reading: No such file or directory tail: cannot open '/home/sinton/sjsu1f/mlbavgwindindexk.csv' for reading: No such file or directory tail: cannot open '/home/sinton/sjsu1f/mlbcalmindexk.csv' for reading: No such file or directory tail: cannot open '/home/sinton/sjsu1f/mlbavgwindindexk.csv' for reading: No such file or directory tail: cannot open '/home/sinton/sjsu1f/mlbcalmindexk.csv' for reading: No such file or directory tail: cannot open '/home/sinton/sjsu1f/mlbavgwindindexk.csv' for reading: No such file or directory tail: cannot open '/home/sinton/sjsu1f/mlbcalmindexk.csv' for reading: No such file or directory tail: cannot open '/home/sinton/sjsu1f/mlbavgwindindexk.csv' for reading: No such file or directory % Total % Received % Xferd Average Speed Time Time Time Current Dload Upload Total Spent Left Speed 0 0 0 0 0 0 0 0 --:--:-- --:--:-- --:--:-- 0 100 432 100 432 0 0 5610 0 --:--:-- --:--:-- --:--:-- 5610 % Total % Received % Xferd Average Speed Time Time Time Current Dload Upload Total Spent Left Speed 0 0 0 0 0 0 0 0 --:--:-- --:--:-- --:--:-- 0 100 432 100 432 0 0 1870 0 --:--:-- --:--:-- --:--:-- 1870 % Total % Received % Xferd Average Speed Time Time Time Current Dload Upload Total Spent Left Speed 0 0 0 0 0 0 0 0 --:--:-- --:--:-- --:--:-- 0 0 0 0 0 0 0 0 0 --:--:-- --:--:-- --:--:-- 0 100 431 100 431 0 0 1773 0 --:--:-- --:--:-- --:--:-- 1766 % Total % Received % Xferd Average Speed Time Time Time Current Dload Upload Total Spent Left Speed 0 0 0 0 0 0 0 0 --:--:-- --:--:-- --:--:-- 0 100 430 100 430 0 0 3006 0 --:--:-- --:--:-- --:--:-- 3006 % Total % Received % Xferd Average Speed Time Time Time Current Dload Upload Total Spent Left Speed 0 0 0 0 0 0 0 0 --:--:-- --:--:-- --:--:-- 0 100 429 100 429 0 0 2938 0 --:--:-- --:--:-- --:--:-- 2938 tail: cannot open '/home/sinton/sjsu1f/mlbcalmindexk.csv' for reading: No such file or directory tail: cannot open '/home/sinton/sjsu1f/mlbavgwindindexk.csv' for reading: No such file or directory tail: cannot open '/home/sinton/sjsu1f/mlbcalmindexk.csv' for reading: No such file or directory tail: cannot open '/home/sinton/sjsu1f/mlbavgwindindexk.csv' for reading: No such file or directory tail: cannot open '/home/sinton/sjsu1f/mlbcalmindexk.csv' for reading: No such file or directory tail: cannot open '/home/sinton/sjsu1f/mlbavgwindindexk.csv' for reading: No such file or directory tail: cannot open '/home/sinton/sjsu1f/mlbcalmindexk.csv' for reading: No such file or directory tail: cannot open '/home/sinton/sjsu1f/mlbavgwindindexk.csv' for reading: No such file or directory tail: cannot open '/home/sinton/sjsu1f/mlbcalmindexk.csv' for reading: No such file or directory tail: cannot open '/home/sinton/sjsu1f/mlbavgwindindexk.csv' for reading: No such file or directory tail: cannot open '/home/sinton/sjsu1f/mlbcalmindexk.csv' for reading: No such file or directory tail: cannot open '/home/sinton/sjsu1f/mlbavgwindindexk.csv' for reading: No such file or directory tail: cannot open '/home/sinton/sjsu1f/mlbcalmindexk.csv' for reading: No such file or directory tail: cannot open '/home/sinton/sjsu1f/mlbavgwindindexk.csv' for reading: No such file or directory tail: cannot open '/home/sinton/sjsu1f/mlbcalmindexk.csv' for reading: No such file or directory tail: cannot open '/home/sinton/sjsu1f/mlbavgwindindexk.csv' for reading: No such file or directory tail: cannot open '/home/sinton/sjsu1f/mlbcalmindexk.csv' for reading: No such file or directory tail: cannot open '/home/sinton/sjsu1f/mlbavgwindindexk.csv' for reading: No such file or directory tail: cannot open '/home/sinton/sjsu1f/mlbcalmindexk.csv' for reading: No such file or directory tail: cannot open '/home/sinton/sjsu1f/mlbavgwindindexk.csv' for reading: No such file or directory tail: cannot open '/home/sinton/sjsu1f/mlbcalmindexk.csv' for reading: No such file or directory tail: cannot open '/home/sinton/sjsu1f/mlbavgwindindexk.csv' for reading: No such file or directory tail: cannot open '/home/sinton/sjsu1f/mlbcalmindexk.csv' for reading: No such file or directory tail: cannot open '/home/sinton/sjsu1f/mlbavgwindindexk.csv' for reading: No such file or directory tail: cannot open '/home/sinton/sjsu1f/mlbcalmindexk.csv' for reading: No such file or directory tail: cannot open '/home/sinton/sjsu1f/mlbavgwindindexk.csv' for reading: No such file or directory % Total % Received % Xferd Average Speed Time Time Time Current Dload Upload Total Spent Left Speed 0 0 0 0 0 0 0 0 --:--:-- --:--:-- --:--:-- 0 100 429 100 429 0 0 2648 0 --:--:-- --:--:-- --:--:-- 2664 % Total % Received % Xferd Average Speed Time Time Time Current Dload Upload Total Spent Left Speed 0 0 0 0 0 0 0 0 --:--:-- --:--:-- --:--:-- 0 100 432 100 432 0 0 9000 0 --:--:-- --:--:-- --:--:-- 9000 % Total % Received % Xferd Average Speed Time Time Time Current Dload Upload Total Spent Left Speed 0 0 0 0 0 0 0 0 --:--:-- --:--:-- --:--:-- 0 100 432 100 432 0 0 9391 0 --:--:-- --:--:-- --:--:-- 9391 % Total % Received % Xferd Average Speed Time Time Time Current Dload Upload Total Spent Left Speed 0 0 0 0 0 0 0 0 --:--:-- --:--:-- --:--:-- 0 100 432 100 432 0 0 3428 0 --:--:-- --:--:-- --:--:-- 3428 % Total % Received % Xferd Average Speed Time Time Time Current Dload Upload Total Spent Left Speed 0 0 0 0 0 0 0 0 --:--:-- --:--:-- --:--:-- 0 100 431 100 431 0 0 6530 0 --:--:-- --:--:-- --:--:-- 6530 100 431 100 431 0 0 6530 0 --:--:-- --:--:-- --:--:-- 6432 tail: cannot open '/home/sinton/sjsu1f/mlbcalmindexk.csv' for reading: No such file or directory tail: cannot open '/home/sinton/sjsu1f/mlbavgwindindexk.csv' for reading: No such file or directory tail: cannot open '/home/sinton/sjsu1f/mlbcalmindexk.csv' for reading: No such file or directory tail: cannot open '/home/sinton/sjsu1f/mlbavgwindindexk.csv' for reading: No such file or directory tail: cannot open '/home/sinton/sjsu1f/mlbcalmindexk.csv' for reading: No such file or directory tail: cannot open '/home/sinton/sjsu1f/mlbavgwindindexk.csv' for reading: No such file or directory tail: cannot open '/home/sinton/sjsu1f/mlbcalmindexk.csv' for reading: No such file or directory tail: cannot open '/home/sinton/sjsu1f/mlbavgwindindexk.csv' for reading: No such file or directory tail: cannot open '/home/sinton/sjsu1f/mlbcalmindexk.csv' for reading: No such file or directory tail: cannot open '/home/sinton/sjsu1f/mlbavgwindindexk.csv' for reading: No such file or directory tail: cannot open '/home/sinton/sjsu1f/mlbcalmindexk.csv' for reading: No such file or directory tail: cannot open '/home/sinton/sjsu1f/mlbavgwindindexk.csv' for reading: No such file or directory tail: cannot open '/home/sinton/sjsu1f/mlbcalmindexk.csv' for reading: No such file or directory tail: cannot open '/home/sinton/sjsu1f/mlbavgwindindexk.csv' for reading: No such file or directory tail: cannot open '/home/sinton/sjsu1f/mlbcalmindexk.csv' for reading: No such file or directory tail: cannot open '/home/sinton/sjsu1f/mlbavgwindindexk.csv' for reading: No such file or directory tail: cannot open '/home/sinton/sjsu1f/mlbcalmindexk.csv' for reading: No such file or directory tail: cannot open '/home/sinton/sjsu1f/mlbavgwindindexk.csv' for reading: No such file or directory tail: cannot open '/home/sinton/sjsu1f/mlbcalmindexk.csv' for reading: No such file or directory tail: cannot open '/home/sinton/sjsu1f/mlbavgwindindexk.csv' for reading: No such file or directory tail: cannot open '/home/sinton/sjsu1f/mlbcalmindexk.csv' for reading: No such file or directory tail: cannot open '/home/sinton/sjsu1f/mlbavgwindindexk.csv' for reading: No such file or directory tail: cannot open '/home/sinton/sjsu1f/mlbcalmindexk.csv' for reading: No such file or directory tail: cannot open '/home/sinton/sjsu1f/mlbavgwindindexk.csv' for reading: No such file or directory tail: cannot open '/home/sinton/sjsu1f/mlbcalmindexk.csv' for reading: No such file or directory tail: cannot open '/home/sinton/sjsu1f/mlbavgwindindexk.csv' for reading: No such file or directory tail: cannot open '/home/sinton/sjsu1f/mlbcalmindexk.csv' for reading: No such file or directory tail: cannot open '/home/sinton/sjsu1f/mlbavgwindindexk.csv' for reading: No such file or directory % Total % Received % Xferd Average Speed Time Time Time Current Dload Upload Total Spent Left Speed 0 0 0 0 0 0 0 0 --:--:-- --:--:-- --:--:-- 0 100 429 100 429 0 0 3250 0 --:--:-- --:--:-- --:--:-- 3250 % Total % Received % Xferd Average Speed Time Time Time Current Dload Upload Total Spent Left Speed 0 0 0 0 0 0 0 0 --:--:-- --:--:-- --:--:-- 0 100 432 100 432 0 0 7200 0 --:--:-- --:--:-- --:--:-- 7200 % Total % Received % Xferd Average Speed Time Time Time Current Dload Upload Total Spent Left Speed 0 0 0 0 0 0 0 0 --:--:-- --:--:-- --:--:-- 0 100 432 100 432 0 0 9600 0 --:--:-- --:--:-- --:--:-- 9391 100 432 100 432 0 0 9600 0 --:--:-- --:--:-- --:--:-- 9391 % Total % Received % Xferd Average Speed Time Time Time Current Dload Upload Total Spent Left Speed 0 0 0 0 0 0 0 0 --:--:-- --:--:-- --:--:-- 0 100 432 100 432 0 0 7448 0 --:--:-- --:--:-- --:--:-- 7578 % Total % Received % Xferd Average Speed Time Time Time Current Dload Upload Total Spent Left Speed 0 0 0 0 0 0 0 0 --:--:-- --:--:-- --:--:-- 0 100 431 100 431 0 0 6432 0 --:--:-- --:--:-- --:--:-- 6432 tail: cannot open '/home/sinton/sjsu1f/mlbcalmindexk.csv' for reading: No such file or directory tail: cannot open '/home/sinton/sjsu1f/mlbavgwindindexk.csv' for reading: No such file or directory tail: cannot open '/home/sinton/sjsu1f/mlbcalmindexk.csv' for reading: No such file or directory tail: cannot open '/home/sinton/sjsu1f/mlbavgwindindexk.csv' for reading: No such file or directory mv: cannot stat '/home/sinton/public_html/John1f/oakstuck': No such file or directory tail: cannot open '/home/sinton/sjsu1f/mlbcalmindexk.csv' for reading: No such file or directory tail: cannot open '/home/sinton/sjsu1f/mlbavgwindindexk.csv' for reading: No such file or directory tail: cannot open '/home/sinton/sjsu1f/mlbcalmindexk.csv' for reading: No such file or directory tail: cannot open '/home/sinton/sjsu1f/mlbavgwindindexk.csv' for reading: No such file or directory tail: cannot open '/home/sinton/sjsu1f/mlbcalmindexk.csv' for reading: No such file or directory tail: cannot open '/home/sinton/sjsu1f/mlbavgwindindexk.csv' for reading: No such file or directory tail: cannot open '/home/sinton/sjsu1f/mlbcalmindexk.csv' for reading: No such file or directory tail: cannot open '/home/sinton/sjsu1f/mlbavgwindindexk.csv' for reading: No such file or directory tail: cannot open '/home/sinton/sjsu1f/mlbcalmindexk.csv' for reading: No such file or directory tail: cannot open '/home/sinton/sjsu1f/mlbavgwindindexk.csv' for reading: No such file or directory tail: cannot open '/home/sinton/sjsu1f/mlbcalmindexk.csv' for reading: No such file or directory tail: cannot open '/home/sinton/sjsu1f/mlbavgwindindexk.csv' for reading: No such file or directory tail: cannot open '/home/sinton/sjsu1f/mlbcalmindexk.csv' for reading: No such file or directory tail: cannot open '/home/sinton/sjsu1f/mlbavgwindindexk.csv' for reading: No such file or directory tail: cannot open '/home/sinton/sjsu1f/mlbcalmindexk.csv' for reading: No such file or directory tail: cannot open '/home/sinton/sjsu1f/mlbavgwindindexk.csv' for reading: No such file or directory % Total % Received % Xferd Average Speed Time Time Time Current Dload Upload Total Spent Left Speed 0 0 0 0 0 0 0 0 --:--:-- --:--:-- --:--:-- 0 100 429 100 429 0 0 3086 0 --:--:-- --:--:-- --:--:-- 3086 % Total % Received % Xferd Average Speed Time Time Time Current Dload Upload Total Spent Left Speed 0 0 0 0 0 0 0 0 --:--:-- --:--:-- --:--:-- 0 100 432 100 432 0 0 4194 0 --:--:-- --:--:-- --:--:-- 4194 % Total % Received % Xferd Average Speed Time Time Time Current Dload Upload Total Spent Left Speed 0 0 0 0 0 0 0 0 --:--:-- --:--:-- --:--:-- 0 0 0 0 0 0 0 0 0 --:--:-- --:--:-- --:--:-- 0 100 432 100 432 0 0 3401 0 --:--:-- --:--:-- --:--:-- 3401 % Total % Received % Xferd Average Speed Time Time Time Current Dload Upload Total Spent Left Speed 0 0 0 0 0 0 0 0 --:--:-- --:--:-- --:--:-- 0 100 432 100 432 0 0 10046 0 --:--:-- --:--:-- --:--:-- 10046 % Total % Received % Xferd Average Speed Time Time Time Current Dload Upload Total Spent Left Speed 0 0 0 0 0 0 0 0 --:--:-- --:--:-- --:--:-- 0 100 431 100 431 0 0 1355 0 --:--:-- --:--:-- --:--:-- 1355 tail: cannot open '/home/sinton/sjsu1f/mlbcalmindexk.csv' for reading: No such file or directory tail: cannot open '/home/sinton/sjsu1f/mlbavgwindindexk.csv' for reading: No such file or directory tail: cannot open '/home/sinton/sjsu1f/mlbcalmindexk.csv' for reading: No such file or directory tail: cannot open '/home/sinton/sjsu1f/mlbavgwindindexk.csv' for reading: No such file or directory tail: cannot open '/home/sinton/sjsu1f/mlbcalmindexk.csv' for reading: No such file or directory tail: cannot open '/home/sinton/sjsu1f/mlbavgwindindexk.csv' for reading: No such file or directory tail: cannot open '/home/sinton/sjsu1f/mlbcalmindexk.csv' for reading: No such file or directory tail: cannot open '/home/sinton/sjsu1f/mlbavgwindindexk.csv' for reading: No such file or directory tail: cannot open '/home/sinton/sjsu1f/mlbcalmindexk.csv' for reading: No such file or directory tail: cannot open '/home/sinton/sjsu1f/mlbavgwindindexk.csv' for reading: No such file or directory tail: cannot open '/home/sinton/sjsu1f/mlbcalmindexk.csv' for reading: No such file or directory tail: cannot open '/home/sinton/sjsu1f/mlbavgwindindexk.csv' for reading: No such file or directory tail: cannot open '/home/sinton/sjsu1f/mlbcalmindexk.csv' for reading: No such file or directory tail: cannot open '/home/sinton/sjsu1f/mlbavgwindindexk.csv' for reading: No such file or directory tail: cannot open '/home/sinton/sjsu1f/mlbcalmindexk.csv' for reading: No such file or directory tail: cannot open '/home/sinton/sjsu1f/mlbavgwindindexk.csv' for reading: No such file or directory tail: cannot open '/home/sinton/sjsu1f/mlbcalmindexk.csv' for reading: No such file or directory tail: cannot open '/home/sinton/sjsu1f/mlbavgwindindexk.csv' for reading: No such file or directory tail: cannot open '/home/sinton/sjsu1f/mlbcalmindexk.csv' for reading: No such file or directory tail: cannot open '/home/sinton/sjsu1f/mlbavgwindindexk.csv' for reading: No such file or directory tail: cannot open '/home/sinton/sjsu1f/mlbcalmindexk.csv' for reading: No such file or directory tail: cannot open '/home/sinton/sjsu1f/mlbavgwindindexk.csv' for reading: No such file or directory tail: cannot open '/home/sinton/sjsu1f/mlbcalmindexk.csv' for reading: No such file or directory tail: cannot open '/home/sinton/sjsu1f/mlbavgwindindexk.csv' for reading: No such file or directory tail: cannot open '/home/sinton/sjsu1f/mlbcalmindexk.csv' for reading: No such file or directory tail: cannot open '/home/sinton/sjsu1f/mlbavgwindindexk.csv' for reading: No such file or directory tail: cannot open '/home/sinton/sjsu1f/mlbcalmindexk.csv' for reading: No such file or directory tail: cannot open '/home/sinton/sjsu1f/mlbavgwindindexk.csv' for reading: No such file or directory tail: cannot open '/home/sinton/sjsu1f/mlbcalmindexk.csv' for reading: No such file or directory tail: cannot open '/home/sinton/sjsu1f/mlbavgwindindexk.csv' for reading: No such file or directory tail: cannot open '/home/sinton/sjsu1f/mlbcalmindexk.csv' for reading: No such file or directory tail: cannot open '/home/sinton/sjsu1f/mlbavgwindindexk.csv' for reading: No such file or directory tail: cannot open '/home/sinton/sjsu1f/mlbcalmindexk.csv' for reading: No such file or directory tail: cannot open '/home/sinton/sjsu1f/mlbavgwindindexk.csv' for reading: No such file or directory % Total % Received % Xferd Average Speed Time Time Time Current Dload Upload Total Spent Left Speed 0 0 0 0 0 0 0 0 --:--:-- --:--:-- --:--:-- 0 100 428 100 428 0 0 3267 0 --:--:-- --:--:-- --:--:-- 3242 100 428 100 428 0 0 3267 0 --:--:-- --:--:-- --:--:-- 3242 % Total % Received % Xferd Average Speed Time Time Time Current Dload Upload Total Spent Left Speed 0 0 0 0 0 0 0 0 --:--:-- --:--:-- --:--:-- 0 100 432 100 432 0 0 2958 0 --:--:-- --:--:-- --:--:-- 2958 % Total % Received % Xferd Average Speed Time Time Time Current Dload Upload Total Spent Left Speed 0 0 0 0 0 0 0 0 --:--:-- --:--:-- --:--:-- 0 100 432 100 432 0 0 3630 0 --:--:-- --:--:-- --:--:-- 3630 % Total % Received % Xferd Average Speed Time Time Time Current Dload Upload Total Spent Left Speed 0 0 0 0 0 0 0 0 --:--:-- --:--:-- --:--:-- 0 100 432 100 432 0 0 7322 0 --:--:-- --:--:-- --:--:-- 7322 % Total % Received % Xferd Average Speed Time Time Time Current Dload Upload Total Spent Left Speed 0 0 0 0 0 0 0 0 --:--:-- --:--:-- --:--:-- 0 100 431 100 431 0 0 8979 0 --:--:-- --:--:-- --:--:-- 8979 tail: cannot open '/home/sinton/sjsu1f/mlbcalmindexk.csv' for reading: No such file or directory tail: cannot open '/home/sinton/sjsu1f/mlbavgwindindexk.csv' for reading: No such file or directory tail: cannot open '/home/sinton/sjsu1f/mlbcalmindexk.csv' for reading: No such file or directory tail: cannot open '/home/sinton/sjsu1f/mlbavgwindindexk.csv' for reading: No such file or directory tail: cannot open '/home/sinton/sjsu1f/mlbcalmindexk.csv' for reading: No such file or directory tail: cannot open '/home/sinton/sjsu1f/mlbavgwindindexk.csv' for reading: No such file or directory tail: cannot open '/home/sinton/sjsu1f/mlbcalmindexk.csv' for reading: No such file or directory tail: cannot open '/home/sinton/sjsu1f/mlbavgwindindexk.csv' for reading: No such file or directory tail: cannot open '/home/sinton/sjsu1f/mlbcalmindexk.csv' for reading: No such file or directory tail: cannot open '/home/sinton/sjsu1f/mlbavgwindindexk.csv' for reading: No such file or directory tail: cannot open '/home/sinton/sjsu1f/mlbcalmindexk.csv' for reading: No such file or directory tail: cannot open '/home/sinton/sjsu1f/mlbavgwindindexk.csv' for reading: No such file or directory tail: cannot open '/home/sinton/sjsu1f/mlbcalmindexk.csv' for reading: No such file or directory tail: cannot open '/home/sinton/sjsu1f/mlbavgwindindexk.csv' for reading: No such file or directory tail: cannot open '/home/sinton/sjsu1f/mlbcalmindexk.csv' for reading: No such file or directory tail: cannot open '/home/sinton/sjsu1f/mlbavgwindindexk.csv' for reading: No such file or directory tail: cannot open '/home/sinton/sjsu1f/mlbcalmindexk.csv' for reading: No such file or directory tail: cannot open '/home/sinton/sjsu1f/mlbavgwindindexk.csv' for reading: No such file or directory tail: cannot open '/home/sinton/sjsu1f/mlbcalmindexk.csv' for reading: No such file or directory tail: cannot open '/home/sinton/sjsu1f/mlbavgwindindexk.csv' for reading: No such file or directory tail: cannot open '/home/sinton/sjsu1f/mlbcalmindexk.csv' for reading: No such file or directory tail: cannot open '/home/sinton/sjsu1f/mlbavgwindindexk.csv' for reading: No such file or directory tail: cannot open '/home/sinton/sjsu1f/mlbcalmindexk.csv' for reading: No such file or directory tail: cannot open '/home/sinton/sjsu1f/mlbavgwindindexk.csv' for reading: No such file or directory tail: cannot open '/home/sinton/sjsu1f/mlbcalmindexk.csv' for reading: No such file or directory tail: cannot open '/home/sinton/sjsu1f/mlbavgwindindexk.csv' for reading: No such file or directory % Total % Received % Xferd Average Speed Time Time Time Current Dload Upload Total Spent Left Speed 0 0 0 0 0 0 0 0 --:--:-- --:--:-- --:--:-- 0 100 428 100 428 0 0 3658 0 --:--:-- --:--:-- --:--:-- 3658 % Total % Received % Xferd Average Speed Time Time Time Current Dload Upload Total Spent Left Speed 0 0 0 0 0 0 0 0 --:--:-- --:--:-- --:--:-- 0 100 431 100 431 0 0 2677 0 --:--:-- --:--:-- --:--:-- 2660 100 431 100 431 0 0 2677 0 --:--:-- --:--:-- --:--:-- 2660 % Total % Received % Xferd Average Speed Time Time Time Current Dload Upload Total Spent Left Speed 0 0 0 0 0 0 0 0 --:--:-- --:--:-- --:--:-- 0 100 432 100 432 0 0 2204 0 --:--:-- --:--:-- --:--:-- 2204 % Total % Received % Xferd Average Speed Time Time Time Current Dload Upload Total Spent Left Speed 0 0 0 0 0 0 0 0 --:--:-- --:--:-- --:--:-- 0 100 432 100 432 0 0 7081 0 --:--:-- --:--:-- --:--:-- 7200 % Total % Received % Xferd Average Speed Time Time Time Current Dload Upload Total Spent Left Speed 0 0 0 0 0 0 0 0 --:--:-- --:--:-- --:--:-- 0 100 431 100 431 0 0 4066 0 --:--:-- --:--:-- --:--:-- 4066 tail: cannot open '/home/sinton/sjsu1f/mlbcalmindexk.csv' for reading: No such file or directory tail: cannot open '/home/sinton/sjsu1f/mlbavgwindindexk.csv' for reading: No such file or directory tail: cannot open '/home/sinton/sjsu1f/mlbcalmindexk.csv' for reading: No such file or directory tail: cannot open '/home/sinton/sjsu1f/mlbavgwindindexk.csv' for reading: No such file or directory tail: cannot open '/home/sinton/sjsu1f/mlbcalmindexk.csv' for reading: No such file or directory tail: cannot open '/home/sinton/sjsu1f/mlbavgwindindexk.csv' for reading: No such file or directory tail: cannot open '/home/sinton/sjsu1f/mlbcalmindexk.csv' for reading: No such file or directory tail: cannot open '/home/sinton/sjsu1f/mlbavgwindindexk.csv' for reading: No such file or directory tail: cannot open '/home/sinton/sjsu1f/mlbcalmindexk.csv' for reading: No such file or directory tail: cannot open '/home/sinton/sjsu1f/mlbavgwindindexk.csv' for reading: No such file or directory tail: cannot open '/home/sinton/sjsu1f/mlbcalmindexk.csv' for reading: No such file or directory tail: cannot open '/home/sinton/sjsu1f/mlbavgwindindexk.csv' for reading: No such file or directory tail: cannot open '/home/sinton/sjsu1f/mlbcalmindexk.csv' for reading: No such file or directory tail: cannot open '/home/sinton/sjsu1f/mlbavgwindindexk.csv' for reading: No such file or directory tail: cannot open '/home/sinton/sjsu1f/mlbcalmindexk.csv' for reading: No such file or directory tail: cannot open '/home/sinton/sjsu1f/mlbavgwindindexk.csv' for reading: No such file or directory tail: cannot open '/home/sinton/sjsu1f/mlbcalmindexk.csv' for reading: No such file or directory tail: cannot open '/home/sinton/sjsu1f/mlbavgwindindexk.csv' for reading: No such file or directory tail: cannot open '/home/sinton/sjsu1f/mlbcalmindexk.csv' for reading: No such file or directory tail: cannot open '/home/sinton/sjsu1f/mlbavgwindindexk.csv' for reading: No such file or directory tail: cannot open '/home/sinton/sjsu1f/mlbcalmindexk.csv' for reading: No such file or directory tail: cannot open '/home/sinton/sjsu1f/mlbavgwindindexk.csv' for reading: No such file or directory tail: cannot open '/home/sinton/sjsu1f/mlbcalmindexk.csv' for reading: No such file or directory tail: cannot open '/home/sinton/sjsu1f/mlbavgwindindexk.csv' for reading: No such file or directory tail: cannot open '/home/sinton/sjsu1f/mlbcalmindexk.csv' for reading: No such file or directory tail: cannot open '/home/sinton/sjsu1f/mlbavgwindindexk.csv' for reading: No such file or directory tail: cannot open '/home/sinton/sjsu1f/mlbcalmindexk.csv' for reading: No such file or directory tail: cannot open '/home/sinton/sjsu1f/mlbavgwindindexk.csv' for reading: No such file or directory % Total % Received % Xferd Average Speed Time Time Time Current Dload Upload Total Spent Left Speed 0 0 0 0 0 0 0 0 --:--:-- --:--:-- --:--:-- 0 100 429 100 429 0 0 6402 0 --:--:-- --:--:-- --:--:-- 6402 % Total % Received % Xferd Average Speed Time Time Time Current Dload Upload Total Spent Left Speed 0 0 0 0 0 0 0 0 --:--:-- --:--:-- --:--:-- 0 100 432 100 432 0 0 6750 0 --:--:-- --:--:-- --:--:-- 6857 % Total % Received % Xferd Average Speed Time Time Time Current Dload Upload Total Spent Left Speed 0 0 0 0 0 0 0 0 --:--:-- --:--:-- --:--:-- 0 100 432 100 432 0 0 5760 0 --:--:-- --:--:-- --:--:-- 5760 % Total % Received % Xferd Average Speed Time Time Time Current Dload Upload Total Spent Left Speed 0 0 0 0 0 0 0 0 --:--:-- --:--:-- --:--:-- 0 100 432 100 432 0 0 8000 0 --:--:-- --:--:-- --:--:-- 8000 % Total % Received % Xferd Average Speed Time Time Time Current Dload Upload Total Spent Left Speed 0 0 0 0 0 0 0 0 --:--:-- --:--:-- --:--:-- 0 100 431 100 431 0 0 9369 0 --:--:-- --:--:-- --:--:-- 9369 tail: cannot open '/home/sinton/sjsu1f/mlbcalmindexk.csv' for reading: No such file or directory tail: cannot open '/home/sinton/sjsu1f/mlbavgwindindexk.csv' for reading: No such file or directory tail: cannot open '/home/sinton/sjsu1f/mlbcalmindexk.csv' for reading: No such file or directory tail: cannot open '/home/sinton/sjsu1f/mlbavgwindindexk.csv' for reading: No such file or directory tail: cannot open '/home/sinton/sjsu1f/mlbcalmindexk.csv' for reading: No such file or directory tail: cannot open '/home/sinton/sjsu1f/mlbavgwindindexk.csv' for reading: No such file or directory mv: cannot stat '/home/sinton/public_html/John1f/oakstuck': No such file or directory tail: cannot open '/home/sinton/sjsu1f/mlbcalmindexk.csv' for reading: No such file or directory tail: cannot open '/home/sinton/sjsu1f/mlbavgwindindexk.csv' for reading: No such file or directory tail: cannot open '/home/sinton/sjsu1f/mlbcalmindexk.csv' for reading: No such file or directory tail: cannot open '/home/sinton/sjsu1f/mlbavgwindindexk.csv' for reading: No such file or directory tail: cannot open '/home/sinton/sjsu1f/mlbcalmindexk.csv' for reading: No such file or directory tail: cannot open '/home/sinton/sjsu1f/mlbavgwindindexk.csv' for reading: No such file or directory tail: cannot open '/home/sinton/sjsu1f/mlbcalmindexk.csv' for reading: No such file or directory tail: cannot open '/home/sinton/sjsu1f/mlbavgwindindexk.csv' for reading: No such file or directory tail: cannot open '/home/sinton/sjsu1f/mlbcalmindexk.csv' for reading: No such file or directory tail: cannot open '/home/sinton/sjsu1f/mlbavgwindindexk.csv' for reading: No such file or directory tail: cannot open '/home/sinton/sjsu1f/mlbcalmindexk.csv' for reading: No such file or directory tail: cannot open '/home/sinton/sjsu1f/mlbavgwindindexk.csv' for reading: No such file or directory tail: cannot open '/home/sinton/sjsu1f/mlbcalmindexk.csv' for reading: No such file or directory tail: cannot open '/home/sinton/sjsu1f/mlbavgwindindexk.csv' for reading: No such file or directory tail: cannot open '/home/sinton/sjsu1f/mlbcalmindexk.csv' for reading: No such file or directory tail: cannot open '/home/sinton/sjsu1f/mlbavgwindindexk.csv' for reading: No such file or directory tail: cannot open '/home/sinton/sjsu1f/mlbcalmindexk.csv' for reading: No such file or directory tail: cannot open '/home/sinton/sjsu1f/mlbavgwindindexk.csv' for reading: No such file or directory tail: cannot open '/home/sinton/sjsu1f/mlbcalmindexk.csv' for reading: No such file or directory tail: cannot open '/home/sinton/sjsu1f/mlbavgwindindexk.csv' for reading: No such file or directory % Total % Received % Xferd Average Speed Time Time Time Current Dload Upload Total Spent Left Speed 0 0 0 0 0 0 0 0 --:--:-- --:--:-- --:--:-- 0 100 430 100 430 0 0 6935 0 --:--:-- --:--:-- --:--:-- 6935 % Total % Received % Xferd Average Speed Time Time Time Current Dload Upload Total Spent Left Speed 0 0 0 0 0 0 0 0 --:--:-- --:--:-- --:--:-- 0 100 430 100 430 0 0 10487 0 --:--:-- --:--:-- --:--:-- 10487 % Total % Received % Xferd Average Speed Time Time Time Current Dload Upload Total Spent Left Speed 0 0 0 0 0 0 0 0 --:--:-- --:--:-- --:--:-- 0 100 428 100 428 0 0 3370 0 --:--:-- --:--:-- --:--:-- 3370 % Total % Received % Xferd Average Speed Time Time Time Current Dload Upload Total Spent Left Speed 0 0 0 0 0 0 0 0 --:--:-- --:--:-- --:--:-- 0 100 431 100 431 0 0 6630 0 --:--:-- --:--:-- --:--:-- 6630 % Total % Received % Xferd Average Speed Time Time Time Current Dload Upload Total Spent Left Speed 0 0 0 0 0 0 0 0 --:--:-- --:--:-- --:--:-- 0 100 430 100 430 0 0 6615 0 --:--:-- --:--:-- --:--:-- 6615 cat: /home/sinton/1f/weather1.txt: No such file or directory cat: /home/sinton/1f/weather2.txt: No such file or directory cat: /home/sinton/1f/weather3.txt: No such file or directory cat: /home/sinton/1f/weather4.txt: No such file or directory tail: cannot open '/home/sinton/sjsu1f/mlbcalmindexk.csv' for reading: No such file or directory tail: cannot open '/home/sinton/sjsu1f/mlbavgwindindexk.csv' for reading: No such file or directory tail: cannot open '/home/sinton/sjsu1f/mlbcalmindexk.csv' for reading: No such file or directory tail: cannot open '/home/sinton/sjsu1f/mlbavgwindindexk.csv' for reading: No such file or directory tail: cannot open '/home/sinton/sjsu1f/mlbcalmindexk.csv' for reading: No such file or directory tail: cannot open '/home/sinton/sjsu1f/mlbavgwindindexk.csv' for reading: No such file or directory tail: cannot open '/home/sinton/sjsu1f/mlbcalmindexk.csv' for reading: No such file or directory tail: cannot open '/home/sinton/sjsu1f/mlbavgwindindexk.csv' for reading: No such file or directory tail: cannot open '/home/sinton/sjsu1f/mlbcalmindexk.csv' for reading: No such file or directory tail: cannot open '/home/sinton/sjsu1f/mlbavgwindindexk.csv' for reading: No such file or directory tail: cannot open '/home/sinton/sjsu1f/mlbcalmindexk.csv' for reading: No such file or directory tail: cannot open '/home/sinton/sjsu1f/mlbavgwindindexk.csv' for reading: No such file or directory tail: cannot open '/home/sinton/sjsu1f/mlbcalmindexk.csv' for reading: No such file or directory tail: cannot open '/home/sinton/sjsu1f/mlbavgwindindexk.csv' for reading: No such file or directory tail: cannot open '/home/sinton/sjsu1f/mlbcalmindexk.csv' for reading: No such file or directory tail: cannot open '/home/sinton/sjsu1f/mlbavgwindindexk.csv' for reading: No such file or directory tail: cannot open '/home/sinton/sjsu1f/mlbcalmindexk.csv' for reading: No such file or directory tail: cannot open '/home/sinton/sjsu1f/mlbavgwindindexk.csv' for reading: No such file or directory tail: cannot open '/home/sinton/sjsu1f/mlbcalmindexk.csv' for reading: No such file or directory tail: cannot open '/home/sinton/sjsu1f/mlbavgwindindexk.csv' for reading: No such file or directory tail: cannot open '/home/sinton/sjsu1f/mlbcalmindexk.csv' for reading: No such file or directory tail: cannot open '/home/sinton/sjsu1f/mlbavgwindindexk.csv' for reading: No such file or directory tail: cannot open '/home/sinton/sjsu1f/mlbcalmindexk.csv' for reading: No such file or directory tail: cannot open '/home/sinton/sjsu1f/mlbavgwindindexk.csv' for reading: No such file or directory tail: cannot open '/home/sinton/sjsu1f/mlbcalmindexk.csv' for reading: No such file or directory tail: cannot open '/home/sinton/sjsu1f/mlbavgwindindexk.csv' for reading: No such file or directory tail: cannot open '/home/sinton/sjsu1f/mlbcalmindexk.csv' for reading: No such file or directory tail: cannot open '/home/sinton/sjsu1f/mlbavgwindindexk.csv' for reading: No such file or directory % Total % Received % Xferd Average Speed Time Time Time Current Dload Upload Total Spent Left Speed 0 0 0 0 0 0 0 0 --:--:-- --:--:-- --:--:-- 0 100 431 100 431 0 0 4634 0 --:--:-- --:--:-- --:--:-- 4634 % Total % Received % Xferd Average Speed Time Time Time Current Dload Upload Total Spent Left Speed 0 0 0 0 0 0 0 0 --:--:-- --:--:-- --:--:-- 0 100 431 100 431 0 0 3393 0 --:--:-- --:--:-- --:--:-- 3393 % Total % Received % Xferd Average Speed Time Time Time Current Dload Upload Total Spent Left Speed 0 0 0 0 0 0 0 0 --:--:-- --:--:-- --:--:-- 0 100 427 100 427 0 0 8056 0 --:--:-- --:--:-- --:--:-- 8056 % Total % Received % Xferd Average Speed Time Time Time Current Dload Upload Total Spent Left Speed 0 0 0 0 0 0 0 0 --:--:-- --:--:-- --:--:-- 0 100 432 100 432 0 0 2373 0 --:--:-- --:--:-- --:--:-- 2386 % Total % Received % Xferd Average Speed Time Time Time Current Dload Upload Total Spent Left Speed 0 0 0 0 0 0 0 0 --:--:-- --:--:-- --:--:-- 0 100 431 100 431 0 0 8450 0 --:--:-- --:--:-- --:--:-- 8450 tail: cannot open '/home/sinton/sjsu1f/mlbcalmindexk.csv' for reading: No such file or directory tail: cannot open '/home/sinton/sjsu1f/mlbavgwindindexk.csv' for reading: No such file or directory tail: cannot open '/home/sinton/sjsu1f/mlbcalmindexk.csv' for reading: No such file or directory tail: cannot open '/home/sinton/sjsu1f/mlbavgwindindexk.csv' for reading: No such file or directory tail: cannot open '/home/sinton/sjsu1f/mlbcalmindexk.csv' for reading: No such file or directory tail: cannot open '/home/sinton/sjsu1f/mlbavgwindindexk.csv' for reading: No such file or directory tail: cannot open '/home/sinton/sjsu1f/mlbcalmindexk.csv' for reading: No such file or directory tail: cannot open '/home/sinton/sjsu1f/mlbavgwindindexk.csv' for reading: No such file or directory tail: cannot open '/home/sinton/sjsu1f/mlbcalmindexk.csv' for reading: No such file or directory tail: cannot open '/home/sinton/sjsu1f/mlbavgwindindexk.csv' for reading: No such file or directory tail: cannot open '/home/sinton/sjsu1f/mlbcalmindexk.csv' for reading: No such file or directory tail: cannot open '/home/sinton/sjsu1f/mlbavgwindindexk.csv' for reading: No such file or directory tail: cannot open '/home/sinton/sjsu1f/mlbcalmindexk.csv' for reading: No such file or directory tail: cannot open '/home/sinton/sjsu1f/mlbavgwindindexk.csv' for reading: No such file or directory tail: cannot open '/home/sinton/sjsu1f/mlbcalmindexk.csv' for reading: No such file or directory tail: cannot open '/home/sinton/sjsu1f/mlbavgwindindexk.csv' for reading: No such file or directory tail: cannot open '/home/sinton/sjsu1f/mlbcalmindexk.csv' for reading: No such file or directory tail: cannot open '/home/sinton/sjsu1f/mlbavgwindindexk.csv' for reading: No such file or directory tail: cannot open '/home/sinton/sjsu1f/mlbcalmindexk.csv' for reading: No such file or directory tail: cannot open '/home/sinton/sjsu1f/mlbavgwindindexk.csv' for reading: No such file or directory tail: cannot open '/home/sinton/sjsu1f/mlbcalmindexk.csv' for reading: No such file or directory tail: cannot open '/home/sinton/sjsu1f/mlbavgwindindexk.csv' for reading: No such file or directory % Total % Received % Xferd Average Speed Time Time Time Current Dload Upload Total Spent Left Speed 0 0 0 0 0 0 0 0 --:--:-- --:--:-- --:--:-- 0 100 431 100 431 0 0 5256 0 --:--:-- --:--:-- --:--:-- 5256 % Total % Received % Xferd Average Speed Time Time Time Current Dload Upload Total Spent Left Speed 0 0 0 0 0 0 0 0 --:--:-- --:--:-- --:--:-- 0 100 431 100 431 0 0 9170 0 --:--:-- --:--:-- --:--:-- 9170 % Total % Received % Xferd Average Speed Time Time Time Current Dload Upload Total Spent Left Speed 0 0 0 0 0 0 0 0 --:--:-- --:--:-- --:--:-- 0 100 427 100 427 0 0 5271 0 --:--:-- --:--:-- --:--:-- 5271 % Total % Received % Xferd Average Speed Time Time Time Current Dload Upload Total Spent Left Speed 0 0 0 0 0 0 0 0 --:--:-- --:--:-- --:--:-- 0 100 432 100 432 0 0 4595 0 --:--:-- --:--:-- --:--:-- 4595 % Total % Received % Xferd Average Speed Time Time Time Current Dload Upload Total Spent Left Speed 0 0 0 0 0 0 0 0 --:--:-- --:--:-- --:--:-- 0 100 431 100 431 0 0 1873 0 --:--:-- --:--:-- --:--:-- 1873 tail: cannot open '/home/sinton/sjsu1f/mlbcalmindexk.csv' for reading: No such file or directory tail: cannot open '/home/sinton/sjsu1f/mlbavgwindindexk.csv' for reading: No such file or directory tail: cannot open '/home/sinton/sjsu1f/mlbcalmindexk.csv' for reading: No such file or directory tail: cannot open '/home/sinton/sjsu1f/mlbavgwindindexk.csv' for reading: No such file or directory tail: cannot open '/home/sinton/sjsu1f/mlbcalmindexk.csv' for reading: No such file or directory tail: cannot open '/home/sinton/sjsu1f/mlbavgwindindexk.csv' for reading: No such file or directory tail: cannot open '/home/sinton/sjsu1f/mlbcalmindexk.csv' for reading: No such file or directory tail: cannot open '/home/sinton/sjsu1f/mlbavgwindindexk.csv' for reading: No such file or directory tail: cannot open '/home/sinton/sjsu1f/mlbcalmindexk.csv' for reading: No such file or directory tail: cannot open '/home/sinton/sjsu1f/mlbavgwindindexk.csv' for reading: No such file or directory tail: cannot open '/home/sinton/sjsu1f/mlbcalmindexk.csv' for reading: No such file or directory tail: cannot open '/home/sinton/sjsu1f/mlbavgwindindexk.csv' for reading: No such file or directory tail: cannot open '/home/sinton/sjsu1f/mlbcalmindexk.csv' for reading: No such file or directory tail: cannot open '/home/sinton/sjsu1f/mlbavgwindindexk.csv' for reading: No such file or directory tail: cannot open '/home/sinton/sjsu1f/mlbcalmindexk.csv' for reading: No such file or directory tail: cannot open '/home/sinton/sjsu1f/mlbavgwindindexk.csv' for reading: No such file or directory tail: cannot open '/home/sinton/sjsu1f/mlbcalmindexk.csv' for reading: No such file or directory tail: cannot open '/home/sinton/sjsu1f/mlbavgwindindexk.csv' for reading: No such file or directory tail: cannot open '/home/sinton/sjsu1f/mlbcalmindexk.csv' for reading: No such file or directory tail: cannot open '/home/sinton/sjsu1f/mlbavgwindindexk.csv' for reading: No such file or directory tail: cannot open '/home/sinton/sjsu1f/mlbcalmindexk.csv' for reading: No such file or directory tail: cannot open '/home/sinton/sjsu1f/mlbavgwindindexk.csv' for reading: No such file or directory tail: cannot open '/home/sinton/sjsu1f/mlbcalmindexk.csv' for reading: No such file or directory tail: cannot open '/home/sinton/sjsu1f/mlbavgwindindexk.csv' for reading: No such file or directory tail: cannot open '/home/sinton/sjsu1f/mlbcalmindexk.csv' for reading: No such file or directory tail: cannot open '/home/sinton/sjsu1f/mlbavgwindindexk.csv' for reading: No such file or directory tail: cannot open '/home/sinton/sjsu1f/mlbcalmindexk.csv' for reading: No such file or directory tail: cannot open '/home/sinton/sjsu1f/mlbavgwindindexk.csv' for reading: No such file or directory tail: cannot open '/home/sinton/sjsu1f/mlbcalmindexk.csv' for reading: No such file or directory tail: cannot open '/home/sinton/sjsu1f/mlbavgwindindexk.csv' for reading: No such file or directory tail: cannot open '/home/sinton/sjsu1f/mlbcalmindexk.csv' for reading: No such file or directory tail: cannot open '/home/sinton/sjsu1f/mlbavgwindindexk.csv' for reading: No such file or directory % Total % Received % Xferd Average Speed Time Time Time Current Dload Upload Total Spent Left Speed 0 0 0 0 0 0 0 0 --:--:-- --:--:-- --:--:-- 0 0 0 0 0 0 0 0 0 --:--:-- 0:00:01 --:--:-- 0 100 428 100 428 0 0 285 0 0:00:01 0:00:01 --:--:-- 285 % Total % Received % Xferd Average Speed Time Time Time Current Dload Upload Total Spent Left Speed 0 0 0 0 0 0 0 0 --:--:-- --:--:-- --:--:-- 0 100 432 100 432 0 0 3630 0 --:--:-- --:--:-- --:--:-- 3630 % Total % Received % Xferd Average Speed Time Time Time Current Dload Upload Total Spent Left Speed 0 0 0 0 0 0 0 0 --:--:-- --:--:-- --:--:-- 0 0 0 0 0 0 0 0 0 --:--:-- --:--:-- --:--:-- 0 100 429 100 429 0 0 1594 0 --:--:-- --:--:-- --:--:-- 1588 % Total % Received % Xferd Average Speed Time Time Time Current Dload Upload Total Spent Left Speed 0 0 0 0 0 0 0 0 --:--:-- --:--:-- --:--:-- 0 100 432 100 432 0 0 8307 0 --:--:-- --:--:-- --:--:-- 8307 % Total % Received % Xferd Average Speed Time Time Time Current Dload Upload Total Spent Left Speed 0 0 0 0 0 0 0 0 --:--:-- --:--:-- --:--:-- 0 100 431 100 431 0 0 750 0 --:--:-- --:--:-- --:--:-- 750 tail: cannot open '/home/sinton/sjsu1f/mlbcalmindexk.csv' for reading: No such file or directory tail: cannot open '/home/sinton/sjsu1f/mlbavgwindindexk.csv' for reading: No such file or directory tail: cannot open '/home/sinton/sjsu1f/mlbcalmindexk.csv' for reading: No such file or directory tail: cannot open '/home/sinton/sjsu1f/mlbavgwindindexk.csv' for reading: No such file or directory tail: cannot open '/home/sinton/sjsu1f/mlbcalmindexk.csv' for reading: No such file or directory tail: cannot open '/home/sinton/sjsu1f/mlbavgwindindexk.csv' for reading: No such file or directory mv: cannot stat '/home/sinton/public_html/John1f/oakstuck': No such file or directory tail: cannot open '/home/sinton/sjsu1f/mlbcalmindexk.csv' for reading: No such file or directory tail: cannot open '/home/sinton/sjsu1f/mlbavgwindindexk.csv' for reading: No such file or directory tail: cannot open '/home/sinton/sjsu1f/mlbcalmindexk.csv' for reading: No such file or directory tail: cannot open '/home/sinton/sjsu1f/mlbavgwindindexk.csv' for reading: No such file or directory tail: cannot open '/home/sinton/sjsu1f/mlbcalmindexk.csv' for reading: No such file or directory tail: cannot open '/home/sinton/sjsu1f/mlbavgwindindexk.csv' for reading: No such file or directory tail: cannot open '/home/sinton/sjsu1f/mlbcalmindexk.csv' for reading: No such file or directory tail: cannot open '/home/sinton/sjsu1f/mlbavgwindindexk.csv' for reading: No such file or directory tail: cannot open '/home/sinton/sjsu1f/mlbcalmindexk.csv' for reading: No such file or directory tail: cannot open '/home/sinton/sjsu1f/mlbavgwindindexk.csv' for reading: No such file or directory tail: cannot open '/home/sinton/sjsu1f/mlbcalmindexk.csv' for reading: No such file or directory tail: cannot open '/home/sinton/sjsu1f/mlbavgwindindexk.csv' for reading: No such file or directory tail: cannot open '/home/sinton/sjsu1f/mlbcalmindexk.csv' for reading: No such file or directory tail: cannot open '/home/sinton/sjsu1f/mlbavgwindindexk.csv' for reading: No such file or directory tail: cannot open '/home/sinton/sjsu1f/mlbcalmindexk.csv' for reading: No such file or directory tail: cannot open '/home/sinton/sjsu1f/mlbavgwindindexk.csv' for reading: No such file or directory tail: cannot open '/home/sinton/sjsu1f/mlbcalmindexk.csv' for reading: No such file or directory tail: cannot open '/home/sinton/sjsu1f/mlbavgwindindexk.csv' for reading: No such file or directory tail: cannot open '/home/sinton/sjsu1f/mlbcalmindexk.csv' for reading: No such file or directory tail: cannot open '/home/sinton/sjsu1f/mlbavgwindindexk.csv' for reading: No such file or directory % Total % Received % Xferd Average Speed Time Time Time Current Dload Upload Total Spent Left Speed 0 0 0 0 0 0 0 0 --:--:-- --:--:-- --:--:-- 0 100 432 100 432 0 0 4194 0 --:--:-- --:--:-- --:--:-- 4194 % Total % Received % Xferd Average Speed Time Time Time Current Dload Upload Total Spent Left Speed 0 0 0 0 0 0 0 0 --:--:-- --:--:-- --:--:-- 0 100 431 100 431 0 0 3192 0 --:--:-- --:--:-- --:--:-- 3192 % Total % Received % Xferd Average Speed Time Time Time Current Dload Upload Total Spent Left Speed 0 0 0 0 0 0 0 0 --:--:-- --:--:-- --:--:-- 0 100 428 100 428 0 0 9106 0 --:--:-- --:--:-- --:--:-- 9106 % Total % Received % Xferd Average Speed Time Time Time Current Dload Upload Total Spent Left Speed 0 0 0 0 0 0 0 0 --:--:-- --:--:-- --:--:-- 0 100 429 100 429 0 0 3000 0 --:--:-- --:--:-- --:--:-- 2979 100 429 100 429 0 0 3000 0 --:--:-- --:--:-- --:--:-- 2979 % Total % Received % Xferd Average Speed Time Time Time Current Dload Upload Total Spent Left Speed 0 0 0 0 0 0 0 0 --:--:-- --:--:-- --:--:-- 0 100 428 100 428 0 0 3014 0 --:--:-- --:--:-- --:--:-- 3014 tail: cannot open '/home/sinton/sjsu1f/mlbcalmindexk.csv' for reading: No such file or directory tail: cannot open '/home/sinton/sjsu1f/mlbavgwindindexk.csv' for reading: No such file or directory tail: cannot open '/home/sinton/sjsu1f/mlbcalmindexk.csv' for reading: No such file or directory tail: cannot open '/home/sinton/sjsu1f/mlbavgwindindexk.csv' for reading: No such file or directory tail: cannot open '/home/sinton/sjsu1f/mlbcalmindexk.csv' for reading: No such file or directory tail: cannot open '/home/sinton/sjsu1f/mlbavgwindindexk.csv' for reading: No such file or directory tail: cannot open '/home/sinton/sjsu1f/mlbcalmindexk.csv' for reading: No such file or directory tail: cannot open '/home/sinton/sjsu1f/mlbavgwindindexk.csv' for reading: No such file or directory tail: cannot open '/home/sinton/sjsu1f/mlbcalmindexk.csv' for reading: No such file or directory tail: cannot open '/home/sinton/sjsu1f/mlbavgwindindexk.csv' for reading: No such file or directory tail: cannot open '/home/sinton/sjsu1f/mlbcalmindexk.csv' for reading: No such file or directory tail: cannot open '/home/sinton/sjsu1f/mlbavgwindindexk.csv' for reading: No such file or directory tail: cannot open '/home/sinton/sjsu1f/mlbcalmindexk.csv' for reading: No such file or directory tail: cannot open '/home/sinton/sjsu1f/mlbavgwindindexk.csv' for reading: No such file or directory tail: cannot open '/home/sinton/sjsu1f/mlbcalmindexk.csv' for reading: No such file or directory tail: cannot open '/home/sinton/sjsu1f/mlbavgwindindexk.csv' for reading: No such file or directory tail: cannot open '/home/sinton/sjsu1f/mlbcalmindexk.csv' for reading: No such file or directory tail: cannot open '/home/sinton/sjsu1f/mlbavgwindindexk.csv' for reading: No such file or directory tail: cannot open '/home/sinton/sjsu1f/mlbcalmindexk.csv' for reading: No such file or directory tail: cannot open '/home/sinton/sjsu1f/mlbavgwindindexk.csv' for reading: No such file or directory tail: cannot open '/home/sinton/sjsu1f/mlbcalmindexk.csv' for reading: No such file or directory tail: cannot open '/home/sinton/sjsu1f/mlbavgwindindexk.csv' for reading: No such file or directory tail: cannot open '/home/sinton/sjsu1f/mlbcalmindexk.csv' for reading: No such file or directory tail: cannot open '/home/sinton/sjsu1f/mlbavgwindindexk.csv' for reading: No such file or directory tail: cannot open '/home/sinton/sjsu1f/mlbcalmindexk.csv' for reading: No such file or directory tail: cannot open '/home/sinton/sjsu1f/mlbavgwindindexk.csv' for reading: No such file or directory tail: cannot open '/home/sinton/sjsu1f/mlbcalmindexk.csv' for reading: No such file or directory tail: cannot open '/home/sinton/sjsu1f/mlbavgwindindexk.csv' for reading: No such file or directory % Total % Received % Xferd Average Speed Time Time Time Current Dload Upload Total Spent Left Speed 0 0 0 0 0 0 0 0 --:--:-- --:--:-- --:--:-- 0 100 432 100 432 0 0 7578 0 --:--:-- --:--:-- --:--:-- 7578 % Total % Received % Xferd Average Speed Time Time Time Current Dload Upload Total Spent Left Speed 0 0 0 0 0 0 0 0 --:--:-- --:--:-- --:--:-- 0 100 432 100 432 0 0 7081 0 --:--:-- --:--:-- --:--:-- 7081 % Total % Received % Xferd Average Speed Time Time Time Current Dload Upload Total Spent Left Speed 0 0 0 0 0 0 0 0 --:--:-- --:--:-- --:--:-- 0 100 429 100 429 0 0 9976 0 --:--:-- --:--:-- --:--:-- 9976 % Total % Received % Xferd Average Speed Time Time Time Current Dload Upload Total Spent Left Speed 0 0 0 0 0 0 0 0 --:--:-- --:--:-- --:--:-- 0 100 431 100 431 0 0 3100 0 --:--:-- --:--:-- --:--:-- 3100 % Total % Received % Xferd Average Speed Time Time Time Current Dload Upload Total Spent Left Speed 0 0 0 0 0 0 0 0 --:--:-- --:--:-- --:--:-- 0 100 430 100 430 0 0 2160 0 --:--:-- --:--:-- --:--:-- 2150 100 430 100 430 0 0 2160 0 --:--:-- --:--:-- --:--:-- 2150 tail: cannot open '/home/sinton/sjsu1f/mlbcalmindexk.csv' for reading: No such file or directory tail: cannot open '/home/sinton/sjsu1f/mlbavgwindindexk.csv' for reading: No such file or directory tail: cannot open '/home/sinton/sjsu1f/mlbcalmindexk.csv' for reading: No such file or directory tail: cannot open '/home/sinton/sjsu1f/mlbavgwindindexk.csv' for reading: No such file or directory tail: cannot open '/home/sinton/sjsu1f/mlbcalmindexk.csv' for reading: No such file or directory tail: cannot open '/home/sinton/sjsu1f/mlbavgwindindexk.csv' for reading: No such file or directory tail: cannot open '/home/sinton/sjsu1f/mlbcalmindexk.csv' for reading: No such file or directory tail: cannot open '/home/sinton/sjsu1f/mlbavgwindindexk.csv' for reading: No such file or directory tail: cannot open '/home/sinton/sjsu1f/mlbcalmindexk.csv' for reading: No such file or directory tail: cannot open '/home/sinton/sjsu1f/mlbavgwindindexk.csv' for reading: No such file or directory tail: cannot open '/home/sinton/sjsu1f/mlbcalmindexk.csv' for reading: No such file or directory tail: cannot open '/home/sinton/sjsu1f/mlbavgwindindexk.csv' for reading: No such file or directory tail: cannot open '/home/sinton/sjsu1f/mlbcalmindexk.csv' for reading: No such file or directory tail: cannot open '/home/sinton/sjsu1f/mlbavgwindindexk.csv' for reading: No such file or directory tail: cannot open '/home/sinton/sjsu1f/mlbcalmindexk.csv' for reading: No such file or directory tail: cannot open '/home/sinton/sjsu1f/mlbavgwindindexk.csv' for reading: No such file or directory tail: cannot open '/home/sinton/sjsu1f/mlbcalmindexk.csv' for reading: No such file or directory tail: cannot open '/home/sinton/sjsu1f/mlbavgwindindexk.csv' for reading: No such file or directory tail: cannot open '/home/sinton/sjsu1f/mlbcalmindexk.csv' for reading: No such file or directory tail: cannot open '/home/sinton/sjsu1f/mlbavgwindindexk.csv' for reading: No such file or directory tail: cannot open '/home/sinton/sjsu1f/mlbcalmindexk.csv' for reading: No such file or directory tail: cannot open '/home/sinton/sjsu1f/mlbavgwindindexk.csv' for reading: No such file or directory tail: cannot open '/home/sinton/sjsu1f/mlbcalmindexk.csv' for reading: No such file or directory tail: cannot open '/home/sinton/sjsu1f/mlbavgwindindexk.csv' for reading: No such file or directory tail: cannot open '/home/sinton/sjsu1f/mlbcalmindexk.csv' for reading: No such file or directory tail: cannot open '/home/sinton/sjsu1f/mlbavgwindindexk.csv' for reading: No such file or directory % Total % Received % Xferd Average Speed Time Time Time Current Dload Upload Total Spent Left Speed 0 0 0 0 0 0 0 0 --:--:-- --:--:-- --:--:-- 0 100 432 100 432 0 0 3130 0 --:--:-- --:--:-- --:--:-- 3130 % Total % Received % Xferd Average Speed Time Time Time Current Dload Upload Total Spent Left Speed 0 0 0 0 0 0 0 0 --:--:-- --:--:-- --:--:-- 0 100 430 100 430 0 0 4777 0 --:--:-- --:--:-- --:--:-- 4777 % Total % Received % Xferd Average Speed Time Time Time Current Dload Upload Total Spent Left Speed 0 0 0 0 0 0 0 0 --:--:-- --:--:-- --:--:-- 0 0 0 0 0 0 0 0 0 --:--:-- --:--:-- --:--:-- 0 100 431 100 431 0 0 4028 0 --:--:-- --:--:-- --:--:-- 3990 % Total % Received % Xferd Average Speed Time Time Time Current Dload Upload Total Spent Left Speed 0 0 0 0 0 0 0 0 --:--:-- --:--:-- --:--:-- 0 100 432 100 432 0 0 7578 0 --:--:-- --:--:-- --:--:-- 7578 % Total % Received % Xferd Average Speed Time Time Time Current Dload Upload Total Spent Left Speed 0 0 0 0 0 0 0 0 --:--:-- --:--:-- --:--:-- 0 100 431 100 431 0 0 10023 0 --:--:-- --:--:-- --:--:-- 10023 tail: cannot open '/home/sinton/sjsu1f/mlbcalmindexk.csv' for reading: No such file or directory tail: cannot open '/home/sinton/sjsu1f/mlbavgwindindexk.csv' for reading: No such file or directory tail: cannot open '/home/sinton/sjsu1f/mlbcalmindexk.csv' for reading: No such file or directory tail: cannot open '/home/sinton/sjsu1f/mlbavgwindindexk.csv' for reading: No such file or directory tail: cannot open '/home/sinton/sjsu1f/mlbcalmindexk.csv' for reading: No such file or directory tail: cannot open '/home/sinton/sjsu1f/mlbavgwindindexk.csv' for reading: No such file or directory tail: cannot open '/home/sinton/sjsu1f/mlbcalmindexk.csv' for reading: No such file or directory tail: cannot open '/home/sinton/sjsu1f/mlbavgwindindexk.csv' for reading: No such file or directory tail: cannot open '/home/sinton/sjsu1f/mlbcalmindexk.csv' for reading: No such file or directory tail: cannot open '/home/sinton/sjsu1f/mlbavgwindindexk.csv' for reading: No such file or directory tail: cannot open '/home/sinton/sjsu1f/mlbcalmindexk.csv' for reading: No such file or directory tail: cannot open '/home/sinton/sjsu1f/mlbavgwindindexk.csv' for reading: No such file or directory tail: cannot open '/home/sinton/sjsu1f/mlbcalmindexk.csv' for reading: No such file or directory tail: cannot open '/home/sinton/sjsu1f/mlbavgwindindexk.csv' for reading: No such file or directory tail: cannot open '/home/sinton/sjsu1f/mlbcalmindexk.csv' for reading: No such file or directory tail: cannot open '/home/sinton/sjsu1f/mlbavgwindindexk.csv' for reading: No such file or directory mv: cannot stat '/home/sinton/public_html/John1f/oakstuck': No such file or directory tail: cannot open '/home/sinton/sjsu1f/mlbcalmindexk.csv' for reading: No such file or directory tail: cannot open '/home/sinton/sjsu1f/mlbavgwindindexk.csv' for reading: No such file or directory tail: cannot open '/home/sinton/sjsu1f/mlbcalmindexk.csv' for reading: No such file or directory tail: cannot open '/home/sinton/sjsu1f/mlbavgwindindexk.csv' for reading: No such file or directory tail: cannot open '/home/sinton/sjsu1f/mlbcalmindexk.csv' for reading: No such file or directory tail: cannot open '/home/sinton/sjsu1f/mlbavgwindindexk.csv' for reading: No such file or directory tail: cannot open '/home/sinton/sjsu1f/mlbcalmindexk.csv' for reading: No such file or directory tail: cannot open '/home/sinton/sjsu1f/mlbavgwindindexk.csv' for reading: No such file or directory tail: cannot open '/home/sinton/sjsu1f/mlbcalmindexk.csv' for reading: No such file or directory tail: cannot open '/home/sinton/sjsu1f/mlbavgwindindexk.csv' for reading: No such file or directory % Total % Received % Xferd Average Speed Time Time Time Current Dload Upload Total Spent Left Speed 0 0 0 0 0 0 0 0 --:--:-- --:--:-- --:--:-- 0 100 432 100 432 0 0 5837 0 --:--:-- --:--:-- --:--:-- 5837 % Total % Received % Xferd Average Speed Time Time Time Current Dload Upload Total Spent Left Speed 0 0 0 0 0 0 0 0 --:--:-- --:--:-- --:--:-- 0 100 431 100 431 0 0 3990 0 --:--:-- --:--:-- --:--:-- 3990 % Total % Received % Xferd Average Speed Time Time Time Current Dload Upload Total Spent Left Speed 0 0 0 0 0 0 0 0 --:--:-- --:--:-- --:--:-- 0 100 430 100 430 0 0 1990 0 --:--:-- --:--:-- --:--:-- 1990 % Total % Received % Xferd Average Speed Time Time Time Current Dload Upload Total Spent Left Speed 0 0 0 0 0 0 0 0 --:--:-- --:--:-- --:--:-- 0 100 430 100 430 0 0 4886 0 --:--:-- --:--:-- --:--:-- 4886 % Total % Received % Xferd Average Speed Time Time Time Current Dload Upload Total Spent Left Speed 0 0 0 0 0 0 0 0 --:--:-- --:--:-- --:--:-- 0 100 429 100 429 0 0 4333 0 --:--:-- --:--:-- --:--:-- 4333 tail: cannot open '/home/sinton/sjsu1f/mlbcalmindexk.csv' for reading: No such file or directory tail: cannot open '/home/sinton/sjsu1f/mlbavgwindindexk.csv' for reading: No such file or directory tail: cannot open '/home/sinton/sjsu1f/mlbcalmindexk.csv' for reading: No such file or directory tail: cannot open '/home/sinton/sjsu1f/mlbavgwindindexk.csv' for reading: No such file or directory tail: cannot open '/home/sinton/sjsu1f/mlbcalmindexk.csv' for reading: No such file or directory tail: cannot open '/home/sinton/sjsu1f/mlbavgwindindexk.csv' for reading: No such file or directory tail: cannot open '/home/sinton/sjsu1f/mlbcalmindexk.csv' for reading: No such file or directory tail: cannot open '/home/sinton/sjsu1f/mlbavgwindindexk.csv' for reading: No such file or directory tail: cannot open '/home/sinton/sjsu1f/mlbcalmindexk.csv' for reading: No such file or directory tail: cannot open '/home/sinton/sjsu1f/mlbavgwindindexk.csv' for reading: No such file or directory tail: cannot open '/home/sinton/sjsu1f/mlbcalmindexk.csv' for reading: No such file or directory tail: cannot open '/home/sinton/sjsu1f/mlbavgwindindexk.csv' for reading: No such file or directory tail: cannot open '/home/sinton/sjsu1f/mlbcalmindexk.csv' for reading: No such file or directory tail: cannot open '/home/sinton/sjsu1f/mlbavgwindindexk.csv' for reading: No such file or directory tail: cannot open '/home/sinton/sjsu1f/mlbcalmindexk.csv' for reading: No such file or directory tail: cannot open '/home/sinton/sjsu1f/mlbavgwindindexk.csv' for reading: No such file or directory tail: cannot open '/home/sinton/sjsu1f/mlbcalmindexk.csv' for reading: No such file or directory tail: cannot open '/home/sinton/sjsu1f/mlbavgwindindexk.csv' for reading: No such file or directory tail: cannot open '/home/sinton/sjsu1f/mlbcalmindexk.csv' for reading: No such file or directory tail: cannot open '/home/sinton/sjsu1f/mlbavgwindindexk.csv' for reading: No such file or directory tail: cannot open '/home/sinton/sjsu1f/mlbcalmindexk.csv' for reading: No such file or directory tail: cannot open '/home/sinton/sjsu1f/mlbavgwindindexk.csv' for reading: No such file or directory % Total % Received % Xferd Average Speed Time Time Time Current Dload Upload Total Spent Left Speed 0 0 0 0 0 0 0 0 --:--:-- --:--:-- --:--:-- 0 100 432 100 432 0 0 1721 0 --:--:-- --:--:-- --:--:-- 1721 % Total % Received % Xferd Average Speed Time Time Time Current Dload Upload Total Spent Left Speed 0 0 0 0 0 0 0 0 --:--:-- --:--:-- --:--:-- 0 100 431 100 431 0 0 4954 0 --:--:-- --:--:-- --:--:-- 4954 % Total % Received % Xferd Average Speed Time Time Time Current Dload Upload Total Spent Left Speed 0 0 0 0 0 0 0 0 --:--:-- --:--:-- --:--:-- 0 100 430 100 430 0 0 4300 0 --:--:-- --:--:-- --:--:-- 4300 % Total % Received % Xferd Average Speed Time Time Time Current Dload Upload Total Spent Left Speed 0 0 0 0 0 0 0 0 --:--:-- --:--:-- --:--:-- 0 0 0 0 0 0 0 0 0 --:--:-- --:--:-- --:--:-- 0 100 430 100 430 0 0 1000 0 --:--:-- --:--:-- --:--:-- 997 % Total % Received % Xferd Average Speed Time Time Time Current Dload Upload Total Spent Left Speed 0 0 0 0 0 0 0 0 --:--:-- --:--:-- --:--:-- 0 100 429 100 429 0 0 5231 0 --:--:-- --:--:-- --:--:-- 5296 tail: cannot open '/home/sinton/sjsu1f/mlbcalmindexk.csv' for reading: No such file or directory tail: cannot open '/home/sinton/sjsu1f/mlbavgwindindexk.csv' for reading: No such file or directory tail: cannot open '/home/sinton/sjsu1f/mlbcalmindexk.csv' for reading: No such file or directory tail: cannot open '/home/sinton/sjsu1f/mlbavgwindindexk.csv' for reading: No such file or directory tail: cannot open '/home/sinton/sjsu1f/mlbcalmindexk.csv' for reading: No such file or directory tail: cannot open '/home/sinton/sjsu1f/mlbavgwindindexk.csv' for reading: No such file or directory tail: cannot open '/home/sinton/sjsu1f/mlbcalmindexk.csv' for reading: No such file or directory tail: cannot open '/home/sinton/sjsu1f/mlbavgwindindexk.csv' for reading: No such file or directory tail: cannot open '/home/sinton/sjsu1f/mlbcalmindexk.csv' for reading: No such file or directory tail: cannot open '/home/sinton/sjsu1f/mlbavgwindindexk.csv' for reading: No such file or directory tail: cannot open '/home/sinton/sjsu1f/mlbcalmindexk.csv' for reading: No such file or directory tail: cannot open '/home/sinton/sjsu1f/mlbavgwindindexk.csv' for reading: No such file or directory tail: cannot open '/home/sinton/sjsu1f/mlbcalmindexk.csv' for reading: No such file or directory tail: cannot open '/home/sinton/sjsu1f/mlbavgwindindexk.csv' for reading: No such file or directory tail: cannot open '/home/sinton/sjsu1f/mlbcalmindexk.csv' for reading: No such file or directory tail: cannot open '/home/sinton/sjsu1f/mlbavgwindindexk.csv' for reading: No such file or directory tail: cannot open '/home/sinton/sjsu1f/mlbcalmindexk.csv' for reading: No such file or directory tail: cannot open '/home/sinton/sjsu1f/mlbavgwindindexk.csv' for reading: No such file or directory tail: cannot open '/home/sinton/sjsu1f/mlbcalmindexk.csv' for reading: No such file or directory tail: cannot open '/home/sinton/sjsu1f/mlbavgwindindexk.csv' for reading: No such file or directory tail: cannot open '/home/sinton/sjsu1f/mlbcalmindexk.csv' for reading: No such file or directory tail: cannot open '/home/sinton/sjsu1f/mlbavgwindindexk.csv' for reading: No such file or directory tail: cannot open '/home/sinton/sjsu1f/mlbcalmindexk.csv' for reading: No such file or directory tail: cannot open '/home/sinton/sjsu1f/mlbavgwindindexk.csv' for reading: No such file or directory tail: cannot open '/home/sinton/sjsu1f/mlbcalmindexk.csv' for reading: No such file or directory tail: cannot open '/home/sinton/sjsu1f/mlbavgwindindexk.csv' for reading: No such file or directory tail: cannot open '/home/sinton/sjsu1f/mlbcalmindexk.csv' for reading: No such file or directory tail: cannot open '/home/sinton/sjsu1f/mlbavgwindindexk.csv' for reading: No such file or directory tail: cannot open '/home/sinton/sjsu1f/mlbcalmindexk.csv' for reading: No such file or directory tail: cannot open '/home/sinton/sjsu1f/mlbavgwindindexk.csv' for reading: No such file or directory tail: cannot open '/home/sinton/sjsu1f/mlbcalmindexk.csv' for reading: No such file or directory tail: cannot open '/home/sinton/sjsu1f/mlbavgwindindexk.csv' for reading: No such file or directory tail: cannot open '/home/sinton/sjsu1f/mlbcalmindexk.csv' for reading: No such file or directory tail: cannot open '/home/sinton/sjsu1f/mlbavgwindindexk.csv' for reading: No such file or directory % Total % Received % Xferd Average Speed Time Time Time Current Dload Upload Total Spent Left Speed 0 0 0 0 0 0 0 0 --:--:-- --:--:-- --:--:-- 0 100 432 100 432 0 0 2618 0 --:--:-- --:--:-- --:--:-- 2618 % Total % Received % Xferd Average Speed Time Time Time Current Dload Upload Total Spent Left Speed 0 0 0 0 0 0 0 0 --:--:-- --:--:-- --:--:-- 0 100 431 100 431 0 0 6951 0 --:--:-- --:--:-- --:--:-- 6951 % Total % Received % Xferd Average Speed Time Time Time Current Dload Upload Total Spent Left Speed 0 0 0 0 0 0 0 0 --:--:-- --:--:-- --:--:-- 0 100 429 100 429 0 0 1515 0 --:--:-- --:--:-- --:--:-- 1515 % Total % Received % Xferd Average Speed Time Time Time Current Dload Upload Total Spent Left Speed 0 0 0 0 0 0 0 0 --:--:-- --:--:-- --:--:-- 0 100 430 100 430 0 0 2388 0 --:--:-- --:--:-- --:--:-- 2375 100 430 100 430 0 0 2388 0 --:--:-- --:--:-- --:--:-- 2375 % Total % Received % Xferd Average Speed Time Time Time Current Dload Upload Total Spent Left Speed 0 0 0 0 0 0 0 0 --:--:-- --:--:-- --:--:-- 0 100 429 100 429 0 0 4714 0 --:--:-- --:--:-- --:--:-- 4714 tail: cannot open '/home/sinton/sjsu1f/mlbcalmindexk.csv' for reading: No such file or directory tail: cannot open '/home/sinton/sjsu1f/mlbavgwindindexk.csv' for reading: No such file or directory tail: cannot open '/home/sinton/sjsu1f/mlbcalmindexk.csv' for reading: No such file or directory tail: cannot open '/home/sinton/sjsu1f/mlbavgwindindexk.csv' for reading: No such file or directory tail: cannot open '/home/sinton/sjsu1f/mlbcalmindexk.csv' for reading: No such file or directory tail: cannot open '/home/sinton/sjsu1f/mlbavgwindindexk.csv' for reading: No such file or directory tail: cannot open '/home/sinton/sjsu1f/mlbcalmindexk.csv' for reading: No such file or directory tail: cannot open '/home/sinton/sjsu1f/mlbavgwindindexk.csv' for reading: No such file or directory tail: cannot open '/home/sinton/sjsu1f/mlbcalmindexk.csv' for reading: No such file or directory tail: cannot open '/home/sinton/sjsu1f/mlbavgwindindexk.csv' for reading: No such file or directory tail: cannot open '/home/sinton/sjsu1f/mlbcalmindexk.csv' for reading: No such file or directory tail: cannot open '/home/sinton/sjsu1f/mlbavgwindindexk.csv' for reading: No such file or directory tail: cannot open '/home/sinton/sjsu1f/mlbcalmindexk.csv' for reading: No such file or directory tail: cannot open '/home/sinton/sjsu1f/mlbavgwindindexk.csv' for reading: No such file or directory tail: cannot open '/home/sinton/sjsu1f/mlbcalmindexk.csv' for reading: No such file or directory tail: cannot open '/home/sinton/sjsu1f/mlbavgwindindexk.csv' for reading: No such file or directory tail: cannot open '/home/sinton/sjsu1f/mlbcalmindexk.csv' for reading: No such file or directory tail: cannot open '/home/sinton/sjsu1f/mlbavgwindindexk.csv' for reading: No such file or directory tail: cannot open '/home/sinton/sjsu1f/mlbcalmindexk.csv' for reading: No such file or directory tail: cannot open '/home/sinton/sjsu1f/mlbavgwindindexk.csv' for reading: No such file or directory tail: cannot open '/home/sinton/sjsu1f/mlbcalmindexk.csv' for reading: No such file or directory tail: cannot open '/home/sinton/sjsu1f/mlbavgwindindexk.csv' for reading: No such file or directory tail: cannot open '/home/sinton/sjsu1f/mlbcalmindexk.csv' for reading: No such file or directory tail: cannot open '/home/sinton/sjsu1f/mlbavgwindindexk.csv' for reading: No such file or directory tail: cannot open '/home/sinton/sjsu1f/mlbcalmindexk.csv' for reading: No such file or directory tail: cannot open '/home/sinton/sjsu1f/mlbavgwindindexk.csv' for reading: No such file or directory % Total % Received % Xferd Average Speed Time Time Time Current Dload Upload Total Spent Left Speed 0 0 0 0 0 0 0 0 --:--:-- --:--:-- --:--:-- 0 100 431 100 431 0 0 1119 0 --:--:-- --:--:-- --:--:-- 1119 % Total % Received % Xferd Average Speed Time Time Time Current Dload Upload Total Spent Left Speed 0 0 0 0 0 0 0 0 --:--:-- --:--:-- --:--:-- 0 100 431 100 431 0 0 4634 0 --:--:-- --:--:-- --:--:-- 4634 % Total % Received % Xferd Average Speed Time Time Time Current Dload Upload Total Spent Left Speed 0 0 0 0 0 0 0 0 --:--:-- --:--:-- --:--:-- 0 100 430 100 430 0 0 10000 0 --:--:-- --:--:-- --:--:-- 10000 % Total % Received % Xferd Average Speed Time Time Time Current Dload Upload Total Spent Left Speed 0 0 0 0 0 0 0 0 --:--:-- --:--:-- --:--:-- 0 100 431 100 431 0 0 2187 0 --:--:-- --:--:-- --:--:-- 2187 % Total % Received % Xferd Average Speed Time Time Time Current Dload Upload Total Spent Left Speed 0 0 0 0 0 0 0 0 --:--:-- --:--:-- --:--:-- 0 100 430 100 430 0 0 4095 0 --:--:-- --:--:-- --:--:-- 4056 100 430 100 430 0 0 4095 0 --:--:-- --:--:-- --:--:-- 4056 tail: cannot open '/home/sinton/sjsu1f/mlbcalmindexk.csv' for reading: No such file or directory tail: cannot open '/home/sinton/sjsu1f/mlbavgwindindexk.csv' for reading: No such file or directory tail: cannot open '/home/sinton/sjsu1f/mlbcalmindexk.csv' for reading: No such file or directory tail: cannot open '/home/sinton/sjsu1f/mlbavgwindindexk.csv' for reading: No such file or directory tail: cannot open '/home/sinton/sjsu1f/mlbcalmindexk.csv' for reading: No such file or directory tail: cannot open '/home/sinton/sjsu1f/mlbavgwindindexk.csv' for reading: No such file or directory tail: cannot open '/home/sinton/sjsu1f/mlbcalmindexk.csv' for reading: No such file or directory tail: cannot open '/home/sinton/sjsu1f/mlbavgwindindexk.csv' for reading: No such file or directory tail: cannot open '/home/sinton/sjsu1f/mlbcalmindexk.csv' for reading: No such file or directory tail: cannot open '/home/sinton/sjsu1f/mlbavgwindindexk.csv' for reading: No such file or directory tail: cannot open '/home/sinton/sjsu1f/mlbcalmindexk.csv' for reading: No such file or directory tail: cannot open '/home/sinton/sjsu1f/mlbavgwindindexk.csv' for reading: No such file or directory tail: cannot open '/home/sinton/sjsu1f/mlbcalmindexk.csv' for reading: No such file or directory tail: cannot open '/home/sinton/sjsu1f/mlbavgwindindexk.csv' for reading: No such file or directory tail: cannot open '/home/sinton/sjsu1f/mlbcalmindexk.csv' for reading: No such file or directory tail: cannot open '/home/sinton/sjsu1f/mlbavgwindindexk.csv' for reading: No such file or directory mv: cannot stat '/home/sinton/public_html/John1f/oakstuck': No such file or directory tail: cannot open '/home/sinton/sjsu1f/mlbcalmindexk.csv' for reading: No such file or directory tail: cannot open '/home/sinton/sjsu1f/mlbavgwindindexk.csv' for reading: No such file or directory tail: cannot open '/home/sinton/sjsu1f/mlbcalmindexk.csv' for reading: No such file or directory tail: cannot open '/home/sinton/sjsu1f/mlbavgwindindexk.csv' for reading: No such file or directory tail: cannot open '/home/sinton/sjsu1f/mlbcalmindexk.csv' for reading: No such file or directory tail: cannot open '/home/sinton/sjsu1f/mlbavgwindindexk.csv' for reading: No such file or directory tail: cannot open '/home/sinton/sjsu1f/mlbcalmindexk.csv' for reading: No such file or directory tail: cannot open '/home/sinton/sjsu1f/mlbavgwindindexk.csv' for reading: No such file or directory tail: cannot open '/home/sinton/sjsu1f/mlbcalmindexk.csv' for reading: No such file or directory tail: cannot open '/home/sinton/sjsu1f/mlbavgwindindexk.csv' for reading: No such file or directory % Total % Received % Xferd Average Speed Time Time Time Current Dload Upload Total Spent Left Speed 0 0 0 0 0 0 0 0 --:--:-- --:--:-- --:--:-- 0 100 432 100 432 0 0 2716 0 --:--:-- --:--:-- --:--:-- 2716 % Total % Received % Xferd Average Speed Time Time Time Current Dload Upload Total Spent Left Speed 0 0 0 0 0 0 0 0 --:--:-- --:--:-- --:--:-- 0 100 431 100 431 0 0 3145 0 --:--:-- --:--:-- --:--:-- 3145 % Total % Received % Xferd Average Speed Time Time Time Current Dload Upload Total Spent Left Speed 0 0 0 0 0 0 0 0 --:--:-- --:--:-- --:--:-- 0 100 428 100 428 0 0 3242 0 --:--:-- --:--:-- --:--:-- 3218 100 428 100 428 0 0 3242 0 --:--:-- --:--:-- --:--:-- 3218 % Total % Received % Xferd Average Speed Time Time Time Current Dload Upload Total Spent Left Speed 0 0 0 0 0 0 0 0 --:--:-- --:--:-- --:--:-- 0 100 430 100 430 0 0 2275 0 --:--:-- --:--:-- --:--:-- 2275 % Total % Received % Xferd Average Speed Time Time Time Current Dload Upload Total Spent Left Speed 0 0 0 0 0 0 0 0 --:--:-- --:--:-- --:--:-- 0 100 429 100 429 0 0 2750 0 --:--:-- --:--:-- --:--:-- 2750 tail: cannot open '/home/sinton/sjsu1f/mlbcalmindexk.csv' for reading: No such file or directory tail: cannot open '/home/sinton/sjsu1f/mlbavgwindindexk.csv' for reading: No such file or directory tail: cannot open '/home/sinton/sjsu1f/mlbcalmindexk.csv' for reading: No such file or directory tail: cannot open '/home/sinton/sjsu1f/mlbavgwindindexk.csv' for reading: No such file or directory tail: cannot open '/home/sinton/sjsu1f/mlbcalmindexk.csv' for reading: No such file or directory tail: cannot open '/home/sinton/sjsu1f/mlbavgwindindexk.csv' for reading: No such file or directory tail: cannot open '/home/sinton/sjsu1f/mlbcalmindexk.csv' for reading: No such file or directory tail: cannot open '/home/sinton/sjsu1f/mlbavgwindindexk.csv' for reading: No such file or directory tail: cannot open '/home/sinton/sjsu1f/mlbcalmindexk.csv' for reading: No such file or directory tail: cannot open '/home/sinton/sjsu1f/mlbavgwindindexk.csv' for reading: No such file or directory tail: cannot open '/home/sinton/sjsu1f/mlbcalmindexk.csv' for reading: No such file or directory tail: cannot open '/home/sinton/sjsu1f/mlbavgwindindexk.csv' for reading: No such file or directory tail: cannot open '/home/sinton/sjsu1f/mlbcalmindexk.csv' for reading: No such file or directory tail: cannot open '/home/sinton/sjsu1f/mlbavgwindindexk.csv' for reading: No such file or directory tail: cannot open '/home/sinton/sjsu1f/mlbcalmindexk.csv' for reading: No such file or directory tail: cannot open '/home/sinton/sjsu1f/mlbavgwindindexk.csv' for reading: No such file or directory tail: cannot open '/home/sinton/sjsu1f/mlbcalmindexk.csv' for reading: No such file or directory tail: cannot open '/home/sinton/sjsu1f/mlbavgwindindexk.csv' for reading: No such file or directory tail: cannot open '/home/sinton/sjsu1f/mlbcalmindexk.csv' for reading: No such file or directory tail: cannot open '/home/sinton/sjsu1f/mlbavgwindindexk.csv' for reading: No such file or directory tail: cannot open '/home/sinton/sjsu1f/mlbcalmindexk.csv' for reading: No such file or directory tail: cannot open '/home/sinton/sjsu1f/mlbavgwindindexk.csv' for reading: No such file or directory tail: cannot open '/home/sinton/sjsu1f/mlbcalmindexk.csv' for reading: No such file or directory tail: cannot open '/home/sinton/sjsu1f/mlbavgwindindexk.csv' for reading: No such file or directory tail: cannot open '/home/sinton/sjsu1f/mlbcalmindexk.csv' for reading: No such file or directory tail: cannot open '/home/sinton/sjsu1f/mlbavgwindindexk.csv' for reading: No such file or directory tail: cannot open '/home/sinton/sjsu1f/mlbcalmindexk.csv' for reading: No such file or directory tail: cannot open '/home/sinton/sjsu1f/mlbavgwindindexk.csv' for reading: No such file or directory % Total % Received % Xferd Average Speed Time Time Time Current Dload Upload Total Spent Left Speed 0 0 0 0 0 0 0 0 --:--:-- --:--:-- --:--:-- 0 100 432 100 432 0 0 1281 0 --:--:-- --:--:-- --:--:-- 1285 % Total % Received % Xferd Average Speed Time Time Time Current Dload Upload Total Spent Left Speed 0 0 0 0 0 0 0 0 --:--:-- --:--:-- --:--:-- 0 100 431 100 431 0 0 3814 0 --:--:-- --:--:-- --:--:-- 3848 % Total % Received % Xferd Average Speed Time Time Time Current Dload Upload Total Spent Left Speed 0 0 0 0 0 0 0 0 --:--:-- --:--:-- --:--:-- 0 100 431 100 431 0 0 8288 0 --:--:-- --:--:-- --:--:-- 8288 % Total % Received % Xferd Average Speed Time Time Time Current Dload Upload Total Spent Left Speed 0 0 0 0 0 0 0 0 --:--:-- --:--:-- --:--:-- 0 100 432 100 432 0 0 5142 0 --:--:-- --:--:-- --:--:-- 5142 % Total % Received % Xferd Average Speed Time Time Time Current Dload Upload Total Spent Left Speed 0 0 0 0 0 0 0 0 --:--:-- --:--:-- --:--:-- 0 100 431 100 431 0 0 6630 0 --:--:-- --:--:-- --:--:-- 6630 tail: cannot open '/home/sinton/sjsu1f/mlbcalmindexk.csv' for reading: No such file or directory tail: cannot open '/home/sinton/sjsu1f/mlbavgwindindexk.csv' for reading: No such file or directory tail: cannot open '/home/sinton/sjsu1f/mlbcalmindexk.csv' for reading: No such file or directory tail: cannot open '/home/sinton/sjsu1f/mlbavgwindindexk.csv' for reading: No such file or directory tail: cannot open '/home/sinton/sjsu1f/mlbcalmindexk.csv' for reading: No such file or directory tail: cannot open '/home/sinton/sjsu1f/mlbavgwindindexk.csv' for reading: No such file or directory tail: cannot open '/home/sinton/sjsu1f/mlbcalmindexk.csv' for reading: No such file or directory tail: cannot open '/home/sinton/sjsu1f/mlbavgwindindexk.csv' for reading: No such file or directory tail: cannot open '/home/sinton/sjsu1f/mlbcalmindexk.csv' for reading: No such file or directory tail: cannot open '/home/sinton/sjsu1f/mlbavgwindindexk.csv' for reading: No such file or directory tail: cannot open '/home/sinton/sjsu1f/mlbcalmindexk.csv' for reading: No such file or directory tail: cannot open '/home/sinton/sjsu1f/mlbavgwindindexk.csv' for reading: No such file or directory tail: cannot open '/home/sinton/sjsu1f/mlbcalmindexk.csv' for reading: No such file or directory tail: cannot open '/home/sinton/sjsu1f/mlbavgwindindexk.csv' for reading: No such file or directory tail: cannot open '/home/sinton/sjsu1f/mlbcalmindexk.csv' for reading: No such file or directory tail: cannot open '/home/sinton/sjsu1f/mlbavgwindindexk.csv' for reading: No such file or directory tail: cannot open '/home/sinton/sjsu1f/mlbcalmindexk.csv' for reading: No such file or directory tail: cannot open '/home/sinton/sjsu1f/mlbavgwindindexk.csv' for reading: No such file or directory tail: cannot open '/home/sinton/sjsu1f/mlbcalmindexk.csv' for reading: No such file or directory tail: cannot open '/home/sinton/sjsu1f/mlbavgwindindexk.csv' for reading: No such file or directory tail: cannot open '/home/sinton/sjsu1f/mlbcalmindexk.csv' for reading: No such file or directory tail: cannot open '/home/sinton/sjsu1f/mlbavgwindindexk.csv' for reading: No such file or directory tail: cannot open '/home/sinton/sjsu1f/mlbcalmindexk.csv' for reading: No such file or directory tail: cannot open '/home/sinton/sjsu1f/mlbavgwindindexk.csv' for reading: No such file or directory tail: cannot open '/home/sinton/sjsu1f/mlbcalmindexk.csv' for reading: No such file or directory tail: cannot open '/home/sinton/sjsu1f/mlbavgwindindexk.csv' for reading: No such file or directory tail: cannot open '/home/sinton/sjsu1f/mlbcalmindexk.csv' for reading: No such file or directory tail: cannot open '/home/sinton/sjsu1f/mlbavgwindindexk.csv' for reading: No such file or directory % Total % Received % Xferd Average Speed Time Time Time Current Dload Upload Total Spent Left Speed 0 0 0 0 0 0 0 0 --:--:-- --:--:-- --:--:-- 0 100 431 100 431 0 0 1072 0 --:--:-- --:--:-- --:--:-- 1072 % Total % Received % Xferd Average Speed Time Time Time Current Dload Upload Total Spent Left Speed 0 0 0 0 0 0 0 0 --:--:-- --:--:-- --:--:-- 0 100 432 100 432 0 0 3375 0 --:--:-- --:--:-- --:--:-- 3375 % Total % Received % Xferd Average Speed Time Time Time Current Dload Upload Total Spent Left Speed 0 0 0 0 0 0 0 0 --:--:-- --:--:-- --:--:-- 0 100 432 100 432 0 0 11368 0 --:--:-- --:--:-- --:--:-- 11368 % Total % Received % Xferd Average Speed Time Time Time Current Dload Upload Total Spent Left Speed 0 0 0 0 0 0 0 0 --:--:-- --:--:-- --:--:-- 0 0 0 0 0 0 0 0 0 --:--:-- --:--:-- --:--:-- 0 100 431 100 431 0 0 1959 0 --:--:-- --:--:-- --:--:-- 1950 % Total % Received % Xferd Average Speed Time Time Time Current Dload Upload Total Spent Left Speed 0 0 0 0 0 0 0 0 --:--:-- --:--:-- --:--:-- 0 100 430 100 430 0 0 10750 0 --:--:-- --:--:-- --:--:-- 10750 tail: cannot open '/home/sinton/sjsu1f/mlbcalmindexk.csv' for reading: No such file or directory tail: cannot open '/home/sinton/sjsu1f/mlbavgwindindexk.csv' for reading: No such file or directory tail: cannot open '/home/sinton/sjsu1f/mlbcalmindexk.csv' for reading: No such file or directory tail: cannot open '/home/sinton/sjsu1f/mlbavgwindindexk.csv' for reading: No such file or directory tail: cannot open '/home/sinton/sjsu1f/mlbcalmindexk.csv' for reading: No such file or directory tail: cannot open '/home/sinton/sjsu1f/mlbavgwindindexk.csv' for reading: No such file or directory tail: cannot open '/home/sinton/sjsu1f/mlbcalmindexk.csv' for reading: No such file or directory tail: cannot open '/home/sinton/sjsu1f/mlbavgwindindexk.csv' for reading: No such file or directory tail: cannot open '/home/sinton/sjsu1f/mlbcalmindexk.csv' for reading: No such file or directory tail: cannot open '/home/sinton/sjsu1f/mlbavgwindindexk.csv' for reading: No such file or directory tail: cannot open '/home/sinton/sjsu1f/mlbcalmindexk.csv' for reading: No such file or directory tail: cannot open '/home/sinton/sjsu1f/mlbavgwindindexk.csv' for reading: No such file or directory tail: cannot open '/home/sinton/sjsu1f/mlbcalmindexk.csv' for reading: No such file or directory tail: cannot open '/home/sinton/sjsu1f/mlbavgwindindexk.csv' for reading: No such file or directory tail: cannot open '/home/sinton/sjsu1f/mlbcalmindexk.csv' for reading: No such file or directory tail: cannot open '/home/sinton/sjsu1f/mlbavgwindindexk.csv' for reading: No such file or directory tail: cannot open '/home/sinton/sjsu1f/mlbcalmindexk.csv' for reading: No such file or directory tail: cannot open '/home/sinton/sjsu1f/mlbavgwindindexk.csv' for reading: No such file or directory tail: cannot open '/home/sinton/sjsu1f/mlbcalmindexk.csv' for reading: No such file or directory tail: cannot open '/home/sinton/sjsu1f/mlbavgwindindexk.csv' for reading: No such file or directory tail: cannot open '/home/sinton/sjsu1f/mlbcalmindexk.csv' for reading: No such file or directory tail: cannot open '/home/sinton/sjsu1f/mlbavgwindindexk.csv' for reading: No such file or directory % Total % Received % Xferd Average Speed Time Time Time Current Dload Upload Total Spent Left Speed 0 0 0 0 0 0 0 0 --:--:-- --:--:-- --:--:-- 0 100 431 100 431 0 0 3621 0 --:--:-- --:--:-- --:--:-- 3621 % Total % Received % Xferd Average Speed Time Time Time Current Dload Upload Total Spent Left Speed 0 0 0 0 0 0 0 0 --:--:-- --:--:-- --:--:-- 0 100 432 100 432 0 0 3085 0 --:--:-- --:--:-- --:--:-- 3085 % Total % Received % Xferd Average Speed Time Time Time Current Dload Upload Total Spent Left Speed 0 0 0 0 0 0 0 0 --:--:-- --:--:-- --:--:-- 0 100 432 100 432 0 0 2297 0 --:--:-- --:--:-- --:--:-- 2297 % Total % Received % Xferd Average Speed Time Time Time Current Dload Upload Total Spent Left Speed 0 0 0 0 0 0 0 0 --:--:-- --:--:-- --:--:-- 0 100 431 100 431 0 0 3265 0 --:--:-- --:--:-- --:--:-- 3265 % Total % Received % Xferd Average Speed Time Time Time Current Dload Upload Total Spent Left Speed 0 0 0 0 0 0 0 0 --:--:-- --:--:-- --:--:-- 0 100 430 100 430 0 0 2471 0 --:--:-- --:--:-- --:--:-- 2471 tail: cannot open '/home/sinton/sjsu1f/mlbcalmindexk.csv' for reading: No such file or directory tail: cannot open '/home/sinton/sjsu1f/mlbavgwindindexk.csv' for reading: No such file or directory tail: cannot open '/home/sinton/sjsu1f/mlbcalmindexk.csv' for reading: No such file or directory tail: cannot open '/home/sinton/sjsu1f/mlbavgwindindexk.csv' for reading: No such file or directory tail: cannot open '/home/sinton/sjsu1f/mlbcalmindexk.csv' for reading: No such file or directory tail: cannot open '/home/sinton/sjsu1f/mlbavgwindindexk.csv' for reading: No such file or directory tail: cannot open '/home/sinton/sjsu1f/mlbcalmindexk.csv' for reading: No such file or directory tail: cannot open '/home/sinton/sjsu1f/mlbavgwindindexk.csv' for reading: No such file or directory tail: cannot open '/home/sinton/sjsu1f/mlbcalmindexk.csv' for reading: No such file or directory tail: cannot open '/home/sinton/sjsu1f/mlbavgwindindexk.csv' for reading: No such file or directory tail: cannot open '/home/sinton/sjsu1f/mlbcalmindexk.csv' for reading: No such file or directory tail: cannot open '/home/sinton/sjsu1f/mlbavgwindindexk.csv' for reading: No such file or directory tail: cannot open '/home/sinton/sjsu1f/mlbcalmindexk.csv' for reading: No such file or directory tail: cannot open '/home/sinton/sjsu1f/mlbavgwindindexk.csv' for reading: No such file or directory tail: cannot open '/home/sinton/sjsu1f/mlbcalmindexk.csv' for reading: No such file or directory tail: cannot open '/home/sinton/sjsu1f/mlbavgwindindexk.csv' for reading: No such file or directory tail: cannot open '/home/sinton/sjsu1f/mlbcalmindexk.csv' for reading: No such file or directory tail: cannot open '/home/sinton/sjsu1f/mlbavgwindindexk.csv' for reading: No such file or directory tail: cannot open '/home/sinton/sjsu1f/mlbcalmindexk.csv' for reading: No such file or directory tail: cannot open '/home/sinton/sjsu1f/mlbavgwindindexk.csv' for reading: No such file or directory tail: cannot open '/home/sinton/sjsu1f/mlbcalmindexk.csv' for reading: No such file or directory tail: cannot open '/home/sinton/sjsu1f/mlbavgwindindexk.csv' for reading: No such file or directory mv: cannot stat '/home/sinton/public_html/John1f/oakstuck': No such file or directory tail: cannot open '/home/sinton/sjsu1f/mlbcalmindexk.csv' for reading: No such file or directory tail: cannot open '/home/sinton/sjsu1f/mlbavgwindindexk.csv' for reading: No such file or directory tail: cannot open '/home/sinton/sjsu1f/mlbcalmindexk.csv' for reading: No such file or directory tail: cannot open '/home/sinton/sjsu1f/mlbavgwindindexk.csv' for reading: No such file or directory tail: cannot open '/home/sinton/sjsu1f/mlbcalmindexk.csv' for reading: No such file or directory tail: cannot open '/home/sinton/sjsu1f/mlbavgwindindexk.csv' for reading: No such file or directory tail: cannot open '/home/sinton/sjsu1f/mlbcalmindexk.csv' for reading: No such file or directory tail: cannot open '/home/sinton/sjsu1f/mlbavgwindindexk.csv' for reading: No such file or directory % Total % Received % Xferd Average Speed Time Time Time Current Dload Upload Total Spent Left Speed 0 0 0 0 0 0 0 0 --:--:-- --:--:-- --:--:-- 0 100 431 100 431 0 0 1088 0 --:--:-- --:--:-- --:--:-- 1088 % Total % Received % Xferd Average Speed Time Time Time Current Dload Upload Total Spent Left Speed 0 0 0 0 0 0 0 0 --:--:-- --:--:-- --:--:-- 0 100 432 100 432 0 0 638 0 --:--:-- --:--:-- --:--:-- 637 100 432 100 432 0 0 638 0 --:--:-- --:--:-- --:--:-- 637 % Total % Received % Xferd Average Speed Time Time Time Current Dload Upload Total Spent Left Speed 0 0 0 0 0 0 0 0 --:--:-- --:--:-- --:--:-- 0 100 432 100 432 0 0 1548 0 --:--:-- --:--:-- --:--:-- 1548 % Total % Received % Xferd Average Speed Time Time Time Current Dload Upload Total Spent Left Speed 0 0 0 0 0 0 0 0 --:--:-- --:--:-- --:--:-- 0 100 431 100 431 0 0 2505 0 --:--:-- --:--:-- --:--:-- 2505 % Total % Received % Xferd Average Speed Time Time Time Current Dload Upload Total Spent Left Speed 0 0 0 0 0 0 0 0 --:--:-- --:--:-- --:--:-- 0 100 430 100 430 0 0 1791 0 --:--:-- --:--:-- --:--:-- 1784 100 430 100 430 0 0 1791 0 --:--:-- --:--:-- --:--:-- 1784 tail: cannot open '/home/sinton/sjsu1f/mlbcalmindexk.csv' for reading: No such file or directory tail: cannot open '/home/sinton/sjsu1f/mlbavgwindindexk.csv' for reading: No such file or directory tail: cannot open '/home/sinton/sjsu1f/mlbcalmindexk.csv' for reading: No such file or directory tail: cannot open '/home/sinton/sjsu1f/mlbavgwindindexk.csv' for reading: No such file or directory tail: cannot open '/home/sinton/sjsu1f/mlbcalmindexk.csv' for reading: No such file or directory tail: cannot open '/home/sinton/sjsu1f/mlbavgwindindexk.csv' for reading: No such file or directory tail: cannot open '/home/sinton/sjsu1f/mlbcalmindexk.csv' for reading: No such file or directory tail: cannot open '/home/sinton/sjsu1f/mlbavgwindindexk.csv' for reading: No such file or directory tail: cannot open '/home/sinton/sjsu1f/mlbcalmindexk.csv' for reading: No such file or directory tail: cannot open '/home/sinton/sjsu1f/mlbavgwindindexk.csv' for reading: No such file or directory tail: cannot open '/home/sinton/sjsu1f/mlbcalmindexk.csv' for reading: No such file or directory tail: cannot open '/home/sinton/sjsu1f/mlbavgwindindexk.csv' for reading: No such file or directory tail: cannot open '/home/sinton/sjsu1f/mlbcalmindexk.csv' for reading: No such file or directory tail: cannot open '/home/sinton/sjsu1f/mlbavgwindindexk.csv' for reading: No such file or directory tail: cannot open '/home/sinton/sjsu1f/mlbcalmindexk.csv' for reading: No such file or directory tail: cannot open '/home/sinton/sjsu1f/mlbavgwindindexk.csv' for reading: No such file or directory tail: cannot open '/home/sinton/sjsu1f/mlbcalmindexk.csv' for reading: No such file or directory tail: cannot open '/home/sinton/sjsu1f/mlbavgwindindexk.csv' for reading: No such file or directory tail: cannot open '/home/sinton/sjsu1f/mlbcalmindexk.csv' for reading: No such file or directory tail: cannot open '/home/sinton/sjsu1f/mlbavgwindindexk.csv' for reading: No such file or directory tail: cannot open '/home/sinton/sjsu1f/mlbcalmindexk.csv' for reading: No such file or directory tail: cannot open '/home/sinton/sjsu1f/mlbavgwindindexk.csv' for reading: No such file or directory tail: cannot open '/home/sinton/sjsu1f/mlbcalmindexk.csv' for reading: No such file or directory tail: cannot open '/home/sinton/sjsu1f/mlbavgwindindexk.csv' for reading: No such file or directory tail: cannot open '/home/sinton/sjsu1f/mlbcalmindexk.csv' for reading: No such file or directory tail: cannot open '/home/sinton/sjsu1f/mlbavgwindindexk.csv' for reading: No such file or directory tail: cannot open '/home/sinton/sjsu1f/mlbcalmindexk.csv' for reading: No such file or directory tail: cannot open '/home/sinton/sjsu1f/mlbavgwindindexk.csv' for reading: No such file or directory % Total % Received % Xferd Average Speed Time Time Time Current Dload Upload Total Spent Left Speed 0 0 0 0 0 0 0 0 --:--:-- --:--:-- --:--:-- 0 100 430 100 430 0 0 3028 0 --:--:-- --:--:-- --:--:-- 3028 % Total % Received % Xferd Average Speed Time Time Time Current Dload Upload Total Spent Left Speed 0 0 0 0 0 0 0 0 --:--:-- --:--:-- --:--:-- 0 100 431 100 431 0 0 1555 0 --:--:-- --:--:-- --:--:-- 1555 % Total % Received % Xferd Average Speed Time Time Time Current Dload Upload Total Spent Left Speed 0 0 0 0 0 0 0 0 --:--:-- --:--:-- --:--:-- 0 0 0 0 0 0 0 0 0 --:--:-- --:--:-- --:--:-- 0 100 431 100 431 0 0 1102 0 --:--:-- --:--:-- --:--:-- 1099 % Total % Received % Xferd Average Speed Time Time Time Current Dload Upload Total Spent Left Speed 0 0 0 0 0 0 0 0 --:--:-- --:--:-- --:--:-- 0 100 429 100 429 0 0 2681 0 --:--:-- --:--:-- --:--:-- 2681 % Total % Received % Xferd Average Speed Time Time Time Current Dload Upload Total Spent Left Speed 0 0 0 0 0 0 0 0 --:--:-- --:--:-- --:--:-- 0 100 428 100 428 0 0 2761 0 --:--:-- --:--:-- --:--:-- 2761 tail: cannot open '/home/sinton/sjsu1f/mlbcalmindexk.csv' for reading: No such file or directory tail: cannot open '/home/sinton/sjsu1f/mlbavgwindindexk.csv' for reading: No such file or directory tail: cannot open '/home/sinton/sjsu1f/mlbcalmindexk.csv' for reading: No such file or directory tail: cannot open '/home/sinton/sjsu1f/mlbavgwindindexk.csv' for reading: No such file or directory tail: cannot open '/home/sinton/sjsu1f/mlbcalmindexk.csv' for reading: No such file or directory tail: cannot open '/home/sinton/sjsu1f/mlbavgwindindexk.csv' for reading: No such file or directory tail: cannot open '/home/sinton/sjsu1f/mlbcalmindexk.csv' for reading: No such file or directory tail: cannot open '/home/sinton/sjsu1f/mlbavgwindindexk.csv' for reading: No such file or directory tail: cannot open '/home/sinton/sjsu1f/mlbcalmindexk.csv' for reading: No such file or directory tail: cannot open '/home/sinton/sjsu1f/mlbavgwindindexk.csv' for reading: No such file or directory tail: cannot open '/home/sinton/sjsu1f/mlbcalmindexk.csv' for reading: No such file or directory tail: cannot open '/home/sinton/sjsu1f/mlbavgwindindexk.csv' for reading: No such file or directory tail: cannot open '/home/sinton/sjsu1f/mlbcalmindexk.csv' for reading: No such file or directory tail: cannot open '/home/sinton/sjsu1f/mlbavgwindindexk.csv' for reading: No such file or directory tail: cannot open '/home/sinton/sjsu1f/mlbcalmindexk.csv' for reading: No such file or directory tail: cannot open '/home/sinton/sjsu1f/mlbavgwindindexk.csv' for reading: No such file or directory tail: cannot open '/home/sinton/sjsu1f/mlbcalmindexk.csv' for reading: No such file or directory tail: cannot open '/home/sinton/sjsu1f/mlbavgwindindexk.csv' for reading: No such file or directory tail: cannot open '/home/sinton/sjsu1f/mlbcalmindexk.csv' for reading: No such file or directory tail: cannot open '/home/sinton/sjsu1f/mlbavgwindindexk.csv' for reading: No such file or directory tail: cannot open '/home/sinton/sjsu1f/mlbcalmindexk.csv' for reading: No such file or directory tail: cannot open '/home/sinton/sjsu1f/mlbavgwindindexk.csv' for reading: No such file or directory tail: cannot open '/home/sinton/sjsu1f/mlbcalmindexk.csv' for reading: No such file or directory tail: cannot open '/home/sinton/sjsu1f/mlbavgwindindexk.csv' for reading: No such file or directory tail: cannot open '/home/sinton/sjsu1f/mlbcalmindexk.csv' for reading: No such file or directory tail: cannot open '/home/sinton/sjsu1f/mlbavgwindindexk.csv' for reading: No such file or directory % Total % Received % Xferd Average Speed Time Time Time Current Dload Upload Total Spent Left Speed 0 0 0 0 0 0 0 0 --:--:-- --:--:-- --:--:-- 0 100 430 100 430 0 0 9555 0 --:--:-- --:--:-- --:--:-- 9555 % Total % Received % Xferd Average Speed Time Time Time Current Dload Upload Total Spent Left Speed 0 0 0 0 0 0 0 0 --:--:-- --:--:-- --:--:-- 0 100 431 100 431 0 0 5824 0 --:--:-- --:--:-- --:--:-- 5824 % Total % Received % Xferd Average Speed Time Time Time Current Dload Upload Total Spent Left Speed 0 0 0 0 0 0 0 0 --:--:-- --:--:-- --:--:-- 0 100 428 100 428 0 0 4076 0 --:--:-- --:--:-- --:--:-- 4076 % Total % Received % Xferd Average Speed Time Time Time Current Dload Upload Total Spent Left Speed 0 0 0 0 0 0 0 0 --:--:-- --:--:-- --:--:-- 0 100 427 100 427 0 0 3116 0 --:--:-- --:--:-- --:--:-- 3116 % Total % Received % Xferd Average Speed Time Time Time Current Dload Upload Total Spent Left Speed 0 0 0 0 0 0 0 0 --:--:-- --:--:-- --:--:-- 0 100 426 100 426 0 0 3179 0 --:--:-- --:--:-- --:--:-- 3179 tail: cannot open '/home/sinton/sjsu1f/mlbcalmindexk.csv' for reading: No such file or directory tail: cannot open '/home/sinton/sjsu1f/mlbavgwindindexk.csv' for reading: No such file or directory tail: cannot open '/home/sinton/sjsu1f/mlbcalmindexk.csv' for reading: No such file or directory tail: cannot open '/home/sinton/sjsu1f/mlbavgwindindexk.csv' for reading: No such file or directory tail: cannot open '/home/sinton/sjsu1f/mlbcalmindexk.csv' for reading: No such file or directory tail: cannot open '/home/sinton/sjsu1f/mlbavgwindindexk.csv' for reading: No such file or directory tail: cannot open '/home/sinton/sjsu1f/mlbcalmindexk.csv' for reading: No such file or directory tail: cannot open '/home/sinton/sjsu1f/mlbavgwindindexk.csv' for reading: No such file or directory tail: cannot open '/home/sinton/sjsu1f/mlbcalmindexk.csv' for reading: No such file or directory tail: cannot open '/home/sinton/sjsu1f/mlbavgwindindexk.csv' for reading: No such file or directory tail: cannot open '/home/sinton/sjsu1f/mlbcalmindexk.csv' for reading: No such file or directory tail: cannot open '/home/sinton/sjsu1f/mlbavgwindindexk.csv' for reading: No such file or directory tail: cannot open '/home/sinton/sjsu1f/mlbcalmindexk.csv' for reading: No such file or directory tail: cannot open '/home/sinton/sjsu1f/mlbavgwindindexk.csv' for reading: No such file or directory tail: cannot open '/home/sinton/sjsu1f/mlbcalmindexk.csv' for reading: No such file or directory tail: cannot open '/home/sinton/sjsu1f/mlbavgwindindexk.csv' for reading: No such file or directory tail: cannot open '/home/sinton/sjsu1f/mlbcalmindexk.csv' for reading: No such file or directory tail: cannot open '/home/sinton/sjsu1f/mlbavgwindindexk.csv' for reading: No such file or directory tail: cannot open '/home/sinton/sjsu1f/mlbcalmindexk.csv' for reading: No such file or directory tail: cannot open '/home/sinton/sjsu1f/mlbavgwindindexk.csv' for reading: No such file or directory tail: cannot open '/home/sinton/sjsu1f/mlbcalmindexk.csv' for reading: No such file or directory tail: cannot open '/home/sinton/sjsu1f/mlbavgwindindexk.csv' for reading: No such file or directory tail: cannot open '/home/sinton/sjsu1f/mlbcalmindexk.csv' for reading: No such file or directory tail: cannot open '/home/sinton/sjsu1f/mlbavgwindindexk.csv' for reading: No such file or directory tail: cannot open '/home/sinton/sjsu1f/mlbcalmindexk.csv' for reading: No such file or directory tail: cannot open '/home/sinton/sjsu1f/mlbavgwindindexk.csv' for reading: No such file or directory tail: cannot open '/home/sinton/sjsu1f/mlbcalmindexk.csv' for reading: No such file or directory tail: cannot open '/home/sinton/sjsu1f/mlbavgwindindexk.csv' for reading: No such file or directory % Total % Received % Xferd Average Speed Time Time Time Current Dload Upload Total Spent Left Speed 0 0 0 0 0 0 0 0 --:--:-- --:--:-- --:--:-- 0 100 430 100 430 0 0 3412 0 --:--:-- --:--:-- --:--:-- 3412 % Total % Received % Xferd Average Speed Time Time Time Current Dload Upload Total Spent Left Speed 0 0 0 0 0 0 0 0 --:--:-- --:--:-- --:--:-- 0 100 432 100 432 0 0 2273 0 --:--:-- --:--:-- --:--:-- 2273 % Total % Received % Xferd Average Speed Time Time Time Current Dload Upload Total Spent Left Speed 0 0 0 0 0 0 0 0 --:--:-- --:--:-- --:--:-- 0 100 431 100 431 0 0 10775 0 --:--:-- --:--:-- --:--:-- 10775 % Total % Received % Xferd Average Speed Time Time Time Current Dload Upload Total Spent Left Speed 0 0 0 0 0 0 0 0 --:--:-- --:--:-- --:--:-- 0 100 431 100 431 0 0 8288 0 --:--:-- --:--:-- --:--:-- 8132 100 431 100 431 0 0 8288 0 --:--:-- --:--:-- --:--:-- 8132 % Total % Received % Xferd Average Speed Time Time Time Current Dload Upload Total Spent Left Speed 0 0 0 0 0 0 0 0 --:--:-- --:--:-- --:--:-- 0 100 430 100 430 0 0 3385 0 --:--:-- --:--:-- --:--:-- 3385 tail: cannot open '/home/sinton/sjsu1f/mlbcalmindexk.csv' for reading: No such file or directory tail: cannot open '/home/sinton/sjsu1f/mlbavgwindindexk.csv' for reading: No such file or directory tail: cannot open '/home/sinton/sjsu1f/mlbcalmindexk.csv' for reading: No such file or directory tail: cannot open '/home/sinton/sjsu1f/mlbavgwindindexk.csv' for reading: No such file or directory tail: cannot open '/home/sinton/sjsu1f/mlbcalmindexk.csv' for reading: No such file or directory tail: cannot open '/home/sinton/sjsu1f/mlbavgwindindexk.csv' for reading: No such file or directory tail: cannot open '/home/sinton/sjsu1f/mlbcalmindexk.csv' for reading: No such file or directory tail: cannot open '/home/sinton/sjsu1f/mlbavgwindindexk.csv' for reading: No such file or directory tail: cannot open '/home/sinton/sjsu1f/mlbcalmindexk.csv' for reading: No such file or directory tail: cannot open '/home/sinton/sjsu1f/mlbavgwindindexk.csv' for reading: No such file or directory tail: cannot open '/home/sinton/sjsu1f/mlbcalmindexk.csv' for reading: No such file or directory tail: cannot open '/home/sinton/sjsu1f/mlbavgwindindexk.csv' for reading: No such file or directory tail: cannot open '/home/sinton/sjsu1f/mlbcalmindexk.csv' for reading: No such file or directory tail: cannot open '/home/sinton/sjsu1f/mlbavgwindindexk.csv' for reading: No such file or directory tail: cannot open '/home/sinton/sjsu1f/mlbcalmindexk.csv' for reading: No such file or directory tail: cannot open '/home/sinton/sjsu1f/mlbavgwindindexk.csv' for reading: No such file or directory tail: cannot open '/home/sinton/sjsu1f/mlbcalmindexk.csv' for reading: No such file or directory tail: cannot open '/home/sinton/sjsu1f/mlbavgwindindexk.csv' for reading: No such file or directory tail: cannot open '/home/sinton/sjsu1f/mlbcalmindexk.csv' for reading: No such file or directory tail: cannot open '/home/sinton/sjsu1f/mlbavgwindindexk.csv' for reading: No such file or directory tail: cannot open '/home/sinton/sjsu1f/mlbcalmindexk.csv' for reading: No such file or directory tail: cannot open '/home/sinton/sjsu1f/mlbavgwindindexk.csv' for reading: No such file or directory tail: cannot open '/home/sinton/sjsu1f/mlbcalmindexk.csv' for reading: No such file or directory tail: cannot open '/home/sinton/sjsu1f/mlbavgwindindexk.csv' for reading: No such file or directory tail: cannot open '/home/sinton/sjsu1f/mlbcalmindexk.csv' for reading: No such file or directory tail: cannot open '/home/sinton/sjsu1f/mlbavgwindindexk.csv' for reading: No such file or directory tail: cannot open '/home/sinton/sjsu1f/mlbcalmindexk.csv' for reading: No such file or directory tail: cannot open '/home/sinton/sjsu1f/mlbavgwindindexk.csv' for reading: No such file or directory % Total % Received % Xferd Average Speed Time Time Time Current Dload Upload Total Spent Left Speed 0 0 0 0 0 0 0 0 --:--:-- --:--:-- --:--:-- 0 100 428 100 428 0 0 2502 0 --:--:-- --:--:-- --:--:-- 2502 % Total % Received % Xferd Average Speed Time Time Time Current Dload Upload Total Spent Left Speed 0 0 0 0 0 0 0 0 --:--:-- --:--:-- --:--:-- 0 100 431 100 431 0 0 3367 0 --:--:-- --:--:-- --:--:-- 3393 % Total % Received % Xferd Average Speed Time Time Time Current Dload Upload Total Spent Left Speed 0 0 0 0 0 0 0 0 --:--:-- --:--:-- --:--:-- 0 0 0 0 0 0 0 0 0 --:--:-- --:--:-- --:--:-- 0 100 432 100 432 0 0 1479 0 --:--:-- --:--:-- --:--:-- 1474 % Total % Received % Xferd Average Speed Time Time Time Current Dload Upload Total Spent Left Speed 0 0 0 0 0 0 0 0 --:--:-- --:--:-- --:--:-- 0 100 432 100 432 0 0 2426 0 --:--:-- --:--:-- --:--:-- 2426 % Total % Received % Xferd Average Speed Time Time Time Current Dload Upload Total Spent Left Speed 0 0 0 0 0 0 0 0 --:--:-- --:--:-- --:--:-- 0 100 431 100 431 0 0 2165 0 --:--:-- --:--:-- --:--:-- 2165 mv: cannot stat '/home/sinton/public_html/John1f/oakstuck': No such file or directory tail: cannot open '/home/sinton/sjsu1f/mlbcalmindexk.csv' for reading: No such file or directory tail: cannot open '/home/sinton/sjsu1f/mlbavgwindindexk.csv' for reading: No such file or directory tail: cannot open '/home/sinton/sjsu1f/mlbcalmindexk.csv' for reading: No such file or directory tail: cannot open '/home/sinton/sjsu1f/mlbavgwindindexk.csv' for reading: No such file or directory tail: cannot open '/home/sinton/sjsu1f/mlbcalmindexk.csv' for reading: No such file or directory tail: cannot open '/home/sinton/sjsu1f/mlbavgwindindexk.csv' for reading: No such file or directory tail: cannot open '/home/sinton/sjsu1f/mlbcalmindexk.csv' for reading: No such file or directory tail: cannot open '/home/sinton/sjsu1f/mlbavgwindindexk.csv' for reading: No such file or directory tail: cannot open '/home/sinton/sjsu1f/mlbcalmindexk.csv' for reading: No such file or directory tail: cannot open '/home/sinton/sjsu1f/mlbavgwindindexk.csv' for reading: No such file or directory tail: cannot open '/home/sinton/sjsu1f/mlbcalmindexk.csv' for reading: No such file or directory tail: cannot open '/home/sinton/sjsu1f/mlbavgwindindexk.csv' for reading: No such file or directory tail: cannot open '/home/sinton/sjsu1f/mlbcalmindexk.csv' for reading: No such file or directory tail: cannot open '/home/sinton/sjsu1f/mlbavgwindindexk.csv' for reading: No such file or directory tail: cannot open '/home/sinton/sjsu1f/mlbcalmindexk.csv' for reading: No such file or directory tail: cannot open '/home/sinton/sjsu1f/mlbavgwindindexk.csv' for reading: No such file or directory tail: cannot open '/home/sinton/sjsu1f/mlbcalmindexk.csv' for reading: No such file or directory tail: cannot open '/home/sinton/sjsu1f/mlbavgwindindexk.csv' for reading: No such file or directory tail: cannot open '/home/sinton/sjsu1f/mlbcalmindexk.csv' for reading: No such file or directory tail: cannot open '/home/sinton/sjsu1f/mlbavgwindindexk.csv' for reading: No such file or directory % Total % Received % Xferd Average Speed Time Time Time Current Dload Upload Total Spent Left Speed 0 0 0 0 0 0 0 0 --:--:-- --:--:-- --:--:-- 0 100 428 100 428 0 0 1783 0 --:--:-- --:--:-- --:--:-- 1783 % Total % Received % Xferd Average Speed Time Time Time Current Dload Upload Total Spent Left Speed 0 0 0 0 0 0 0 0 --:--:-- --:--:-- --:--:-- 0 100 431 100 431 0 0 1294 0 --:--:-- --:--:-- --:--:-- 1290 100 431 100 431 0 0 1290 0 --:--:-- --:--:-- --:--:-- 1286 % Total % Received % Xferd Average Speed Time Time Time Current Dload Upload Total Spent Left Speed 0 0 0 0 0 0 0 0 --:--:-- --:--:-- --:--:-- 0 100 432 100 432 0 0 2805 0 --:--:-- --:--:-- --:--:-- 2805 % Total % Received % Xferd Average Speed Time Time Time Current Dload Upload Total Spent Left Speed 0 0 0 0 0 0 0 0 --:--:-- --:--:-- --:--:-- 0 100 432 100 432 0 0 3600 0 --:--:-- --:--:-- --:--:-- 3600 % Total % Received % Xferd Average Speed Time Time Time Current Dload Upload Total Spent Left Speed 0 0 0 0 0 0 0 0 --:--:-- --:--:-- --:--:-- 0 100 431 100 431 0 0 7065 0 --:--:-- --:--:-- --:--:-- 7183 tail: cannot open '/home/sinton/sjsu1f/mlbcalmindexk.csv' for reading: No such file or directory tail: cannot open '/home/sinton/sjsu1f/mlbavgwindindexk.csv' for reading: No such file or directory tail: cannot open '/home/sinton/sjsu1f/mlbcalmindexk.csv' for reading: No such file or directory tail: cannot open '/home/sinton/sjsu1f/mlbavgwindindexk.csv' for reading: No such file or directory tail: cannot open '/home/sinton/sjsu1f/mlbcalmindexk.csv' for reading: No such file or directory tail: cannot open '/home/sinton/sjsu1f/mlbavgwindindexk.csv' for reading: No such file or directory tail: cannot open '/home/sinton/sjsu1f/mlbcalmindexk.csv' for reading: No such file or directory tail: cannot open '/home/sinton/sjsu1f/mlbavgwindindexk.csv' for reading: No such file or directory tail: cannot open '/home/sinton/sjsu1f/mlbcalmindexk.csv' for reading: No such file or directory tail: cannot open '/home/sinton/sjsu1f/mlbavgwindindexk.csv' for reading: No such file or directory tail: cannot open '/home/sinton/sjsu1f/mlbcalmindexk.csv' for reading: No such file or directory tail: cannot open '/home/sinton/sjsu1f/mlbavgwindindexk.csv' for reading: No such file or directory tail: cannot open '/home/sinton/sjsu1f/mlbcalmindexk.csv' for reading: No such file or directory tail: cannot open '/home/sinton/sjsu1f/mlbavgwindindexk.csv' for reading: No such file or directory tail: cannot open '/home/sinton/sjsu1f/mlbcalmindexk.csv' for reading: No such file or directory tail: cannot open '/home/sinton/sjsu1f/mlbavgwindindexk.csv' for reading: No such file or directory tail: cannot open '/home/sinton/sjsu1f/mlbcalmindexk.csv' for reading: No such file or directory tail: cannot open '/home/sinton/sjsu1f/mlbavgwindindexk.csv' for reading: No such file or directory tail: cannot open '/home/sinton/sjsu1f/mlbcalmindexk.csv' for reading: No such file or directory tail: cannot open '/home/sinton/sjsu1f/mlbavgwindindexk.csv' for reading: No such file or directory tail: cannot open '/home/sinton/sjsu1f/mlbcalmindexk.csv' for reading: No such file or directory tail: cannot open '/home/sinton/sjsu1f/mlbavgwindindexk.csv' for reading: No such file or directory tail: cannot open '/home/sinton/sjsu1f/mlbcalmindexk.csv' for reading: No such file or directory tail: cannot open '/home/sinton/sjsu1f/mlbavgwindindexk.csv' for reading: No such file or directory tail: cannot open '/home/sinton/sjsu1f/mlbcalmindexk.csv' for reading: No such file or directory tail: cannot open '/home/sinton/sjsu1f/mlbavgwindindexk.csv' for reading: No such file or directory tail: cannot open '/home/sinton/sjsu1f/mlbcalmindexk.csv' for reading: No such file or directory tail: cannot open '/home/sinton/sjsu1f/mlbavgwindindexk.csv' for reading: No such file or directory tail: cannot open '/home/sinton/sjsu1f/mlbcalmindexk.csv' for reading: No such file or directory tail: cannot open '/home/sinton/sjsu1f/mlbavgwindindexk.csv' for reading: No such file or directory tail: cannot open '/home/sinton/sjsu1f/mlbcalmindexk.csv' for reading: No such file or directory tail: cannot open '/home/sinton/sjsu1f/mlbavgwindindexk.csv' for reading: No such file or directory % Total % Received % Xferd Average Speed Time Time Time Current Dload Upload Total Spent Left Speed 0 0 0 0 0 0 0 0 --:--:-- --:--:-- --:--:-- 0 100 431 100 431 0 0 7696 0 --:--:-- --:--:-- --:--:-- 7696 % Total % Received % Xferd Average Speed Time Time Time Current Dload Upload Total Spent Left Speed 0 0 0 0 0 0 0 0 --:--:-- --:--:-- --:--:-- 0 100 432 100 432 0 0 2683 0 --:--:-- --:--:-- --:--:-- 2683 % Total % Received % Xferd Average Speed Time Time Time Current Dload Upload Total Spent Left Speed 0 0 0 0 0 0 0 0 --:--:-- --:--:-- --:--:-- 0 100 432 100 432 0 0 6545 0 --:--:-- --:--:-- --:--:-- 6545 % Total % Received % Xferd Average Speed Time Time Time Current Dload Upload Total Spent Left Speed 0 0 0 0 0 0 0 0 --:--:-- --:--:-- --:--:-- 0 100 432 100 432 0 0 1526 0 --:--:-- --:--:-- --:--:-- 1526 % Total % Received % Xferd Average Speed Time Time Time Current Dload Upload Total Spent Left Speed 0 0 0 0 0 0 0 0 --:--:-- --:--:-- --:--:-- 0 0 0 0 0 0 0 0 0 --:--:-- --:--:-- --:--:-- 0 100 431 100 431 0 0 1932 0 --:--:-- --:--:-- --:--:-- 1924 tail: cannot open '/home/sinton/sjsu1f/mlbcalmindexk.csv' for reading: No such file or directory tail: cannot open '/home/sinton/sjsu1f/mlbavgwindindexk.csv' for reading: No such file or directory tail: cannot open '/home/sinton/sjsu1f/mlbcalmindexk.csv' for reading: No such file or directory tail: cannot open '/home/sinton/sjsu1f/mlbavgwindindexk.csv' for reading: No such file or directory tail: cannot open '/home/sinton/sjsu1f/mlbcalmindexk.csv' for reading: No such file or directory tail: cannot open '/home/sinton/sjsu1f/mlbavgwindindexk.csv' for reading: No such file or directory tail: cannot open '/home/sinton/sjsu1f/mlbcalmindexk.csv' for reading: No such file or directory tail: cannot open '/home/sinton/sjsu1f/mlbavgwindindexk.csv' for reading: No such file or directory tail: cannot open '/home/sinton/sjsu1f/mlbcalmindexk.csv' for reading: No such file or directory tail: cannot open '/home/sinton/sjsu1f/mlbavgwindindexk.csv' for reading: No such file or directory tail: cannot open '/home/sinton/sjsu1f/mlbcalmindexk.csv' for reading: No such file or directory tail: cannot open '/home/sinton/sjsu1f/mlbavgwindindexk.csv' for reading: No such file or directory tail: cannot open '/home/sinton/sjsu1f/mlbcalmindexk.csv' for reading: No such file or directory tail: cannot open '/home/sinton/sjsu1f/mlbavgwindindexk.csv' for reading: No such file or directory tail: cannot open '/home/sinton/sjsu1f/mlbcalmindexk.csv' for reading: No such file or directory tail: cannot open '/home/sinton/sjsu1f/mlbavgwindindexk.csv' for reading: No such file or directory tail: cannot open '/home/sinton/sjsu1f/mlbcalmindexk.csv' for reading: No such file or directory tail: cannot open '/home/sinton/sjsu1f/mlbavgwindindexk.csv' for reading: No such file or directory tail: cannot open '/home/sinton/sjsu1f/mlbcalmindexk.csv' for reading: No such file or directory tail: cannot open '/home/sinton/sjsu1f/mlbavgwindindexk.csv' for reading: No such file or directory tail: cannot open '/home/sinton/sjsu1f/mlbcalmindexk.csv' for reading: No such file or directory tail: cannot open '/home/sinton/sjsu1f/mlbavgwindindexk.csv' for reading: No such file or directory tail: cannot open '/home/sinton/sjsu1f/mlbcalmindexk.csv' for reading: No such file or directory tail: cannot open '/home/sinton/sjsu1f/mlbavgwindindexk.csv' for reading: No such file or directory tail: cannot open '/home/sinton/sjsu1f/mlbcalmindexk.csv' for reading: No such file or directory tail: cannot open '/home/sinton/sjsu1f/mlbavgwindindexk.csv' for reading: No such file or directory tail: cannot open '/home/sinton/sjsu1f/mlbcalmindexk.csv' for reading: No such file or directory tail: cannot open '/home/sinton/sjsu1f/mlbavgwindindexk.csv' for reading: No such file or directory % Total % Received % Xferd Average Speed Time Time Time Current Dload Upload Total Spent Left Speed 0 0 0 0 0 0 0 0 --:--:-- --:--:-- --:--:-- 0 100 428 100 428 0 0 1585 0 --:--:-- --:--:-- --:--:-- 1585 % Total % Received % Xferd Average Speed Time Time Time Current Dload Upload Total Spent Left Speed 0 0 0 0 0 0 0 0 --:--:-- --:--:-- --:--:-- 0 100 432 100 432 0 0 7322 0 --:--:-- --:--:-- --:--:-- 7322 % Total % Received % Xferd Average Speed Time Time Time Current Dload Upload Total Spent Left Speed 0 0 0 0 0 0 0 0 --:--:-- --:--:-- --:--:-- 0 100 430 100 430 0 0 9772 0 --:--:-- --:--:-- --:--:-- 9772 % Total % Received % Xferd Average Speed Time Time Time Current Dload Upload Total Spent Left Speed 0 0 0 0 0 0 0 0 --:--:-- --:--:-- --:--:-- 0 0 0 0 0 0 0 0 0 --:--:-- --:--:-- --:--:-- 0 100 431 100 431 0 0 2082 0 --:--:-- --:--:-- --:--:-- 2072 % Total % Received % Xferd Average Speed Time Time Time Current Dload Upload Total Spent Left Speed 0 0 0 0 0 0 0 0 --:--:-- --:--:-- --:--:-- 0 100 430 100 430 0 0 6718 0 --:--:-- --:--:-- --:--:-- 6718 tail: cannot open '/home/sinton/sjsu1f/mlbcalmindexk.csv' for reading: No such file or directory tail: cannot open '/home/sinton/sjsu1f/mlbavgwindindexk.csv' for reading: No such file or directory tail: cannot open '/home/sinton/sjsu1f/mlbcalmindexk.csv' for reading: No such file or directory tail: cannot open '/home/sinton/sjsu1f/mlbavgwindindexk.csv' for reading: No such file or directory tail: cannot open '/home/sinton/sjsu1f/mlbcalmindexk.csv' for reading: No such file or directory tail: cannot open '/home/sinton/sjsu1f/mlbavgwindindexk.csv' for reading: No such file or directory tail: cannot open '/home/sinton/sjsu1f/mlbcalmindexk.csv' for reading: No such file or directory tail: cannot open '/home/sinton/sjsu1f/mlbavgwindindexk.csv' for reading: No such file or directory tail: cannot open '/home/sinton/sjsu1f/mlbcalmindexk.csv' for reading: No such file or directory tail: cannot open '/home/sinton/sjsu1f/mlbavgwindindexk.csv' for reading: No such file or directory tail: cannot open '/home/sinton/sjsu1f/mlbcalmindexk.csv' for reading: No such file or directory tail: cannot open '/home/sinton/sjsu1f/mlbavgwindindexk.csv' for reading: No such file or directory tail: cannot open '/home/sinton/sjsu1f/mlbcalmindexk.csv' for reading: No such file or directory tail: cannot open '/home/sinton/sjsu1f/mlbavgwindindexk.csv' for reading: No such file or directory tail: cannot open '/home/sinton/sjsu1f/mlbcalmindexk.csv' for reading: No such file or directory tail: cannot open '/home/sinton/sjsu1f/mlbavgwindindexk.csv' for reading: No such file or directory tail: cannot open '/home/sinton/sjsu1f/mlbcalmindexk.csv' for reading: No such file or directory tail: cannot open '/home/sinton/sjsu1f/mlbavgwindindexk.csv' for reading: No such file or directory tail: cannot open '/home/sinton/sjsu1f/mlbcalmindexk.csv' for reading: No such file or directory tail: cannot open '/home/sinton/sjsu1f/mlbavgwindindexk.csv' for reading: No such file or directory tail: cannot open '/home/sinton/sjsu1f/mlbcalmindexk.csv' for reading: No such file or directory tail: cannot open '/home/sinton/sjsu1f/mlbavgwindindexk.csv' for reading: No such file or directory tail: cannot open '/home/sinton/sjsu1f/mlbcalmindexk.csv' for reading: No such file or directory tail: cannot open '/home/sinton/sjsu1f/mlbavgwindindexk.csv' for reading: No such file or directory tail: cannot open '/home/sinton/sjsu1f/mlbcalmindexk.csv' for reading: No such file or directory tail: cannot open '/home/sinton/sjsu1f/mlbavgwindindexk.csv' for reading: No such file or directory % Total % Received % Xferd Average Speed Time Time Time Current Dload Upload Total Spent Left Speed 0 0 0 0 0 0 0 0 --:--:-- --:--:-- --:--:-- 0 100 431 100 431 0 0 4788 0 --:--:-- --:--:-- --:--:-- 4788 % Total % Received % Xferd Average Speed Time Time Time Current Dload Upload Total Spent Left Speed 0 0 0 0 0 0 0 0 --:--:-- --:--:-- --:--:-- 0 100 431 100 431 0 0 8620 0 --:--:-- --:--:-- --:--:-- 8620 % Total % Received % Xferd Average Speed Time Time Time Current Dload Upload Total Spent Left Speed 0 0 0 0 0 0 0 0 --:--:-- --:--:-- --:--:-- 0 100 431 100 431 0 0 1381 0 --:--:-- --:--:-- --:--:-- 1381 % Total % Received % Xferd Average Speed Time Time Time Current Dload Upload Total Spent Left Speed 0 0 0 0 0 0 0 0 --:--:-- --:--:-- --:--:-- 0 100 431 100 431 0 0 4788 0 --:--:-- --:--:-- --:--:-- 4842 % Total % Received % Xferd Average Speed Time Time Time Current Dload Upload Total Spent Left Speed 0 0 0 0 0 0 0 0 --:--:-- --:--:-- --:--:-- 0 100 430 100 430 0 0 2216 0 --:--:-- --:--:-- --:--:-- 2216 mv: cannot stat '/home/sinton/public_html/John1f/oakstuck': No such file or directory tail: cannot open '/home/sinton/sjsu1f/mlbcalmindexk.csv' for reading: No such file or directory tail: cannot open '/home/sinton/sjsu1f/mlbavgwindindexk.csv' for reading: No such file or directory tail: cannot open '/home/sinton/sjsu1f/mlbcalmindexk.csv' for reading: No such file or directory tail: cannot open '/home/sinton/sjsu1f/mlbavgwindindexk.csv' for reading: No such file or directory tail: cannot open '/home/sinton/sjsu1f/mlbcalmindexk.csv' for reading: No such file or directory tail: cannot open '/home/sinton/sjsu1f/mlbavgwindindexk.csv' for reading: No such file or directory tail: cannot open '/home/sinton/sjsu1f/mlbcalmindexk.csv' for reading: No such file or directory tail: cannot open '/home/sinton/sjsu1f/mlbavgwindindexk.csv' for reading: No such file or directory tail: cannot open '/home/sinton/sjsu1f/mlbcalmindexk.csv' for reading: No such file or directory tail: cannot open '/home/sinton/sjsu1f/mlbavgwindindexk.csv' for reading: No such file or directory tail: cannot open '/home/sinton/sjsu1f/mlbcalmindexk.csv' for reading: No such file or directory tail: cannot open '/home/sinton/sjsu1f/mlbavgwindindexk.csv' for reading: No such file or directory tail: cannot open '/home/sinton/sjsu1f/mlbcalmindexk.csv' for reading: No such file or directory tail: cannot open '/home/sinton/sjsu1f/mlbavgwindindexk.csv' for reading: No such file or directory tail: cannot open '/home/sinton/sjsu1f/mlbcalmindexk.csv' for reading: No such file or directory tail: cannot open '/home/sinton/sjsu1f/mlbavgwindindexk.csv' for reading: No such file or directory tail: cannot open '/home/sinton/sjsu1f/mlbcalmindexk.csv' for reading: No such file or directory tail: cannot open '/home/sinton/sjsu1f/mlbavgwindindexk.csv' for reading: No such file or directory tail: cannot open '/home/sinton/sjsu1f/mlbcalmindexk.csv' for reading: No such file or directory tail: cannot open '/home/sinton/sjsu1f/mlbavgwindindexk.csv' for reading: No such file or directory tail: cannot open '/home/sinton/sjsu1f/mlbcalmindexk.csv' for reading: No such file or directory tail: cannot open '/home/sinton/sjsu1f/mlbavgwindindexk.csv' for reading: No such file or directory tail: cannot open '/home/sinton/sjsu1f/mlbcalmindexk.csv' for reading: No such file or directory tail: cannot open '/home/sinton/sjsu1f/mlbavgwindindexk.csv' for reading: No such file or directory tail: cannot open '/home/sinton/sjsu1f/mlbcalmindexk.csv' for reading: No such file or directory tail: cannot open '/home/sinton/sjsu1f/mlbavgwindindexk.csv' for reading: No such file or directory % Total % Received % Xferd Average Speed Time Time Time Current Dload Upload Total Spent Left Speed 0 0 0 0 0 0 0 0 --:--:-- --:--:-- --:--:-- 0 100 431 100 431 0 0 6951 0 --:--:-- --:--:-- --:--:-- 6951 % Total % Received % Xferd Average Speed Time Time Time Current Dload Upload Total Spent Left Speed 0 0 0 0 0 0 0 0 --:--:-- --:--:-- --:--:-- 0 100 430 100 430 0 0 1822 0 --:--:-- --:--:-- --:--:-- 1814 100 430 100 430 0 0 1822 0 --:--:-- --:--:-- --:--:-- 1814 % Total % Received % Xferd Average Speed Time Time Time Current Dload Upload Total Spent Left Speed 0 0 0 0 0 0 0 0 --:--:-- --:--:-- --:--:-- 0 100 428 100 428 0 0 10439 0 --:--:-- --:--:-- --:--:-- 10439 % Total % Received % Xferd Average Speed Time Time Time Current Dload Upload Total Spent Left Speed 0 0 0 0 0 0 0 0 --:--:-- --:--:-- --:--:-- 0 100 429 100 429 0 0 7396 0 --:--:-- --:--:-- --:--:-- 7396 % Total % Received % Xferd Average Speed Time Time Time Current Dload Upload Total Spent Left Speed 0 0 0 0 0 0 0 0 --:--:-- --:--:-- --:--:-- 0 100 428 100 428 0 0 3721 0 --:--:-- --:--:-- --:--:-- 3721 tail: cannot open '/home/sinton/sjsu1f/mlbcalmindexk.csv' for reading: No such file or directory tail: cannot open '/home/sinton/sjsu1f/mlbavgwindindexk.csv' for reading: No such file or directory tail: cannot open '/home/sinton/sjsu1f/mlbcalmindexk.csv' for reading: No such file or directory tail: cannot open '/home/sinton/sjsu1f/mlbavgwindindexk.csv' for reading: No such file or directory tail: cannot open '/home/sinton/sjsu1f/mlbcalmindexk.csv' for reading: No such file or directory tail: cannot open '/home/sinton/sjsu1f/mlbavgwindindexk.csv' for reading: No such file or directory tail: cannot open '/home/sinton/sjsu1f/mlbcalmindexk.csv' for reading: No such file or directory tail: cannot open '/home/sinton/sjsu1f/mlbavgwindindexk.csv' for reading: No such file or directory tail: cannot open '/home/sinton/sjsu1f/mlbcalmindexk.csv' for reading: No such file or directory tail: cannot open '/home/sinton/sjsu1f/mlbavgwindindexk.csv' for reading: No such file or directory tail: cannot open '/home/sinton/sjsu1f/mlbcalmindexk.csv' for reading: No such file or directory tail: cannot open '/home/sinton/sjsu1f/mlbavgwindindexk.csv' for reading: No such file or directory tail: cannot open '/home/sinton/sjsu1f/mlbcalmindexk.csv' for reading: No such file or directory tail: cannot open '/home/sinton/sjsu1f/mlbavgwindindexk.csv' for reading: No such file or directory tail: cannot open '/home/sinton/sjsu1f/mlbcalmindexk.csv' for reading: No such file or directory tail: cannot open '/home/sinton/sjsu1f/mlbavgwindindexk.csv' for reading: No such file or directory tail: cannot open '/home/sinton/sjsu1f/mlbcalmindexk.csv' for reading: No such file or directory tail: cannot open '/home/sinton/sjsu1f/mlbavgwindindexk.csv' for reading: No such file or directory tail: cannot open '/home/sinton/sjsu1f/mlbcalmindexk.csv' for reading: No such file or directory tail: cannot open '/home/sinton/sjsu1f/mlbavgwindindexk.csv' for reading: No such file or directory tail: cannot open '/home/sinton/sjsu1f/mlbcalmindexk.csv' for reading: No such file or directory tail: cannot open '/home/sinton/sjsu1f/mlbavgwindindexk.csv' for reading: No such file or directory tail: cannot open '/home/sinton/sjsu1f/mlbcalmindexk.csv' for reading: No such file or directory tail: cannot open '/home/sinton/sjsu1f/mlbavgwindindexk.csv' for reading: No such file or directory tail: cannot open '/home/sinton/sjsu1f/mlbcalmindexk.csv' for reading: No such file or directory tail: cannot open '/home/sinton/sjsu1f/mlbavgwindindexk.csv' for reading: No such file or directory tail: cannot open '/home/sinton/sjsu1f/mlbcalmindexk.csv' for reading: No such file or directory tail: cannot open '/home/sinton/sjsu1f/mlbavgwindindexk.csv' for reading: No such file or directory % Total % Received % Xferd Average Speed Time Time Time Current Dload Upload Total Spent Left Speed 0 0 0 0 0 0 0 0 --:--:-- --:--:-- --:--:-- 0 100 429 100 429 0 0 4290 0 --:--:-- --:--:-- --:--:-- 4290 % Total % Received % Xferd Average Speed Time Time Time Current Dload Upload Total Spent Left Speed 0 0 0 0 0 0 0 0 --:--:-- --:--:-- --:--:-- 0 100 430 100 430 0 0 1845 0 --:--:-- --:--:-- --:--:-- 1845 % Total % Received % Xferd Average Speed Time Time Time Current Dload Upload Total Spent Left Speed 0 0 0 0 0 0 0 0 --:--:-- --:--:-- --:--:-- 0 100 427 100 427 0 0 1372 0 --:--:-- --:--:-- --:--:-- 1368 100 427 100 427 0 0 1372 0 --:--:-- --:--:-- --:--:-- 1368 % Total % Received % Xferd Average Speed Time Time Time Current Dload Upload Total Spent Left Speed 0 0 0 0 0 0 0 0 --:--:-- --:--:-- --:--:-- 0 100 431 100 431 0 0 7696 0 --:--:-- --:--:-- --:--:-- 7696 % Total % Received % Xferd Average Speed Time Time Time Current Dload Upload Total Spent Left Speed 0 0 0 0 0 0 0 0 --:--:-- --:--:-- --:--:-- 0 100 430 100 430 0 0 3467 0 --:--:-- --:--:-- --:--:-- 3467 tail: cannot open '/home/sinton/sjsu1f/mlbcalmindexk.csv' for reading: No such file or directory tail: cannot open '/home/sinton/sjsu1f/mlbavgwindindexk.csv' for reading: No such file or directory tail: cannot open '/home/sinton/sjsu1f/mlbcalmindexk.csv' for reading: No such file or directory tail: cannot open '/home/sinton/sjsu1f/mlbavgwindindexk.csv' for reading: No such file or directory tail: cannot open '/home/sinton/sjsu1f/mlbcalmindexk.csv' for reading: No such file or directory tail: cannot open '/home/sinton/sjsu1f/mlbavgwindindexk.csv' for reading: No such file or directory tail: cannot open '/home/sinton/sjsu1f/mlbcalmindexk.csv' for reading: No such file or directory tail: cannot open '/home/sinton/sjsu1f/mlbavgwindindexk.csv' for reading: No such file or directory tail: cannot open '/home/sinton/sjsu1f/mlbcalmindexk.csv' for reading: No such file or directory tail: cannot open '/home/sinton/sjsu1f/mlbavgwindindexk.csv' for reading: No such file or directory tail: cannot open '/home/sinton/sjsu1f/mlbcalmindexk.csv' for reading: No such file or directory tail: cannot open '/home/sinton/sjsu1f/mlbavgwindindexk.csv' for reading: No such file or directory tail: cannot open '/home/sinton/sjsu1f/mlbcalmindexk.csv' for reading: No such file or directory tail: cannot open '/home/sinton/sjsu1f/mlbavgwindindexk.csv' for reading: No such file or directory tail: cannot open '/home/sinton/sjsu1f/mlbcalmindexk.csv' for reading: No such file or directory tail: cannot open '/home/sinton/sjsu1f/mlbavgwindindexk.csv' for reading: No such file or directory tail: cannot open '/home/sinton/sjsu1f/mlbcalmindexk.csv' for reading: No such file or directory tail: cannot open '/home/sinton/sjsu1f/mlbavgwindindexk.csv' for reading: No such file or directory tail: cannot open '/home/sinton/sjsu1f/mlbcalmindexk.csv' for reading: No such file or directory tail: cannot open '/home/sinton/sjsu1f/mlbavgwindindexk.csv' for reading: No such file or directory tail: cannot open '/home/sinton/sjsu1f/mlbcalmindexk.csv' for reading: No such file or directory tail: cannot open '/home/sinton/sjsu1f/mlbavgwindindexk.csv' for reading: No such file or directory % Total % Received % Xferd Average Speed Time Time Time Current Dload Upload Total Spent Left Speed 0 0 0 0 0 0 0 0 --:--:-- --:--:-- --:--:-- 0 100 429 100 429 0 0 1662 0 --:--:-- --:--:-- --:--:-- 1662 % Total % Received % Xferd Average Speed Time Time Time Current Dload Upload Total Spent Left Speed 0 0 0 0 0 0 0 0 --:--:-- --:--:-- --:--:-- 0 100 430 100 430 0 0 2905 0 --:--:-- --:--:-- --:--:-- 2885 100 430 100 430 0 0 2905 0 --:--:-- --:--:-- --:--:-- 2885 % Total % Received % Xferd Average Speed Time Time Time Current Dload Upload Total Spent Left Speed 0 0 0 0 0 0 0 0 --:--:-- --:--:-- --:--:-- 0 100 427 100 427 0 0 2944 0 --:--:-- --:--:-- --:--:-- 2944 % Total % Received % Xferd Average Speed Time Time Time Current Dload Upload Total Spent Left Speed 0 0 0 0 0 0 0 0 --:--:-- --:--:-- --:--:-- 0 100 431 100 431 0 0 7561 0 --:--:-- --:--:-- --:--:-- 7561 % Total % Received % Xferd Average Speed Time Time Time Current Dload Upload Total Spent Left Speed 0 0 0 0 0 0 0 0 --:--:-- --:--:-- --:--:-- 0 100 430 100 430 0 0 9772 0 --:--:-- --:--:-- --:--:-- 9772 tail: cannot open '/home/sinton/sjsu1f/mlbcalmindexk.csv' for reading: No such file or directory tail: cannot open '/home/sinton/sjsu1f/mlbavgwindindexk.csv' for reading: No such file or directory tail: cannot open '/home/sinton/sjsu1f/mlbcalmindexk.csv' for reading: No such file or directory tail: cannot open '/home/sinton/sjsu1f/mlbavgwindindexk.csv' for reading: No such file or directory tail: cannot open '/home/sinton/sjsu1f/mlbcalmindexk.csv' for reading: No such file or directory tail: cannot open '/home/sinton/sjsu1f/mlbavgwindindexk.csv' for reading: No such file or directory tail: cannot open '/home/sinton/sjsu1f/mlbcalmindexk.csv' for reading: No such file or directory tail: cannot open '/home/sinton/sjsu1f/mlbavgwindindexk.csv' for reading: No such file or directory tail: cannot open '/home/sinton/sjsu1f/mlbcalmindexk.csv' for reading: No such file or directory tail: cannot open '/home/sinton/sjsu1f/mlbavgwindindexk.csv' for reading: No such file or directory tail: cannot open '/home/sinton/sjsu1f/mlbcalmindexk.csv' for reading: No such file or directory tail: cannot open '/home/sinton/sjsu1f/mlbavgwindindexk.csv' for reading: No such file or directory tail: cannot open '/home/sinton/sjsu1f/mlbcalmindexk.csv' for reading: No such file or directory tail: cannot open '/home/sinton/sjsu1f/mlbavgwindindexk.csv' for reading: No such file or directory tail: cannot open '/home/sinton/sjsu1f/mlbcalmindexk.csv' for reading: No such file or directory tail: cannot open '/home/sinton/sjsu1f/mlbavgwindindexk.csv' for reading: No such file or directory tail: cannot open '/home/sinton/sjsu1f/mlbcalmindexk.csv' for reading: No such file or directory tail: cannot open '/home/sinton/sjsu1f/mlbavgwindindexk.csv' for reading: No such file or directory tail: cannot open '/home/sinton/sjsu1f/mlbcalmindexk.csv' for reading: No such file or directory tail: cannot open '/home/sinton/sjsu1f/mlbavgwindindexk.csv' for reading: No such file or directory tail: cannot open '/home/sinton/sjsu1f/mlbcalmindexk.csv' for reading: No such file or directory tail: cannot open '/home/sinton/sjsu1f/mlbavgwindindexk.csv' for reading: No such file or directory tail: cannot open '/home/sinton/sjsu1f/mlbcalmindexk.csv' for reading: No such file or directory tail: cannot open '/home/sinton/sjsu1f/mlbavgwindindexk.csv' for reading: No such file or directory tail: cannot open '/home/sinton/sjsu1f/mlbcalmindexk.csv' for reading: No such file or directory tail: cannot open '/home/sinton/sjsu1f/mlbavgwindindexk.csv' for reading: No such file or directory tail: cannot open '/home/sinton/sjsu1f/mlbcalmindexk.csv' for reading: No such file or directory tail: cannot open '/home/sinton/sjsu1f/mlbavgwindindexk.csv' for reading: No such file or directory tail: cannot open '/home/sinton/sjsu1f/mlbcalmindexk.csv' for reading: No such file or directory tail: cannot open '/home/sinton/sjsu1f/mlbavgwindindexk.csv' for reading: No such file or directory tail: cannot open '/home/sinton/sjsu1f/mlbcalmindexk.csv' for reading: No such file or directory tail: cannot open '/home/sinton/sjsu1f/mlbavgwindindexk.csv' for reading: No such file or directory % Total % Received % Xferd Average Speed Time Time Time Current Dload Upload Total Spent Left Speed 0 0 0 0 0 0 0 0 --:--:-- --:--:-- --:--:-- 0 100 432 100 432 0 0 7714 0 --:--:-- --:--:-- --:--:-- 7714 % Total % Received % Xferd Average Speed Time Time Time Current Dload Upload Total Spent Left Speed 0 0 0 0 0 0 0 0 --:--:-- --:--:-- --:--:-- 0 100 431 100 431 0 0 1683 0 --:--:-- --:--:-- --:--:-- 1683 % Total % Received % Xferd Average Speed Time Time Time Current Dload Upload Total Spent Left Speed 0 0 0 0 0 0 0 0 --:--:-- --:--:-- --:--:-- 0 100 429 100 429 0 0 2600 0 --:--:-- --:--:-- --:--:-- 2615 % Total % Received % Xferd Average Speed Time Time Time Current Dload Upload Total Spent Left Speed 0 0 0 0 0 0 0 0 --:--:-- --:--:-- --:--:-- 0 100 429 100 429 0 0 4612 0 --:--:-- --:--:-- --:--:-- 4612 % Total % Received % Xferd Average Speed Time Time Time Current Dload Upload Total Spent Left Speed 0 0 0 0 0 0 0 0 --:--:-- --:--:-- --:--:-- 0 100 428 100 428 0 0 7016 0 --:--:-- --:--:-- --:--:-- 7016 cat: /home/sinton/1f/weather1.txt: No such file or directory cat: /home/sinton/1f/weather2.txt: No such file or directory cat: /home/sinton/1f/weather3.txt: No such file or directory cat: /home/sinton/1f/weather4.txt: No such file or directory tail: cannot open '/home/sinton/sjsu1f/mlbcalmindexk.csv' for reading: No such file or directory tail: cannot open '/home/sinton/sjsu1f/mlbavgwindindexk.csv' for reading: No such file or directory mv: cannot stat '/home/sinton/public_html/John1f/oakstuck': No such file or directory tail: cannot open '/home/sinton/sjsu1f/mlbcalmindexk.csv' for reading: No such file or directory tail: cannot open '/home/sinton/sjsu1f/mlbavgwindindexk.csv' for reading: No such file or directory tail: cannot open '/home/sinton/sjsu1f/mlbcalmindexk.csv' for reading: No such file or directory tail: cannot open '/home/sinton/sjsu1f/mlbavgwindindexk.csv' for reading: No such file or directory tail: cannot open '/home/sinton/sjsu1f/mlbcalmindexk.csv' for reading: No such file or directory tail: cannot open '/home/sinton/sjsu1f/mlbavgwindindexk.csv' for reading: No such file or directory tail: cannot open '/home/sinton/sjsu1f/mlbcalmindexk.csv' for reading: No such file or directory tail: cannot open '/home/sinton/sjsu1f/mlbavgwindindexk.csv' for reading: No such file or directory tail: cannot open '/home/sinton/sjsu1f/mlbcalmindexk.csv' for reading: No such file or directory tail: cannot open '/home/sinton/sjsu1f/mlbavgwindindexk.csv' for reading: No such file or directory tail: cannot open '/home/sinton/sjsu1f/mlbcalmindexk.csv' for reading: No such file or directory tail: cannot open '/home/sinton/sjsu1f/mlbavgwindindexk.csv' for reading: No such file or directory tail: cannot open '/home/sinton/sjsu1f/mlbcalmindexk.csv' for reading: No such file or directory tail: cannot open '/home/sinton/sjsu1f/mlbavgwindindexk.csv' for reading: No such file or directory tail: cannot open '/home/sinton/sjsu1f/mlbcalmindexk.csv' for reading: No such file or directory tail: cannot open '/home/sinton/sjsu1f/mlbavgwindindexk.csv' for reading: No such file or directory tail: cannot open '/home/sinton/sjsu1f/mlbcalmindexk.csv' for reading: No such file or directory tail: cannot open '/home/sinton/sjsu1f/mlbavgwindindexk.csv' for reading: No such file or directory tail: cannot open '/home/sinton/sjsu1f/mlbcalmindexk.csv' for reading: No such file or directory tail: cannot open '/home/sinton/sjsu1f/mlbavgwindindexk.csv' for reading: No such file or directory tail: cannot open '/home/sinton/sjsu1f/mlbcalmindexk.csv' for reading: No such file or directory tail: cannot open '/home/sinton/sjsu1f/mlbavgwindindexk.csv' for reading: No such file or directory tail: cannot open '/home/sinton/sjsu1f/mlbcalmindexk.csv' for reading: No such file or directory tail: cannot open '/home/sinton/sjsu1f/mlbavgwindindexk.csv' for reading: No such file or directory % Total % Received % Xferd Average Speed Time Time Time Current Dload Upload Total Spent Left Speed 0 0 0 0 0 0 0 0 --:--:-- --:--:-- --:--:-- 0 100 432 100 432 0 0 8000 0 --:--:-- --:--:-- --:--:-- 8000 % Total % Received % Xferd Average Speed Time Time Time Current Dload Upload Total Spent Left Speed 0 0 0 0 0 0 0 0 --:--:-- --:--:-- --:--:-- 0 100 427 100 427 0 0 6671 0 --:--:-- --:--:-- --:--:-- 6671 % Total % Received % Xferd Average Speed Time Time Time Current Dload Upload Total Spent Left Speed 0 0 0 0 0 0 0 0 --:--:-- --:--:-- --:--:-- 0 100 428 100 428 0 0 8916 0 --:--:-- --:--:-- --:--:-- 8916 % Total % Received % Xferd Average Speed Time Time Time Current Dload Upload Total Spent Left Speed 0 0 0 0 0 0 0 0 --:--:-- --:--:-- --:--:-- 0 100 431 100 431 0 0 5130 0 --:--:-- --:--:-- --:--:-- 5192 % Total % Received % Xferd Average Speed Time Time Time Current Dload Upload Total Spent Left Speed 0 0 0 0 0 0 0 0 --:--:-- --:--:-- --:--:-- 0 100 430 100 430 0 0 3583 0 --:--:-- --:--:-- --:--:-- 3553 100 430 100 430 0 0 3583 0 --:--:-- --:--:-- --:--:-- 3553 tail: cannot open '/home/sinton/sjsu1f/mlbcalmindexk.csv' for reading: No such file or directory tail: cannot open '/home/sinton/sjsu1f/mlbavgwindindexk.csv' for reading: No such file or directory tail: cannot open '/home/sinton/sjsu1f/mlbcalmindexk.csv' for reading: No such file or directory tail: cannot open '/home/sinton/sjsu1f/mlbavgwindindexk.csv' for reading: No such file or directory tail: cannot open '/home/sinton/sjsu1f/mlbcalmindexk.csv' for reading: No such file or directory tail: cannot open '/home/sinton/sjsu1f/mlbavgwindindexk.csv' for reading: No such file or directory tail: cannot open '/home/sinton/sjsu1f/mlbcalmindexk.csv' for reading: No such file or directory tail: cannot open '/home/sinton/sjsu1f/mlbavgwindindexk.csv' for reading: No such file or directory tail: cannot open '/home/sinton/sjsu1f/mlbcalmindexk.csv' for reading: No such file or directory tail: cannot open '/home/sinton/sjsu1f/mlbavgwindindexk.csv' for reading: No such file or directory tail: cannot open '/home/sinton/sjsu1f/mlbcalmindexk.csv' for reading: No such file or directory tail: cannot open '/home/sinton/sjsu1f/mlbavgwindindexk.csv' for reading: No such file or directory tail: cannot open '/home/sinton/sjsu1f/mlbcalmindexk.csv' for reading: No such file or directory tail: cannot open '/home/sinton/sjsu1f/mlbavgwindindexk.csv' for reading: No such file or directory tail: cannot open '/home/sinton/sjsu1f/mlbcalmindexk.csv' for reading: No such file or directory tail: cannot open '/home/sinton/sjsu1f/mlbavgwindindexk.csv' for reading: No such file or directory tail: cannot open '/home/sinton/sjsu1f/mlbcalmindexk.csv' for reading: No such file or directory tail: cannot open '/home/sinton/sjsu1f/mlbavgwindindexk.csv' for reading: No such file or directory tail: cannot open '/home/sinton/sjsu1f/mlbcalmindexk.csv' for reading: No such file or directory tail: cannot open '/home/sinton/sjsu1f/mlbavgwindindexk.csv' for reading: No such file or directory tail: cannot open '/home/sinton/sjsu1f/mlbcalmindexk.csv' for reading: No such file or directory tail: cannot open '/home/sinton/sjsu1f/mlbavgwindindexk.csv' for reading: No such file or directory tail: cannot open '/home/sinton/sjsu1f/mlbcalmindexk.csv' for reading: No such file or directory tail: cannot open '/home/sinton/sjsu1f/mlbavgwindindexk.csv' for reading: No such file or directory tail: cannot open '/home/sinton/sjsu1f/mlbcalmindexk.csv' for reading: No such file or directory tail: cannot open '/home/sinton/sjsu1f/mlbavgwindindexk.csv' for reading: No such file or directory tail: cannot open '/home/sinton/sjsu1f/mlbcalmindexk.csv' for reading: No such file or directory tail: cannot open '/home/sinton/sjsu1f/mlbavgwindindexk.csv' for reading: No such file or directory % Total % Received % Xferd Average Speed Time Time Time Current Dload Upload Total Spent Left Speed 0 0 0 0 0 0 0 0 --:--:-- --:--:-- --:--:-- 0 100 432 100 432 0 0 2497 0 --:--:-- --:--:-- --:--:-- 2497 % Total % Received % Xferd Average Speed Time Time Time Current Dload Upload Total Spent Left Speed 0 0 0 0 0 0 0 0 --:--:-- --:--:-- --:--:-- 0 100 431 100 431 0 0 2268 0 --:--:-- --:--:-- --:--:-- 2268 % Total % Received % Xferd Average Speed Time Time Time Current Dload Upload Total Spent Left Speed 0 0 0 0 0 0 0 0 --:--:-- --:--:-- --:--:-- 0 100 428 100 428 0 0 9511 0 --:--:-- --:--:-- --:--:-- 9511 % Total % Received % Xferd Average Speed Time Time Time Current Dload Upload Total Spent Left Speed 0 0 0 0 0 0 0 0 --:--:-- --:--:-- --:--:-- 0 100 428 100 428 0 0 9106 0 --:--:-- --:--:-- --:--:-- 9106 % Total % Received % Xferd Average Speed Time Time Time Current Dload Upload Total Spent Left Speed 0 0 0 0 0 0 0 0 --:--:-- --:--:-- --:--:-- 0 100 427 100 427 0 0 8372 0 --:--:-- --:--:-- --:--:-- 8372 tail: cannot open '/home/sinton/sjsu1f/mlbcalmindexk.csv' for reading: No such file or directory tail: cannot open '/home/sinton/sjsu1f/mlbavgwindindexk.csv' for reading: No such file or directory tail: cannot open '/home/sinton/sjsu1f/mlbcalmindexk.csv' for reading: No such file or directory tail: cannot open '/home/sinton/sjsu1f/mlbavgwindindexk.csv' for reading: No such file or directory tail: cannot open '/home/sinton/sjsu1f/mlbcalmindexk.csv' for reading: No such file or directory tail: cannot open '/home/sinton/sjsu1f/mlbavgwindindexk.csv' for reading: No such file or directory tail: cannot open '/home/sinton/sjsu1f/mlbcalmindexk.csv' for reading: No such file or directory tail: cannot open '/home/sinton/sjsu1f/mlbavgwindindexk.csv' for reading: No such file or directory tail: cannot open '/home/sinton/sjsu1f/mlbcalmindexk.csv' for reading: No such file or directory tail: cannot open '/home/sinton/sjsu1f/mlbavgwindindexk.csv' for reading: No such file or directory tail: cannot open '/home/sinton/sjsu1f/mlbcalmindexk.csv' for reading: No such file or directory tail: cannot open '/home/sinton/sjsu1f/mlbavgwindindexk.csv' for reading: No such file or directory tail: cannot open '/home/sinton/sjsu1f/mlbcalmindexk.csv' for reading: No such file or directory tail: cannot open '/home/sinton/sjsu1f/mlbavgwindindexk.csv' for reading: No such file or directory tail: cannot open '/home/sinton/sjsu1f/mlbcalmindexk.csv' for reading: No such file or directory tail: cannot open '/home/sinton/sjsu1f/mlbavgwindindexk.csv' for reading: No such file or directory tail: cannot open '/home/sinton/sjsu1f/mlbcalmindexk.csv' for reading: No such file or directory tail: cannot open '/home/sinton/sjsu1f/mlbavgwindindexk.csv' for reading: No such file or directory tail: cannot open '/home/sinton/sjsu1f/mlbcalmindexk.csv' for reading: No such file or directory tail: cannot open '/home/sinton/sjsu1f/mlbavgwindindexk.csv' for reading: No such file or directory tail: cannot open '/home/sinton/sjsu1f/mlbcalmindexk.csv' for reading: No such file or directory tail: cannot open '/home/sinton/sjsu1f/mlbavgwindindexk.csv' for reading: No such file or directory tail: cannot open '/home/sinton/sjsu1f/mlbcalmindexk.csv' for reading: No such file or directory tail: cannot open '/home/sinton/sjsu1f/mlbavgwindindexk.csv' for reading: No such file or directory tail: cannot open '/home/sinton/sjsu1f/mlbcalmindexk.csv' for reading: No such file or directory tail: cannot open '/home/sinton/sjsu1f/mlbavgwindindexk.csv' for reading: No such file or directory tail: cannot open '/home/sinton/sjsu1f/mlbcalmindexk.csv' for reading: No such file or directory tail: cannot open '/home/sinton/sjsu1f/mlbavgwindindexk.csv' for reading: No such file or directory % Total % Received % Xferd Average Speed Time Time Time Current Dload Upload Total Spent Left Speed 0 0 0 0 0 0 0 0 --:--:-- --:--:-- --:--:-- 0 100 432 100 432 0 0 4075 0 --:--:-- --:--:-- --:--:-- 4075 % Total % Received % Xferd Average Speed Time Time Time Current Dload Upload Total Spent Left Speed 0 0 0 0 0 0 0 0 --:--:-- --:--:-- --:--:-- 0 100 429 100 429 0 0 6600 0 --:--:-- --:--:-- --:--:-- 6600 % Total % Received % Xferd Average Speed Time Time Time Current Dload Upload Total Spent Left Speed 0 0 0 0 0 0 0 0 --:--:-- --:--:-- --:--:-- 0 0 0 0 0 0 0 0 0 --:--:-- --:--:-- --:--:-- 0 100 432 100 432 0 0 3927 0 --:--:-- --:--:-- --:--:-- 3927 % Total % Received % Xferd Average Speed Time Time Time Current Dload Upload Total Spent Left Speed 0 0 0 0 0 0 0 0 --:--:-- --:--:-- --:--:-- 0 100 430 100 430 0 0 5657 0 --:--:-- --:--:-- --:--:-- 5657 % Total % Received % Xferd Average Speed Time Time Time Current Dload Upload Total Spent Left Speed 0 0 0 0 0 0 0 0 --:--:-- --:--:-- --:--:-- 0 100 429 100 429 0 0 3154 0 --:--:-- --:--:-- --:--:-- 3154 tail: cannot open '/home/sinton/sjsu1f/mlbcalmindexk.csv' for reading: No such file or directory tail: cannot open '/home/sinton/sjsu1f/mlbavgwindindexk.csv' for reading: No such file or directory tail: cannot open '/home/sinton/sjsu1f/mlbcalmindexk.csv' for reading: No such file or directory tail: cannot open '/home/sinton/sjsu1f/mlbavgwindindexk.csv' for reading: No such file or directory tail: cannot open '/home/sinton/sjsu1f/mlbcalmindexk.csv' for reading: No such file or directory tail: cannot open '/home/sinton/sjsu1f/mlbavgwindindexk.csv' for reading: No such file or directory tail: cannot open '/home/sinton/sjsu1f/mlbcalmindexk.csv' for reading: No such file or directory tail: cannot open '/home/sinton/sjsu1f/mlbavgwindindexk.csv' for reading: No such file or directory tail: cannot open '/home/sinton/sjsu1f/mlbcalmindexk.csv' for reading: No such file or directory tail: cannot open '/home/sinton/sjsu1f/mlbavgwindindexk.csv' for reading: No such file or directory tail: cannot open '/home/sinton/sjsu1f/mlbcalmindexk.csv' for reading: No such file or directory tail: cannot open '/home/sinton/sjsu1f/mlbavgwindindexk.csv' for reading: No such file or directory tail: cannot open '/home/sinton/sjsu1f/mlbcalmindexk.csv' for reading: No such file or directory tail: cannot open '/home/sinton/sjsu1f/mlbavgwindindexk.csv' for reading: No such file or directory tail: cannot open '/home/sinton/sjsu1f/mlbcalmindexk.csv' for reading: No such file or directory tail: cannot open '/home/sinton/sjsu1f/mlbavgwindindexk.csv' for reading: No such file or directory tail: cannot open '/home/sinton/sjsu1f/mlbcalmindexk.csv' for reading: No such file or directory tail: cannot open '/home/sinton/sjsu1f/mlbavgwindindexk.csv' for reading: No such file or directory tail: cannot open '/home/sinton/sjsu1f/mlbcalmindexk.csv' for reading: No such file or directory tail: cannot open '/home/sinton/sjsu1f/mlbavgwindindexk.csv' for reading: No such file or directory tail: cannot open '/home/sinton/sjsu1f/mlbcalmindexk.csv' for reading: No such file or directory tail: cannot open '/home/sinton/sjsu1f/mlbavgwindindexk.csv' for reading: No such file or directory tail: cannot open '/home/sinton/sjsu1f/mlbcalmindexk.csv' for reading: No such file or directory tail: cannot open '/home/sinton/sjsu1f/mlbavgwindindexk.csv' for reading: No such file or directory tail: cannot open '/home/sinton/sjsu1f/mlbcalmindexk.csv' for reading: No such file or directory tail: cannot open '/home/sinton/sjsu1f/mlbavgwindindexk.csv' for reading: No such file or directory % Total % Received % Xferd Average Speed Time Time Time Current Dload Upload Total Spent Left Speed 0 0 0 0 0 0 0 0 --:--:-- --:--:-- --:--:-- 0 100 432 100 432 0 0 7448 0 --:--:-- --:--:-- --:--:-- 7448 % Total % Received % Xferd Average Speed Time Time Time Current Dload Upload Total Spent Left Speed 0 0 0 0 0 0 0 0 --:--:-- --:--:-- --:--:-- 0 100 428 100 428 0 0 3627 0 --:--:-- --:--:-- --:--:-- 3627 % Total % Received % Xferd Average Speed Time Time Time Current Dload Upload Total Spent Left Speed 0 0 0 0 0 0 0 0 --:--:-- --:--:-- --:--:-- 0 100 432 100 432 0 0 7322 0 --:--:-- --:--:-- --:--:-- 7322 % Total % Received % Xferd Average Speed Time Time Time Current Dload Upload Total Spent Left Speed 0 0 0 0 0 0 0 0 --:--:-- --:--:-- --:--:-- 0 100 431 100 431 0 0 3367 0 --:--:-- --:--:-- --:--:-- 3341 100 431 100 431 0 0 3367 0 --:--:-- --:--:-- --:--:-- 3341 % Total % Received % Xferd Average Speed Time Time Time Current Dload Upload Total Spent Left Speed 0 0 0 0 0 0 0 0 --:--:-- --:--:-- --:--:-- 0 100 430 100 430 0 0 1936 0 --:--:-- --:--:-- --:--:-- 1936 mv: cannot stat '/home/sinton/public_html/John1f/oakstuck': No such file or directory tail: cannot open '/home/sinton/sjsu1f/mlbcalmindexk.csv' for reading: No such file or directory tail: cannot open '/home/sinton/sjsu1f/mlbavgwindindexk.csv' for reading: No such file or directory tail: cannot open '/home/sinton/sjsu1f/mlbcalmindexk.csv' for reading: No such file or directory tail: cannot open '/home/sinton/sjsu1f/mlbavgwindindexk.csv' for reading: No such file or directory tail: cannot open '/home/sinton/sjsu1f/mlbcalmindexk.csv' for reading: No such file or directory tail: cannot open '/home/sinton/sjsu1f/mlbavgwindindexk.csv' for reading: No such file or directory tail: cannot open '/home/sinton/sjsu1f/mlbcalmindexk.csv' for reading: No such file or directory tail: cannot open '/home/sinton/sjsu1f/mlbavgwindindexk.csv' for reading: No such file or directory tail: cannot open '/home/sinton/sjsu1f/mlbcalmindexk.csv' for reading: No such file or directory tail: cannot open '/home/sinton/sjsu1f/mlbavgwindindexk.csv' for reading: No such file or directory tail: cannot open '/home/sinton/sjsu1f/mlbcalmindexk.csv' for reading: No such file or directory tail: cannot open '/home/sinton/sjsu1f/mlbavgwindindexk.csv' for reading: No such file or directory tail: cannot open '/home/sinton/sjsu1f/mlbcalmindexk.csv' for reading: No such file or directory tail: cannot open '/home/sinton/sjsu1f/mlbavgwindindexk.csv' for reading: No such file or directory tail: cannot open '/home/sinton/sjsu1f/mlbcalmindexk.csv' for reading: No such file or directory tail: cannot open '/home/sinton/sjsu1f/mlbavgwindindexk.csv' for reading: No such file or directory tail: cannot open '/home/sinton/sjsu1f/mlbcalmindexk.csv' for reading: No such file or directory tail: cannot open '/home/sinton/sjsu1f/mlbavgwindindexk.csv' for reading: No such file or directory tail: cannot open '/home/sinton/sjsu1f/mlbcalmindexk.csv' for reading: No such file or directory tail: cannot open '/home/sinton/sjsu1f/mlbavgwindindexk.csv' for reading: No such file or directory % Total % Received % Xferd Average Speed Time Time Time Current Dload Upload Total Spent Left Speed 0 0 0 0 0 0 0 0 --:--:-- --:--:-- --:--:-- 0 100 432 100 432 0 0 3200 0 --:--:-- --:--:-- --:--:-- 3200 % Total % Received % Xferd Average Speed Time Time Time Current Dload Upload Total Spent Left Speed 0 0 0 0 0 0 0 0 --:--:-- --:--:-- --:--:-- 0 100 428 100 428 0 0 7781 0 --:--:-- --:--:-- --:--:-- 7781 % Total % Received % Xferd Average Speed Time Time Time Current Dload Upload Total Spent Left Speed 0 0 0 0 0 0 0 0 --:--:-- --:--:-- --:--:-- 0 100 432 100 432 0 0 2511 0 --:--:-- --:--:-- --:--:-- 2511 % Total % Received % Xferd Average Speed Time Time Time Current Dload Upload Total Spent Left Speed 0 0 0 0 0 0 0 0 --:--:-- --:--:-- --:--:-- 0 100 431 100 431 0 0 7981 0 --:--:-- --:--:-- --:--:-- 7981 % Total % Received % Xferd Average Speed Time Time Time Current Dload Upload Total Spent Left Speed 0 0 0 0 0 0 0 0 --:--:-- --:--:-- --:--:-- 0 100 430 100 430 0 0 1822 0 --:--:-- --:--:-- --:--:-- 1822 cat: /home/sinton/1f/weather1.txt: No such file or directory cat: /home/sinton/1f/weather2.txt: No such file or directory cat: /home/sinton/1f/weather3.txt: No such file or directory cat: /home/sinton/1f/weather4.txt: No such file or directory tail: cannot open '/home/sinton/sjsu1f/mlbcalmindexk.csv' for reading: No such file or directory tail: cannot open '/home/sinton/sjsu1f/mlbavgwindindexk.csv' for reading: No such file or directory tail: cannot open '/home/sinton/sjsu1f/mlbcalmindexk.csv' for reading: No such file or directory tail: cannot open '/home/sinton/sjsu1f/mlbavgwindindexk.csv' for reading: No such file or directory tail: cannot open '/home/sinton/sjsu1f/mlbcalmindexk.csv' for reading: No such file or directory tail: cannot open '/home/sinton/sjsu1f/mlbavgwindindexk.csv' for reading: No such file or directory tail: cannot open '/home/sinton/sjsu1f/mlbcalmindexk.csv' for reading: No such file or directory tail: cannot open '/home/sinton/sjsu1f/mlbavgwindindexk.csv' for reading: No such file or directory tail: cannot open '/home/sinton/sjsu1f/mlbcalmindexk.csv' for reading: No such file or directory tail: cannot open '/home/sinton/sjsu1f/mlbavgwindindexk.csv' for reading: No such file or directory tail: cannot open '/home/sinton/sjsu1f/mlbcalmindexk.csv' for reading: No such file or directory tail: cannot open '/home/sinton/sjsu1f/mlbavgwindindexk.csv' for reading: No such file or directory tail: cannot open '/home/sinton/sjsu1f/mlbcalmindexk.csv' for reading: No such file or directory tail: cannot open '/home/sinton/sjsu1f/mlbavgwindindexk.csv' for reading: No such file or directory tail: cannot open '/home/sinton/sjsu1f/mlbcalmindexk.csv' for reading: No such file or directory tail: cannot open '/home/sinton/sjsu1f/mlbavgwindindexk.csv' for reading: No such file or directory tail: cannot open '/home/sinton/sjsu1f/mlbcalmindexk.csv' for reading: No such file or directory tail: cannot open '/home/sinton/sjsu1f/mlbavgwindindexk.csv' for reading: No such file or directory tail: cannot open '/home/sinton/sjsu1f/mlbcalmindexk.csv' for reading: No such file or directory tail: cannot open '/home/sinton/sjsu1f/mlbavgwindindexk.csv' for reading: No such file or directory tail: cannot open '/home/sinton/sjsu1f/mlbcalmindexk.csv' for reading: No such file or directory tail: cannot open '/home/sinton/sjsu1f/mlbavgwindindexk.csv' for reading: No such file or directory tail: cannot open '/home/sinton/sjsu1f/mlbcalmindexk.csv' for reading: No such file or directory tail: cannot open '/home/sinton/sjsu1f/mlbavgwindindexk.csv' for reading: No such file or directory tail: cannot open '/home/sinton/sjsu1f/mlbcalmindexk.csv' for reading: No such file or directory tail: cannot open '/home/sinton/sjsu1f/mlbavgwindindexk.csv' for reading: No such file or directory tail: cannot open '/home/sinton/sjsu1f/mlbcalmindexk.csv' for reading: No such file or directory tail: cannot open '/home/sinton/sjsu1f/mlbavgwindindexk.csv' for reading: No such file or directory tail: cannot open '/home/sinton/sjsu1f/mlbcalmindexk.csv' for reading: No such file or directory tail: cannot open '/home/sinton/sjsu1f/mlbavgwindindexk.csv' for reading: No such file or directory tail: cannot open '/home/sinton/sjsu1f/mlbcalmindexk.csv' for reading: No such file or directory tail: cannot open '/home/sinton/sjsu1f/mlbavgwindindexk.csv' for reading: No such file or directory tail: cannot open '/home/sinton/sjsu1f/mlbcalmindexk.csv' for reading: No such file or directory tail: cannot open '/home/sinton/sjsu1f/mlbavgwindindexk.csv' for reading: No such file or directory % Total % Received % Xferd Average Speed Time Time Time Current Dload Upload Total Spent Left Speed 0 0 0 0 0 0 0 0 --:--:-- --:--:-- --:--:-- 0 100 431 100 431 0 0 3848 0 --:--:-- --:--:-- --:--:-- 3814 100 431 100 431 0 0 3848 0 --:--:-- --:--:-- --:--:-- 3814 % Total % Received % Xferd Average Speed Time Time Time Current Dload Upload Total Spent Left Speed 0 0 0 0 0 0 0 0 --:--:-- --:--:-- --:--:-- 0 100 428 100 428 0 0 3370 0 --:--:-- --:--:-- --:--:-- 3370 % Total % Received % Xferd Average Speed Time Time Time Current Dload Upload Total Spent Left Speed 0 0 0 0 0 0 0 0 --:--:-- --:--:-- --:--:-- 0 100 432 100 432 0 0 9391 0 --:--:-- --:--:-- --:--:-- 9391 % Total % Received % Xferd Average Speed Time Time Time Current Dload Upload Total Spent Left Speed 0 0 0 0 0 0 0 0 --:--:-- --:--:-- --:--:-- 0 100 432 100 432 0 0 2149 0 --:--:-- --:--:-- --:--:-- 2149 % Total % Received % Xferd Average Speed Time Time Time Current Dload Upload Total Spent Left Speed 0 0 0 0 0 0 0 0 --:--:-- --:--:-- --:--:-- 0 100 431 100 431 0 0 7836 0 --:--:-- --:--:-- --:--:-- 7836 tail: cannot open '/home/sinton/sjsu1f/mlbcalmindexk.csv' for reading: No such file or directory tail: cannot open '/home/sinton/sjsu1f/mlbavgwindindexk.csv' for reading: No such file or directory tail: cannot open '/home/sinton/sjsu1f/mlbcalmindexk.csv' for reading: No such file or directory tail: cannot open '/home/sinton/sjsu1f/mlbavgwindindexk.csv' for reading: No such file or directory tail: cannot open '/home/sinton/sjsu1f/mlbcalmindexk.csv' for reading: No such file or directory tail: cannot open '/home/sinton/sjsu1f/mlbavgwindindexk.csv' for reading: No such file or directory tail: cannot open '/home/sinton/sjsu1f/mlbcalmindexk.csv' for reading: No such file or directory tail: cannot open '/home/sinton/sjsu1f/mlbavgwindindexk.csv' for reading: No such file or directory tail: cannot open '/home/sinton/sjsu1f/mlbcalmindexk.csv' for reading: No such file or directory tail: cannot open '/home/sinton/sjsu1f/mlbavgwindindexk.csv' for reading: No such file or directory tail: cannot open '/home/sinton/sjsu1f/mlbcalmindexk.csv' for reading: No such file or directory tail: cannot open '/home/sinton/sjsu1f/mlbavgwindindexk.csv' for reading: No such file or directory tail: cannot open '/home/sinton/sjsu1f/mlbcalmindexk.csv' for reading: No such file or directory tail: cannot open '/home/sinton/sjsu1f/mlbavgwindindexk.csv' for reading: No such file or directory tail: cannot open '/home/sinton/sjsu1f/mlbcalmindexk.csv' for reading: No such file or directory tail: cannot open '/home/sinton/sjsu1f/mlbavgwindindexk.csv' for reading: No such file or directory tail: cannot open '/home/sinton/sjsu1f/mlbcalmindexk.csv' for reading: No such file or directory tail: cannot open '/home/sinton/sjsu1f/mlbavgwindindexk.csv' for reading: No such file or directory tail: cannot open '/home/sinton/sjsu1f/mlbcalmindexk.csv' for reading: No such file or directory tail: cannot open '/home/sinton/sjsu1f/mlbavgwindindexk.csv' for reading: No such file or directory tail: cannot open '/home/sinton/sjsu1f/mlbcalmindexk.csv' for reading: No such file or directory tail: cannot open '/home/sinton/sjsu1f/mlbavgwindindexk.csv' for reading: No such file or directory tail: cannot open '/home/sinton/sjsu1f/mlbcalmindexk.csv' for reading: No such file or directory tail: cannot open '/home/sinton/sjsu1f/mlbavgwindindexk.csv' for reading: No such file or directory tail: cannot open '/home/sinton/sjsu1f/mlbcalmindexk.csv' for reading: No such file or directory tail: cannot open '/home/sinton/sjsu1f/mlbavgwindindexk.csv' for reading: No such file or directory tail: cannot open '/home/sinton/sjsu1f/mlbcalmindexk.csv' for reading: No such file or directory tail: cannot open '/home/sinton/sjsu1f/mlbavgwindindexk.csv' for reading: No such file or directory % Total % Received % Xferd Average Speed Time Time Time Current Dload Upload Total Spent Left Speed 0 0 0 0 0 0 0 0 --:--:-- --:--:-- --:--:-- 0 100 431 100 431 0 0 2165 0 --:--:-- --:--:-- --:--:-- 2165 % Total % Received % Xferd Average Speed Time Time Time Current Dload Upload Total Spent Left Speed 0 0 0 0 0 0 0 0 --:--:-- --:--:-- --:--:-- 0 100 428 100 428 0 0 3890 0 --:--:-- --:--:-- --:--:-- 3890 % Total % Received % Xferd Average Speed Time Time Time Current Dload Upload Total Spent Left Speed 0 0 0 0 0 0 0 0 --:--:-- --:--:-- --:--:-- 0 0 0 0 0 0 0 0 0 --:--:-- --:--:-- --:--:-- 0 100 432 100 432 0 0 1981 0 --:--:-- --:--:-- --:--:-- 1972 % Total % Received % Xferd Average Speed Time Time Time Current Dload Upload Total Spent Left Speed 0 0 0 0 0 0 0 0 --:--:-- --:--:-- --:--:-- 0 100 431 100 431 0 0 1773 0 --:--:-- --:--:-- --:--:-- 1773 % Total % Received % Xferd Average Speed Time Time Time Current Dload Upload Total Spent Left Speed 0 0 0 0 0 0 0 0 --:--:-- --:--:-- --:--:-- 0 100 430 100 430 0 0 5000 0 --:--:-- --:--:-- --:--:-- 5000 tail: cannot open '/home/sinton/sjsu1f/mlbcalmindexk.csv' for reading: No such file or directory tail: cannot open '/home/sinton/sjsu1f/mlbavgwindindexk.csv' for reading: No such file or directory tail: cannot open '/home/sinton/sjsu1f/mlbcalmindexk.csv' for reading: No such file or directory tail: cannot open '/home/sinton/sjsu1f/mlbavgwindindexk.csv' for reading: No such file or directory tail: cannot open '/home/sinton/sjsu1f/mlbcalmindexk.csv' for reading: No such file or directory tail: cannot open '/home/sinton/sjsu1f/mlbavgwindindexk.csv' for reading: No such file or directory tail: cannot open '/home/sinton/sjsu1f/mlbcalmindexk.csv' for reading: No such file or directory tail: cannot open '/home/sinton/sjsu1f/mlbavgwindindexk.csv' for reading: No such file or directory tail: cannot open '/home/sinton/sjsu1f/mlbcalmindexk.csv' for reading: No such file or directory tail: cannot open '/home/sinton/sjsu1f/mlbavgwindindexk.csv' for reading: No such file or directory tail: cannot open '/home/sinton/sjsu1f/mlbcalmindexk.csv' for reading: No such file or directory tail: cannot open '/home/sinton/sjsu1f/mlbavgwindindexk.csv' for reading: No such file or directory tail: cannot open '/home/sinton/sjsu1f/mlbcalmindexk.csv' for reading: No such file or directory tail: cannot open '/home/sinton/sjsu1f/mlbavgwindindexk.csv' for reading: No such file or directory tail: cannot open '/home/sinton/sjsu1f/mlbcalmindexk.csv' for reading: No such file or directory tail: cannot open '/home/sinton/sjsu1f/mlbavgwindindexk.csv' for reading: No such file or directory tail: cannot open '/home/sinton/sjsu1f/mlbcalmindexk.csv' for reading: No such file or directory tail: cannot open '/home/sinton/sjsu1f/mlbavgwindindexk.csv' for reading: No such file or directory tail: cannot open '/home/sinton/sjsu1f/mlbcalmindexk.csv' for reading: No such file or directory tail: cannot open '/home/sinton/sjsu1f/mlbavgwindindexk.csv' for reading: No such file or directory tail: cannot open '/home/sinton/sjsu1f/mlbcalmindexk.csv' for reading: No such file or directory tail: cannot open '/home/sinton/sjsu1f/mlbavgwindindexk.csv' for reading: No such file or directory tail: cannot open '/home/sinton/sjsu1f/mlbcalmindexk.csv' for reading: No such file or directory tail: cannot open '/home/sinton/sjsu1f/mlbavgwindindexk.csv' for reading: No such file or directory tail: cannot open '/home/sinton/sjsu1f/mlbcalmindexk.csv' for reading: No such file or directory tail: cannot open '/home/sinton/sjsu1f/mlbavgwindindexk.csv' for reading: No such file or directory % Total % Received % Xferd Average Speed Time Time Time Current Dload Upload Total Spent Left Speed 0 0 0 0 0 0 0 0 --:--:-- --:--:-- --:--:-- 0 100 432 100 432 0 0 4695 0 --:--:-- --:--:-- --:--:-- 4695 % Total % Received % Xferd Average Speed Time Time Time Current Dload Upload Total Spent Left Speed 0 0 0 0 0 0 0 0 --:--:-- --:--:-- --:--:-- 0 0 0 0 0 0 0 0 0 --:--:-- --:--:-- --:--:-- 0 100 431 100 431 0 0 1703 0 --:--:-- --:--:-- --:--:-- 1696 % Total % Received % Xferd Average Speed Time Time Time Current Dload Upload Total Spent Left Speed 0 0 0 0 0 0 0 0 --:--:-- --:--:-- --:--:-- 0 100 432 100 432 0 0 1854 0 --:--:-- --:--:-- --:--:-- 1854 % Total % Received % Xferd Average Speed Time Time Time Current Dload Upload Total Spent Left Speed 0 0 0 0 0 0 0 0 --:--:-- --:--:-- --:--:-- 0 100 432 100 432 0 0 3020 0 --:--:-- --:--:-- --:--:-- 3020 % Total % Received % Xferd Average Speed Time Time Time Current Dload Upload Total Spent Left Speed 0 0 0 0 0 0 0 0 --:--:-- --:--:-- --:--:-- 0 100 431 100 431 0 0 4736 0 --:--:-- --:--:-- --:--:-- 4736 cat: /home/sinton/1f/weather1.txt: No such file or directory cat: /home/sinton/1f/weather2.txt: No such file or directory cat: /home/sinton/1f/weather3.txt: No such file or directory cat: /home/sinton/1f/weather4.txt: No such file or directory tail: cannot open '/home/sinton/sjsu1f/mlbcalmindexk.csv' for reading: No such file or directory tail: cannot open '/home/sinton/sjsu1f/mlbavgwindindexk.csv' for reading: No such file or directory mv: cannot stat '/home/sinton/public_html/John1f/oakstuck': No such file or directory tail: cannot open '/home/sinton/sjsu1f/mlbcalmindexk.csv' for reading: No such file or directory tail: cannot open '/home/sinton/sjsu1f/mlbavgwindindexk.csv' for reading: No such file or directory tail: cannot open '/home/sinton/sjsu1f/mlbcalmindexk.csv' for reading: No such file or directory tail: cannot open '/home/sinton/sjsu1f/mlbavgwindindexk.csv' for reading: No such file or directory tail: cannot open '/home/sinton/sjsu1f/mlbcalmindexk.csv' for reading: No such file or directory tail: cannot open '/home/sinton/sjsu1f/mlbavgwindindexk.csv' for reading: No such file or directory tail: cannot open '/home/sinton/sjsu1f/mlbcalmindexk.csv' for reading: No such file or directory tail: cannot open '/home/sinton/sjsu1f/mlbavgwindindexk.csv' for reading: No such file or directory tail: cannot open '/home/sinton/sjsu1f/mlbcalmindexk.csv' for reading: No such file or directory tail: cannot open '/home/sinton/sjsu1f/mlbavgwindindexk.csv' for reading: No such file or directory tail: cannot open '/home/sinton/sjsu1f/mlbcalmindexk.csv' for reading: No such file or directory tail: cannot open '/home/sinton/sjsu1f/mlbavgwindindexk.csv' for reading: No such file or directory tail: cannot open '/home/sinton/sjsu1f/mlbcalmindexk.csv' for reading: No such file or directory tail: cannot open '/home/sinton/sjsu1f/mlbavgwindindexk.csv' for reading: No such file or directory tail: cannot open '/home/sinton/sjsu1f/mlbcalmindexk.csv' for reading: No such file or directory tail: cannot open '/home/sinton/sjsu1f/mlbavgwindindexk.csv' for reading: No such file or directory tail: cannot open '/home/sinton/sjsu1f/mlbcalmindexk.csv' for reading: No such file or directory tail: cannot open '/home/sinton/sjsu1f/mlbavgwindindexk.csv' for reading: No such file or directory tail: cannot open '/home/sinton/sjsu1f/mlbcalmindexk.csv' for reading: No such file or directory tail: cannot open '/home/sinton/sjsu1f/mlbavgwindindexk.csv' for reading: No such file or directory tail: cannot open '/home/sinton/sjsu1f/mlbcalmindexk.csv' for reading: No such file or directory tail: cannot open '/home/sinton/sjsu1f/mlbavgwindindexk.csv' for reading: No such file or directory tail: cannot open '/home/sinton/sjsu1f/mlbcalmindexk.csv' for reading: No such file or directory tail: cannot open '/home/sinton/sjsu1f/mlbavgwindindexk.csv' for reading: No such file or directory % Total % Received % Xferd Average Speed Time Time Time Current Dload Upload Total Spent Left Speed 0 0 0 0 0 0 0 0 --:--:-- --:--:-- --:--:-- 0 100 431 100 431 0 0 6951 0 --:--:-- --:--:-- --:--:-- 6951 % Total % Received % Xferd Average Speed Time Time Time Current Dload Upload Total Spent Left Speed 0 0 0 0 0 0 0 0 --:--:-- --:--:-- --:--:-- 0 100 431 100 431 0 0 8620 0 --:--:-- --:--:-- --:--:-- 8620 % Total % Received % Xferd Average Speed Time Time Time Current Dload Upload Total Spent Left Speed 0 0 0 0 0 0 0 0 --:--:-- --:--:-- --:--:-- 0 100 432 100 432 0 0 2335 0 --:--:-- --:--:-- --:--:-- 2335 % Total % Received % Xferd Average Speed Time Time Time Current Dload Upload Total Spent Left Speed 0 0 0 0 0 0 0 0 --:--:-- --:--:-- --:--:-- 0 100 429 100 429 0 0 4875 0 --:--:-- --:--:-- --:--:-- 4931 % Total % Received % Xferd Average Speed Time Time Time Current Dload Upload Total Spent Left Speed 0 0 0 0 0 0 0 0 --:--:-- --:--:-- --:--:-- 0 100 428 100 428 0 0 10974 0 --:--:-- --:--:-- --:--:-- 10974 tail: cannot open '/home/sinton/sjsu1f/mlbcalmindexk.csv' for reading: No such file or directory tail: cannot open '/home/sinton/sjsu1f/mlbavgwindindexk.csv' for reading: No such file or directory tail: cannot open '/home/sinton/sjsu1f/mlbcalmindexk.csv' for reading: No such file or directory tail: cannot open '/home/sinton/sjsu1f/mlbavgwindindexk.csv' for reading: No such file or directory tail: cannot open '/home/sinton/sjsu1f/mlbcalmindexk.csv' for reading: No such file or directory tail: cannot open '/home/sinton/sjsu1f/mlbavgwindindexk.csv' for reading: No such file or directory tail: cannot open '/home/sinton/sjsu1f/mlbcalmindexk.csv' for reading: No such file or directory tail: cannot open '/home/sinton/sjsu1f/mlbavgwindindexk.csv' for reading: No such file or directory tail: cannot open '/home/sinton/sjsu1f/mlbcalmindexk.csv' for reading: No such file or directory tail: cannot open '/home/sinton/sjsu1f/mlbavgwindindexk.csv' for reading: No such file or directory tail: cannot open '/home/sinton/sjsu1f/mlbcalmindexk.csv' for reading: No such file or directory tail: cannot open '/home/sinton/sjsu1f/mlbavgwindindexk.csv' for reading: No such file or directory tail: cannot open '/home/sinton/sjsu1f/mlbcalmindexk.csv' for reading: No such file or directory tail: cannot open '/home/sinton/sjsu1f/mlbavgwindindexk.csv' for reading: No such file or directory tail: cannot open '/home/sinton/sjsu1f/mlbcalmindexk.csv' for reading: No such file or directory tail: cannot open '/home/sinton/sjsu1f/mlbavgwindindexk.csv' for reading: No such file or directory tail: cannot open '/home/sinton/sjsu1f/mlbcalmindexk.csv' for reading: No such file or directory tail: cannot open '/home/sinton/sjsu1f/mlbavgwindindexk.csv' for reading: No such file or directory tail: cannot open '/home/sinton/sjsu1f/mlbcalmindexk.csv' for reading: No such file or directory tail: cannot open '/home/sinton/sjsu1f/mlbavgwindindexk.csv' for reading: No such file or directory tail: cannot open '/home/sinton/sjsu1f/mlbcalmindexk.csv' for reading: No such file or directory tail: cannot open '/home/sinton/sjsu1f/mlbavgwindindexk.csv' for reading: No such file or directory tail: cannot open '/home/sinton/sjsu1f/mlbcalmindexk.csv' for reading: No such file or directory tail: cannot open '/home/sinton/sjsu1f/mlbavgwindindexk.csv' for reading: No such file or directory tail: cannot open '/home/sinton/sjsu1f/mlbcalmindexk.csv' for reading: No such file or directory tail: cannot open '/home/sinton/sjsu1f/mlbavgwindindexk.csv' for reading: No such file or directory tail: cannot open '/home/sinton/sjsu1f/mlbcalmindexk.csv' for reading: No such file or directory tail: cannot open '/home/sinton/sjsu1f/mlbavgwindindexk.csv' for reading: No such file or directory % Total % Received % Xferd Average Speed Time Time Time Current Dload Upload Total Spent Left Speed 0 0 0 0 0 0 0 0 --:--:-- --:--:-- --:--:-- 0 100 432 100 432 0 0 2181 0 --:--:-- --:--:-- --:--:-- 2181 % Total % Received % Xferd Average Speed Time Time Time Current Dload Upload Total Spent Left Speed 0 0 0 0 0 0 0 0 --:--:-- --:--:-- --:--:-- 0 100 432 100 432 0 0 1321 0 --:--:-- --:--:-- --:--:-- 1321 % Total % Received % Xferd Average Speed Time Time Time Current Dload Upload Total Spent Left Speed 0 0 0 0 0 0 0 0 --:--:-- --:--:-- --:--:-- 0 100 432 100 432 0 0 8816 0 --:--:-- --:--:-- --:--:-- 8816 % Total % Received % Xferd Average Speed Time Time Time Current Dload Upload Total Spent Left Speed 0 0 0 0 0 0 0 0 --:--:-- --:--:-- --:--:-- 0 100 432 100 432 0 0 9818 0 --:--:-- --:--:-- --:--:-- 9818 % Total % Received % Xferd Average Speed Time Time Time Current Dload Upload Total Spent Left Speed 0 0 0 0 0 0 0 0 --:--:-- --:--:-- --:--:-- 0 100 431 100 431 0 0 6841 0 --:--:-- --:--:-- --:--:-- 6841 tail: cannot open '/home/sinton/sjsu1f/mlbcalmindexk.csv' for reading: No such file or directory tail: cannot open '/home/sinton/sjsu1f/mlbavgwindindexk.csv' for reading: No such file or directory tail: cannot open '/home/sinton/sjsu1f/mlbcalmindexk.csv' for reading: No such file or directory tail: cannot open '/home/sinton/sjsu1f/mlbavgwindindexk.csv' for reading: No such file or directory tail: cannot open '/home/sinton/sjsu1f/mlbcalmindexk.csv' for reading: No such file or directory tail: cannot open '/home/sinton/sjsu1f/mlbavgwindindexk.csv' for reading: No such file or directory tail: cannot open '/home/sinton/sjsu1f/mlbcalmindexk.csv' for reading: No such file or directory tail: cannot open '/home/sinton/sjsu1f/mlbavgwindindexk.csv' for reading: No such file or directory tail: cannot open '/home/sinton/sjsu1f/mlbcalmindexk.csv' for reading: No such file or directory tail: cannot open '/home/sinton/sjsu1f/mlbavgwindindexk.csv' for reading: No such file or directory tail: cannot open '/home/sinton/sjsu1f/mlbcalmindexk.csv' for reading: No such file or directory tail: cannot open '/home/sinton/sjsu1f/mlbavgwindindexk.csv' for reading: No such file or directory tail: cannot open '/home/sinton/sjsu1f/mlbcalmindexk.csv' for reading: No such file or directory tail: cannot open '/home/sinton/sjsu1f/mlbavgwindindexk.csv' for reading: No such file or directory tail: cannot open '/home/sinton/sjsu1f/mlbcalmindexk.csv' for reading: No such file or directory tail: cannot open '/home/sinton/sjsu1f/mlbavgwindindexk.csv' for reading: No such file or directory tail: cannot open '/home/sinton/sjsu1f/mlbcalmindexk.csv' for reading: No such file or directory tail: cannot open '/home/sinton/sjsu1f/mlbavgwindindexk.csv' for reading: No such file or directory tail: cannot open '/home/sinton/sjsu1f/mlbcalmindexk.csv' for reading: No such file or directory tail: cannot open '/home/sinton/sjsu1f/mlbavgwindindexk.csv' for reading: No such file or directory tail: cannot open '/home/sinton/sjsu1f/mlbcalmindexk.csv' for reading: No such file or directory tail: cannot open '/home/sinton/sjsu1f/mlbavgwindindexk.csv' for reading: No such file or directory % Total % Received % Xferd Average Speed Time Time Time Current Dload Upload Total Spent Left Speed 0 0 0 0 0 0 0 0 --:--:-- --:--:-- --:--:-- 0 100 432 100 432 0 0 4363 0 --:--:-- --:--:-- --:--:-- 4363 % Total % Received % Xferd Average Speed Time Time Time Current Dload Upload Total Spent Left Speed 0 0 0 0 0 0 0 0 --:--:-- --:--:-- --:--:-- 0 100 432 100 432 0 0 4408 0 --:--:-- --:--:-- --:--:-- 4408 % Total % Received % Xferd Average Speed Time Time Time Current Dload Upload Total Spent Left Speed 0 0 0 0 0 0 0 0 --:--:-- --:--:-- --:--:-- 0 100 432 100 432 0 0 6447 0 --:--:-- --:--:-- --:--:-- 6447 % Total % Received % Xferd Average Speed Time Time Time Current Dload Upload Total Spent Left Speed 0 0 0 0 0 0 0 0 --:--:-- --:--:-- --:--:-- 0 100 432 100 432 0 0 6545 0 --:--:-- --:--:-- --:--:-- 6646 % Total % Received % Xferd Average Speed Time Time Time Current Dload Upload Total Spent Left Speed 0 0 0 0 0 0 0 0 --:--:-- --:--:-- --:--:-- 0 100 431 100 431 0 0 3240 0 --:--:-- --:--:-- --:--:-- 3240 tail: cannot open '/home/sinton/sjsu1f/mlbcalmindexk.csv' for reading: No such file or directory tail: cannot open '/home/sinton/sjsu1f/mlbavgwindindexk.csv' for reading: No such file or directory tail: cannot open '/home/sinton/sjsu1f/mlbcalmindexk.csv' for reading: No such file or directory tail: cannot open '/home/sinton/sjsu1f/mlbavgwindindexk.csv' for reading: No such file or directory tail: cannot open '/home/sinton/sjsu1f/mlbcalmindexk.csv' for reading: No such file or directory tail: cannot open '/home/sinton/sjsu1f/mlbavgwindindexk.csv' for reading: No such file or directory tail: cannot open '/home/sinton/sjsu1f/mlbcalmindexk.csv' for reading: No such file or directory tail: cannot open '/home/sinton/sjsu1f/mlbavgwindindexk.csv' for reading: No such file or directory tail: cannot open '/home/sinton/sjsu1f/mlbcalmindexk.csv' for reading: No such file or directory tail: cannot open '/home/sinton/sjsu1f/mlbavgwindindexk.csv' for reading: No such file or directory tail: cannot open '/home/sinton/sjsu1f/mlbcalmindexk.csv' for reading: No such file or directory tail: cannot open '/home/sinton/sjsu1f/mlbavgwindindexk.csv' for reading: No such file or directory tail: cannot open '/home/sinton/sjsu1f/mlbcalmindexk.csv' for reading: No such file or directory tail: cannot open '/home/sinton/sjsu1f/mlbavgwindindexk.csv' for reading: No such file or directory tail: cannot open '/home/sinton/sjsu1f/mlbcalmindexk.csv' for reading: No such file or directory tail: cannot open '/home/sinton/sjsu1f/mlbavgwindindexk.csv' for reading: No such file or directory tail: cannot open '/home/sinton/sjsu1f/mlbcalmindexk.csv' for reading: No such file or directory tail: cannot open '/home/sinton/sjsu1f/mlbavgwindindexk.csv' for reading: No such file or directory tail: cannot open '/home/sinton/sjsu1f/mlbcalmindexk.csv' for reading: No such file or directory tail: cannot open '/home/sinton/sjsu1f/mlbavgwindindexk.csv' for reading: No such file or directory tail: cannot open '/home/sinton/sjsu1f/mlbcalmindexk.csv' for reading: No such file or directory tail: cannot open '/home/sinton/sjsu1f/mlbavgwindindexk.csv' for reading: No such file or directory tail: cannot open '/home/sinton/sjsu1f/mlbcalmindexk.csv' for reading: No such file or directory tail: cannot open '/home/sinton/sjsu1f/mlbavgwindindexk.csv' for reading: No such file or directory tail: cannot open '/home/sinton/sjsu1f/mlbcalmindexk.csv' for reading: No such file or directory tail: cannot open '/home/sinton/sjsu1f/mlbavgwindindexk.csv' for reading: No such file or directory tail: cannot open '/home/sinton/sjsu1f/mlbcalmindexk.csv' for reading: No such file or directory tail: cannot open '/home/sinton/sjsu1f/mlbavgwindindexk.csv' for reading: No such file or directory tail: cannot open '/home/sinton/sjsu1f/mlbcalmindexk.csv' for reading: No such file or directory tail: cannot open '/home/sinton/sjsu1f/mlbavgwindindexk.csv' for reading: No such file or directory tail: cannot open '/home/sinton/sjsu1f/mlbcalmindexk.csv' for reading: No such file or directory tail: cannot open '/home/sinton/sjsu1f/mlbavgwindindexk.csv' for reading: No such file or directory % Total % Received % Xferd Average Speed Time Time Time Current Dload Upload Total Spent Left Speed 0 0 0 0 0 0 0 0 --:--:-- --:--:-- --:--:-- 0 100 429 100 429 0 0 4009 0 --:--:-- --:--:-- --:--:-- 4009 % Total % Received % Xferd Average Speed Time Time Time Current Dload Upload Total Spent Left Speed 0 0 0 0 0 0 0 0 --:--:-- --:--:-- --:--:-- 0 100 432 100 432 0 0 6447 0 --:--:-- --:--:-- --:--:-- 6447 % Total % Received % Xferd Average Speed Time Time Time Current Dload Upload Total Spent Left Speed 0 0 0 0 0 0 0 0 --:--:-- --:--:-- --:--:-- 0 100 431 100 431 0 0 3100 0 --:--:-- --:--:-- --:--:-- 3100 % Total % Received % Xferd Average Speed Time Time Time Current Dload Upload Total Spent Left Speed 0 0 0 0 0 0 0 0 --:--:-- --:--:-- --:--:-- 0 100 431 100 431 0 0 2198 0 --:--:-- --:--:-- --:--:-- 2210 % Total % Received % Xferd Average Speed Time Time Time Current Dload Upload Total Spent Left Speed 0 0 0 0 0 0 0 0 --:--:-- --:--:-- --:--:-- 0 100 430 100 430 0 0 2945 0 --:--:-- --:--:-- --:--:-- 2945 tail: cannot open '/home/sinton/sjsu1f/mlbcalmindexk.csv' for reading: No such file or directory tail: cannot open '/home/sinton/sjsu1f/mlbavgwindindexk.csv' for reading: No such file or directory tail: cannot open '/home/sinton/sjsu1f/mlbcalmindexk.csv' for reading: No such file or directory tail: cannot open '/home/sinton/sjsu1f/mlbavgwindindexk.csv' for reading: No such file or directory tail: cannot open '/home/sinton/sjsu1f/mlbcalmindexk.csv' for reading: No such file or directory tail: cannot open '/home/sinton/sjsu1f/mlbavgwindindexk.csv' for reading: No such file or directory mv: cannot stat '/home/sinton/public_html/John1f/oakstuck': No such file or directory tail: cannot open '/home/sinton/sjsu1f/mlbcalmindexk.csv' for reading: No such file or directory tail: cannot open '/home/sinton/sjsu1f/mlbavgwindindexk.csv' for reading: No such file or directory tail: cannot open '/home/sinton/sjsu1f/mlbcalmindexk.csv' for reading: No such file or directory tail: cannot open '/home/sinton/sjsu1f/mlbavgwindindexk.csv' for reading: No such file or directory tail: cannot open '/home/sinton/sjsu1f/mlbcalmindexk.csv' for reading: No such file or directory tail: cannot open '/home/sinton/sjsu1f/mlbavgwindindexk.csv' for reading: No such file or directory tail: cannot open '/home/sinton/sjsu1f/mlbcalmindexk.csv' for reading: No such file or directory tail: cannot open '/home/sinton/sjsu1f/mlbavgwindindexk.csv' for reading: No such file or directory tail: cannot open '/home/sinton/sjsu1f/mlbcalmindexk.csv' for reading: No such file or directory tail: cannot open '/home/sinton/sjsu1f/mlbavgwindindexk.csv' for reading: No such file or directory tail: cannot open '/home/sinton/sjsu1f/mlbcalmindexk.csv' for reading: No such file or directory tail: cannot open '/home/sinton/sjsu1f/mlbavgwindindexk.csv' for reading: No such file or directory tail: cannot open '/home/sinton/sjsu1f/mlbcalmindexk.csv' for reading: No such file or directory tail: cannot open '/home/sinton/sjsu1f/mlbavgwindindexk.csv' for reading: No such file or directory tail: cannot open '/home/sinton/sjsu1f/mlbcalmindexk.csv' for reading: No such file or directory tail: cannot open '/home/sinton/sjsu1f/mlbavgwindindexk.csv' for reading: No such file or directory tail: cannot open '/home/sinton/sjsu1f/mlbcalmindexk.csv' for reading: No such file or directory tail: cannot open '/home/sinton/sjsu1f/mlbavgwindindexk.csv' for reading: No such file or directory tail: cannot open '/home/sinton/sjsu1f/mlbcalmindexk.csv' for reading: No such file or directory tail: cannot open '/home/sinton/sjsu1f/mlbavgwindindexk.csv' for reading: No such file or directory % Total % Received % Xferd Average Speed Time Time Time Current Dload Upload Total Spent Left Speed 0 0 0 0 0 0 0 0 --:--:-- --:--:-- --:--:-- 0 100 432 100 432 0 0 3756 0 --:--:-- --:--:-- --:--:-- 3756 % Total % Received % Xferd Average Speed Time Time Time Current Dload Upload Total Spent Left Speed 0 0 0 0 0 0 0 0 --:--:-- --:--:-- --:--:-- 0 100 432 100 432 0 0 4747 0 --:--:-- --:--:-- --:--:-- 4747 % Total % Received % Xferd Average Speed Time Time Time Current Dload Upload Total Spent Left Speed 0 0 0 0 0 0 0 0 --:--:-- --:--:-- --:--:-- 0 100 429 100 429 0 0 5430 0 --:--:-- --:--:-- --:--:-- 5430 % Total % Received % Xferd Average Speed Time Time Time Current Dload Upload Total Spent Left Speed 0 0 0 0 0 0 0 0 --:--:-- --:--:-- --:--:-- 0 100 432 100 432 0 0 4277 0 --:--:-- --:--:-- --:--:-- 4235 100 432 100 432 0 0 4277 0 --:--:-- --:--:-- --:--:-- 4235 % Total % Received % Xferd Average Speed Time Time Time Current Dload Upload Total Spent Left Speed 0 0 0 0 0 0 0 0 --:--:-- --:--:-- --:--:-- 0 100 431 100 431 0 0 1555 0 --:--:-- --:--:-- --:--:-- 1555 tail: cannot open '/home/sinton/sjsu1f/mlbcalmindexk.csv' for reading: No such file or directory tail: cannot open '/home/sinton/sjsu1f/mlbavgwindindexk.csv' for reading: No such file or directory tail: cannot open '/home/sinton/sjsu1f/mlbcalmindexk.csv' for reading: No such file or directory tail: cannot open '/home/sinton/sjsu1f/mlbavgwindindexk.csv' for reading: No such file or directory tail: cannot open '/home/sinton/sjsu1f/mlbcalmindexk.csv' for reading: No such file or directory tail: cannot open '/home/sinton/sjsu1f/mlbavgwindindexk.csv' for reading: No such file or directory tail: cannot open '/home/sinton/sjsu1f/mlbcalmindexk.csv' for reading: No such file or directory tail: cannot open '/home/sinton/sjsu1f/mlbavgwindindexk.csv' for reading: No such file or directory tail: cannot open '/home/sinton/sjsu1f/mlbcalmindexk.csv' for reading: No such file or directory tail: cannot open '/home/sinton/sjsu1f/mlbavgwindindexk.csv' for reading: No such file or directory tail: cannot open '/home/sinton/sjsu1f/mlbcalmindexk.csv' for reading: No such file or directory tail: cannot open '/home/sinton/sjsu1f/mlbavgwindindexk.csv' for reading: No such file or directory tail: cannot open '/home/sinton/sjsu1f/mlbcalmindexk.csv' for reading: No such file or directory tail: cannot open '/home/sinton/sjsu1f/mlbavgwindindexk.csv' for reading: No such file or directory tail: cannot open '/home/sinton/sjsu1f/mlbcalmindexk.csv' for reading: No such file or directory tail: cannot open '/home/sinton/sjsu1f/mlbavgwindindexk.csv' for reading: No such file or directory tail: cannot open '/home/sinton/sjsu1f/mlbcalmindexk.csv' for reading: No such file or directory tail: cannot open '/home/sinton/sjsu1f/mlbavgwindindexk.csv' for reading: No such file or directory tail: cannot open '/home/sinton/sjsu1f/mlbcalmindexk.csv' for reading: No such file or directory tail: cannot open '/home/sinton/sjsu1f/mlbavgwindindexk.csv' for reading: No such file or directory tail: cannot open '/home/sinton/sjsu1f/mlbcalmindexk.csv' for reading: No such file or directory tail: cannot open '/home/sinton/sjsu1f/mlbavgwindindexk.csv' for reading: No such file or directory tail: cannot open '/home/sinton/sjsu1f/mlbcalmindexk.csv' for reading: No such file or directory tail: cannot open '/home/sinton/sjsu1f/mlbavgwindindexk.csv' for reading: No such file or directory tail: cannot open '/home/sinton/sjsu1f/mlbcalmindexk.csv' for reading: No such file or directory tail: cannot open '/home/sinton/sjsu1f/mlbavgwindindexk.csv' for reading: No such file or directory tail: cannot open '/home/sinton/sjsu1f/mlbcalmindexk.csv' for reading: No such file or directory tail: cannot open '/home/sinton/sjsu1f/mlbavgwindindexk.csv' for reading: No such file or directory % Total % Received % Xferd Average Speed Time Time Time Current Dload Upload Total Spent Left Speed 0 0 0 0 0 0 0 0 --:--:-- --:--:-- --:--:-- 0 100 432 100 432 0 0 3248 0 --:--:-- --:--:-- --:--:-- 3248 % Total % Received % Xferd Average Speed Time Time Time Current Dload Upload Total Spent Left Speed 0 0 0 0 0 0 0 0 --:--:-- --:--:-- --:--:-- 0 100 432 100 432 0 0 4075 0 --:--:-- --:--:-- --:--:-- 4037 100 432 100 432 0 0 4075 0 --:--:-- --:--:-- --:--:-- 4037 % Total % Received % Xferd Average Speed Time Time Time Current Dload Upload Total Spent Left Speed 0 0 0 0 0 0 0 0 --:--:-- --:--:-- --:--:-- 0 100 432 100 432 0 0 2979 0 --:--:-- --:--:-- --:--:-- 2979 % Total % Received % Xferd Average Speed Time Time Time Current Dload Upload Total Spent Left Speed 0 0 0 0 0 0 0 0 --:--:-- --:--:-- --:--:-- 0 100 432 100 432 0 0 3401 0 --:--:-- --:--:-- --:--:-- 3428 % Total % Received % Xferd Average Speed Time Time Time Current Dload Upload Total Spent Left Speed 0 0 0 0 0 0 0 0 --:--:-- --:--:-- --:--:-- 0 100 431 100 431 0 0 2952 0 --:--:-- --:--:-- --:--:-- 2952 tail: cannot open '/home/sinton/sjsu1f/mlbcalmindexk.csv' for reading: No such file or directory tail: cannot open '/home/sinton/sjsu1f/mlbavgwindindexk.csv' for reading: No such file or directory tail: cannot open '/home/sinton/sjsu1f/mlbcalmindexk.csv' for reading: No such file or directory tail: cannot open '/home/sinton/sjsu1f/mlbavgwindindexk.csv' for reading: No such file or directory tail: cannot open '/home/sinton/sjsu1f/mlbcalmindexk.csv' for reading: No such file or directory tail: cannot open '/home/sinton/sjsu1f/mlbavgwindindexk.csv' for reading: No such file or directory tail: cannot open '/home/sinton/sjsu1f/mlbcalmindexk.csv' for reading: No such file or directory tail: cannot open '/home/sinton/sjsu1f/mlbavgwindindexk.csv' for reading: No such file or directory tail: cannot open '/home/sinton/sjsu1f/mlbcalmindexk.csv' for reading: No such file or directory tail: cannot open '/home/sinton/sjsu1f/mlbavgwindindexk.csv' for reading: No such file or directory tail: cannot open '/home/sinton/sjsu1f/mlbcalmindexk.csv' for reading: No such file or directory tail: cannot open '/home/sinton/sjsu1f/mlbavgwindindexk.csv' for reading: No such file or directory tail: cannot open '/home/sinton/sjsu1f/mlbcalmindexk.csv' for reading: No such file or directory tail: cannot open '/home/sinton/sjsu1f/mlbavgwindindexk.csv' for reading: No such file or directory tail: cannot open '/home/sinton/sjsu1f/mlbcalmindexk.csv' for reading: No such file or directory tail: cannot open '/home/sinton/sjsu1f/mlbavgwindindexk.csv' for reading: No such file or directory tail: cannot open '/home/sinton/sjsu1f/mlbcalmindexk.csv' for reading: No such file or directory tail: cannot open '/home/sinton/sjsu1f/mlbavgwindindexk.csv' for reading: No such file or directory tail: cannot open '/home/sinton/sjsu1f/mlbcalmindexk.csv' for reading: No such file or directory tail: cannot open '/home/sinton/sjsu1f/mlbavgwindindexk.csv' for reading: No such file or directory tail: cannot open '/home/sinton/sjsu1f/mlbcalmindexk.csv' for reading: No such file or directory tail: cannot open '/home/sinton/sjsu1f/mlbavgwindindexk.csv' for reading: No such file or directory tail: cannot open '/home/sinton/sjsu1f/mlbcalmindexk.csv' for reading: No such file or directory tail: cannot open '/home/sinton/sjsu1f/mlbavgwindindexk.csv' for reading: No such file or directory tail: cannot open '/home/sinton/sjsu1f/mlbcalmindexk.csv' for reading: No such file or directory tail: cannot open '/home/sinton/sjsu1f/mlbavgwindindexk.csv' for reading: No such file or directory tail: cannot open '/home/sinton/sjsu1f/mlbcalmindexk.csv' for reading: No such file or directory tail: cannot open '/home/sinton/sjsu1f/mlbavgwindindexk.csv' for reading: No such file or directory % Total % Received % Xferd Average Speed Time Time Time Current Dload Upload Total Spent Left Speed 0 0 0 0 0 0 0 0 --:--:-- --:--:-- --:--:-- 0 100 431 100 431 0 0 1602 0 --:--:-- --:--:-- --:--:-- 1602 % Total % Received % Xferd Average Speed Time Time Time Current Dload Upload Total Spent Left Speed 0 0 0 0 0 0 0 0 --:--:-- --:--:-- --:--:-- 0 100 429 100 429 0 0 8755 0 --:--:-- --:--:-- --:--:-- 8755 % Total % Received % Xferd Average Speed Time Time Time Current Dload Upload Total Spent Left Speed 0 0 0 0 0 0 0 0 --:--:-- --:--:-- --:--:-- 0 100 431 100 431 0 0 3100 0 --:--:-- --:--:-- --:--:-- 3100 % Total % Received % Xferd Average Speed Time Time Time Current Dload Upload Total Spent Left Speed 0 0 0 0 0 0 0 0 --:--:-- --:--:-- --:--:-- 0 100 431 100 431 0 0 3265 0 --:--:-- --:--:-- --:--:-- 3265 % Total % Received % Xferd Average Speed Time Time Time Current Dload Upload Total Spent Left Speed 0 0 0 0 0 0 0 0 --:--:-- --:--:-- --:--:-- 0 100 430 100 430 0 0 4095 0 --:--:-- --:--:-- --:--:-- 4095 tail: cannot open '/home/sinton/sjsu1f/mlbcalmindexk.csv' for reading: No such file or directory tail: cannot open '/home/sinton/sjsu1f/mlbavgwindindexk.csv' for reading: No such file or directory tail: cannot open '/home/sinton/sjsu1f/mlbcalmindexk.csv' for reading: No such file or directory tail: cannot open '/home/sinton/sjsu1f/mlbavgwindindexk.csv' for reading: No such file or directory tail: cannot open '/home/sinton/sjsu1f/mlbcalmindexk.csv' for reading: No such file or directory tail: cannot open '/home/sinton/sjsu1f/mlbavgwindindexk.csv' for reading: No such file or directory tail: cannot open '/home/sinton/sjsu1f/mlbcalmindexk.csv' for reading: No such file or directory tail: cannot open '/home/sinton/sjsu1f/mlbavgwindindexk.csv' for reading: No such file or directory tail: cannot open '/home/sinton/sjsu1f/mlbcalmindexk.csv' for reading: No such file or directory tail: cannot open '/home/sinton/sjsu1f/mlbavgwindindexk.csv' for reading: No such file or directory tail: cannot open '/home/sinton/sjsu1f/mlbcalmindexk.csv' for reading: No such file or directory tail: cannot open '/home/sinton/sjsu1f/mlbavgwindindexk.csv' for reading: No such file or directory tail: cannot open '/home/sinton/sjsu1f/mlbcalmindexk.csv' for reading: No such file or directory tail: cannot open '/home/sinton/sjsu1f/mlbavgwindindexk.csv' for reading: No such file or directory tail: cannot open '/home/sinton/sjsu1f/mlbcalmindexk.csv' for reading: No such file or directory tail: cannot open '/home/sinton/sjsu1f/mlbavgwindindexk.csv' for reading: No such file or directory tail: cannot open '/home/sinton/sjsu1f/mlbcalmindexk.csv' for reading: No such file or directory tail: cannot open '/home/sinton/sjsu1f/mlbavgwindindexk.csv' for reading: No such file or directory tail: cannot open '/home/sinton/sjsu1f/mlbcalmindexk.csv' for reading: No such file or directory tail: cannot open '/home/sinton/sjsu1f/mlbavgwindindexk.csv' for reading: No such file or directory tail: cannot open '/home/sinton/sjsu1f/mlbcalmindexk.csv' for reading: No such file or directory tail: cannot open '/home/sinton/sjsu1f/mlbavgwindindexk.csv' for reading: No such file or directory tail: cannot open '/home/sinton/sjsu1f/mlbcalmindexk.csv' for reading: No such file or directory tail: cannot open '/home/sinton/sjsu1f/mlbavgwindindexk.csv' for reading: No such file or directory tail: cannot open '/home/sinton/sjsu1f/mlbcalmindexk.csv' for reading: No such file or directory tail: cannot open '/home/sinton/sjsu1f/mlbavgwindindexk.csv' for reading: No such file or directory % Total % Received % Xferd Average Speed Time Time Time Current Dload Upload Total Spent Left Speed 0 0 0 0 0 0 0 0 --:--:-- --:--:-- --:--:-- 0 100 430 100 430 0 0 5375 0 --:--:-- --:--:-- --:--:-- 5375 % Total % Received % Xferd Average Speed Time Time Time Current Dload Upload Total Spent Left Speed 0 0 0 0 0 0 0 0 --:--:-- --:--:-- --:--:-- 0 100 429 100 429 0 0 2767 0 --:--:-- --:--:-- --:--:-- 2767 % Total % Received % Xferd Average Speed Time Time Time Current Dload Upload Total Spent Left Speed 0 0 0 0 0 0 0 0 --:--:-- --:--:-- --:--:-- 0 100 431 100 431 0 0 7561 0 --:--:-- --:--:-- --:--:-- 7561 % Total % Received % Xferd Average Speed Time Time Time Current Dload Upload Total Spent Left Speed 0 0 0 0 0 0 0 0 --:--:-- --:--:-- --:--:-- 0 100 432 100 432 0 0 8470 0 --:--:-- --:--:-- --:--:-- 8470 % Total % Received % Xferd Average Speed Time Time Time Current Dload Upload Total Spent Left Speed 0 0 0 0 0 0 0 0 --:--:-- --:--:-- --:--:-- 0 100 431 100 431 0 0 4104 0 --:--:-- --:--:-- --:--:-- 4104 tail: cannot open '/home/sinton/sjsu1f/mlbcalmindexk.csv' for reading: No such file or directory tail: cannot open '/home/sinton/sjsu1f/mlbavgwindindexk.csv' for reading: No such file or directory tail: cannot open '/home/sinton/sjsu1f/mlbcalmindexk.csv' for reading: No such file or directory tail: cannot open '/home/sinton/sjsu1f/mlbavgwindindexk.csv' for reading: No such file or directory tail: cannot open '/home/sinton/sjsu1f/mlbcalmindexk.csv' for reading: No such file or directory tail: cannot open '/home/sinton/sjsu1f/mlbavgwindindexk.csv' for reading: No such file or directory tail: cannot open '/home/sinton/sjsu1f/mlbcalmindexk.csv' for reading: No such file or directory tail: cannot open '/home/sinton/sjsu1f/mlbavgwindindexk.csv' for reading: No such file or directory tail: cannot open '/home/sinton/sjsu1f/mlbcalmindexk.csv' for reading: No such file or directory tail: cannot open '/home/sinton/sjsu1f/mlbavgwindindexk.csv' for reading: No such file or directory tail: cannot open '/home/sinton/sjsu1f/mlbcalmindexk.csv' for reading: No such file or directory tail: cannot open '/home/sinton/sjsu1f/mlbavgwindindexk.csv' for reading: No such file or directory tail: cannot open '/home/sinton/sjsu1f/mlbcalmindexk.csv' for reading: No such file or directory tail: cannot open '/home/sinton/sjsu1f/mlbavgwindindexk.csv' for reading: No such file or directory tail: cannot open '/home/sinton/sjsu1f/mlbcalmindexk.csv' for reading: No such file or directory tail: cannot open '/home/sinton/sjsu1f/mlbavgwindindexk.csv' for reading: No such file or directory tail: cannot open '/home/sinton/sjsu1f/mlbcalmindexk.csv' for reading: No such file or directory tail: cannot open '/home/sinton/sjsu1f/mlbavgwindindexk.csv' for reading: No such file or directory tail: cannot open '/home/sinton/sjsu1f/mlbcalmindexk.csv' for reading: No such file or directory tail: cannot open '/home/sinton/sjsu1f/mlbavgwindindexk.csv' for reading: No such file or directory tail: cannot open '/home/sinton/sjsu1f/mlbcalmindexk.csv' for reading: No such file or directory tail: cannot open '/home/sinton/sjsu1f/mlbavgwindindexk.csv' for reading: No such file or directory % Total % Received % Xferd Average Speed Time Time Time Current Dload Upload Total Spent Left Speed 0 0 0 0 0 0 0 0 --:--:-- --:--:-- --:--:-- 0 100 430 100 430 0 0 2866 0 --:--:-- --:--:-- --:--:-- 2866 % Total % Received % Xferd Average Speed Time Time Time Current Dload Upload Total Spent Left Speed 0 0 0 0 0 0 0 0 --:--:-- --:--:-- --:--:-- 0 0 0 0 0 0 0 0 0 --:--:-- --:--:-- --:--:-- 0 100 429 100 429 0 0 2042 0 --:--:-- --:--:-- --:--:-- 2033 % Total % Received % Xferd Average Speed Time Time Time Current Dload Upload Total Spent Left Speed 0 0 0 0 0 0 0 0 --:--:-- --:--:-- --:--:-- 0 100 431 100 431 0 0 1924 0 --:--:-- --:--:-- --:--:-- 1924 % Total % Received % Xferd Average Speed Time Time Time Current Dload Upload Total Spent Left Speed 0 0 0 0 0 0 0 0 --:--:-- --:--:-- --:--:-- 0 100 432 100 432 0 0 3600 0 --:--:-- --:--:-- --:--:-- 3600 % Total % Received % Xferd Average Speed Time Time Time Current Dload Upload Total Spent Left Speed 0 0 0 0 0 0 0 0 --:--:-- --:--:-- --:--:-- 0 100 431 100 431 0 0 6432 0 --:--:-- --:--:-- --:--:-- 6432 tail: cannot open '/home/sinton/sjsu1f/mlbcalmindexk.csv' for reading: No such file or directory tail: cannot open '/home/sinton/sjsu1f/mlbavgwindindexk.csv' for reading: No such file or directory tail: cannot open '/home/sinton/sjsu1f/mlbcalmindexk.csv' for reading: No such file or directory tail: cannot open '/home/sinton/sjsu1f/mlbavgwindindexk.csv' for reading: No such file or directory mv: cannot stat '/home/sinton/public_html/John1f/oakstuck': No such file or directory tail: cannot open '/home/sinton/sjsu1f/mlbcalmindexk.csv' for reading: No such file or directory tail: cannot open '/home/sinton/sjsu1f/mlbavgwindindexk.csv' for reading: No such file or directory tail: cannot open '/home/sinton/sjsu1f/mlbcalmindexk.csv' for reading: No such file or directory tail: cannot open '/home/sinton/sjsu1f/mlbavgwindindexk.csv' for reading: No such file or directory tail: cannot open '/home/sinton/sjsu1f/mlbcalmindexk.csv' for reading: No such file or directory tail: cannot open '/home/sinton/sjsu1f/mlbavgwindindexk.csv' for reading: No such file or directory tail: cannot open '/home/sinton/sjsu1f/mlbcalmindexk.csv' for reading: No such file or directory tail: cannot open '/home/sinton/sjsu1f/mlbavgwindindexk.csv' for reading: No such file or directory tail: cannot open '/home/sinton/sjsu1f/mlbcalmindexk.csv' for reading: No such file or directory tail: cannot open '/home/sinton/sjsu1f/mlbavgwindindexk.csv' for reading: No such file or directory tail: cannot open '/home/sinton/sjsu1f/mlbcalmindexk.csv' for reading: No such file or directory tail: cannot open '/home/sinton/sjsu1f/mlbavgwindindexk.csv' for reading: No such file or directory tail: cannot open '/home/sinton/sjsu1f/mlbcalmindexk.csv' for reading: No such file or directory tail: cannot open '/home/sinton/sjsu1f/mlbavgwindindexk.csv' for reading: No such file or directory tail: cannot open '/home/sinton/sjsu1f/mlbcalmindexk.csv' for reading: No such file or directory tail: cannot open '/home/sinton/sjsu1f/mlbavgwindindexk.csv' for reading: No such file or directory tail: cannot open '/home/sinton/sjsu1f/mlbcalmindexk.csv' for reading: No such file or directory tail: cannot open '/home/sinton/sjsu1f/mlbavgwindindexk.csv' for reading: No such file or directory tail: cannot open '/home/sinton/sjsu1f/mlbcalmindexk.csv' for reading: No such file or directory tail: cannot open '/home/sinton/sjsu1f/mlbavgwindindexk.csv' for reading: No such file or directory tail: cannot open '/home/sinton/sjsu1f/mlbcalmindexk.csv' for reading: No such file or directory tail: cannot open '/home/sinton/sjsu1f/mlbavgwindindexk.csv' for reading: No such file or directory tail: cannot open '/home/sinton/sjsu1f/mlbcalmindexk.csv' for reading: No such file or directory tail: cannot open '/home/sinton/sjsu1f/mlbavgwindindexk.csv' for reading: No such file or directory tail: cannot open '/home/sinton/sjsu1f/mlbcalmindexk.csv' for reading: No such file or directory tail: cannot open '/home/sinton/sjsu1f/mlbavgwindindexk.csv' for reading: No such file or directory tail: cannot open '/home/sinton/sjsu1f/mlbcalmindexk.csv' for reading: No such file or directory tail: cannot open '/home/sinton/sjsu1f/mlbavgwindindexk.csv' for reading: No such file or directory % Total % Received % Xferd Average Speed Time Time Time Current Dload Upload Total Spent Left Speed 0 0 0 0 0 0 0 0 --:--:-- --:--:-- --:--:-- 0 100 432 100 432 0 0 3085 0 --:--:-- --:--:-- --:--:-- 3085 % Total % Received % Xferd Average Speed Time Time Time Current Dload Upload Total Spent Left Speed 0 0 0 0 0 0 0 0 --:--:-- --:--:-- --:--:-- 0 100 429 100 429 0 0 7660 0 --:--:-- --:--:-- --:--:-- 7660 % Total % Received % Xferd Average Speed Time Time Time Current Dload Upload Total Spent Left Speed 0 0 0 0 0 0 0 0 --:--:-- --:--:-- --:--:-- 0 0 0 0 0 0 0 0 0 --:--:-- --:--:-- --:--:-- 0 100 432 100 432 0 0 1393 0 --:--:-- --:--:-- --:--:-- 1389 % Total % Received % Xferd Average Speed Time Time Time Current Dload Upload Total Spent Left Speed 0 0 0 0 0 0 0 0 --:--:-- --:--:-- --:--:-- 0 100 432 100 432 0 0 4453 0 --:--:-- --:--:-- --:--:-- 4453 % Total % Received % Xferd Average Speed Time Time Time Current Dload Upload Total Spent Left Speed 0 0 0 0 0 0 0 0 --:--:-- --:--:-- --:--:-- 0 100 431 100 431 0 0 4954 0 --:--:-- --:--:-- --:--:-- 4954 tail: cannot open '/home/sinton/sjsu1f/mlbcalmindexk.csv' for reading: No such file or directory tail: cannot open '/home/sinton/sjsu1f/mlbavgwindindexk.csv' for reading: No such file or directory tail: cannot open '/home/sinton/sjsu1f/mlbcalmindexk.csv' for reading: No such file or directory tail: cannot open '/home/sinton/sjsu1f/mlbavgwindindexk.csv' for reading: No such file or directory tail: cannot open '/home/sinton/sjsu1f/mlbcalmindexk.csv' for reading: No such file or directory tail: cannot open '/home/sinton/sjsu1f/mlbavgwindindexk.csv' for reading: No such file or directory tail: cannot open '/home/sinton/sjsu1f/mlbcalmindexk.csv' for reading: No such file or directory tail: cannot open '/home/sinton/sjsu1f/mlbavgwindindexk.csv' for reading: No such file or directory tail: cannot open '/home/sinton/sjsu1f/mlbcalmindexk.csv' for reading: No such file or directory tail: cannot open '/home/sinton/sjsu1f/mlbavgwindindexk.csv' for reading: No such file or directory tail: cannot open '/home/sinton/sjsu1f/mlbcalmindexk.csv' for reading: No such file or directory tail: cannot open '/home/sinton/sjsu1f/mlbavgwindindexk.csv' for reading: No such file or directory tail: cannot open '/home/sinton/sjsu1f/mlbcalmindexk.csv' for reading: No such file or directory tail: cannot open '/home/sinton/sjsu1f/mlbavgwindindexk.csv' for reading: No such file or directory tail: cannot open '/home/sinton/sjsu1f/mlbcalmindexk.csv' for reading: No such file or directory tail: cannot open '/home/sinton/sjsu1f/mlbavgwindindexk.csv' for reading: No such file or directory tail: cannot open '/home/sinton/sjsu1f/mlbcalmindexk.csv' for reading: No such file or directory tail: cannot open '/home/sinton/sjsu1f/mlbavgwindindexk.csv' for reading: No such file or directory tail: cannot open '/home/sinton/sjsu1f/mlbcalmindexk.csv' for reading: No such file or directory tail: cannot open '/home/sinton/sjsu1f/mlbavgwindindexk.csv' for reading: No such file or directory tail: cannot open '/home/sinton/sjsu1f/mlbcalmindexk.csv' for reading: No such file or directory tail: cannot open '/home/sinton/sjsu1f/mlbavgwindindexk.csv' for reading: No such file or directory tail: cannot open '/home/sinton/sjsu1f/mlbcalmindexk.csv' for reading: No such file or directory tail: cannot open '/home/sinton/sjsu1f/mlbavgwindindexk.csv' for reading: No such file or directory tail: cannot open '/home/sinton/sjsu1f/mlbcalmindexk.csv' for reading: No such file or directory tail: cannot open '/home/sinton/sjsu1f/mlbavgwindindexk.csv' for reading: No such file or directory tail: cannot open '/home/sinton/sjsu1f/mlbcalmindexk.csv' for reading: No such file or directory tail: cannot open '/home/sinton/sjsu1f/mlbavgwindindexk.csv' for reading: No such file or directory % Total % Received % Xferd Average Speed Time Time Time Current Dload Upload Total Spent Left Speed 0 0 0 0 0 0 0 0 --:--:-- --:--:-- --:--:-- 0 100 428 100 428 0 0 6388 0 --:--:-- --:--:-- --:--:-- 6388 % Total % Received % Xferd Average Speed Time Time Time Current Dload Upload Total Spent Left Speed 0 0 0 0 0 0 0 0 --:--:-- --:--:-- --:--:-- 0 100 428 100 428 0 0 5095 0 --:--:-- --:--:-- --:--:-- 5095 % Total % Received % Xferd Average Speed Time Time Time Current Dload Upload Total Spent Left Speed 0 0 0 0 0 0 0 0 --:--:-- --:--:-- --:--:-- 0 100 432 100 432 0 0 4547 0 --:--:-- --:--:-- --:--:-- 4547 % Total % Received % Xferd Average Speed Time Time Time Current Dload Upload Total Spent Left Speed 0 0 0 0 0 0 0 0 --:--:-- --:--:-- --:--:-- 0 100 432 100 432 0 0 3630 0 --:--:-- --:--:-- --:--:-- 3661 % Total % Received % Xferd Average Speed Time Time Time Current Dload Upload Total Spent Left Speed 0 0 0 0 0 0 0 0 --:--:-- --:--:-- --:--:-- 0 100 431 100 431 0 0 4585 0 --:--:-- --:--:-- --:--:-- 4585 tail: cannot open '/home/sinton/sjsu1f/mlbcalmindexk.csv' for reading: No such file or directory tail: cannot open '/home/sinton/sjsu1f/mlbavgwindindexk.csv' for reading: No such file or directory tail: cannot open '/home/sinton/sjsu1f/mlbcalmindexk.csv' for reading: No such file or directory tail: cannot open '/home/sinton/sjsu1f/mlbavgwindindexk.csv' for reading: No such file or directory tail: cannot open '/home/sinton/sjsu1f/mlbcalmindexk.csv' for reading: No such file or directory tail: cannot open '/home/sinton/sjsu1f/mlbavgwindindexk.csv' for reading: No such file or directory tail: cannot open '/home/sinton/sjsu1f/mlbcalmindexk.csv' for reading: No such file or directory tail: cannot open '/home/sinton/sjsu1f/mlbavgwindindexk.csv' for reading: No such file or directory tail: cannot open '/home/sinton/sjsu1f/mlbcalmindexk.csv' for reading: No such file or directory tail: cannot open '/home/sinton/sjsu1f/mlbavgwindindexk.csv' for reading: No such file or directory tail: cannot open '/home/sinton/sjsu1f/mlbcalmindexk.csv' for reading: No such file or directory tail: cannot open '/home/sinton/sjsu1f/mlbavgwindindexk.csv' for reading: No such file or directory tail: cannot open '/home/sinton/sjsu1f/mlbcalmindexk.csv' for reading: No such file or directory tail: cannot open '/home/sinton/sjsu1f/mlbavgwindindexk.csv' for reading: No such file or directory tail: cannot open '/home/sinton/sjsu1f/mlbcalmindexk.csv' for reading: No such file or directory tail: cannot open '/home/sinton/sjsu1f/mlbavgwindindexk.csv' for reading: No such file or directory tail: cannot open '/home/sinton/sjsu1f/mlbcalmindexk.csv' for reading: No such file or directory tail: cannot open '/home/sinton/sjsu1f/mlbavgwindindexk.csv' for reading: No such file or directory tail: cannot open '/home/sinton/sjsu1f/mlbcalmindexk.csv' for reading: No such file or directory tail: cannot open '/home/sinton/sjsu1f/mlbavgwindindexk.csv' for reading: No such file or directory tail: cannot open '/home/sinton/sjsu1f/mlbcalmindexk.csv' for reading: No such file or directory tail: cannot open '/home/sinton/sjsu1f/mlbavgwindindexk.csv' for reading: No such file or directory tail: cannot open '/home/sinton/sjsu1f/mlbcalmindexk.csv' for reading: No such file or directory tail: cannot open '/home/sinton/sjsu1f/mlbavgwindindexk.csv' for reading: No such file or directory tail: cannot open '/home/sinton/sjsu1f/mlbcalmindexk.csv' for reading: No such file or directory tail: cannot open '/home/sinton/sjsu1f/mlbavgwindindexk.csv' for reading: No such file or directory tail: cannot open '/home/sinton/sjsu1f/mlbcalmindexk.csv' for reading: No such file or directory tail: cannot open '/home/sinton/sjsu1f/mlbavgwindindexk.csv' for reading: No such file or directory % Total % Received % Xferd Average Speed Time Time Time Current Dload Upload Total Spent Left Speed 0 0 0 0 0 0 0 0 --:--:-- --:--:-- --:--:-- 0 100 429 100 429 0 0 3300 0 --:--:-- --:--:-- --:--:-- 3274 100 429 100 429 0 0 3274 0 --:--:-- --:--:-- --:--:-- 3250 % Total % Received % Xferd Average Speed Time Time Time Current Dload Upload Total Spent Left Speed 0 0 0 0 0 0 0 0 --:--:-- --:--:-- --:--:-- 0 100 431 100 431 0 0 2505 0 --:--:-- --:--:-- --:--:-- 2505 % Total % Received % Xferd Average Speed Time Time Time Current Dload Upload Total Spent Left Speed 0 0 0 0 0 0 0 0 --:--:-- --:--:-- --:--:-- 0 100 431 100 431 0 0 8979 0 --:--:-- --:--:-- --:--:-- 8979 % Total % Received % Xferd Average Speed Time Time Time Current Dload Upload Total Spent Left Speed 0 0 0 0 0 0 0 0 --:--:-- --:--:-- --:--:-- 0 100 432 100 432 0 0 10536 0 --:--:-- --:--:-- --:--:-- 10536 % Total % Received % Xferd Average Speed Time Time Time Current Dload Upload Total Spent Left Speed 0 0 0 0 0 0 0 0 --:--:-- --:--:-- --:--:-- 0 100 431 100 431 0 0 2187 0 --:--:-- --:--:-- --:--:-- 2187 tail: cannot open '/home/sinton/sjsu1f/mlbcalmindexk.csv' for reading: No such file or directory tail: cannot open '/home/sinton/sjsu1f/mlbavgwindindexk.csv' for reading: No such file or directory tail: cannot open '/home/sinton/sjsu1f/mlbcalmindexk.csv' for reading: No such file or directory tail: cannot open '/home/sinton/sjsu1f/mlbavgwindindexk.csv' for reading: No such file or directory tail: cannot open '/home/sinton/sjsu1f/mlbcalmindexk.csv' for reading: No such file or directory tail: cannot open '/home/sinton/sjsu1f/mlbavgwindindexk.csv' for reading: No such file or directory tail: cannot open '/home/sinton/sjsu1f/mlbcalmindexk.csv' for reading: No such file or directory tail: cannot open '/home/sinton/sjsu1f/mlbavgwindindexk.csv' for reading: No such file or directory mv: cannot stat '/home/sinton/public_html/John1f/oakstuck': No such file or directory tail: cannot open '/home/sinton/sjsu1f/mlbcalmindexk.csv' for reading: No such file or directory tail: cannot open '/home/sinton/sjsu1f/mlbavgwindindexk.csv' for reading: No such file or directory tail: cannot open '/home/sinton/sjsu1f/mlbcalmindexk.csv' for reading: No such file or directory tail: cannot open '/home/sinton/sjsu1f/mlbavgwindindexk.csv' for reading: No such file or directory tail: cannot open '/home/sinton/sjsu1f/mlbcalmindexk.csv' for reading: No such file or directory tail: cannot open '/home/sinton/sjsu1f/mlbavgwindindexk.csv' for reading: No such file or directory tail: cannot open '/home/sinton/sjsu1f/mlbcalmindexk.csv' for reading: No such file or directory tail: cannot open '/home/sinton/sjsu1f/mlbavgwindindexk.csv' for reading: No such file or directory tail: cannot open '/home/sinton/sjsu1f/mlbcalmindexk.csv' for reading: No such file or directory tail: cannot open '/home/sinton/sjsu1f/mlbavgwindindexk.csv' for reading: No such file or directory tail: cannot open '/home/sinton/sjsu1f/mlbcalmindexk.csv' for reading: No such file or directory tail: cannot open '/home/sinton/sjsu1f/mlbavgwindindexk.csv' for reading: No such file or directory tail: cannot open '/home/sinton/sjsu1f/mlbcalmindexk.csv' for reading: No such file or directory tail: cannot open '/home/sinton/sjsu1f/mlbavgwindindexk.csv' for reading: No such file or directory tail: cannot open '/home/sinton/sjsu1f/mlbcalmindexk.csv' for reading: No such file or directory tail: cannot open '/home/sinton/sjsu1f/mlbavgwindindexk.csv' for reading: No such file or directory % Total % Received % Xferd Average Speed Time Time Time Current Dload Upload Total Spent Left Speed 0 0 0 0 0 0 0 0 --:--:-- --:--:-- --:--:-- 0 0 0 0 0 0 0 0 0 --:--:-- --:--:-- --:--:-- 0 100 432 100 432 0 0 2497 0 --:--:-- --:--:-- --:--:-- 2482 % Total % Received % Xferd Average Speed Time Time Time Current Dload Upload Total Spent Left Speed 0 0 0 0 0 0 0 0 --:--:-- --:--:-- --:--:-- 0 100 432 100 432 0 0 3323 0 --:--:-- --:--:-- --:--:-- 3323 % Total % Received % Xferd Average Speed Time Time Time Current Dload Upload Total Spent Left Speed 0 0 0 0 0 0 0 0 --:--:-- --:--:-- --:--:-- 0 100 431 100 431 0 0 7836 0 --:--:-- --:--:-- --:--:-- 7981 % Total % Received % Xferd Average Speed Time Time Time Current Dload Upload Total Spent Left Speed 0 0 0 0 0 0 0 0 --:--:-- --:--:-- --:--:-- 0 100 430 100 430 0 0 3385 0 --:--:-- --:--:-- --:--:-- 3385 % Total % Received % Xferd Average Speed Time Time Time Current Dload Upload Total Spent Left Speed 0 0 0 0 0 0 0 0 --:--:-- --:--:-- --:--:-- 0 100 429 100 429 0 0 1833 0 --:--:-- --:--:-- --:--:-- 1833 tail: cannot open '/home/sinton/sjsu1f/mlbcalmindexk.csv' for reading: No such file or directory tail: cannot open '/home/sinton/sjsu1f/mlbavgwindindexk.csv' for reading: No such file or directory tail: cannot open '/home/sinton/sjsu1f/mlbcalmindexk.csv' for reading: No such file or directory tail: cannot open '/home/sinton/sjsu1f/mlbavgwindindexk.csv' for reading: No such file or directory tail: cannot open '/home/sinton/sjsu1f/mlbcalmindexk.csv' for reading: No such file or directory tail: cannot open '/home/sinton/sjsu1f/mlbavgwindindexk.csv' for reading: No such file or directory tail: cannot open '/home/sinton/sjsu1f/mlbcalmindexk.csv' for reading: No such file or directory tail: cannot open '/home/sinton/sjsu1f/mlbavgwindindexk.csv' for reading: No such file or directory tail: cannot open '/home/sinton/sjsu1f/mlbcalmindexk.csv' for reading: No such file or directory tail: cannot open '/home/sinton/sjsu1f/mlbavgwindindexk.csv' for reading: No such file or directory tail: cannot open '/home/sinton/sjsu1f/mlbcalmindexk.csv' for reading: No such file or directory tail: cannot open '/home/sinton/sjsu1f/mlbavgwindindexk.csv' for reading: No such file or directory tail: cannot open '/home/sinton/sjsu1f/mlbcalmindexk.csv' for reading: No such file or directory tail: cannot open '/home/sinton/sjsu1f/mlbavgwindindexk.csv' for reading: No such file or directory tail: cannot open '/home/sinton/sjsu1f/mlbcalmindexk.csv' for reading: No such file or directory tail: cannot open '/home/sinton/sjsu1f/mlbavgwindindexk.csv' for reading: No such file or directory tail: cannot open '/home/sinton/sjsu1f/mlbcalmindexk.csv' for reading: No such file or directory tail: cannot open '/home/sinton/sjsu1f/mlbavgwindindexk.csv' for reading: No such file or directory tail: cannot open '/home/sinton/sjsu1f/mlbcalmindexk.csv' for reading: No such file or directory tail: cannot open '/home/sinton/sjsu1f/mlbavgwindindexk.csv' for reading: No such file or directory tail: cannot open '/home/sinton/sjsu1f/mlbcalmindexk.csv' for reading: No such file or directory tail: cannot open '/home/sinton/sjsu1f/mlbavgwindindexk.csv' for reading: No such file or directory tail: cannot open '/home/sinton/sjsu1f/mlbcalmindexk.csv' for reading: No such file or directory tail: cannot open '/home/sinton/sjsu1f/mlbavgwindindexk.csv' for reading: No such file or directory tail: cannot open '/home/sinton/sjsu1f/mlbcalmindexk.csv' for reading: No such file or directory tail: cannot open '/home/sinton/sjsu1f/mlbavgwindindexk.csv' for reading: No such file or directory tail: cannot open '/home/sinton/sjsu1f/mlbcalmindexk.csv' for reading: No such file or directory tail: cannot open '/home/sinton/sjsu1f/mlbavgwindindexk.csv' for reading: No such file or directory % Total % Received % Xferd Average Speed Time Time Time Current Dload Upload Total Spent Left Speed 0 0 0 0 0 0 0 0 --:--:-- --:--:-- --:--:-- 0 100 432 100 432 0 0 1748 0 --:--:-- --:--:-- --:--:-- 1748 % Total % Received % Xferd Average Speed Time Time Time Current Dload Upload Total Spent Left Speed 0 0 0 0 0 0 0 0 --:--:-- --:--:-- --:--:-- 0 100 432 100 432 0 0 5538 0 --:--:-- --:--:-- --:--:-- 5538 % Total % Received % Xferd Average Speed Time Time Time Current Dload Upload Total Spent Left Speed 0 0 0 0 0 0 0 0 --:--:-- --:--:-- --:--:-- 0 100 432 100 432 0 0 2787 0 --:--:-- --:--:-- --:--:-- 2769 100 432 100 432 0 0 2787 0 --:--:-- --:--:-- --:--:-- 2769 % Total % Received % Xferd Average Speed Time Time Time Current Dload Upload Total Spent Left Speed 0 0 0 0 0 0 0 0 --:--:-- --:--:-- --:--:-- 0 100 432 100 432 0 0 1928 0 --:--:-- --:--:-- --:--:-- 1928 % Total % Received % Xferd Average Speed Time Time Time Current Dload Upload Total Spent Left Speed 0 0 0 0 0 0 0 0 --:--:-- --:--:-- --:--:-- 0 100 431 100 431 0 0 2628 0 --:--:-- --:--:-- --:--:-- 2628 tail: cannot open '/home/sinton/sjsu1f/mlbcalmindexk.csv' for reading: No such file or directory tail: cannot open '/home/sinton/sjsu1f/mlbavgwindindexk.csv' for reading: No such file or directory tail: cannot open '/home/sinton/sjsu1f/mlbcalmindexk.csv' for reading: No such file or directory tail: cannot open '/home/sinton/sjsu1f/mlbavgwindindexk.csv' for reading: No such file or directory tail: cannot open '/home/sinton/sjsu1f/mlbcalmindexk.csv' for reading: No such file or directory tail: cannot open '/home/sinton/sjsu1f/mlbavgwindindexk.csv' for reading: No such file or directory tail: cannot open '/home/sinton/sjsu1f/mlbcalmindexk.csv' for reading: No such file or directory tail: cannot open '/home/sinton/sjsu1f/mlbavgwindindexk.csv' for reading: No such file or directory tail: cannot open '/home/sinton/sjsu1f/mlbcalmindexk.csv' for reading: No such file or directory tail: cannot open '/home/sinton/sjsu1f/mlbavgwindindexk.csv' for reading: No such file or directory tail: cannot open '/home/sinton/sjsu1f/mlbcalmindexk.csv' for reading: No such file or directory tail: cannot open '/home/sinton/sjsu1f/mlbavgwindindexk.csv' for reading: No such file or directory tail: cannot open '/home/sinton/sjsu1f/mlbcalmindexk.csv' for reading: No such file or directory tail: cannot open '/home/sinton/sjsu1f/mlbavgwindindexk.csv' for reading: No such file or directory tail: cannot open '/home/sinton/sjsu1f/mlbcalmindexk.csv' for reading: No such file or directory tail: cannot open '/home/sinton/sjsu1f/mlbavgwindindexk.csv' for reading: No such file or directory tail: cannot open '/home/sinton/sjsu1f/mlbcalmindexk.csv' for reading: No such file or directory tail: cannot open '/home/sinton/sjsu1f/mlbavgwindindexk.csv' for reading: No such file or directory tail: cannot open '/home/sinton/sjsu1f/mlbcalmindexk.csv' for reading: No such file or directory tail: cannot open '/home/sinton/sjsu1f/mlbavgwindindexk.csv' for reading: No such file or directory tail: cannot open '/home/sinton/sjsu1f/mlbcalmindexk.csv' for reading: No such file or directory tail: cannot open '/home/sinton/sjsu1f/mlbavgwindindexk.csv' for reading: No such file or directory % Total % Received % Xferd Average Speed Time Time Time Current Dload Upload Total Spent Left Speed 0 0 0 0 0 0 0 0 --:--:-- --:--:-- --:--:-- 0 100 432 100 432 0 0 1763 0 --:--:-- --:--:-- --:--:-- 1763 % Total % Received % Xferd Average Speed Time Time Time Current Dload Upload Total Spent Left Speed 0 0 0 0 0 0 0 0 --:--:-- --:--:-- --:--:-- 0 100 432 100 432 0 0 10046 0 --:--:-- --:--:-- --:--:-- 10046 % Total % Received % Xferd Average Speed Time Time Time Current Dload Upload Total Spent Left Speed 0 0 0 0 0 0 0 0 --:--:-- --:--:-- --:--:-- 0 100 432 100 432 0 0 3130 0 --:--:-- --:--:-- --:--:-- 3130 % Total % Received % Xferd Average Speed Time Time Time Current Dload Upload Total Spent Left Speed 0 0 0 0 0 0 0 0 --:--:-- --:--:-- --:--:-- 0 100 432 100 432 0 0 5204 0 --:--:-- --:--:-- --:--:-- 5204 % Total % Received % Xferd Average Speed Time Time Time Current Dload Upload Total Spent Left Speed 0 0 0 0 0 0 0 0 --:--:-- --:--:-- --:--:-- 0 100 431 100 431 0 0 9170 0 --:--:-- --:--:-- --:--:-- 8979 100 431 100 431 0 0 9170 0 --:--:-- --:--:-- --:--:-- 8979 tail: cannot open '/home/sinton/sjsu1f/mlbcalmindexk.csv' for reading: No such file or directory tail: cannot open '/home/sinton/sjsu1f/mlbavgwindindexk.csv' for reading: No such file or directory tail: cannot open '/home/sinton/sjsu1f/mlbcalmindexk.csv' for reading: No such file or directory tail: cannot open '/home/sinton/sjsu1f/mlbavgwindindexk.csv' for reading: No such file or directory tail: cannot open '/home/sinton/sjsu1f/mlbcalmindexk.csv' for reading: No such file or directory tail: cannot open '/home/sinton/sjsu1f/mlbavgwindindexk.csv' for reading: No such file or directory tail: cannot open '/home/sinton/sjsu1f/mlbcalmindexk.csv' for reading: No such file or directory tail: cannot open '/home/sinton/sjsu1f/mlbavgwindindexk.csv' for reading: No such file or directory tail: cannot open '/home/sinton/sjsu1f/mlbcalmindexk.csv' for reading: No such file or directory tail: cannot open '/home/sinton/sjsu1f/mlbavgwindindexk.csv' for reading: No such file or directory tail: cannot open '/home/sinton/sjsu1f/mlbcalmindexk.csv' for reading: No such file or directory tail: cannot open '/home/sinton/sjsu1f/mlbavgwindindexk.csv' for reading: No such file or directory tail: cannot open '/home/sinton/sjsu1f/mlbcalmindexk.csv' for reading: No such file or directory tail: cannot open '/home/sinton/sjsu1f/mlbavgwindindexk.csv' for reading: No such file or directory tail: cannot open '/home/sinton/sjsu1f/mlbcalmindexk.csv' for reading: No such file or directory tail: cannot open '/home/sinton/sjsu1f/mlbavgwindindexk.csv' for reading: No such file or directory tail: cannot open '/home/sinton/sjsu1f/mlbcalmindexk.csv' for reading: No such file or directory tail: cannot open '/home/sinton/sjsu1f/mlbavgwindindexk.csv' for reading: No such file or directory tail: cannot open '/home/sinton/sjsu1f/mlbcalmindexk.csv' for reading: No such file or directory tail: cannot open '/home/sinton/sjsu1f/mlbavgwindindexk.csv' for reading: No such file or directory tail: cannot open '/home/sinton/sjsu1f/mlbcalmindexk.csv' for reading: No such file or directory tail: cannot open '/home/sinton/sjsu1f/mlbavgwindindexk.csv' for reading: No such file or directory tail: cannot open '/home/sinton/sjsu1f/mlbcalmindexk.csv' for reading: No such file or directory tail: cannot open '/home/sinton/sjsu1f/mlbavgwindindexk.csv' for reading: No such file or directory tail: cannot open '/home/sinton/sjsu1f/mlbcalmindexk.csv' for reading: No such file or directory tail: cannot open '/home/sinton/sjsu1f/mlbavgwindindexk.csv' for reading: No such file or directory tail: cannot open '/home/sinton/sjsu1f/mlbcalmindexk.csv' for reading: No such file or directory tail: cannot open '/home/sinton/sjsu1f/mlbavgwindindexk.csv' for reading: No such file or directory tail: cannot open '/home/sinton/sjsu1f/mlbcalmindexk.csv' for reading: No such file or directory tail: cannot open '/home/sinton/sjsu1f/mlbavgwindindexk.csv' for reading: No such file or directory tail: cannot open '/home/sinton/sjsu1f/mlbcalmindexk.csv' for reading: No such file or directory tail: cannot open '/home/sinton/sjsu1f/mlbavgwindindexk.csv' for reading: No such file or directory tail: cannot open '/home/sinton/sjsu1f/mlbcalmindexk.csv' for reading: No such file or directory tail: cannot open '/home/sinton/sjsu1f/mlbavgwindindexk.csv' for reading: No such file or directory % Total % Received % Xferd Average Speed Time Time Time Current Dload Upload Total Spent Left Speed 0 0 0 0 0 0 0 0 --:--:-- --:--:-- --:--:-- 0 100 430 100 430 0 0 3706 0 --:--:-- --:--:-- --:--:-- 3706 % Total % Received % Xferd Average Speed Time Time Time Current Dload Upload Total Spent Left Speed 0 0 0 0 0 0 0 0 --:--:-- --:--:-- --:--:-- 0 100 429 100 429 0 0 1915 0 --:--:-- --:--:-- --:--:-- 1915 % Total % Received % Xferd Average Speed Time Time Time Current Dload Upload Total Spent Left Speed 0 0 0 0 0 0 0 0 --:--:-- --:--:-- --:--:-- 0 100 429 100 429 0 0 4663 0 --:--:-- --:--:-- --:--:-- 4663 % Total % Received % Xferd Average Speed Time Time Time Current Dload Upload Total Spent Left Speed 0 0 0 0 0 0 0 0 --:--:-- --:--:-- --:--:-- 0 100 431 100 431 0 0 1737 0 --:--:-- --:--:-- --:--:-- 1737 % Total % Received % Xferd Average Speed Time Time Time Current Dload Upload Total Spent Left Speed 0 0 0 0 0 0 0 0 --:--:-- --:--:-- --:--:-- 0 100 430 100 430 0 0 2965 0 --:--:-- --:--:-- --:--:-- 2945 100 430 100 430 0 0 2965 0 --:--:-- --:--:-- --:--:-- 2945 tail: cannot open '/home/sinton/sjsu1f/mlbcalmindexk.csv' for reading: No such file or directory tail: cannot open '/home/sinton/sjsu1f/mlbavgwindindexk.csv' for reading: No such file or directory tail: cannot open '/home/sinton/sjsu1f/mlbcalmindexk.csv' for reading: No such file or directory tail: cannot open '/home/sinton/sjsu1f/mlbavgwindindexk.csv' for reading: No such file or directory tail: cannot open '/home/sinton/sjsu1f/mlbcalmindexk.csv' for reading: No such file or directory tail: cannot open '/home/sinton/sjsu1f/mlbavgwindindexk.csv' for reading: No such file or directory tail: cannot open '/home/sinton/sjsu1f/mlbcalmindexk.csv' for reading: No such file or directory tail: cannot open '/home/sinton/sjsu1f/mlbavgwindindexk.csv' for reading: No such file or directory tail: cannot open '/home/sinton/sjsu1f/mlbcalmindexk.csv' for reading: No such file or directory tail: cannot open '/home/sinton/sjsu1f/mlbavgwindindexk.csv' for reading: No such file or directory tail: cannot open '/home/sinton/sjsu1f/mlbcalmindexk.csv' for reading: No such file or directory tail: cannot open '/home/sinton/sjsu1f/mlbavgwindindexk.csv' for reading: No such file or directory tail: cannot open '/home/sinton/sjsu1f/mlbcalmindexk.csv' for reading: No such file or directory tail: cannot open '/home/sinton/sjsu1f/mlbavgwindindexk.csv' for reading: No such file or directory tail: cannot open '/home/sinton/sjsu1f/mlbcalmindexk.csv' for reading: No such file or directory tail: cannot open '/home/sinton/sjsu1f/mlbavgwindindexk.csv' for reading: No such file or directory tail: cannot open '/home/sinton/sjsu1f/mlbcalmindexk.csv' for reading: No such file or directory tail: cannot open '/home/sinton/sjsu1f/mlbavgwindindexk.csv' for reading: No such file or directory tail: cannot open '/home/sinton/sjsu1f/mlbcalmindexk.csv' for reading: No such file or directory tail: cannot open '/home/sinton/sjsu1f/mlbavgwindindexk.csv' for reading: No such file or directory tail: cannot open '/home/sinton/sjsu1f/mlbcalmindexk.csv' for reading: No such file or directory tail: cannot open '/home/sinton/sjsu1f/mlbavgwindindexk.csv' for reading: No such file or directory tail: cannot open '/home/sinton/sjsu1f/mlbcalmindexk.csv' for reading: No such file or directory tail: cannot open '/home/sinton/sjsu1f/mlbavgwindindexk.csv' for reading: No such file or directory tail: cannot open '/home/sinton/sjsu1f/mlbcalmindexk.csv' for reading: No such file or directory tail: cannot open '/home/sinton/sjsu1f/mlbavgwindindexk.csv' for reading: No such file or directory % Total % Received % Xferd Average Speed Time Time Time Current Dload Upload Total Spent Left Speed 0 0 0 0 0 0 0 0 --:--:-- --:--:-- --:--:-- 0 100 432 100 432 0 0 2700 0 --:--:-- --:--:-- --:--:-- 2700 % Total % Received % Xferd Average Speed Time Time Time Current Dload Upload Total Spent Left Speed 0 0 0 0 0 0 0 0 --:--:-- --:--:-- --:--:-- 0 100 432 100 432 0 0 5917 0 --:--:-- --:--:-- --:--:-- 5917 % Total % Received % Xferd Average Speed Time Time Time Current Dload Upload Total Spent Left Speed 0 0 0 0 0 0 0 0 --:--:-- --:--:-- --:--:-- 0 100 432 100 432 0 0 3570 0 --:--:-- --:--:-- --:--:-- 3570 % Total % Received % Xferd Average Speed Time Time Time Current Dload Upload Total Spent Left Speed 0 0 0 0 0 0 0 0 --:--:-- --:--:-- --:--:-- 0 100 431 100 431 0 0 1193 0 --:--:-- --:--:-- --:--:-- 1193 % Total % Received % Xferd Average Speed Time Time Time Current Dload Upload Total Spent Left Speed 0 0 0 0 0 0 0 0 --:--:-- --:--:-- --:--:-- 0 0 0 0 0 0 0 0 0 --:--:-- --:--:-- --:--:-- 0 100 430 100 430 0 0 2087 0 --:--:-- --:--:-- --:--:-- 2077 tail: cannot open '/home/sinton/sjsu1f/mlbcalmindexk.csv' for reading: No such file or directory tail: cannot open '/home/sinton/sjsu1f/mlbavgwindindexk.csv' for reading: No such file or directory tail: cannot open '/home/sinton/sjsu1f/mlbcalmindexk.csv' for reading: No such file or directory tail: cannot open '/home/sinton/sjsu1f/mlbavgwindindexk.csv' for reading: No such file or directory tail: cannot open '/home/sinton/sjsu1f/mlbcalmindexk.csv' for reading: No such file or directory tail: cannot open '/home/sinton/sjsu1f/mlbavgwindindexk.csv' for reading: No such file or directory mv: cannot stat '/home/sinton/public_html/John1f/oakstuck': No such file or directory tail: cannot open '/home/sinton/sjsu1f/mlbcalmindexk.csv' for reading: No such file or directory tail: cannot open '/home/sinton/sjsu1f/mlbavgwindindexk.csv' for reading: No such file or directory tail: cannot open '/home/sinton/sjsu1f/mlbcalmindexk.csv' for reading: No such file or directory tail: cannot open '/home/sinton/sjsu1f/mlbavgwindindexk.csv' for reading: No such file or directory tail: cannot open '/home/sinton/sjsu1f/mlbcalmindexk.csv' for reading: No such file or directory tail: cannot open '/home/sinton/sjsu1f/mlbavgwindindexk.csv' for reading: No such file or directory tail: cannot open '/home/sinton/sjsu1f/mlbcalmindexk.csv' for reading: No such file or directory tail: cannot open '/home/sinton/sjsu1f/mlbavgwindindexk.csv' for reading: No such file or directory tail: cannot open '/home/sinton/sjsu1f/mlbcalmindexk.csv' for reading: No such file or directory tail: cannot open '/home/sinton/sjsu1f/mlbavgwindindexk.csv' for reading: No such file or directory tail: cannot open '/home/sinton/sjsu1f/mlbcalmindexk.csv' for reading: No such file or directory tail: cannot open '/home/sinton/sjsu1f/mlbavgwindindexk.csv' for reading: No such file or directory tail: cannot open '/home/sinton/sjsu1f/mlbcalmindexk.csv' for reading: No such file or directory tail: cannot open '/home/sinton/sjsu1f/mlbavgwindindexk.csv' for reading: No such file or directory tail: cannot open '/home/sinton/sjsu1f/mlbcalmindexk.csv' for reading: No such file or directory tail: cannot open '/home/sinton/sjsu1f/mlbavgwindindexk.csv' for reading: No such file or directory tail: cannot open '/home/sinton/sjsu1f/mlbcalmindexk.csv' for reading: No such file or directory tail: cannot open '/home/sinton/sjsu1f/mlbavgwindindexk.csv' for reading: No such file or directory tail: cannot open '/home/sinton/sjsu1f/mlbcalmindexk.csv' for reading: No such file or directory tail: cannot open '/home/sinton/sjsu1f/mlbavgwindindexk.csv' for reading: No such file or directory % Total % Received % Xferd Average Speed Time Time Time Current Dload Upload Total Spent Left Speed 0 0 0 0 0 0 0 0 --:--:-- --:--:-- --:--:-- 0 100 432 100 432 0 0 2285 0 --:--:-- --:--:-- --:--:-- 2285 % Total % Received % Xferd Average Speed Time Time Time Current Dload Upload Total Spent Left Speed 0 0 0 0 0 0 0 0 --:--:-- --:--:-- --:--:-- 0 100 432 100 432 0 0 4408 0 --:--:-- --:--:-- --:--:-- 4408 % Total % Received % Xferd Average Speed Time Time Time Current Dload Upload Total Spent Left Speed 0 0 0 0 0 0 0 0 --:--:-- --:--:-- --:--:-- 0 100 429 100 429 0 0 3086 0 --:--:-- --:--:-- --:--:-- 3108 % Total % Received % Xferd Average Speed Time Time Time Current Dload Upload Total Spent Left Speed 0 0 0 0 0 0 0 0 --:--:-- --:--:-- --:--:-- 0 0 0 0 0 0 0 0 0 --:--:-- --:--:-- --:--:-- 0 100 432 100 432 0 0 1785 0 --:--:-- --:--:-- --:--:-- 1777 % Total % Received % Xferd Average Speed Time Time Time Current Dload Upload Total Spent Left Speed 0 0 0 0 0 0 0 0 --:--:-- --:--:-- --:--:-- 0 100 431 100 431 0 0 3192 0 --:--:-- --:--:-- --:--:-- 3192 cat: /home/sinton/1f/weather1.txt: No such file or directory cat: /home/sinton/1f/weather2.txt: No such file or directory cat: /home/sinton/1f/weather3.txt: No such file or directory cat: /home/sinton/1f/weather4.txt: No such file or directory tail: cannot open '/home/sinton/sjsu1f/mlbcalmindexk.csv' for reading: No such file or directory tail: cannot open '/home/sinton/sjsu1f/mlbavgwindindexk.csv' for reading: No such file or directory tail: cannot open '/home/sinton/sjsu1f/mlbcalmindexk.csv' for reading: No such file or directory tail: cannot open '/home/sinton/sjsu1f/mlbavgwindindexk.csv' for reading: No such file or directory tail: cannot open '/home/sinton/sjsu1f/mlbcalmindexk.csv' for reading: No such file or directory tail: cannot open '/home/sinton/sjsu1f/mlbavgwindindexk.csv' for reading: No such file or directory tail: cannot open '/home/sinton/sjsu1f/mlbcalmindexk.csv' for reading: No such file or directory tail: cannot open '/home/sinton/sjsu1f/mlbavgwindindexk.csv' for reading: No such file or directory tail: cannot open '/home/sinton/sjsu1f/mlbcalmindexk.csv' for reading: No such file or directory tail: cannot open '/home/sinton/sjsu1f/mlbavgwindindexk.csv' for reading: No such file or directory tail: cannot open '/home/sinton/sjsu1f/mlbcalmindexk.csv' for reading: No such file or directory tail: cannot open '/home/sinton/sjsu1f/mlbavgwindindexk.csv' for reading: No such file or directory tail: cannot open '/home/sinton/sjsu1f/mlbcalmindexk.csv' for reading: No such file or directory tail: cannot open '/home/sinton/sjsu1f/mlbavgwindindexk.csv' for reading: No such file or directory tail: cannot open '/home/sinton/sjsu1f/mlbcalmindexk.csv' for reading: No such file or directory tail: cannot open '/home/sinton/sjsu1f/mlbavgwindindexk.csv' for reading: No such file or directory tail: cannot open '/home/sinton/sjsu1f/mlbcalmindexk.csv' for reading: No such file or directory tail: cannot open '/home/sinton/sjsu1f/mlbavgwindindexk.csv' for reading: No such file or directory tail: cannot open '/home/sinton/sjsu1f/mlbcalmindexk.csv' for reading: No such file or directory tail: cannot open '/home/sinton/sjsu1f/mlbavgwindindexk.csv' for reading: No such file or directory tail: cannot open '/home/sinton/sjsu1f/mlbcalmindexk.csv' for reading: No such file or directory tail: cannot open '/home/sinton/sjsu1f/mlbavgwindindexk.csv' for reading: No such file or directory tail: cannot open '/home/sinton/sjsu1f/mlbcalmindexk.csv' for reading: No such file or directory tail: cannot open '/home/sinton/sjsu1f/mlbavgwindindexk.csv' for reading: No such file or directory tail: cannot open '/home/sinton/sjsu1f/mlbcalmindexk.csv' for reading: No such file or directory tail: cannot open '/home/sinton/sjsu1f/mlbavgwindindexk.csv' for reading: No such file or directory tail: cannot open '/home/sinton/sjsu1f/mlbcalmindexk.csv' for reading: No such file or directory tail: cannot open '/home/sinton/sjsu1f/mlbavgwindindexk.csv' for reading: No such file or directory % Total % Received % Xferd Average Speed Time Time Time Current Dload Upload Total Spent Left Speed 0 0 0 0 0 0 0 0 --:--:-- --:--:-- --:--:-- 0 0 0 0 0 0 0 0 0 --:--:-- --:--:-- --:--:-- 0 100 430 100 430 0 0 2067 0 --:--:-- --:--:-- --:--:-- 2057 % Total % Received % Xferd Average Speed Time Time Time Current Dload Upload Total Spent Left Speed 0 0 0 0 0 0 0 0 --:--:-- --:--:-- --:--:-- 0 100 431 100 431 0 0 10261 0 --:--:-- --:--:-- --:--:-- 10261 % Total % Received % Xferd Average Speed Time Time Time Current Dload Upload Total Spent Left Speed 0 0 0 0 0 0 0 0 --:--:-- --:--:-- --:--:-- 0 100 431 100 431 0 0 3265 0 --:--:-- --:--:-- --:--:-- 3265 % Total % Received % Xferd Average Speed Time Time Time Current Dload Upload Total Spent Left Speed 0 0 0 0 0 0 0 0 --:--:-- --:--:-- --:--:-- 0 100 431 100 431 0 0 3420 0 --:--:-- --:--:-- --:--:-- 3420 % Total % Received % Xferd Average Speed Time Time Time Current Dload Upload Total Spent Left Speed 0 0 0 0 0 0 0 0 --:--:-- --:--:-- --:--:-- 0 100 430 100 430 0 0 12285 0 --:--:-- --:--:-- --:--:-- 12285 tail: cannot open '/home/sinton/sjsu1f/mlbcalmindexk.csv' for reading: No such file or directory tail: cannot open '/home/sinton/sjsu1f/mlbavgwindindexk.csv' for reading: No such file or directory tail: cannot open '/home/sinton/sjsu1f/mlbcalmindexk.csv' for reading: No such file or directory tail: cannot open '/home/sinton/sjsu1f/mlbavgwindindexk.csv' for reading: No such file or directory tail: cannot open '/home/sinton/sjsu1f/mlbcalmindexk.csv' for reading: No such file or directory tail: cannot open '/home/sinton/sjsu1f/mlbavgwindindexk.csv' for reading: No such file or directory tail: cannot open '/home/sinton/sjsu1f/mlbcalmindexk.csv' for reading: No such file or directory tail: cannot open '/home/sinton/sjsu1f/mlbavgwindindexk.csv' for reading: No such file or directory tail: cannot open '/home/sinton/sjsu1f/mlbcalmindexk.csv' for reading: No such file or directory tail: cannot open '/home/sinton/sjsu1f/mlbavgwindindexk.csv' for reading: No such file or directory tail: cannot open '/home/sinton/sjsu1f/mlbcalmindexk.csv' for reading: No such file or directory tail: cannot open '/home/sinton/sjsu1f/mlbavgwindindexk.csv' for reading: No such file or directory tail: cannot open '/home/sinton/sjsu1f/mlbcalmindexk.csv' for reading: No such file or directory tail: cannot open '/home/sinton/sjsu1f/mlbavgwindindexk.csv' for reading: No such file or directory tail: cannot open '/home/sinton/sjsu1f/mlbcalmindexk.csv' for reading: No such file or directory tail: cannot open '/home/sinton/sjsu1f/mlbavgwindindexk.csv' for reading: No such file or directory tail: cannot open '/home/sinton/sjsu1f/mlbcalmindexk.csv' for reading: No such file or directory tail: cannot open '/home/sinton/sjsu1f/mlbavgwindindexk.csv' for reading: No such file or directory tail: cannot open '/home/sinton/sjsu1f/mlbcalmindexk.csv' for reading: No such file or directory tail: cannot open '/home/sinton/sjsu1f/mlbavgwindindexk.csv' for reading: No such file or directory tail: cannot open '/home/sinton/sjsu1f/mlbcalmindexk.csv' for reading: No such file or directory tail: cannot open '/home/sinton/sjsu1f/mlbavgwindindexk.csv' for reading: No such file or directory tail: cannot open '/home/sinton/sjsu1f/mlbcalmindexk.csv' for reading: No such file or directory tail: cannot open '/home/sinton/sjsu1f/mlbavgwindindexk.csv' for reading: No such file or directory tail: cannot open '/home/sinton/sjsu1f/mlbcalmindexk.csv' for reading: No such file or directory tail: cannot open '/home/sinton/sjsu1f/mlbavgwindindexk.csv' for reading: No such file or directory % Total % Received % Xferd Average Speed Time Time Time Current Dload Upload Total Spent Left Speed 0 0 0 0 0 0 0 0 --:--:-- --:--:-- --:--:-- 0 100 431 100 431 0 0 2448 0 --:--:-- --:--:-- --:--:-- 2448 % Total % Received % Xferd Average Speed Time Time Time Current Dload Upload Total Spent Left Speed 0 0 0 0 0 0 0 0 --:--:-- --:--:-- --:--:-- 0 100 430 100 430 0 0 3739 0 --:--:-- --:--:-- --:--:-- 3739 % Total % Received % Xferd Average Speed Time Time Time Current Dload Upload Total Spent Left Speed 0 0 0 0 0 0 0 0 --:--:-- --:--:-- --:--:-- 0 100 432 100 432 0 0 9191 0 --:--:-- --:--:-- --:--:-- 9191 % Total % Received % Xferd Average Speed Time Time Time Current Dload Upload Total Spent Left Speed 0 0 0 0 0 0 0 0 --:--:-- --:--:-- --:--:-- 0 100 432 100 432 0 0 8470 0 --:--:-- --:--:-- --:--:-- 8470 % Total % Received % Xferd Average Speed Time Time Time Current Dload Upload Total Spent Left Speed 0 0 0 0 0 0 0 0 --:--:-- --:--:-- --:--:-- 0 100 431 100 431 0 0 2123 0 --:--:-- --:--:-- --:--:-- 2123 tail: cannot open '/home/sinton/sjsu1f/mlbcalmindexk.csv' for reading: No such file or directory tail: cannot open '/home/sinton/sjsu1f/mlbavgwindindexk.csv' for reading: No such file or directory tail: cannot open '/home/sinton/sjsu1f/mlbcalmindexk.csv' for reading: No such file or directory tail: cannot open '/home/sinton/sjsu1f/mlbavgwindindexk.csv' for reading: No such file or directory tail: cannot open '/home/sinton/sjsu1f/mlbcalmindexk.csv' for reading: No such file or directory tail: cannot open '/home/sinton/sjsu1f/mlbavgwindindexk.csv' for reading: No such file or directory tail: cannot open '/home/sinton/sjsu1f/mlbcalmindexk.csv' for reading: No such file or directory tail: cannot open '/home/sinton/sjsu1f/mlbavgwindindexk.csv' for reading: No such file or directory tail: cannot open '/home/sinton/sjsu1f/mlbcalmindexk.csv' for reading: No such file or directory tail: cannot open '/home/sinton/sjsu1f/mlbavgwindindexk.csv' for reading: No such file or directory tail: cannot open '/home/sinton/sjsu1f/mlbcalmindexk.csv' for reading: No such file or directory tail: cannot open '/home/sinton/sjsu1f/mlbavgwindindexk.csv' for reading: No such file or directory tail: cannot open '/home/sinton/sjsu1f/mlbcalmindexk.csv' for reading: No such file or directory tail: cannot open '/home/sinton/sjsu1f/mlbavgwindindexk.csv' for reading: No such file or directory tail: cannot open '/home/sinton/sjsu1f/mlbcalmindexk.csv' for reading: No such file or directory tail: cannot open '/home/sinton/sjsu1f/mlbavgwindindexk.csv' for reading: No such file or directory tail: cannot open '/home/sinton/sjsu1f/mlbcalmindexk.csv' for reading: No such file or directory tail: cannot open '/home/sinton/sjsu1f/mlbavgwindindexk.csv' for reading: No such file or directory tail: cannot open '/home/sinton/sjsu1f/mlbcalmindexk.csv' for reading: No such file or directory tail: cannot open '/home/sinton/sjsu1f/mlbavgwindindexk.csv' for reading: No such file or directory tail: cannot open '/home/sinton/sjsu1f/mlbcalmindexk.csv' for reading: No such file or directory tail: cannot open '/home/sinton/sjsu1f/mlbavgwindindexk.csv' for reading: No such file or directory tail: cannot open '/home/sinton/sjsu1f/mlbcalmindexk.csv' for reading: No such file or directory tail: cannot open '/home/sinton/sjsu1f/mlbavgwindindexk.csv' for reading: No such file or directory % Total % Received % Xferd Average Speed Time Time Time Current Dload Upload Total Spent Left Speed 0 0 0 0 0 0 0 0 --:--:-- --:--:-- --:--:-- 0 100 431 100 431 0 0 5455 0 --:--:-- --:--:-- --:--:-- 5455 % Total % Received % Xferd Average Speed Time Time Time Current Dload Upload Total Spent Left Speed 0 0 0 0 0 0 0 0 --:--:-- --:--:-- --:--:-- 0 0 0 0 0 0 0 0 0 --:--:-- --:--:-- --:--:-- 0 100 430 100 430 0 0 2009 0 --:--:-- --:--:-- --:--:-- 2000 % Total % Received % Xferd Average Speed Time Time Time Current Dload Upload Total Spent Left Speed 0 0 0 0 0 0 0 0 --:--:-- --:--:-- --:--:-- 0 100 432 100 432 0 0 4800 0 --:--:-- --:--:-- --:--:-- 4800 % Total % Received % Xferd Average Speed Time Time Time Current Dload Upload Total Spent Left Speed 0 0 0 0 0 0 0 0 --:--:-- --:--:-- --:--:-- 0 100 432 100 432 0 0 4114 0 --:--:-- --:--:-- --:--:-- 4114 % Total % Received % Xferd Average Speed Time Time Time Current Dload Upload Total Spent Left Speed 0 0 0 0 0 0 0 0 --:--:-- --:--:-- --:--:-- 0 100 431 100 431 0 0 4536 0 --:--:-- --:--:-- --:--:-- 4536 tail: cannot open '/home/sinton/sjsu1f/mlbcalmindexk.csv' for reading: No such file or directory tail: cannot open '/home/sinton/sjsu1f/mlbavgwindindexk.csv' for reading: No such file or directory tail: cannot open '/home/sinton/sjsu1f/mlbcalmindexk.csv' for reading: No such file or directory tail: cannot open '/home/sinton/sjsu1f/mlbavgwindindexk.csv' for reading: No such file or directory tail: cannot open '/home/sinton/sjsu1f/mlbcalmindexk.csv' for reading: No such file or directory tail: cannot open '/home/sinton/sjsu1f/mlbavgwindindexk.csv' for reading: No such file or directory tail: cannot open '/home/sinton/sjsu1f/mlbcalmindexk.csv' for reading: No such file or directory tail: cannot open '/home/sinton/sjsu1f/mlbavgwindindexk.csv' for reading: No such file or directory tail: cannot open '/home/sinton/sjsu1f/mlbcalmindexk.csv' for reading: No such file or directory tail: cannot open '/home/sinton/sjsu1f/mlbavgwindindexk.csv' for reading: No such file or directory mv: cannot stat '/home/sinton/public_html/John1f/oakstuck': No such file or directory tail: cannot open '/home/sinton/sjsu1f/mlbcalmindexk.csv' for reading: No such file or directory tail: cannot open '/home/sinton/sjsu1f/mlbavgwindindexk.csv' for reading: No such file or directory tail: cannot open '/home/sinton/sjsu1f/mlbcalmindexk.csv' for reading: No such file or directory tail: cannot open '/home/sinton/sjsu1f/mlbavgwindindexk.csv' for reading: No such file or directory tail: cannot open '/home/sinton/sjsu1f/mlbcalmindexk.csv' for reading: No such file or directory tail: cannot open '/home/sinton/sjsu1f/mlbavgwindindexk.csv' for reading: No such file or directory tail: cannot open '/home/sinton/sjsu1f/mlbcalmindexk.csv' for reading: No such file or directory tail: cannot open '/home/sinton/sjsu1f/mlbavgwindindexk.csv' for reading: No such file or directory tail: cannot open '/home/sinton/sjsu1f/mlbcalmindexk.csv' for reading: No such file or directory tail: cannot open '/home/sinton/sjsu1f/mlbavgwindindexk.csv' for reading: No such file or directory tail: cannot open '/home/sinton/sjsu1f/mlbcalmindexk.csv' for reading: No such file or directory tail: cannot open '/home/sinton/sjsu1f/mlbavgwindindexk.csv' for reading: No such file or directory tail: cannot open '/home/sinton/sjsu1f/mlbcalmindexk.csv' for reading: No such file or directory tail: cannot open '/home/sinton/sjsu1f/mlbavgwindindexk.csv' for reading: No such file or directory tail: cannot open '/home/sinton/sjsu1f/mlbcalmindexk.csv' for reading: No such file or directory tail: cannot open '/home/sinton/sjsu1f/mlbavgwindindexk.csv' for reading: No such file or directory tail: cannot open '/home/sinton/sjsu1f/mlbcalmindexk.csv' for reading: No such file or directory tail: cannot open '/home/sinton/sjsu1f/mlbavgwindindexk.csv' for reading: No such file or directory tail: cannot open '/home/sinton/sjsu1f/mlbcalmindexk.csv' for reading: No such file or directory tail: cannot open '/home/sinton/sjsu1f/mlbavgwindindexk.csv' for reading: No such file or directory % Total % Received % Xferd Average Speed Time Time Time Current Dload Upload Total Spent Left Speed 0 0 0 0 0 0 0 0 --:--:-- --:--:-- --:--:-- 0 100 431 100 431 0 0 4897 0 --:--:-- --:--:-- --:--:-- 4897 % Total % Received % Xferd Average Speed Time Time Time Current Dload Upload Total Spent Left Speed 0 0 0 0 0 0 0 0 --:--:-- --:--:-- --:--:-- 0 100 432 100 432 0 0 8470 0 --:--:-- --:--:-- --:--:-- 8470 % Total % Received % Xferd Average Speed Time Time Time Current Dload Upload Total Spent Left Speed 0 0 0 0 0 0 0 0 --:--:-- --:--:-- --:--:-- 0 100 432 100 432 0 0 8816 0 --:--:-- --:--:-- --:--:-- 8816 % Total % Received % Xferd Average Speed Time Time Time Current Dload Upload Total Spent Left Speed 0 0 0 0 0 0 0 0 --:--:-- --:--:-- --:--:-- 0 100 432 100 432 0 0 3375 0 --:--:-- --:--:-- --:--:-- 3348 100 432 100 432 0 0 3375 0 --:--:-- --:--:-- --:--:-- 3348 % Total % Received % Xferd Average Speed Time Time Time Current Dload Upload Total Spent Left Speed 0 0 0 0 0 0 0 0 --:--:-- --:--:-- --:--:-- 0 100 431 100 431 0 0 3475 0 --:--:-- --:--:-- --:--:-- 3475 tail: cannot open '/home/sinton/sjsu1f/mlbcalmindexk.csv' for reading: No such file or directory tail: cannot open '/home/sinton/sjsu1f/mlbavgwindindexk.csv' for reading: No such file or directory tail: cannot open '/home/sinton/sjsu1f/mlbcalmindexk.csv' for reading: No such file or directory tail: cannot open '/home/sinton/sjsu1f/mlbavgwindindexk.csv' for reading: No such file or directory tail: cannot open '/home/sinton/sjsu1f/mlbcalmindexk.csv' for reading: No such file or directory tail: cannot open '/home/sinton/sjsu1f/mlbavgwindindexk.csv' for reading: No such file or directory tail: cannot open '/home/sinton/sjsu1f/mlbcalmindexk.csv' for reading: No such file or directory tail: cannot open '/home/sinton/sjsu1f/mlbavgwindindexk.csv' for reading: No such file or directory tail: cannot open '/home/sinton/sjsu1f/mlbcalmindexk.csv' for reading: No such file or directory tail: cannot open '/home/sinton/sjsu1f/mlbavgwindindexk.csv' for reading: No such file or directory tail: cannot open '/home/sinton/sjsu1f/mlbcalmindexk.csv' for reading: No such file or directory tail: cannot open '/home/sinton/sjsu1f/mlbavgwindindexk.csv' for reading: No such file or directory tail: cannot open '/home/sinton/sjsu1f/mlbcalmindexk.csv' for reading: No such file or directory tail: cannot open '/home/sinton/sjsu1f/mlbavgwindindexk.csv' for reading: No such file or directory tail: cannot open '/home/sinton/sjsu1f/mlbcalmindexk.csv' for reading: No such file or directory tail: cannot open '/home/sinton/sjsu1f/mlbavgwindindexk.csv' for reading: No such file or directory tail: cannot open '/home/sinton/sjsu1f/mlbcalmindexk.csv' for reading: No such file or directory tail: cannot open '/home/sinton/sjsu1f/mlbavgwindindexk.csv' for reading: No such file or directory tail: cannot open '/home/sinton/sjsu1f/mlbcalmindexk.csv' for reading: No such file or directory tail: cannot open '/home/sinton/sjsu1f/mlbavgwindindexk.csv' for reading: No such file or directory tail: cannot open '/home/sinton/sjsu1f/mlbcalmindexk.csv' for reading: No such file or directory tail: cannot open '/home/sinton/sjsu1f/mlbavgwindindexk.csv' for reading: No such file or directory tail: cannot open '/home/sinton/sjsu1f/mlbcalmindexk.csv' for reading: No such file or directory tail: cannot open '/home/sinton/sjsu1f/mlbavgwindindexk.csv' for reading: No such file or directory tail: cannot open '/home/sinton/sjsu1f/mlbcalmindexk.csv' for reading: No such file or directory tail: cannot open '/home/sinton/sjsu1f/mlbavgwindindexk.csv' for reading: No such file or directory tail: cannot open '/home/sinton/sjsu1f/mlbcalmindexk.csv' for reading: No such file or directory tail: cannot open '/home/sinton/sjsu1f/mlbavgwindindexk.csv' for reading: No such file or directory % Total % Received % Xferd Average Speed Time Time Time Current Dload Upload Total Spent Left Speed 0 0 0 0 0 0 0 0 --:--:-- --:--:-- --:--:-- 0 100 432 100 432 0 0 1721 0 --:--:-- --:--:-- --:--:-- 1728 % Total % Received % Xferd Average Speed Time Time Time Current Dload Upload Total Spent Left Speed 0 0 0 0 0 0 0 0 --:--:-- --:--:-- --:--:-- 0 100 432 100 432 0 0 3176 0 --:--:-- --:--:-- --:--:-- 3176 % Total % Received % Xferd Average Speed Time Time Time Current Dload Upload Total Spent Left Speed 0 0 0 0 0 0 0 0 --:--:-- --:--:-- --:--:-- 0 100 432 100 432 0 0 1763 0 --:--:-- --:--:-- --:--:-- 1770 % Total % Received % Xferd Average Speed Time Time Time Current Dload Upload Total Spent Left Speed 0 0 0 0 0 0 0 0 --:--:-- --:--:-- --:--:-- 0 100 432 100 432 0 0 3063 0 --:--:-- --:--:-- --:--:-- 3042 100 432 100 432 0 0 3063 0 --:--:-- --:--:-- --:--:-- 3042 % Total % Received % Xferd Average Speed Time Time Time Current Dload Upload Total Spent Left Speed 0 0 0 0 0 0 0 0 --:--:-- --:--:-- --:--:-- 0 100 431 100 431 0 0 3954 0 --:--:-- --:--:-- --:--:-- 3954 tail: cannot open '/home/sinton/sjsu1f/mlbcalmindexk.csv' for reading: No such file or directory tail: cannot open '/home/sinton/sjsu1f/mlbavgwindindexk.csv' for reading: No such file or directory tail: cannot open '/home/sinton/sjsu1f/mlbcalmindexk.csv' for reading: No such file or directory tail: cannot open '/home/sinton/sjsu1f/mlbavgwindindexk.csv' for reading: No such file or directory tail: cannot open '/home/sinton/sjsu1f/mlbcalmindexk.csv' for reading: No such file or directory tail: cannot open '/home/sinton/sjsu1f/mlbavgwindindexk.csv' for reading: No such file or directory tail: cannot open '/home/sinton/sjsu1f/mlbcalmindexk.csv' for reading: No such file or directory tail: cannot open '/home/sinton/sjsu1f/mlbavgwindindexk.csv' for reading: No such file or directory tail: cannot open '/home/sinton/sjsu1f/mlbcalmindexk.csv' for reading: No such file or directory tail: cannot open '/home/sinton/sjsu1f/mlbavgwindindexk.csv' for reading: No such file or directory tail: cannot open '/home/sinton/sjsu1f/mlbcalmindexk.csv' for reading: No such file or directory tail: cannot open '/home/sinton/sjsu1f/mlbavgwindindexk.csv' for reading: No such file or directory tail: cannot open '/home/sinton/sjsu1f/mlbcalmindexk.csv' for reading: No such file or directory tail: cannot open '/home/sinton/sjsu1f/mlbavgwindindexk.csv' for reading: No such file or directory tail: cannot open '/home/sinton/sjsu1f/mlbcalmindexk.csv' for reading: No such file or directory tail: cannot open '/home/sinton/sjsu1f/mlbavgwindindexk.csv' for reading: No such file or directory tail: cannot open '/home/sinton/sjsu1f/mlbcalmindexk.csv' for reading: No such file or directory tail: cannot open '/home/sinton/sjsu1f/mlbavgwindindexk.csv' for reading: No such file or directory tail: cannot open '/home/sinton/sjsu1f/mlbcalmindexk.csv' for reading: No such file or directory tail: cannot open '/home/sinton/sjsu1f/mlbavgwindindexk.csv' for reading: No such file or directory tail: cannot open '/home/sinton/sjsu1f/mlbcalmindexk.csv' for reading: No such file or directory tail: cannot open '/home/sinton/sjsu1f/mlbavgwindindexk.csv' for reading: No such file or directory tail: cannot open '/home/sinton/sjsu1f/mlbcalmindexk.csv' for reading: No such file or directory tail: cannot open '/home/sinton/sjsu1f/mlbavgwindindexk.csv' for reading: No such file or directory tail: cannot open '/home/sinton/sjsu1f/mlbcalmindexk.csv' for reading: No such file or directory tail: cannot open '/home/sinton/sjsu1f/mlbavgwindindexk.csv' for reading: No such file or directory tail: cannot open '/home/sinton/sjsu1f/mlbcalmindexk.csv' for reading: No such file or directory tail: cannot open '/home/sinton/sjsu1f/mlbavgwindindexk.csv' for reading: No such file or directory % Total % Received % Xferd Average Speed Time Time Time Current Dload Upload Total Spent Left Speed 0 0 0 0 0 0 0 0 --:--:-- --:--:-- --:--:-- 0 100 428 100 428 0 0 1585 0 --:--:-- --:--:-- --:--:-- 1585 % Total % Received % Xferd Average Speed Time Time Time Current Dload Upload Total Spent Left Speed 0 0 0 0 0 0 0 0 --:--:-- --:--:-- --:--:-- 0 100 431 100 431 0 0 7183 0 --:--:-- --:--:-- --:--:-- 7183 % Total % Received % Xferd Average Speed Time Time Time Current Dload Upload Total Spent Left Speed 0 0 0 0 0 0 0 0 --:--:-- --:--:-- --:--:-- 0 0 0 0 0 0 0 0 0 --:--:-- --:--:-- --:--:-- 0 100 432 100 432 0 0 10536 0 --:--:-- --:--:-- --:--:-- 10285 % Total % Received % Xferd Average Speed Time Time Time Current Dload Upload Total Spent Left Speed 0 0 0 0 0 0 0 0 --:--:-- --:--:-- --:--:-- 0 100 432 100 432 0 0 5333 0 --:--:-- --:--:-- --:--:-- 5333 % Total % Received % Xferd Average Speed Time Time Time Current Dload Upload Total Spent Left Speed 0 0 0 0 0 0 0 0 --:--:-- --:--:-- --:--:-- 0 100 431 100 431 0 0 7561 0 --:--:-- --:--:-- --:--:-- 7696 tail: cannot open '/home/sinton/sjsu1f/mlbcalmindexk.csv' for reading: No such file or directory tail: cannot open '/home/sinton/sjsu1f/mlbavgwindindexk.csv' for reading: No such file or directory tail: cannot open '/home/sinton/sjsu1f/mlbcalmindexk.csv' for reading: No such file or directory tail: cannot open '/home/sinton/sjsu1f/mlbavgwindindexk.csv' for reading: No such file or directory tail: cannot open '/home/sinton/sjsu1f/mlbcalmindexk.csv' for reading: No such file or directory tail: cannot open '/home/sinton/sjsu1f/mlbavgwindindexk.csv' for reading: No such file or directory tail: cannot open '/home/sinton/sjsu1f/mlbcalmindexk.csv' for reading: No such file or directory tail: cannot open '/home/sinton/sjsu1f/mlbavgwindindexk.csv' for reading: No such file or directory tail: cannot open '/home/sinton/sjsu1f/mlbcalmindexk.csv' for reading: No such file or directory tail: cannot open '/home/sinton/sjsu1f/mlbavgwindindexk.csv' for reading: No such file or directory tail: cannot open '/home/sinton/sjsu1f/mlbcalmindexk.csv' for reading: No such file or directory tail: cannot open '/home/sinton/sjsu1f/mlbavgwindindexk.csv' for reading: No such file or directory tail: cannot open '/home/sinton/sjsu1f/mlbcalmindexk.csv' for reading: No such file or directory tail: cannot open '/home/sinton/sjsu1f/mlbavgwindindexk.csv' for reading: No such file or directory tail: cannot open '/home/sinton/sjsu1f/mlbcalmindexk.csv' for reading: No such file or directory tail: cannot open '/home/sinton/sjsu1f/mlbavgwindindexk.csv' for reading: No such file or directory tail: cannot open '/home/sinton/sjsu1f/mlbcalmindexk.csv' for reading: No such file or directory tail: cannot open '/home/sinton/sjsu1f/mlbavgwindindexk.csv' for reading: No such file or directory tail: cannot open '/home/sinton/sjsu1f/mlbcalmindexk.csv' for reading: No such file or directory tail: cannot open '/home/sinton/sjsu1f/mlbavgwindindexk.csv' for reading: No such file or directory tail: cannot open '/home/sinton/sjsu1f/mlbcalmindexk.csv' for reading: No such file or directory tail: cannot open '/home/sinton/sjsu1f/mlbavgwindindexk.csv' for reading: No such file or directory tail: cannot open '/home/sinton/sjsu1f/mlbcalmindexk.csv' for reading: No such file or directory tail: cannot open '/home/sinton/sjsu1f/mlbavgwindindexk.csv' for reading: No such file or directory tail: cannot open '/home/sinton/sjsu1f/mlbcalmindexk.csv' for reading: No such file or directory tail: cannot open '/home/sinton/sjsu1f/mlbavgwindindexk.csv' for reading: No such file or directory % Total % Received % Xferd Average Speed Time Time Time Current Dload Upload Total Spent Left Speed 0 0 0 0 0 0 0 0 --:--:-- --:--:-- --:--:-- 0 100 432 100 432 0 0 3176 0 --:--:-- --:--:-- --:--:-- 3176 % Total % Received % Xferd Average Speed Time Time Time Current Dload Upload Total Spent Left Speed 0 0 0 0 0 0 0 0 --:--:-- --:--:-- --:--:-- 0 100 430 100 430 0 0 3981 0 --:--:-- --:--:-- --:--:-- 3981 % Total % Received % Xferd Average Speed Time Time Time Current Dload Upload Total Spent Left Speed 0 0 0 0 0 0 0 0 --:--:-- --:--:-- --:--:-- 0 100 430 100 430 0 0 3467 0 --:--:-- --:--:-- --:--:-- 3467 % Total % Received % Xferd Average Speed Time Time Time Current Dload Upload Total Spent Left Speed 0 0 0 0 0 0 0 0 --:--:-- --:--:-- --:--:-- 0 100 429 100 429 0 0 4047 0 --:--:-- --:--:-- --:--:-- 4009 100 429 100 429 0 0 4047 0 --:--:-- --:--:-- --:--:-- 4009 % Total % Received % Xferd Average Speed Time Time Time Current Dload Upload Total Spent Left Speed 0 0 0 0 0 0 0 0 --:--:-- --:--:-- --:--:-- 0 100 428 100 428 0 0 5487 0 --:--:-- --:--:-- --:--:-- 5487 tail: cannot open '/home/sinton/sjsu1f/mlbcalmindexk.csv' for reading: No such file or directory tail: cannot open '/home/sinton/sjsu1f/mlbavgwindindexk.csv' for reading: No such file or directory tail: cannot open '/home/sinton/sjsu1f/mlbcalmindexk.csv' for reading: No such file or directory tail: cannot open '/home/sinton/sjsu1f/mlbavgwindindexk.csv' for reading: No such file or directory tail: cannot open '/home/sinton/sjsu1f/mlbcalmindexk.csv' for reading: No such file or directory tail: cannot open '/home/sinton/sjsu1f/mlbavgwindindexk.csv' for reading: No such file or directory tail: cannot open '/home/sinton/sjsu1f/mlbcalmindexk.csv' for reading: No such file or directory tail: cannot open '/home/sinton/sjsu1f/mlbavgwindindexk.csv' for reading: No such file or directory tail: cannot open '/home/sinton/sjsu1f/mlbcalmindexk.csv' for reading: No such file or directory tail: cannot open '/home/sinton/sjsu1f/mlbavgwindindexk.csv' for reading: No such file or directory tail: cannot open '/home/sinton/sjsu1f/mlbcalmindexk.csv' for reading: No such file or directory tail: cannot open '/home/sinton/sjsu1f/mlbavgwindindexk.csv' for reading: No such file or directory mv: cannot stat '/home/sinton/public_html/John1f/oakstuck': No such file or directory tail: cannot open '/home/sinton/sjsu1f/mlbcalmindexk.csv' for reading: No such file or directory tail: cannot open '/home/sinton/sjsu1f/mlbavgwindindexk.csv' for reading: No such file or directory tail: cannot open '/home/sinton/sjsu1f/mlbcalmindexk.csv' for reading: No such file or directory tail: cannot open '/home/sinton/sjsu1f/mlbavgwindindexk.csv' for reading: No such file or directory tail: cannot open '/home/sinton/sjsu1f/mlbcalmindexk.csv' for reading: No such file or directory tail: cannot open '/home/sinton/sjsu1f/mlbavgwindindexk.csv' for reading: No such file or directory tail: cannot open '/home/sinton/sjsu1f/mlbcalmindexk.csv' for reading: No such file or directory tail: cannot open '/home/sinton/sjsu1f/mlbavgwindindexk.csv' for reading: No such file or directory tail: cannot open '/home/sinton/sjsu1f/mlbcalmindexk.csv' for reading: No such file or directory tail: cannot open '/home/sinton/sjsu1f/mlbavgwindindexk.csv' for reading: No such file or directory tail: cannot open '/home/sinton/sjsu1f/mlbcalmindexk.csv' for reading: No such file or directory tail: cannot open '/home/sinton/sjsu1f/mlbavgwindindexk.csv' for reading: No such file or directory tail: cannot open '/home/sinton/sjsu1f/mlbcalmindexk.csv' for reading: No such file or directory tail: cannot open '/home/sinton/sjsu1f/mlbavgwindindexk.csv' for reading: No such file or directory % Total % Received % Xferd Average Speed Time Time Time Current Dload Upload Total Spent Left Speed 0 0 0 0 0 0 0 0 --:--:-- --:--:-- --:--:-- 0 100 431 100 431 0 0 2952 0 --:--:-- --:--:-- --:--:-- 2952 % Total % Received % Xferd Average Speed Time Time Time Current Dload Upload Total Spent Left Speed 0 0 0 0 0 0 0 0 --:--:-- --:--:-- --:--:-- 0 0 0 0 0 0 0 0 0 --:--:-- --:--:-- --:--:-- 0 100 432 100 432 0 0 1484 0 --:--:-- --:--:-- --:--:-- 1479 % Total % Received % Xferd Average Speed Time Time Time Current Dload Upload Total Spent Left Speed 0 0 0 0 0 0 0 0 --:--:-- --:--:-- --:--:-- 0 100 432 100 432 0 0 3063 0 --:--:-- --:--:-- --:--:-- 3063 % Total % Received % Xferd Average Speed Time Time Time Current Dload Upload Total Spent Left Speed 0 0 0 0 0 0 0 0 --:--:-- --:--:-- --:--:-- 0 100 432 100 432 0 0 1928 0 --:--:-- --:--:-- --:--:-- 1928 % Total % Received % Xferd Average Speed Time Time Time Current Dload Upload Total Spent Left Speed 0 0 0 0 0 0 0 0 --:--:-- --:--:-- --:--:-- 0 100 431 100 431 0 0 4443 0 --:--:-- --:--:-- --:--:-- 4443 tail: cannot open '/home/sinton/sjsu1f/mlbcalmindexk.csv' for reading: No such file or directory tail: cannot open '/home/sinton/sjsu1f/mlbavgwindindexk.csv' for reading: No such file or directory tail: cannot open '/home/sinton/sjsu1f/mlbcalmindexk.csv' for reading: No such file or directory tail: cannot open '/home/sinton/sjsu1f/mlbavgwindindexk.csv' for reading: No such file or directory tail: cannot open '/home/sinton/sjsu1f/mlbcalmindexk.csv' for reading: No such file or directory tail: cannot open '/home/sinton/sjsu1f/mlbavgwindindexk.csv' for reading: No such file or directory tail: cannot open '/home/sinton/sjsu1f/mlbcalmindexk.csv' for reading: No such file or directory tail: cannot open '/home/sinton/sjsu1f/mlbavgwindindexk.csv' for reading: No such file or directory tail: cannot open '/home/sinton/sjsu1f/mlbcalmindexk.csv' for reading: No such file or directory tail: cannot open '/home/sinton/sjsu1f/mlbavgwindindexk.csv' for reading: No such file or directory tail: cannot open '/home/sinton/sjsu1f/mlbcalmindexk.csv' for reading: No such file or directory tail: cannot open '/home/sinton/sjsu1f/mlbavgwindindexk.csv' for reading: No such file or directory tail: cannot open '/home/sinton/sjsu1f/mlbcalmindexk.csv' for reading: No such file or directory tail: cannot open '/home/sinton/sjsu1f/mlbavgwindindexk.csv' for reading: No such file or directory tail: cannot open '/home/sinton/sjsu1f/mlbcalmindexk.csv' for reading: No such file or directory tail: cannot open '/home/sinton/sjsu1f/mlbavgwindindexk.csv' for reading: No such file or directory tail: cannot open '/home/sinton/sjsu1f/mlbcalmindexk.csv' for reading: No such file or directory tail: cannot open '/home/sinton/sjsu1f/mlbavgwindindexk.csv' for reading: No such file or directory tail: cannot open '/home/sinton/sjsu1f/mlbcalmindexk.csv' for reading: No such file or directory tail: cannot open '/home/sinton/sjsu1f/mlbavgwindindexk.csv' for reading: No such file or directory tail: cannot open '/home/sinton/sjsu1f/mlbcalmindexk.csv' for reading: No such file or directory tail: cannot open '/home/sinton/sjsu1f/mlbavgwindindexk.csv' for reading: No such file or directory % Total % Received % Xferd Average Speed Time Time Time Current Dload Upload Total Spent Left Speed 0 0 0 0 0 0 0 0 --:--:-- --:--:-- --:--:-- 0 100 431 100 431 0 0 7696 0 --:--:-- --:--:-- --:--:-- 7696 % Total % Received % Xferd Average Speed Time Time Time Current Dload Upload Total Spent Left Speed 0 0 0 0 0 0 0 0 --:--:-- --:--:-- --:--:-- 0 100 432 100 432 0 0 3823 0 --:--:-- --:--:-- --:--:-- 3823 % Total % Received % Xferd Average Speed Time Time Time Current Dload Upload Total Spent Left Speed 0 0 0 0 0 0 0 0 --:--:-- --:--:-- --:--:-- 0 100 432 100 432 0 0 2899 0 --:--:-- --:--:-- --:--:-- 2899 % Total % Received % Xferd Average Speed Time Time Time Current Dload Upload Total Spent Left Speed 0 0 0 0 0 0 0 0 --:--:-- --:--:-- --:--:-- 0 100 432 100 432 0 0 3176 0 --:--:-- --:--:-- --:--:-- 3153 100 432 100 432 0 0 3176 0 --:--:-- --:--:-- --:--:-- 3153 % Total % Received % Xferd Average Speed Time Time Time Current Dload Upload Total Spent Left Speed 0 0 0 0 0 0 0 0 --:--:-- --:--:-- --:--:-- 0 100 431 100 431 0 0 7561 0 --:--:-- --:--:-- --:--:-- 7561 tail: cannot open '/home/sinton/sjsu1f/mlbcalmindexk.csv' for reading: No such file or directory tail: cannot open '/home/sinton/sjsu1f/mlbavgwindindexk.csv' for reading: No such file or directory tail: cannot open '/home/sinton/sjsu1f/mlbcalmindexk.csv' for reading: No such file or directory tail: cannot open '/home/sinton/sjsu1f/mlbavgwindindexk.csv' for reading: No such file or directory tail: cannot open '/home/sinton/sjsu1f/mlbcalmindexk.csv' for reading: No such file or directory tail: cannot open '/home/sinton/sjsu1f/mlbavgwindindexk.csv' for reading: No such file or directory tail: cannot open '/home/sinton/sjsu1f/mlbcalmindexk.csv' for reading: No such file or directory tail: cannot open '/home/sinton/sjsu1f/mlbavgwindindexk.csv' for reading: No such file or directory tail: cannot open '/home/sinton/sjsu1f/mlbcalmindexk.csv' for reading: No such file or directory tail: cannot open '/home/sinton/sjsu1f/mlbavgwindindexk.csv' for reading: No such file or directory tail: cannot open '/home/sinton/sjsu1f/mlbcalmindexk.csv' for reading: No such file or directory tail: cannot open '/home/sinton/sjsu1f/mlbavgwindindexk.csv' for reading: No such file or directory tail: cannot open '/home/sinton/sjsu1f/mlbcalmindexk.csv' for reading: No such file or directory tail: cannot open '/home/sinton/sjsu1f/mlbavgwindindexk.csv' for reading: No such file or directory tail: cannot open '/home/sinton/sjsu1f/mlbcalmindexk.csv' for reading: No such file or directory tail: cannot open '/home/sinton/sjsu1f/mlbavgwindindexk.csv' for reading: No such file or directory tail: cannot open '/home/sinton/sjsu1f/mlbcalmindexk.csv' for reading: No such file or directory tail: cannot open '/home/sinton/sjsu1f/mlbavgwindindexk.csv' for reading: No such file or directory tail: cannot open '/home/sinton/sjsu1f/mlbcalmindexk.csv' for reading: No such file or directory tail: cannot open '/home/sinton/sjsu1f/mlbavgwindindexk.csv' for reading: No such file or directory tail: cannot open '/home/sinton/sjsu1f/mlbcalmindexk.csv' for reading: No such file or directory tail: cannot open '/home/sinton/sjsu1f/mlbavgwindindexk.csv' for reading: No such file or directory tail: cannot open '/home/sinton/sjsu1f/mlbcalmindexk.csv' for reading: No such file or directory tail: cannot open '/home/sinton/sjsu1f/mlbavgwindindexk.csv' for reading: No such file or directory tail: cannot open '/home/sinton/sjsu1f/mlbcalmindexk.csv' for reading: No such file or directory tail: cannot open '/home/sinton/sjsu1f/mlbavgwindindexk.csv' for reading: No such file or directory tail: cannot open '/home/sinton/sjsu1f/mlbcalmindexk.csv' for reading: No such file or directory tail: cannot open '/home/sinton/sjsu1f/mlbavgwindindexk.csv' for reading: No such file or directory tail: cannot open '/home/sinton/sjsu1f/mlbcalmindexk.csv' for reading: No such file or directory tail: cannot open '/home/sinton/sjsu1f/mlbavgwindindexk.csv' for reading: No such file or directory tail: cannot open '/home/sinton/sjsu1f/mlbcalmindexk.csv' for reading: No such file or directory tail: cannot open '/home/sinton/sjsu1f/mlbavgwindindexk.csv' for reading: No such file or directory tail: cannot open '/home/sinton/sjsu1f/mlbcalmindexk.csv' for reading: No such file or directory tail: cannot open '/home/sinton/sjsu1f/mlbavgwindindexk.csv' for reading: No such file or directory % Total % Received % Xferd Average Speed Time Time Time Current Dload Upload Total Spent Left Speed 0 0 0 0 0 0 0 0 --:--:-- --:--:-- --:--:-- 0 100 432 100 432 0 0 881 0 --:--:-- --:--:-- --:--:-- 881 % Total % Received % Xferd Average Speed Time Time Time Current Dload Upload Total Spent Left Speed 0 0 0 0 0 0 0 0 --:--:-- --:--:-- --:--:-- 0 100 431 100 431 0 0 1683 0 --:--:-- --:--:-- --:--:-- 1683 % Total % Received % Xferd Average Speed Time Time Time Current Dload Upload Total Spent Left Speed 0 0 0 0 0 0 0 0 --:--:-- --:--:-- --:--:-- 0 100 431 100 431 0 0 3561 0 --:--:-- --:--:-- --:--:-- 3561 % Total % Received % Xferd Average Speed Time Time Time Current Dload Upload Total Spent Left Speed 0 0 0 0 0 0 0 0 --:--:-- --:--:-- --:--:-- 0 100 431 100 431 0 0 2677 0 --:--:-- --:--:-- --:--:-- 2677 % Total % Received % Xferd Average Speed Time Time Time Current Dload Upload Total Spent Left Speed 0 0 0 0 0 0 0 0 --:--:-- --:--:-- --:--:-- 0 100 430 100 430 0 0 1477 0 --:--:-- --:--:-- --:--:-- 1477 tail: cannot open '/home/sinton/sjsu1f/mlbcalmindexk.csv' for reading: No such file or directory tail: cannot open '/home/sinton/sjsu1f/mlbavgwindindexk.csv' for reading: No such file or directory tail: cannot open '/home/sinton/sjsu1f/mlbcalmindexk.csv' for reading: No such file or directory tail: cannot open '/home/sinton/sjsu1f/mlbavgwindindexk.csv' for reading: No such file or directory tail: cannot open '/home/sinton/sjsu1f/mlbcalmindexk.csv' for reading: No such file or directory tail: cannot open '/home/sinton/sjsu1f/mlbavgwindindexk.csv' for reading: No such file or directory tail: cannot open '/home/sinton/sjsu1f/mlbcalmindexk.csv' for reading: No such file or directory tail: cannot open '/home/sinton/sjsu1f/mlbavgwindindexk.csv' for reading: No such file or directory tail: cannot open '/home/sinton/sjsu1f/mlbcalmindexk.csv' for reading: No such file or directory tail: cannot open '/home/sinton/sjsu1f/mlbavgwindindexk.csv' for reading: No such file or directory tail: cannot open '/home/sinton/sjsu1f/mlbcalmindexk.csv' for reading: No such file or directory tail: cannot open '/home/sinton/sjsu1f/mlbavgwindindexk.csv' for reading: No such file or directory tail: cannot open '/home/sinton/sjsu1f/mlbcalmindexk.csv' for reading: No such file or directory tail: cannot open '/home/sinton/sjsu1f/mlbavgwindindexk.csv' for reading: No such file or directory tail: cannot open '/home/sinton/sjsu1f/mlbcalmindexk.csv' for reading: No such file or directory tail: cannot open '/home/sinton/sjsu1f/mlbavgwindindexk.csv' for reading: No such file or directory tail: cannot open '/home/sinton/sjsu1f/mlbcalmindexk.csv' for reading: No such file or directory tail: cannot open '/home/sinton/sjsu1f/mlbavgwindindexk.csv' for reading: No such file or directory tail: cannot open '/home/sinton/sjsu1f/mlbcalmindexk.csv' for reading: No such file or directory tail: cannot open '/home/sinton/sjsu1f/mlbavgwindindexk.csv' for reading: No such file or directory mv: cannot stat '/home/sinton/public_html/John1f/oakstuck': No such file or directory tail: cannot open '/home/sinton/sjsu1f/mlbcalmindexk.csv' for reading: No such file or directory tail: cannot open '/home/sinton/sjsu1f/mlbavgwindindexk.csv' for reading: No such file or directory tail: cannot open '/home/sinton/sjsu1f/mlbcalmindexk.csv' for reading: No such file or directory tail: cannot open '/home/sinton/sjsu1f/mlbavgwindindexk.csv' for reading: No such file or directory tail: cannot open '/home/sinton/sjsu1f/mlbcalmindexk.csv' for reading: No such file or directory tail: cannot open '/home/sinton/sjsu1f/mlbavgwindindexk.csv' for reading: No such file or directory % Total % Received % Xferd Average Speed Time Time Time Current Dload Upload Total Spent Left Speed 0 0 0 0 0 0 0 0 --:--:-- --:--:-- --:--:-- 0 100 431 100 431 0 0 1795 0 --:--:-- --:--:-- --:--:-- 1795 % Total % Received % Xferd Average Speed Time Time Time Current Dload Upload Total Spent Left Speed 0 0 0 0 0 0 0 0 --:--:-- --:--:-- --:--:-- 0 100 432 100 432 0 0 2047 0 --:--:-- --:--:-- --:--:-- 2047 % Total % Received % Xferd Average Speed Time Time Time Current Dload Upload Total Spent Left Speed 0 0 0 0 0 0 0 0 --:--:-- --:--:-- --:--:-- 0 100 432 100 432 0 0 8307 0 --:--:-- --:--:-- --:--:-- 8470 % Total % Received % Xferd Average Speed Time Time Time Current Dload Upload Total Spent Left Speed 0 0 0 0 0 0 0 0 --:--:-- --:--:-- --:--:-- 0 100 429 100 429 0 0 8937 0 --:--:-- --:--:-- --:--:-- 9127 % Total % Received % Xferd Average Speed Time Time Time Current Dload Upload Total Spent Left Speed 0 0 0 0 0 0 0 0 --:--:-- --:--:-- --:--:-- 0 100 428 100 428 0 0 7379 0 --:--:-- --:--:-- --:--:-- 7379 tail: cannot open '/home/sinton/sjsu1f/mlbcalmindexk.csv' for reading: No such file or directory tail: cannot open '/home/sinton/sjsu1f/mlbavgwindindexk.csv' for reading: No such file or directory tail: cannot open '/home/sinton/sjsu1f/mlbcalmindexk.csv' for reading: No such file or directory tail: cannot open '/home/sinton/sjsu1f/mlbavgwindindexk.csv' for reading: No such file or directory tail: cannot open '/home/sinton/sjsu1f/mlbcalmindexk.csv' for reading: No such file or directory tail: cannot open '/home/sinton/sjsu1f/mlbavgwindindexk.csv' for reading: No such file or directory tail: cannot open '/home/sinton/sjsu1f/mlbcalmindexk.csv' for reading: No such file or directory tail: cannot open '/home/sinton/sjsu1f/mlbavgwindindexk.csv' for reading: No such file or directory tail: cannot open '/home/sinton/sjsu1f/mlbcalmindexk.csv' for reading: No such file or directory tail: cannot open '/home/sinton/sjsu1f/mlbavgwindindexk.csv' for reading: No such file or directory tail: cannot open '/home/sinton/sjsu1f/mlbcalmindexk.csv' for reading: No such file or directory tail: cannot open '/home/sinton/sjsu1f/mlbavgwindindexk.csv' for reading: No such file or directory tail: cannot open '/home/sinton/sjsu1f/mlbcalmindexk.csv' for reading: No such file or directory tail: cannot open '/home/sinton/sjsu1f/mlbavgwindindexk.csv' for reading: No such file or directory tail: cannot open '/home/sinton/sjsu1f/mlbcalmindexk.csv' for reading: No such file or directory tail: cannot open '/home/sinton/sjsu1f/mlbavgwindindexk.csv' for reading: No such file or directory tail: cannot open '/home/sinton/sjsu1f/mlbcalmindexk.csv' for reading: No such file or directory tail: cannot open '/home/sinton/sjsu1f/mlbavgwindindexk.csv' for reading: No such file or directory tail: cannot open '/home/sinton/sjsu1f/mlbcalmindexk.csv' for reading: No such file or directory tail: cannot open '/home/sinton/sjsu1f/mlbavgwindindexk.csv' for reading: No such file or directory tail: cannot open '/home/sinton/sjsu1f/mlbcalmindexk.csv' for reading: No such file or directory tail: cannot open '/home/sinton/sjsu1f/mlbavgwindindexk.csv' for reading: No such file or directory tail: cannot open '/home/sinton/sjsu1f/mlbcalmindexk.csv' for reading: No such file or directory tail: cannot open '/home/sinton/sjsu1f/mlbavgwindindexk.csv' for reading: No such file or directory tail: cannot open '/home/sinton/sjsu1f/mlbcalmindexk.csv' for reading: No such file or directory tail: cannot open '/home/sinton/sjsu1f/mlbavgwindindexk.csv' for reading: No such file or directory % Total % Received % Xferd Average Speed Time Time Time Current Dload Upload Total Spent Left Speed 0 0 0 0 0 0 0 0 --:--:-- --:--:-- --:--:-- 0 100 432 100 432 0 0 3130 0 --:--:-- --:--:-- --:--:-- 3130 % Total % Received % Xferd Average Speed Time Time Time Current Dload Upload Total Spent Left Speed 0 0 0 0 0 0 0 0 --:--:-- --:--:-- --:--:-- 0 100 432 100 432 0 0 4453 0 --:--:-- --:--:-- --:--:-- 4453 % Total % Received % Xferd Average Speed Time Time Time Current Dload Upload Total Spent Left Speed 0 0 0 0 0 0 0 0 --:--:-- --:--:-- --:--:-- 0 100 429 100 429 0 0 6128 0 --:--:-- --:--:-- --:--:-- 6128 % Total % Received % Xferd Average Speed Time Time Time Current Dload Upload Total Spent Left Speed 0 0 0 0 0 0 0 0 --:--:-- --:--:-- --:--:-- 0 100 432 100 432 0 0 4075 0 --:--:-- --:--:-- --:--:-- 4075 100 432 100 432 0 0 4075 0 --:--:-- --:--:-- --:--:-- 4037 % Total % Received % Xferd Average Speed Time Time Time Current Dload Upload Total Spent Left Speed 0 0 0 0 0 0 0 0 --:--:-- --:--:-- --:--:-- 0 100 431 100 431 0 0 5130 0 --:--:-- --:--:-- --:--:-- 5130 tail: cannot open '/home/sinton/sjsu1f/mlbcalmindexk.csv' for reading: No such file or directory tail: cannot open '/home/sinton/sjsu1f/mlbavgwindindexk.csv' for reading: No such file or directory tail: cannot open '/home/sinton/sjsu1f/mlbcalmindexk.csv' for reading: No such file or directory tail: cannot open '/home/sinton/sjsu1f/mlbavgwindindexk.csv' for reading: No such file or directory tail: cannot open '/home/sinton/sjsu1f/mlbcalmindexk.csv' for reading: No such file or directory tail: cannot open '/home/sinton/sjsu1f/mlbavgwindindexk.csv' for reading: No such file or directory tail: cannot open '/home/sinton/sjsu1f/mlbcalmindexk.csv' for reading: No such file or directory tail: cannot open '/home/sinton/sjsu1f/mlbavgwindindexk.csv' for reading: No such file or directory tail: cannot open '/home/sinton/sjsu1f/mlbcalmindexk.csv' for reading: No such file or directory tail: cannot open '/home/sinton/sjsu1f/mlbavgwindindexk.csv' for reading: No such file or directory tail: cannot open '/home/sinton/sjsu1f/mlbcalmindexk.csv' for reading: No such file or directory tail: cannot open '/home/sinton/sjsu1f/mlbavgwindindexk.csv' for reading: No such file or directory tail: cannot open '/home/sinton/sjsu1f/mlbcalmindexk.csv' for reading: No such file or directory tail: cannot open '/home/sinton/sjsu1f/mlbavgwindindexk.csv' for reading: No such file or directory tail: cannot open '/home/sinton/sjsu1f/mlbcalmindexk.csv' for reading: No such file or directory tail: cannot open '/home/sinton/sjsu1f/mlbavgwindindexk.csv' for reading: No such file or directory tail: cannot open '/home/sinton/sjsu1f/mlbcalmindexk.csv' for reading: No such file or directory tail: cannot open '/home/sinton/sjsu1f/mlbavgwindindexk.csv' for reading: No such file or directory tail: cannot open '/home/sinton/sjsu1f/mlbcalmindexk.csv' for reading: No such file or directory tail: cannot open '/home/sinton/sjsu1f/mlbavgwindindexk.csv' for reading: No such file or directory tail: cannot open '/home/sinton/sjsu1f/mlbcalmindexk.csv' for reading: No such file or directory tail: cannot open '/home/sinton/sjsu1f/mlbavgwindindexk.csv' for reading: No such file or directory tail: cannot open '/home/sinton/sjsu1f/mlbcalmindexk.csv' for reading: No such file or directory tail: cannot open '/home/sinton/sjsu1f/mlbavgwindindexk.csv' for reading: No such file or directory tail: cannot open '/home/sinton/sjsu1f/mlbcalmindexk.csv' for reading: No such file or directory tail: cannot open '/home/sinton/sjsu1f/mlbavgwindindexk.csv' for reading: No such file or directory tail: cannot open '/home/sinton/sjsu1f/mlbcalmindexk.csv' for reading: No such file or directory tail: cannot open '/home/sinton/sjsu1f/mlbavgwindindexk.csv' for reading: No such file or directory % Total % Received % Xferd Average Speed Time Time Time Current Dload Upload Total Spent Left Speed 0 0 0 0 0 0 0 0 --:--:-- --:--:-- --:--:-- 0 100 429 100 429 0 0 4009 0 --:--:-- --:--:-- --:--:-- 4009 % Total % Received % Xferd Average Speed Time Time Time Current Dload Upload Total Spent Left Speed 0 0 0 0 0 0 0 0 --:--:-- --:--:-- --:--:-- 0 100 432 100 432 0 0 7448 0 --:--:-- --:--:-- --:--:-- 7448 % Total % Received % Xferd Average Speed Time Time Time Current Dload Upload Total Spent Left Speed 0 0 0 0 0 0 0 0 --:--:-- --:--:-- --:--:-- 0 100 431 100 431 0 0 3013 0 --:--:-- --:--:-- --:--:-- 3013 % Total % Received % Xferd Average Speed Time Time Time Current Dload Upload Total Spent Left Speed 0 0 0 0 0 0 0 0 --:--:-- --:--:-- --:--:-- 0 100 431 100 431 0 0 11648 0 --:--:-- --:--:-- --:--:-- 11972 % Total % Received % Xferd Average Speed Time Time Time Current Dload Upload Total Spent Left Speed 0 0 0 0 0 0 0 0 --:--:-- --:--:-- --:--:-- 0 100 430 100 430 0 0 4343 0 --:--:-- --:--:-- --:--:-- 4300 100 430 100 430 0 0 4343 0 --:--:-- --:--:-- --:--:-- 4300 tail: cannot open '/home/sinton/sjsu1f/mlbcalmindexk.csv' for reading: No such file or directory tail: cannot open '/home/sinton/sjsu1f/mlbavgwindindexk.csv' for reading: No such file or directory tail: cannot open '/home/sinton/sjsu1f/mlbcalmindexk.csv' for reading: No such file or directory tail: cannot open '/home/sinton/sjsu1f/mlbavgwindindexk.csv' for reading: No such file or directory tail: cannot open '/home/sinton/sjsu1f/mlbcalmindexk.csv' for reading: No such file or directory tail: cannot open '/home/sinton/sjsu1f/mlbavgwindindexk.csv' for reading: No such file or directory tail: cannot open '/home/sinton/sjsu1f/mlbcalmindexk.csv' for reading: No such file or directory tail: cannot open '/home/sinton/sjsu1f/mlbavgwindindexk.csv' for reading: No such file or directory tail: cannot open '/home/sinton/sjsu1f/mlbcalmindexk.csv' for reading: No such file or directory tail: cannot open '/home/sinton/sjsu1f/mlbavgwindindexk.csv' for reading: No such file or directory tail: cannot open '/home/sinton/sjsu1f/mlbcalmindexk.csv' for reading: No such file or directory tail: cannot open '/home/sinton/sjsu1f/mlbavgwindindexk.csv' for reading: No such file or directory tail: cannot open '/home/sinton/sjsu1f/mlbcalmindexk.csv' for reading: No such file or directory tail: cannot open '/home/sinton/sjsu1f/mlbavgwindindexk.csv' for reading: No such file or directory tail: cannot open '/home/sinton/sjsu1f/mlbcalmindexk.csv' for reading: No such file or directory tail: cannot open '/home/sinton/sjsu1f/mlbavgwindindexk.csv' for reading: No such file or directory tail: cannot open '/home/sinton/sjsu1f/mlbcalmindexk.csv' for reading: No such file or directory tail: cannot open '/home/sinton/sjsu1f/mlbavgwindindexk.csv' for reading: No such file or directory tail: cannot open '/home/sinton/sjsu1f/mlbcalmindexk.csv' for reading: No such file or directory tail: cannot open '/home/sinton/sjsu1f/mlbavgwindindexk.csv' for reading: No such file or directory tail: cannot open '/home/sinton/sjsu1f/mlbcalmindexk.csv' for reading: No such file or directory tail: cannot open '/home/sinton/sjsu1f/mlbavgwindindexk.csv' for reading: No such file or directory tail: cannot open '/home/sinton/sjsu1f/mlbcalmindexk.csv' for reading: No such file or directory tail: cannot open '/home/sinton/sjsu1f/mlbavgwindindexk.csv' for reading: No such file or directory tail: cannot open '/home/sinton/sjsu1f/mlbcalmindexk.csv' for reading: No such file or directory tail: cannot open '/home/sinton/sjsu1f/mlbavgwindindexk.csv' for reading: No such file or directory tail: cannot open '/home/sinton/sjsu1f/mlbcalmindexk.csv' for reading: No such file or directory tail: cannot open '/home/sinton/sjsu1f/mlbavgwindindexk.csv' for reading: No such file or directory % Total % Received % Xferd Average Speed Time Time Time Current Dload Upload Total Spent Left Speed 0 0 0 0 0 0 0 0 --:--:-- --:--:-- --:--:-- 0 100 432 100 432 0 0 4747 0 --:--:-- --:--:-- --:--:-- 4747 % Total % Received % Xferd Average Speed Time Time Time Current Dload Upload Total Spent Left Speed 0 0 0 0 0 0 0 0 --:--:-- --:--:-- --:--:-- 0 100 432 100 432 0 0 2086 0 --:--:-- --:--:-- --:--:-- 2086 % Total % Received % Xferd Average Speed Time Time Time Current Dload Upload Total Spent Left Speed 0 0 0 0 0 0 0 0 --:--:-- --:--:-- --:--:-- 0 100 431 100 431 0 0 8450 0 --:--:-- --:--:-- --:--:-- 8620 % Total % Received % Xferd Average Speed Time Time Time Current Dload Upload Total Spent Left Speed 0 0 0 0 0 0 0 0 --:--:-- --:--:-- --:--:-- 0 100 428 100 428 0 0 1725 0 --:--:-- --:--:-- --:--:-- 1725 100 428 100 428 0 0 1725 0 --:--:-- --:--:-- --:--:-- 1718 % Total % Received % Xferd Average Speed Time Time Time Current Dload Upload Total Spent Left Speed 0 0 0 0 0 0 0 0 --:--:-- --:--:-- --:--:-- 0 100 427 100 427 0 0 10414 0 --:--:-- --:--:-- --:--:-- 10414 tail: cannot open '/home/sinton/sjsu1f/mlbcalmindexk.csv' for reading: No such file or directory tail: cannot open '/home/sinton/sjsu1f/mlbavgwindindexk.csv' for reading: No such file or directory tail: cannot open '/home/sinton/sjsu1f/mlbcalmindexk.csv' for reading: No such file or directory tail: cannot open '/home/sinton/sjsu1f/mlbavgwindindexk.csv' for reading: No such file or directory tail: cannot open '/home/sinton/sjsu1f/mlbcalmindexk.csv' for reading: No such file or directory tail: cannot open '/home/sinton/sjsu1f/mlbavgwindindexk.csv' for reading: No such file or directory tail: cannot open '/home/sinton/sjsu1f/mlbcalmindexk.csv' for reading: No such file or directory tail: cannot open '/home/sinton/sjsu1f/mlbavgwindindexk.csv' for reading: No such file or directory tail: cannot open '/home/sinton/sjsu1f/mlbcalmindexk.csv' for reading: No such file or directory tail: cannot open '/home/sinton/sjsu1f/mlbavgwindindexk.csv' for reading: No such file or directory tail: cannot open '/home/sinton/sjsu1f/mlbcalmindexk.csv' for reading: No such file or directory tail: cannot open '/home/sinton/sjsu1f/mlbavgwindindexk.csv' for reading: No such file or directory tail: cannot open '/home/sinton/sjsu1f/mlbcalmindexk.csv' for reading: No such file or directory tail: cannot open '/home/sinton/sjsu1f/mlbavgwindindexk.csv' for reading: No such file or directory tail: cannot open '/home/sinton/sjsu1f/mlbcalmindexk.csv' for reading: No such file or directory tail: cannot open '/home/sinton/sjsu1f/mlbavgwindindexk.csv' for reading: No such file or directory tail: cannot open '/home/sinton/sjsu1f/mlbcalmindexk.csv' for reading: No such file or directory tail: cannot open '/home/sinton/sjsu1f/mlbavgwindindexk.csv' for reading: No such file or directory tail: cannot open '/home/sinton/sjsu1f/mlbcalmindexk.csv' for reading: No such file or directory tail: cannot open '/home/sinton/sjsu1f/mlbavgwindindexk.csv' for reading: No such file or directory tail: cannot open '/home/sinton/sjsu1f/mlbcalmindexk.csv' for reading: No such file or directory tail: cannot open '/home/sinton/sjsu1f/mlbavgwindindexk.csv' for reading: No such file or directory % Total % Received % Xferd Average Speed Time Time Time Current Dload Upload Total Spent Left Speed 0 0 0 0 0 0 0 0 --:--:-- --:--:-- --:--:-- 0 100 432 100 432 0 0 3000 0 --:--:-- --:--:-- --:--:-- 3020 % Total % Received % Xferd Average Speed Time Time Time Current Dload Upload Total Spent Left Speed 0 0 0 0 0 0 0 0 --:--:-- --:--:-- --:--:-- 0 100 432 100 432 0 0 3020 0 --:--:-- --:--:-- --:--:-- 3020 % Total % Received % Xferd Average Speed Time Time Time Current Dload Upload Total Spent Left Speed 0 0 0 0 0 0 0 0 --:--:-- --:--:-- --:--:-- 0 100 431 100 431 0 0 4736 0 --:--:-- --:--:-- --:--:-- 4736 % Total % Received % Xferd Average Speed Time Time Time Current Dload Upload Total Spent Left Speed 0 0 0 0 0 0 0 0 --:--:-- --:--:-- --:--:-- 0 100 428 100 428 0 0 1550 0 --:--:-- --:--:-- --:--:-- 1556 % Total % Received % Xferd Average Speed Time Time Time Current Dload Upload Total Spent Left Speed 0 0 0 0 0 0 0 0 --:--:-- --:--:-- --:--:-- 0 100 427 100 427 0 0 1848 0 --:--:-- --:--:-- --:--:-- 1848 tail: cannot open '/home/sinton/sjsu1f/mlbcalmindexk.csv' for reading: No such file or directory tail: cannot open '/home/sinton/sjsu1f/mlbavgwindindexk.csv' for reading: No such file or directory tail: cannot open '/home/sinton/sjsu1f/mlbcalmindexk.csv' for reading: No such file or directory tail: cannot open '/home/sinton/sjsu1f/mlbavgwindindexk.csv' for reading: No such file or directory tail: cannot open '/home/sinton/sjsu1f/mlbcalmindexk.csv' for reading: No such file or directory tail: cannot open '/home/sinton/sjsu1f/mlbavgwindindexk.csv' for reading: No such file or directory tail: cannot open '/home/sinton/sjsu1f/mlbcalmindexk.csv' for reading: No such file or directory tail: cannot open '/home/sinton/sjsu1f/mlbavgwindindexk.csv' for reading: No such file or directory tail: cannot open '/home/sinton/sjsu1f/mlbcalmindexk.csv' for reading: No such file or directory tail: cannot open '/home/sinton/sjsu1f/mlbavgwindindexk.csv' for reading: No such file or directory tail: cannot open '/home/sinton/sjsu1f/mlbcalmindexk.csv' for reading: No such file or directory tail: cannot open '/home/sinton/sjsu1f/mlbavgwindindexk.csv' for reading: No such file or directory tail: cannot open '/home/sinton/sjsu1f/mlbcalmindexk.csv' for reading: No such file or directory tail: cannot open '/home/sinton/sjsu1f/mlbavgwindindexk.csv' for reading: No such file or directory tail: cannot open '/home/sinton/sjsu1f/mlbcalmindexk.csv' for reading: No such file or directory tail: cannot open '/home/sinton/sjsu1f/mlbavgwindindexk.csv' for reading: No such file or directory mv: cannot stat '/home/sinton/public_html/John1f/oakstuck': No such file or directory tail: cannot open '/home/sinton/sjsu1f/mlbcalmindexk.csv' for reading: No such file or directory tail: cannot open '/home/sinton/sjsu1f/mlbavgwindindexk.csv' for reading: No such file or directory tail: cannot open '/home/sinton/sjsu1f/mlbcalmindexk.csv' for reading: No such file or directory tail: cannot open '/home/sinton/sjsu1f/mlbavgwindindexk.csv' for reading: No such file or directory tail: cannot open '/home/sinton/sjsu1f/mlbcalmindexk.csv' for reading: No such file or directory tail: cannot open '/home/sinton/sjsu1f/mlbavgwindindexk.csv' for reading: No such file or directory tail: cannot open '/home/sinton/sjsu1f/mlbcalmindexk.csv' for reading: No such file or directory tail: cannot open '/home/sinton/sjsu1f/mlbavgwindindexk.csv' for reading: No such file or directory tail: cannot open '/home/sinton/sjsu1f/mlbcalmindexk.csv' for reading: No such file or directory tail: cannot open '/home/sinton/sjsu1f/mlbavgwindindexk.csv' for reading: No such file or directory tail: cannot open '/home/sinton/sjsu1f/mlbcalmindexk.csv' for reading: No such file or directory tail: cannot open '/home/sinton/sjsu1f/mlbavgwindindexk.csv' for reading: No such file or directory tail: cannot open '/home/sinton/sjsu1f/mlbcalmindexk.csv' for reading: No such file or directory tail: cannot open '/home/sinton/sjsu1f/mlbavgwindindexk.csv' for reading: No such file or directory % Total % Received % Xferd Average Speed Time Time Time Current Dload Upload Total Spent Left Speed 0 0 0 0 0 0 0 0 --:--:-- --:--:-- --:--:-- 0 100 432 100 432 0 0 1937 0 --:--:-- --:--:-- --:--:-- 1937 % Total % Received % Xferd Average Speed Time Time Time Current Dload Upload Total Spent Left Speed 0 0 0 0 0 0 0 0 --:--:-- --:--:-- --:--:-- 0 100 429 100 429 0 0 2750 0 --:--:-- --:--:-- --:--:-- 2750 % Total % Received % Xferd Average Speed Time Time Time Current Dload Upload Total Spent Left Speed 0 0 0 0 0 0 0 0 --:--:-- --:--:-- --:--:-- 0 100 431 100 431 0 0 3475 0 --:--:-- --:--:-- --:--:-- 3475 % Total % Received % Xferd Average Speed Time Time Time Current Dload Upload Total Spent Left Speed 0 0 0 0 0 0 0 0 --:--:-- --:--:-- --:--:-- 0 0 0 0 0 0 0 0 0 --:--:-- --:--:-- --:--:-- 0 100 431 100 431 0 0 1849 0 --:--:-- --:--:-- --:--:-- 1841 % Total % Received % Xferd Average Speed Time Time Time Current Dload Upload Total Spent Left Speed 0 0 0 0 0 0 0 0 --:--:-- --:--:-- --:--:-- 0 100 430 100 430 0 0 1616 0 --:--:-- --:--:-- --:--:-- 1616 tail: cannot open '/home/sinton/sjsu1f/mlbcalmindexk.csv' for reading: No such file or directory tail: cannot open '/home/sinton/sjsu1f/mlbavgwindindexk.csv' for reading: No such file or directory tail: cannot open '/home/sinton/sjsu1f/mlbcalmindexk.csv' for reading: No such file or directory tail: cannot open '/home/sinton/sjsu1f/mlbavgwindindexk.csv' for reading: No such file or directory tail: cannot open '/home/sinton/sjsu1f/mlbcalmindexk.csv' for reading: No such file or directory tail: cannot open '/home/sinton/sjsu1f/mlbavgwindindexk.csv' for reading: No such file or directory tail: cannot open '/home/sinton/sjsu1f/mlbcalmindexk.csv' for reading: No such file or directory tail: cannot open '/home/sinton/sjsu1f/mlbavgwindindexk.csv' for reading: No such file or directory tail: cannot open '/home/sinton/sjsu1f/mlbcalmindexk.csv' for reading: No such file or directory tail: cannot open '/home/sinton/sjsu1f/mlbavgwindindexk.csv' for reading: No such file or directory tail: cannot open '/home/sinton/sjsu1f/mlbcalmindexk.csv' for reading: No such file or directory tail: cannot open '/home/sinton/sjsu1f/mlbavgwindindexk.csv' for reading: No such file or directory tail: cannot open '/home/sinton/sjsu1f/mlbcalmindexk.csv' for reading: No such file or directory tail: cannot open '/home/sinton/sjsu1f/mlbavgwindindexk.csv' for reading: No such file or directory tail: cannot open '/home/sinton/sjsu1f/mlbcalmindexk.csv' for reading: No such file or directory tail: cannot open '/home/sinton/sjsu1f/mlbavgwindindexk.csv' for reading: No such file or directory tail: cannot open '/home/sinton/sjsu1f/mlbcalmindexk.csv' for reading: No such file or directory tail: cannot open '/home/sinton/sjsu1f/mlbavgwindindexk.csv' for reading: No such file or directory tail: cannot open '/home/sinton/sjsu1f/mlbcalmindexk.csv' for reading: No such file or directory tail: cannot open '/home/sinton/sjsu1f/mlbavgwindindexk.csv' for reading: No such file or directory tail: cannot open '/home/sinton/sjsu1f/mlbcalmindexk.csv' for reading: No such file or directory tail: cannot open '/home/sinton/sjsu1f/mlbavgwindindexk.csv' for reading: No such file or directory tail: cannot open '/home/sinton/sjsu1f/mlbcalmindexk.csv' for reading: No such file or directory tail: cannot open '/home/sinton/sjsu1f/mlbavgwindindexk.csv' for reading: No such file or directory tail: cannot open '/home/sinton/sjsu1f/mlbcalmindexk.csv' for reading: No such file or directory tail: cannot open '/home/sinton/sjsu1f/mlbavgwindindexk.csv' for reading: No such file or directory tail: cannot open '/home/sinton/sjsu1f/mlbcalmindexk.csv' for reading: No such file or directory tail: cannot open '/home/sinton/sjsu1f/mlbavgwindindexk.csv' for reading: No such file or directory % Total % Received % Xferd Average Speed Time Time Time Current Dload Upload Total Spent Left Speed 0 0 0 0 0 0 0 0 --:--:-- --:--:-- --:--:-- 0 100 429 100 429 0 0 5500 0 --:--:-- --:--:-- --:--:-- 5500 % Total % Received % Xferd Average Speed Time Time Time Current Dload Upload Total Spent Left Speed 0 0 0 0 0 0 0 0 --:--:-- --:--:-- --:--:-- 0 100 431 100 431 0 0 4788 0 --:--:-- --:--:-- --:--:-- 4788 % Total % Received % Xferd Average Speed Time Time Time Current Dload Upload Total Spent Left Speed 0 0 0 0 0 0 0 0 --:--:-- --:--:-- --:--:-- 0 100 431 100 431 0 0 1638 0 --:--:-- --:--:-- --:--:-- 1632 100 431 100 431 0 0 1632 0 --:--:-- --:--:-- --:--:-- 1632 % Total % Received % Xferd Average Speed Time Time Time Current Dload Upload Total Spent Left Speed 0 0 0 0 0 0 0 0 --:--:-- --:--:-- --:--:-- 0 100 431 100 431 0 0 6432 0 --:--:-- --:--:-- --:--:-- 6432 % Total % Received % Xferd Average Speed Time Time Time Current Dload Upload Total Spent Left Speed 0 0 0 0 0 0 0 0 --:--:-- --:--:-- --:--:-- 0 100 430 100 430 0 0 1747 0 --:--:-- --:--:-- --:--:-- 1755 cat: /home/sinton/1f/weather1.txt: No such file or directory cat: /home/sinton/1f/weather2.txt: No such file or directory cat: /home/sinton/1f/weather3.txt: No such file or directory cat: /home/sinton/1f/weather4.txt: No such file or directory tail: cannot open '/home/sinton/sjsu1f/mlbcalmindexk.csv' for reading: No such file or directory tail: cannot open '/home/sinton/sjsu1f/mlbavgwindindexk.csv' for reading: No such file or directory tail: cannot open '/home/sinton/sjsu1f/mlbcalmindexk.csv' for reading: No such file or directory tail: cannot open '/home/sinton/sjsu1f/mlbavgwindindexk.csv' for reading: No such file or directory tail: cannot open '/home/sinton/sjsu1f/mlbcalmindexk.csv' for reading: No such file or directory tail: cannot open '/home/sinton/sjsu1f/mlbavgwindindexk.csv' for reading: No such file or directory tail: cannot open '/home/sinton/sjsu1f/mlbcalmindexk.csv' for reading: No such file or directory tail: cannot open '/home/sinton/sjsu1f/mlbavgwindindexk.csv' for reading: No such file or directory tail: cannot open '/home/sinton/sjsu1f/mlbcalmindexk.csv' for reading: No such file or directory tail: cannot open '/home/sinton/sjsu1f/mlbavgwindindexk.csv' for reading: No such file or directory tail: cannot open '/home/sinton/sjsu1f/mlbcalmindexk.csv' for reading: No such file or directory tail: cannot open '/home/sinton/sjsu1f/mlbavgwindindexk.csv' for reading: No such file or directory tail: cannot open '/home/sinton/sjsu1f/mlbcalmindexk.csv' for reading: No such file or directory tail: cannot open '/home/sinton/sjsu1f/mlbavgwindindexk.csv' for reading: No such file or directory tail: cannot open '/home/sinton/sjsu1f/mlbcalmindexk.csv' for reading: No such file or directory tail: cannot open '/home/sinton/sjsu1f/mlbavgwindindexk.csv' for reading: No such file or directory tail: cannot open '/home/sinton/sjsu1f/mlbcalmindexk.csv' for reading: No such file or directory tail: cannot open '/home/sinton/sjsu1f/mlbavgwindindexk.csv' for reading: No such file or directory tail: cannot open '/home/sinton/sjsu1f/mlbcalmindexk.csv' for reading: No such file or directory tail: cannot open '/home/sinton/sjsu1f/mlbavgwindindexk.csv' for reading: No such file or directory tail: cannot open '/home/sinton/sjsu1f/mlbcalmindexk.csv' for reading: No such file or directory tail: cannot open '/home/sinton/sjsu1f/mlbavgwindindexk.csv' for reading: No such file or directory tail: cannot open '/home/sinton/sjsu1f/mlbcalmindexk.csv' for reading: No such file or directory tail: cannot open '/home/sinton/sjsu1f/mlbavgwindindexk.csv' for reading: No such file or directory tail: cannot open '/home/sinton/sjsu1f/mlbcalmindexk.csv' for reading: No such file or directory tail: cannot open '/home/sinton/sjsu1f/mlbavgwindindexk.csv' for reading: No such file or directory tail: cannot open '/home/sinton/sjsu1f/mlbcalmindexk.csv' for reading: No such file or directory tail: cannot open '/home/sinton/sjsu1f/mlbavgwindindexk.csv' for reading: No such file or directory % Total % Received % Xferd Average Speed Time Time Time Current Dload Upload Total Spent Left Speed 0 0 0 0 0 0 0 0 --:--:-- --:--:-- --:--:-- 0 100 431 100 431 0 0 6734 0 --:--:-- --:--:-- --:--:-- 6734 % Total % Received % Xferd Average Speed Time Time Time Current Dload Upload Total Spent Left Speed 0 0 0 0 0 0 0 0 --:--:-- --:--:-- --:--:-- 0 100 432 100 432 0 0 2215 0 --:--:-- --:--:-- --:--:-- 2215 % Total % Received % Xferd Average Speed Time Time Time Current Dload Upload Total Spent Left Speed 0 0 0 0 0 0 0 0 --:--:-- --:--:-- --:--:-- 0 100 430 100 430 0 0 2965 0 --:--:-- --:--:-- --:--:-- 2965 % Total % Received % Xferd Average Speed Time Time Time Current Dload Upload Total Spent Left Speed 0 0 0 0 0 0 0 0 --:--:-- --:--:-- --:--:-- 0 100 428 100 428 0 0 8230 0 --:--:-- --:--:-- --:--:-- 8230 % Total % Received % Xferd Average Speed Time Time Time Current Dload Upload Total Spent Left Speed 0 0 0 0 0 0 0 0 --:--:-- --:--:-- --:--:-- 0 100 427 100 427 0 0 10166 0 --:--:-- --:--:-- --:--:-- 10166 tail: cannot open '/home/sinton/sjsu1f/mlbcalmindexk.csv' for reading: No such file or directory tail: cannot open '/home/sinton/sjsu1f/mlbavgwindindexk.csv' for reading: No such file or directory tail: cannot open '/home/sinton/sjsu1f/mlbcalmindexk.csv' for reading: No such file or directory tail: cannot open '/home/sinton/sjsu1f/mlbavgwindindexk.csv' for reading: No such file or directory tail: cannot open '/home/sinton/sjsu1f/mlbcalmindexk.csv' for reading: No such file or directory tail: cannot open '/home/sinton/sjsu1f/mlbavgwindindexk.csv' for reading: No such file or directory tail: cannot open '/home/sinton/sjsu1f/mlbcalmindexk.csv' for reading: No such file or directory tail: cannot open '/home/sinton/sjsu1f/mlbavgwindindexk.csv' for reading: No such file or directory tail: cannot open '/home/sinton/sjsu1f/mlbcalmindexk.csv' for reading: No such file or directory tail: cannot open '/home/sinton/sjsu1f/mlbavgwindindexk.csv' for reading: No such file or directory tail: cannot open '/home/sinton/sjsu1f/mlbcalmindexk.csv' for reading: No such file or directory tail: cannot open '/home/sinton/sjsu1f/mlbavgwindindexk.csv' for reading: No such file or directory tail: cannot open '/home/sinton/sjsu1f/mlbcalmindexk.csv' for reading: No such file or directory tail: cannot open '/home/sinton/sjsu1f/mlbavgwindindexk.csv' for reading: No such file or directory tail: cannot open '/home/sinton/sjsu1f/mlbcalmindexk.csv' for reading: No such file or directory tail: cannot open '/home/sinton/sjsu1f/mlbavgwindindexk.csv' for reading: No such file or directory tail: cannot open '/home/sinton/sjsu1f/mlbcalmindexk.csv' for reading: No such file or directory tail: cannot open '/home/sinton/sjsu1f/mlbavgwindindexk.csv' for reading: No such file or directory tail: cannot open '/home/sinton/sjsu1f/mlbcalmindexk.csv' for reading: No such file or directory tail: cannot open '/home/sinton/sjsu1f/mlbavgwindindexk.csv' for reading: No such file or directory tail: cannot open '/home/sinton/sjsu1f/mlbcalmindexk.csv' for reading: No such file or directory tail: cannot open '/home/sinton/sjsu1f/mlbavgwindindexk.csv' for reading: No such file or directory tail: cannot open '/home/sinton/sjsu1f/mlbcalmindexk.csv' for reading: No such file or directory tail: cannot open '/home/sinton/sjsu1f/mlbavgwindindexk.csv' for reading: No such file or directory tail: cannot open '/home/sinton/sjsu1f/mlbcalmindexk.csv' for reading: No such file or directory tail: cannot open '/home/sinton/sjsu1f/mlbavgwindindexk.csv' for reading: No such file or directory % Total % Received % Xferd Average Speed Time Time Time Current Dload Upload Total Spent Left Speed 0 0 0 0 0 0 0 0 --:--:-- --:--:-- --:--:-- 0 100 431 100 431 0 0 4897 0 --:--:-- --:--:-- --:--:-- 4897 % Total % Received % Xferd Average Speed Time Time Time Current Dload Upload Total Spent Left Speed 0 0 0 0 0 0 0 0 --:--:-- --:--:-- --:--:-- 0 100 431 100 431 0 0 3341 0 --:--:-- --:--:-- --:--:-- 3367 % Total % Received % Xferd Average Speed Time Time Time Current Dload Upload Total Spent Left Speed 0 0 0 0 0 0 0 0 --:--:-- --:--:-- --:--:-- 0 100 430 100 430 0 0 9148 0 --:--:-- --:--:-- --:--:-- 9148 % Total % Received % Xferd Average Speed Time Time Time Current Dload Upload Total Spent Left Speed 0 0 0 0 0 0 0 0 --:--:-- --:--:-- --:--:-- 0 100 432 100 432 0 0 2426 0 --:--:-- --:--:-- --:--:-- 2426 % Total % Received % Xferd Average Speed Time Time Time Current Dload Upload Total Spent Left Speed 0 0 0 0 0 0 0 0 --:--:-- --:--:-- --:--:-- 0 100 431 100 431 0 0 3100 0 --:--:-- --:--:-- --:--:-- 3100 tail: cannot open '/home/sinton/sjsu1f/mlbcalmindexk.csv' for reading: No such file or directory tail: cannot open '/home/sinton/sjsu1f/mlbavgwindindexk.csv' for reading: No such file or directory tail: cannot open '/home/sinton/sjsu1f/mlbcalmindexk.csv' for reading: No such file or directory tail: cannot open '/home/sinton/sjsu1f/mlbavgwindindexk.csv' for reading: No such file or directory tail: cannot open '/home/sinton/sjsu1f/mlbcalmindexk.csv' for reading: No such file or directory tail: cannot open '/home/sinton/sjsu1f/mlbavgwindindexk.csv' for reading: No such file or directory tail: cannot open '/home/sinton/sjsu1f/mlbcalmindexk.csv' for reading: No such file or directory tail: cannot open '/home/sinton/sjsu1f/mlbavgwindindexk.csv' for reading: No such file or directory tail: cannot open '/home/sinton/sjsu1f/mlbcalmindexk.csv' for reading: No such file or directory tail: cannot open '/home/sinton/sjsu1f/mlbavgwindindexk.csv' for reading: No such file or directory tail: cannot open '/home/sinton/sjsu1f/mlbcalmindexk.csv' for reading: No such file or directory tail: cannot open '/home/sinton/sjsu1f/mlbavgwindindexk.csv' for reading: No such file or directory tail: cannot open '/home/sinton/sjsu1f/mlbcalmindexk.csv' for reading: No such file or directory tail: cannot open '/home/sinton/sjsu1f/mlbavgwindindexk.csv' for reading: No such file or directory tail: cannot open '/home/sinton/sjsu1f/mlbcalmindexk.csv' for reading: No such file or directory tail: cannot open '/home/sinton/sjsu1f/mlbavgwindindexk.csv' for reading: No such file or directory tail: cannot open '/home/sinton/sjsu1f/mlbcalmindexk.csv' for reading: No such file or directory tail: cannot open '/home/sinton/sjsu1f/mlbavgwindindexk.csv' for reading: No such file or directory tail: cannot open '/home/sinton/sjsu1f/mlbcalmindexk.csv' for reading: No such file or directory tail: cannot open '/home/sinton/sjsu1f/mlbavgwindindexk.csv' for reading: No such file or directory tail: cannot open '/home/sinton/sjsu1f/mlbcalmindexk.csv' for reading: No such file or directory tail: cannot open '/home/sinton/sjsu1f/mlbavgwindindexk.csv' for reading: No such file or directory tail: cannot open '/home/sinton/sjsu1f/mlbcalmindexk.csv' for reading: No such file or directory tail: cannot open '/home/sinton/sjsu1f/mlbavgwindindexk.csv' for reading: No such file or directory tail: cannot open '/home/sinton/sjsu1f/mlbcalmindexk.csv' for reading: No such file or directory tail: cannot open '/home/sinton/sjsu1f/mlbavgwindindexk.csv' for reading: No such file or directory tail: cannot open '/home/sinton/sjsu1f/mlbcalmindexk.csv' for reading: No such file or directory tail: cannot open '/home/sinton/sjsu1f/mlbavgwindindexk.csv' for reading: No such file or directory % Total % Received % Xferd Average Speed Time Time Time Current Dload Upload Total Spent Left Speed 0 0 0 0 0 0 0 0 --:--:-- --:--:-- --:--:-- 0 100 431 100 431 0 0 2292 0 --:--:-- --:--:-- --:--:-- 2292 % Total % Received % Xferd Average Speed Time Time Time Current Dload Upload Total Spent Left Speed 0 0 0 0 0 0 0 0 --:--:-- --:--:-- --:--:-- 0 100 431 100 431 0 0 1924 0 --:--:-- --:--:-- --:--:-- 1924 % Total % Received % Xferd Average Speed Time Time Time Current Dload Upload Total Spent Left Speed 0 0 0 0 0 0 0 0 --:--:-- --:--:-- --:--:-- 0 100 430 100 430 0 0 2375 0 --:--:-- --:--:-- --:--:-- 2362 100 430 100 430 0 0 2375 0 --:--:-- --:--:-- --:--:-- 2362 % Total % Received % Xferd Average Speed Time Time Time Current Dload Upload Total Spent Left Speed 0 0 0 0 0 0 0 0 --:--:-- --:--:-- --:--:-- 0 100 428 100 428 0 0 3596 0 --:--:-- --:--:-- --:--:-- 3596 % Total % Received % Xferd Average Speed Time Time Time Current Dload Upload Total Spent Left Speed 0 0 0 0 0 0 0 0 --:--:-- --:--:-- --:--:-- 0 100 427 100 427 0 0 2944 0 --:--:-- --:--:-- --:--:-- 2944 tail: cannot open '/home/sinton/sjsu1f/mlbcalmindexk.csv' for reading: No such file or directory tail: cannot open '/home/sinton/sjsu1f/mlbavgwindindexk.csv' for reading: No such file or directory tail: cannot open '/home/sinton/sjsu1f/mlbcalmindexk.csv' for reading: No such file or directory tail: cannot open '/home/sinton/sjsu1f/mlbavgwindindexk.csv' for reading: No such file or directory tail: cannot open '/home/sinton/sjsu1f/mlbcalmindexk.csv' for reading: No such file or directory tail: cannot open '/home/sinton/sjsu1f/mlbavgwindindexk.csv' for reading: No such file or directory mv: cannot stat '/home/sinton/public_html/John1f/oakstuck': No such file or directory tail: cannot open '/home/sinton/sjsu1f/mlbcalmindexk.csv' for reading: No such file or directory tail: cannot open '/home/sinton/sjsu1f/mlbavgwindindexk.csv' for reading: No such file or directory tail: cannot open '/home/sinton/sjsu1f/mlbcalmindexk.csv' for reading: No such file or directory tail: cannot open '/home/sinton/sjsu1f/mlbavgwindindexk.csv' for reading: No such file or directory tail: cannot open '/home/sinton/sjsu1f/mlbcalmindexk.csv' for reading: No such file or directory tail: cannot open '/home/sinton/sjsu1f/mlbavgwindindexk.csv' for reading: No such file or directory tail: cannot open '/home/sinton/sjsu1f/mlbcalmindexk.csv' for reading: No such file or directory tail: cannot open '/home/sinton/sjsu1f/mlbavgwindindexk.csv' for reading: No such file or directory tail: cannot open '/home/sinton/sjsu1f/mlbcalmindexk.csv' for reading: No such file or directory tail: cannot open '/home/sinton/sjsu1f/mlbavgwindindexk.csv' for reading: No such file or directory tail: cannot open '/home/sinton/sjsu1f/mlbcalmindexk.csv' for reading: No such file or directory tail: cannot open '/home/sinton/sjsu1f/mlbavgwindindexk.csv' for reading: No such file or directory tail: cannot open '/home/sinton/sjsu1f/mlbcalmindexk.csv' for reading: No such file or directory tail: cannot open '/home/sinton/sjsu1f/mlbavgwindindexk.csv' for reading: No such file or directory % Total % Received % Xferd Average Speed Time Time Time Current Dload Upload Total Spent Left Speed 0 0 0 0 0 0 0 0 --:--:-- --:--:-- --:--:-- 0 100 431 100 431 0 0 5130 0 --:--:-- --:--:-- --:--:-- 5130 % Total % Received % Xferd Average Speed Time Time Time Current Dload Upload Total Spent Left Speed 0 0 0 0 0 0 0 0 --:--:-- --:--:-- --:--:-- 0 100 431 100 431 0 0 3715 0 --:--:-- --:--:-- --:--:-- 3715 % Total % Received % Xferd Average Speed Time Time Time Current Dload Upload Total Spent Left Speed 0 0 0 0 0 0 0 0 --:--:-- --:--:-- --:--:-- 0 100 430 100 430 0 0 10238 0 --:--:-- --:--:-- --:--:-- 10238 % Total % Received % Xferd Average Speed Time Time Time Current Dload Upload Total Spent Left Speed 0 0 0 0 0 0 0 0 --:--:-- --:--:-- --:--:-- 0 100 428 100 428 0 0 4808 0 --:--:-- --:--:-- --:--:-- 4808 % Total % Received % Xferd Average Speed Time Time Time Current Dload Upload Total Spent Left Speed 0 0 0 0 0 0 0 0 --:--:-- --:--:-- --:--:-- 0 100 427 100 427 0 0 1334 0 --:--:-- --:--:-- --:--:-- 1334 tail: cannot open '/home/sinton/sjsu1f/mlbcalmindexk.csv' for reading: No such file or directory tail: cannot open '/home/sinton/sjsu1f/mlbavgwindindexk.csv' for reading: No such file or directory tail: cannot open '/home/sinton/sjsu1f/mlbcalmindexk.csv' for reading: No such file or directory tail: cannot open '/home/sinton/sjsu1f/mlbavgwindindexk.csv' for reading: No such file or directory tail: cannot open '/home/sinton/sjsu1f/mlbcalmindexk.csv' for reading: No such file or directory tail: cannot open '/home/sinton/sjsu1f/mlbavgwindindexk.csv' for reading: No such file or directory tail: cannot open '/home/sinton/sjsu1f/mlbcalmindexk.csv' for reading: No such file or directory tail: cannot open '/home/sinton/sjsu1f/mlbavgwindindexk.csv' for reading: No such file or directory tail: cannot open '/home/sinton/sjsu1f/mlbcalmindexk.csv' for reading: No such file or directory tail: cannot open '/home/sinton/sjsu1f/mlbavgwindindexk.csv' for reading: No such file or directory tail: cannot open '/home/sinton/sjsu1f/mlbcalmindexk.csv' for reading: No such file or directory tail: cannot open '/home/sinton/sjsu1f/mlbavgwindindexk.csv' for reading: No such file or directory tail: cannot open '/home/sinton/sjsu1f/mlbcalmindexk.csv' for reading: No such file or directory tail: cannot open '/home/sinton/sjsu1f/mlbavgwindindexk.csv' for reading: No such file or directory tail: cannot open '/home/sinton/sjsu1f/mlbcalmindexk.csv' for reading: No such file or directory tail: cannot open '/home/sinton/sjsu1f/mlbavgwindindexk.csv' for reading: No such file or directory tail: cannot open '/home/sinton/sjsu1f/mlbcalmindexk.csv' for reading: No such file or directory tail: cannot open '/home/sinton/sjsu1f/mlbavgwindindexk.csv' for reading: No such file or directory tail: cannot open '/home/sinton/sjsu1f/mlbcalmindexk.csv' for reading: No such file or directory tail: cannot open '/home/sinton/sjsu1f/mlbavgwindindexk.csv' for reading: No such file or directory tail: cannot open '/home/sinton/sjsu1f/mlbcalmindexk.csv' for reading: No such file or directory tail: cannot open '/home/sinton/sjsu1f/mlbavgwindindexk.csv' for reading: No such file or directory tail: cannot open '/home/sinton/sjsu1f/mlbcalmindexk.csv' for reading: No such file or directory tail: cannot open '/home/sinton/sjsu1f/mlbavgwindindexk.csv' for reading: No such file or directory tail: cannot open '/home/sinton/sjsu1f/mlbcalmindexk.csv' for reading: No such file or directory tail: cannot open '/home/sinton/sjsu1f/mlbavgwindindexk.csv' for reading: No such file or directory tail: cannot open '/home/sinton/sjsu1f/mlbcalmindexk.csv' for reading: No such file or directory tail: cannot open '/home/sinton/sjsu1f/mlbavgwindindexk.csv' for reading: No such file or directory tail: cannot open '/home/sinton/sjsu1f/mlbcalmindexk.csv' for reading: No such file or directory tail: cannot open '/home/sinton/sjsu1f/mlbavgwindindexk.csv' for reading: No such file or directory tail: cannot open '/home/sinton/sjsu1f/mlbcalmindexk.csv' for reading: No such file or directory tail: cannot open '/home/sinton/sjsu1f/mlbavgwindindexk.csv' for reading: No such file or directory tail: cannot open '/home/sinton/sjsu1f/mlbcalmindexk.csv' for reading: No such file or directory tail: cannot open '/home/sinton/sjsu1f/mlbavgwindindexk.csv' for reading: No such file or directory % Total % Received % Xferd Average Speed Time Time Time Current Dload Upload Total Spent Left Speed 0 0 0 0 0 0 0 0 --:--:-- --:--:-- --:--:-- 0 100 430 100 430 0 0 1447 0 --:--:-- --:--:-- --:--:-- 1447 % Total % Received % Xferd Average Speed Time Time Time Current Dload Upload Total Spent Left Speed 0 0 0 0 0 0 0 0 --:--:-- --:--:-- --:--:-- 0 100 432 100 432 0 0 3272 0 --:--:-- --:--:-- --:--:-- 3272 % Total % Received % Xferd Average Speed Time Time Time Current Dload Upload Total Spent Left Speed 0 0 0 0 0 0 0 0 --:--:-- --:--:-- --:--:-- 0 100 430 100 430 0 0 3873 0 --:--:-- --:--:-- --:--:-- 3873 % Total % Received % Xferd Average Speed Time Time Time Current Dload Upload Total Spent Left Speed 0 0 0 0 0 0 0 0 --:--:-- --:--:-- --:--:-- 0 100 431 100 431 0 0 519 0 --:--:-- --:--:-- --:--:-- 519 100 431 100 431 0 0 519 0 --:--:-- --:--:-- --:--:-- 519 % Total % Received % Xferd Average Speed Time Time Time Current Dload Upload Total Spent Left Speed 0 0 0 0 0 0 0 0 --:--:-- --:--:-- --:--:-- 0 100 430 100 430 0 0 2885 0 --:--:-- --:--:-- --:--:-- 2885 tail: cannot open '/home/sinton/sjsu1f/mlbcalmindexk.csv' for reading: No such file or directory tail: cannot open '/home/sinton/sjsu1f/mlbavgwindindexk.csv' for reading: No such file or directory tail: cannot open '/home/sinton/sjsu1f/mlbcalmindexk.csv' for reading: No such file or directory tail: cannot open '/home/sinton/sjsu1f/mlbavgwindindexk.csv' for reading: No such file or directory tail: cannot open '/home/sinton/sjsu1f/mlbcalmindexk.csv' for reading: No such file or directory tail: cannot open '/home/sinton/sjsu1f/mlbavgwindindexk.csv' for reading: No such file or directory tail: cannot open '/home/sinton/sjsu1f/mlbcalmindexk.csv' for reading: No such file or directory tail: cannot open '/home/sinton/sjsu1f/mlbavgwindindexk.csv' for reading: No such file or directory tail: cannot open '/home/sinton/sjsu1f/mlbcalmindexk.csv' for reading: No such file or directory tail: cannot open '/home/sinton/sjsu1f/mlbavgwindindexk.csv' for reading: No such file or directory tail: cannot open '/home/sinton/sjsu1f/mlbcalmindexk.csv' for reading: No such file or directory tail: cannot open '/home/sinton/sjsu1f/mlbavgwindindexk.csv' for reading: No such file or directory tail: cannot open '/home/sinton/sjsu1f/mlbcalmindexk.csv' for reading: No such file or directory tail: cannot open '/home/sinton/sjsu1f/mlbavgwindindexk.csv' for reading: No such file or directory tail: cannot open '/home/sinton/sjsu1f/mlbcalmindexk.csv' for reading: No such file or directory tail: cannot open '/home/sinton/sjsu1f/mlbavgwindindexk.csv' for reading: No such file or directory tail: cannot open '/home/sinton/sjsu1f/mlbcalmindexk.csv' for reading: No such file or directory tail: cannot open '/home/sinton/sjsu1f/mlbavgwindindexk.csv' for reading: No such file or directory tail: cannot open '/home/sinton/sjsu1f/mlbcalmindexk.csv' for reading: No such file or directory tail: cannot open '/home/sinton/sjsu1f/mlbavgwindindexk.csv' for reading: No such file or directory tail: cannot open '/home/sinton/sjsu1f/mlbcalmindexk.csv' for reading: No such file or directory tail: cannot open '/home/sinton/sjsu1f/mlbavgwindindexk.csv' for reading: No such file or directory tail: cannot open '/home/sinton/sjsu1f/mlbcalmindexk.csv' for reading: No such file or directory tail: cannot open '/home/sinton/sjsu1f/mlbavgwindindexk.csv' for reading: No such file or directory tail: cannot open '/home/sinton/sjsu1f/mlbcalmindexk.csv' for reading: No such file or directory tail: cannot open '/home/sinton/sjsu1f/mlbavgwindindexk.csv' for reading: No such file or directory % Total % Received % Xferd Average Speed Time Time Time Current Dload Upload Total Spent Left Speed 0 0 0 0 0 0 0 0 --:--:-- --:--:-- --:--:-- 0 100 431 100 431 0 0 1810 0 --:--:-- --:--:-- --:--:-- 1810 % Total % Received % Xferd Average Speed Time Time Time Current Dload Upload Total Spent Left Speed 0 0 0 0 0 0 0 0 --:--:-- --:--:-- --:--:-- 0 0 0 0 0 0 0 0 0 --:--:-- --:--:-- --:--:-- 0 100 430 100 430 0 0 1360 0 --:--:-- --:--:-- --:--:-- 1356 % Total % Received % Xferd Average Speed Time Time Time Current Dload Upload Total Spent Left Speed 0 0 0 0 0 0 0 0 --:--:-- --:--:-- --:--:-- 0 100 429 100 429 0 0 5500 0 --:--:-- --:--:-- --:--:-- 5500 % Total % Received % Xferd Average Speed Time Time Time Current Dload Upload Total Spent Left Speed 0 0 0 0 0 0 0 0 --:--:-- --:--:-- --:--:-- 0 100 431 100 431 0 0 9577 0 --:--:-- --:--:-- --:--:-- 9577 % Total % Received % Xferd Average Speed Time Time Time Current Dload Upload Total Spent Left Speed 0 0 0 0 0 0 0 0 --:--:-- --:--:-- --:--:-- 0 100 430 100 430 0 0 8958 0 --:--:-- --:--:-- --:--:-- 8958 tail: cannot open '/home/sinton/sjsu1f/mlbcalmindexk.csv' for reading: No such file or directory tail: cannot open '/home/sinton/sjsu1f/mlbavgwindindexk.csv' for reading: No such file or directory tail: cannot open '/home/sinton/sjsu1f/mlbcalmindexk.csv' for reading: No such file or directory tail: cannot open '/home/sinton/sjsu1f/mlbavgwindindexk.csv' for reading: No such file or directory tail: cannot open '/home/sinton/sjsu1f/mlbcalmindexk.csv' for reading: No such file or directory tail: cannot open '/home/sinton/sjsu1f/mlbavgwindindexk.csv' for reading: No such file or directory tail: cannot open '/home/sinton/sjsu1f/mlbcalmindexk.csv' for reading: No such file or directory tail: cannot open '/home/sinton/sjsu1f/mlbavgwindindexk.csv' for reading: No such file or directory tail: cannot open '/home/sinton/sjsu1f/mlbcalmindexk.csv' for reading: No such file or directory tail: cannot open '/home/sinton/sjsu1f/mlbavgwindindexk.csv' for reading: No such file or directory tail: cannot open '/home/sinton/sjsu1f/mlbcalmindexk.csv' for reading: No such file or directory tail: cannot open '/home/sinton/sjsu1f/mlbavgwindindexk.csv' for reading: No such file or directory tail: cannot open '/home/sinton/sjsu1f/mlbcalmindexk.csv' for reading: No such file or directory tail: cannot open '/home/sinton/sjsu1f/mlbavgwindindexk.csv' for reading: No such file or directory tail: cannot open '/home/sinton/sjsu1f/mlbcalmindexk.csv' for reading: No such file or directory tail: cannot open '/home/sinton/sjsu1f/mlbavgwindindexk.csv' for reading: No such file or directory tail: cannot open '/home/sinton/sjsu1f/mlbcalmindexk.csv' for reading: No such file or directory tail: cannot open '/home/sinton/sjsu1f/mlbavgwindindexk.csv' for reading: No such file or directory tail: cannot open '/home/sinton/sjsu1f/mlbcalmindexk.csv' for reading: No such file or directory tail: cannot open '/home/sinton/sjsu1f/mlbavgwindindexk.csv' for reading: No such file or directory tail: cannot open '/home/sinton/sjsu1f/mlbcalmindexk.csv' for reading: No such file or directory tail: cannot open '/home/sinton/sjsu1f/mlbavgwindindexk.csv' for reading: No such file or directory tail: cannot open '/home/sinton/sjsu1f/mlbcalmindexk.csv' for reading: No such file or directory tail: cannot open '/home/sinton/sjsu1f/mlbavgwindindexk.csv' for reading: No such file or directory tail: cannot open '/home/sinton/sjsu1f/mlbcalmindexk.csv' for reading: No such file or directory tail: cannot open '/home/sinton/sjsu1f/mlbavgwindindexk.csv' for reading: No such file or directory tail: cannot open '/home/sinton/sjsu1f/mlbcalmindexk.csv' for reading: No such file or directory tail: cannot open '/home/sinton/sjsu1f/mlbavgwindindexk.csv' for reading: No such file or directory % Total % Received % Xferd Average Speed Time Time Time Current Dload Upload Total Spent Left Speed 0 0 0 0 0 0 0 0 --:--:-- --:--:-- --:--:-- 0 100 431 100 431 0 0 4684 0 --:--:-- --:--:-- --:--:-- 4684 % Total % Received % Xferd Average Speed Time Time Time Current Dload Upload Total Spent Left Speed 0 0 0 0 0 0 0 0 --:--:-- --:--:-- --:--:-- 0 100 432 100 432 0 0 3724 0 --:--:-- --:--:-- --:--:-- 3724 % Total % Received % Xferd Average Speed Time Time Time Current Dload Upload Total Spent Left Speed 0 0 0 0 0 0 0 0 --:--:-- --:--:-- --:--:-- 0 100 429 100 429 0 0 4165 0 --:--:-- --:--:-- --:--:-- 4165 % Total % Received % Xferd Average Speed Time Time Time Current Dload Upload Total Spent Left Speed 0 0 0 0 0 0 0 0 --:--:-- --:--:-- --:--:-- 0 100 431 100 431 0 0 3591 0 --:--:-- --:--:-- --:--:-- 3591 % Total % Received % Xferd Average Speed Time Time Time Current Dload Upload Total Spent Left Speed 0 0 0 0 0 0 0 0 --:--:-- --:--:-- --:--:-- 0 0 0 0 0 0 0 0 0 --:--:-- --:--:-- --:--:-- 0 100 430 100 430 0 0 1769 0 --:--:-- --:--:-- --:--:-- 1762 tail: cannot open '/home/sinton/sjsu1f/mlbcalmindexk.csv' for reading: No such file or directory tail: cannot open '/home/sinton/sjsu1f/mlbavgwindindexk.csv' for reading: No such file or directory tail: cannot open '/home/sinton/sjsu1f/mlbcalmindexk.csv' for reading: No such file or directory tail: cannot open '/home/sinton/sjsu1f/mlbavgwindindexk.csv' for reading: No such file or directory tail: cannot open '/home/sinton/sjsu1f/mlbcalmindexk.csv' for reading: No such file or directory tail: cannot open '/home/sinton/sjsu1f/mlbavgwindindexk.csv' for reading: No such file or directory tail: cannot open '/home/sinton/sjsu1f/mlbcalmindexk.csv' for reading: No such file or directory tail: cannot open '/home/sinton/sjsu1f/mlbavgwindindexk.csv' for reading: No such file or directory mv: cannot stat '/home/sinton/public_html/John1f/oakstuck': No such file or directory tail: cannot open '/home/sinton/sjsu1f/mlbcalmindexk.csv' for reading: No such file or directory tail: cannot open '/home/sinton/sjsu1f/mlbavgwindindexk.csv' for reading: No such file or directory tail: cannot open '/home/sinton/sjsu1f/mlbcalmindexk.csv' for reading: No such file or directory tail: cannot open '/home/sinton/sjsu1f/mlbavgwindindexk.csv' for reading: No such file or directory tail: cannot open '/home/sinton/sjsu1f/mlbcalmindexk.csv' for reading: No such file or directory tail: cannot open '/home/sinton/sjsu1f/mlbavgwindindexk.csv' for reading: No such file or directory tail: cannot open '/home/sinton/sjsu1f/mlbcalmindexk.csv' for reading: No such file or directory tail: cannot open '/home/sinton/sjsu1f/mlbavgwindindexk.csv' for reading: No such file or directory tail: cannot open '/home/sinton/sjsu1f/mlbcalmindexk.csv' for reading: No such file or directory tail: cannot open '/home/sinton/sjsu1f/mlbavgwindindexk.csv' for reading: No such file or directory tail: cannot open '/home/sinton/sjsu1f/mlbcalmindexk.csv' for reading: No such file or directory tail: cannot open '/home/sinton/sjsu1f/mlbavgwindindexk.csv' for reading: No such file or directory tail: cannot open '/home/sinton/sjsu1f/mlbcalmindexk.csv' for reading: No such file or directory tail: cannot open '/home/sinton/sjsu1f/mlbavgwindindexk.csv' for reading: No such file or directory tail: cannot open '/home/sinton/sjsu1f/mlbcalmindexk.csv' for reading: No such file or directory tail: cannot open '/home/sinton/sjsu1f/mlbavgwindindexk.csv' for reading: No such file or directory tail: cannot open '/home/sinton/sjsu1f/mlbcalmindexk.csv' for reading: No such file or directory tail: cannot open '/home/sinton/sjsu1f/mlbavgwindindexk.csv' for reading: No such file or directory % Total % Received % Xferd Average Speed Time Time Time Current Dload Upload Total Spent Left Speed 0 0 0 0 0 0 0 0 --:--:-- --:--:-- --:--:-- 0 100 429 100 429 0 0 8755 0 --:--:-- --:--:-- --:--:-- 8755 % Total % Received % Xferd Average Speed Time Time Time Current Dload Upload Total Spent Left Speed 0 0 0 0 0 0 0 0 --:--:-- --:--:-- --:--:-- 0 100 432 100 432 0 0 3000 0 --:--:-- --:--:-- --:--:-- 3000 % Total % Received % Xferd Average Speed Time Time Time Current Dload Upload Total Spent Left Speed 0 0 0 0 0 0 0 0 --:--:-- --:--:-- --:--:-- 0 100 432 100 432 0 0 8470 0 --:--:-- --:--:-- --:--:-- 8470 % Total % Received % Xferd Average Speed Time Time Time Current Dload Upload Total Spent Left Speed 0 0 0 0 0 0 0 0 --:--:-- --:--:-- --:--:-- 0 100 432 100 432 0 0 8816 0 --:--:-- --:--:-- --:--:-- 8816 % Total % Received % Xferd Average Speed Time Time Time Current Dload Upload Total Spent Left Speed 0 0 0 0 0 0 0 0 --:--:-- --:--:-- --:--:-- 0 100 431 100 431 0 0 4104 0 --:--:-- --:--:-- --:--:-- 4104 tail: cannot open '/home/sinton/sjsu1f/mlbcalmindexk.csv' for reading: No such file or directory tail: cannot open '/home/sinton/sjsu1f/mlbavgwindindexk.csv' for reading: No such file or directory tail: cannot open '/home/sinton/sjsu1f/mlbcalmindexk.csv' for reading: No such file or directory tail: cannot open '/home/sinton/sjsu1f/mlbavgwindindexk.csv' for reading: No such file or directory tail: cannot open '/home/sinton/sjsu1f/mlbcalmindexk.csv' for reading: No such file or directory tail: cannot open '/home/sinton/sjsu1f/mlbavgwindindexk.csv' for reading: No such file or directory tail: cannot open '/home/sinton/sjsu1f/mlbcalmindexk.csv' for reading: No such file or directory tail: cannot open '/home/sinton/sjsu1f/mlbavgwindindexk.csv' for reading: No such file or directory tail: cannot open '/home/sinton/sjsu1f/mlbcalmindexk.csv' for reading: No such file or directory tail: cannot open '/home/sinton/sjsu1f/mlbavgwindindexk.csv' for reading: No such file or directory tail: cannot open '/home/sinton/sjsu1f/mlbcalmindexk.csv' for reading: No such file or directory tail: cannot open '/home/sinton/sjsu1f/mlbavgwindindexk.csv' for reading: No such file or directory tail: cannot open '/home/sinton/sjsu1f/mlbcalmindexk.csv' for reading: No such file or directory tail: cannot open '/home/sinton/sjsu1f/mlbavgwindindexk.csv' for reading: No such file or directory tail: cannot open '/home/sinton/sjsu1f/mlbcalmindexk.csv' for reading: No such file or directory tail: cannot open '/home/sinton/sjsu1f/mlbavgwindindexk.csv' for reading: No such file or directory tail: cannot open '/home/sinton/sjsu1f/mlbcalmindexk.csv' for reading: No such file or directory tail: cannot open '/home/sinton/sjsu1f/mlbavgwindindexk.csv' for reading: No such file or directory tail: cannot open '/home/sinton/sjsu1f/mlbcalmindexk.csv' for reading: No such file or directory tail: cannot open '/home/sinton/sjsu1f/mlbavgwindindexk.csv' for reading: No such file or directory tail: cannot open '/home/sinton/sjsu1f/mlbcalmindexk.csv' for reading: No such file or directory tail: cannot open '/home/sinton/sjsu1f/mlbavgwindindexk.csv' for reading: No such file or directory tail: cannot open '/home/sinton/sjsu1f/mlbcalmindexk.csv' for reading: No such file or directory tail: cannot open '/home/sinton/sjsu1f/mlbavgwindindexk.csv' for reading: No such file or directory tail: cannot open '/home/sinton/sjsu1f/mlbcalmindexk.csv' for reading: No such file or directory tail: cannot open '/home/sinton/sjsu1f/mlbavgwindindexk.csv' for reading: No such file or directory tail: cannot open '/home/sinton/sjsu1f/mlbcalmindexk.csv' for reading: No such file or directory tail: cannot open '/home/sinton/sjsu1f/mlbavgwindindexk.csv' for reading: No such file or directory % Total % Received % Xferd Average Speed Time Time Time Current Dload Upload Total Spent Left Speed 0 0 0 0 0 0 0 0 --:--:-- --:--:-- --:--:-- 0 100 431 100 431 0 0 4842 0 --:--:-- --:--:-- --:--:-- 4842 % Total % Received % Xferd Average Speed Time Time Time Current Dload Upload Total Spent Left Speed 0 0 0 0 0 0 0 0 --:--:-- --:--:-- --:--:-- 0 100 431 100 431 0 0 2710 0 --:--:-- --:--:-- --:--:-- 2710 % Total % Received % Xferd Average Speed Time Time Time Current Dload Upload Total Spent Left Speed 0 0 0 0 0 0 0 0 --:--:-- --:--:-- --:--:-- 0 100 432 100 432 0 0 11076 0 --:--:-- --:--:-- --:--:-- 11076 % Total % Received % Xferd Average Speed Time Time Time Current Dload Upload Total Spent Left Speed 0 0 0 0 0 0 0 0 --:--:-- --:--:-- --:--:-- 0 100 432 100 432 0 0 3375 0 --:--:-- --:--:-- --:--:-- 3375 % Total % Received % Xferd Average Speed Time Time Time Current Dload Upload Total Spent Left Speed 0 0 0 0 0 0 0 0 --:--:-- --:--:-- --:--:-- 0 100 431 100 431 0 0 2912 0 --:--:-- --:--:-- --:--:-- 2912 tail: cannot open '/home/sinton/sjsu1f/mlbcalmindexk.csv' for reading: No such file or directory tail: cannot open '/home/sinton/sjsu1f/mlbavgwindindexk.csv' for reading: No such file or directory tail: cannot open '/home/sinton/sjsu1f/mlbcalmindexk.csv' for reading: No such file or directory tail: cannot open '/home/sinton/sjsu1f/mlbavgwindindexk.csv' for reading: No such file or directory tail: cannot open '/home/sinton/sjsu1f/mlbcalmindexk.csv' for reading: No such file or directory tail: cannot open '/home/sinton/sjsu1f/mlbavgwindindexk.csv' for reading: No such file or directory tail: cannot open '/home/sinton/sjsu1f/mlbcalmindexk.csv' for reading: No such file or directory tail: cannot open '/home/sinton/sjsu1f/mlbavgwindindexk.csv' for reading: No such file or directory tail: cannot open '/home/sinton/sjsu1f/mlbcalmindexk.csv' for reading: No such file or directory tail: cannot open '/home/sinton/sjsu1f/mlbavgwindindexk.csv' for reading: No such file or directory tail: cannot open '/home/sinton/sjsu1f/mlbcalmindexk.csv' for reading: No such file or directory tail: cannot open '/home/sinton/sjsu1f/mlbavgwindindexk.csv' for reading: No such file or directory tail: cannot open '/home/sinton/sjsu1f/mlbcalmindexk.csv' for reading: No such file or directory tail: cannot open '/home/sinton/sjsu1f/mlbavgwindindexk.csv' for reading: No such file or directory tail: cannot open '/home/sinton/sjsu1f/mlbcalmindexk.csv' for reading: No such file or directory tail: cannot open '/home/sinton/sjsu1f/mlbavgwindindexk.csv' for reading: No such file or directory tail: cannot open '/home/sinton/sjsu1f/mlbcalmindexk.csv' for reading: No such file or directory tail: cannot open '/home/sinton/sjsu1f/mlbavgwindindexk.csv' for reading: No such file or directory tail: cannot open '/home/sinton/sjsu1f/mlbcalmindexk.csv' for reading: No such file or directory tail: cannot open '/home/sinton/sjsu1f/mlbavgwindindexk.csv' for reading: No such file or directory tail: cannot open '/home/sinton/sjsu1f/mlbcalmindexk.csv' for reading: No such file or directory tail: cannot open '/home/sinton/sjsu1f/mlbavgwindindexk.csv' for reading: No such file or directory % Total % Received % Xferd Average Speed Time Time Time Current Dload Upload Total Spent Left Speed 0 0 0 0 0 0 0 0 --:--:-- --:--:-- --:--:-- 0 100 431 100 431 0 0 4066 0 --:--:-- --:--:-- --:--:-- 4066 % Total % Received % Xferd Average Speed Time Time Time Current Dload Upload Total Spent Left Speed 0 0 0 0 0 0 0 0 --:--:-- --:--:-- --:--:-- 0 100 431 100 431 0 0 8288 0 --:--:-- --:--:-- --:--:-- 8288 % Total % Received % Xferd Average Speed Time Time Time Current Dload Upload Total Spent Left Speed 0 0 0 0 0 0 0 0 --:--:-- --:--:-- --:--:-- 0 100 432 100 432 0 0 4547 0 --:--:-- --:--:-- --:--:-- 4547 % Total % Received % Xferd Average Speed Time Time Time Current Dload Upload Total Spent Left Speed 0 0 0 0 0 0 0 0 --:--:-- --:--:-- --:--:-- 0 100 432 100 432 0 0 10800 0 --:--:-- --:--:-- --:--:-- 10800 % Total % Received % Xferd Average Speed Time Time Time Current Dload Upload Total Spent Left Speed 0 0 0 0 0 0 0 0 --:--:-- --:--:-- --:--:-- 0 100 431 100 431 0 0 4788 0 --:--:-- --:--:-- --:--:-- 4788 tail: cannot open '/home/sinton/sjsu1f/mlbcalmindexk.csv' for reading: No such file or directory tail: cannot open '/home/sinton/sjsu1f/mlbavgwindindexk.csv' for reading: No such file or directory tail: cannot open '/home/sinton/sjsu1f/mlbcalmindexk.csv' for reading: No such file or directory tail: cannot open '/home/sinton/sjsu1f/mlbavgwindindexk.csv' for reading: No such file or directory tail: cannot open '/home/sinton/sjsu1f/mlbcalmindexk.csv' for reading: No such file or directory tail: cannot open '/home/sinton/sjsu1f/mlbavgwindindexk.csv' for reading: No such file or directory tail: cannot open '/home/sinton/sjsu1f/mlbcalmindexk.csv' for reading: No such file or directory tail: cannot open '/home/sinton/sjsu1f/mlbavgwindindexk.csv' for reading: No such file or directory tail: cannot open '/home/sinton/sjsu1f/mlbcalmindexk.csv' for reading: No such file or directory tail: cannot open '/home/sinton/sjsu1f/mlbavgwindindexk.csv' for reading: No such file or directory tail: cannot open '/home/sinton/sjsu1f/mlbcalmindexk.csv' for reading: No such file or directory tail: cannot open '/home/sinton/sjsu1f/mlbavgwindindexk.csv' for reading: No such file or directory tail: cannot open '/home/sinton/sjsu1f/mlbcalmindexk.csv' for reading: No such file or directory tail: cannot open '/home/sinton/sjsu1f/mlbavgwindindexk.csv' for reading: No such file or directory tail: cannot open '/home/sinton/sjsu1f/mlbcalmindexk.csv' for reading: No such file or directory tail: cannot open '/home/sinton/sjsu1f/mlbavgwindindexk.csv' for reading: No such file or directory tail: cannot open '/home/sinton/sjsu1f/mlbcalmindexk.csv' for reading: No such file or directory tail: cannot open '/home/sinton/sjsu1f/mlbavgwindindexk.csv' for reading: No such file or directory tail: cannot open '/home/sinton/sjsu1f/mlbcalmindexk.csv' for reading: No such file or directory tail: cannot open '/home/sinton/sjsu1f/mlbavgwindindexk.csv' for reading: No such file or directory tail: cannot open '/home/sinton/sjsu1f/mlbcalmindexk.csv' for reading: No such file or directory tail: cannot open '/home/sinton/sjsu1f/mlbavgwindindexk.csv' for reading: No such file or directory tail: cannot open '/home/sinton/sjsu1f/mlbcalmindexk.csv' for reading: No such file or directory tail: cannot open '/home/sinton/sjsu1f/mlbavgwindindexk.csv' for reading: No such file or directory tail: cannot open '/home/sinton/sjsu1f/mlbcalmindexk.csv' for reading: No such file or directory tail: cannot open '/home/sinton/sjsu1f/mlbavgwindindexk.csv' for reading: No such file or directory tail: cannot open '/home/sinton/sjsu1f/mlbcalmindexk.csv' for reading: No such file or directory tail: cannot open '/home/sinton/sjsu1f/mlbavgwindindexk.csv' for reading: No such file or directory tail: cannot open '/home/sinton/sjsu1f/mlbcalmindexk.csv' for reading: No such file or directory tail: cannot open '/home/sinton/sjsu1f/mlbavgwindindexk.csv' for reading: No such file or directory tail: cannot open '/home/sinton/sjsu1f/mlbcalmindexk.csv' for reading: No such file or directory tail: cannot open '/home/sinton/sjsu1f/mlbavgwindindexk.csv' for reading: No such file or directory % Total % Received % Xferd Average Speed Time Time Time Current Dload Upload Total Spent Left Speed 0 0 0 0 0 0 0 0 --:--:-- --:--:-- --:--:-- 0 100 432 100 432 0 0 3540 0 --:--:-- --:--:-- --:--:-- 3540 % Total % Received % Xferd Average Speed Time Time Time Current Dload Upload Total Spent Left Speed 0 0 0 0 0 0 0 0 --:--:-- --:--:-- --:--:-- 0 100 431 100 431 0 0 3848 0 --:--:-- --:--:-- --:--:-- 3848 % Total % Received % Xferd Average Speed Time Time Time Current Dload Upload Total Spent Left Speed 0 0 0 0 0 0 0 0 --:--:-- --:--:-- --:--:-- 0 100 430 100 430 0 0 3208 0 --:--:-- --:--:-- --:--:-- 3208 % Total % Received % Xferd Average Speed Time Time Time Current Dload Upload Total Spent Left Speed 0 0 0 0 0 0 0 0 --:--:-- --:--:-- --:--:-- 0 100 429 100 429 0 0 3021 0 --:--:-- --:--:-- --:--:-- 3021 % Total % Received % Xferd Average Speed Time Time Time Current Dload Upload Total Spent Left Speed 0 0 0 0 0 0 0 0 --:--:-- --:--:-- --:--:-- 0 100 428 100 428 0 0 4703 0 --:--:-- --:--:-- --:--:-- 4703 tail: cannot open '/home/sinton/sjsu1f/mlbcalmindexk.csv' for reading: No such file or directory tail: cannot open '/home/sinton/sjsu1f/mlbavgwindindexk.csv' for reading: No such file or directory tail: cannot open '/home/sinton/sjsu1f/mlbcalmindexk.csv' for reading: No such file or directory tail: cannot open '/home/sinton/sjsu1f/mlbavgwindindexk.csv' for reading: No such file or directory tail: cannot open '/home/sinton/sjsu1f/mlbcalmindexk.csv' for reading: No such file or directory tail: cannot open '/home/sinton/sjsu1f/mlbavgwindindexk.csv' for reading: No such file or directory tail: cannot open '/home/sinton/sjsu1f/mlbcalmindexk.csv' for reading: No such file or directory tail: cannot open '/home/sinton/sjsu1f/mlbavgwindindexk.csv' for reading: No such file or directory mv: cannot stat '/home/sinton/public_html/John1f/oakstuck': No such file or directory tail: cannot open '/home/sinton/sjsu1f/mlbcalmindexk.csv' for reading: No such file or directory tail: cannot open '/home/sinton/sjsu1f/mlbavgwindindexk.csv' for reading: No such file or directory tail: cannot open '/home/sinton/sjsu1f/mlbcalmindexk.csv' for reading: No such file or directory tail: cannot open '/home/sinton/sjsu1f/mlbavgwindindexk.csv' for reading: No such file or directory tail: cannot open '/home/sinton/sjsu1f/mlbcalmindexk.csv' for reading: No such file or directory tail: cannot open '/home/sinton/sjsu1f/mlbavgwindindexk.csv' for reading: No such file or directory tail: cannot open '/home/sinton/sjsu1f/mlbcalmindexk.csv' for reading: No such file or directory tail: cannot open '/home/sinton/sjsu1f/mlbavgwindindexk.csv' for reading: No such file or directory tail: cannot open '/home/sinton/sjsu1f/mlbcalmindexk.csv' for reading: No such file or directory tail: cannot open '/home/sinton/sjsu1f/mlbavgwindindexk.csv' for reading: No such file or directory tail: cannot open '/home/sinton/sjsu1f/mlbcalmindexk.csv' for reading: No such file or directory tail: cannot open '/home/sinton/sjsu1f/mlbavgwindindexk.csv' for reading: No such file or directory tail: cannot open '/home/sinton/sjsu1f/mlbcalmindexk.csv' for reading: No such file or directory tail: cannot open '/home/sinton/sjsu1f/mlbavgwindindexk.csv' for reading: No such file or directory tail: cannot open '/home/sinton/sjsu1f/mlbcalmindexk.csv' for reading: No such file or directory tail: cannot open '/home/sinton/sjsu1f/mlbavgwindindexk.csv' for reading: No such file or directory tail: cannot open '/home/sinton/sjsu1f/mlbcalmindexk.csv' for reading: No such file or directory tail: cannot open '/home/sinton/sjsu1f/mlbavgwindindexk.csv' for reading: No such file or directory % Total % Received % Xferd Average Speed Time Time Time Current Dload Upload Total Spent Left Speed 0 0 0 0 0 0 0 0 --:--:-- --:--:-- --:--:-- 0 100 432 100 432 0 0 1122 0 --:--:-- --:--:-- --:--:-- 1122 % Total % Received % Xferd Average Speed Time Time Time Current Dload Upload Total Spent Left Speed 0 0 0 0 0 0 0 0 --:--:-- --:--:-- --:--:-- 0 100 432 100 432 0 0 3272 0 --:--:-- --:--:-- --:--:-- 3272 % Total % Received % Xferd Average Speed Time Time Time Current Dload Upload Total Spent Left Speed 0 0 0 0 0 0 0 0 --:--:-- --:--:-- --:--:-- 0 100 429 100 429 0 0 5107 0 --:--:-- --:--:-- --:--:-- 5047 100 429 100 429 0 0 5107 0 --:--:-- --:--:-- --:--:-- 5047 % Total % Received % Xferd Average Speed Time Time Time Current Dload Upload Total Spent Left Speed 0 0 0 0 0 0 0 0 --:--:-- --:--:-- --:--:-- 0 100 432 100 432 0 0 6447 0 --:--:-- --:--:-- --:--:-- 6447 % Total % Received % Xferd Average Speed Time Time Time Current Dload Upload Total Spent Left Speed 0 0 0 0 0 0 0 0 --:--:-- --:--:-- --:--:-- 0 100 431 100 431 0 0 8288 0 --:--:-- --:--:-- --:--:-- 8288 tail: cannot open '/home/sinton/sjsu1f/mlbcalmindexk.csv' for reading: No such file or directory tail: cannot open '/home/sinton/sjsu1f/mlbavgwindindexk.csv' for reading: No such file or directory tail: cannot open '/home/sinton/sjsu1f/mlbcalmindexk.csv' for reading: No such file or directory tail: cannot open '/home/sinton/sjsu1f/mlbavgwindindexk.csv' for reading: No such file or directory tail: cannot open '/home/sinton/sjsu1f/mlbcalmindexk.csv' for reading: No such file or directory tail: cannot open '/home/sinton/sjsu1f/mlbavgwindindexk.csv' for reading: No such file or directory tail: cannot open '/home/sinton/sjsu1f/mlbcalmindexk.csv' for reading: No such file or directory tail: cannot open '/home/sinton/sjsu1f/mlbavgwindindexk.csv' for reading: No such file or directory tail: cannot open '/home/sinton/sjsu1f/mlbcalmindexk.csv' for reading: No such file or directory tail: cannot open '/home/sinton/sjsu1f/mlbavgwindindexk.csv' for reading: No such file or directory tail: cannot open '/home/sinton/sjsu1f/mlbcalmindexk.csv' for reading: No such file or directory tail: cannot open '/home/sinton/sjsu1f/mlbavgwindindexk.csv' for reading: No such file or directory tail: cannot open '/home/sinton/sjsu1f/mlbcalmindexk.csv' for reading: No such file or directory tail: cannot open '/home/sinton/sjsu1f/mlbavgwindindexk.csv' for reading: No such file or directory tail: cannot open '/home/sinton/sjsu1f/mlbcalmindexk.csv' for reading: No such file or directory tail: cannot open '/home/sinton/sjsu1f/mlbavgwindindexk.csv' for reading: No such file or directory tail: cannot open '/home/sinton/sjsu1f/mlbcalmindexk.csv' for reading: No such file or directory tail: cannot open '/home/sinton/sjsu1f/mlbavgwindindexk.csv' for reading: No such file or directory tail: cannot open '/home/sinton/sjsu1f/mlbcalmindexk.csv' for reading: No such file or directory tail: cannot open '/home/sinton/sjsu1f/mlbavgwindindexk.csv' for reading: No such file or directory tail: cannot open '/home/sinton/sjsu1f/mlbcalmindexk.csv' for reading: No such file or directory tail: cannot open '/home/sinton/sjsu1f/mlbavgwindindexk.csv' for reading: No such file or directory tail: cannot open '/home/sinton/sjsu1f/mlbcalmindexk.csv' for reading: No such file or directory tail: cannot open '/home/sinton/sjsu1f/mlbavgwindindexk.csv' for reading: No such file or directory tail: cannot open '/home/sinton/sjsu1f/mlbcalmindexk.csv' for reading: No such file or directory tail: cannot open '/home/sinton/sjsu1f/mlbavgwindindexk.csv' for reading: No such file or directory tail: cannot open '/home/sinton/sjsu1f/mlbcalmindexk.csv' for reading: No such file or directory tail: cannot open '/home/sinton/sjsu1f/mlbavgwindindexk.csv' for reading: No such file or directory % Total % Received % Xferd Average Speed Time Time Time Current Dload Upload Total Spent Left Speed 0 0 0 0 0 0 0 0 --:--:-- --:--:-- --:--:-- 0 100 431 100 431 0 0 3216 0 --:--:-- --:--:-- --:--:-- 3240 % Total % Received % Xferd Average Speed Time Time Time Current Dload Upload Total Spent Left Speed 0 0 0 0 0 0 0 0 --:--:-- --:--:-- --:--:-- 0 100 431 100 431 0 0 5824 0 --:--:-- --:--:-- --:--:-- 5824 % Total % Received % Xferd Average Speed Time Time Time Current Dload Upload Total Spent Left Speed 0 0 0 0 0 0 0 0 --:--:-- --:--:-- --:--:-- 0 100 432 100 432 0 0 4547 0 --:--:-- --:--:-- --:--:-- 4547 % Total % Received % Xferd Average Speed Time Time Time Current Dload Upload Total Spent Left Speed 0 0 0 0 0 0 0 0 --:--:-- --:--:-- --:--:-- 0 100 431 100 431 0 0 5746 0 --:--:-- --:--:-- --:--:-- 5746 % Total % Received % Xferd Average Speed Time Time Time Current Dload Upload Total Spent Left Speed 0 0 0 0 0 0 0 0 --:--:-- --:--:-- --:--:-- 0 0 0 0 0 0 0 0 0 --:--:-- --:--:-- --:--:-- 0 100 430 100 430 0 0 7543 0 --:--:-- --:--:-- --:--:-- 7413 tail: cannot open '/home/sinton/sjsu1f/mlbcalmindexk.csv' for reading: No such file or directory tail: cannot open '/home/sinton/sjsu1f/mlbavgwindindexk.csv' for reading: No such file or directory tail: cannot open '/home/sinton/sjsu1f/mlbcalmindexk.csv' for reading: No such file or directory tail: cannot open '/home/sinton/sjsu1f/mlbavgwindindexk.csv' for reading: No such file or directory tail: cannot open '/home/sinton/sjsu1f/mlbcalmindexk.csv' for reading: No such file or directory tail: cannot open '/home/sinton/sjsu1f/mlbavgwindindexk.csv' for reading: No such file or directory tail: cannot open '/home/sinton/sjsu1f/mlbcalmindexk.csv' for reading: No such file or directory tail: cannot open '/home/sinton/sjsu1f/mlbavgwindindexk.csv' for reading: No such file or directory tail: cannot open '/home/sinton/sjsu1f/mlbcalmindexk.csv' for reading: No such file or directory tail: cannot open '/home/sinton/sjsu1f/mlbavgwindindexk.csv' for reading: No such file or directory tail: cannot open '/home/sinton/sjsu1f/mlbcalmindexk.csv' for reading: No such file or directory tail: cannot open '/home/sinton/sjsu1f/mlbavgwindindexk.csv' for reading: No such file or directory tail: cannot open '/home/sinton/sjsu1f/mlbcalmindexk.csv' for reading: No such file or directory tail: cannot open '/home/sinton/sjsu1f/mlbavgwindindexk.csv' for reading: No such file or directory tail: cannot open '/home/sinton/sjsu1f/mlbcalmindexk.csv' for reading: No such file or directory tail: cannot open '/home/sinton/sjsu1f/mlbavgwindindexk.csv' for reading: No such file or directory tail: cannot open '/home/sinton/sjsu1f/mlbcalmindexk.csv' for reading: No such file or directory tail: cannot open '/home/sinton/sjsu1f/mlbavgwindindexk.csv' for reading: No such file or directory tail: cannot open '/home/sinton/sjsu1f/mlbcalmindexk.csv' for reading: No such file or directory tail: cannot open '/home/sinton/sjsu1f/mlbavgwindindexk.csv' for reading: No such file or directory tail: cannot open '/home/sinton/sjsu1f/mlbcalmindexk.csv' for reading: No such file or directory tail: cannot open '/home/sinton/sjsu1f/mlbavgwindindexk.csv' for reading: No such file or directory tail: cannot open '/home/sinton/sjsu1f/mlbcalmindexk.csv' for reading: No such file or directory tail: cannot open '/home/sinton/sjsu1f/mlbavgwindindexk.csv' for reading: No such file or directory tail: cannot open '/home/sinton/sjsu1f/mlbcalmindexk.csv' for reading: No such file or directory tail: cannot open '/home/sinton/sjsu1f/mlbavgwindindexk.csv' for reading: No such file or directory % Total % Received % Xferd Average Speed Time Time Time Current Dload Upload Total Spent Left Speed 0 0 0 0 0 0 0 0 --:--:-- --:--:-- --:--:-- 0 100 431 100 431 0 0 2033 0 --:--:-- --:--:-- --:--:-- 2033 % Total % Received % Xferd Average Speed Time Time Time Current Dload Upload Total Spent Left Speed 0 0 0 0 0 0 0 0 --:--:-- --:--:-- --:--:-- 0 100 429 100 429 0 0 4290 0 --:--:-- --:--:-- --:--:-- 4290 % Total % Received % Xferd Average Speed Time Time Time Current Dload Upload Total Spent Left Speed 0 0 0 0 0 0 0 0 --:--:-- --:--:-- --:--:-- 0 100 430 100 430 0 0 3583 0 --:--:-- --:--:-- --:--:-- 3583 % Total % Received % Xferd Average Speed Time Time Time Current Dload Upload Total Spent Left Speed 0 0 0 0 0 0 0 0 --:--:-- --:--:-- --:--:-- 0 100 432 100 432 0 0 1680 0 --:--:-- --:--:-- --:--:-- 1680 % Total % Received % Xferd Average Speed Time Time Time Current Dload Upload Total Spent Left Speed 0 0 0 0 0 0 0 0 --:--:-- --:--:-- --:--:-- 0 100 431 100 431 0 0 2355 0 --:--:-- --:--:-- --:--:-- 2342 100 431 100 431 0 0 2355 0 --:--:-- --:--:-- --:--:-- 2342 tail: cannot open '/home/sinton/sjsu1f/mlbcalmindexk.csv' for reading: No such file or directory tail: cannot open '/home/sinton/sjsu1f/mlbavgwindindexk.csv' for reading: No such file or directory tail: cannot open '/home/sinton/sjsu1f/mlbcalmindexk.csv' for reading: No such file or directory tail: cannot open '/home/sinton/sjsu1f/mlbavgwindindexk.csv' for reading: No such file or directory tail: cannot open '/home/sinton/sjsu1f/mlbcalmindexk.csv' for reading: No such file or directory tail: cannot open '/home/sinton/sjsu1f/mlbavgwindindexk.csv' for reading: No such file or directory tail: cannot open '/home/sinton/sjsu1f/mlbcalmindexk.csv' for reading: No such file or directory tail: cannot open '/home/sinton/sjsu1f/mlbavgwindindexk.csv' for reading: No such file or directory tail: cannot open '/home/sinton/sjsu1f/mlbcalmindexk.csv' for reading: No such file or directory tail: cannot open '/home/sinton/sjsu1f/mlbavgwindindexk.csv' for reading: No such file or directory tail: cannot open '/home/sinton/sjsu1f/mlbcalmindexk.csv' for reading: No such file or directory tail: cannot open '/home/sinton/sjsu1f/mlbavgwindindexk.csv' for reading: No such file or directory tail: cannot open '/home/sinton/sjsu1f/mlbcalmindexk.csv' for reading: No such file or directory tail: cannot open '/home/sinton/sjsu1f/mlbavgwindindexk.csv' for reading: No such file or directory tail: cannot open '/home/sinton/sjsu1f/mlbcalmindexk.csv' for reading: No such file or directory tail: cannot open '/home/sinton/sjsu1f/mlbavgwindindexk.csv' for reading: No such file or directory tail: cannot open '/home/sinton/sjsu1f/mlbcalmindexk.csv' for reading: No such file or directory tail: cannot open '/home/sinton/sjsu1f/mlbavgwindindexk.csv' for reading: No such file or directory tail: cannot open '/home/sinton/sjsu1f/mlbcalmindexk.csv' for reading: No such file or directory tail: cannot open '/home/sinton/sjsu1f/mlbavgwindindexk.csv' for reading: No such file or directory tail: cannot open '/home/sinton/sjsu1f/mlbcalmindexk.csv' for reading: No such file or directory tail: cannot open '/home/sinton/sjsu1f/mlbavgwindindexk.csv' for reading: No such file or directory tail: cannot open '/home/sinton/sjsu1f/mlbcalmindexk.csv' for reading: No such file or directory tail: cannot open '/home/sinton/sjsu1f/mlbavgwindindexk.csv' for reading: No such file or directory tail: cannot open '/home/sinton/sjsu1f/mlbcalmindexk.csv' for reading: No such file or directory tail: cannot open '/home/sinton/sjsu1f/mlbavgwindindexk.csv' for reading: No such file or directory tail: cannot open '/home/sinton/sjsu1f/mlbcalmindexk.csv' for reading: No such file or directory tail: cannot open '/home/sinton/sjsu1f/mlbavgwindindexk.csv' for reading: No such file or directory % Total % Received % Xferd Average Speed Time Time Time Current Dload Upload Total Spent Left Speed 0 0 0 0 0 0 0 0 --:--:-- --:--:-- --:--:-- 0 100 431 100 431 0 0 4842 0 --:--:-- --:--:-- --:--:-- 4842 % Total % Received % Xferd Average Speed Time Time Time Current Dload Upload Total Spent Left Speed 0 0 0 0 0 0 0 0 --:--:-- --:--:-- --:--:-- 0 100 429 100 429 0 0 2841 0 --:--:-- --:--:-- --:--:-- 2841 % Total % Received % Xferd Average Speed Time Time Time Current Dload Upload Total Spent Left Speed 0 0 0 0 0 0 0 0 --:--:-- --:--:-- --:--:-- 0 100 432 100 432 0 0 8816 0 --:--:-- --:--:-- --:--:-- 8816 % Total % Received % Xferd Average Speed Time Time Time Current Dload Upload Total Spent Left Speed 0 0 0 0 0 0 0 0 --:--:-- --:--:-- --:--:-- 0 100 432 100 432 0 0 8816 0 --:--:-- --:--:-- --:--:-- 8816 % Total % Received % Xferd Average Speed Time Time Time Current Dload Upload Total Spent Left Speed 0 0 0 0 0 0 0 0 --:--:-- --:--:-- --:--:-- 0 100 431 100 431 0 0 3990 0 --:--:-- --:--:-- --:--:-- 3990 tail: cannot open '/home/sinton/sjsu1f/mlbcalmindexk.csv' for reading: No such file or directory tail: cannot open '/home/sinton/sjsu1f/mlbavgwindindexk.csv' for reading: No such file or directory tail: cannot open '/home/sinton/sjsu1f/mlbcalmindexk.csv' for reading: No such file or directory tail: cannot open '/home/sinton/sjsu1f/mlbavgwindindexk.csv' for reading: No such file or directory tail: cannot open '/home/sinton/sjsu1f/mlbcalmindexk.csv' for reading: No such file or directory tail: cannot open '/home/sinton/sjsu1f/mlbavgwindindexk.csv' for reading: No such file or directory tail: cannot open '/home/sinton/sjsu1f/mlbcalmindexk.csv' for reading: No such file or directory tail: cannot open '/home/sinton/sjsu1f/mlbavgwindindexk.csv' for reading: No such file or directory tail: cannot open '/home/sinton/sjsu1f/mlbcalmindexk.csv' for reading: No such file or directory tail: cannot open '/home/sinton/sjsu1f/mlbavgwindindexk.csv' for reading: No such file or directory mv: cannot stat '/home/sinton/public_html/John1f/oakstuck': No such file or directory tail: cannot open '/home/sinton/sjsu1f/mlbcalmindexk.csv' for reading: No such file or directory tail: cannot open '/home/sinton/sjsu1f/mlbavgwindindexk.csv' for reading: No such file or directory tail: cannot open '/home/sinton/sjsu1f/mlbcalmindexk.csv' for reading: No such file or directory tail: cannot open '/home/sinton/sjsu1f/mlbavgwindindexk.csv' for reading: No such file or directory tail: cannot open '/home/sinton/sjsu1f/mlbcalmindexk.csv' for reading: No such file or directory tail: cannot open '/home/sinton/sjsu1f/mlbavgwindindexk.csv' for reading: No such file or directory tail: cannot open '/home/sinton/sjsu1f/mlbcalmindexk.csv' for reading: No such file or directory tail: cannot open '/home/sinton/sjsu1f/mlbavgwindindexk.csv' for reading: No such file or directory tail: cannot open '/home/sinton/sjsu1f/mlbcalmindexk.csv' for reading: No such file or directory tail: cannot open '/home/sinton/sjsu1f/mlbavgwindindexk.csv' for reading: No such file or directory % Total % Received % Xferd Average Speed Time Time Time Current Dload Upload Total Spent Left Speed 0 0 0 0 0 0 0 0 --:--:-- --:--:-- --:--:-- 0 100 431 100 431 0 0 6157 0 --:--:-- --:--:-- --:--:-- 6246 % Total % Received % Xferd Average Speed Time Time Time Current Dload Upload Total Spent Left Speed 0 0 0 0 0 0 0 0 --:--:-- --:--:-- --:--:-- 0 100 429 100 429 0 0 5296 0 --:--:-- --:--:-- --:--:-- 5296 % Total % Received % Xferd Average Speed Time Time Time Current Dload Upload Total Spent Left Speed 0 0 0 0 0 0 0 0 --:--:-- --:--:-- --:--:-- 0 100 432 100 432 0 0 2170 0 --:--:-- --:--:-- --:--:-- 2160 100 432 100 432 0 0 2170 0 --:--:-- --:--:-- --:--:-- 2160 % Total % Received % Xferd Average Speed Time Time Time Current Dload Upload Total Spent Left Speed 0 0 0 0 0 0 0 0 --:--:-- --:--:-- --:--:-- 0 100 432 100 432 0 0 5333 0 --:--:-- --:--:-- --:--:-- 5333 % Total % Received % Xferd Average Speed Time Time Time Current Dload Upload Total Spent Left Speed 0 0 0 0 0 0 0 0 --:--:-- --:--:-- --:--:-- 0 100 431 100 431 0 0 3561 0 --:--:-- --:--:-- --:--:-- 3561 tail: cannot open '/home/sinton/sjsu1f/mlbcalmindexk.csv' for reading: No such file or directory tail: cannot open '/home/sinton/sjsu1f/mlbavgwindindexk.csv' for reading: No such file or directory tail: cannot open '/home/sinton/sjsu1f/mlbcalmindexk.csv' for reading: No such file or directory tail: cannot open '/home/sinton/sjsu1f/mlbavgwindindexk.csv' for reading: No such file or directory tail: cannot open '/home/sinton/sjsu1f/mlbcalmindexk.csv' for reading: No such file or directory tail: cannot open '/home/sinton/sjsu1f/mlbavgwindindexk.csv' for reading: No such file or directory tail: cannot open '/home/sinton/sjsu1f/mlbcalmindexk.csv' for reading: No such file or directory tail: cannot open '/home/sinton/sjsu1f/mlbavgwindindexk.csv' for reading: No such file or directory tail: cannot open '/home/sinton/sjsu1f/mlbcalmindexk.csv' for reading: No such file or directory tail: cannot open '/home/sinton/sjsu1f/mlbavgwindindexk.csv' for reading: No such file or directory tail: cannot open '/home/sinton/sjsu1f/mlbcalmindexk.csv' for reading: No such file or directory tail: cannot open '/home/sinton/sjsu1f/mlbavgwindindexk.csv' for reading: No such file or directory tail: cannot open '/home/sinton/sjsu1f/mlbcalmindexk.csv' for reading: No such file or directory tail: cannot open '/home/sinton/sjsu1f/mlbavgwindindexk.csv' for reading: No such file or directory tail: cannot open '/home/sinton/sjsu1f/mlbcalmindexk.csv' for reading: No such file or directory tail: cannot open '/home/sinton/sjsu1f/mlbavgwindindexk.csv' for reading: No such file or directory tail: cannot open '/home/sinton/sjsu1f/mlbcalmindexk.csv' for reading: No such file or directory tail: cannot open '/home/sinton/sjsu1f/mlbavgwindindexk.csv' for reading: No such file or directory tail: cannot open '/home/sinton/sjsu1f/mlbcalmindexk.csv' for reading: No such file or directory tail: cannot open '/home/sinton/sjsu1f/mlbavgwindindexk.csv' for reading: No such file or directory tail: cannot open '/home/sinton/sjsu1f/mlbcalmindexk.csv' for reading: No such file or directory tail: cannot open '/home/sinton/sjsu1f/mlbavgwindindexk.csv' for reading: No such file or directory tail: cannot open '/home/sinton/sjsu1f/mlbcalmindexk.csv' for reading: No such file or directory tail: cannot open '/home/sinton/sjsu1f/mlbavgwindindexk.csv' for reading: No such file or directory tail: cannot open '/home/sinton/sjsu1f/mlbcalmindexk.csv' for reading: No such file or directory tail: cannot open '/home/sinton/sjsu1f/mlbavgwindindexk.csv' for reading: No such file or directory tail: cannot open '/home/sinton/sjsu1f/mlbcalmindexk.csv' for reading: No such file or directory tail: cannot open '/home/sinton/sjsu1f/mlbavgwindindexk.csv' for reading: No such file or directory tail: cannot open '/home/sinton/sjsu1f/mlbcalmindexk.csv' for reading: No such file or directory tail: cannot open '/home/sinton/sjsu1f/mlbavgwindindexk.csv' for reading: No such file or directory tail: cannot open '/home/sinton/sjsu1f/mlbcalmindexk.csv' for reading: No such file or directory tail: cannot open '/home/sinton/sjsu1f/mlbavgwindindexk.csv' for reading: No such file or directory tail: cannot open '/home/sinton/sjsu1f/mlbcalmindexk.csv' for reading: No such file or directory tail: cannot open '/home/sinton/sjsu1f/mlbavgwindindexk.csv' for reading: No such file or directory % Total % Received % Xferd Average Speed Time Time Time Current Dload Upload Total Spent Left Speed 0 0 0 0 0 0 0 0 --:--:-- --:--:-- --:--:-- 0 100 431 100 431 0 0 7431 0 --:--:-- --:--:-- --:--:-- 7431 % Total % Received % Xferd Average Speed Time Time Time Current Dload Upload Total Spent Left Speed 0 0 0 0 0 0 0 0 --:--:-- --:--:-- --:--:-- 0 100 432 100 432 0 0 9391 0 --:--:-- --:--:-- --:--:-- 9391 % Total % Received % Xferd Average Speed Time Time Time Current Dload Upload Total Spent Left Speed 0 0 0 0 0 0 0 0 --:--:-- --:--:-- --:--:-- 0 0 0 0 0 0 0 0 0 --:--:-- --:--:-- --:--:-- 0 100 432 100 432 0 0 870 0 --:--:-- --:--:-- --:--:-- 869 % Total % Received % Xferd Average Speed Time Time Time Current Dload Upload Total Spent Left Speed 0 0 0 0 0 0 0 0 --:--:-- --:--:-- --:--:-- 0 100 432 100 432 0 0 1878 0 --:--:-- --:--:-- --:--:-- 1878 % Total % Received % Xferd Average Speed Time Time Time Current Dload Upload Total Spent Left Speed 0 0 0 0 0 0 0 0 --:--:-- --:--:-- --:--:-- 0 100 431 100 431 0 0 2448 0 --:--:-- --:--:-- --:--:-- 2448 tail: cannot open '/home/sinton/sjsu1f/mlbcalmindexk.csv' for reading: No such file or directory tail: cannot open '/home/sinton/sjsu1f/mlbavgwindindexk.csv' for reading: No such file or directory tail: cannot open '/home/sinton/sjsu1f/mlbcalmindexk.csv' for reading: No such file or directory tail: cannot open '/home/sinton/sjsu1f/mlbavgwindindexk.csv' for reading: No such file or directory tail: cannot open '/home/sinton/sjsu1f/mlbcalmindexk.csv' for reading: No such file or directory tail: cannot open '/home/sinton/sjsu1f/mlbavgwindindexk.csv' for reading: No such file or directory tail: cannot open '/home/sinton/sjsu1f/mlbcalmindexk.csv' for reading: No such file or directory tail: cannot open '/home/sinton/sjsu1f/mlbavgwindindexk.csv' for reading: No such file or directory tail: cannot open '/home/sinton/sjsu1f/mlbcalmindexk.csv' for reading: No such file or directory tail: cannot open '/home/sinton/sjsu1f/mlbavgwindindexk.csv' for reading: No such file or directory tail: cannot open '/home/sinton/sjsu1f/mlbcalmindexk.csv' for reading: No such file or directory tail: cannot open '/home/sinton/sjsu1f/mlbavgwindindexk.csv' for reading: No such file or directory tail: cannot open '/home/sinton/sjsu1f/mlbcalmindexk.csv' for reading: No such file or directory tail: cannot open '/home/sinton/sjsu1f/mlbavgwindindexk.csv' for reading: No such file or directory tail: cannot open '/home/sinton/sjsu1f/mlbcalmindexk.csv' for reading: No such file or directory tail: cannot open '/home/sinton/sjsu1f/mlbavgwindindexk.csv' for reading: No such file or directory tail: cannot open '/home/sinton/sjsu1f/mlbcalmindexk.csv' for reading: No such file or directory tail: cannot open '/home/sinton/sjsu1f/mlbavgwindindexk.csv' for reading: No such file or directory tail: cannot open '/home/sinton/sjsu1f/mlbcalmindexk.csv' for reading: No such file or directory tail: cannot open '/home/sinton/sjsu1f/mlbavgwindindexk.csv' for reading: No such file or directory tail: cannot open '/home/sinton/sjsu1f/mlbcalmindexk.csv' for reading: No such file or directory tail: cannot open '/home/sinton/sjsu1f/mlbavgwindindexk.csv' for reading: No such file or directory tail: cannot open '/home/sinton/sjsu1f/mlbcalmindexk.csv' for reading: No such file or directory tail: cannot open '/home/sinton/sjsu1f/mlbavgwindindexk.csv' for reading: No such file or directory tail: cannot open '/home/sinton/sjsu1f/mlbcalmindexk.csv' for reading: No such file or directory tail: cannot open '/home/sinton/sjsu1f/mlbavgwindindexk.csv' for reading: No such file or directory % Total % Received % Xferd Average Speed Time Time Time Current Dload Upload Total Spent Left Speed 0 0 0 0 0 0 0 0 --:--:-- --:--:-- --:--:-- 0 100 429 100 429 0 0 4422 0 --:--:-- --:--:-- --:--:-- 4422 % Total % Received % Xferd Average Speed Time Time Time Current Dload Upload Total Spent Left Speed 0 0 0 0 0 0 0 0 --:--:-- --:--:-- --:--:-- 0 100 432 100 432 0 0 3661 0 --:--:-- --:--:-- --:--:-- 3661 % Total % Received % Xferd Average Speed Time Time Time Current Dload Upload Total Spent Left Speed 0 0 0 0 0 0 0 0 --:--:-- --:--:-- --:--:-- 0 100 432 100 432 0 0 6260 0 --:--:-- --:--:-- --:--:-- 6260 % Total % Received % Xferd Average Speed Time Time Time Current Dload Upload Total Spent Left Speed 0 0 0 0 0 0 0 0 --:--:-- --:--:-- --:--:-- 0 100 432 100 432 0 0 4037 0 --:--:-- --:--:-- --:--:-- 4000 100 432 100 432 0 0 4037 0 --:--:-- --:--:-- --:--:-- 4000 % Total % Received % Xferd Average Speed Time Time Time Current Dload Upload Total Spent Left Speed 0 0 0 0 0 0 0 0 --:--:-- --:--:-- --:--:-- 0 100 431 100 431 0 0 5986 0 --:--:-- --:--:-- --:--:-- 5986 tail: cannot open '/home/sinton/sjsu1f/mlbcalmindexk.csv' for reading: No such file or directory tail: cannot open '/home/sinton/sjsu1f/mlbavgwindindexk.csv' for reading: No such file or directory tail: cannot open '/home/sinton/sjsu1f/mlbcalmindexk.csv' for reading: No such file or directory tail: cannot open '/home/sinton/sjsu1f/mlbavgwindindexk.csv' for reading: No such file or directory tail: cannot open '/home/sinton/sjsu1f/mlbcalmindexk.csv' for reading: No such file or directory tail: cannot open '/home/sinton/sjsu1f/mlbavgwindindexk.csv' for reading: No such file or directory tail: cannot open '/home/sinton/sjsu1f/mlbcalmindexk.csv' for reading: No such file or directory tail: cannot open '/home/sinton/sjsu1f/mlbavgwindindexk.csv' for reading: No such file or directory tail: cannot open '/home/sinton/sjsu1f/mlbcalmindexk.csv' for reading: No such file or directory tail: cannot open '/home/sinton/sjsu1f/mlbavgwindindexk.csv' for reading: No such file or directory tail: cannot open '/home/sinton/sjsu1f/mlbcalmindexk.csv' for reading: No such file or directory tail: cannot open '/home/sinton/sjsu1f/mlbavgwindindexk.csv' for reading: No such file or directory tail: cannot open '/home/sinton/sjsu1f/mlbcalmindexk.csv' for reading: No such file or directory tail: cannot open '/home/sinton/sjsu1f/mlbavgwindindexk.csv' for reading: No such file or directory tail: cannot open '/home/sinton/sjsu1f/mlbcalmindexk.csv' for reading: No such file or directory tail: cannot open '/home/sinton/sjsu1f/mlbavgwindindexk.csv' for reading: No such file or directory tail: cannot open '/home/sinton/sjsu1f/mlbcalmindexk.csv' for reading: No such file or directory tail: cannot open '/home/sinton/sjsu1f/mlbavgwindindexk.csv' for reading: No such file or directory tail: cannot open '/home/sinton/sjsu1f/mlbcalmindexk.csv' for reading: No such file or directory tail: cannot open '/home/sinton/sjsu1f/mlbavgwindindexk.csv' for reading: No such file or directory tail: cannot open '/home/sinton/sjsu1f/mlbcalmindexk.csv' for reading: No such file or directory tail: cannot open '/home/sinton/sjsu1f/mlbavgwindindexk.csv' for reading: No such file or directory tail: cannot open '/home/sinton/sjsu1f/mlbcalmindexk.csv' for reading: No such file or directory tail: cannot open '/home/sinton/sjsu1f/mlbavgwindindexk.csv' for reading: No such file or directory tail: cannot open '/home/sinton/sjsu1f/mlbcalmindexk.csv' for reading: No such file or directory tail: cannot open '/home/sinton/sjsu1f/mlbavgwindindexk.csv' for reading: No such file or directory tail: cannot open '/home/sinton/sjsu1f/mlbcalmindexk.csv' for reading: No such file or directory tail: cannot open '/home/sinton/sjsu1f/mlbavgwindindexk.csv' for reading: No such file or directory % Total % Received % Xferd Average Speed Time Time Time Current Dload Upload Total Spent Left Speed 0 0 0 0 0 0 0 0 --:--:-- --:--:-- --:--:-- 0 100 432 100 432 0 0 5468 0 --:--:-- --:--:-- --:--:-- 5468 % Total % Received % Xferd Average Speed Time Time Time Current Dload Upload Total Spent Left Speed 0 0 0 0 0 0 0 0 --:--:-- --:--:-- --:--:-- 0 100 432 100 432 0 0 2261 0 --:--:-- --:--:-- --:--:-- 2261 % Total % Received % Xferd Average Speed Time Time Time Current Dload Upload Total Spent Left Speed 0 0 0 0 0 0 0 0 --:--:-- --:--:-- --:--:-- 0 100 432 100 432 0 0 3130 0 --:--:-- --:--:-- --:--:-- 3153 % Total % Received % Xferd Average Speed Time Time Time Current Dload Upload Total Spent Left Speed 0 0 0 0 0 0 0 0 --:--:-- --:--:-- --:--:-- 0 100 431 100 431 0 0 2176 0 --:--:-- --:--:-- --:--:-- 2165 100 431 100 431 0 0 2176 0 --:--:-- --:--:-- --:--:-- 2165 % Total % Received % Xferd Average Speed Time Time Time Current Dload Upload Total Spent Left Speed 0 0 0 0 0 0 0 0 --:--:-- --:--:-- --:--:-- 0 100 430 100 430 0 0 6825 0 --:--:-- --:--:-- --:--:-- 6825 tail: cannot open '/home/sinton/sjsu1f/mlbcalmindexk.csv' for reading: No such file or directory tail: cannot open '/home/sinton/sjsu1f/mlbavgwindindexk.csv' for reading: No such file or directory tail: cannot open '/home/sinton/sjsu1f/mlbcalmindexk.csv' for reading: No such file or directory tail: cannot open '/home/sinton/sjsu1f/mlbavgwindindexk.csv' for reading: No such file or directory tail: cannot open '/home/sinton/sjsu1f/mlbcalmindexk.csv' for reading: No such file or directory tail: cannot open '/home/sinton/sjsu1f/mlbavgwindindexk.csv' for reading: No such file or directory tail: cannot open '/home/sinton/sjsu1f/mlbcalmindexk.csv' for reading: No such file or directory tail: cannot open '/home/sinton/sjsu1f/mlbavgwindindexk.csv' for reading: No such file or directory mv: cannot stat '/home/sinton/public_html/John1f/oakstuck': No such file or directory tail: cannot open '/home/sinton/sjsu1f/mlbcalmindexk.csv' for reading: No such file or directory tail: cannot open '/home/sinton/sjsu1f/mlbavgwindindexk.csv' for reading: No such file or directory tail: cannot open '/home/sinton/sjsu1f/mlbcalmindexk.csv' for reading: No such file or directory tail: cannot open '/home/sinton/sjsu1f/mlbavgwindindexk.csv' for reading: No such file or directory tail: cannot open '/home/sinton/sjsu1f/mlbcalmindexk.csv' for reading: No such file or directory tail: cannot open '/home/sinton/sjsu1f/mlbavgwindindexk.csv' for reading: No such file or directory tail: cannot open '/home/sinton/sjsu1f/mlbcalmindexk.csv' for reading: No such file or directory tail: cannot open '/home/sinton/sjsu1f/mlbavgwindindexk.csv' for reading: No such file or directory tail: cannot open '/home/sinton/sjsu1f/mlbcalmindexk.csv' for reading: No such file or directory tail: cannot open '/home/sinton/sjsu1f/mlbavgwindindexk.csv' for reading: No such file or directory tail: cannot open '/home/sinton/sjsu1f/mlbcalmindexk.csv' for reading: No such file or directory tail: cannot open '/home/sinton/sjsu1f/mlbavgwindindexk.csv' for reading: No such file or directory tail: cannot open '/home/sinton/sjsu1f/mlbcalmindexk.csv' for reading: No such file or directory tail: cannot open '/home/sinton/sjsu1f/mlbavgwindindexk.csv' for reading: No such file or directory tail: cannot open '/home/sinton/sjsu1f/mlbcalmindexk.csv' for reading: No such file or directory tail: cannot open '/home/sinton/sjsu1f/mlbavgwindindexk.csv' for reading: No such file or directory tail: cannot open '/home/sinton/sjsu1f/mlbcalmindexk.csv' for reading: No such file or directory tail: cannot open '/home/sinton/sjsu1f/mlbavgwindindexk.csv' for reading: No such file or directory % Total % Received % Xferd Average Speed Time Time Time Current Dload Upload Total Spent Left Speed 0 0 0 0 0 0 0 0 --:--:-- --:--:-- --:--:-- 0 100 432 100 432 0 0 3323 0 --:--:-- --:--:-- --:--:-- 3323 % Total % Received % Xferd Average Speed Time Time Time Current Dload Upload Total Spent Left Speed 0 0 0 0 0 0 0 0 --:--:-- --:--:-- --:--:-- 0 100 431 100 431 0 0 3145 0 --:--:-- --:--:-- --:--:-- 3145 % Total % Received % Xferd Average Speed Time Time Time Current Dload Upload Total Spent Left Speed 0 0 0 0 0 0 0 0 --:--:-- --:--:-- --:--:-- 0 100 430 100 430 0 0 3138 0 --:--:-- --:--:-- --:--:-- 3138 % Total % Received % Xferd Average Speed Time Time Time Current Dload Upload Total Spent Left Speed 0 0 0 0 0 0 0 0 --:--:-- --:--:-- --:--:-- 0 100 432 100 432 0 0 6646 0 --:--:-- --:--:-- --:--:-- 6646 % Total % Received % Xferd Average Speed Time Time Time Current Dload Upload Total Spent Left Speed 0 0 0 0 0 0 0 0 --:--:-- --:--:-- --:--:-- 0 100 431 100 431 0 0 2072 0 --:--:-- --:--:-- --:--:-- 2082 tail: cannot open '/home/sinton/sjsu1f/mlbcalmindexk.csv' for reading: No such file or directory tail: cannot open '/home/sinton/sjsu1f/mlbavgwindindexk.csv' for reading: No such file or directory tail: cannot open '/home/sinton/sjsu1f/mlbcalmindexk.csv' for reading: No such file or directory tail: cannot open '/home/sinton/sjsu1f/mlbavgwindindexk.csv' for reading: No such file or directory tail: cannot open '/home/sinton/sjsu1f/mlbcalmindexk.csv' for reading: No such file or directory tail: cannot open '/home/sinton/sjsu1f/mlbavgwindindexk.csv' for reading: No such file or directory tail: cannot open '/home/sinton/sjsu1f/mlbcalmindexk.csv' for reading: No such file or directory tail: cannot open '/home/sinton/sjsu1f/mlbavgwindindexk.csv' for reading: No such file or directory tail: cannot open '/home/sinton/sjsu1f/mlbcalmindexk.csv' for reading: No such file or directory tail: cannot open '/home/sinton/sjsu1f/mlbavgwindindexk.csv' for reading: No such file or directory tail: cannot open '/home/sinton/sjsu1f/mlbcalmindexk.csv' for reading: No such file or directory tail: cannot open '/home/sinton/sjsu1f/mlbavgwindindexk.csv' for reading: No such file or directory tail: cannot open '/home/sinton/sjsu1f/mlbcalmindexk.csv' for reading: No such file or directory tail: cannot open '/home/sinton/sjsu1f/mlbavgwindindexk.csv' for reading: No such file or directory tail: cannot open '/home/sinton/sjsu1f/mlbcalmindexk.csv' for reading: No such file or directory tail: cannot open '/home/sinton/sjsu1f/mlbavgwindindexk.csv' for reading: No such file or directory tail: cannot open '/home/sinton/sjsu1f/mlbcalmindexk.csv' for reading: No such file or directory tail: cannot open '/home/sinton/sjsu1f/mlbavgwindindexk.csv' for reading: No such file or directory tail: cannot open '/home/sinton/sjsu1f/mlbcalmindexk.csv' for reading: No such file or directory tail: cannot open '/home/sinton/sjsu1f/mlbavgwindindexk.csv' for reading: No such file or directory tail: cannot open '/home/sinton/sjsu1f/mlbcalmindexk.csv' for reading: No such file or directory tail: cannot open '/home/sinton/sjsu1f/mlbavgwindindexk.csv' for reading: No such file or directory tail: cannot open '/home/sinton/sjsu1f/mlbcalmindexk.csv' for reading: No such file or directory tail: cannot open '/home/sinton/sjsu1f/mlbavgwindindexk.csv' for reading: No such file or directory tail: cannot open '/home/sinton/sjsu1f/mlbcalmindexk.csv' for reading: No such file or directory tail: cannot open '/home/sinton/sjsu1f/mlbavgwindindexk.csv' for reading: No such file or directory % Total % Received % Xferd Average Speed Time Time Time Current Dload Upload Total Spent Left Speed 0 0 0 0 0 0 0 0 --:--:-- --:--:-- --:--:-- 0 100 429 100 429 0 0 6809 0 --:--:-- --:--:-- --:--:-- 6809 % Total % Received % Xferd Average Speed Time Time Time Current Dload Upload Total Spent Left Speed 0 0 0 0 0 0 0 0 --:--:-- --:--:-- --:--:-- 0 100 431 100 431 0 0 4842 0 --:--:-- --:--:-- --:--:-- 4842 % Total % Received % Xferd Average Speed Time Time Time Current Dload Upload Total Spent Left Speed 0 0 0 0 0 0 0 0 --:--:-- --:--:-- --:--:-- 0 100 431 100 431 0 0 6530 0 --:--:-- --:--:-- --:--:-- 6630 % Total % Received % Xferd Average Speed Time Time Time Current Dload Upload Total Spent Left Speed 0 0 0 0 0 0 0 0 --:--:-- --:--:-- --:--:-- 0 100 432 100 432 0 0 3724 0 --:--:-- --:--:-- --:--:-- 3692 100 432 100 432 0 0 3724 0 --:--:-- --:--:-- --:--:-- 3692 % Total % Received % Xferd Average Speed Time Time Time Current Dload Upload Total Spent Left Speed 0 0 0 0 0 0 0 0 --:--:-- --:--:-- --:--:-- 0 100 431 100 431 0 0 4353 0 --:--:-- --:--:-- --:--:-- 4353 tail: cannot open '/home/sinton/sjsu1f/mlbcalmindexk.csv' for reading: No such file or directory tail: cannot open '/home/sinton/sjsu1f/mlbavgwindindexk.csv' for reading: No such file or directory tail: cannot open '/home/sinton/sjsu1f/mlbcalmindexk.csv' for reading: No such file or directory tail: cannot open '/home/sinton/sjsu1f/mlbavgwindindexk.csv' for reading: No such file or directory tail: cannot open '/home/sinton/sjsu1f/mlbcalmindexk.csv' for reading: No such file or directory tail: cannot open '/home/sinton/sjsu1f/mlbavgwindindexk.csv' for reading: No such file or directory tail: cannot open '/home/sinton/sjsu1f/mlbcalmindexk.csv' for reading: No such file or directory tail: cannot open '/home/sinton/sjsu1f/mlbavgwindindexk.csv' for reading: No such file or directory tail: cannot open '/home/sinton/sjsu1f/mlbcalmindexk.csv' for reading: No such file or directory tail: cannot open '/home/sinton/sjsu1f/mlbavgwindindexk.csv' for reading: No such file or directory tail: cannot open '/home/sinton/sjsu1f/mlbcalmindexk.csv' for reading: No such file or directory tail: cannot open '/home/sinton/sjsu1f/mlbavgwindindexk.csv' for reading: No such file or directory tail: cannot open '/home/sinton/sjsu1f/mlbcalmindexk.csv' for reading: No such file or directory tail: cannot open '/home/sinton/sjsu1f/mlbavgwindindexk.csv' for reading: No such file or directory tail: cannot open '/home/sinton/sjsu1f/mlbcalmindexk.csv' for reading: No such file or directory tail: cannot open '/home/sinton/sjsu1f/mlbavgwindindexk.csv' for reading: No such file or directory tail: cannot open '/home/sinton/sjsu1f/mlbcalmindexk.csv' for reading: No such file or directory tail: cannot open '/home/sinton/sjsu1f/mlbavgwindindexk.csv' for reading: No such file or directory tail: cannot open '/home/sinton/sjsu1f/mlbcalmindexk.csv' for reading: No such file or directory tail: cannot open '/home/sinton/sjsu1f/mlbavgwindindexk.csv' for reading: No such file or directory tail: cannot open '/home/sinton/sjsu1f/mlbcalmindexk.csv' for reading: No such file or directory tail: cannot open '/home/sinton/sjsu1f/mlbavgwindindexk.csv' for reading: No such file or directory % Total % Received % Xferd Average Speed Time Time Time Current Dload Upload Total Spent Left Speed 0 0 0 0 0 0 0 0 --:--:-- --:--:-- --:--:-- 0 100 429 100 429 0 0 7800 0 --:--:-- --:--:-- --:--:-- 7944 % Total % Received % Xferd Average Speed Time Time Time Current Dload Upload Total Spent Left Speed 0 0 0 0 0 0 0 0 --:--:-- --:--:-- --:--:-- 0 100 431 100 431 0 0 1924 0 --:--:-- --:--:-- --:--:-- 1924 % Total % Received % Xferd Average Speed Time Time Time Current Dload Upload Total Spent Left Speed 0 0 0 0 0 0 0 0 --:--:-- --:--:-- --:--:-- 0 100 431 100 431 0 0 8979 0 --:--:-- --:--:-- --:--:-- 8979 % Total % Received % Xferd Average Speed Time Time Time Current Dload Upload Total Spent Left Speed 0 0 0 0 0 0 0 0 --:--:-- --:--:-- --:--:-- 0 100 432 100 432 0 0 6857 0 --:--:-- --:--:-- --:--:-- 6857 % Total % Received % Xferd Average Speed Time Time Time Current Dload Upload Total Spent Left Speed 0 0 0 0 0 0 0 0 --:--:-- --:--:-- --:--:-- 0 100 431 100 431 0 0 3290 0 --:--:-- --:--:-- --:--:-- 3290 tail: cannot open '/home/sinton/sjsu1f/mlbcalmindexk.csv' for reading: No such file or directory tail: cannot open '/home/sinton/sjsu1f/mlbavgwindindexk.csv' for reading: No such file or directory tail: cannot open '/home/sinton/sjsu1f/mlbcalmindexk.csv' for reading: No such file or directory tail: cannot open '/home/sinton/sjsu1f/mlbavgwindindexk.csv' for reading: No such file or directory tail: cannot open '/home/sinton/sjsu1f/mlbcalmindexk.csv' for reading: No such file or directory tail: cannot open '/home/sinton/sjsu1f/mlbavgwindindexk.csv' for reading: No such file or directory tail: cannot open '/home/sinton/sjsu1f/mlbcalmindexk.csv' for reading: No such file or directory tail: cannot open '/home/sinton/sjsu1f/mlbavgwindindexk.csv' for reading: No such file or directory tail: cannot open '/home/sinton/sjsu1f/mlbcalmindexk.csv' for reading: No such file or directory tail: cannot open '/home/sinton/sjsu1f/mlbavgwindindexk.csv' for reading: No such file or directory tail: cannot open '/home/sinton/sjsu1f/mlbcalmindexk.csv' for reading: No such file or directory tail: cannot open '/home/sinton/sjsu1f/mlbavgwindindexk.csv' for reading: No such file or directory tail: cannot open '/home/sinton/sjsu1f/mlbcalmindexk.csv' for reading: No such file or directory tail: cannot open '/home/sinton/sjsu1f/mlbavgwindindexk.csv' for reading: No such file or directory tail: cannot open '/home/sinton/sjsu1f/mlbcalmindexk.csv' for reading: No such file or directory tail: cannot open '/home/sinton/sjsu1f/mlbavgwindindexk.csv' for reading: No such file or directory tail: cannot open '/home/sinton/sjsu1f/mlbcalmindexk.csv' for reading: No such file or directory tail: cannot open '/home/sinton/sjsu1f/mlbavgwindindexk.csv' for reading: No such file or directory tail: cannot open '/home/sinton/sjsu1f/mlbcalmindexk.csv' for reading: No such file or directory tail: cannot open '/home/sinton/sjsu1f/mlbavgwindindexk.csv' for reading: No such file or directory tail: cannot open '/home/sinton/sjsu1f/mlbcalmindexk.csv' for reading: No such file or directory tail: cannot open '/home/sinton/sjsu1f/mlbavgwindindexk.csv' for reading: No such file or directory tail: cannot open '/home/sinton/sjsu1f/mlbcalmindexk.csv' for reading: No such file or directory tail: cannot open '/home/sinton/sjsu1f/mlbavgwindindexk.csv' for reading: No such file or directory tail: cannot open '/home/sinton/sjsu1f/mlbcalmindexk.csv' for reading: No such file or directory tail: cannot open '/home/sinton/sjsu1f/mlbavgwindindexk.csv' for reading: No such file or directory tail: cannot open '/home/sinton/sjsu1f/mlbcalmindexk.csv' for reading: No such file or directory tail: cannot open '/home/sinton/sjsu1f/mlbavgwindindexk.csv' for reading: No such file or directory tail: cannot open '/home/sinton/sjsu1f/mlbcalmindexk.csv' for reading: No such file or directory tail: cannot open '/home/sinton/sjsu1f/mlbavgwindindexk.csv' for reading: No such file or directory tail: cannot open '/home/sinton/sjsu1f/mlbcalmindexk.csv' for reading: No such file or directory tail: cannot open '/home/sinton/sjsu1f/mlbavgwindindexk.csv' for reading: No such file or directory tail: cannot open '/home/sinton/sjsu1f/mlbcalmindexk.csv' for reading: No such file or directory tail: cannot open '/home/sinton/sjsu1f/mlbavgwindindexk.csv' for reading: No such file or directory % Total % Received % Xferd Average Speed Time Time Time Current Dload Upload Total Spent Left Speed 0 0 0 0 0 0 0 0 --:--:-- --:--:-- --:--:-- 0 100 431 100 431 0 0 6338 0 --:--:-- --:--:-- --:--:-- 6338 % Total % Received % Xferd Average Speed Time Time Time Current Dload Upload Total Spent Left Speed 0 0 0 0 0 0 0 0 --:--:-- --:--:-- --:--:-- 0 100 430 100 430 0 0 8431 0 --:--:-- --:--:-- --:--:-- 8431 % Total % Received % Xferd Average Speed Time Time Time Current Dload Upload Total Spent Left Speed 0 0 0 0 0 0 0 0 --:--:-- --:--:-- --:--:-- 0 100 430 100 430 0 0 9772 0 --:--:-- --:--:-- --:--:-- 9555 100 430 100 430 0 0 9772 0 --:--:-- --:--:-- --:--:-- 9555 % Total % Received % Xferd Average Speed Time Time Time Current Dload Upload Total Spent Left Speed 0 0 0 0 0 0 0 0 --:--:-- --:--:-- --:--:-- 0 100 432 100 432 0 0 2938 0 --:--:-- --:--:-- --:--:-- 2958 % Total % Received % Xferd Average Speed Time Time Time Current Dload Upload Total Spent Left Speed 0 0 0 0 0 0 0 0 --:--:-- --:--:-- --:--:-- 0 100 431 100 431 0 0 2407 0 --:--:-- --:--:-- --:--:-- 2407 tail: cannot open '/home/sinton/sjsu1f/mlbcalmindexk.csv' for reading: No such file or directory tail: cannot open '/home/sinton/sjsu1f/mlbavgwindindexk.csv' for reading: No such file or directory tail: cannot open '/home/sinton/sjsu1f/mlbcalmindexk.csv' for reading: No such file or directory tail: cannot open '/home/sinton/sjsu1f/mlbavgwindindexk.csv' for reading: No such file or directory mv: cannot stat '/home/sinton/public_html/John1f/oakstuck': No such file or directory tail: cannot open '/home/sinton/sjsu1f/mlbcalmindexk.csv' for reading: No such file or directory tail: cannot open '/home/sinton/sjsu1f/mlbavgwindindexk.csv' for reading: No such file or directory tail: cannot open '/home/sinton/sjsu1f/mlbcalmindexk.csv' for reading: No such file or directory tail: cannot open '/home/sinton/sjsu1f/mlbavgwindindexk.csv' for reading: No such file or directory tail: cannot open '/home/sinton/sjsu1f/mlbcalmindexk.csv' for reading: No such file or directory tail: cannot open '/home/sinton/sjsu1f/mlbavgwindindexk.csv' for reading: No such file or directory tail: cannot open '/home/sinton/sjsu1f/mlbcalmindexk.csv' for reading: No such file or directory tail: cannot open '/home/sinton/sjsu1f/mlbavgwindindexk.csv' for reading: No such file or directory tail: cannot open '/home/sinton/sjsu1f/mlbcalmindexk.csv' for reading: No such file or directory tail: cannot open '/home/sinton/sjsu1f/mlbavgwindindexk.csv' for reading: No such file or directory tail: cannot open '/home/sinton/sjsu1f/mlbcalmindexk.csv' for reading: No such file or directory tail: cannot open '/home/sinton/sjsu1f/mlbavgwindindexk.csv' for reading: No such file or directory tail: cannot open '/home/sinton/sjsu1f/mlbcalmindexk.csv' for reading: No such file or directory tail: cannot open '/home/sinton/sjsu1f/mlbavgwindindexk.csv' for reading: No such file or directory tail: cannot open '/home/sinton/sjsu1f/mlbcalmindexk.csv' for reading: No such file or directory tail: cannot open '/home/sinton/sjsu1f/mlbavgwindindexk.csv' for reading: No such file or directory tail: cannot open '/home/sinton/sjsu1f/mlbcalmindexk.csv' for reading: No such file or directory tail: cannot open '/home/sinton/sjsu1f/mlbavgwindindexk.csv' for reading: No such file or directory tail: cannot open '/home/sinton/sjsu1f/mlbcalmindexk.csv' for reading: No such file or directory tail: cannot open '/home/sinton/sjsu1f/mlbavgwindindexk.csv' for reading: No such file or directory tail: cannot open '/home/sinton/sjsu1f/mlbcalmindexk.csv' for reading: No such file or directory tail: cannot open '/home/sinton/sjsu1f/mlbavgwindindexk.csv' for reading: No such file or directory % Total % Received % Xferd Average Speed Time Time Time Current Dload Upload Total Spent Left Speed 0 0 0 0 0 0 0 0 --:--:-- --:--:-- --:--:-- 0 100 425 100 425 0 0 1727 0 --:--:-- --:--:-- --:--:-- 1727 % Total % Received % Xferd Average Speed Time Time Time Current Dload Upload Total Spent Left Speed 0 0 0 0 0 0 0 0 --:--:-- --:--:-- --:--:-- 0 100 426 100 426 0 0 2505 0 --:--:-- --:--:-- --:--:-- 2491 100 426 100 426 0 0 2505 0 --:--:-- --:--:-- --:--:-- 2491 % Total % Received % Xferd Average Speed Time Time Time Current Dload Upload Total Spent Left Speed 0 0 0 0 0 0 0 0 --:--:-- --:--:-- --:--:-- 0 100 431 100 431 0 0 1710 0 --:--:-- --:--:-- --:--:-- 1710 % Total % Received % Xferd Average Speed Time Time Time Current Dload Upload Total Spent Left Speed 0 0 0 0 0 0 0 0 --:--:-- --:--:-- --:--:-- 0 100 432 100 432 0 0 1655 0 --:--:-- --:--:-- --:--:-- 1655 % Total % Received % Xferd Average Speed Time Time Time Current Dload Upload Total Spent Left Speed 0 0 0 0 0 0 0 0 --:--:-- --:--:-- --:--:-- 0 100 431 100 431 0 0 1590 0 --:--:-- --:--:-- --:--:-- 1590 tail: cannot open '/home/sinton/sjsu1f/mlbcalmindexk.csv' for reading: No such file or directory tail: cannot open '/home/sinton/sjsu1f/mlbavgwindindexk.csv' for reading: No such file or directory tail: cannot open '/home/sinton/sjsu1f/mlbcalmindexk.csv' for reading: No such file or directory tail: cannot open '/home/sinton/sjsu1f/mlbavgwindindexk.csv' for reading: No such file or directory tail: cannot open '/home/sinton/sjsu1f/mlbcalmindexk.csv' for reading: No such file or directory tail: cannot open '/home/sinton/sjsu1f/mlbavgwindindexk.csv' for reading: No such file or directory tail: cannot open '/home/sinton/sjsu1f/mlbcalmindexk.csv' for reading: No such file or directory tail: cannot open '/home/sinton/sjsu1f/mlbavgwindindexk.csv' for reading: No such file or directory tail: cannot open '/home/sinton/sjsu1f/mlbcalmindexk.csv' for reading: No such file or directory tail: cannot open '/home/sinton/sjsu1f/mlbavgwindindexk.csv' for reading: No such file or directory tail: cannot open '/home/sinton/sjsu1f/mlbcalmindexk.csv' for reading: No such file or directory tail: cannot open '/home/sinton/sjsu1f/mlbavgwindindexk.csv' for reading: No such file or directory tail: cannot open '/home/sinton/sjsu1f/mlbcalmindexk.csv' for reading: No such file or directory tail: cannot open '/home/sinton/sjsu1f/mlbavgwindindexk.csv' for reading: No such file or directory tail: cannot open '/home/sinton/sjsu1f/mlbcalmindexk.csv' for reading: No such file or directory tail: cannot open '/home/sinton/sjsu1f/mlbavgwindindexk.csv' for reading: No such file or directory tail: cannot open '/home/sinton/sjsu1f/mlbcalmindexk.csv' for reading: No such file or directory tail: cannot open '/home/sinton/sjsu1f/mlbavgwindindexk.csv' for reading: No such file or directory tail: cannot open '/home/sinton/sjsu1f/mlbcalmindexk.csv' for reading: No such file or directory tail: cannot open '/home/sinton/sjsu1f/mlbavgwindindexk.csv' for reading: No such file or directory tail: cannot open '/home/sinton/sjsu1f/mlbcalmindexk.csv' for reading: No such file or directory tail: cannot open '/home/sinton/sjsu1f/mlbavgwindindexk.csv' for reading: No such file or directory tail: cannot open '/home/sinton/sjsu1f/mlbcalmindexk.csv' for reading: No such file or directory tail: cannot open '/home/sinton/sjsu1f/mlbavgwindindexk.csv' for reading: No such file or directory tail: cannot open '/home/sinton/sjsu1f/mlbcalmindexk.csv' for reading: No such file or directory tail: cannot open '/home/sinton/sjsu1f/mlbavgwindindexk.csv' for reading: No such file or directory % Total % Received % Xferd Average Speed Time Time Time Current Dload Upload Total Spent Left Speed 0 0 0 0 0 0 0 0 --:--:-- --:--:-- --:--:-- 0 100 431 100 431 0 0 2304 0 --:--:-- --:--:-- --:--:-- 2304 % Total % Received % Xferd Average Speed Time Time Time Current Dload Upload Total Spent Left Speed 0 0 0 0 0 0 0 0 --:--:-- --:--:-- --:--:-- 0 0 0 0 0 0 0 0 0 --:--:-- --:--:-- --:--:-- 0 100 431 100 431 0 0 1657 0 --:--:-- --:--:-- --:--:-- 1651 % Total % Received % Xferd Average Speed Time Time Time Current Dload Upload Total Spent Left Speed 0 0 0 0 0 0 0 0 --:--:-- --:--:-- --:--:-- 0 100 431 100 431 0 0 2421 0 --:--:-- --:--:-- --:--:-- 2421 % Total % Received % Xferd Average Speed Time Time Time Current Dload Upload Total Spent Left Speed 0 0 0 0 0 0 0 0 --:--:-- --:--:-- --:--:-- 0 100 425 100 425 0 0 3244 0 --:--:-- --:--:-- --:--:-- 3244 % Total % Received % Xferd Average Speed Time Time Time Current Dload Upload Total Spent Left Speed 0 0 0 0 0 0 0 0 --:--:-- --:--:-- --:--:-- 0 100 424 100 424 0 0 1835 0 --:--:-- --:--:-- --:--:-- 1835 tail: cannot open '/home/sinton/sjsu1f/mlbcalmindexk.csv' for reading: No such file or directory tail: cannot open '/home/sinton/sjsu1f/mlbavgwindindexk.csv' for reading: No such file or directory tail: cannot open '/home/sinton/sjsu1f/mlbcalmindexk.csv' for reading: No such file or directory tail: cannot open '/home/sinton/sjsu1f/mlbavgwindindexk.csv' for reading: No such file or directory tail: cannot open '/home/sinton/sjsu1f/mlbcalmindexk.csv' for reading: No such file or directory tail: cannot open '/home/sinton/sjsu1f/mlbavgwindindexk.csv' for reading: No such file or directory tail: cannot open '/home/sinton/sjsu1f/mlbcalmindexk.csv' for reading: No such file or directory tail: cannot open '/home/sinton/sjsu1f/mlbavgwindindexk.csv' for reading: No such file or directory tail: cannot open '/home/sinton/sjsu1f/mlbcalmindexk.csv' for reading: No such file or directory tail: cannot open '/home/sinton/sjsu1f/mlbavgwindindexk.csv' for reading: No such file or directory tail: cannot open '/home/sinton/sjsu1f/mlbcalmindexk.csv' for reading: No such file or directory tail: cannot open '/home/sinton/sjsu1f/mlbavgwindindexk.csv' for reading: No such file or directory tail: cannot open '/home/sinton/sjsu1f/mlbcalmindexk.csv' for reading: No such file or directory tail: cannot open '/home/sinton/sjsu1f/mlbavgwindindexk.csv' for reading: No such file or directory tail: cannot open '/home/sinton/sjsu1f/mlbcalmindexk.csv' for reading: No such file or directory tail: cannot open '/home/sinton/sjsu1f/mlbavgwindindexk.csv' for reading: No such file or directory tail: cannot open '/home/sinton/sjsu1f/mlbcalmindexk.csv' for reading: No such file or directory tail: cannot open '/home/sinton/sjsu1f/mlbavgwindindexk.csv' for reading: No such file or directory tail: cannot open '/home/sinton/sjsu1f/mlbcalmindexk.csv' for reading: No such file or directory tail: cannot open '/home/sinton/sjsu1f/mlbavgwindindexk.csv' for reading: No such file or directory tail: cannot open '/home/sinton/sjsu1f/mlbcalmindexk.csv' for reading: No such file or directory tail: cannot open '/home/sinton/sjsu1f/mlbavgwindindexk.csv' for reading: No such file or directory tail: cannot open '/home/sinton/sjsu1f/mlbcalmindexk.csv' for reading: No such file or directory tail: cannot open '/home/sinton/sjsu1f/mlbavgwindindexk.csv' for reading: No such file or directory tail: cannot open '/home/sinton/sjsu1f/mlbcalmindexk.csv' for reading: No such file or directory tail: cannot open '/home/sinton/sjsu1f/mlbavgwindindexk.csv' for reading: No such file or directory tail: cannot open '/home/sinton/sjsu1f/mlbcalmindexk.csv' for reading: No such file or directory tail: cannot open '/home/sinton/sjsu1f/mlbavgwindindexk.csv' for reading: No such file or directory % Total % Received % Xferd Average Speed Time Time Time Current Dload Upload Total Spent Left Speed 0 0 0 0 0 0 0 0 --:--:-- --:--:-- --:--:-- 0 100 432 100 432 0 0 4194 0 --:--:-- --:--:-- --:--:-- 4194 % Total % Received % Xferd Average Speed Time Time Time Current Dload Upload Total Spent Left Speed 0 0 0 0 0 0 0 0 --:--:-- --:--:-- --:--:-- 0 100 432 100 432 0 0 2076 0 --:--:-- --:--:-- --:--:-- 2076 % Total % Received % Xferd Average Speed Time Time Time Current Dload Upload Total Spent Left Speed 0 0 0 0 0 0 0 0 --:--:-- --:--:-- --:--:-- 0 100 432 100 432 0 0 3375 0 --:--:-- --:--:-- --:--:-- 3375 100 432 100 432 0 0 3375 0 --:--:-- --:--:-- --:--:-- 3348 % Total % Received % Xferd Average Speed Time Time Time Current Dload Upload Total Spent Left Speed 0 0 0 0 0 0 0 0 --:--:-- --:--:-- --:--:-- 0 100 431 100 431 0 0 1788 0 --:--:-- --:--:-- --:--:-- 1788 % Total % Received % Xferd Average Speed Time Time Time Current Dload Upload Total Spent Left Speed 0 0 0 0 0 0 0 0 --:--:-- --:--:-- --:--:-- 0 100 430 100 430 0 0 2429 0 --:--:-- --:--:-- --:--:-- 2443 tail: cannot open '/home/sinton/sjsu1f/mlbcalmindexk.csv' for reading: No such file or directory tail: cannot open '/home/sinton/sjsu1f/mlbavgwindindexk.csv' for reading: No such file or directory tail: cannot open '/home/sinton/sjsu1f/mlbcalmindexk.csv' for reading: No such file or directory tail: cannot open '/home/sinton/sjsu1f/mlbavgwindindexk.csv' for reading: No such file or directory tail: cannot open '/home/sinton/sjsu1f/mlbcalmindexk.csv' for reading: No such file or directory tail: cannot open '/home/sinton/sjsu1f/mlbavgwindindexk.csv' for reading: No such file or directory tail: cannot open '/home/sinton/sjsu1f/mlbcalmindexk.csv' for reading: No such file or directory tail: cannot open '/home/sinton/sjsu1f/mlbavgwindindexk.csv' for reading: No such file or directory tail: cannot open '/home/sinton/sjsu1f/mlbcalmindexk.csv' for reading: No such file or directory tail: cannot open '/home/sinton/sjsu1f/mlbavgwindindexk.csv' for reading: No such file or directory tail: cannot open '/home/sinton/sjsu1f/mlbcalmindexk.csv' for reading: No such file or directory tail: cannot open '/home/sinton/sjsu1f/mlbavgwindindexk.csv' for reading: No such file or directory tail: cannot open '/home/sinton/sjsu1f/mlbcalmindexk.csv' for reading: No such file or directory tail: cannot open '/home/sinton/sjsu1f/mlbavgwindindexk.csv' for reading: No such file or directory tail: cannot open '/home/sinton/sjsu1f/mlbcalmindexk.csv' for reading: No such file or directory tail: cannot open '/home/sinton/sjsu1f/mlbavgwindindexk.csv' for reading: No such file or directory tail: cannot open '/home/sinton/sjsu1f/mlbcalmindexk.csv' for reading: No such file or directory tail: cannot open '/home/sinton/sjsu1f/mlbavgwindindexk.csv' for reading: No such file or directory tail: cannot open '/home/sinton/sjsu1f/mlbcalmindexk.csv' for reading: No such file or directory tail: cannot open '/home/sinton/sjsu1f/mlbavgwindindexk.csv' for reading: No such file or directory tail: cannot open '/home/sinton/sjsu1f/mlbcalmindexk.csv' for reading: No such file or directory tail: cannot open '/home/sinton/sjsu1f/mlbavgwindindexk.csv' for reading: No such file or directory tail: cannot open '/home/sinton/sjsu1f/mlbcalmindexk.csv' for reading: No such file or directory tail: cannot open '/home/sinton/sjsu1f/mlbavgwindindexk.csv' for reading: No such file or directory tail: cannot open '/home/sinton/sjsu1f/mlbcalmindexk.csv' for reading: No such file or directory tail: cannot open '/home/sinton/sjsu1f/mlbavgwindindexk.csv' for reading: No such file or directory tail: cannot open '/home/sinton/sjsu1f/mlbcalmindexk.csv' for reading: No such file or directory tail: cannot open '/home/sinton/sjsu1f/mlbavgwindindexk.csv' for reading: No such file or directory % Total % Received % Xferd Average Speed Time Time Time Current Dload Upload Total Spent Left Speed 0 0 0 0 0 0 0 0 --:--:-- --:--:-- --:--:-- 0 100 428 100 428 0 0 7642 0 --:--:-- --:--:-- --:--:-- 7642 % Total % Received % Xferd Average Speed Time Time Time Current Dload Upload Total Spent Left Speed 0 0 0 0 0 0 0 0 --:--:-- --:--:-- --:--:-- 0 100 430 100 430 0 0 2945 0 --:--:-- --:--:-- --:--:-- 2965 % Total % Received % Xferd Average Speed Time Time Time Current Dload Upload Total Spent Left Speed 0 0 0 0 0 0 0 0 --:--:-- --:--:-- --:--:-- 0 100 431 100 431 0 0 2762 0 --:--:-- --:--:-- --:--:-- 2745 100 431 100 431 0 0 2762 0 --:--:-- --:--:-- --:--:-- 2745 % Total % Received % Xferd Average Speed Time Time Time Current Dload Upload Total Spent Left Speed 0 0 0 0 0 0 0 0 --:--:-- --:--:-- --:--:-- 0 100 431 100 431 0 0 1533 0 --:--:-- --:--:-- --:--:-- 1539 % Total % Received % Xferd Average Speed Time Time Time Current Dload Upload Total Spent Left Speed 0 0 0 0 0 0 0 0 --:--:-- --:--:-- --:--:-- 0 100 430 100 430 0 0 3006 0 --:--:-- --:--:-- --:--:-- 3006 tail: cannot open '/home/sinton/sjsu1f/mlbcalmindexk.csv' for reading: No such file or directory tail: cannot open '/home/sinton/sjsu1f/mlbavgwindindexk.csv' for reading: No such file or directory tail: cannot open '/home/sinton/sjsu1f/mlbcalmindexk.csv' for reading: No such file or directory tail: cannot open '/home/sinton/sjsu1f/mlbavgwindindexk.csv' for reading: No such file or directory mv: cannot stat '/home/sinton/public_html/John1f/oakstuck': No such file or directory tail: cannot open '/home/sinton/sjsu1f/mlbcalmindexk.csv' for reading: No such file or directory tail: cannot open '/home/sinton/sjsu1f/mlbavgwindindexk.csv' for reading: No such file or directory tail: cannot open '/home/sinton/sjsu1f/mlbcalmindexk.csv' for reading: No such file or directory tail: cannot open '/home/sinton/sjsu1f/mlbavgwindindexk.csv' for reading: No such file or directory tail: cannot open '/home/sinton/sjsu1f/mlbcalmindexk.csv' for reading: No such file or directory tail: cannot open '/home/sinton/sjsu1f/mlbavgwindindexk.csv' for reading: No such file or directory tail: cannot open '/home/sinton/sjsu1f/mlbcalmindexk.csv' for reading: No such file or directory tail: cannot open '/home/sinton/sjsu1f/mlbavgwindindexk.csv' for reading: No such file or directory tail: cannot open '/home/sinton/sjsu1f/mlbcalmindexk.csv' for reading: No such file or directory tail: cannot open '/home/sinton/sjsu1f/mlbavgwindindexk.csv' for reading: No such file or directory tail: cannot open '/home/sinton/sjsu1f/mlbcalmindexk.csv' for reading: No such file or directory tail: cannot open '/home/sinton/sjsu1f/mlbavgwindindexk.csv' for reading: No such file or directory tail: cannot open '/home/sinton/sjsu1f/mlbcalmindexk.csv' for reading: No such file or directory tail: cannot open '/home/sinton/sjsu1f/mlbavgwindindexk.csv' for reading: No such file or directory tail: cannot open '/home/sinton/sjsu1f/mlbcalmindexk.csv' for reading: No such file or directory tail: cannot open '/home/sinton/sjsu1f/mlbavgwindindexk.csv' for reading: No such file or directory % Total % Received % Xferd Average Speed Time Time Time Current Dload Upload Total Spent Left Speed 0 0 0 0 0 0 0 0 --:--:-- --:--:-- --:--:-- 0 100 428 100 428 0 0 2018 0 --:--:-- --:--:-- --:--:-- 2018 % Total % Received % Xferd Average Speed Time Time Time Current Dload Upload Total Spent Left Speed 0 0 0 0 0 0 0 0 --:--:-- --:--:-- --:--:-- 0 100 430 100 430 0 0 3805 0 --:--:-- --:--:-- --:--:-- 3805 % Total % Received % Xferd Average Speed Time Time Time Current Dload Upload Total Spent Left Speed 0 0 0 0 0 0 0 0 --:--:-- --:--:-- --:--:-- 0 100 431 100 431 0 0 6630 0 --:--:-- --:--:-- --:--:-- 6630 % Total % Received % Xferd Average Speed Time Time Time Current Dload Upload Total Spent Left Speed 0 0 0 0 0 0 0 0 --:--:-- --:--:-- --:--:-- 0 100 431 100 431 0 0 1399 0 --:--:-- --:--:-- --:--:-- 1399 % Total % Received % Xferd Average Speed Time Time Time Current Dload Upload Total Spent Left Speed 0 0 0 0 0 0 0 0 --:--:-- --:--:-- --:--:-- 0 100 430 100 430 0 0 3981 0 --:--:-- --:--:-- --:--:-- 3981 tail: cannot open '/home/sinton/sjsu1f/mlbcalmindexk.csv' for reading: No such file or directory tail: cannot open '/home/sinton/sjsu1f/mlbavgwindindexk.csv' for reading: No such file or directory tail: cannot open '/home/sinton/sjsu1f/mlbcalmindexk.csv' for reading: No such file or directory tail: cannot open '/home/sinton/sjsu1f/mlbavgwindindexk.csv' for reading: No such file or directory tail: cannot open '/home/sinton/sjsu1f/mlbcalmindexk.csv' for reading: No such file or directory tail: cannot open '/home/sinton/sjsu1f/mlbavgwindindexk.csv' for reading: No such file or directory tail: cannot open '/home/sinton/sjsu1f/mlbcalmindexk.csv' for reading: No such file or directory tail: cannot open '/home/sinton/sjsu1f/mlbavgwindindexk.csv' for reading: No such file or directory tail: cannot open '/home/sinton/sjsu1f/mlbcalmindexk.csv' for reading: No such file or directory tail: cannot open '/home/sinton/sjsu1f/mlbavgwindindexk.csv' for reading: No such file or directory tail: cannot open '/home/sinton/sjsu1f/mlbcalmindexk.csv' for reading: No such file or directory tail: cannot open '/home/sinton/sjsu1f/mlbavgwindindexk.csv' for reading: No such file or directory tail: cannot open '/home/sinton/sjsu1f/mlbcalmindexk.csv' for reading: No such file or directory tail: cannot open '/home/sinton/sjsu1f/mlbavgwindindexk.csv' for reading: No such file or directory tail: cannot open '/home/sinton/sjsu1f/mlbcalmindexk.csv' for reading: No such file or directory tail: cannot open '/home/sinton/sjsu1f/mlbavgwindindexk.csv' for reading: No such file or directory tail: cannot open '/home/sinton/sjsu1f/mlbcalmindexk.csv' for reading: No such file or directory tail: cannot open '/home/sinton/sjsu1f/mlbavgwindindexk.csv' for reading: No such file or directory tail: cannot open '/home/sinton/sjsu1f/mlbcalmindexk.csv' for reading: No such file or directory tail: cannot open '/home/sinton/sjsu1f/mlbavgwindindexk.csv' for reading: No such file or directory tail: cannot open '/home/sinton/sjsu1f/mlbcalmindexk.csv' for reading: No such file or directory tail: cannot open '/home/sinton/sjsu1f/mlbavgwindindexk.csv' for reading: No such file or directory tail: cannot open '/home/sinton/sjsu1f/mlbcalmindexk.csv' for reading: No such file or directory tail: cannot open '/home/sinton/sjsu1f/mlbavgwindindexk.csv' for reading: No such file or directory tail: cannot open '/home/sinton/sjsu1f/mlbcalmindexk.csv' for reading: No such file or directory tail: cannot open '/home/sinton/sjsu1f/mlbavgwindindexk.csv' for reading: No such file or directory tail: cannot open '/home/sinton/sjsu1f/mlbcalmindexk.csv' for reading: No such file or directory tail: cannot open '/home/sinton/sjsu1f/mlbavgwindindexk.csv' for reading: No such file or directory tail: cannot open '/home/sinton/sjsu1f/mlbcalmindexk.csv' for reading: No such file or directory tail: cannot open '/home/sinton/sjsu1f/mlbavgwindindexk.csv' for reading: No such file or directory tail: cannot open '/home/sinton/sjsu1f/mlbcalmindexk.csv' for reading: No such file or directory tail: cannot open '/home/sinton/sjsu1f/mlbavgwindindexk.csv' for reading: No such file or directory % Total % Received % Xferd Average Speed Time Time Time Current Dload Upload Total Spent Left Speed 0 0 0 0 0 0 0 0 --:--:-- --:--:-- --:--:-- 0 100 424 100 424 0 0 8833 0 --:--:-- --:--:-- --:--:-- 8833 % Total % Received % Xferd Average Speed Time Time Time Current Dload Upload Total Spent Left Speed 0 0 0 0 0 0 0 0 --:--:-- --:--:-- --:--:-- 0 100 427 100 427 0 0 5023 0 --:--:-- --:--:-- --:--:-- 5083 % Total % Received % Xferd Average Speed Time Time Time Current Dload Upload Total Spent Left Speed 0 0 0 0 0 0 0 0 --:--:-- --:--:-- --:--:-- 0 100 431 100 431 0 0 5130 0 --:--:-- --:--:-- --:--:-- 5130 % Total % Received % Xferd Average Speed Time Time Time Current Dload Upload Total Spent Left Speed 0 0 0 0 0 0 0 0 --:--:-- --:--:-- --:--:-- 0 100 431 100 431 0 0 1795 0 --:--:-- --:--:-- --:--:-- 1795 % Total % Received % Xferd Average Speed Time Time Time Current Dload Upload Total Spent Left Speed 0 0 0 0 0 0 0 0 --:--:-- --:--:-- --:--:-- 0 0 0 0 0 0 0 0 0 --:--:-- --:--:-- --:--:-- 0 100 430 100 430 0 0 546 0 --:--:-- --:--:-- --:--:-- 545 tail: cannot open '/home/sinton/sjsu1f/mlbcalmindexk.csv' for reading: No such file or directory tail: cannot open '/home/sinton/sjsu1f/mlbavgwindindexk.csv' for reading: No such file or directory tail: cannot open '/home/sinton/sjsu1f/mlbcalmindexk.csv' for reading: No such file or directory tail: cannot open '/home/sinton/sjsu1f/mlbavgwindindexk.csv' for reading: No such file or directory tail: cannot open '/home/sinton/sjsu1f/mlbcalmindexk.csv' for reading: No such file or directory tail: cannot open '/home/sinton/sjsu1f/mlbavgwindindexk.csv' for reading: No such file or directory tail: cannot open '/home/sinton/sjsu1f/mlbcalmindexk.csv' for reading: No such file or directory tail: cannot open '/home/sinton/sjsu1f/mlbavgwindindexk.csv' for reading: No such file or directory tail: cannot open '/home/sinton/sjsu1f/mlbcalmindexk.csv' for reading: No such file or directory tail: cannot open '/home/sinton/sjsu1f/mlbavgwindindexk.csv' for reading: No such file or directory tail: cannot open '/home/sinton/sjsu1f/mlbcalmindexk.csv' for reading: No such file or directory tail: cannot open '/home/sinton/sjsu1f/mlbavgwindindexk.csv' for reading: No such file or directory tail: cannot open '/home/sinton/sjsu1f/mlbcalmindexk.csv' for reading: No such file or directory tail: cannot open '/home/sinton/sjsu1f/mlbavgwindindexk.csv' for reading: No such file or directory tail: cannot open '/home/sinton/sjsu1f/mlbcalmindexk.csv' for reading: No such file or directory tail: cannot open '/home/sinton/sjsu1f/mlbavgwindindexk.csv' for reading: No such file or directory tail: cannot open '/home/sinton/sjsu1f/mlbcalmindexk.csv' for reading: No such file or directory tail: cannot open '/home/sinton/sjsu1f/mlbavgwindindexk.csv' for reading: No such file or directory tail: cannot open '/home/sinton/sjsu1f/mlbcalmindexk.csv' for reading: No such file or directory tail: cannot open '/home/sinton/sjsu1f/mlbavgwindindexk.csv' for reading: No such file or directory tail: cannot open '/home/sinton/sjsu1f/mlbcalmindexk.csv' for reading: No such file or directory tail: cannot open '/home/sinton/sjsu1f/mlbavgwindindexk.csv' for reading: No such file or directory tail: cannot open '/home/sinton/sjsu1f/mlbcalmindexk.csv' for reading: No such file or directory tail: cannot open '/home/sinton/sjsu1f/mlbavgwindindexk.csv' for reading: No such file or directory tail: cannot open '/home/sinton/sjsu1f/mlbcalmindexk.csv' for reading: No such file or directory tail: cannot open '/home/sinton/sjsu1f/mlbavgwindindexk.csv' for reading: No such file or directory tail: cannot open '/home/sinton/sjsu1f/mlbcalmindexk.csv' for reading: No such file or directory tail: cannot open '/home/sinton/sjsu1f/mlbavgwindindexk.csv' for reading: No such file or directory % Total % Received % Xferd Average Speed Time Time Time Current Dload Upload Total Spent Left Speed 0 0 0 0 0 0 0 0 --:--:-- --:--:-- --:--:-- 0 100 425 100 425 0 0 2931 0 --:--:-- --:--:-- --:--:-- 2951 % Total % Received % Xferd Average Speed Time Time Time Current Dload Upload Total Spent Left Speed 0 0 0 0 0 0 0 0 --:--:-- --:--:-- --:--:-- 0 100 430 100 430 0 0 9347 0 --:--:-- --:--:-- --:--:-- 9347 % Total % Received % Xferd Average Speed Time Time Time Current Dload Upload Total Spent Left Speed 0 0 0 0 0 0 0 0 --:--:-- --:--:-- --:--:-- 0 100 431 100 431 0 0 4634 0 --:--:-- --:--:-- --:--:-- 4634 % Total % Received % Xferd Average Speed Time Time Time Current Dload Upload Total Spent Left Speed 0 0 0 0 0 0 0 0 --:--:-- --:--:-- --:--:-- 0 100 431 100 431 0 0 2102 0 --:--:-- --:--:-- --:--:-- 2102 % Total % Received % Xferd Average Speed Time Time Time Current Dload Upload Total Spent Left Speed 0 0 0 0 0 0 0 0 --:--:-- --:--:-- --:--:-- 0 100 430 100 430 0 0 10487 0 --:--:-- --:--:-- --:--:-- 10487 tail: cannot open '/home/sinton/sjsu1f/mlbcalmindexk.csv' for reading: No such file or directory tail: cannot open '/home/sinton/sjsu1f/mlbavgwindindexk.csv' for reading: No such file or directory tail: cannot open '/home/sinton/sjsu1f/mlbcalmindexk.csv' for reading: No such file or directory tail: cannot open '/home/sinton/sjsu1f/mlbavgwindindexk.csv' for reading: No such file or directory tail: cannot open '/home/sinton/sjsu1f/mlbcalmindexk.csv' for reading: No such file or directory tail: cannot open '/home/sinton/sjsu1f/mlbavgwindindexk.csv' for reading: No such file or directory tail: cannot open '/home/sinton/sjsu1f/mlbcalmindexk.csv' for reading: No such file or directory tail: cannot open '/home/sinton/sjsu1f/mlbavgwindindexk.csv' for reading: No such file or directory tail: cannot open '/home/sinton/sjsu1f/mlbcalmindexk.csv' for reading: No such file or directory tail: cannot open '/home/sinton/sjsu1f/mlbavgwindindexk.csv' for reading: No such file or directory tail: cannot open '/home/sinton/sjsu1f/mlbcalmindexk.csv' for reading: No such file or directory tail: cannot open '/home/sinton/sjsu1f/mlbavgwindindexk.csv' for reading: No such file or directory tail: cannot open '/home/sinton/sjsu1f/mlbcalmindexk.csv' for reading: No such file or directory tail: cannot open '/home/sinton/sjsu1f/mlbavgwindindexk.csv' for reading: No such file or directory tail: cannot open '/home/sinton/sjsu1f/mlbcalmindexk.csv' for reading: No such file or directory tail: cannot open '/home/sinton/sjsu1f/mlbavgwindindexk.csv' for reading: No such file or directory tail: cannot open '/home/sinton/sjsu1f/mlbcalmindexk.csv' for reading: No such file or directory tail: cannot open '/home/sinton/sjsu1f/mlbavgwindindexk.csv' for reading: No such file or directory tail: cannot open '/home/sinton/sjsu1f/mlbcalmindexk.csv' for reading: No such file or directory tail: cannot open '/home/sinton/sjsu1f/mlbavgwindindexk.csv' for reading: No such file or directory tail: cannot open '/home/sinton/sjsu1f/mlbcalmindexk.csv' for reading: No such file or directory tail: cannot open '/home/sinton/sjsu1f/mlbavgwindindexk.csv' for reading: No such file or directory tail: cannot open '/home/sinton/sjsu1f/mlbcalmindexk.csv' for reading: No such file or directory tail: cannot open '/home/sinton/sjsu1f/mlbavgwindindexk.csv' for reading: No such file or directory tail: cannot open '/home/sinton/sjsu1f/mlbcalmindexk.csv' for reading: No such file or directory tail: cannot open '/home/sinton/sjsu1f/mlbavgwindindexk.csv' for reading: No such file or directory tail: cannot open '/home/sinton/sjsu1f/mlbcalmindexk.csv' for reading: No such file or directory tail: cannot open '/home/sinton/sjsu1f/mlbavgwindindexk.csv' for reading: No such file or directory % Total % Received % Xferd Average Speed Time Time Time Current Dload Upload Total Spent Left Speed 0 0 0 0 0 0 0 0 --:--:-- --:--:-- --:--:-- 0 100 428 100 428 0 0 5783 0 --:--:-- --:--:-- --:--:-- 5783 % Total % Received % Xferd Average Speed Time Time Time Current Dload Upload Total Spent Left Speed 0 0 0 0 0 0 0 0 --:--:-- --:--:-- --:--:-- 0 100 431 100 431 0 0 2952 0 --:--:-- --:--:-- --:--:-- 2972 % Total % Received % Xferd Average Speed Time Time Time Current Dload Upload Total Spent Left Speed 0 0 0 0 0 0 0 0 --:--:-- --:--:-- --:--:-- 0 100 431 100 431 0 0 2835 0 --:--:-- --:--:-- --:--:-- 2835 % Total % Received % Xferd Average Speed Time Time Time Current Dload Upload Total Spent Left Speed 0 0 0 0 0 0 0 0 --:--:-- --:--:-- --:--:-- 0 100 431 100 431 0 0 1924 0 --:--:-- --:--:-- --:--:-- 1924 % Total % Received % Xferd Average Speed Time Time Time Current Dload Upload Total Spent Left Speed 0 0 0 0 0 0 0 0 --:--:-- --:--:-- --:--:-- 0 100 430 100 430 0 0 3440 0 --:--:-- --:--:-- --:--:-- 3440 tail: cannot open '/home/sinton/sjsu1f/mlbcalmindexk.csv' for reading: No such file or directory tail: cannot open '/home/sinton/sjsu1f/mlbavgwindindexk.csv' for reading: No such file or directory tail: cannot open '/home/sinton/sjsu1f/mlbcalmindexk.csv' for reading: No such file or directory tail: cannot open '/home/sinton/sjsu1f/mlbavgwindindexk.csv' for reading: No such file or directory tail: cannot open '/home/sinton/sjsu1f/mlbcalmindexk.csv' for reading: No such file or directory tail: cannot open '/home/sinton/sjsu1f/mlbavgwindindexk.csv' for reading: No such file or directory tail: cannot open '/home/sinton/sjsu1f/mlbcalmindexk.csv' for reading: No such file or directory tail: cannot open '/home/sinton/sjsu1f/mlbavgwindindexk.csv' for reading: No such file or directory mv: cannot stat '/home/sinton/public_html/John1f/oakstuck': No such file or directory tail: cannot open '/home/sinton/sjsu1f/mlbcalmindexk.csv' for reading: No such file or directory tail: cannot open '/home/sinton/sjsu1f/mlbavgwindindexk.csv' for reading: No such file or directory tail: cannot open '/home/sinton/sjsu1f/mlbcalmindexk.csv' for reading: No such file or directory tail: cannot open '/home/sinton/sjsu1f/mlbavgwindindexk.csv' for reading: No such file or directory tail: cannot open '/home/sinton/sjsu1f/mlbcalmindexk.csv' for reading: No such file or directory tail: cannot open '/home/sinton/sjsu1f/mlbavgwindindexk.csv' for reading: No such file or directory tail: cannot open '/home/sinton/sjsu1f/mlbcalmindexk.csv' for reading: No such file or directory tail: cannot open '/home/sinton/sjsu1f/mlbavgwindindexk.csv' for reading: No such file or directory tail: cannot open '/home/sinton/sjsu1f/mlbcalmindexk.csv' for reading: No such file or directory tail: cannot open '/home/sinton/sjsu1f/mlbavgwindindexk.csv' for reading: No such file or directory tail: cannot open '/home/sinton/sjsu1f/mlbcalmindexk.csv' for reading: No such file or directory tail: cannot open '/home/sinton/sjsu1f/mlbavgwindindexk.csv' for reading: No such file or directory tail: cannot open '/home/sinton/sjsu1f/mlbcalmindexk.csv' for reading: No such file or directory tail: cannot open '/home/sinton/sjsu1f/mlbavgwindindexk.csv' for reading: No such file or directory tail: cannot open '/home/sinton/sjsu1f/mlbcalmindexk.csv' for reading: No such file or directory tail: cannot open '/home/sinton/sjsu1f/mlbavgwindindexk.csv' for reading: No such file or directory tail: cannot open '/home/sinton/sjsu1f/mlbcalmindexk.csv' for reading: No such file or directory tail: cannot open '/home/sinton/sjsu1f/mlbavgwindindexk.csv' for reading: No such file or directory % Total % Received % Xferd Average Speed Time Time Time Current Dload Upload Total Spent Left Speed 0 0 0 0 0 0 0 0 --:--:-- --:--:-- --:--:-- 0 100 431 100 431 0 0 3420 0 --:--:-- --:--:-- --:--:-- 3420 % Total % Received % Xferd Average Speed Time Time Time Current Dload Upload Total Spent Left Speed 0 0 0 0 0 0 0 0 --:--:-- --:--:-- --:--:-- 0 100 432 100 432 0 0 5468 0 --:--:-- --:--:-- --:--:-- 5468 % Total % Received % Xferd Average Speed Time Time Time Current Dload Upload Total Spent Left Speed 0 0 0 0 0 0 0 0 --:--:-- --:--:-- --:--:-- 0 0 0 0 0 0 0 0 0 --:--:-- --:--:-- --:--:-- 0 100 432 100 432 0 0 984 0 --:--:-- --:--:-- --:--:-- 981 % Total % Received % Xferd Average Speed Time Time Time Current Dload Upload Total Spent Left Speed 0 0 0 0 0 0 0 0 --:--:-- --:--:-- --:--:-- 0 100 431 100 431 0 0 3100 0 --:--:-- --:--:-- --:--:-- 3100 % Total % Received % Xferd Average Speed Time Time Time Current Dload Upload Total Spent Left Speed 0 0 0 0 0 0 0 0 --:--:-- --:--:-- --:--:-- 0 100 430 100 430 0 0 5512 0 --:--:-- --:--:-- --:--:-- 5512 tail: cannot open '/home/sinton/sjsu1f/mlbcalmindexk.csv' for reading: No such file or directory tail: cannot open '/home/sinton/sjsu1f/mlbavgwindindexk.csv' for reading: No such file or directory tail: cannot open '/home/sinton/sjsu1f/mlbcalmindexk.csv' for reading: No such file or directory tail: cannot open '/home/sinton/sjsu1f/mlbavgwindindexk.csv' for reading: No such file or directory tail: cannot open '/home/sinton/sjsu1f/mlbcalmindexk.csv' for reading: No such file or directory tail: cannot open '/home/sinton/sjsu1f/mlbavgwindindexk.csv' for reading: No such file or directory tail: cannot open '/home/sinton/sjsu1f/mlbcalmindexk.csv' for reading: No such file or directory tail: cannot open '/home/sinton/sjsu1f/mlbavgwindindexk.csv' for reading: No such file or directory tail: cannot open '/home/sinton/sjsu1f/mlbcalmindexk.csv' for reading: No such file or directory tail: cannot open '/home/sinton/sjsu1f/mlbavgwindindexk.csv' for reading: No such file or directory tail: cannot open '/home/sinton/sjsu1f/mlbcalmindexk.csv' for reading: No such file or directory tail: cannot open '/home/sinton/sjsu1f/mlbavgwindindexk.csv' for reading: No such file or directory tail: cannot open '/home/sinton/sjsu1f/mlbcalmindexk.csv' for reading: No such file or directory tail: cannot open '/home/sinton/sjsu1f/mlbavgwindindexk.csv' for reading: No such file or directory tail: cannot open '/home/sinton/sjsu1f/mlbcalmindexk.csv' for reading: No such file or directory tail: cannot open '/home/sinton/sjsu1f/mlbavgwindindexk.csv' for reading: No such file or directory tail: cannot open '/home/sinton/sjsu1f/mlbcalmindexk.csv' for reading: No such file or directory tail: cannot open '/home/sinton/sjsu1f/mlbavgwindindexk.csv' for reading: No such file or directory tail: cannot open '/home/sinton/sjsu1f/mlbcalmindexk.csv' for reading: No such file or directory tail: cannot open '/home/sinton/sjsu1f/mlbavgwindindexk.csv' for reading: No such file or directory tail: cannot open '/home/sinton/sjsu1f/mlbcalmindexk.csv' for reading: No such file or directory tail: cannot open '/home/sinton/sjsu1f/mlbavgwindindexk.csv' for reading: No such file or directory tail: cannot open '/home/sinton/sjsu1f/mlbcalmindexk.csv' for reading: No such file or directory tail: cannot open '/home/sinton/sjsu1f/mlbavgwindindexk.csv' for reading: No such file or directory tail: cannot open '/home/sinton/sjsu1f/mlbcalmindexk.csv' for reading: No such file or directory tail: cannot open '/home/sinton/sjsu1f/mlbavgwindindexk.csv' for reading: No such file or directory % Total % Received % Xferd Average Speed Time Time Time Current Dload Upload Total Spent Left Speed 0 0 0 0 0 0 0 0 --:--:-- --:--:-- --:--:-- 0 100 431 100 431 0 0 1968 0 --:--:-- --:--:-- --:--:-- 1968 % Total % Received % Xferd Average Speed Time Time Time Current Dload Upload Total Spent Left Speed 0 0 0 0 0 0 0 0 --:--:-- --:--:-- --:--:-- 0 100 431 100 431 0 0 4066 0 --:--:-- --:--:-- --:--:-- 4066 % Total % Received % Xferd Average Speed Time Time Time Current Dload Upload Total Spent Left Speed 0 0 0 0 0 0 0 0 --:--:-- --:--:-- --:--:-- 0 100 432 100 432 0 0 1110 0 --:--:-- --:--:-- --:--:-- 1110 % Total % Received % Xferd Average Speed Time Time Time Current Dload Upload Total Spent Left Speed 0 0 0 0 0 0 0 0 --:--:-- --:--:-- --:--:-- 0 0 0 0 0 0 0 0 0 --:--:-- --:--:-- --:--:-- 0 100 431 100 431 0 0 8132 0 --:--:-- --:--:-- --:--:-- 8132 % Total % Received % Xferd Average Speed Time Time Time Current Dload Upload Total Spent Left Speed 0 0 0 0 0 0 0 0 --:--:-- --:--:-- --:--:-- 0 100 430 100 430 0 0 2905 0 --:--:-- --:--:-- --:--:-- 2905 tail: cannot open '/home/sinton/sjsu1f/mlbcalmindexk.csv' for reading: No such file or directory tail: cannot open '/home/sinton/sjsu1f/mlbavgwindindexk.csv' for reading: No such file or directory tail: cannot open '/home/sinton/sjsu1f/mlbcalmindexk.csv' for reading: No such file or directory tail: cannot open '/home/sinton/sjsu1f/mlbavgwindindexk.csv' for reading: No such file or directory tail: cannot open '/home/sinton/sjsu1f/mlbcalmindexk.csv' for reading: No such file or directory tail: cannot open '/home/sinton/sjsu1f/mlbavgwindindexk.csv' for reading: No such file or directory tail: cannot open '/home/sinton/sjsu1f/mlbcalmindexk.csv' for reading: No such file or directory tail: cannot open '/home/sinton/sjsu1f/mlbavgwindindexk.csv' for reading: No such file or directory tail: cannot open '/home/sinton/sjsu1f/mlbcalmindexk.csv' for reading: No such file or directory tail: cannot open '/home/sinton/sjsu1f/mlbavgwindindexk.csv' for reading: No such file or directory tail: cannot open '/home/sinton/sjsu1f/mlbcalmindexk.csv' for reading: No such file or directory tail: cannot open '/home/sinton/sjsu1f/mlbavgwindindexk.csv' for reading: No such file or directory tail: cannot open '/home/sinton/sjsu1f/mlbcalmindexk.csv' for reading: No such file or directory tail: cannot open '/home/sinton/sjsu1f/mlbavgwindindexk.csv' for reading: No such file or directory tail: cannot open '/home/sinton/sjsu1f/mlbcalmindexk.csv' for reading: No such file or directory tail: cannot open '/home/sinton/sjsu1f/mlbavgwindindexk.csv' for reading: No such file or directory tail: cannot open '/home/sinton/sjsu1f/mlbcalmindexk.csv' for reading: No such file or directory tail: cannot open '/home/sinton/sjsu1f/mlbavgwindindexk.csv' for reading: No such file or directory tail: cannot open '/home/sinton/sjsu1f/mlbcalmindexk.csv' for reading: No such file or directory tail: cannot open '/home/sinton/sjsu1f/mlbavgwindindexk.csv' for reading: No such file or directory tail: cannot open '/home/sinton/sjsu1f/mlbcalmindexk.csv' for reading: No such file or directory tail: cannot open '/home/sinton/sjsu1f/mlbavgwindindexk.csv' for reading: No such file or directory % Total % Received % Xferd Average Speed Time Time Time Current Dload Upload Total Spent Left Speed 0 0 0 0 0 0 0 0 --:--:-- --:--:-- --:--:-- 0 100 431 100 431 0 0 1826 0 --:--:-- --:--:-- --:--:-- 1826 % Total % Received % Xferd Average Speed Time Time Time Current Dload Upload Total Spent Left Speed 0 0 0 0 0 0 0 0 --:--:-- --:--:-- --:--:-- 0 100 431 100 431 0 0 10261 0 --:--:-- --:--:-- --:--:-- 10261 % Total % Received % Xferd Average Speed Time Time Time Current Dload Upload Total Spent Left Speed 0 0 0 0 0 0 0 0 --:--:-- --:--:-- --:--:-- 0 100 432 100 432 0 0 5268 0 --:--:-- --:--:-- --:--:-- 5268 % Total % Received % Xferd Average Speed Time Time Time Current Dload Upload Total Spent Left Speed 0 0 0 0 0 0 0 0 --:--:-- --:--:-- --:--:-- 0 100 431 100 431 0 0 10023 0 --:--:-- --:--:-- --:--:-- 10023 % Total % Received % Xferd Average Speed Time Time Time Current Dload Upload Total Spent Left Speed 0 0 0 0 0 0 0 0 --:--:-- --:--:-- --:--:-- 0 100 430 100 430 0 0 4777 0 --:--:-- --:--:-- --:--:-- 4725 100 430 100 430 0 0 4725 0 --:--:-- --:--:-- --:--:-- 4673 tail: cannot open '/home/sinton/sjsu1f/mlbcalmindexk.csv' for reading: No such file or directory tail: cannot open '/home/sinton/sjsu1f/mlbavgwindindexk.csv' for reading: No such file or directory tail: cannot open '/home/sinton/sjsu1f/mlbcalmindexk.csv' for reading: No such file or directory tail: cannot open '/home/sinton/sjsu1f/mlbavgwindindexk.csv' for reading: No such file or directory tail: cannot open '/home/sinton/sjsu1f/mlbcalmindexk.csv' for reading: No such file or directory tail: cannot open '/home/sinton/sjsu1f/mlbavgwindindexk.csv' for reading: No such file or directory tail: cannot open '/home/sinton/sjsu1f/mlbcalmindexk.csv' for reading: No such file or directory tail: cannot open '/home/sinton/sjsu1f/mlbavgwindindexk.csv' for reading: No such file or directory tail: cannot open '/home/sinton/sjsu1f/mlbcalmindexk.csv' for reading: No such file or directory tail: cannot open '/home/sinton/sjsu1f/mlbavgwindindexk.csv' for reading: No such file or directory tail: cannot open '/home/sinton/sjsu1f/mlbcalmindexk.csv' for reading: No such file or directory tail: cannot open '/home/sinton/sjsu1f/mlbavgwindindexk.csv' for reading: No such file or directory tail: cannot open '/home/sinton/sjsu1f/mlbcalmindexk.csv' for reading: No such file or directory tail: cannot open '/home/sinton/sjsu1f/mlbavgwindindexk.csv' for reading: No such file or directory tail: cannot open '/home/sinton/sjsu1f/mlbcalmindexk.csv' for reading: No such file or directory tail: cannot open '/home/sinton/sjsu1f/mlbavgwindindexk.csv' for reading: No such file or directory tail: cannot open '/home/sinton/sjsu1f/mlbcalmindexk.csv' for reading: No such file or directory tail: cannot open '/home/sinton/sjsu1f/mlbavgwindindexk.csv' for reading: No such file or directory tail: cannot open '/home/sinton/sjsu1f/mlbcalmindexk.csv' for reading: No such file or directory tail: cannot open '/home/sinton/sjsu1f/mlbavgwindindexk.csv' for reading: No such file or directory tail: cannot open '/home/sinton/sjsu1f/mlbcalmindexk.csv' for reading: No such file or directory tail: cannot open '/home/sinton/sjsu1f/mlbavgwindindexk.csv' for reading: No such file or directory tail: cannot open '/home/sinton/sjsu1f/mlbcalmindexk.csv' for reading: No such file or directory tail: cannot open '/home/sinton/sjsu1f/mlbavgwindindexk.csv' for reading: No such file or directory tail: cannot open '/home/sinton/sjsu1f/mlbcalmindexk.csv' for reading: No such file or directory tail: cannot open '/home/sinton/sjsu1f/mlbavgwindindexk.csv' for reading: No such file or directory tail: cannot open '/home/sinton/sjsu1f/mlbcalmindexk.csv' for reading: No such file or directory tail: cannot open '/home/sinton/sjsu1f/mlbavgwindindexk.csv' for reading: No such file or directory tail: cannot open '/home/sinton/sjsu1f/mlbcalmindexk.csv' for reading: No such file or directory tail: cannot open '/home/sinton/sjsu1f/mlbavgwindindexk.csv' for reading: No such file or directory tail: cannot open '/home/sinton/sjsu1f/mlbcalmindexk.csv' for reading: No such file or directory tail: cannot open '/home/sinton/sjsu1f/mlbavgwindindexk.csv' for reading: No such file or directory tail: cannot open '/home/sinton/sjsu1f/mlbcalmindexk.csv' for reading: No such file or directory tail: cannot open '/home/sinton/sjsu1f/mlbavgwindindexk.csv' for reading: No such file or directory % Total % Received % Xferd Average Speed Time Time Time Current Dload Upload Total Spent Left Speed 0 0 0 0 0 0 0 0 --:--:-- --:--:-- --:--:-- 0 100 430 100 430 0 0 1592 0 --:--:-- --:--:-- --:--:-- 1592 % Total % Received % Xferd Average Speed Time Time Time Current Dload Upload Total Spent Left Speed 0 0 0 0 0 0 0 0 --:--:-- --:--:-- --:--:-- 0 100 430 100 430 0 0 2670 0 --:--:-- --:--:-- --:--:-- 2670 % Total % Received % Xferd Average Speed Time Time Time Current Dload Upload Total Spent Left Speed 0 0 0 0 0 0 0 0 --:--:-- --:--:-- --:--:-- 0 100 432 100 432 0 0 1570 0 --:--:-- --:--:-- --:--:-- 1576 % Total % Received % Xferd Average Speed Time Time Time Current Dload Upload Total Spent Left Speed 0 0 0 0 0 0 0 0 --:--:-- --:--:-- --:--:-- 0 0 0 0 0 0 0 0 0 --:--:-- --:--:-- --:--:-- 0 100 431 100 431 0 0 2102 0 --:--:-- --:--:-- --:--:-- 2092 % Total % Received % Xferd Average Speed Time Time Time Current Dload Upload Total Spent Left Speed 0 0 0 0 0 0 0 0 --:--:-- --:--:-- --:--:-- 0 100 430 100 430 0 0 3839 0 --:--:-- --:--:-- --:--:-- 3839 tail: cannot open '/home/sinton/sjsu1f/mlbcalmindexk.csv' for reading: No such file or directory tail: cannot open '/home/sinton/sjsu1f/mlbavgwindindexk.csv' for reading: No such file or directory tail: cannot open '/home/sinton/sjsu1f/mlbcalmindexk.csv' for reading: No such file or directory tail: cannot open '/home/sinton/sjsu1f/mlbavgwindindexk.csv' for reading: No such file or directory tail: cannot open '/home/sinton/sjsu1f/mlbcalmindexk.csv' for reading: No such file or directory tail: cannot open '/home/sinton/sjsu1f/mlbavgwindindexk.csv' for reading: No such file or directory tail: cannot open '/home/sinton/sjsu1f/mlbcalmindexk.csv' for reading: No such file or directory tail: cannot open '/home/sinton/sjsu1f/mlbavgwindindexk.csv' for reading: No such file or directory tail: cannot open '/home/sinton/sjsu1f/mlbcalmindexk.csv' for reading: No such file or directory tail: cannot open '/home/sinton/sjsu1f/mlbavgwindindexk.csv' for reading: No such file or directory tail: cannot open '/home/sinton/sjsu1f/mlbcalmindexk.csv' for reading: No such file or directory tail: cannot open '/home/sinton/sjsu1f/mlbavgwindindexk.csv' for reading: No such file or directory tail: cannot open '/home/sinton/sjsu1f/mlbcalmindexk.csv' for reading: No such file or directory tail: cannot open '/home/sinton/sjsu1f/mlbavgwindindexk.csv' for reading: No such file or directory tail: cannot open '/home/sinton/sjsu1f/mlbcalmindexk.csv' for reading: No such file or directory tail: cannot open '/home/sinton/sjsu1f/mlbavgwindindexk.csv' for reading: No such file or directory tail: cannot open '/home/sinton/sjsu1f/mlbcalmindexk.csv' for reading: No such file or directory tail: cannot open '/home/sinton/sjsu1f/mlbavgwindindexk.csv' for reading: No such file or directory tail: cannot open '/home/sinton/sjsu1f/mlbcalmindexk.csv' for reading: No such file or directory tail: cannot open '/home/sinton/sjsu1f/mlbavgwindindexk.csv' for reading: No such file or directory tail: cannot open '/home/sinton/sjsu1f/mlbcalmindexk.csv' for reading: No such file or directory tail: cannot open '/home/sinton/sjsu1f/mlbavgwindindexk.csv' for reading: No such file or directory tail: cannot open '/home/sinton/sjsu1f/mlbcalmindexk.csv' for reading: No such file or directory tail: cannot open '/home/sinton/sjsu1f/mlbavgwindindexk.csv' for reading: No such file or directory tail: cannot open '/home/sinton/sjsu1f/mlbcalmindexk.csv' for reading: No such file or directory tail: cannot open '/home/sinton/sjsu1f/mlbavgwindindexk.csv' for reading: No such file or directory % Total % Received % Xferd Average Speed Time Time Time Current Dload Upload Total Spent Left Speed 0 0 0 0 0 0 0 0 --:--:-- --:--:-- --:--:-- 0 100 432 100 432 0 0 3891 0 --:--:-- --:--:-- --:--:-- 3891 % Total % Received % Xferd Average Speed Time Time Time Current Dload Upload Total Spent Left Speed 0 0 0 0 0 0 0 0 --:--:-- --:--:-- --:--:-- 0 100 432 100 432 0 0 9000 0 --:--:-- --:--:-- --:--:-- 9000 % Total % Received % Xferd Average Speed Time Time Time Current Dload Upload Total Spent Left Speed 0 0 0 0 0 0 0 0 --:--:-- --:--:-- --:--:-- 0 100 432 100 432 0 0 3428 0 --:--:-- --:--:-- --:--:-- 3456 % Total % Received % Xferd Average Speed Time Time Time Current Dload Upload Total Spent Left Speed 0 0 0 0 0 0 0 0 --:--:-- --:--:-- --:--:-- 0 100 431 100 431 0 0 2052 0 --:--:-- --:--:-- --:--:-- 2052 % Total % Received % Xferd Average Speed Time Time Time Current Dload Upload Total Spent Left Speed 0 0 0 0 0 0 0 0 --:--:-- --:--:-- --:--:-- 0 100 430 100 430 0 0 8431 0 --:--:-- --:--:-- --:--:-- 8431 cat: /home/sinton/1f/weather1.txt: No such file or directory cat: /home/sinton/1f/weather2.txt: No such file or directory cat: /home/sinton/1f/weather3.txt: No such file or directory cat: /home/sinton/1f/weather4.txt: No such file or directory tail: cannot open '/home/sinton/sjsu1f/mlbcalmindexk.csv' for reading: No such file or directory tail: cannot open '/home/sinton/sjsu1f/mlbavgwindindexk.csv' for reading: No such file or directory mv: cannot stat '/home/sinton/public_html/John1f/oakstuck': No such file or directory tail: cannot open '/home/sinton/sjsu1f/mlbcalmindexk.csv' for reading: No such file or directory tail: cannot open '/home/sinton/sjsu1f/mlbavgwindindexk.csv' for reading: No such file or directory tail: cannot open '/home/sinton/sjsu1f/mlbcalmindexk.csv' for reading: No such file or directory tail: cannot open '/home/sinton/sjsu1f/mlbavgwindindexk.csv' for reading: No such file or directory tail: cannot open '/home/sinton/sjsu1f/mlbcalmindexk.csv' for reading: No such file or directory tail: cannot open '/home/sinton/sjsu1f/mlbavgwindindexk.csv' for reading: No such file or directory tail: cannot open '/home/sinton/sjsu1f/mlbcalmindexk.csv' for reading: No such file or directory tail: cannot open '/home/sinton/sjsu1f/mlbavgwindindexk.csv' for reading: No such file or directory tail: cannot open '/home/sinton/sjsu1f/mlbcalmindexk.csv' for reading: No such file or directory tail: cannot open '/home/sinton/sjsu1f/mlbavgwindindexk.csv' for reading: No such file or directory tail: cannot open '/home/sinton/sjsu1f/mlbcalmindexk.csv' for reading: No such file or directory tail: cannot open '/home/sinton/sjsu1f/mlbavgwindindexk.csv' for reading: No such file or directory tail: cannot open '/home/sinton/sjsu1f/mlbcalmindexk.csv' for reading: No such file or directory tail: cannot open '/home/sinton/sjsu1f/mlbavgwindindexk.csv' for reading: No such file or directory tail: cannot open '/home/sinton/sjsu1f/mlbcalmindexk.csv' for reading: No such file or directory tail: cannot open '/home/sinton/sjsu1f/mlbavgwindindexk.csv' for reading: No such file or directory tail: cannot open '/home/sinton/sjsu1f/mlbcalmindexk.csv' for reading: No such file or directory tail: cannot open '/home/sinton/sjsu1f/mlbavgwindindexk.csv' for reading: No such file or directory tail: cannot open '/home/sinton/sjsu1f/mlbcalmindexk.csv' for reading: No such file or directory tail: cannot open '/home/sinton/sjsu1f/mlbavgwindindexk.csv' for reading: No such file or directory tail: cannot open '/home/sinton/sjsu1f/mlbcalmindexk.csv' for reading: No such file or directory tail: cannot open '/home/sinton/sjsu1f/mlbavgwindindexk.csv' for reading: No such file or directory tail: cannot open '/home/sinton/sjsu1f/mlbcalmindexk.csv' for reading: No such file or directory tail: cannot open '/home/sinton/sjsu1f/mlbavgwindindexk.csv' for reading: No such file or directory % Total % Received % Xferd Average Speed Time Time Time Current Dload Upload Total Spent Left Speed 0 0 0 0 0 0 0 0 --:--:-- --:--:-- --:--:-- 0 100 431 100 431 0 0 1759 0 --:--:-- --:--:-- --:--:-- 1759 % Total % Received % Xferd Average Speed Time Time Time Current Dload Upload Total Spent Left Speed 0 0 0 0 0 0 0 0 --:--:-- --:--:-- --:--:-- 0 100 432 100 432 0 0 2497 0 --:--:-- --:--:-- --:--:-- 2497 % Total % Received % Xferd Average Speed Time Time Time Current Dload Upload Total Spent Left Speed 0 0 0 0 0 0 0 0 --:--:-- --:--:-- --:--:-- 0 100 431 100 431 0 0 5256 0 --:--:-- --:--:-- --:--:-- 5256 % Total % Received % Xferd Average Speed Time Time Time Current Dload Upload Total Spent Left Speed 0 0 0 0 0 0 0 0 --:--:-- --:--:-- --:--:-- 0 100 431 100 431 0 0 10512 0 --:--:-- --:--:-- --:--:-- 10512 % Total % Received % Xferd Average Speed Time Time Time Current Dload Upload Total Spent Left Speed 0 0 0 0 0 0 0 0 --:--:-- --:--:-- --:--:-- 0 100 430 100 430 0 0 4673 0 --:--:-- --:--:-- --:--:-- 4673 tail: cannot open '/home/sinton/sjsu1f/mlbcalmindexk.csv' for reading: No such file or directory tail: cannot open '/home/sinton/sjsu1f/mlbavgwindindexk.csv' for reading: No such file or directory tail: cannot open '/home/sinton/sjsu1f/mlbcalmindexk.csv' for reading: No such file or directory tail: cannot open '/home/sinton/sjsu1f/mlbavgwindindexk.csv' for reading: No such file or directory tail: cannot open '/home/sinton/sjsu1f/mlbcalmindexk.csv' for reading: No such file or directory tail: cannot open '/home/sinton/sjsu1f/mlbavgwindindexk.csv' for reading: No such file or directory tail: cannot open '/home/sinton/sjsu1f/mlbcalmindexk.csv' for reading: No such file or directory tail: cannot open '/home/sinton/sjsu1f/mlbavgwindindexk.csv' for reading: No such file or directory tail: cannot open '/home/sinton/sjsu1f/mlbcalmindexk.csv' for reading: No such file or directory tail: cannot open '/home/sinton/sjsu1f/mlbavgwindindexk.csv' for reading: No such file or directory tail: cannot open '/home/sinton/sjsu1f/mlbcalmindexk.csv' for reading: No such file or directory tail: cannot open '/home/sinton/sjsu1f/mlbavgwindindexk.csv' for reading: No such file or directory tail: cannot open '/home/sinton/sjsu1f/mlbcalmindexk.csv' for reading: No such file or directory tail: cannot open '/home/sinton/sjsu1f/mlbavgwindindexk.csv' for reading: No such file or directory tail: cannot open '/home/sinton/sjsu1f/mlbcalmindexk.csv' for reading: No such file or directory tail: cannot open '/home/sinton/sjsu1f/mlbavgwindindexk.csv' for reading: No such file or directory tail: cannot open '/home/sinton/sjsu1f/mlbcalmindexk.csv' for reading: No such file or directory tail: cannot open '/home/sinton/sjsu1f/mlbavgwindindexk.csv' for reading: No such file or directory tail: cannot open '/home/sinton/sjsu1f/mlbcalmindexk.csv' for reading: No such file or directory tail: cannot open '/home/sinton/sjsu1f/mlbavgwindindexk.csv' for reading: No such file or directory tail: cannot open '/home/sinton/sjsu1f/mlbcalmindexk.csv' for reading: No such file or directory tail: cannot open '/home/sinton/sjsu1f/mlbavgwindindexk.csv' for reading: No such file or directory tail: cannot open '/home/sinton/sjsu1f/mlbcalmindexk.csv' for reading: No such file or directory tail: cannot open '/home/sinton/sjsu1f/mlbavgwindindexk.csv' for reading: No such file or directory tail: cannot open '/home/sinton/sjsu1f/mlbcalmindexk.csv' for reading: No such file or directory tail: cannot open '/home/sinton/sjsu1f/mlbavgwindindexk.csv' for reading: No such file or directory tail: cannot open '/home/sinton/sjsu1f/mlbcalmindexk.csv' for reading: No such file or directory tail: cannot open '/home/sinton/sjsu1f/mlbavgwindindexk.csv' for reading: No such file or directory % Total % Received % Xferd Average Speed Time Time Time Current Dload Upload Total Spent Left Speed 0 0 0 0 0 0 0 0 --:--:-- --:--:-- --:--:-- 0 100 432 100 432 0 0 8150 0 --:--:-- --:--:-- --:--:-- 8150 % Total % Received % Xferd Average Speed Time Time Time Current Dload Upload Total Spent Left Speed 0 0 0 0 0 0 0 0 --:--:-- --:--:-- --:--:-- 0 100 432 100 432 0 0 5142 0 --:--:-- --:--:-- --:--:-- 5082 100 432 100 432 0 0 5142 0 --:--:-- --:--:-- --:--:-- 5082 % Total % Received % Xferd Average Speed Time Time Time Current Dload Upload Total Spent Left Speed 0 0 0 0 0 0 0 0 --:--:-- --:--:-- --:--:-- 0 100 430 100 430 0 0 10487 0 --:--:-- --:--:-- --:--:-- 10487 % Total % Received % Xferd Average Speed Time Time Time Current Dload Upload Total Spent Left Speed 0 0 0 0 0 0 0 0 --:--:-- --:--:-- --:--:-- 0 100 429 100 429 0 0 2664 0 --:--:-- --:--:-- --:--:-- 2664 % Total % Received % Xferd Average Speed Time Time Time Current Dload Upload Total Spent Left Speed 0 0 0 0 0 0 0 0 --:--:-- --:--:-- --:--:-- 0 100 428 100 428 0 0 3317 0 --:--:-- --:--:-- --:--:-- 3317 tail: cannot open '/home/sinton/sjsu1f/mlbcalmindexk.csv' for reading: No such file or directory tail: cannot open '/home/sinton/sjsu1f/mlbavgwindindexk.csv' for reading: No such file or directory tail: cannot open '/home/sinton/sjsu1f/mlbcalmindexk.csv' for reading: No such file or directory tail: cannot open '/home/sinton/sjsu1f/mlbavgwindindexk.csv' for reading: No such file or directory tail: cannot open '/home/sinton/sjsu1f/mlbcalmindexk.csv' for reading: No such file or directory tail: cannot open '/home/sinton/sjsu1f/mlbavgwindindexk.csv' for reading: No such file or directory tail: cannot open '/home/sinton/sjsu1f/mlbcalmindexk.csv' for reading: No such file or directory tail: cannot open '/home/sinton/sjsu1f/mlbavgwindindexk.csv' for reading: No such file or directory tail: cannot open '/home/sinton/sjsu1f/mlbcalmindexk.csv' for reading: No such file or directory tail: cannot open '/home/sinton/sjsu1f/mlbavgwindindexk.csv' for reading: No such file or directory tail: cannot open '/home/sinton/sjsu1f/mlbcalmindexk.csv' for reading: No such file or directory tail: cannot open '/home/sinton/sjsu1f/mlbavgwindindexk.csv' for reading: No such file or directory tail: cannot open '/home/sinton/sjsu1f/mlbcalmindexk.csv' for reading: No such file or directory tail: cannot open '/home/sinton/sjsu1f/mlbavgwindindexk.csv' for reading: No such file or directory tail: cannot open '/home/sinton/sjsu1f/mlbcalmindexk.csv' for reading: No such file or directory tail: cannot open '/home/sinton/sjsu1f/mlbavgwindindexk.csv' for reading: No such file or directory tail: cannot open '/home/sinton/sjsu1f/mlbcalmindexk.csv' for reading: No such file or directory tail: cannot open '/home/sinton/sjsu1f/mlbavgwindindexk.csv' for reading: No such file or directory tail: cannot open '/home/sinton/sjsu1f/mlbcalmindexk.csv' for reading: No such file or directory tail: cannot open '/home/sinton/sjsu1f/mlbavgwindindexk.csv' for reading: No such file or directory tail: cannot open '/home/sinton/sjsu1f/mlbcalmindexk.csv' for reading: No such file or directory tail: cannot open '/home/sinton/sjsu1f/mlbavgwindindexk.csv' for reading: No such file or directory tail: cannot open '/home/sinton/sjsu1f/mlbcalmindexk.csv' for reading: No such file or directory tail: cannot open '/home/sinton/sjsu1f/mlbavgwindindexk.csv' for reading: No such file or directory tail: cannot open '/home/sinton/sjsu1f/mlbcalmindexk.csv' for reading: No such file or directory tail: cannot open '/home/sinton/sjsu1f/mlbavgwindindexk.csv' for reading: No such file or directory tail: cannot open '/home/sinton/sjsu1f/mlbcalmindexk.csv' for reading: No such file or directory tail: cannot open '/home/sinton/sjsu1f/mlbavgwindindexk.csv' for reading: No such file or directory % Total % Received % Xferd Average Speed Time Time Time Current Dload Upload Total Spent Left Speed 0 0 0 0 0 0 0 0 --:--:-- --:--:-- --:--:-- 0 100 432 100 432 0 0 4595 0 --:--:-- --:--:-- --:--:-- 4595 % Total % Received % Xferd Average Speed Time Time Time Current Dload Upload Total Spent Left Speed 0 0 0 0 0 0 0 0 --:--:-- --:--:-- --:--:-- 0 100 432 100 432 0 0 3401 0 --:--:-- --:--:-- --:--:-- 3375 100 432 100 432 0 0 3401 0 --:--:-- --:--:-- --:--:-- 3375 % Total % Received % Xferd Average Speed Time Time Time Current Dload Upload Total Spent Left Speed 0 0 0 0 0 0 0 0 --:--:-- --:--:-- --:--:-- 0 100 429 100 429 0 0 5168 0 --:--:-- --:--:-- --:--:-- 5168 % Total % Received % Xferd Average Speed Time Time Time Current Dload Upload Total Spent Left Speed 0 0 0 0 0 0 0 0 --:--:-- --:--:-- --:--:-- 0 100 429 100 429 0 0 8411 0 --:--:-- --:--:-- --:--:-- 8411 % Total % Received % Xferd Average Speed Time Time Time Current Dload Upload Total Spent Left Speed 0 0 0 0 0 0 0 0 --:--:-- --:--:-- --:--:-- 0 100 428 100 428 0 0 1936 0 --:--:-- --:--:-- --:--:-- 1936 tail: cannot open '/home/sinton/sjsu1f/mlbcalmindexk.csv' for reading: No such file or directory tail: cannot open '/home/sinton/sjsu1f/mlbavgwindindexk.csv' for reading: No such file or directory tail: cannot open '/home/sinton/sjsu1f/mlbcalmindexk.csv' for reading: No such file or directory tail: cannot open '/home/sinton/sjsu1f/mlbavgwindindexk.csv' for reading: No such file or directory tail: cannot open '/home/sinton/sjsu1f/mlbcalmindexk.csv' for reading: No such file or directory tail: cannot open '/home/sinton/sjsu1f/mlbavgwindindexk.csv' for reading: No such file or directory tail: cannot open '/home/sinton/sjsu1f/mlbcalmindexk.csv' for reading: No such file or directory tail: cannot open '/home/sinton/sjsu1f/mlbavgwindindexk.csv' for reading: No such file or directory tail: cannot open '/home/sinton/sjsu1f/mlbcalmindexk.csv' for reading: No such file or directory tail: cannot open '/home/sinton/sjsu1f/mlbavgwindindexk.csv' for reading: No such file or directory tail: cannot open '/home/sinton/sjsu1f/mlbcalmindexk.csv' for reading: No such file or directory tail: cannot open '/home/sinton/sjsu1f/mlbavgwindindexk.csv' for reading: No such file or directory tail: cannot open '/home/sinton/sjsu1f/mlbcalmindexk.csv' for reading: No such file or directory tail: cannot open '/home/sinton/sjsu1f/mlbavgwindindexk.csv' for reading: No such file or directory tail: cannot open '/home/sinton/sjsu1f/mlbcalmindexk.csv' for reading: No such file or directory tail: cannot open '/home/sinton/sjsu1f/mlbavgwindindexk.csv' for reading: No such file or directory tail: cannot open '/home/sinton/sjsu1f/mlbcalmindexk.csv' for reading: No such file or directory tail: cannot open '/home/sinton/sjsu1f/mlbavgwindindexk.csv' for reading: No such file or directory tail: cannot open '/home/sinton/sjsu1f/mlbcalmindexk.csv' for reading: No such file or directory tail: cannot open '/home/sinton/sjsu1f/mlbavgwindindexk.csv' for reading: No such file or directory tail: cannot open '/home/sinton/sjsu1f/mlbcalmindexk.csv' for reading: No such file or directory tail: cannot open '/home/sinton/sjsu1f/mlbavgwindindexk.csv' for reading: No such file or directory % Total % Received % Xferd Average Speed Time Time Time Current Dload Upload Total Spent Left Speed 0 0 0 0 0 0 0 0 --:--:-- --:--:-- --:--:-- 0 100 432 100 432 0 0 4453 0 --:--:-- --:--:-- --:--:-- 4453 % Total % Received % Xferd Average Speed Time Time Time Current Dload Upload Total Spent Left Speed 0 0 0 0 0 0 0 0 --:--:-- --:--:-- --:--:-- 0 100 432 100 432 0 0 1479 0 --:--:-- --:--:-- --:--:-- 1479 % Total % Received % Xferd Average Speed Time Time Time Current Dload Upload Total Spent Left Speed 0 0 0 0 0 0 0 0 --:--:-- --:--:-- --:--:-- 0 100 429 100 429 0 0 2841 0 --:--:-- --:--:-- --:--:-- 2822 100 429 100 429 0 0 2841 0 --:--:-- --:--:-- --:--:-- 2822 % Total % Received % Xferd Average Speed Time Time Time Current Dload Upload Total Spent Left Speed 0 0 0 0 0 0 0 0 --:--:-- --:--:-- --:--:-- 0 100 429 100 429 0 0 3575 0 --:--:-- --:--:-- --:--:-- 3575 % Total % Received % Xferd Average Speed Time Time Time Current Dload Upload Total Spent Left Speed 0 0 0 0 0 0 0 0 --:--:-- --:--:-- --:--:-- 0 100 428 100 428 0 0 9953 0 --:--:-- --:--:-- --:--:-- 9953 tail: cannot open '/home/sinton/sjsu1f/mlbcalmindexk.csv' for reading: No such file or directory tail: cannot open '/home/sinton/sjsu1f/mlbavgwindindexk.csv' for reading: No such file or directory tail: cannot open '/home/sinton/sjsu1f/mlbcalmindexk.csv' for reading: No such file or directory tail: cannot open '/home/sinton/sjsu1f/mlbavgwindindexk.csv' for reading: No such file or directory tail: cannot open '/home/sinton/sjsu1f/mlbcalmindexk.csv' for reading: No such file or directory tail: cannot open '/home/sinton/sjsu1f/mlbavgwindindexk.csv' for reading: No such file or directory tail: cannot open '/home/sinton/sjsu1f/mlbcalmindexk.csv' for reading: No such file or directory tail: cannot open '/home/sinton/sjsu1f/mlbavgwindindexk.csv' for reading: No such file or directory tail: cannot open '/home/sinton/sjsu1f/mlbcalmindexk.csv' for reading: No such file or directory tail: cannot open '/home/sinton/sjsu1f/mlbavgwindindexk.csv' for reading: No such file or directory mv: cannot stat '/home/sinton/public_html/John1f/oakstuck': No such file or directory tail: cannot open '/home/sinton/sjsu1f/mlbcalmindexk.csv' for reading: No such file or directory tail: cannot open '/home/sinton/sjsu1f/mlbavgwindindexk.csv' for reading: No such file or directory tail: cannot open '/home/sinton/sjsu1f/mlbcalmindexk.csv' for reading: No such file or directory tail: cannot open '/home/sinton/sjsu1f/mlbavgwindindexk.csv' for reading: No such file or directory tail: cannot open '/home/sinton/sjsu1f/mlbcalmindexk.csv' for reading: No such file or directory tail: cannot open '/home/sinton/sjsu1f/mlbavgwindindexk.csv' for reading: No such file or directory tail: cannot open '/home/sinton/sjsu1f/mlbcalmindexk.csv' for reading: No such file or directory tail: cannot open '/home/sinton/sjsu1f/mlbavgwindindexk.csv' for reading: No such file or directory tail: cannot open '/home/sinton/sjsu1f/mlbcalmindexk.csv' for reading: No such file or directory tail: cannot open '/home/sinton/sjsu1f/mlbavgwindindexk.csv' for reading: No such file or directory tail: cannot open '/home/sinton/sjsu1f/mlbcalmindexk.csv' for reading: No such file or directory tail: cannot open '/home/sinton/sjsu1f/mlbavgwindindexk.csv' for reading: No such file or directory tail: cannot open '/home/sinton/sjsu1f/mlbcalmindexk.csv' for reading: No such file or directory tail: cannot open '/home/sinton/sjsu1f/mlbavgwindindexk.csv' for reading: No such file or directory tail: cannot open '/home/sinton/sjsu1f/mlbcalmindexk.csv' for reading: No such file or directory tail: cannot open '/home/sinton/sjsu1f/mlbavgwindindexk.csv' for reading: No such file or directory tail: cannot open '/home/sinton/sjsu1f/mlbcalmindexk.csv' for reading: No such file or directory tail: cannot open '/home/sinton/sjsu1f/mlbavgwindindexk.csv' for reading: No such file or directory tail: cannot open '/home/sinton/sjsu1f/mlbcalmindexk.csv' for reading: No such file or directory tail: cannot open '/home/sinton/sjsu1f/mlbavgwindindexk.csv' for reading: No such file or directory % Total % Received % Xferd Average Speed Time Time Time Current Dload Upload Total Spent Left Speed 0 0 0 0 0 0 0 0 --:--:-- --:--:-- --:--:-- 0 100 431 100 431 0 0 6734 0 --:--:-- --:--:-- --:--:-- 6734 % Total % Received % Xferd Average Speed Time Time Time Current Dload Upload Total Spent Left Speed 0 0 0 0 0 0 0 0 --:--:-- --:--:-- --:--:-- 0 100 431 100 431 0 0 7305 0 --:--:-- --:--:-- --:--:-- 7305 % Total % Received % Xferd Average Speed Time Time Time Current Dload Upload Total Spent Left Speed 0 0 0 0 0 0 0 0 --:--:-- --:--:-- --:--:-- 0 100 427 100 427 0 0 4447 0 --:--:-- --:--:-- --:--:-- 4402 100 427 100 427 0 0 4447 0 --:--:-- --:--:-- --:--:-- 4402 % Total % Received % Xferd Average Speed Time Time Time Current Dload Upload Total Spent Left Speed 0 0 0 0 0 0 0 0 --:--:-- --:--:-- --:--:-- 0 100 428 100 428 0 0 7016 0 --:--:-- --:--:-- --:--:-- 7016 % Total % Received % Xferd Average Speed Time Time Time Current Dload Upload Total Spent Left Speed 0 0 0 0 0 0 0 0 --:--:-- --:--:-- --:--:-- 0 100 427 100 427 0 0 6569 0 --:--:-- --:--:-- --:--:-- 6569 tail: cannot open '/home/sinton/sjsu1f/mlbcalmindexk.csv' for reading: No such file or directory tail: cannot open '/home/sinton/sjsu1f/mlbavgwindindexk.csv' for reading: No such file or directory tail: cannot open '/home/sinton/sjsu1f/mlbcalmindexk.csv' for reading: No such file or directory tail: cannot open '/home/sinton/sjsu1f/mlbavgwindindexk.csv' for reading: No such file or directory tail: cannot open '/home/sinton/sjsu1f/mlbcalmindexk.csv' for reading: No such file or directory tail: cannot open '/home/sinton/sjsu1f/mlbavgwindindexk.csv' for reading: No such file or directory tail: cannot open '/home/sinton/sjsu1f/mlbcalmindexk.csv' for reading: No such file or directory tail: cannot open '/home/sinton/sjsu1f/mlbavgwindindexk.csv' for reading: No such file or directory tail: cannot open '/home/sinton/sjsu1f/mlbcalmindexk.csv' for reading: No such file or directory tail: cannot open '/home/sinton/sjsu1f/mlbavgwindindexk.csv' for reading: No such file or directory tail: cannot open '/home/sinton/sjsu1f/mlbcalmindexk.csv' for reading: No such file or directory tail: cannot open '/home/sinton/sjsu1f/mlbavgwindindexk.csv' for reading: No such file or directory tail: cannot open '/home/sinton/sjsu1f/mlbcalmindexk.csv' for reading: No such file or directory tail: cannot open '/home/sinton/sjsu1f/mlbavgwindindexk.csv' for reading: No such file or directory tail: cannot open '/home/sinton/sjsu1f/mlbcalmindexk.csv' for reading: No such file or directory tail: cannot open '/home/sinton/sjsu1f/mlbavgwindindexk.csv' for reading: No such file or directory tail: cannot open '/home/sinton/sjsu1f/mlbcalmindexk.csv' for reading: No such file or directory tail: cannot open '/home/sinton/sjsu1f/mlbavgwindindexk.csv' for reading: No such file or directory tail: cannot open '/home/sinton/sjsu1f/mlbcalmindexk.csv' for reading: No such file or directory tail: cannot open '/home/sinton/sjsu1f/mlbavgwindindexk.csv' for reading: No such file or directory tail: cannot open '/home/sinton/sjsu1f/mlbcalmindexk.csv' for reading: No such file or directory tail: cannot open '/home/sinton/sjsu1f/mlbavgwindindexk.csv' for reading: No such file or directory tail: cannot open '/home/sinton/sjsu1f/mlbcalmindexk.csv' for reading: No such file or directory tail: cannot open '/home/sinton/sjsu1f/mlbavgwindindexk.csv' for reading: No such file or directory tail: cannot open '/home/sinton/sjsu1f/mlbcalmindexk.csv' for reading: No such file or directory tail: cannot open '/home/sinton/sjsu1f/mlbavgwindindexk.csv' for reading: No such file or directory tail: cannot open '/home/sinton/sjsu1f/mlbcalmindexk.csv' for reading: No such file or directory tail: cannot open '/home/sinton/sjsu1f/mlbavgwindindexk.csv' for reading: No such file or directory % Total % Received % Xferd Average Speed Time Time Time Current Dload Upload Total Spent Left Speed 0 0 0 0 0 0 0 0 --:--:-- --:--:-- --:--:-- 0 0 0 0 0 0 0 0 0 --:--:-- --:--:-- --:--:-- 0 100 431 100 431 0 0 1737 0 --:--:-- --:--:-- --:--:-- 1730 % Total % Received % Xferd Average Speed Time Time Time Current Dload Upload Total Spent Left Speed 0 0 0 0 0 0 0 0 --:--:-- --:--:-- --:--:-- 0 100 431 100 431 0 0 1818 0 --:--:-- --:--:-- --:--:-- 1818 % Total % Received % Xferd Average Speed Time Time Time Current Dload Upload Total Spent Left Speed 0 0 0 0 0 0 0 0 --:--:-- --:--:-- --:--:-- 0 100 427 100 427 0 0 6279 0 --:--:-- --:--:-- --:--:-- 6279 % Total % Received % Xferd Average Speed Time Time Time Current Dload Upload Total Spent Left Speed 0 0 0 0 0 0 0 0 --:--:-- --:--:-- --:--:-- 0 100 427 100 427 0 0 10414 0 --:--:-- --:--:-- --:--:-- 10414 % Total % Received % Xferd Average Speed Time Time Time Current Dload Upload Total Spent Left Speed 0 0 0 0 0 0 0 0 --:--:-- --:--:-- --:--:-- 0 100 426 100 426 0 0 3435 0 --:--:-- --:--:-- --:--:-- 3435 tail: cannot open '/home/sinton/sjsu1f/mlbcalmindexk.csv' for reading: No such file or directory tail: cannot open '/home/sinton/sjsu1f/mlbavgwindindexk.csv' for reading: No such file or directory tail: cannot open '/home/sinton/sjsu1f/mlbcalmindexk.csv' for reading: No such file or directory tail: cannot open '/home/sinton/sjsu1f/mlbavgwindindexk.csv' for reading: No such file or directory tail: cannot open '/home/sinton/sjsu1f/mlbcalmindexk.csv' for reading: No such file or directory tail: cannot open '/home/sinton/sjsu1f/mlbavgwindindexk.csv' for reading: No such file or directory tail: cannot open '/home/sinton/sjsu1f/mlbcalmindexk.csv' for reading: No such file or directory tail: cannot open '/home/sinton/sjsu1f/mlbavgwindindexk.csv' for reading: No such file or directory tail: cannot open '/home/sinton/sjsu1f/mlbcalmindexk.csv' for reading: No such file or directory tail: cannot open '/home/sinton/sjsu1f/mlbavgwindindexk.csv' for reading: No such file or directory tail: cannot open '/home/sinton/sjsu1f/mlbcalmindexk.csv' for reading: No such file or directory tail: cannot open '/home/sinton/sjsu1f/mlbavgwindindexk.csv' for reading: No such file or directory tail: cannot open '/home/sinton/sjsu1f/mlbcalmindexk.csv' for reading: No such file or directory tail: cannot open '/home/sinton/sjsu1f/mlbavgwindindexk.csv' for reading: No such file or directory tail: cannot open '/home/sinton/sjsu1f/mlbcalmindexk.csv' for reading: No such file or directory tail: cannot open '/home/sinton/sjsu1f/mlbavgwindindexk.csv' for reading: No such file or directory tail: cannot open '/home/sinton/sjsu1f/mlbcalmindexk.csv' for reading: No such file or directory tail: cannot open '/home/sinton/sjsu1f/mlbavgwindindexk.csv' for reading: No such file or directory tail: cannot open '/home/sinton/sjsu1f/mlbcalmindexk.csv' for reading: No such file or directory tail: cannot open '/home/sinton/sjsu1f/mlbavgwindindexk.csv' for reading: No such file or directory tail: cannot open '/home/sinton/sjsu1f/mlbcalmindexk.csv' for reading: No such file or directory tail: cannot open '/home/sinton/sjsu1f/mlbavgwindindexk.csv' for reading: No such file or directory tail: cannot open '/home/sinton/sjsu1f/mlbcalmindexk.csv' for reading: No such file or directory tail: cannot open '/home/sinton/sjsu1f/mlbavgwindindexk.csv' for reading: No such file or directory tail: cannot open '/home/sinton/sjsu1f/mlbcalmindexk.csv' for reading: No such file or directory tail: cannot open '/home/sinton/sjsu1f/mlbavgwindindexk.csv' for reading: No such file or directory tail: cannot open '/home/sinton/sjsu1f/mlbcalmindexk.csv' for reading: No such file or directory tail: cannot open '/home/sinton/sjsu1f/mlbavgwindindexk.csv' for reading: No such file or directory % Total % Received % Xferd Average Speed Time Time Time Current Dload Upload Total Spent Left Speed 0 0 0 0 0 0 0 0 --:--:-- --:--:-- --:--:-- 0 100 431 100 431 0 0 2462 0 --:--:-- --:--:-- --:--:-- 2462 % Total % Received % Xferd Average Speed Time Time Time Current Dload Upload Total Spent Left Speed 0 0 0 0 0 0 0 0 --:--:-- --:--:-- --:--:-- 0 100 432 100 432 0 0 2181 0 --:--:-- --:--:-- --:--:-- 2181 % Total % Received % Xferd Average Speed Time Time Time Current Dload Upload Total Spent Left Speed 0 0 0 0 0 0 0 0 --:--:-- --:--:-- --:--:-- 0 100 429 100 429 0 0 7271 0 --:--:-- --:--:-- --:--:-- 7271 % Total % Received % Xferd Average Speed Time Time Time Current Dload Upload Total Spent Left Speed 0 0 0 0 0 0 0 0 --:--:-- --:--:-- --:--:-- 0 100 428 100 428 0 0 1465 0 --:--:-- --:--:-- --:--:-- 1465 % Total % Received % Xferd Average Speed Time Time Time Current Dload Upload Total Spent Left Speed 0 0 0 0 0 0 0 0 --:--:-- --:--:-- --:--:-- 0 100 427 100 427 0 0 2541 0 --:--:-- --:--:-- --:--:-- 2541 tail: cannot open '/home/sinton/sjsu1f/mlbcalmindexk.csv' for reading: No such file or directory tail: cannot open '/home/sinton/sjsu1f/mlbavgwindindexk.csv' for reading: No such file or directory tail: cannot open '/home/sinton/sjsu1f/mlbcalmindexk.csv' for reading: No such file or directory tail: cannot open '/home/sinton/sjsu1f/mlbavgwindindexk.csv' for reading: No such file or directory tail: cannot open '/home/sinton/sjsu1f/mlbcalmindexk.csv' for reading: No such file or directory tail: cannot open '/home/sinton/sjsu1f/mlbavgwindindexk.csv' for reading: No such file or directory tail: cannot open '/home/sinton/sjsu1f/mlbcalmindexk.csv' for reading: No such file or directory tail: cannot open '/home/sinton/sjsu1f/mlbavgwindindexk.csv' for reading: No such file or directory tail: cannot open '/home/sinton/sjsu1f/mlbcalmindexk.csv' for reading: No such file or directory tail: cannot open '/home/sinton/sjsu1f/mlbavgwindindexk.csv' for reading: No such file or directory tail: cannot open '/home/sinton/sjsu1f/mlbcalmindexk.csv' for reading: No such file or directory tail: cannot open '/home/sinton/sjsu1f/mlbavgwindindexk.csv' for reading: No such file or directory tail: cannot open '/home/sinton/sjsu1f/mlbcalmindexk.csv' for reading: No such file or directory tail: cannot open '/home/sinton/sjsu1f/mlbavgwindindexk.csv' for reading: No such file or directory mv: cannot stat '/home/sinton/public_html/John1f/oakstuck': No such file or directory tail: cannot open '/home/sinton/sjsu1f/mlbcalmindexk.csv' for reading: No such file or directory tail: cannot open '/home/sinton/sjsu1f/mlbavgwindindexk.csv' for reading: No such file or directory tail: cannot open '/home/sinton/sjsu1f/mlbcalmindexk.csv' for reading: No such file or directory tail: cannot open '/home/sinton/sjsu1f/mlbavgwindindexk.csv' for reading: No such file or directory tail: cannot open '/home/sinton/sjsu1f/mlbcalmindexk.csv' for reading: No such file or directory tail: cannot open '/home/sinton/sjsu1f/mlbavgwindindexk.csv' for reading: No such file or directory tail: cannot open '/home/sinton/sjsu1f/mlbcalmindexk.csv' for reading: No such file or directory tail: cannot open '/home/sinton/sjsu1f/mlbavgwindindexk.csv' for reading: No such file or directory tail: cannot open '/home/sinton/sjsu1f/mlbcalmindexk.csv' for reading: No such file or directory tail: cannot open '/home/sinton/sjsu1f/mlbavgwindindexk.csv' for reading: No such file or directory tail: cannot open '/home/sinton/sjsu1f/mlbcalmindexk.csv' for reading: No such file or directory tail: cannot open '/home/sinton/sjsu1f/mlbavgwindindexk.csv' for reading: No such file or directory % Total % Received % Xferd Average Speed Time Time Time Current Dload Upload Total Spent Left Speed 0 0 0 0 0 0 0 0 --:--:-- --:--:-- --:--:-- 0 100 432 100 432 0 0 3823 0 --:--:-- --:--:-- --:--:-- 3823 % Total % Received % Xferd Average Speed Time Time Time Current Dload Upload Total Spent Left Speed 0 0 0 0 0 0 0 0 --:--:-- --:--:-- --:--:-- 0 100 432 100 432 0 0 3401 0 --:--:-- --:--:-- --:--:-- 3428 % Total % Received % Xferd Average Speed Time Time Time Current Dload Upload Total Spent Left Speed 0 0 0 0 0 0 0 0 --:--:-- --:--:-- --:--:-- 0 100 432 100 432 0 0 4408 0 --:--:-- --:--:-- --:--:-- 4408 % Total % Received % Xferd Average Speed Time Time Time Current Dload Upload Total Spent Left Speed 0 0 0 0 0 0 0 0 --:--:-- --:--:-- --:--:-- 0 100 429 100 429 0 0 3108 0 --:--:-- --:--:-- --:--:-- 3108 % Total % Received % Xferd Average Speed Time Time Time Current Dload Upload Total Spent Left Speed 0 0 0 0 0 0 0 0 --:--:-- --:--:-- --:--:-- 0 100 428 100 428 0 0 3079 0 --:--:-- --:--:-- --:--:-- 3079 tail: cannot open '/home/sinton/sjsu1f/mlbcalmindexk.csv' for reading: No such file or directory tail: cannot open '/home/sinton/sjsu1f/mlbavgwindindexk.csv' for reading: No such file or directory tail: cannot open '/home/sinton/sjsu1f/mlbcalmindexk.csv' for reading: No such file or directory tail: cannot open '/home/sinton/sjsu1f/mlbavgwindindexk.csv' for reading: No such file or directory tail: cannot open '/home/sinton/sjsu1f/mlbcalmindexk.csv' for reading: No such file or directory tail: cannot open '/home/sinton/sjsu1f/mlbavgwindindexk.csv' for reading: No such file or directory tail: cannot open '/home/sinton/sjsu1f/mlbcalmindexk.csv' for reading: No such file or directory tail: cannot open '/home/sinton/sjsu1f/mlbavgwindindexk.csv' for reading: No such file or directory tail: cannot open '/home/sinton/sjsu1f/mlbcalmindexk.csv' for reading: No such file or directory tail: cannot open '/home/sinton/sjsu1f/mlbavgwindindexk.csv' for reading: No such file or directory tail: cannot open '/home/sinton/sjsu1f/mlbcalmindexk.csv' for reading: No such file or directory tail: cannot open '/home/sinton/sjsu1f/mlbavgwindindexk.csv' for reading: No such file or directory tail: cannot open '/home/sinton/sjsu1f/mlbcalmindexk.csv' for reading: No such file or directory tail: cannot open '/home/sinton/sjsu1f/mlbavgwindindexk.csv' for reading: No such file or directory tail: cannot open '/home/sinton/sjsu1f/mlbcalmindexk.csv' for reading: No such file or directory tail: cannot open '/home/sinton/sjsu1f/mlbavgwindindexk.csv' for reading: No such file or directory tail: cannot open '/home/sinton/sjsu1f/mlbcalmindexk.csv' for reading: No such file or directory tail: cannot open '/home/sinton/sjsu1f/mlbavgwindindexk.csv' for reading: No such file or directory tail: cannot open '/home/sinton/sjsu1f/mlbcalmindexk.csv' for reading: No such file or directory tail: cannot open '/home/sinton/sjsu1f/mlbavgwindindexk.csv' for reading: No such file or directory tail: cannot open '/home/sinton/sjsu1f/mlbcalmindexk.csv' for reading: No such file or directory tail: cannot open '/home/sinton/sjsu1f/mlbavgwindindexk.csv' for reading: No such file or directory tail: cannot open '/home/sinton/sjsu1f/mlbcalmindexk.csv' for reading: No such file or directory tail: cannot open '/home/sinton/sjsu1f/mlbavgwindindexk.csv' for reading: No such file or directory tail: cannot open '/home/sinton/sjsu1f/mlbcalmindexk.csv' for reading: No such file or directory tail: cannot open '/home/sinton/sjsu1f/mlbavgwindindexk.csv' for reading: No such file or directory % Total % Received % Xferd Average Speed Time Time Time Current Dload Upload Total Spent Left Speed 0 0 0 0 0 0 0 0 --:--:-- --:--:-- --:--:-- 0 100 432 100 432 0 0 1180 0 --:--:-- --:--:-- --:--:-- 1177 100 432 100 432 0 0 1177 0 --:--:-- --:--:-- --:--:-- 1177 % Total % Received % Xferd Average Speed Time Time Time Current Dload Upload Total Spent Left Speed 0 0 0 0 0 0 0 0 --:--:-- --:--:-- --:--:-- 0 100 432 100 432 0 0 2683 0 --:--:-- --:--:-- --:--:-- 2683 % Total % Received % Xferd Average Speed Time Time Time Current Dload Upload Total Spent Left Speed 0 0 0 0 0 0 0 0 --:--:-- --:--:-- --:--:-- 0 100 432 100 432 0 0 3200 0 --:--:-- --:--:-- --:--:-- 3200 % Total % Received % Xferd Average Speed Time Time Time Current Dload Upload Total Spent Left Speed 0 0 0 0 0 0 0 0 --:--:-- --:--:-- --:--:-- 0 100 432 100 432 0 0 6084 0 --:--:-- --:--:-- --:--:-- 6084 % Total % Received % Xferd Average Speed Time Time Time Current Dload Upload Total Spent Left Speed 0 0 0 0 0 0 0 0 --:--:-- --:--:-- --:--:-- 0 100 431 100 431 0 0 6951 0 --:--:-- --:--:-- --:--:-- 6951 tail: cannot open '/home/sinton/sjsu1f/mlbcalmindexk.csv' for reading: No such file or directory tail: cannot open '/home/sinton/sjsu1f/mlbavgwindindexk.csv' for reading: No such file or directory tail: cannot open '/home/sinton/sjsu1f/mlbcalmindexk.csv' for reading: No such file or directory tail: cannot open '/home/sinton/sjsu1f/mlbavgwindindexk.csv' for reading: No such file or directory tail: cannot open '/home/sinton/sjsu1f/mlbcalmindexk.csv' for reading: No such file or directory tail: cannot open '/home/sinton/sjsu1f/mlbavgwindindexk.csv' for reading: No such file or directory tail: cannot open '/home/sinton/sjsu1f/mlbcalmindexk.csv' for reading: No such file or directory tail: cannot open '/home/sinton/sjsu1f/mlbavgwindindexk.csv' for reading: No such file or directory tail: cannot open '/home/sinton/sjsu1f/mlbcalmindexk.csv' for reading: No such file or directory tail: cannot open '/home/sinton/sjsu1f/mlbavgwindindexk.csv' for reading: No such file or directory tail: cannot open '/home/sinton/sjsu1f/mlbcalmindexk.csv' for reading: No such file or directory tail: cannot open '/home/sinton/sjsu1f/mlbavgwindindexk.csv' for reading: No such file or directory tail: cannot open '/home/sinton/sjsu1f/mlbcalmindexk.csv' for reading: No such file or directory tail: cannot open '/home/sinton/sjsu1f/mlbavgwindindexk.csv' for reading: No such file or directory tail: cannot open '/home/sinton/sjsu1f/mlbcalmindexk.csv' for reading: No such file or directory tail: cannot open '/home/sinton/sjsu1f/mlbavgwindindexk.csv' for reading: No such file or directory tail: cannot open '/home/sinton/sjsu1f/mlbcalmindexk.csv' for reading: No such file or directory tail: cannot open '/home/sinton/sjsu1f/mlbavgwindindexk.csv' for reading: No such file or directory tail: cannot open '/home/sinton/sjsu1f/mlbcalmindexk.csv' for reading: No such file or directory tail: cannot open '/home/sinton/sjsu1f/mlbavgwindindexk.csv' for reading: No such file or directory tail: cannot open '/home/sinton/sjsu1f/mlbcalmindexk.csv' for reading: No such file or directory tail: cannot open '/home/sinton/sjsu1f/mlbavgwindindexk.csv' for reading: No such file or directory tail: cannot open '/home/sinton/sjsu1f/mlbcalmindexk.csv' for reading: No such file or directory tail: cannot open '/home/sinton/sjsu1f/mlbavgwindindexk.csv' for reading: No such file or directory % Total % Received % Xferd Average Speed Time Time Time Current Dload Upload Total Spent Left Speed 0 0 0 0 0 0 0 0 --:--:-- --:--:-- --:--:-- 0 100 432 100 432 0 0 1763 0 --:--:-- --:--:-- --:--:-- 1763 % Total % Received % Xferd Average Speed Time Time Time Current Dload Upload Total Spent Left Speed 0 0 0 0 0 0 0 0 --:--:-- --:--:-- --:--:-- 0 0 0 0 0 0 0 0 0 --:--:-- --:--:-- --:--:-- 0 100 432 100 432 0 0 2117 0 --:--:-- --:--:-- --:--:-- 2107 % Total % Received % Xferd Average Speed Time Time Time Current Dload Upload Total Spent Left Speed 0 0 0 0 0 0 0 0 --:--:-- --:--:-- --:--:-- 0 100 432 100 432 0 0 3020 0 --:--:-- --:--:-- --:--:-- 3020 % Total % Received % Xferd Average Speed Time Time Time Current Dload Upload Total Spent Left Speed 0 0 0 0 0 0 0 0 --:--:-- --:--:-- --:--:-- 0 100 432 100 432 0 0 11368 0 --:--:-- --:--:-- --:--:-- 11368 % Total % Received % Xferd Average Speed Time Time Time Current Dload Upload Total Spent Left Speed 0 0 0 0 0 0 0 0 --:--:-- --:--:-- --:--:-- 0 100 431 100 431 0 0 2993 0 --:--:-- --:--:-- --:--:-- 2993 tail: cannot open '/home/sinton/sjsu1f/mlbcalmindexk.csv' for reading: No such file or directory tail: cannot open '/home/sinton/sjsu1f/mlbavgwindindexk.csv' for reading: No such file or directory tail: cannot open '/home/sinton/sjsu1f/mlbcalmindexk.csv' for reading: No such file or directory tail: cannot open '/home/sinton/sjsu1f/mlbavgwindindexk.csv' for reading: No such file or directory tail: cannot open '/home/sinton/sjsu1f/mlbcalmindexk.csv' for reading: No such file or directory tail: cannot open '/home/sinton/sjsu1f/mlbavgwindindexk.csv' for reading: No such file or directory tail: cannot open '/home/sinton/sjsu1f/mlbcalmindexk.csv' for reading: No such file or directory tail: cannot open '/home/sinton/sjsu1f/mlbavgwindindexk.csv' for reading: No such file or directory tail: cannot open '/home/sinton/sjsu1f/mlbcalmindexk.csv' for reading: No such file or directory tail: cannot open '/home/sinton/sjsu1f/mlbavgwindindexk.csv' for reading: No such file or directory tail: cannot open '/home/sinton/sjsu1f/mlbcalmindexk.csv' for reading: No such file or directory tail: cannot open '/home/sinton/sjsu1f/mlbavgwindindexk.csv' for reading: No such file or directory tail: cannot open '/home/sinton/sjsu1f/mlbcalmindexk.csv' for reading: No such file or directory tail: cannot open '/home/sinton/sjsu1f/mlbavgwindindexk.csv' for reading: No such file or directory tail: cannot open '/home/sinton/sjsu1f/mlbcalmindexk.csv' for reading: No such file or directory tail: cannot open '/home/sinton/sjsu1f/mlbavgwindindexk.csv' for reading: No such file or directory tail: cannot open '/home/sinton/sjsu1f/mlbcalmindexk.csv' for reading: No such file or directory tail: cannot open '/home/sinton/sjsu1f/mlbavgwindindexk.csv' for reading: No such file or directory tail: cannot open '/home/sinton/sjsu1f/mlbcalmindexk.csv' for reading: No such file or directory tail: cannot open '/home/sinton/sjsu1f/mlbavgwindindexk.csv' for reading: No such file or directory tail: cannot open '/home/sinton/sjsu1f/mlbcalmindexk.csv' for reading: No such file or directory tail: cannot open '/home/sinton/sjsu1f/mlbavgwindindexk.csv' for reading: No such file or directory tail: cannot open '/home/sinton/sjsu1f/mlbcalmindexk.csv' for reading: No such file or directory tail: cannot open '/home/sinton/sjsu1f/mlbavgwindindexk.csv' for reading: No such file or directory tail: cannot open '/home/sinton/sjsu1f/mlbcalmindexk.csv' for reading: No such file or directory tail: cannot open '/home/sinton/sjsu1f/mlbavgwindindexk.csv' for reading: No such file or directory tail: cannot open '/home/sinton/sjsu1f/mlbcalmindexk.csv' for reading: No such file or directory tail: cannot open '/home/sinton/sjsu1f/mlbavgwindindexk.csv' for reading: No such file or directory tail: cannot open '/home/sinton/sjsu1f/mlbcalmindexk.csv' for reading: No such file or directory tail: cannot open '/home/sinton/sjsu1f/mlbavgwindindexk.csv' for reading: No such file or directory tail: cannot open '/home/sinton/sjsu1f/mlbcalmindexk.csv' for reading: No such file or directory tail: cannot open '/home/sinton/sjsu1f/mlbavgwindindexk.csv' for reading: No such file or directory % Total % Received % Xferd Average Speed Time Time Time Current Dload Upload Total Spent Left Speed 0 0 0 0 0 0 0 0 --:--:-- --:--:-- --:--:-- 0 100 431 100 431 0 0 2780 0 --:--:-- --:--:-- --:--:-- 2780 % Total % Received % Xferd Average Speed Time Time Time Current Dload Upload Total Spent Left Speed 0 0 0 0 0 0 0 0 --:--:-- --:--:-- --:--:-- 0 100 431 100 431 0 0 9795 0 --:--:-- --:--:-- --:--:-- 9795 % Total % Received % Xferd Average Speed Time Time Time Current Dload Upload Total Spent Left Speed 0 0 0 0 0 0 0 0 --:--:-- --:--:-- --:--:-- 0 100 431 100 431 0 0 3954 0 --:--:-- --:--:-- --:--:-- 3954 % Total % Received % Xferd Average Speed Time Time Time Current Dload Upload Total Spent Left Speed 0 0 0 0 0 0 0 0 --:--:-- --:--:-- --:--:-- 0 100 428 100 428 0 0 4076 0 --:--:-- --:--:-- --:--:-- 4076 % Total % Received % Xferd Average Speed Time Time Time Current Dload Upload Total Spent Left Speed 0 0 0 0 0 0 0 0 --:--:-- --:--:-- --:--:-- 0 100 427 100 427 0 0 928 0 --:--:-- --:--:-- --:--:-- 930 tail: cannot open '/home/sinton/sjsu1f/mlbcalmindexk.csv' for reading: No such file or directory tail: cannot open '/home/sinton/sjsu1f/mlbavgwindindexk.csv' for reading: No such file or directory tail: cannot open '/home/sinton/sjsu1f/mlbcalmindexk.csv' for reading: No such file or directory tail: cannot open '/home/sinton/sjsu1f/mlbavgwindindexk.csv' for reading: No such file or directory tail: cannot open '/home/sinton/sjsu1f/mlbcalmindexk.csv' for reading: No such file or directory tail: cannot open '/home/sinton/sjsu1f/mlbavgwindindexk.csv' for reading: No such file or directory tail: cannot open '/home/sinton/sjsu1f/mlbcalmindexk.csv' for reading: No such file or directory tail: cannot open '/home/sinton/sjsu1f/mlbavgwindindexk.csv' for reading: No such file or directory tail: cannot open '/home/sinton/sjsu1f/mlbcalmindexk.csv' for reading: No such file or directory tail: cannot open '/home/sinton/sjsu1f/mlbavgwindindexk.csv' for reading: No such file or directory tail: cannot open '/home/sinton/sjsu1f/mlbcalmindexk.csv' for reading: No such file or directory tail: cannot open '/home/sinton/sjsu1f/mlbavgwindindexk.csv' for reading: No such file or directory tail: cannot open '/home/sinton/sjsu1f/mlbcalmindexk.csv' for reading: No such file or directory tail: cannot open '/home/sinton/sjsu1f/mlbavgwindindexk.csv' for reading: No such file or directory tail: cannot open '/home/sinton/sjsu1f/mlbcalmindexk.csv' for reading: No such file or directory tail: cannot open '/home/sinton/sjsu1f/mlbavgwindindexk.csv' for reading: No such file or directory tail: cannot open '/home/sinton/sjsu1f/mlbcalmindexk.csv' for reading: No such file or directory tail: cannot open '/home/sinton/sjsu1f/mlbavgwindindexk.csv' for reading: No such file or directory tail: cannot open '/home/sinton/sjsu1f/mlbcalmindexk.csv' for reading: No such file or directory tail: cannot open '/home/sinton/sjsu1f/mlbavgwindindexk.csv' for reading: No such file or directory tail: cannot open '/home/sinton/sjsu1f/mlbcalmindexk.csv' for reading: No such file or directory tail: cannot open '/home/sinton/sjsu1f/mlbavgwindindexk.csv' for reading: No such file or directory tail: cannot open '/home/sinton/sjsu1f/mlbcalmindexk.csv' for reading: No such file or directory tail: cannot open '/home/sinton/sjsu1f/mlbavgwindindexk.csv' for reading: No such file or directory tail: cannot open '/home/sinton/sjsu1f/mlbcalmindexk.csv' for reading: No such file or directory tail: cannot open '/home/sinton/sjsu1f/mlbavgwindindexk.csv' for reading: No such file or directory tail: cannot open '/home/sinton/sjsu1f/mlbcalmindexk.csv' for reading: No such file or directory tail: cannot open '/home/sinton/sjsu1f/mlbavgwindindexk.csv' for reading: No such file or directory % Total % Received % Xferd Average Speed Time Time Time Current Dload Upload Total Spent Left Speed 0 0 0 0 0 0 0 0 --:--:-- --:--:-- --:--:-- 0 0 0 0 0 0 0 0 0 --:--:-- --:--:-- --:--:-- 0 100 431 100 431 0 0 1803 0 --:--:-- --:--:-- --:--:-- 1795 % Total % Received % Xferd Average Speed Time Time Time Current Dload Upload Total Spent Left Speed 0 0 0 0 0 0 0 0 --:--:-- --:--:-- --:--:-- 0 100 431 100 431 0 0 3169 0 --:--:-- --:--:-- --:--:-- 3169 % Total % Received % Xferd Average Speed Time Time Time Current Dload Upload Total Spent Left Speed 0 0 0 0 0 0 0 0 --:--:-- --:--:-- --:--:-- 0 100 431 100 431 0 0 2221 0 --:--:-- --:--:-- --:--:-- 2221 % Total % Received % Xferd Average Speed Time Time Time Current Dload Upload Total Spent Left Speed 0 0 0 0 0 0 0 0 --:--:-- --:--:-- --:--:-- 0 100 429 100 429 0 0 5362 0 --:--:-- --:--:-- --:--:-- 5362 % Total % Received % Xferd Average Speed Time Time Time Current Dload Upload Total Spent Left Speed 0 0 0 0 0 0 0 0 --:--:-- --:--:-- --:--:-- 0 100 428 100 428 0 0 11567 0 --:--:-- --:--:-- --:--:-- 11567 tail: cannot open '/home/sinton/sjsu1f/mlbcalmindexk.csv' for reading: No such file or directory tail: cannot open '/home/sinton/sjsu1f/mlbavgwindindexk.csv' for reading: No such file or directory tail: cannot open '/home/sinton/sjsu1f/mlbcalmindexk.csv' for reading: No such file or directory tail: cannot open '/home/sinton/sjsu1f/mlbavgwindindexk.csv' for reading: No such file or directory tail: cannot open '/home/sinton/sjsu1f/mlbcalmindexk.csv' for reading: No such file or directory tail: cannot open '/home/sinton/sjsu1f/mlbavgwindindexk.csv' for reading: No such file or directory tail: cannot open '/home/sinton/sjsu1f/mlbcalmindexk.csv' for reading: No such file or directory tail: cannot open '/home/sinton/sjsu1f/mlbavgwindindexk.csv' for reading: No such file or directory tail: cannot open '/home/sinton/sjsu1f/mlbcalmindexk.csv' for reading: No such file or directory tail: cannot open '/home/sinton/sjsu1f/mlbavgwindindexk.csv' for reading: No such file or directory mv: cannot stat '/home/sinton/public_html/John1f/oakstuck': No such file or directory tail: cannot open '/home/sinton/sjsu1f/mlbcalmindexk.csv' for reading: No such file or directory tail: cannot open '/home/sinton/sjsu1f/mlbavgwindindexk.csv' for reading: No such file or directory tail: cannot open '/home/sinton/sjsu1f/mlbcalmindexk.csv' for reading: No such file or directory tail: cannot open '/home/sinton/sjsu1f/mlbavgwindindexk.csv' for reading: No such file or directory tail: cannot open '/home/sinton/sjsu1f/mlbcalmindexk.csv' for reading: No such file or directory tail: cannot open '/home/sinton/sjsu1f/mlbavgwindindexk.csv' for reading: No such file or directory tail: cannot open '/home/sinton/sjsu1f/mlbcalmindexk.csv' for reading: No such file or directory tail: cannot open '/home/sinton/sjsu1f/mlbavgwindindexk.csv' for reading: No such file or directory tail: cannot open '/home/sinton/sjsu1f/mlbcalmindexk.csv' for reading: No such file or directory tail: cannot open '/home/sinton/sjsu1f/mlbavgwindindexk.csv' for reading: No such file or directory tail: cannot open '/home/sinton/sjsu1f/mlbcalmindexk.csv' for reading: No such file or directory tail: cannot open '/home/sinton/sjsu1f/mlbavgwindindexk.csv' for reading: No such file or directory tail: cannot open '/home/sinton/sjsu1f/mlbcalmindexk.csv' for reading: No such file or directory tail: cannot open '/home/sinton/sjsu1f/mlbavgwindindexk.csv' for reading: No such file or directory tail: cannot open '/home/sinton/sjsu1f/mlbcalmindexk.csv' for reading: No such file or directory tail: cannot open '/home/sinton/sjsu1f/mlbavgwindindexk.csv' for reading: No such file or directory % Total % Received % Xferd Average Speed Time Time Time Current Dload Upload Total Spent Left Speed 0 0 0 0 0 0 0 0 --:--:-- --:--:-- --:--:-- 0 100 432 100 432 0 0 1636 0 --:--:-- --:--:-- --:--:-- 1636 % Total % Received % Xferd Average Speed Time Time Time Current Dload Upload Total Spent Left Speed 0 0 0 0 0 0 0 0 --:--:-- --:--:-- --:--:-- 0 100 431 100 431 0 0 2854 0 --:--:-- --:--:-- --:--:-- 2854 % Total % Received % Xferd Average Speed Time Time Time Current Dload Upload Total Spent Left Speed 0 0 0 0 0 0 0 0 --:--:-- --:--:-- --:--:-- 0 100 428 100 428 0 0 5558 0 --:--:-- --:--:-- --:--:-- 5558 % Total % Received % Xferd Average Speed Time Time Time Current Dload Upload Total Spent Left Speed 0 0 0 0 0 0 0 0 --:--:-- --:--:-- --:--:-- 0 100 426 100 426 0 0 3042 0 --:--:-- --:--:-- --:--:-- 3042 % Total % Received % Xferd Average Speed Time Time Time Current Dload Upload Total Spent Left Speed 0 0 0 0 0 0 0 0 --:--:-- --:--:-- --:--:-- 0 100 425 100 425 0 0 3899 0 --:--:-- --:--:-- --:--:-- 3899 tail: cannot open '/home/sinton/sjsu1f/mlbcalmindexk.csv' for reading: No such file or directory tail: cannot open '/home/sinton/sjsu1f/mlbavgwindindexk.csv' for reading: No such file or directory tail: cannot open '/home/sinton/sjsu1f/mlbcalmindexk.csv' for reading: No such file or directory tail: cannot open '/home/sinton/sjsu1f/mlbavgwindindexk.csv' for reading: No such file or directory tail: cannot open '/home/sinton/sjsu1f/mlbcalmindexk.csv' for reading: No such file or directory tail: cannot open '/home/sinton/sjsu1f/mlbavgwindindexk.csv' for reading: No such file or directory tail: cannot open '/home/sinton/sjsu1f/mlbcalmindexk.csv' for reading: No such file or directory tail: cannot open '/home/sinton/sjsu1f/mlbavgwindindexk.csv' for reading: No such file or directory tail: cannot open '/home/sinton/sjsu1f/mlbcalmindexk.csv' for reading: No such file or directory tail: cannot open '/home/sinton/sjsu1f/mlbavgwindindexk.csv' for reading: No such file or directory tail: cannot open '/home/sinton/sjsu1f/mlbcalmindexk.csv' for reading: No such file or directory tail: cannot open '/home/sinton/sjsu1f/mlbavgwindindexk.csv' for reading: No such file or directory tail: cannot open '/home/sinton/sjsu1f/mlbcalmindexk.csv' for reading: No such file or directory tail: cannot open '/home/sinton/sjsu1f/mlbavgwindindexk.csv' for reading: No such file or directory tail: cannot open '/home/sinton/sjsu1f/mlbcalmindexk.csv' for reading: No such file or directory tail: cannot open '/home/sinton/sjsu1f/mlbavgwindindexk.csv' for reading: No such file or directory tail: cannot open '/home/sinton/sjsu1f/mlbcalmindexk.csv' for reading: No such file or directory tail: cannot open '/home/sinton/sjsu1f/mlbavgwindindexk.csv' for reading: No such file or directory tail: cannot open '/home/sinton/sjsu1f/mlbcalmindexk.csv' for reading: No such file or directory tail: cannot open '/home/sinton/sjsu1f/mlbavgwindindexk.csv' for reading: No such file or directory tail: cannot open '/home/sinton/sjsu1f/mlbcalmindexk.csv' for reading: No such file or directory tail: cannot open '/home/sinton/sjsu1f/mlbavgwindindexk.csv' for reading: No such file or directory tail: cannot open '/home/sinton/sjsu1f/mlbcalmindexk.csv' for reading: No such file or directory tail: cannot open '/home/sinton/sjsu1f/mlbavgwindindexk.csv' for reading: No such file or directory tail: cannot open '/home/sinton/sjsu1f/mlbcalmindexk.csv' for reading: No such file or directory tail: cannot open '/home/sinton/sjsu1f/mlbavgwindindexk.csv' for reading: No such file or directory % Total % Received % Xferd Average Speed Time Time Time Current Dload Upload Total Spent Left Speed 0 0 0 0 0 0 0 0 --:--:-- --:--:-- --:--:-- 0 100 430 100 430 0 0 3307 0 --:--:-- --:--:-- --:--:-- 3307 % Total % Received % Xferd Average Speed Time Time Time Current Dload Upload Total Spent Left Speed 0 0 0 0 0 0 0 0 --:--:-- --:--:-- --:--:-- 0 100 427 100 427 0 0 5693 0 --:--:-- --:--:-- --:--:-- 5693 % Total % Received % Xferd Average Speed Time Time Time Current Dload Upload Total Spent Left Speed 0 0 0 0 0 0 0 0 --:--:-- --:--:-- --:--:-- 0 100 428 100 428 0 0 10439 0 --:--:-- --:--:-- --:--:-- 10700 % Total % Received % Xferd Average Speed Time Time Time Current Dload Upload Total Spent Left Speed 0 0 0 0 0 0 0 0 --:--:-- --:--:-- --:--:-- 0 100 429 100 429 0 0 10214 0 --:--:-- --:--:-- --:--:-- 10214 % Total % Received % Xferd Average Speed Time Time Time Current Dload Upload Total Spent Left Speed 0 0 0 0 0 0 0 0 --:--:-- --:--:-- --:--:-- 0 100 428 100 428 0 0 2252 0 --:--:-- --:--:-- --:--:-- 2252 cat: /home/sinton/1f/weather1.txt: No such file or directory cat: /home/sinton/1f/weather2.txt: No such file or directory cat: /home/sinton/1f/weather3.txt: No such file or directory cat: /home/sinton/1f/weather4.txt: No such file or directory tail: cannot open '/home/sinton/sjsu1f/mlbcalmindexk.csv' for reading: No such file or directory tail: cannot open '/home/sinton/sjsu1f/mlbavgwindindexk.csv' for reading: No such file or directory tail: cannot open '/home/sinton/sjsu1f/mlbcalmindexk.csv' for reading: No such file or directory tail: cannot open '/home/sinton/sjsu1f/mlbavgwindindexk.csv' for reading: No such file or directory tail: cannot open '/home/sinton/sjsu1f/mlbcalmindexk.csv' for reading: No such file or directory tail: cannot open '/home/sinton/sjsu1f/mlbavgwindindexk.csv' for reading: No such file or directory tail: cannot open '/home/sinton/sjsu1f/mlbcalmindexk.csv' for reading: No such file or directory tail: cannot open '/home/sinton/sjsu1f/mlbavgwindindexk.csv' for reading: No such file or directory tail: cannot open '/home/sinton/sjsu1f/mlbcalmindexk.csv' for reading: No such file or directory tail: cannot open '/home/sinton/sjsu1f/mlbavgwindindexk.csv' for reading: No such file or directory tail: cannot open '/home/sinton/sjsu1f/mlbcalmindexk.csv' for reading: No such file or directory tail: cannot open '/home/sinton/sjsu1f/mlbavgwindindexk.csv' for reading: No such file or directory tail: cannot open '/home/sinton/sjsu1f/mlbcalmindexk.csv' for reading: No such file or directory tail: cannot open '/home/sinton/sjsu1f/mlbavgwindindexk.csv' for reading: No such file or directory tail: cannot open '/home/sinton/sjsu1f/mlbcalmindexk.csv' for reading: No such file or directory tail: cannot open '/home/sinton/sjsu1f/mlbavgwindindexk.csv' for reading: No such file or directory tail: cannot open '/home/sinton/sjsu1f/mlbcalmindexk.csv' for reading: No such file or directory tail: cannot open '/home/sinton/sjsu1f/mlbavgwindindexk.csv' for reading: No such file or directory tail: cannot open '/home/sinton/sjsu1f/mlbcalmindexk.csv' for reading: No such file or directory tail: cannot open '/home/sinton/sjsu1f/mlbavgwindindexk.csv' for reading: No such file or directory tail: cannot open '/home/sinton/sjsu1f/mlbcalmindexk.csv' for reading: No such file or directory tail: cannot open '/home/sinton/sjsu1f/mlbavgwindindexk.csv' for reading: No such file or directory tail: cannot open '/home/sinton/sjsu1f/mlbcalmindexk.csv' for reading: No such file or directory tail: cannot open '/home/sinton/sjsu1f/mlbavgwindindexk.csv' for reading: No such file or directory tail: cannot open '/home/sinton/sjsu1f/mlbcalmindexk.csv' for reading: No such file or directory tail: cannot open '/home/sinton/sjsu1f/mlbavgwindindexk.csv' for reading: No such file or directory tail: cannot open '/home/sinton/sjsu1f/mlbcalmindexk.csv' for reading: No such file or directory tail: cannot open '/home/sinton/sjsu1f/mlbavgwindindexk.csv' for reading: No such file or directory % Total % Received % Xferd Average Speed Time Time Time Current Dload Upload Total Spent Left Speed 0 0 0 0 0 0 0 0 --:--:-- --:--:-- --:--:-- 0 100 431 100 431 0 0 2304 0 --:--:-- --:--:-- --:--:-- 2292 100 431 100 431 0 0 2304 0 --:--:-- --:--:-- --:--:-- 2292 % Total % Received % Xferd Average Speed Time Time Time Current Dload Upload Total Spent Left Speed 0 0 0 0 0 0 0 0 --:--:-- --:--:-- --:--:-- 0 100 428 100 428 0 0 4367 0 --:--:-- --:--:-- --:--:-- 4367 % Total % Received % Xferd Average Speed Time Time Time Current Dload Upload Total Spent Left Speed 0 0 0 0 0 0 0 0 --:--:-- --:--:-- --:--:-- 0 100 426 100 426 0 0 2748 0 --:--:-- --:--:-- --:--:-- 2748 % Total % Received % Xferd Average Speed Time Time Time Current Dload Upload Total Spent Left Speed 0 0 0 0 0 0 0 0 --:--:-- --:--:-- --:--:-- 0 100 427 100 427 0 0 1923 0 --:--:-- --:--:-- --:--:-- 1923 % Total % Received % Xferd Average Speed Time Time Time Current Dload Upload Total Spent Left Speed 0 0 0 0 0 0 0 0 --:--:-- --:--:-- --:--:-- 0 100 426 100 426 0 0 2218 0 --:--:-- --:--:-- --:--:-- 2218 tail: cannot open '/home/sinton/sjsu1f/mlbcalmindexk.csv' for reading: No such file or directory tail: cannot open '/home/sinton/sjsu1f/mlbavgwindindexk.csv' for reading: No such file or directory tail: cannot open '/home/sinton/sjsu1f/mlbcalmindexk.csv' for reading: No such file or directory tail: cannot open '/home/sinton/sjsu1f/mlbavgwindindexk.csv' for reading: No such file or directory tail: cannot open '/home/sinton/sjsu1f/mlbcalmindexk.csv' for reading: No such file or directory tail: cannot open '/home/sinton/sjsu1f/mlbavgwindindexk.csv' for reading: No such file or directory tail: cannot open '/home/sinton/sjsu1f/mlbcalmindexk.csv' for reading: No such file or directory tail: cannot open '/home/sinton/sjsu1f/mlbavgwindindexk.csv' for reading: No such file or directory tail: cannot open '/home/sinton/sjsu1f/mlbcalmindexk.csv' for reading: No such file or directory tail: cannot open '/home/sinton/sjsu1f/mlbavgwindindexk.csv' for reading: No such file or directory tail: cannot open '/home/sinton/sjsu1f/mlbcalmindexk.csv' for reading: No such file or directory tail: cannot open '/home/sinton/sjsu1f/mlbavgwindindexk.csv' for reading: No such file or directory tail: cannot open '/home/sinton/sjsu1f/mlbcalmindexk.csv' for reading: No such file or directory tail: cannot open '/home/sinton/sjsu1f/mlbavgwindindexk.csv' for reading: No such file or directory tail: cannot open '/home/sinton/sjsu1f/mlbcalmindexk.csv' for reading: No such file or directory tail: cannot open '/home/sinton/sjsu1f/mlbavgwindindexk.csv' for reading: No such file or directory tail: cannot open '/home/sinton/sjsu1f/mlbcalmindexk.csv' for reading: No such file or directory tail: cannot open '/home/sinton/sjsu1f/mlbavgwindindexk.csv' for reading: No such file or directory tail: cannot open '/home/sinton/sjsu1f/mlbcalmindexk.csv' for reading: No such file or directory tail: cannot open '/home/sinton/sjsu1f/mlbavgwindindexk.csv' for reading: No such file or directory tail: cannot open '/home/sinton/sjsu1f/mlbcalmindexk.csv' for reading: No such file or directory tail: cannot open '/home/sinton/sjsu1f/mlbavgwindindexk.csv' for reading: No such file or directory % Total % Received % Xferd Average Speed Time Time Time Current Dload Upload Total Spent Left Speed 0 0 0 0 0 0 0 0 --:--:-- --:--:-- --:--:-- 0 100 431 100 431 0 0 4144 0 --:--:-- --:--:-- --:--:-- 4144 % Total % Received % Xferd Average Speed Time Time Time Current Dload Upload Total Spent Left Speed 0 0 0 0 0 0 0 0 --:--:-- --:--:-- --:--:-- 0 100 428 100 428 0 0 4000 0 --:--:-- --:--:-- --:--:-- 4000 % Total % Received % Xferd Average Speed Time Time Time Current Dload Upload Total Spent Left Speed 0 0 0 0 0 0 0 0 --:--:-- --:--:-- --:--:-- 0 100 426 100 426 0 0 6761 0 --:--:-- --:--:-- --:--:-- 6656 100 426 100 426 0 0 6761 0 --:--:-- --:--:-- --:--:-- 6656 % Total % Received % Xferd Average Speed Time Time Time Current Dload Upload Total Spent Left Speed 0 0 0 0 0 0 0 0 --:--:-- --:--:-- --:--:-- 0 100 427 100 427 0 0 3443 0 --:--:-- --:--:-- --:--:-- 3443 % Total % Received % Xferd Average Speed Time Time Time Current Dload Upload Total Spent Left Speed 0 0 0 0 0 0 0 0 --:--:-- --:--:-- --:--:-- 0 100 426 100 426 0 0 7473 0 --:--:-- --:--:-- --:--:-- 7473 tail: cannot open '/home/sinton/sjsu1f/mlbcalmindexk.csv' for reading: No such file or directory tail: cannot open '/home/sinton/sjsu1f/mlbavgwindindexk.csv' for reading: No such file or directory tail: cannot open '/home/sinton/sjsu1f/mlbcalmindexk.csv' for reading: No such file or directory tail: cannot open '/home/sinton/sjsu1f/mlbavgwindindexk.csv' for reading: No such file or directory tail: cannot open '/home/sinton/sjsu1f/mlbcalmindexk.csv' for reading: No such file or directory tail: cannot open '/home/sinton/sjsu1f/mlbavgwindindexk.csv' for reading: No such file or directory tail: cannot open '/home/sinton/sjsu1f/mlbcalmindexk.csv' for reading: No such file or directory tail: cannot open '/home/sinton/sjsu1f/mlbavgwindindexk.csv' for reading: No such file or directory tail: cannot open '/home/sinton/sjsu1f/mlbcalmindexk.csv' for reading: No such file or directory tail: cannot open '/home/sinton/sjsu1f/mlbavgwindindexk.csv' for reading: No such file or directory tail: cannot open '/home/sinton/sjsu1f/mlbcalmindexk.csv' for reading: No such file or directory tail: cannot open '/home/sinton/sjsu1f/mlbavgwindindexk.csv' for reading: No such file or directory tail: cannot open '/home/sinton/sjsu1f/mlbcalmindexk.csv' for reading: No such file or directory tail: cannot open '/home/sinton/sjsu1f/mlbavgwindindexk.csv' for reading: No such file or directory tail: cannot open '/home/sinton/sjsu1f/mlbcalmindexk.csv' for reading: No such file or directory tail: cannot open '/home/sinton/sjsu1f/mlbavgwindindexk.csv' for reading: No such file or directory tail: cannot open '/home/sinton/sjsu1f/mlbcalmindexk.csv' for reading: No such file or directory tail: cannot open '/home/sinton/sjsu1f/mlbavgwindindexk.csv' for reading: No such file or directory tail: cannot open '/home/sinton/sjsu1f/mlbcalmindexk.csv' for reading: No such file or directory tail: cannot open '/home/sinton/sjsu1f/mlbavgwindindexk.csv' for reading: No such file or directory mv: cannot stat '/home/sinton/public_html/John1f/oakstuck': No such file or directory tail: cannot open '/home/sinton/sjsu1f/mlbcalmindexk.csv' for reading: No such file or directory tail: cannot open '/home/sinton/sjsu1f/mlbavgwindindexk.csv' for reading: No such file or directory tail: cannot open '/home/sinton/sjsu1f/mlbcalmindexk.csv' for reading: No such file or directory tail: cannot open '/home/sinton/sjsu1f/mlbavgwindindexk.csv' for reading: No such file or directory tail: cannot open '/home/sinton/sjsu1f/mlbcalmindexk.csv' for reading: No such file or directory tail: cannot open '/home/sinton/sjsu1f/mlbavgwindindexk.csv' for reading: No such file or directory tail: cannot open '/home/sinton/sjsu1f/mlbcalmindexk.csv' for reading: No such file or directory tail: cannot open '/home/sinton/sjsu1f/mlbavgwindindexk.csv' for reading: No such file or directory tail: cannot open '/home/sinton/sjsu1f/mlbcalmindexk.csv' for reading: No such file or directory tail: cannot open '/home/sinton/sjsu1f/mlbavgwindindexk.csv' for reading: No such file or directory tail: cannot open '/home/sinton/sjsu1f/mlbcalmindexk.csv' for reading: No such file or directory tail: cannot open '/home/sinton/sjsu1f/mlbavgwindindexk.csv' for reading: No such file or directory % Total % Received % Xferd Average Speed Time Time Time Current Dload Upload Total Spent Left Speed 0 0 0 0 0 0 0 0 --:--:-- --:--:-- --:--:-- 0 100 432 100 432 0 0 3428 0 --:--:-- --:--:-- --:--:-- 3401 100 432 100 432 0 0 3428 0 --:--:-- --:--:-- --:--:-- 3401 % Total % Received % Xferd Average Speed Time Time Time Current Dload Upload Total Spent Left Speed 0 0 0 0 0 0 0 0 --:--:-- --:--:-- --:--:-- 0 100 426 100 426 0 0 5392 0 --:--:-- --:--:-- --:--:-- 5392 % Total % Received % Xferd Average Speed Time Time Time Current Dload Upload Total Spent Left Speed 0 0 0 0 0 0 0 0 --:--:-- --:--:-- --:--:-- 0 100 429 100 429 0 0 2451 0 --:--:-- --:--:-- --:--:-- 2451 % Total % Received % Xferd Average Speed Time Time Time Current Dload Upload Total Spent Left Speed 0 0 0 0 0 0 0 0 --:--:-- --:--:-- --:--:-- 0 100 429 100 429 0 0 1153 0 --:--:-- --:--:-- --:--:-- 1153 % Total % Received % Xferd Average Speed Time Time Time Current Dload Upload Total Spent Left Speed 0 0 0 0 0 0 0 0 --:--:-- --:--:-- --:--:-- 0 100 428 100 428 0 0 5156 0 --:--:-- --:--:-- --:--:-- 5156 tail: cannot open '/home/sinton/sjsu1f/mlbcalmindexk.csv' for reading: No such file or directory tail: cannot open '/home/sinton/sjsu1f/mlbavgwindindexk.csv' for reading: No such file or directory tail: cannot open '/home/sinton/sjsu1f/mlbcalmindexk.csv' for reading: No such file or directory tail: cannot open '/home/sinton/sjsu1f/mlbavgwindindexk.csv' for reading: No such file or directory tail: cannot open '/home/sinton/sjsu1f/mlbcalmindexk.csv' for reading: No such file or directory tail: cannot open '/home/sinton/sjsu1f/mlbavgwindindexk.csv' for reading: No such file or directory tail: cannot open '/home/sinton/sjsu1f/mlbcalmindexk.csv' for reading: No such file or directory tail: cannot open '/home/sinton/sjsu1f/mlbavgwindindexk.csv' for reading: No such file or directory tail: cannot open '/home/sinton/sjsu1f/mlbcalmindexk.csv' for reading: No such file or directory tail: cannot open '/home/sinton/sjsu1f/mlbavgwindindexk.csv' for reading: No such file or directory tail: cannot open '/home/sinton/sjsu1f/mlbcalmindexk.csv' for reading: No such file or directory tail: cannot open '/home/sinton/sjsu1f/mlbavgwindindexk.csv' for reading: No such file or directory tail: cannot open '/home/sinton/sjsu1f/mlbcalmindexk.csv' for reading: No such file or directory tail: cannot open '/home/sinton/sjsu1f/mlbavgwindindexk.csv' for reading: No such file or directory tail: cannot open '/home/sinton/sjsu1f/mlbcalmindexk.csv' for reading: No such file or directory tail: cannot open '/home/sinton/sjsu1f/mlbavgwindindexk.csv' for reading: No such file or directory tail: cannot open '/home/sinton/sjsu1f/mlbcalmindexk.csv' for reading: No such file or directory tail: cannot open '/home/sinton/sjsu1f/mlbavgwindindexk.csv' for reading: No such file or directory tail: cannot open '/home/sinton/sjsu1f/mlbcalmindexk.csv' for reading: No such file or directory tail: cannot open '/home/sinton/sjsu1f/mlbavgwindindexk.csv' for reading: No such file or directory tail: cannot open '/home/sinton/sjsu1f/mlbcalmindexk.csv' for reading: No such file or directory tail: cannot open '/home/sinton/sjsu1f/mlbavgwindindexk.csv' for reading: No such file or directory tail: cannot open '/home/sinton/sjsu1f/mlbcalmindexk.csv' for reading: No such file or directory tail: cannot open '/home/sinton/sjsu1f/mlbavgwindindexk.csv' for reading: No such file or directory tail: cannot open '/home/sinton/sjsu1f/mlbcalmindexk.csv' for reading: No such file or directory tail: cannot open '/home/sinton/sjsu1f/mlbavgwindindexk.csv' for reading: No such file or directory % Total % Received % Xferd Average Speed Time Time Time Current Dload Upload Total Spent Left Speed 0 0 0 0 0 0 0 0 --:--:-- --:--:-- --:--:-- 0 100 432 100 432 0 0 4320 0 --:--:-- --:--:-- --:--:-- 4320 % Total % Received % Xferd Average Speed Time Time Time Current Dload Upload Total Spent Left Speed 0 0 0 0 0 0 0 0 --:--:-- --:--:-- --:--:-- 0 100 429 100 429 0 0 2370 0 --:--:-- --:--:-- --:--:-- 2370 % Total % Received % Xferd Average Speed Time Time Time Current Dload Upload Total Spent Left Speed 0 0 0 0 0 0 0 0 --:--:-- --:--:-- --:--:-- 0 100 429 100 429 0 0 8094 0 --:--:-- --:--:-- --:--:-- 8094 % Total % Received % Xferd Average Speed Time Time Time Current Dload Upload Total Spent Left Speed 0 0 0 0 0 0 0 0 --:--:-- --:--:-- --:--:-- 0 100 426 100 426 0 0 3064 0 --:--:-- --:--:-- --:--:-- 3042 100 426 100 426 0 0 3064 0 --:--:-- --:--:-- --:--:-- 3042 % Total % Received % Xferd Average Speed Time Time Time Current Dload Upload Total Spent Left Speed 0 0 0 0 0 0 0 0 --:--:-- --:--:-- --:--:-- 0 100 425 100 425 0 0 9659 0 --:--:-- --:--:-- --:--:-- 9659 tail: cannot open '/home/sinton/sjsu1f/mlbcalmindexk.csv' for reading: No such file or directory tail: cannot open '/home/sinton/sjsu1f/mlbavgwindindexk.csv' for reading: No such file or directory tail: cannot open '/home/sinton/sjsu1f/mlbcalmindexk.csv' for reading: No such file or directory tail: cannot open '/home/sinton/sjsu1f/mlbavgwindindexk.csv' for reading: No such file or directory tail: cannot open '/home/sinton/sjsu1f/mlbcalmindexk.csv' for reading: No such file or directory tail: cannot open '/home/sinton/sjsu1f/mlbavgwindindexk.csv' for reading: No such file or directory tail: cannot open '/home/sinton/sjsu1f/mlbcalmindexk.csv' for reading: No such file or directory tail: cannot open '/home/sinton/sjsu1f/mlbavgwindindexk.csv' for reading: No such file or directory tail: cannot open '/home/sinton/sjsu1f/mlbcalmindexk.csv' for reading: No such file or directory tail: cannot open '/home/sinton/sjsu1f/mlbavgwindindexk.csv' for reading: No such file or directory tail: cannot open '/home/sinton/sjsu1f/mlbcalmindexk.csv' for reading: No such file or directory tail: cannot open '/home/sinton/sjsu1f/mlbavgwindindexk.csv' for reading: No such file or directory tail: cannot open '/home/sinton/sjsu1f/mlbcalmindexk.csv' for reading: No such file or directory tail: cannot open '/home/sinton/sjsu1f/mlbavgwindindexk.csv' for reading: No such file or directory tail: cannot open '/home/sinton/sjsu1f/mlbcalmindexk.csv' for reading: No such file or directory tail: cannot open '/home/sinton/sjsu1f/mlbavgwindindexk.csv' for reading: No such file or directory tail: cannot open '/home/sinton/sjsu1f/mlbcalmindexk.csv' for reading: No such file or directory tail: cannot open '/home/sinton/sjsu1f/mlbavgwindindexk.csv' for reading: No such file or directory tail: cannot open '/home/sinton/sjsu1f/mlbcalmindexk.csv' for reading: No such file or directory tail: cannot open '/home/sinton/sjsu1f/mlbavgwindindexk.csv' for reading: No such file or directory tail: cannot open '/home/sinton/sjsu1f/mlbcalmindexk.csv' for reading: No such file or directory tail: cannot open '/home/sinton/sjsu1f/mlbavgwindindexk.csv' for reading: No such file or directory tail: cannot open '/home/sinton/sjsu1f/mlbcalmindexk.csv' for reading: No such file or directory tail: cannot open '/home/sinton/sjsu1f/mlbavgwindindexk.csv' for reading: No such file or directory tail: cannot open '/home/sinton/sjsu1f/mlbcalmindexk.csv' for reading: No such file or directory tail: cannot open '/home/sinton/sjsu1f/mlbavgwindindexk.csv' for reading: No such file or directory tail: cannot open '/home/sinton/sjsu1f/mlbcalmindexk.csv' for reading: No such file or directory tail: cannot open '/home/sinton/sjsu1f/mlbavgwindindexk.csv' for reading: No such file or directory % Total % Received % Xferd Average Speed Time Time Time Current Dload Upload Total Spent Left Speed 0 0 0 0 0 0 0 0 --:--:-- --:--:-- --:--:-- 0 100 428 100 428 0 0 1798 0 --:--:-- --:--:-- --:--:-- 1798 % Total % Received % Xferd Average Speed Time Time Time Current Dload Upload Total Spent Left Speed 0 0 0 0 0 0 0 0 --:--:-- --:--:-- --:--:-- 0 100 425 100 425 0 0 6967 0 --:--:-- --:--:-- --:--:-- 6967 % Total % Received % Xferd Average Speed Time Time Time Current Dload Upload Total Spent Left Speed 0 0 0 0 0 0 0 0 --:--:-- --:--:-- --:--:-- 0 100 429 100 429 0 0 1794 0 --:--:-- --:--:-- --:--:-- 1794 % Total % Received % Xferd Average Speed Time Time Time Current Dload Upload Total Spent Left Speed 0 0 0 0 0 0 0 0 --:--:-- --:--:-- --:--:-- 0 100 429 100 429 0 0 3064 0 --:--:-- --:--:-- --:--:-- 3064 % Total % Received % Xferd Average Speed Time Time Time Current Dload Upload Total Spent Left Speed 0 0 0 0 0 0 0 0 --:--:-- --:--:-- --:--:-- 0 100 428 100 428 0 0 2288 0 --:--:-- --:--:-- --:--:-- 2288 100 428 100 428 0 0 2288 0 --:--:-- --:--:-- --:--:-- 2276 cat: /home/sinton/1f/weather1.txt: No such file or directory cat: /home/sinton/1f/weather2.txt: No such file or directory cat: /home/sinton/1f/weather3.txt: No such file or directory cat: /home/sinton/1f/weather4.txt: No such file or directory tail: cannot open '/home/sinton/sjsu1f/mlbcalmindexk.csv' for reading: No such file or directory tail: cannot open '/home/sinton/sjsu1f/mlbavgwindindexk.csv' for reading: No such file or directory tail: cannot open '/home/sinton/sjsu1f/mlbcalmindexk.csv' for reading: No such file or directory tail: cannot open '/home/sinton/sjsu1f/mlbavgwindindexk.csv' for reading: No such file or directory tail: cannot open '/home/sinton/sjsu1f/mlbcalmindexk.csv' for reading: No such file or directory tail: cannot open '/home/sinton/sjsu1f/mlbavgwindindexk.csv' for reading: No such file or directory tail: cannot open '/home/sinton/sjsu1f/mlbcalmindexk.csv' for reading: No such file or directory tail: cannot open '/home/sinton/sjsu1f/mlbavgwindindexk.csv' for reading: No such file or directory tail: cannot open '/home/sinton/sjsu1f/mlbcalmindexk.csv' for reading: No such file or directory tail: cannot open '/home/sinton/sjsu1f/mlbavgwindindexk.csv' for reading: No such file or directory tail: cannot open '/home/sinton/sjsu1f/mlbcalmindexk.csv' for reading: No such file or directory tail: cannot open '/home/sinton/sjsu1f/mlbavgwindindexk.csv' for reading: No such file or directory tail: cannot open '/home/sinton/sjsu1f/mlbcalmindexk.csv' for reading: No such file or directory tail: cannot open '/home/sinton/sjsu1f/mlbavgwindindexk.csv' for reading: No such file or directory tail: cannot open '/home/sinton/sjsu1f/mlbcalmindexk.csv' for reading: No such file or directory tail: cannot open '/home/sinton/sjsu1f/mlbavgwindindexk.csv' for reading: No such file or directory tail: cannot open '/home/sinton/sjsu1f/mlbcalmindexk.csv' for reading: No such file or directory tail: cannot open '/home/sinton/sjsu1f/mlbavgwindindexk.csv' for reading: No such file or directory tail: cannot open '/home/sinton/sjsu1f/mlbcalmindexk.csv' for reading: No such file or directory tail: cannot open '/home/sinton/sjsu1f/mlbavgwindindexk.csv' for reading: No such file or directory tail: cannot open '/home/sinton/sjsu1f/mlbcalmindexk.csv' for reading: No such file or directory tail: cannot open '/home/sinton/sjsu1f/mlbavgwindindexk.csv' for reading: No such file or directory tail: cannot open '/home/sinton/sjsu1f/mlbcalmindexk.csv' for reading: No such file or directory tail: cannot open '/home/sinton/sjsu1f/mlbavgwindindexk.csv' for reading: No such file or directory mv: cannot stat '/home/sinton/public_html/John1f/oakstuck': No such file or directory tail: cannot open '/home/sinton/sjsu1f/mlbcalmindexk.csv' for reading: No such file or directory tail: cannot open '/home/sinton/sjsu1f/mlbavgwindindexk.csv' for reading: No such file or directory % Total % Received % Xferd Average Speed Time Time Time Current Dload Upload Total Spent Left Speed 0 0 0 0 0 0 0 0 --:--:-- --:--:-- --:--:-- 0 100 428 100 428 0 0 1844 0 --:--:-- --:--:-- --:--:-- 1836 100 428 100 428 0 0 1844 0 --:--:-- --:--:-- --:--:-- 1836 % Total % Received % Xferd Average Speed Time Time Time Current Dload Upload Total Spent Left Speed 0 0 0 0 0 0 0 0 --:--:-- --:--:-- --:--:-- 0 100 431 100 431 0 0 2256 0 --:--:-- --:--:-- --:--:-- 2256 % Total % Received % Xferd Average Speed Time Time Time Current Dload Upload Total Spent Left Speed 0 0 0 0 0 0 0 0 --:--:-- --:--:-- --:--:-- 0 100 431 100 431 0 0 4684 0 --:--:-- --:--:-- --:--:-- 4736 % Total % Received % Xferd Average Speed Time Time Time Current Dload Upload Total Spent Left Speed 0 0 0 0 0 0 0 0 --:--:-- --:--:-- --:--:-- 0 100 426 100 426 0 0 5916 0 --:--:-- --:--:-- --:--:-- 5916 % Total % Received % Xferd Average Speed Time Time Time Current Dload Upload Total Spent Left Speed 0 0 0 0 0 0 0 0 --:--:-- --:--:-- --:--:-- 0 100 425 100 425 0 0 6538 0 --:--:-- --:--:-- --:--:-- 6538 cat: /home/sinton/1f/weather1.txt: No such file or directory cat: /home/sinton/1f/weather2.txt: No such file or directory cat: /home/sinton/1f/weather3.txt: No such file or directory cat: /home/sinton/1f/weather4.txt: No such file or directory tail: cannot open '/home/sinton/sjsu1f/mlbcalmindexk.csv' for reading: No such file or directory tail: cannot open '/home/sinton/sjsu1f/mlbavgwindindexk.csv' for reading: No such file or directory tail: cannot open '/home/sinton/sjsu1f/mlbcalmindexk.csv' for reading: No such file or directory tail: cannot open '/home/sinton/sjsu1f/mlbavgwindindexk.csv' for reading: No such file or directory tail: cannot open '/home/sinton/sjsu1f/mlbcalmindexk.csv' for reading: No such file or directory tail: cannot open '/home/sinton/sjsu1f/mlbavgwindindexk.csv' for reading: No such file or directory tail: cannot open '/home/sinton/sjsu1f/mlbcalmindexk.csv' for reading: No such file or directory tail: cannot open '/home/sinton/sjsu1f/mlbavgwindindexk.csv' for reading: No such file or directory tail: cannot open '/home/sinton/sjsu1f/mlbcalmindexk.csv' for reading: No such file or directory tail: cannot open '/home/sinton/sjsu1f/mlbavgwindindexk.csv' for reading: No such file or directory tail: cannot open '/home/sinton/sjsu1f/mlbcalmindexk.csv' for reading: No such file or directory tail: cannot open '/home/sinton/sjsu1f/mlbavgwindindexk.csv' for reading: No such file or directory tail: cannot open '/home/sinton/sjsu1f/mlbcalmindexk.csv' for reading: No such file or directory tail: cannot open '/home/sinton/sjsu1f/mlbavgwindindexk.csv' for reading: No such file or directory tail: cannot open '/home/sinton/sjsu1f/mlbcalmindexk.csv' for reading: No such file or directory tail: cannot open '/home/sinton/sjsu1f/mlbavgwindindexk.csv' for reading: No such file or directory tail: cannot open '/home/sinton/sjsu1f/mlbcalmindexk.csv' for reading: No such file or directory tail: cannot open '/home/sinton/sjsu1f/mlbavgwindindexk.csv' for reading: No such file or directory tail: cannot open '/home/sinton/sjsu1f/mlbcalmindexk.csv' for reading: No such file or directory tail: cannot open '/home/sinton/sjsu1f/mlbavgwindindexk.csv' for reading: No such file or directory tail: cannot open '/home/sinton/sjsu1f/mlbcalmindexk.csv' for reading: No such file or directory tail: cannot open '/home/sinton/sjsu1f/mlbavgwindindexk.csv' for reading: No such file or directory tail: cannot open '/home/sinton/sjsu1f/mlbcalmindexk.csv' for reading: No such file or directory tail: cannot open '/home/sinton/sjsu1f/mlbavgwindindexk.csv' for reading: No such file or directory tail: cannot open '/home/sinton/sjsu1f/mlbcalmindexk.csv' for reading: No such file or directory tail: cannot open '/home/sinton/sjsu1f/mlbavgwindindexk.csv' for reading: No such file or directory tail: cannot open '/home/sinton/sjsu1f/mlbcalmindexk.csv' for reading: No such file or directory tail: cannot open '/home/sinton/sjsu1f/mlbavgwindindexk.csv' for reading: No such file or directory % Total % Received % Xferd Average Speed Time Time Time Current Dload Upload Total Spent Left Speed 0 0 0 0 0 0 0 0 --:--:-- --:--:-- --:--:-- 0 100 427 100 427 0 0 3162 0 --:--:-- --:--:-- --:--:-- 3162 % Total % Received % Xferd Average Speed Time Time Time Current Dload Upload Total Spent Left Speed 0 0 0 0 0 0 0 0 --:--:-- --:--:-- --:--:-- 0 100 430 100 430 0 0 3524 0 --:--:-- --:--:-- --:--:-- 3524 % Total % Received % Xferd Average Speed Time Time Time Current Dload Upload Total Spent Left Speed 0 0 0 0 0 0 0 0 --:--:-- --:--:-- --:--:-- 0 100 429 100 429 0 0 9750 0 --:--:-- --:--:-- --:--:-- 9750 % Total % Received % Xferd Average Speed Time Time Time Current Dload Upload Total Spent Left Speed 0 0 0 0 0 0 0 0 --:--:-- --:--:-- --:--:-- 0 100 426 100 426 0 0 2315 0 --:--:-- --:--:-- --:--:-- 2315 % Total % Received % Xferd Average Speed Time Time Time Current Dload Upload Total Spent Left Speed 0 0 0 0 0 0 0 0 --:--:-- --:--:-- --:--:-- 0 100 425 100 425 0 0 2931 0 --:--:-- --:--:-- --:--:-- 2931 tail: cannot open '/home/sinton/sjsu1f/mlbcalmindexk.csv' for reading: No such file or directory tail: cannot open '/home/sinton/sjsu1f/mlbavgwindindexk.csv' for reading: No such file or directory tail: cannot open '/home/sinton/sjsu1f/mlbcalmindexk.csv' for reading: No such file or directory tail: cannot open '/home/sinton/sjsu1f/mlbavgwindindexk.csv' for reading: No such file or directory tail: cannot open '/home/sinton/sjsu1f/mlbcalmindexk.csv' for reading: No such file or directory tail: cannot open '/home/sinton/sjsu1f/mlbavgwindindexk.csv' for reading: No such file or directory tail: cannot open '/home/sinton/sjsu1f/mlbcalmindexk.csv' for reading: No such file or directory tail: cannot open '/home/sinton/sjsu1f/mlbavgwindindexk.csv' for reading: No such file or directory tail: cannot open '/home/sinton/sjsu1f/mlbcalmindexk.csv' for reading: No such file or directory tail: cannot open '/home/sinton/sjsu1f/mlbavgwindindexk.csv' for reading: No such file or directory tail: cannot open '/home/sinton/sjsu1f/mlbcalmindexk.csv' for reading: No such file or directory tail: cannot open '/home/sinton/sjsu1f/mlbavgwindindexk.csv' for reading: No such file or directory tail: cannot open '/home/sinton/sjsu1f/mlbcalmindexk.csv' for reading: No such file or directory tail: cannot open '/home/sinton/sjsu1f/mlbavgwindindexk.csv' for reading: No such file or directory tail: cannot open '/home/sinton/sjsu1f/mlbcalmindexk.csv' for reading: No such file or directory tail: cannot open '/home/sinton/sjsu1f/mlbavgwindindexk.csv' for reading: No such file or directory tail: cannot open '/home/sinton/sjsu1f/mlbcalmindexk.csv' for reading: No such file or directory tail: cannot open '/home/sinton/sjsu1f/mlbavgwindindexk.csv' for reading: No such file or directory tail: cannot open '/home/sinton/sjsu1f/mlbcalmindexk.csv' for reading: No such file or directory tail: cannot open '/home/sinton/sjsu1f/mlbavgwindindexk.csv' for reading: No such file or directory tail: cannot open '/home/sinton/sjsu1f/mlbcalmindexk.csv' for reading: No such file or directory tail: cannot open '/home/sinton/sjsu1f/mlbavgwindindexk.csv' for reading: No such file or directory % Total % Received % Xferd Average Speed Time Time Time Current Dload Upload Total Spent Left Speed 0 0 0 0 0 0 0 0 --:--:-- --:--:-- --:--:-- 0 100 427 100 427 0 0 4357 0 --:--:-- --:--:-- --:--:-- 4357 % Total % Received % Xferd Average Speed Time Time Time Current Dload Upload Total Spent Left Speed 0 0 0 0 0 0 0 0 --:--:-- --:--:-- --:--:-- 0 100 430 100 430 0 0 5058 0 --:--:-- --:--:-- --:--:-- 5058 % Total % Received % Xferd Average Speed Time Time Time Current Dload Upload Total Spent Left Speed 0 0 0 0 0 0 0 0 --:--:-- --:--:-- --:--:-- 0 100 429 100 429 0 0 3730 0 --:--:-- --:--:-- --:--:-- 3730 % Total % Received % Xferd Average Speed Time Time Time Current Dload Upload Total Spent Left Speed 0 0 0 0 0 0 0 0 --:--:-- --:--:-- --:--:-- 0 100 426 100 426 0 0 3435 0 --:--:-- --:--:-- --:--:-- 3408 100 426 100 426 0 0 3408 0 --:--:-- --:--:-- --:--:-- 3380 % Total % Received % Xferd Average Speed Time Time Time Current Dload Upload Total Spent Left Speed 0 0 0 0 0 0 0 0 --:--:-- --:--:-- --:--:-- 0 100 425 100 425 0 0 1793 0 --:--:-- --:--:-- --:--:-- 1793 tail: cannot open '/home/sinton/sjsu1f/mlbcalmindexk.csv' for reading: No such file or directory tail: cannot open '/home/sinton/sjsu1f/mlbavgwindindexk.csv' for reading: No such file or directory tail: cannot open '/home/sinton/sjsu1f/mlbcalmindexk.csv' for reading: No such file or directory tail: cannot open '/home/sinton/sjsu1f/mlbavgwindindexk.csv' for reading: No such file or directory tail: cannot open '/home/sinton/sjsu1f/mlbcalmindexk.csv' for reading: No such file or directory tail: cannot open '/home/sinton/sjsu1f/mlbavgwindindexk.csv' for reading: No such file or directory tail: cannot open '/home/sinton/sjsu1f/mlbcalmindexk.csv' for reading: No such file or directory tail: cannot open '/home/sinton/sjsu1f/mlbavgwindindexk.csv' for reading: No such file or directory tail: cannot open '/home/sinton/sjsu1f/mlbcalmindexk.csv' for reading: No such file or directory tail: cannot open '/home/sinton/sjsu1f/mlbavgwindindexk.csv' for reading: No such file or directory tail: cannot open '/home/sinton/sjsu1f/mlbcalmindexk.csv' for reading: No such file or directory tail: cannot open '/home/sinton/sjsu1f/mlbavgwindindexk.csv' for reading: No such file or directory tail: cannot open '/home/sinton/sjsu1f/mlbcalmindexk.csv' for reading: No such file or directory tail: cannot open '/home/sinton/sjsu1f/mlbavgwindindexk.csv' for reading: No such file or directory tail: cannot open '/home/sinton/sjsu1f/mlbcalmindexk.csv' for reading: No such file or directory tail: cannot open '/home/sinton/sjsu1f/mlbavgwindindexk.csv' for reading: No such file or directory tail: cannot open '/home/sinton/sjsu1f/mlbcalmindexk.csv' for reading: No such file or directory tail: cannot open '/home/sinton/sjsu1f/mlbavgwindindexk.csv' for reading: No such file or directory tail: cannot open '/home/sinton/sjsu1f/mlbcalmindexk.csv' for reading: No such file or directory tail: cannot open '/home/sinton/sjsu1f/mlbavgwindindexk.csv' for reading: No such file or directory tail: cannot open '/home/sinton/sjsu1f/mlbcalmindexk.csv' for reading: No such file or directory tail: cannot open '/home/sinton/sjsu1f/mlbavgwindindexk.csv' for reading: No such file or directory tail: cannot open '/home/sinton/sjsu1f/mlbcalmindexk.csv' for reading: No such file or directory tail: cannot open '/home/sinton/sjsu1f/mlbavgwindindexk.csv' for reading: No such file or directory tail: cannot open '/home/sinton/sjsu1f/mlbcalmindexk.csv' for reading: No such file or directory tail: cannot open '/home/sinton/sjsu1f/mlbavgwindindexk.csv' for reading: No such file or directory tail: cannot open '/home/sinton/sjsu1f/mlbcalmindexk.csv' for reading: No such file or directory tail: cannot open '/home/sinton/sjsu1f/mlbavgwindindexk.csv' for reading: No such file or directory tail: cannot open '/home/sinton/sjsu1f/mlbcalmindexk.csv' for reading: No such file or directory tail: cannot open '/home/sinton/sjsu1f/mlbavgwindindexk.csv' for reading: No such file or directory tail: cannot open '/home/sinton/sjsu1f/mlbcalmindexk.csv' for reading: No such file or directory tail: cannot open '/home/sinton/sjsu1f/mlbavgwindindexk.csv' for reading: No such file or directory % Total % Received % Xferd Average Speed Time Time Time Current Dload Upload Total Spent Left Speed 0 0 0 0 0 0 0 0 --:--:-- --:--:-- --:--:-- 0 100 426 100 426 0 0 3981 0 --:--:-- --:--:-- --:--:-- 3944 100 426 100 426 0 0 3981 0 --:--:-- --:--:-- --:--:-- 3944 % Total % Received % Xferd Average Speed Time Time Time Current Dload Upload Total Spent Left Speed 0 0 0 0 0 0 0 0 --:--:-- --:--:-- --:--:-- 0 100 430 100 430 0 0 5000 0 --:--:-- --:--:-- --:--:-- 5000 % Total % Received % Xferd Average Speed Time Time Time Current Dload Upload Total Spent Left Speed 0 0 0 0 0 0 0 0 --:--:-- --:--:-- --:--:-- 0 100 429 100 429 0 0 1284 0 --:--:-- --:--:-- --:--:-- 1284 % Total % Received % Xferd Average Speed Time Time Time Current Dload Upload Total Spent Left Speed 0 0 0 0 0 0 0 0 --:--:-- --:--:-- --:--:-- 0 100 427 100 427 0 0 1856 0 --:--:-- --:--:-- --:--:-- 1856 % Total % Received % Xferd Average Speed Time Time Time Current Dload Upload Total Spent Left Speed 0 0 0 0 0 0 0 0 --:--:-- --:--:-- --:--:-- 0 100 426 100 426 0 0 3944 0 --:--:-- --:--:-- --:--:-- 3944 tail: cannot open '/home/sinton/sjsu1f/mlbcalmindexk.csv' for reading: No such file or directory tail: cannot open '/home/sinton/sjsu1f/mlbavgwindindexk.csv' for reading: No such file or directory tail: cannot open '/home/sinton/sjsu1f/mlbcalmindexk.csv' for reading: No such file or directory tail: cannot open '/home/sinton/sjsu1f/mlbavgwindindexk.csv' for reading: No such file or directory tail: cannot open '/home/sinton/sjsu1f/mlbcalmindexk.csv' for reading: No such file or directory tail: cannot open '/home/sinton/sjsu1f/mlbavgwindindexk.csv' for reading: No such file or directory tail: cannot open '/home/sinton/sjsu1f/mlbcalmindexk.csv' for reading: No such file or directory tail: cannot open '/home/sinton/sjsu1f/mlbavgwindindexk.csv' for reading: No such file or directory tail: cannot open '/home/sinton/sjsu1f/mlbcalmindexk.csv' for reading: No such file or directory tail: cannot open '/home/sinton/sjsu1f/mlbavgwindindexk.csv' for reading: No such file or directory tail: cannot open '/home/sinton/sjsu1f/mlbcalmindexk.csv' for reading: No such file or directory tail: cannot open '/home/sinton/sjsu1f/mlbavgwindindexk.csv' for reading: No such file or directory tail: cannot open '/home/sinton/sjsu1f/mlbcalmindexk.csv' for reading: No such file or directory tail: cannot open '/home/sinton/sjsu1f/mlbavgwindindexk.csv' for reading: No such file or directory tail: cannot open '/home/sinton/sjsu1f/mlbcalmindexk.csv' for reading: No such file or directory tail: cannot open '/home/sinton/sjsu1f/mlbavgwindindexk.csv' for reading: No such file or directory tail: cannot open '/home/sinton/sjsu1f/mlbcalmindexk.csv' for reading: No such file or directory tail: cannot open '/home/sinton/sjsu1f/mlbavgwindindexk.csv' for reading: No such file or directory tail: cannot open '/home/sinton/sjsu1f/mlbcalmindexk.csv' for reading: No such file or directory tail: cannot open '/home/sinton/sjsu1f/mlbavgwindindexk.csv' for reading: No such file or directory tail: cannot open '/home/sinton/sjsu1f/mlbcalmindexk.csv' for reading: No such file or directory tail: cannot open '/home/sinton/sjsu1f/mlbavgwindindexk.csv' for reading: No such file or directory tail: cannot open '/home/sinton/sjsu1f/mlbcalmindexk.csv' for reading: No such file or directory tail: cannot open '/home/sinton/sjsu1f/mlbavgwindindexk.csv' for reading: No such file or directory tail: cannot open '/home/sinton/sjsu1f/mlbcalmindexk.csv' for reading: No such file or directory tail: cannot open '/home/sinton/sjsu1f/mlbavgwindindexk.csv' for reading: No such file or directory tail: cannot open '/home/sinton/sjsu1f/mlbcalmindexk.csv' for reading: No such file or directory tail: cannot open '/home/sinton/sjsu1f/mlbavgwindindexk.csv' for reading: No such file or directory % Total % Received % Xferd Average Speed Time Time Time Current Dload Upload Total Spent Left Speed 0 0 0 0 0 0 0 0 --:--:-- --:--:-- --:--:-- 0 100 426 100 426 0 0 2462 0 --:--:-- --:--:-- --:--:-- 2462 % Total % Received % Xferd Average Speed Time Time Time Current Dload Upload Total Spent Left Speed 0 0 0 0 0 0 0 0 --:--:-- --:--:-- --:--:-- 0 0 0 0 0 0 0 0 0 --:--:-- --:--:-- --:--:-- 0 100 429 100 429 0 0 2234 0 --:--:-- --:--:-- --:--:-- 2222 % Total % Received % Xferd Average Speed Time Time Time Current Dload Upload Total Spent Left Speed 0 0 0 0 0 0 0 0 --:--:-- --:--:-- --:--:-- 0 100 430 100 430 0 0 3071 0 --:--:-- --:--:-- --:--:-- 3071 % Total % Received % Xferd Average Speed Time Time Time Current Dload Upload Total Spent Left Speed 0 0 0 0 0 0 0 0 --:--:-- --:--:-- --:--:-- 0 100 427 100 427 0 0 3471 0 --:--:-- --:--:-- --:--:-- 3471 % Total % Received % Xferd Average Speed Time Time Time Current Dload Upload Total Spent Left Speed 0 0 0 0 0 0 0 0 --:--:-- --:--:-- --:--:-- 0 100 426 100 426 0 0 3981 0 --:--:-- --:--:-- --:--:-- 3981 tail: cannot open '/home/sinton/sjsu1f/mlbcalmindexk.csv' for reading: No such file or directory tail: cannot open '/home/sinton/sjsu1f/mlbavgwindindexk.csv' for reading: No such file or directory tail: cannot open '/home/sinton/sjsu1f/mlbcalmindexk.csv' for reading: No such file or directory tail: cannot open '/home/sinton/sjsu1f/mlbavgwindindexk.csv' for reading: No such file or directory tail: cannot open '/home/sinton/sjsu1f/mlbcalmindexk.csv' for reading: No such file or directory tail: cannot open '/home/sinton/sjsu1f/mlbavgwindindexk.csv' for reading: No such file or directory tail: cannot open '/home/sinton/sjsu1f/mlbcalmindexk.csv' for reading: No such file or directory tail: cannot open '/home/sinton/sjsu1f/mlbavgwindindexk.csv' for reading: No such file or directory tail: cannot open '/home/sinton/sjsu1f/mlbcalmindexk.csv' for reading: No such file or directory tail: cannot open '/home/sinton/sjsu1f/mlbavgwindindexk.csv' for reading: No such file or directory mv: cannot stat '/home/sinton/public_html/John1f/oakstuck': No such file or directory tail: cannot open '/home/sinton/sjsu1f/mlbcalmindexk.csv' for reading: No such file or directory tail: cannot open '/home/sinton/sjsu1f/mlbavgwindindexk.csv' for reading: No such file or directory tail: cannot open '/home/sinton/sjsu1f/mlbcalmindexk.csv' for reading: No such file or directory tail: cannot open '/home/sinton/sjsu1f/mlbavgwindindexk.csv' for reading: No such file or directory tail: cannot open '/home/sinton/sjsu1f/mlbcalmindexk.csv' for reading: No such file or directory tail: cannot open '/home/sinton/sjsu1f/mlbavgwindindexk.csv' for reading: No such file or directory tail: cannot open '/home/sinton/sjsu1f/mlbcalmindexk.csv' for reading: No such file or directory tail: cannot open '/home/sinton/sjsu1f/mlbavgwindindexk.csv' for reading: No such file or directory tail: cannot open '/home/sinton/sjsu1f/mlbcalmindexk.csv' for reading: No such file or directory tail: cannot open '/home/sinton/sjsu1f/mlbavgwindindexk.csv' for reading: No such file or directory tail: cannot open '/home/sinton/sjsu1f/mlbcalmindexk.csv' for reading: No such file or directory tail: cannot open '/home/sinton/sjsu1f/mlbavgwindindexk.csv' for reading: No such file or directory tail: cannot open '/home/sinton/sjsu1f/mlbcalmindexk.csv' for reading: No such file or directory tail: cannot open '/home/sinton/sjsu1f/mlbavgwindindexk.csv' for reading: No such file or directory % Total % Received % Xferd Average Speed Time Time Time Current Dload Upload Total Spent Left Speed 0 0 0 0 0 0 0 0 --:--:-- --:--:-- --:--:-- 0 100 431 100 431 0 0 1561 0 --:--:-- --:--:-- --:--:-- 1561 % Total % Received % Xferd Average Speed Time Time Time Current Dload Upload Total Spent Left Speed 0 0 0 0 0 0 0 0 --:--:-- --:--:-- --:--:-- 0 100 431 100 431 0 0 3290 0 --:--:-- --:--:-- --:--:-- 3265 100 431 100 431 0 0 3265 0 --:--:-- --:--:-- --:--:-- 3240 % Total % Received % Xferd Average Speed Time Time Time Current Dload Upload Total Spent Left Speed 0 0 0 0 0 0 0 0 --:--:-- --:--:-- --:--:-- 0 100 431 100 431 0 0 5130 0 --:--:-- --:--:-- --:--:-- 5130 % Total % Received % Xferd Average Speed Time Time Time Current Dload Upload Total Spent Left Speed 0 0 0 0 0 0 0 0 --:--:-- --:--:-- --:--:-- 0 100 431 100 431 0 0 3192 0 --:--:-- --:--:-- --:--:-- 3192 % Total % Received % Xferd Average Speed Time Time Time Current Dload Upload Total Spent Left Speed 0 0 0 0 0 0 0 0 --:--:-- --:--:-- --:--:-- 0 100 430 100 430 0 0 5443 0 --:--:-- --:--:-- --:--:-- 5443 tail: cannot open '/home/sinton/sjsu1f/mlbcalmindexk.csv' for reading: No such file or directory tail: cannot open '/home/sinton/sjsu1f/mlbavgwindindexk.csv' for reading: No such file or directory tail: cannot open '/home/sinton/sjsu1f/mlbcalmindexk.csv' for reading: No such file or directory tail: cannot open '/home/sinton/sjsu1f/mlbavgwindindexk.csv' for reading: No such file or directory tail: cannot open '/home/sinton/sjsu1f/mlbcalmindexk.csv' for reading: No such file or directory tail: cannot open '/home/sinton/sjsu1f/mlbavgwindindexk.csv' for reading: No such file or directory tail: cannot open '/home/sinton/sjsu1f/mlbcalmindexk.csv' for reading: No such file or directory tail: cannot open '/home/sinton/sjsu1f/mlbavgwindindexk.csv' for reading: No such file or directory tail: cannot open '/home/sinton/sjsu1f/mlbcalmindexk.csv' for reading: No such file or directory tail: cannot open '/home/sinton/sjsu1f/mlbavgwindindexk.csv' for reading: No such file or directory tail: cannot open '/home/sinton/sjsu1f/mlbcalmindexk.csv' for reading: No such file or directory tail: cannot open '/home/sinton/sjsu1f/mlbavgwindindexk.csv' for reading: No such file or directory tail: cannot open '/home/sinton/sjsu1f/mlbcalmindexk.csv' for reading: No such file or directory tail: cannot open '/home/sinton/sjsu1f/mlbavgwindindexk.csv' for reading: No such file or directory tail: cannot open '/home/sinton/sjsu1f/mlbcalmindexk.csv' for reading: No such file or directory tail: cannot open '/home/sinton/sjsu1f/mlbavgwindindexk.csv' for reading: No such file or directory tail: cannot open '/home/sinton/sjsu1f/mlbcalmindexk.csv' for reading: No such file or directory tail: cannot open '/home/sinton/sjsu1f/mlbavgwindindexk.csv' for reading: No such file or directory tail: cannot open '/home/sinton/sjsu1f/mlbcalmindexk.csv' for reading: No such file or directory tail: cannot open '/home/sinton/sjsu1f/mlbavgwindindexk.csv' for reading: No such file or directory tail: cannot open '/home/sinton/sjsu1f/mlbcalmindexk.csv' for reading: No such file or directory tail: cannot open '/home/sinton/sjsu1f/mlbavgwindindexk.csv' for reading: No such file or directory tail: cannot open '/home/sinton/sjsu1f/mlbcalmindexk.csv' for reading: No such file or directory tail: cannot open '/home/sinton/sjsu1f/mlbavgwindindexk.csv' for reading: No such file or directory tail: cannot open '/home/sinton/sjsu1f/mlbcalmindexk.csv' for reading: No such file or directory tail: cannot open '/home/sinton/sjsu1f/mlbavgwindindexk.csv' for reading: No such file or directory tail: cannot open '/home/sinton/sjsu1f/mlbcalmindexk.csv' for reading: No such file or directory tail: cannot open '/home/sinton/sjsu1f/mlbavgwindindexk.csv' for reading: No such file or directory % Total % Received % Xferd Average Speed Time Time Time Current Dload Upload Total Spent Left Speed 0 0 0 0 0 0 0 0 --:--:-- --:--:-- --:--:-- 0 100 430 100 430 0 0 4673 0 --:--:-- --:--:-- --:--:-- 4725 % Total % Received % Xferd Average Speed Time Time Time Current Dload Upload Total Spent Left Speed 0 0 0 0 0 0 0 0 --:--:-- --:--:-- --:--:-- 0 100 431 100 431 0 0 3100 0 --:--:-- --:--:-- --:--:-- 3078 100 431 100 431 0 0 3078 0 --:--:-- --:--:-- --:--:-- 3056 % Total % Received % Xferd Average Speed Time Time Time Current Dload Upload Total Spent Left Speed 0 0 0 0 0 0 0 0 --:--:-- --:--:-- --:--:-- 0 100 430 100 430 0 0 4831 0 --:--:-- --:--:-- --:--:-- 4831 % Total % Received % Xferd Average Speed Time Time Time Current Dload Upload Total Spent Left Speed 0 0 0 0 0 0 0 0 --:--:-- --:--:-- --:--:-- 0 100 431 100 431 0 0 6432 0 --:--:-- --:--:-- --:--:-- 6432 % Total % Received % Xferd Average Speed Time Time Time Current Dload Upload Total Spent Left Speed 0 0 0 0 0 0 0 0 --:--:-- --:--:-- --:--:-- 0 100 430 100 430 0 0 9148 0 --:--:-- --:--:-- --:--:-- 9148 tail: cannot open '/home/sinton/sjsu1f/mlbcalmindexk.csv' for reading: No such file or directory tail: cannot open '/home/sinton/sjsu1f/mlbavgwindindexk.csv' for reading: No such file or directory tail: cannot open '/home/sinton/sjsu1f/mlbcalmindexk.csv' for reading: No such file or directory tail: cannot open '/home/sinton/sjsu1f/mlbavgwindindexk.csv' for reading: No such file or directory tail: cannot open '/home/sinton/sjsu1f/mlbcalmindexk.csv' for reading: No such file or directory tail: cannot open '/home/sinton/sjsu1f/mlbavgwindindexk.csv' for reading: No such file or directory tail: cannot open '/home/sinton/sjsu1f/mlbcalmindexk.csv' for reading: No such file or directory tail: cannot open '/home/sinton/sjsu1f/mlbavgwindindexk.csv' for reading: No such file or directory tail: cannot open '/home/sinton/sjsu1f/mlbcalmindexk.csv' for reading: No such file or directory tail: cannot open '/home/sinton/sjsu1f/mlbavgwindindexk.csv' for reading: No such file or directory tail: cannot open '/home/sinton/sjsu1f/mlbcalmindexk.csv' for reading: No such file or directory tail: cannot open '/home/sinton/sjsu1f/mlbavgwindindexk.csv' for reading: No such file or directory tail: cannot open '/home/sinton/sjsu1f/mlbcalmindexk.csv' for reading: No such file or directory tail: cannot open '/home/sinton/sjsu1f/mlbavgwindindexk.csv' for reading: No such file or directory tail: cannot open '/home/sinton/sjsu1f/mlbcalmindexk.csv' for reading: No such file or directory tail: cannot open '/home/sinton/sjsu1f/mlbavgwindindexk.csv' for reading: No such file or directory tail: cannot open '/home/sinton/sjsu1f/mlbcalmindexk.csv' for reading: No such file or directory tail: cannot open '/home/sinton/sjsu1f/mlbavgwindindexk.csv' for reading: No such file or directory tail: cannot open '/home/sinton/sjsu1f/mlbcalmindexk.csv' for reading: No such file or directory tail: cannot open '/home/sinton/sjsu1f/mlbavgwindindexk.csv' for reading: No such file or directory tail: cannot open '/home/sinton/sjsu1f/mlbcalmindexk.csv' for reading: No such file or directory tail: cannot open '/home/sinton/sjsu1f/mlbavgwindindexk.csv' for reading: No such file or directory tail: cannot open '/home/sinton/sjsu1f/mlbcalmindexk.csv' for reading: No such file or directory tail: cannot open '/home/sinton/sjsu1f/mlbavgwindindexk.csv' for reading: No such file or directory tail: cannot open '/home/sinton/sjsu1f/mlbcalmindexk.csv' for reading: No such file or directory tail: cannot open '/home/sinton/sjsu1f/mlbavgwindindexk.csv' for reading: No such file or directory tail: cannot open '/home/sinton/sjsu1f/mlbcalmindexk.csv' for reading: No such file or directory tail: cannot open '/home/sinton/sjsu1f/mlbavgwindindexk.csv' for reading: No such file or directory % Total % Received % Xferd Average Speed Time Time Time Current Dload Upload Total Spent Left Speed 0 0 0 0 0 0 0 0 --:--:-- --:--:-- --:--:-- 0 100 431 100 431 0 0 1683 0 --:--:-- --:--:-- --:--:-- 1683 % Total % Received % Xferd Average Speed Time Time Time Current Dload Upload Total Spent Left Speed 0 0 0 0 0 0 0 0 --:--:-- --:--:-- --:--:-- 0 0 0 0 0 0 0 0 0 --:--:-- --:--:-- --:--:-- 0 100 431 100 431 0 0 1310 0 --:--:-- --:--:-- --:--:-- 1306 % Total % Received % Xferd Average Speed Time Time Time Current Dload Upload Total Spent Left Speed 0 0 0 0 0 0 0 0 --:--:-- --:--:-- --:--:-- 0 100 431 100 431 0 0 4536 0 --:--:-- --:--:-- --:--:-- 4585 % Total % Received % Xferd Average Speed Time Time Time Current Dload Upload Total Spent Left Speed 0 0 0 0 0 0 0 0 --:--:-- --:--:-- --:--:-- 0 100 431 100 431 0 0 2394 0 --:--:-- --:--:-- --:--:-- 2394 % Total % Received % Xferd Average Speed Time Time Time Current Dload Upload Total Spent Left Speed 0 0 0 0 0 0 0 0 --:--:-- --:--:-- --:--:-- 0 100 430 100 430 0 0 2171 0 --:--:-- --:--:-- --:--:-- 2171 tail: cannot open '/home/sinton/sjsu1f/mlbcalmindexk.csv' for reading: No such file or directory tail: cannot open '/home/sinton/sjsu1f/mlbavgwindindexk.csv' for reading: No such file or directory tail: cannot open '/home/sinton/sjsu1f/mlbcalmindexk.csv' for reading: No such file or directory tail: cannot open '/home/sinton/sjsu1f/mlbavgwindindexk.csv' for reading: No such file or directory tail: cannot open '/home/sinton/sjsu1f/mlbcalmindexk.csv' for reading: No such file or directory tail: cannot open '/home/sinton/sjsu1f/mlbavgwindindexk.csv' for reading: No such file or directory tail: cannot open '/home/sinton/sjsu1f/mlbcalmindexk.csv' for reading: No such file or directory tail: cannot open '/home/sinton/sjsu1f/mlbavgwindindexk.csv' for reading: No such file or directory tail: cannot open '/home/sinton/sjsu1f/mlbcalmindexk.csv' for reading: No such file or directory tail: cannot open '/home/sinton/sjsu1f/mlbavgwindindexk.csv' for reading: No such file or directory tail: cannot open '/home/sinton/sjsu1f/mlbcalmindexk.csv' for reading: No such file or directory tail: cannot open '/home/sinton/sjsu1f/mlbavgwindindexk.csv' for reading: No such file or directory tail: cannot open '/home/sinton/sjsu1f/mlbcalmindexk.csv' for reading: No such file or directory tail: cannot open '/home/sinton/sjsu1f/mlbavgwindindexk.csv' for reading: No such file or directory tail: cannot open '/home/sinton/sjsu1f/mlbcalmindexk.csv' for reading: No such file or directory tail: cannot open '/home/sinton/sjsu1f/mlbavgwindindexk.csv' for reading: No such file or directory tail: cannot open '/home/sinton/sjsu1f/mlbcalmindexk.csv' for reading: No such file or directory tail: cannot open '/home/sinton/sjsu1f/mlbavgwindindexk.csv' for reading: No such file or directory tail: cannot open '/home/sinton/sjsu1f/mlbcalmindexk.csv' for reading: No such file or directory tail: cannot open '/home/sinton/sjsu1f/mlbavgwindindexk.csv' for reading: No such file or directory tail: cannot open '/home/sinton/sjsu1f/mlbcalmindexk.csv' for reading: No such file or directory tail: cannot open '/home/sinton/sjsu1f/mlbavgwindindexk.csv' for reading: No such file or directory % Total % Received % Xferd Average Speed Time Time Time Current Dload Upload Total Spent Left Speed 0 0 0 0 0 0 0 0 --:--:-- --:--:-- --:--:-- 0 0 0 0 0 0 0 0 0 --:--:-- --:--:-- --:--:-- 0 100 431 100 431 0 0 1849 0 --:--:-- --:--:-- --:--:-- 1841 % Total % Received % Xferd Average Speed Time Time Time Current Dload Upload Total Spent Left Speed 0 0 0 0 0 0 0 0 --:--:-- --:--:-- --:--:-- 0 100 431 100 431 0 0 3448 0 --:--:-- --:--:-- --:--:-- 3448 % Total % Received % Xferd Average Speed Time Time Time Current Dload Upload Total Spent Left Speed 0 0 0 0 0 0 0 0 --:--:-- --:--:-- --:--:-- 0 100 431 100 431 0 0 10775 0 --:--:-- --:--:-- --:--:-- 10775 % Total % Received % Xferd Average Speed Time Time Time Current Dload Upload Total Spent Left Speed 0 0 0 0 0 0 0 0 --:--:-- --:--:-- --:--:-- 0 100 431 100 431 0 0 6951 0 --:--:-- --:--:-- --:--:-- 6951 % Total % Received % Xferd Average Speed Time Time Time Current Dload Upload Total Spent Left Speed 0 0 0 0 0 0 0 0 --:--:-- --:--:-- --:--:-- 0 100 430 100 430 0 0 4673 0 --:--:-- --:--:-- --:--:-- 4673 tail: cannot open '/home/sinton/sjsu1f/mlbcalmindexk.csv' for reading: No such file or directory tail: cannot open '/home/sinton/sjsu1f/mlbavgwindindexk.csv' for reading: No such file or directory tail: cannot open '/home/sinton/sjsu1f/mlbcalmindexk.csv' for reading: No such file or directory tail: cannot open '/home/sinton/sjsu1f/mlbavgwindindexk.csv' for reading: No such file or directory tail: cannot open '/home/sinton/sjsu1f/mlbcalmindexk.csv' for reading: No such file or directory tail: cannot open '/home/sinton/sjsu1f/mlbavgwindindexk.csv' for reading: No such file or directory tail: cannot open '/home/sinton/sjsu1f/mlbcalmindexk.csv' for reading: No such file or directory tail: cannot open '/home/sinton/sjsu1f/mlbavgwindindexk.csv' for reading: No such file or directory tail: cannot open '/home/sinton/sjsu1f/mlbcalmindexk.csv' for reading: No such file or directory tail: cannot open '/home/sinton/sjsu1f/mlbavgwindindexk.csv' for reading: No such file or directory tail: cannot open '/home/sinton/sjsu1f/mlbcalmindexk.csv' for reading: No such file or directory tail: cannot open '/home/sinton/sjsu1f/mlbavgwindindexk.csv' for reading: No such file or directory tail: cannot open '/home/sinton/sjsu1f/mlbcalmindexk.csv' for reading: No such file or directory tail: cannot open '/home/sinton/sjsu1f/mlbavgwindindexk.csv' for reading: No such file or directory tail: cannot open '/home/sinton/sjsu1f/mlbcalmindexk.csv' for reading: No such file or directory tail: cannot open '/home/sinton/sjsu1f/mlbavgwindindexk.csv' for reading: No such file or directory tail: cannot open '/home/sinton/sjsu1f/mlbcalmindexk.csv' for reading: No such file or directory tail: cannot open '/home/sinton/sjsu1f/mlbavgwindindexk.csv' for reading: No such file or directory tail: cannot open '/home/sinton/sjsu1f/mlbcalmindexk.csv' for reading: No such file or directory tail: cannot open '/home/sinton/sjsu1f/mlbavgwindindexk.csv' for reading: No such file or directory mv: cannot stat '/home/sinton/public_html/John1f/oakstuck': No such file or directory tail: cannot open '/home/sinton/sjsu1f/mlbcalmindexk.csv' for reading: No such file or directory tail: cannot open '/home/sinton/sjsu1f/mlbavgwindindexk.csv' for reading: No such file or directory tail: cannot open '/home/sinton/sjsu1f/mlbcalmindexk.csv' for reading: No such file or directory tail: cannot open '/home/sinton/sjsu1f/mlbavgwindindexk.csv' for reading: No such file or directory tail: cannot open '/home/sinton/sjsu1f/mlbcalmindexk.csv' for reading: No such file or directory tail: cannot open '/home/sinton/sjsu1f/mlbavgwindindexk.csv' for reading: No such file or directory tail: cannot open '/home/sinton/sjsu1f/mlbcalmindexk.csv' for reading: No such file or directory tail: cannot open '/home/sinton/sjsu1f/mlbavgwindindexk.csv' for reading: No such file or directory tail: cannot open '/home/sinton/sjsu1f/mlbcalmindexk.csv' for reading: No such file or directory tail: cannot open '/home/sinton/sjsu1f/mlbavgwindindexk.csv' for reading: No such file or directory % Total % Received % Xferd Average Speed Time Time Time Current Dload Upload Total Spent Left Speed 0 0 0 0 0 0 0 0 --:--:-- --:--:-- --:--:-- 0 100 431 100 431 0 0 1626 0 --:--:-- --:--:-- --:--:-- 1626 % Total % Received % Xferd Average Speed Time Time Time Current Dload Upload Total Spent Left Speed 0 0 0 0 0 0 0 0 --:--:-- --:--:-- --:--:-- 0 100 430 100 430 0 0 3873 0 --:--:-- --:--:-- --:--:-- 3873 % Total % Received % Xferd Average Speed Time Time Time Current Dload Upload Total Spent Left Speed 0 0 0 0 0 0 0 0 --:--:-- --:--:-- --:--:-- 0 100 430 100 430 0 0 4215 0 --:--:-- --:--:-- --:--:-- 4215 % Total % Received % Xferd Average Speed Time Time Time Current Dload Upload Total Spent Left Speed 0 0 0 0 0 0 0 0 --:--:-- --:--:-- --:--:-- 0 100 430 100 430 0 0 10238 0 --:--:-- --:--:-- --:--:-- 10238 % Total % Received % Xferd Average Speed Time Time Time Current Dload Upload Total Spent Left Speed 0 0 0 0 0 0 0 0 --:--:-- --:--:-- --:--:-- 0 100 429 100 429 0 0 5876 0 --:--:-- --:--:-- --:--:-- 5876 tail: cannot open '/home/sinton/sjsu1f/mlbcalmindexk.csv' for reading: No such file or directory tail: cannot open '/home/sinton/sjsu1f/mlbavgwindindexk.csv' for reading: No such file or directory tail: cannot open '/home/sinton/sjsu1f/mlbcalmindexk.csv' for reading: No such file or directory tail: cannot open '/home/sinton/sjsu1f/mlbavgwindindexk.csv' for reading: No such file or directory tail: cannot open '/home/sinton/sjsu1f/mlbcalmindexk.csv' for reading: No such file or directory tail: cannot open '/home/sinton/sjsu1f/mlbavgwindindexk.csv' for reading: No such file or directory tail: cannot open '/home/sinton/sjsu1f/mlbcalmindexk.csv' for reading: No such file or directory tail: cannot open '/home/sinton/sjsu1f/mlbavgwindindexk.csv' for reading: No such file or directory tail: cannot open '/home/sinton/sjsu1f/mlbcalmindexk.csv' for reading: No such file or directory tail: cannot open '/home/sinton/sjsu1f/mlbavgwindindexk.csv' for reading: No such file or directory tail: cannot open '/home/sinton/sjsu1f/mlbcalmindexk.csv' for reading: No such file or directory tail: cannot open '/home/sinton/sjsu1f/mlbavgwindindexk.csv' for reading: No such file or directory tail: cannot open '/home/sinton/sjsu1f/mlbcalmindexk.csv' for reading: No such file or directory tail: cannot open '/home/sinton/sjsu1f/mlbavgwindindexk.csv' for reading: No such file or directory tail: cannot open '/home/sinton/sjsu1f/mlbcalmindexk.csv' for reading: No such file or directory tail: cannot open '/home/sinton/sjsu1f/mlbavgwindindexk.csv' for reading: No such file or directory tail: cannot open '/home/sinton/sjsu1f/mlbcalmindexk.csv' for reading: No such file or directory tail: cannot open '/home/sinton/sjsu1f/mlbavgwindindexk.csv' for reading: No such file or directory tail: cannot open '/home/sinton/sjsu1f/mlbcalmindexk.csv' for reading: No such file or directory tail: cannot open '/home/sinton/sjsu1f/mlbavgwindindexk.csv' for reading: No such file or directory tail: cannot open '/home/sinton/sjsu1f/mlbcalmindexk.csv' for reading: No such file or directory tail: cannot open '/home/sinton/sjsu1f/mlbavgwindindexk.csv' for reading: No such file or directory tail: cannot open '/home/sinton/sjsu1f/mlbcalmindexk.csv' for reading: No such file or directory tail: cannot open '/home/sinton/sjsu1f/mlbavgwindindexk.csv' for reading: No such file or directory tail: cannot open '/home/sinton/sjsu1f/mlbcalmindexk.csv' for reading: No such file or directory tail: cannot open '/home/sinton/sjsu1f/mlbavgwindindexk.csv' for reading: No such file or directory tail: cannot open '/home/sinton/sjsu1f/mlbcalmindexk.csv' for reading: No such file or directory tail: cannot open '/home/sinton/sjsu1f/mlbavgwindindexk.csv' for reading: No such file or directory % Total % Received % Xferd Average Speed Time Time Time Current Dload Upload Total Spent Left Speed 0 0 0 0 0 0 0 0 --:--:-- --:--:-- --:--:-- 0 100 430 100 430 0 0 2171 0 --:--:-- --:--:-- --:--:-- 2171 100 430 100 430 0 0 2171 0 --:--:-- --:--:-- --:--:-- 2160 % Total % Received % Xferd Average Speed Time Time Time Current Dload Upload Total Spent Left Speed 0 0 0 0 0 0 0 0 --:--:-- --:--:-- --:--:-- 0 100 430 100 430 0 0 1634 0 --:--:-- --:--:-- --:--:-- 1634 % Total % Received % Xferd Average Speed Time Time Time Current Dload Upload Total Spent Left Speed 0 0 0 0 0 0 0 0 --:--:-- --:--:-- --:--:-- 0 100 430 100 430 0 0 3873 0 --:--:-- --:--:-- --:--:-- 3873 % Total % Received % Xferd Average Speed Time Time Time Current Dload Upload Total Spent Left Speed 0 0 0 0 0 0 0 0 --:--:-- --:--:-- --:--:-- 0 100 431 100 431 0 0 1363 0 --:--:-- --:--:-- --:--:-- 1363 % Total % Received % Xferd Average Speed Time Time Time Current Dload Upload Total Spent Left Speed 0 0 0 0 0 0 0 0 --:--:-- --:--:-- --:--:-- 0 100 430 100 430 0 0 2375 0 --:--:-- --:--:-- --:--:-- 2388 tail: cannot open '/home/sinton/sjsu1f/mlbcalmindexk.csv' for reading: No such file or directory tail: cannot open '/home/sinton/sjsu1f/mlbavgwindindexk.csv' for reading: No such file or directory tail: cannot open '/home/sinton/sjsu1f/mlbcalmindexk.csv' for reading: No such file or directory tail: cannot open '/home/sinton/sjsu1f/mlbavgwindindexk.csv' for reading: No such file or directory tail: cannot open '/home/sinton/sjsu1f/mlbcalmindexk.csv' for reading: No such file or directory tail: cannot open '/home/sinton/sjsu1f/mlbavgwindindexk.csv' for reading: No such file or directory tail: cannot open '/home/sinton/sjsu1f/mlbcalmindexk.csv' for reading: No such file or directory tail: cannot open '/home/sinton/sjsu1f/mlbavgwindindexk.csv' for reading: No such file or directory tail: cannot open '/home/sinton/sjsu1f/mlbcalmindexk.csv' for reading: No such file or directory tail: cannot open '/home/sinton/sjsu1f/mlbavgwindindexk.csv' for reading: No such file or directory tail: cannot open '/home/sinton/sjsu1f/mlbcalmindexk.csv' for reading: No such file or directory tail: cannot open '/home/sinton/sjsu1f/mlbavgwindindexk.csv' for reading: No such file or directory tail: cannot open '/home/sinton/sjsu1f/mlbcalmindexk.csv' for reading: No such file or directory tail: cannot open '/home/sinton/sjsu1f/mlbavgwindindexk.csv' for reading: No such file or directory tail: cannot open '/home/sinton/sjsu1f/mlbcalmindexk.csv' for reading: No such file or directory tail: cannot open '/home/sinton/sjsu1f/mlbavgwindindexk.csv' for reading: No such file or directory tail: cannot open '/home/sinton/sjsu1f/mlbcalmindexk.csv' for reading: No such file or directory tail: cannot open '/home/sinton/sjsu1f/mlbavgwindindexk.csv' for reading: No such file or directory tail: cannot open '/home/sinton/sjsu1f/mlbcalmindexk.csv' for reading: No such file or directory tail: cannot open '/home/sinton/sjsu1f/mlbavgwindindexk.csv' for reading: No such file or directory tail: cannot open '/home/sinton/sjsu1f/mlbcalmindexk.csv' for reading: No such file or directory tail: cannot open '/home/sinton/sjsu1f/mlbavgwindindexk.csv' for reading: No such file or directory tail: cannot open '/home/sinton/sjsu1f/mlbcalmindexk.csv' for reading: No such file or directory tail: cannot open '/home/sinton/sjsu1f/mlbavgwindindexk.csv' for reading: No such file or directory tail: cannot open '/home/sinton/sjsu1f/mlbcalmindexk.csv' for reading: No such file or directory tail: cannot open '/home/sinton/sjsu1f/mlbavgwindindexk.csv' for reading: No such file or directory tail: cannot open '/home/sinton/sjsu1f/mlbcalmindexk.csv' for reading: No such file or directory tail: cannot open '/home/sinton/sjsu1f/mlbavgwindindexk.csv' for reading: No such file or directory % Total % Received % Xferd Average Speed Time Time Time Current Dload Upload Total Spent Left Speed 0 0 0 0 0 0 0 0 --:--:-- --:--:-- --:--:-- 0 100 430 100 430 0 0 4300 0 --:--:-- --:--:-- --:--:-- 4300 % Total % Received % Xferd Average Speed Time Time Time Current Dload Upload Total Spent Left Speed 0 0 0 0 0 0 0 0 --:--:-- --:--:-- --:--:-- 0 100 430 100 430 0 0 3115 0 --:--:-- --:--:-- --:--:-- 3115 % Total % Received % Xferd Average Speed Time Time Time Current Dload Upload Total Spent Left Speed 0 0 0 0 0 0 0 0 --:--:-- --:--:-- --:--:-- 0 100 430 100 430 0 0 9148 0 --:--:-- --:--:-- --:--:-- 9148 % Total % Received % Xferd Average Speed Time Time Time Current Dload Upload Total Spent Left Speed 0 0 0 0 0 0 0 0 --:--:-- --:--:-- --:--:-- 0 100 429 100 429 0 0 3698 0 --:--:-- --:--:-- --:--:-- 3698 % Total % Received % Xferd Average Speed Time Time Time Current Dload Upload Total Spent Left Speed 0 0 0 0 0 0 0 0 --:--:-- --:--:-- --:--:-- 0 100 428 100 428 0 0 9953 0 --:--:-- --:--:-- --:--:-- 9953 tail: cannot open '/home/sinton/sjsu1f/mlbcalmindexk.csv' for reading: No such file or directory tail: cannot open '/home/sinton/sjsu1f/mlbavgwindindexk.csv' for reading: No such file or directory tail: cannot open '/home/sinton/sjsu1f/mlbcalmindexk.csv' for reading: No such file or directory tail: cannot open '/home/sinton/sjsu1f/mlbavgwindindexk.csv' for reading: No such file or directory tail: cannot open '/home/sinton/sjsu1f/mlbcalmindexk.csv' for reading: No such file or directory tail: cannot open '/home/sinton/sjsu1f/mlbavgwindindexk.csv' for reading: No such file or directory tail: cannot open '/home/sinton/sjsu1f/mlbcalmindexk.csv' for reading: No such file or directory tail: cannot open '/home/sinton/sjsu1f/mlbavgwindindexk.csv' for reading: No such file or directory tail: cannot open '/home/sinton/sjsu1f/mlbcalmindexk.csv' for reading: No such file or directory tail: cannot open '/home/sinton/sjsu1f/mlbavgwindindexk.csv' for reading: No such file or directory tail: cannot open '/home/sinton/sjsu1f/mlbcalmindexk.csv' for reading: No such file or directory tail: cannot open '/home/sinton/sjsu1f/mlbavgwindindexk.csv' for reading: No such file or directory tail: cannot open '/home/sinton/sjsu1f/mlbcalmindexk.csv' for reading: No such file or directory tail: cannot open '/home/sinton/sjsu1f/mlbavgwindindexk.csv' for reading: No such file or directory tail: cannot open '/home/sinton/sjsu1f/mlbcalmindexk.csv' for reading: No such file or directory tail: cannot open '/home/sinton/sjsu1f/mlbavgwindindexk.csv' for reading: No such file or directory tail: cannot open '/home/sinton/sjsu1f/mlbcalmindexk.csv' for reading: No such file or directory tail: cannot open '/home/sinton/sjsu1f/mlbavgwindindexk.csv' for reading: No such file or directory tail: cannot open '/home/sinton/sjsu1f/mlbcalmindexk.csv' for reading: No such file or directory tail: cannot open '/home/sinton/sjsu1f/mlbavgwindindexk.csv' for reading: No such file or directory tail: cannot open '/home/sinton/sjsu1f/mlbcalmindexk.csv' for reading: No such file or directory tail: cannot open '/home/sinton/sjsu1f/mlbavgwindindexk.csv' for reading: No such file or directory tail: cannot open '/home/sinton/sjsu1f/mlbcalmindexk.csv' for reading: No such file or directory tail: cannot open '/home/sinton/sjsu1f/mlbavgwindindexk.csv' for reading: No such file or directory tail: cannot open '/home/sinton/sjsu1f/mlbcalmindexk.csv' for reading: No such file or directory tail: cannot open '/home/sinton/sjsu1f/mlbavgwindindexk.csv' for reading: No such file or directory tail: cannot open '/home/sinton/sjsu1f/mlbcalmindexk.csv' for reading: No such file or directory tail: cannot open '/home/sinton/sjsu1f/mlbavgwindindexk.csv' for reading: No such file or directory % Total % Received % Xferd Average Speed Time Time Time Current Dload Upload Total Spent Left Speed 0 0 0 0 0 0 0 0 --:--:-- --:--:-- --:--:-- 0 100 430 100 430 0 0 1799 0 --:--:-- --:--:-- --:--:-- 1799 % Total % Received % Xferd Average Speed Time Time Time Current Dload Upload Total Spent Left Speed 0 0 0 0 0 0 0 0 --:--:-- --:--:-- --:--:-- 0 100 430 100 430 0 0 5308 0 --:--:-- --:--:-- --:--:-- 5243 100 430 100 430 0 0 5308 0 --:--:-- --:--:-- --:--:-- 5243 % Total % Received % Xferd Average Speed Time Time Time Current Dload Upload Total Spent Left Speed 0 0 0 0 0 0 0 0 --:--:-- --:--:-- --:--:-- 0 100 431 100 431 0 0 3265 0 --:--:-- --:--:-- --:--:-- 3265 % Total % Received % Xferd Average Speed Time Time Time Current Dload Upload Total Spent Left Speed 0 0 0 0 0 0 0 0 --:--:-- --:--:-- --:--:-- 0 100 425 100 425 0 0 5448 0 --:--:-- --:--:-- --:--:-- 5448 % Total % Received % Xferd Average Speed Time Time Time Current Dload Upload Total Spent Left Speed 0 0 0 0 0 0 0 0 --:--:-- --:--:-- --:--:-- 0 100 424 100 424 0 0 5435 0 --:--:-- --:--:-- --:--:-- 5435 tail: cannot open '/home/sinton/sjsu1f/mlbcalmindexk.csv' for reading: No such file or directory tail: cannot open '/home/sinton/sjsu1f/mlbavgwindindexk.csv' for reading: No such file or directory tail: cannot open '/home/sinton/sjsu1f/mlbcalmindexk.csv' for reading: No such file or directory tail: cannot open '/home/sinton/sjsu1f/mlbavgwindindexk.csv' for reading: No such file or directory tail: cannot open '/home/sinton/sjsu1f/mlbcalmindexk.csv' for reading: No such file or directory tail: cannot open '/home/sinton/sjsu1f/mlbavgwindindexk.csv' for reading: No such file or directory tail: cannot open '/home/sinton/sjsu1f/mlbcalmindexk.csv' for reading: No such file or directory tail: cannot open '/home/sinton/sjsu1f/mlbavgwindindexk.csv' for reading: No such file or directory tail: cannot open '/home/sinton/sjsu1f/mlbcalmindexk.csv' for reading: No such file or directory tail: cannot open '/home/sinton/sjsu1f/mlbavgwindindexk.csv' for reading: No such file or directory tail: cannot open '/home/sinton/sjsu1f/mlbcalmindexk.csv' for reading: No such file or directory tail: cannot open '/home/sinton/sjsu1f/mlbavgwindindexk.csv' for reading: No such file or directory tail: cannot open '/home/sinton/sjsu1f/mlbcalmindexk.csv' for reading: No such file or directory tail: cannot open '/home/sinton/sjsu1f/mlbavgwindindexk.csv' for reading: No such file or directory tail: cannot open '/home/sinton/sjsu1f/mlbcalmindexk.csv' for reading: No such file or directory tail: cannot open '/home/sinton/sjsu1f/mlbavgwindindexk.csv' for reading: No such file or directory mv: cannot stat '/home/sinton/public_html/John1f/oakstuck': No such file or directory tail: cannot open '/home/sinton/sjsu1f/mlbcalmindexk.csv' for reading: No such file or directory tail: cannot open '/home/sinton/sjsu1f/mlbavgwindindexk.csv' for reading: No such file or directory tail: cannot open '/home/sinton/sjsu1f/mlbcalmindexk.csv' for reading: No such file or directory tail: cannot open '/home/sinton/sjsu1f/mlbavgwindindexk.csv' for reading: No such file or directory tail: cannot open '/home/sinton/sjsu1f/mlbcalmindexk.csv' for reading: No such file or directory tail: cannot open '/home/sinton/sjsu1f/mlbavgwindindexk.csv' for reading: No such file or directory tail: cannot open '/home/sinton/sjsu1f/mlbcalmindexk.csv' for reading: No such file or directory tail: cannot open '/home/sinton/sjsu1f/mlbavgwindindexk.csv' for reading: No such file or directory % Total % Received % Xferd Average Speed Time Time Time Current Dload Upload Total Spent Left Speed 0 0 0 0 0 0 0 0 --:--:-- --:--:-- --:--:-- 0 100 430 100 430 0 0 3185 0 --:--:-- --:--:-- --:--:-- 3185 % Total % Received % Xferd Average Speed Time Time Time Current Dload Upload Total Spent Left Speed 0 0 0 0 0 0 0 0 --:--:-- --:--:-- --:--:-- 0 100 430 100 430 0 0 10238 0 --:--:-- --:--:-- --:--:-- 10000 100 430 100 430 0 0 10238 0 --:--:-- --:--:-- --:--:-- 10000 % Total % Received % Xferd Average Speed Time Time Time Current Dload Upload Total Spent Left Speed 0 0 0 0 0 0 0 0 --:--:-- --:--:-- --:--:-- 0 100 431 100 431 0 0 3882 0 --:--:-- --:--:-- --:--:-- 3882 % Total % Received % Xferd Average Speed Time Time Time Current Dload Upload Total Spent Left Speed 0 0 0 0 0 0 0 0 --:--:-- --:--:-- --:--:-- 0 100 428 100 428 0 0 1775 0 --:--:-- --:--:-- --:--:-- 1775 % Total % Received % Xferd Average Speed Time Time Time Current Dload Upload Total Spent Left Speed 0 0 0 0 0 0 0 0 --:--:-- --:--:-- --:--:-- 0 100 427 100 427 0 0 4270 0 --:--:-- --:--:-- --:--:-- 4270 tail: cannot open '/home/sinton/sjsu1f/mlbcalmindexk.csv' for reading: No such file or directory tail: cannot open '/home/sinton/sjsu1f/mlbavgwindindexk.csv' for reading: No such file or directory tail: cannot open '/home/sinton/sjsu1f/mlbcalmindexk.csv' for reading: No such file or directory tail: cannot open '/home/sinton/sjsu1f/mlbavgwindindexk.csv' for reading: No such file or directory tail: cannot open '/home/sinton/sjsu1f/mlbcalmindexk.csv' for reading: No such file or directory tail: cannot open '/home/sinton/sjsu1f/mlbavgwindindexk.csv' for reading: No such file or directory tail: cannot open '/home/sinton/sjsu1f/mlbcalmindexk.csv' for reading: No such file or directory tail: cannot open '/home/sinton/sjsu1f/mlbavgwindindexk.csv' for reading: No such file or directory tail: cannot open '/home/sinton/sjsu1f/mlbcalmindexk.csv' for reading: No such file or directory tail: cannot open '/home/sinton/sjsu1f/mlbavgwindindexk.csv' for reading: No such file or directory tail: cannot open '/home/sinton/sjsu1f/mlbcalmindexk.csv' for reading: No such file or directory tail: cannot open '/home/sinton/sjsu1f/mlbavgwindindexk.csv' for reading: No such file or directory tail: cannot open '/home/sinton/sjsu1f/mlbcalmindexk.csv' for reading: No such file or directory tail: cannot open '/home/sinton/sjsu1f/mlbavgwindindexk.csv' for reading: No such file or directory tail: cannot open '/home/sinton/sjsu1f/mlbcalmindexk.csv' for reading: No such file or directory tail: cannot open '/home/sinton/sjsu1f/mlbavgwindindexk.csv' for reading: No such file or directory tail: cannot open '/home/sinton/sjsu1f/mlbcalmindexk.csv' for reading: No such file or directory tail: cannot open '/home/sinton/sjsu1f/mlbavgwindindexk.csv' for reading: No such file or directory tail: cannot open '/home/sinton/sjsu1f/mlbcalmindexk.csv' for reading: No such file or directory tail: cannot open '/home/sinton/sjsu1f/mlbavgwindindexk.csv' for reading: No such file or directory tail: cannot open '/home/sinton/sjsu1f/mlbcalmindexk.csv' for reading: No such file or directory tail: cannot open '/home/sinton/sjsu1f/mlbavgwindindexk.csv' for reading: No such file or directory % Total % Received % Xferd Average Speed Time Time Time Current Dload Upload Total Spent Left Speed 0 0 0 0 0 0 0 0 --:--:-- --:--:-- --:--:-- 0 100 430 100 430 0 0 1592 0 --:--:-- --:--:-- --:--:-- 1592 % Total % Received % Xferd Average Speed Time Time Time Current Dload Upload Total Spent Left Speed 0 0 0 0 0 0 0 0 --:--:-- --:--:-- --:--:-- 0 100 430 100 430 0 0 3613 0 --:--:-- --:--:-- --:--:-- 3583 100 430 100 430 0 0 3613 0 --:--:-- --:--:-- --:--:-- 3583 % Total % Received % Xferd Average Speed Time Time Time Current Dload Upload Total Spent Left Speed 0 0 0 0 0 0 0 0 --:--:-- --:--:-- --:--:-- 0 100 431 100 431 0 0 4066 0 --:--:-- --:--:-- --:--:-- 4104 % Total % Received % Xferd Average Speed Time Time Time Current Dload Upload Total Spent Left Speed 0 0 0 0 0 0 0 0 --:--:-- --:--:-- --:--:-- 0 100 428 100 428 0 0 10439 0 --:--:-- --:--:-- --:--:-- 10439 % Total % Received % Xferd Average Speed Time Time Time Current Dload Upload Total Spent Left Speed 0 0 0 0 0 0 0 0 --:--:-- --:--:-- --:--:-- 0 100 427 100 427 0 0 4494 0 --:--:-- --:--:-- --:--:-- 4494 tail: cannot open '/home/sinton/sjsu1f/mlbcalmindexk.csv' for reading: No such file or directory tail: cannot open '/home/sinton/sjsu1f/mlbavgwindindexk.csv' for reading: No such file or directory tail: cannot open '/home/sinton/sjsu1f/mlbcalmindexk.csv' for reading: No such file or directory tail: cannot open '/home/sinton/sjsu1f/mlbavgwindindexk.csv' for reading: No such file or directory tail: cannot open '/home/sinton/sjsu1f/mlbcalmindexk.csv' for reading: No such file or directory tail: cannot open '/home/sinton/sjsu1f/mlbavgwindindexk.csv' for reading: No such file or directory tail: cannot open '/home/sinton/sjsu1f/mlbcalmindexk.csv' for reading: No such file or directory tail: cannot open '/home/sinton/sjsu1f/mlbavgwindindexk.csv' for reading: No such file or directory tail: cannot open '/home/sinton/sjsu1f/mlbcalmindexk.csv' for reading: No such file or directory tail: cannot open '/home/sinton/sjsu1f/mlbavgwindindexk.csv' for reading: No such file or directory tail: cannot open '/home/sinton/sjsu1f/mlbcalmindexk.csv' for reading: No such file or directory tail: cannot open '/home/sinton/sjsu1f/mlbavgwindindexk.csv' for reading: No such file or directory tail: cannot open '/home/sinton/sjsu1f/mlbcalmindexk.csv' for reading: No such file or directory tail: cannot open '/home/sinton/sjsu1f/mlbavgwindindexk.csv' for reading: No such file or directory tail: cannot open '/home/sinton/sjsu1f/mlbcalmindexk.csv' for reading: No such file or directory tail: cannot open '/home/sinton/sjsu1f/mlbavgwindindexk.csv' for reading: No such file or directory tail: cannot open '/home/sinton/sjsu1f/mlbcalmindexk.csv' for reading: No such file or directory tail: cannot open '/home/sinton/sjsu1f/mlbavgwindindexk.csv' for reading: No such file or directory tail: cannot open '/home/sinton/sjsu1f/mlbcalmindexk.csv' for reading: No such file or directory tail: cannot open '/home/sinton/sjsu1f/mlbavgwindindexk.csv' for reading: No such file or directory tail: cannot open '/home/sinton/sjsu1f/mlbcalmindexk.csv' for reading: No such file or directory tail: cannot open '/home/sinton/sjsu1f/mlbavgwindindexk.csv' for reading: No such file or directory tail: cannot open '/home/sinton/sjsu1f/mlbcalmindexk.csv' for reading: No such file or directory tail: cannot open '/home/sinton/sjsu1f/mlbavgwindindexk.csv' for reading: No such file or directory tail: cannot open '/home/sinton/sjsu1f/mlbcalmindexk.csv' for reading: No such file or directory tail: cannot open '/home/sinton/sjsu1f/mlbavgwindindexk.csv' for reading: No such file or directory tail: cannot open '/home/sinton/sjsu1f/mlbcalmindexk.csv' for reading: No such file or directory tail: cannot open '/home/sinton/sjsu1f/mlbavgwindindexk.csv' for reading: No such file or directory tail: cannot open '/home/sinton/sjsu1f/mlbcalmindexk.csv' for reading: No such file or directory tail: cannot open '/home/sinton/sjsu1f/mlbavgwindindexk.csv' for reading: No such file or directory tail: cannot open '/home/sinton/sjsu1f/mlbcalmindexk.csv' for reading: No such file or directory tail: cannot open '/home/sinton/sjsu1f/mlbavgwindindexk.csv' for reading: No such file or directory tail: cannot open '/home/sinton/sjsu1f/mlbcalmindexk.csv' for reading: No such file or directory tail: cannot open '/home/sinton/sjsu1f/mlbavgwindindexk.csv' for reading: No such file or directory % Total % Received % Xferd Average Speed Time Time Time Current Dload Upload Total Spent Left Speed 0 0 0 0 0 0 0 0 --:--:-- --:--:-- --:--:-- 0 100 431 100 431 0 0 1788 0 --:--:-- --:--:-- --:--:-- 1788 % Total % Received % Xferd Average Speed Time Time Time Current Dload Upload Total Spent Left Speed 0 0 0 0 0 0 0 0 --:--:-- --:--:-- --:--:-- 0 100 430 100 430 0 0 3613 0 --:--:-- --:--:-- --:--:-- 3583 100 430 100 430 0 0 3613 0 --:--:-- --:--:-- --:--:-- 3583 % Total % Received % Xferd Average Speed Time Time Time Current Dload Upload Total Spent Left Speed 0 0 0 0 0 0 0 0 --:--:-- --:--:-- --:--:-- 0 100 430 100 430 0 0 3333 0 --:--:-- --:--:-- --:--:-- 3333 % Total % Received % Xferd Average Speed Time Time Time Current Dload Upload Total Spent Left Speed 0 0 0 0 0 0 0 0 --:--:-- --:--:-- --:--:-- 0 100 425 100 425 0 0 2591 0 --:--:-- --:--:-- --:--:-- 2591 % Total % Received % Xferd Average Speed Time Time Time Current Dload Upload Total Spent Left Speed 0 0 0 0 0 0 0 0 --:--:-- --:--:-- --:--:-- 0 100 424 100 424 0 0 4076 0 --:--:-- --:--:-- --:--:-- 4076 tail: cannot open '/home/sinton/sjsu1f/mlbcalmindexk.csv' for reading: No such file or directory tail: cannot open '/home/sinton/sjsu1f/mlbavgwindindexk.csv' for reading: No such file or directory tail: cannot open '/home/sinton/sjsu1f/mlbcalmindexk.csv' for reading: No such file or directory tail: cannot open '/home/sinton/sjsu1f/mlbavgwindindexk.csv' for reading: No such file or directory tail: cannot open '/home/sinton/sjsu1f/mlbcalmindexk.csv' for reading: No such file or directory tail: cannot open '/home/sinton/sjsu1f/mlbavgwindindexk.csv' for reading: No such file or directory tail: cannot open '/home/sinton/sjsu1f/mlbcalmindexk.csv' for reading: No such file or directory tail: cannot open '/home/sinton/sjsu1f/mlbavgwindindexk.csv' for reading: No such file or directory tail: cannot open '/home/sinton/sjsu1f/mlbcalmindexk.csv' for reading: No such file or directory tail: cannot open '/home/sinton/sjsu1f/mlbavgwindindexk.csv' for reading: No such file or directory tail: cannot open '/home/sinton/sjsu1f/mlbcalmindexk.csv' for reading: No such file or directory tail: cannot open '/home/sinton/sjsu1f/mlbavgwindindexk.csv' for reading: No such file or directory tail: cannot open '/home/sinton/sjsu1f/mlbcalmindexk.csv' for reading: No such file or directory tail: cannot open '/home/sinton/sjsu1f/mlbavgwindindexk.csv' for reading: No such file or directory tail: cannot open '/home/sinton/sjsu1f/mlbcalmindexk.csv' for reading: No such file or directory tail: cannot open '/home/sinton/sjsu1f/mlbavgwindindexk.csv' for reading: No such file or directory tail: cannot open '/home/sinton/sjsu1f/mlbcalmindexk.csv' for reading: No such file or directory tail: cannot open '/home/sinton/sjsu1f/mlbavgwindindexk.csv' for reading: No such file or directory tail: cannot open '/home/sinton/sjsu1f/mlbcalmindexk.csv' for reading: No such file or directory tail: cannot open '/home/sinton/sjsu1f/mlbavgwindindexk.csv' for reading: No such file or directory tail: cannot open '/home/sinton/sjsu1f/mlbcalmindexk.csv' for reading: No such file or directory tail: cannot open '/home/sinton/sjsu1f/mlbavgwindindexk.csv' for reading: No such file or directory tail: cannot open '/home/sinton/sjsu1f/mlbcalmindexk.csv' for reading: No such file or directory tail: cannot open '/home/sinton/sjsu1f/mlbavgwindindexk.csv' for reading: No such file or directory tail: cannot open '/home/sinton/sjsu1f/mlbcalmindexk.csv' for reading: No such file or directory tail: cannot open '/home/sinton/sjsu1f/mlbavgwindindexk.csv' for reading: No such file or directory tail: cannot open '/home/sinton/sjsu1f/mlbcalmindexk.csv' for reading: No such file or directory tail: cannot open '/home/sinton/sjsu1f/mlbavgwindindexk.csv' for reading: No such file or directory % Total % Received % Xferd Average Speed Time Time Time Current Dload Upload Total Spent Left Speed 0 0 0 0 0 0 0 0 --:--:-- --:--:-- --:--:-- 0 100 431 100 431 0 0 3078 0 --:--:-- --:--:-- --:--:-- 3078 % Total % Received % Xferd Average Speed Time Time Time Current Dload Upload Total Spent Left Speed 0 0 0 0 0 0 0 0 --:--:-- --:--:-- --:--:-- 0 100 431 100 431 0 0 10023 0 --:--:-- --:--:-- --:--:-- 10023 % Total % Received % Xferd Average Speed Time Time Time Current Dload Upload Total Spent Left Speed 0 0 0 0 0 0 0 0 --:--:-- --:--:-- --:--:-- 0 100 430 100 430 0 0 8113 0 --:--:-- --:--:-- --:--:-- 8113 % Total % Received % Xferd Average Speed Time Time Time Current Dload Upload Total Spent Left Speed 0 0 0 0 0 0 0 0 --:--:-- --:--:-- --:--:-- 0 100 427 100 427 0 0 5144 0 --:--:-- --:--:-- --:--:-- 5144 % Total % Received % Xferd Average Speed Time Time Time Current Dload Upload Total Spent Left Speed 0 0 0 0 0 0 0 0 --:--:-- --:--:-- --:--:-- 0 100 426 100 426 0 0 9063 0 --:--:-- --:--:-- --:--:-- 9063 tail: cannot open '/home/sinton/sjsu1f/mlbcalmindexk.csv' for reading: No such file or directory tail: cannot open '/home/sinton/sjsu1f/mlbavgwindindexk.csv' for reading: No such file or directory tail: cannot open '/home/sinton/sjsu1f/mlbcalmindexk.csv' for reading: No such file or directory tail: cannot open '/home/sinton/sjsu1f/mlbavgwindindexk.csv' for reading: No such file or directory tail: cannot open '/home/sinton/sjsu1f/mlbcalmindexk.csv' for reading: No such file or directory tail: cannot open '/home/sinton/sjsu1f/mlbavgwindindexk.csv' for reading: No such file or directory tail: cannot open '/home/sinton/sjsu1f/mlbcalmindexk.csv' for reading: No such file or directory tail: cannot open '/home/sinton/sjsu1f/mlbavgwindindexk.csv' for reading: No such file or directory tail: cannot open '/home/sinton/sjsu1f/mlbcalmindexk.csv' for reading: No such file or directory tail: cannot open '/home/sinton/sjsu1f/mlbavgwindindexk.csv' for reading: No such file or directory tail: cannot open '/home/sinton/sjsu1f/mlbcalmindexk.csv' for reading: No such file or directory tail: cannot open '/home/sinton/sjsu1f/mlbavgwindindexk.csv' for reading: No such file or directory tail: cannot open '/home/sinton/sjsu1f/mlbcalmindexk.csv' for reading: No such file or directory tail: cannot open '/home/sinton/sjsu1f/mlbavgwindindexk.csv' for reading: No such file or directory tail: cannot open '/home/sinton/sjsu1f/mlbcalmindexk.csv' for reading: No such file or directory tail: cannot open '/home/sinton/sjsu1f/mlbavgwindindexk.csv' for reading: No such file or directory tail: cannot open '/home/sinton/sjsu1f/mlbcalmindexk.csv' for reading: No such file or directory tail: cannot open '/home/sinton/sjsu1f/mlbavgwindindexk.csv' for reading: No such file or directory tail: cannot open '/home/sinton/sjsu1f/mlbcalmindexk.csv' for reading: No such file or directory tail: cannot open '/home/sinton/sjsu1f/mlbavgwindindexk.csv' for reading: No such file or directory tail: cannot open '/home/sinton/sjsu1f/mlbcalmindexk.csv' for reading: No such file or directory tail: cannot open '/home/sinton/sjsu1f/mlbavgwindindexk.csv' for reading: No such file or directory tail: cannot open '/home/sinton/sjsu1f/mlbcalmindexk.csv' for reading: No such file or directory tail: cannot open '/home/sinton/sjsu1f/mlbavgwindindexk.csv' for reading: No such file or directory tail: cannot open '/home/sinton/sjsu1f/mlbcalmindexk.csv' for reading: No such file or directory tail: cannot open '/home/sinton/sjsu1f/mlbavgwindindexk.csv' for reading: No such file or directory % Total % Received % Xferd Average Speed Time Time Time Current Dload Upload Total Spent Left Speed 0 0 0 0 0 0 0 0 --:--:-- --:--:-- --:--:-- 0 100 430 100 430 0 0 3873 0 --:--:-- --:--:-- --:--:-- 3909 % Total % Received % Xferd Average Speed Time Time Time Current Dload Upload Total Spent Left Speed 0 0 0 0 0 0 0 0 --:--:-- --:--:-- --:--:-- 0 100 428 100 428 0 0 6903 0 --:--:-- --:--:-- --:--:-- 6903 % Total % Received % Xferd Average Speed Time Time Time Current Dload Upload Total Spent Left Speed 0 0 0 0 0 0 0 0 --:--:-- --:--:-- --:--:-- 0 100 430 100 430 0 0 3049 0 --:--:-- --:--:-- --:--:-- 3049 % Total % Received % Xferd Average Speed Time Time Time Current Dload Upload Total Spent Left Speed 0 0 0 0 0 0 0 0 --:--:-- --:--:-- --:--:-- 0 100 431 100 431 0 0 3954 0 --:--:-- --:--:-- --:--:-- 3990 % Total % Received % Xferd Average Speed Time Time Time Current Dload Upload Total Spent Left Speed 0 0 0 0 0 0 0 0 --:--:-- --:--:-- --:--:-- 0 100 430 100 430 0 0 4300 0 --:--:-- --:--:-- --:--:-- 4300 tail: cannot open '/home/sinton/sjsu1f/mlbcalmindexk.csv' for reading: No such file or directory tail: cannot open '/home/sinton/sjsu1f/mlbavgwindindexk.csv' for reading: No such file or directory tail: cannot open '/home/sinton/sjsu1f/mlbcalmindexk.csv' for reading: No such file or directory tail: cannot open '/home/sinton/sjsu1f/mlbavgwindindexk.csv' for reading: No such file or directory tail: cannot open '/home/sinton/sjsu1f/mlbcalmindexk.csv' for reading: No such file or directory tail: cannot open '/home/sinton/sjsu1f/mlbavgwindindexk.csv' for reading: No such file or directory tail: cannot open '/home/sinton/sjsu1f/mlbcalmindexk.csv' for reading: No such file or directory tail: cannot open '/home/sinton/sjsu1f/mlbavgwindindexk.csv' for reading: No such file or directory tail: cannot open '/home/sinton/sjsu1f/mlbcalmindexk.csv' for reading: No such file or directory tail: cannot open '/home/sinton/sjsu1f/mlbavgwindindexk.csv' for reading: No such file or directory tail: cannot open '/home/sinton/sjsu1f/mlbcalmindexk.csv' for reading: No such file or directory tail: cannot open '/home/sinton/sjsu1f/mlbavgwindindexk.csv' for reading: No such file or directory tail: cannot open '/home/sinton/sjsu1f/mlbcalmindexk.csv' for reading: No such file or directory tail: cannot open '/home/sinton/sjsu1f/mlbavgwindindexk.csv' for reading: No such file or directory mv: cannot stat '/home/sinton/public_html/John1f/oakstuck': No such file or directory tail: cannot open '/home/sinton/sjsu1f/mlbcalmindexk.csv' for reading: No such file or directory tail: cannot open '/home/sinton/sjsu1f/mlbavgwindindexk.csv' for reading: No such file or directory tail: cannot open '/home/sinton/sjsu1f/mlbcalmindexk.csv' for reading: No such file or directory tail: cannot open '/home/sinton/sjsu1f/mlbavgwindindexk.csv' for reading: No such file or directory tail: cannot open '/home/sinton/sjsu1f/mlbcalmindexk.csv' for reading: No such file or directory tail: cannot open '/home/sinton/sjsu1f/mlbavgwindindexk.csv' for reading: No such file or directory tail: cannot open '/home/sinton/sjsu1f/mlbcalmindexk.csv' for reading: No such file or directory tail: cannot open '/home/sinton/sjsu1f/mlbavgwindindexk.csv' for reading: No such file or directory tail: cannot open '/home/sinton/sjsu1f/mlbcalmindexk.csv' for reading: No such file or directory tail: cannot open '/home/sinton/sjsu1f/mlbavgwindindexk.csv' for reading: No such file or directory tail: cannot open '/home/sinton/sjsu1f/mlbcalmindexk.csv' for reading: No such file or directory tail: cannot open '/home/sinton/sjsu1f/mlbavgwindindexk.csv' for reading: No such file or directory % Total % Received % Xferd Average Speed Time Time Time Current Dload Upload Total Spent Left Speed 0 0 0 0 0 0 0 0 --:--:-- --:--:-- --:--:-- 0 100 430 100 430 0 0 5243 0 --:--:-- --:--:-- --:--:-- 5243 % Total % Received % Xferd Average Speed Time Time Time Current Dload Upload Total Spent Left Speed 0 0 0 0 0 0 0 0 --:--:-- --:--:-- --:--:-- 0 100 430 100 430 0 0 1264 0 --:--:-- --:--:-- --:--:-- 1264 % Total % Received % Xferd Average Speed Time Time Time Current Dload Upload Total Spent Left Speed 0 0 0 0 0 0 0 0 --:--:-- --:--:-- --:--:-- 0 100 428 100 428 0 0 4703 0 --:--:-- --:--:-- --:--:-- 4703 % Total % Received % Xferd Average Speed Time Time Time Current Dload Upload Total Spent Left Speed 0 0 0 0 0 0 0 0 --:--:-- --:--:-- --:--:-- 0 100 430 100 430 0 0 6935 0 --:--:-- --:--:-- --:--:-- 6935 % Total % Received % Xferd Average Speed Time Time Time Current Dload Upload Total Spent Left Speed 0 0 0 0 0 0 0 0 --:--:-- --:--:-- --:--:-- 0 100 429 100 429 0 0 3377 0 --:--:-- --:--:-- --:--:-- 3377 tail: cannot open '/home/sinton/sjsu1f/mlbcalmindexk.csv' for reading: No such file or directory tail: cannot open '/home/sinton/sjsu1f/mlbavgwindindexk.csv' for reading: No such file or directory tail: cannot open '/home/sinton/sjsu1f/mlbcalmindexk.csv' for reading: No such file or directory tail: cannot open '/home/sinton/sjsu1f/mlbavgwindindexk.csv' for reading: No such file or directory tail: cannot open '/home/sinton/sjsu1f/mlbcalmindexk.csv' for reading: No such file or directory tail: cannot open '/home/sinton/sjsu1f/mlbavgwindindexk.csv' for reading: No such file or directory tail: cannot open '/home/sinton/sjsu1f/mlbcalmindexk.csv' for reading: No such file or directory tail: cannot open '/home/sinton/sjsu1f/mlbavgwindindexk.csv' for reading: No such file or directory tail: cannot open '/home/sinton/sjsu1f/mlbcalmindexk.csv' for reading: No such file or directory tail: cannot open '/home/sinton/sjsu1f/mlbavgwindindexk.csv' for reading: No such file or directory tail: cannot open '/home/sinton/sjsu1f/mlbcalmindexk.csv' for reading: No such file or directory tail: cannot open '/home/sinton/sjsu1f/mlbavgwindindexk.csv' for reading: No such file or directory tail: cannot open '/home/sinton/sjsu1f/mlbcalmindexk.csv' for reading: No such file or directory tail: cannot open '/home/sinton/sjsu1f/mlbavgwindindexk.csv' for reading: No such file or directory tail: cannot open '/home/sinton/sjsu1f/mlbcalmindexk.csv' for reading: No such file or directory tail: cannot open '/home/sinton/sjsu1f/mlbavgwindindexk.csv' for reading: No such file or directory tail: cannot open '/home/sinton/sjsu1f/mlbcalmindexk.csv' for reading: No such file or directory tail: cannot open '/home/sinton/sjsu1f/mlbavgwindindexk.csv' for reading: No such file or directory tail: cannot open '/home/sinton/sjsu1f/mlbcalmindexk.csv' for reading: No such file or directory tail: cannot open '/home/sinton/sjsu1f/mlbavgwindindexk.csv' for reading: No such file or directory tail: cannot open '/home/sinton/sjsu1f/mlbcalmindexk.csv' for reading: No such file or directory tail: cannot open '/home/sinton/sjsu1f/mlbavgwindindexk.csv' for reading: No such file or directory tail: cannot open '/home/sinton/sjsu1f/mlbcalmindexk.csv' for reading: No such file or directory tail: cannot open '/home/sinton/sjsu1f/mlbavgwindindexk.csv' for reading: No such file or directory tail: cannot open '/home/sinton/sjsu1f/mlbcalmindexk.csv' for reading: No such file or directory tail: cannot open '/home/sinton/sjsu1f/mlbavgwindindexk.csv' for reading: No such file or directory tail: cannot open '/home/sinton/sjsu1f/mlbcalmindexk.csv' for reading: No such file or directory tail: cannot open '/home/sinton/sjsu1f/mlbavgwindindexk.csv' for reading: No such file or directory % Total % Received % Xferd Average Speed Time Time Time Current Dload Upload Total Spent Left Speed 0 0 0 0 0 0 0 0 --:--:-- --:--:-- --:--:-- 0 100 430 100 430 0 0 4673 0 --:--:-- --:--:-- --:--:-- 4673 % Total % Received % Xferd Average Speed Time Time Time Current Dload Upload Total Spent Left Speed 0 0 0 0 0 0 0 0 --:--:-- --:--:-- --:--:-- 0 100 429 100 429 0 0 3154 0 --:--:-- --:--:-- --:--:-- 3154 % Total % Received % Xferd Average Speed Time Time Time Current Dload Upload Total Spent Left Speed 0 0 0 0 0 0 0 0 --:--:-- --:--:-- --:--:-- 0 100 430 100 430 0 0 1493 0 --:--:-- --:--:-- --:--:-- 1493 % Total % Received % Xferd Average Speed Time Time Time Current Dload Upload Total Spent Left Speed 0 0 0 0 0 0 0 0 --:--:-- --:--:-- --:--:-- 0 100 429 100 429 0 0 2860 0 --:--:-- --:--:-- --:--:-- 2860 % Total % Received % Xferd Average Speed Time Time Time Current Dload Upload Total Spent Left Speed 0 0 0 0 0 0 0 0 --:--:-- --:--:-- --:--:-- 0 0 0 0 0 0 0 0 0 --:--:-- --:--:-- --:--:-- 0 100 428 100 428 0 0 1844 0 --:--:-- --:--:-- --:--:-- 1836 tail: cannot open '/home/sinton/sjsu1f/mlbcalmindexk.csv' for reading: No such file or directory tail: cannot open '/home/sinton/sjsu1f/mlbavgwindindexk.csv' for reading: No such file or directory tail: cannot open '/home/sinton/sjsu1f/mlbcalmindexk.csv' for reading: No such file or directory tail: cannot open '/home/sinton/sjsu1f/mlbavgwindindexk.csv' for reading: No such file or directory tail: cannot open '/home/sinton/sjsu1f/mlbcalmindexk.csv' for reading: No such file or directory tail: cannot open '/home/sinton/sjsu1f/mlbavgwindindexk.csv' for reading: No such file or directory tail: cannot open '/home/sinton/sjsu1f/mlbcalmindexk.csv' for reading: No such file or directory tail: cannot open '/home/sinton/sjsu1f/mlbavgwindindexk.csv' for reading: No such file or directory tail: cannot open '/home/sinton/sjsu1f/mlbcalmindexk.csv' for reading: No such file or directory tail: cannot open '/home/sinton/sjsu1f/mlbavgwindindexk.csv' for reading: No such file or directory tail: cannot open '/home/sinton/sjsu1f/mlbcalmindexk.csv' for reading: No such file or directory tail: cannot open '/home/sinton/sjsu1f/mlbavgwindindexk.csv' for reading: No such file or directory tail: cannot open '/home/sinton/sjsu1f/mlbcalmindexk.csv' for reading: No such file or directory tail: cannot open '/home/sinton/sjsu1f/mlbavgwindindexk.csv' for reading: No such file or directory tail: cannot open '/home/sinton/sjsu1f/mlbcalmindexk.csv' for reading: No such file or directory tail: cannot open '/home/sinton/sjsu1f/mlbavgwindindexk.csv' for reading: No such file or directory tail: cannot open '/home/sinton/sjsu1f/mlbcalmindexk.csv' for reading: No such file or directory tail: cannot open '/home/sinton/sjsu1f/mlbavgwindindexk.csv' for reading: No such file or directory tail: cannot open '/home/sinton/sjsu1f/mlbcalmindexk.csv' for reading: No such file or directory tail: cannot open '/home/sinton/sjsu1f/mlbavgwindindexk.csv' for reading: No such file or directory tail: cannot open '/home/sinton/sjsu1f/mlbcalmindexk.csv' for reading: No such file or directory tail: cannot open '/home/sinton/sjsu1f/mlbavgwindindexk.csv' for reading: No such file or directory % Total % Received % Xferd Average Speed Time Time Time Current Dload Upload Total Spent Left Speed 0 0 0 0 0 0 0 0 --:--:-- --:--:-- --:--:-- 0 100 430 100 430 0 0 3944 0 --:--:-- --:--:-- --:--:-- 3909 100 430 100 430 0 0 3944 0 --:--:-- --:--:-- --:--:-- 3909 % Total % Received % Xferd Average Speed Time Time Time Current Dload Upload Total Spent Left Speed 0 0 0 0 0 0 0 0 --:--:-- --:--:-- --:--:-- 0 100 429 100 429 0 0 11289 0 --:--:-- --:--:-- --:--:-- 11289 % Total % Received % Xferd Average Speed Time Time Time Current Dload Upload Total Spent Left Speed 0 0 0 0 0 0 0 0 --:--:-- --:--:-- --:--:-- 0 100 430 100 430 0 0 7818 0 --:--:-- --:--:-- --:--:-- 7818 % Total % Received % Xferd Average Speed Time Time Time Current Dload Upload Total Spent Left Speed 0 0 0 0 0 0 0 0 --:--:-- --:--:-- --:--:-- 0 100 429 100 429 0 0 6308 0 --:--:-- --:--:-- --:--:-- 6308 % Total % Received % Xferd Average Speed Time Time Time Current Dload Upload Total Spent Left Speed 0 0 0 0 0 0 0 0 --:--:-- --:--:-- --:--:-- 0 100 428 100 428 0 0 1602 0 --:--:-- --:--:-- --:--:-- 1602 tail: cannot open '/home/sinton/sjsu1f/mlbcalmindexk.csv' for reading: No such file or directory tail: cannot open '/home/sinton/sjsu1f/mlbavgwindindexk.csv' for reading: No such file or directory tail: cannot open '/home/sinton/sjsu1f/mlbcalmindexk.csv' for reading: No such file or directory tail: cannot open '/home/sinton/sjsu1f/mlbavgwindindexk.csv' for reading: No such file or directory tail: cannot open '/home/sinton/sjsu1f/mlbcalmindexk.csv' for reading: No such file or directory tail: cannot open '/home/sinton/sjsu1f/mlbavgwindindexk.csv' for reading: No such file or directory tail: cannot open '/home/sinton/sjsu1f/mlbcalmindexk.csv' for reading: No such file or directory tail: cannot open '/home/sinton/sjsu1f/mlbavgwindindexk.csv' for reading: No such file or directory tail: cannot open '/home/sinton/sjsu1f/mlbcalmindexk.csv' for reading: No such file or directory tail: cannot open '/home/sinton/sjsu1f/mlbavgwindindexk.csv' for reading: No such file or directory tail: cannot open '/home/sinton/sjsu1f/mlbcalmindexk.csv' for reading: No such file or directory tail: cannot open '/home/sinton/sjsu1f/mlbavgwindindexk.csv' for reading: No such file or directory tail: cannot open '/home/sinton/sjsu1f/mlbcalmindexk.csv' for reading: No such file or directory tail: cannot open '/home/sinton/sjsu1f/mlbavgwindindexk.csv' for reading: No such file or directory tail: cannot open '/home/sinton/sjsu1f/mlbcalmindexk.csv' for reading: No such file or directory tail: cannot open '/home/sinton/sjsu1f/mlbavgwindindexk.csv' for reading: No such file or directory tail: cannot open '/home/sinton/sjsu1f/mlbcalmindexk.csv' for reading: No such file or directory tail: cannot open '/home/sinton/sjsu1f/mlbavgwindindexk.csv' for reading: No such file or directory tail: cannot open '/home/sinton/sjsu1f/mlbcalmindexk.csv' for reading: No such file or directory tail: cannot open '/home/sinton/sjsu1f/mlbavgwindindexk.csv' for reading: No such file or directory tail: cannot open '/home/sinton/sjsu1f/mlbcalmindexk.csv' for reading: No such file or directory tail: cannot open '/home/sinton/sjsu1f/mlbavgwindindexk.csv' for reading: No such file or directory tail: cannot open '/home/sinton/sjsu1f/mlbcalmindexk.csv' for reading: No such file or directory tail: cannot open '/home/sinton/sjsu1f/mlbavgwindindexk.csv' for reading: No such file or directory tail: cannot open '/home/sinton/sjsu1f/mlbcalmindexk.csv' for reading: No such file or directory tail: cannot open '/home/sinton/sjsu1f/mlbavgwindindexk.csv' for reading: No such file or directory tail: cannot open '/home/sinton/sjsu1f/mlbcalmindexk.csv' for reading: No such file or directory tail: cannot open '/home/sinton/sjsu1f/mlbavgwindindexk.csv' for reading: No such file or directory tail: cannot open '/home/sinton/sjsu1f/mlbcalmindexk.csv' for reading: No such file or directory tail: cannot open '/home/sinton/sjsu1f/mlbavgwindindexk.csv' for reading: No such file or directory tail: cannot open '/home/sinton/sjsu1f/mlbcalmindexk.csv' for reading: No such file or directory tail: cannot open '/home/sinton/sjsu1f/mlbavgwindindexk.csv' for reading: No such file or directory tail: cannot open '/home/sinton/sjsu1f/mlbcalmindexk.csv' for reading: No such file or directory tail: cannot open '/home/sinton/sjsu1f/mlbavgwindindexk.csv' for reading: No such file or directory % Total % Received % Xferd Average Speed Time Time Time Current Dload Upload Total Spent Left Speed 0 0 0 0 0 0 0 0 --:--:-- --:--:-- --:--:-- 0 100 430 100 430 0 0 2205 0 --:--:-- --:--:-- --:--:-- 2205 % Total % Received % Xferd Average Speed Time Time Time Current Dload Upload Total Spent Left Speed 0 0 0 0 0 0 0 0 --:--:-- --:--:-- --:--:-- 0 100 430 100 430 0 0 7678 0 --:--:-- --:--:-- --:--:-- 7678 % Total % Received % Xferd Average Speed Time Time Time Current Dload Upload Total Spent Left Speed 0 0 0 0 0 0 0 0 --:--:-- --:--:-- --:--:-- 0 100 430 100 430 0 0 6142 0 --:--:-- --:--:-- --:--:-- 6142 % Total % Received % Xferd Average Speed Time Time Time Current Dload Upload Total Spent Left Speed 0 0 0 0 0 0 0 0 --:--:-- --:--:-- --:--:-- 0 100 429 100 429 0 0 4333 0 --:--:-- --:--:-- --:--:-- 4333 % Total % Received % Xferd Average Speed Time Time Time Current Dload Upload Total Spent Left Speed 0 0 0 0 0 0 0 0 --:--:-- --:--:-- --:--:-- 0 100 428 100 428 0 0 2993 0 --:--:-- --:--:-- --:--:-- 2993 tail: cannot open '/home/sinton/sjsu1f/mlbcalmindexk.csv' for reading: No such file or directory tail: cannot open '/home/sinton/sjsu1f/mlbavgwindindexk.csv' for reading: No such file or directory tail: cannot open '/home/sinton/sjsu1f/mlbcalmindexk.csv' for reading: No such file or directory tail: cannot open '/home/sinton/sjsu1f/mlbavgwindindexk.csv' for reading: No such file or directory tail: cannot open '/home/sinton/sjsu1f/mlbcalmindexk.csv' for reading: No such file or directory tail: cannot open '/home/sinton/sjsu1f/mlbavgwindindexk.csv' for reading: No such file or directory tail: cannot open '/home/sinton/sjsu1f/mlbcalmindexk.csv' for reading: No such file or directory tail: cannot open '/home/sinton/sjsu1f/mlbavgwindindexk.csv' for reading: No such file or directory tail: cannot open '/home/sinton/sjsu1f/mlbcalmindexk.csv' for reading: No such file or directory tail: cannot open '/home/sinton/sjsu1f/mlbavgwindindexk.csv' for reading: No such file or directory tail: cannot open '/home/sinton/sjsu1f/mlbcalmindexk.csv' for reading: No such file or directory tail: cannot open '/home/sinton/sjsu1f/mlbavgwindindexk.csv' for reading: No such file or directory tail: cannot open '/home/sinton/sjsu1f/mlbcalmindexk.csv' for reading: No such file or directory tail: cannot open '/home/sinton/sjsu1f/mlbavgwindindexk.csv' for reading: No such file or directory tail: cannot open '/home/sinton/sjsu1f/mlbcalmindexk.csv' for reading: No such file or directory tail: cannot open '/home/sinton/sjsu1f/mlbavgwindindexk.csv' for reading: No such file or directory mv: cannot stat '/home/sinton/public_html/John1f/oakstuck': No such file or directory tail: cannot open '/home/sinton/sjsu1f/mlbcalmindexk.csv' for reading: No such file or directory tail: cannot open '/home/sinton/sjsu1f/mlbavgwindindexk.csv' for reading: No such file or directory tail: cannot open '/home/sinton/sjsu1f/mlbcalmindexk.csv' for reading: No such file or directory tail: cannot open '/home/sinton/sjsu1f/mlbavgwindindexk.csv' for reading: No such file or directory tail: cannot open '/home/sinton/sjsu1f/mlbcalmindexk.csv' for reading: No such file or directory tail: cannot open '/home/sinton/sjsu1f/mlbavgwindindexk.csv' for reading: No such file or directory tail: cannot open '/home/sinton/sjsu1f/mlbcalmindexk.csv' for reading: No such file or directory tail: cannot open '/home/sinton/sjsu1f/mlbavgwindindexk.csv' for reading: No such file or directory % Total % Received % Xferd Average Speed Time Time Time Current Dload Upload Total Spent Left Speed 0 0 0 0 0 0 0 0 --:--:-- --:--:-- --:--:-- 0 100 430 100 430 0 0 1514 0 --:--:-- --:--:-- --:--:-- 1514 % Total % Received % Xferd Average Speed Time Time Time Current Dload Upload Total Spent Left Speed 0 0 0 0 0 0 0 0 --:--:-- --:--:-- --:--:-- 0 100 430 100 430 0 0 8431 0 --:--:-- --:--:-- --:--:-- 8269 100 430 100 430 0 0 8431 0 --:--:-- --:--:-- --:--:-- 8269 % Total % Received % Xferd Average Speed Time Time Time Current Dload Upload Total Spent Left Speed 0 0 0 0 0 0 0 0 --:--:-- --:--:-- --:--:-- 0 100 430 100 430 0 0 7049 0 --:--:-- --:--:-- --:--:-- 7049 % Total % Received % Xferd Average Speed Time Time Time Current Dload Upload Total Spent Left Speed 0 0 0 0 0 0 0 0 --:--:-- --:--:-- --:--:-- 0 100 429 100 429 0 0 7526 0 --:--:-- --:--:-- --:--:-- 7660 % Total % Received % Xferd Average Speed Time Time Time Current Dload Upload Total Spent Left Speed 0 0 0 0 0 0 0 0 --:--:-- --:--:-- --:--:-- 0 100 428 100 428 0 0 4115 0 --:--:-- --:--:-- --:--:-- 4115 tail: cannot open '/home/sinton/sjsu1f/mlbcalmindexk.csv' for reading: No such file or directory tail: cannot open '/home/sinton/sjsu1f/mlbavgwindindexk.csv' for reading: No such file or directory tail: cannot open '/home/sinton/sjsu1f/mlbcalmindexk.csv' for reading: No such file or directory tail: cannot open '/home/sinton/sjsu1f/mlbavgwindindexk.csv' for reading: No such file or directory tail: cannot open '/home/sinton/sjsu1f/mlbcalmindexk.csv' for reading: No such file or directory tail: cannot open '/home/sinton/sjsu1f/mlbavgwindindexk.csv' for reading: No such file or directory tail: cannot open '/home/sinton/sjsu1f/mlbcalmindexk.csv' for reading: No such file or directory tail: cannot open '/home/sinton/sjsu1f/mlbavgwindindexk.csv' for reading: No such file or directory tail: cannot open '/home/sinton/sjsu1f/mlbcalmindexk.csv' for reading: No such file or directory tail: cannot open '/home/sinton/sjsu1f/mlbavgwindindexk.csv' for reading: No such file or directory tail: cannot open '/home/sinton/sjsu1f/mlbcalmindexk.csv' for reading: No such file or directory tail: cannot open '/home/sinton/sjsu1f/mlbavgwindindexk.csv' for reading: No such file or directory tail: cannot open '/home/sinton/sjsu1f/mlbcalmindexk.csv' for reading: No such file or directory tail: cannot open '/home/sinton/sjsu1f/mlbavgwindindexk.csv' for reading: No such file or directory tail: cannot open '/home/sinton/sjsu1f/mlbcalmindexk.csv' for reading: No such file or directory tail: cannot open '/home/sinton/sjsu1f/mlbavgwindindexk.csv' for reading: No such file or directory tail: cannot open '/home/sinton/sjsu1f/mlbcalmindexk.csv' for reading: No such file or directory tail: cannot open '/home/sinton/sjsu1f/mlbavgwindindexk.csv' for reading: No such file or directory tail: cannot open '/home/sinton/sjsu1f/mlbcalmindexk.csv' for reading: No such file or directory tail: cannot open '/home/sinton/sjsu1f/mlbavgwindin